<?xml version='1.0' encoding='UTF-8'?><gpx version="1.1" creator="JPX - https://github.com/jenetics/jpx" xmlns="http://www.topografix.com/GPX/1/1"><trk><trkseg><trkpt lat="44.3538" lon="8.5342917"><ele>55.599999999999994</ele><time>2026-03-26T09:32:33.938Z</time></trkpt><trkpt lat="44.3539483" lon="8.5343167"><ele>55.199999999999996</ele><time>2026-03-26T09:33:38.937Z</time></trkpt><trkpt lat="44.3539917" lon="8.5344367"><ele>54.800000000000004</ele><time>2026-03-26T09:34:36.938Z</time></trkpt><trkpt lat="44.35401" lon="8.5345733"><ele>54.400000000000006</ele><time>2026-03-26T09:34:38.938Z</time></trkpt><trkpt lat="44.354" lon="8.5347133"><ele>54.0</ele><time>2026-03-26T09:34:40.937Z</time></trkpt><trkpt lat="44.3539933" lon="8.534835"><ele>54.0</ele><time>2026-03-26T09:34:42.937Z</time></trkpt><trkpt lat="44.354" lon="8.5349717"><ele>54.00000000000001</ele><time>2026-03-26T09:34:44.937Z</time></trkpt><trkpt lat="44.353965" lon="8.53513"><ele>54.00000000000001</ele><time>2026-03-26T09:34:46.938Z</time></trkpt><trkpt lat="44.353915" lon="8.5352533"><ele>54.0</ele><time>2026-03-26T09:34:48.937Z</time></trkpt><trkpt lat="44.3538767" lon="8.53535"><ele>54.0</ele><time>2026-03-26T09:34:52.938Z</time></trkpt><trkpt lat="44.3538883" lon="8.5354467"><ele>55.333333333333336</ele><time>2026-03-26T09:34:54.937Z</time></trkpt><trkpt lat="44.35395" lon="8.535565"><ele>56.66666666666667</ele><time>2026-03-26T09:34:56.937Z</time></trkpt><trkpt lat="44.3539933" lon="8.53564"><ele>58.0</ele><time>2026-03-26T09:34:57.938Z</time></trkpt><trkpt lat="44.3540417" lon="8.5357133"><ele>59.333333333333336</ele><time>2026-03-26T09:34:58.938Z</time></trkpt><trkpt lat="44.354095" lon="8.535805"><ele>60.66666666666667</ele><time>2026-03-26T09:34:59.938Z</time></trkpt><trkpt lat="44.3541467" lon="8.5359017"><ele>62.0</ele><time>2026-03-26T09:35:00.937Z</time></trkpt><trkpt lat="44.3541917" lon="8.5360017"><ele>62.00000000000001</ele><time>2026-03-26T09:35:01.938Z</time></trkpt><trkpt lat="44.3542317" lon="8.5360867"><ele>62.0</ele><time>2026-03-26T09:35:02.938Z</time></trkpt><trkpt lat="44.35428" lon="8.5361633"><ele>62.0</ele><time>2026-03-26T09:35:03.937Z</time></trkpt><trkpt lat="44.3543317" lon="8.5362167"><ele>62.0</ele><time>2026-03-26T09:35:04.938Z</time></trkpt><trkpt lat="44.3544617" lon="8.5362617"><ele>62.00000000000001</ele><time>2026-03-26T09:35:06.938Z</time></trkpt><trkpt lat="44.354535" lon="8.53624"><ele>62.0</ele><time>2026-03-26T09:35:07.937Z</time></trkpt><trkpt lat="44.35461" lon="8.5362217"><ele>62.00000000000001</ele><time>2026-03-26T09:35:08.938Z</time></trkpt><trkpt lat="44.3546917" lon="8.5362117"><ele>62.0</ele><time>2026-03-26T09:35:09.937Z</time></trkpt><trkpt lat="44.3547667" lon="8.5361933"><ele>62.0</ele><time>2026-03-26T09:35:10.937Z</time></trkpt><trkpt lat="44.3548467" lon="8.5361717"><ele>62.0</ele><time>2026-03-26T09:35:11.937Z</time></trkpt><trkpt lat="44.354925" lon="8.536155"><ele>62.00000000000001</ele><time>2026-03-26T09:35:12.938Z</time></trkpt><trkpt lat="44.355005" lon="8.5361433"><ele>62.0</ele><time>2026-03-26T09:35:13.938Z</time></trkpt><trkpt lat="44.35508" lon="8.5361283"><ele>65.33333333333334</ele><time>2026-03-26T09:35:14.938Z</time></trkpt><trkpt lat="44.3551667" lon="8.5361133"><ele>68.66666666666667</ele><time>2026-03-26T09:35:15.938Z</time></trkpt><trkpt lat="44.3552583" lon="8.5361333"><ele>72.0</ele><time>2026-03-26T09:35:16.937Z</time></trkpt><trkpt lat="44.35534" lon="8.53615"><ele>75.33333333333333</ele><time>2026-03-26T09:35:17.938Z</time></trkpt><trkpt lat="44.35542" lon="8.536205"><ele>78.66666666666666</ele><time>2026-03-26T09:35:18.937Z</time></trkpt><trkpt lat="44.355485" lon="8.5362517"><ele>82.0</ele><time>2026-03-26T09:35:19.937Z</time></trkpt><trkpt lat="44.3555917" lon="8.5362667"><ele>86.33333333333333</ele><time>2026-03-26T09:35:21.938Z</time></trkpt><trkpt lat="44.35565" lon="8.536175"><ele>90.66666666666666</ele><time>2026-03-26T09:35:23.937Z</time></trkpt><trkpt lat="44.3556683" lon="8.5360183"><ele>95.0</ele><time>2026-03-26T09:35:25.937Z</time></trkpt><trkpt lat="44.3556433" lon="8.5359267"><ele>99.33333333333333</ele><time>2026-03-26T09:35:26.938Z</time></trkpt><trkpt lat="44.3556183" lon="8.5358283"><ele>103.66666666666667</ele><time>2026-03-26T09:35:27.937Z</time></trkpt><trkpt lat="44.35559" lon="8.5357233"><ele>108.0</ele><time>2026-03-26T09:35:28.938Z</time></trkpt><trkpt lat="44.35555" lon="8.5355917"><ele>108.0</ele><time>2026-03-26T09:35:30.937Z</time></trkpt><trkpt lat="44.3555533" lon="8.5355017"><ele>108.0</ele><time>2026-03-26T09:35:32.937Z</time></trkpt><trkpt lat="44.3556283" lon="8.5355033"><ele>108.0</ele><time>2026-03-26T09:35:34.938Z</time></trkpt><trkpt lat="44.3557133" lon="8.535625"><ele>108.0</ele><time>2026-03-26T09:35:36.937Z</time></trkpt><trkpt lat="44.3557667" lon="8.5357333"><ele>108.0</ele><time>2026-03-26T09:35:38.938Z</time></trkpt><trkpt lat="44.3557983" lon="8.5356483"><ele>108.0</ele><time>2026-03-26T09:35:51.937Z</time></trkpt><trkpt lat="44.3557983" lon="8.5355167"><ele>108.0</ele><time>2026-03-26T09:35:54.938Z</time></trkpt><trkpt lat="44.3557833" lon="8.5354117"><ele>108.0</ele><time>2026-03-26T09:35:56.938Z</time></trkpt><trkpt lat="44.35576" lon="8.5353183"><ele>108.0</ele><time>2026-03-26T09:35:58.938Z</time></trkpt><trkpt lat="44.3557317" lon="8.5352167"><ele>108.0</ele><time>2026-03-26T09:36:00.938Z</time></trkpt><trkpt lat="44.3557133" lon="8.5351117"><ele>108.0</ele><time>2026-03-26T09:36:02.937Z</time></trkpt><trkpt lat="44.3557017" lon="8.534995"><ele>108.0</ele><time>2026-03-26T09:36:04.938Z</time></trkpt><trkpt lat="44.3556983" lon="8.5348683"><ele>109.16666666666667</ele><time>2026-03-26T09:36:06.938Z</time></trkpt><trkpt lat="44.3556883" lon="8.53475"><ele>110.33333333333334</ele><time>2026-03-26T09:36:08.937Z</time></trkpt><trkpt lat="44.3556667" lon="8.53464"><ele>111.5</ele><time>2026-03-26T09:36:10.937Z</time></trkpt><trkpt lat="44.3556383" lon="8.5345367"><ele>112.66666666666667</ele><time>2026-03-26T09:36:13.938Z</time></trkpt><trkpt lat="44.355695" lon="8.5344617"><ele>113.83333333333334</ele><time>2026-03-26T09:41:11.937Z</time></trkpt><trkpt lat="44.3557933" lon="8.5344283"><ele>115.0</ele><time>2026-03-26T09:41:13.937Z</time></trkpt><trkpt lat="44.3558733" lon="8.5344617"><ele>115.00000000000001</ele><time>2026-03-26T09:41:15.938Z</time></trkpt><trkpt lat="44.3558983" lon="8.5345667"><ele>115.0</ele><time>2026-03-26T09:41:17.938Z</time></trkpt><trkpt lat="44.355915" lon="8.534655"><ele>115.0</ele><time>2026-03-26T09:41:18.938Z</time></trkpt><trkpt lat="44.355925" lon="8.53476"><ele>115.0</ele><time>2026-03-26T09:41:19.937Z</time></trkpt><trkpt lat="44.3559367" lon="8.534875"><ele>115.00000000000001</ele><time>2026-03-26T09:41:20.938Z</time></trkpt><trkpt lat="44.3559383" lon="8.53498"><ele>115.0</ele><time>2026-03-26T09:41:21.937Z</time></trkpt><trkpt lat="44.35601" lon="8.5350217"><ele>115.0</ele><time>2026-03-26T09:41:24.938Z</time></trkpt><trkpt lat="44.35609" lon="8.5349533"><ele>115.0</ele><time>2026-03-26T09:41:26.937Z</time></trkpt><trkpt lat="44.356145" lon="8.53484"><ele>115.0</ele><time>2026-03-26T09:41:28.937Z</time></trkpt><trkpt lat="44.3561617" lon="8.5346767"><ele>115.0</ele><time>2026-03-26T09:41:30.937Z</time></trkpt><trkpt lat="44.35615" lon="8.5345633"><ele>115.0</ele><time>2026-03-26T09:41:31.937Z</time></trkpt><trkpt lat="44.35613" lon="8.5344333"><ele>115.16666666666667</ele><time>2026-03-26T09:41:32.937Z</time></trkpt><trkpt lat="44.3561017" lon="8.53431"><ele>115.33333333333334</ele><time>2026-03-26T09:41:33.938Z</time></trkpt><trkpt lat="44.3560967" lon="8.5341967"><ele>115.5</ele><time>2026-03-26T09:41:34.937Z</time></trkpt><trkpt lat="44.3561067" lon="8.534095"><ele>115.66666666666666</ele><time>2026-03-26T09:41:35.938Z</time></trkpt><trkpt lat="44.356135" lon="8.5340117"><ele>115.83333333333333</ele><time>2026-03-26T09:41:36.937Z</time></trkpt><trkpt lat="44.3562233" lon="8.5339867"><ele>116.0</ele><time>2026-03-26T09:41:38.938Z</time></trkpt><trkpt lat="44.3563067" lon="8.53404"><ele>121.49999999999999</ele><time>2026-03-26T09:41:40.938Z</time></trkpt><trkpt lat="44.3564267" lon="8.5340767"><ele>127.0</ele><time>2026-03-26T09:41:42.938Z</time></trkpt><trkpt lat="44.356495" lon="8.534095"><ele>132.5</ele><time>2026-03-26T09:41:43.937Z</time></trkpt><trkpt lat="44.3565683" lon="8.5341117"><ele>138.0</ele><time>2026-03-26T09:41:44.938Z</time></trkpt><trkpt lat="44.3566317" lon="8.534115"><ele>143.5</ele><time>2026-03-26T09:41:45.937Z</time></trkpt><trkpt lat="44.3567017" lon="8.5341167"><ele>149.0</ele><time>2026-03-26T09:41:46.937Z</time></trkpt><trkpt lat="44.356775" lon="8.534125"><ele>149.0</ele><time>2026-03-26T09:41:47.938Z</time></trkpt><trkpt lat="44.356845" lon="8.5341383"><ele>149.0</ele><time>2026-03-26T09:41:48.938Z</time></trkpt><trkpt lat="44.356905" lon="8.53417"><ele>149.0</ele><time>2026-03-26T09:41:49.937Z</time></trkpt><trkpt lat="44.356975" lon="8.5342067"><ele>149.0</ele><time>2026-03-26T09:41:50.938Z</time></trkpt><trkpt lat="44.3570383" lon="8.5342617"><ele>149.0</ele><time>2026-03-26T09:41:51.937Z</time></trkpt><trkpt lat="44.35709" lon="8.5343167"><ele>149.0</ele><time>2026-03-26T09:41:52.937Z</time></trkpt><trkpt lat="44.3571367" lon="8.53438"><ele>149.0</ele><time>2026-03-26T09:41:53.937Z</time></trkpt><trkpt lat="44.3571833" lon="8.5344533"><ele>151.33333333333331</ele><time>2026-03-26T09:41:54.937Z</time></trkpt><trkpt lat="44.3572433" lon="8.5345117"><ele>153.66666666666666</ele><time>2026-03-26T09:41:55.937Z</time></trkpt><trkpt lat="44.357315" lon="8.53455"><ele>156.0</ele><time>2026-03-26T09:41:56.937Z</time></trkpt><trkpt lat="44.3573883" lon="8.53459"><ele>158.33333333333334</ele><time>2026-03-26T09:41:57.938Z</time></trkpt><trkpt lat="44.3574767" lon="8.5346483"><ele>160.66666666666669</ele><time>2026-03-26T09:41:58.937Z</time></trkpt><trkpt lat="44.3575617" lon="8.5347133"><ele>163.0</ele><time>2026-03-26T09:41:59.938Z</time></trkpt><trkpt lat="44.35766" lon="8.5347633"><ele>164.2</ele><time>2026-03-26T09:42:00.938Z</time></trkpt><trkpt lat="44.3577683" lon="8.534825"><ele>165.4</ele><time>2026-03-26T09:42:01.937Z</time></trkpt><trkpt lat="44.35786" lon="8.534895"><ele>166.6</ele><time>2026-03-26T09:42:02.938Z</time></trkpt><trkpt lat="44.3579567" lon="8.5349567"><ele>167.79999999999998</ele><time>2026-03-26T09:42:03.937Z</time></trkpt><trkpt lat="44.35805" lon="8.53499"><ele>169.0</ele><time>2026-03-26T09:42:04.937Z</time></trkpt><trkpt lat="44.3581683" lon="8.5350083"><ele>171.75</ele><time>2026-03-26T09:42:05.937Z</time></trkpt><trkpt lat="44.358295" lon="8.5350367"><ele>174.5</ele><time>2026-03-26T09:42:06.937Z</time></trkpt><trkpt lat="44.3584183" lon="8.53505"><ele>177.25</ele><time>2026-03-26T09:42:07.937Z</time></trkpt><trkpt lat="44.3585267" lon="8.5350483"><ele>180.0</ele><time>2026-03-26T09:42:08.937Z</time></trkpt><trkpt lat="44.358615" lon="8.5350133"><ele>180.0</ele><time>2026-03-26T09:42:09.937Z</time></trkpt><trkpt lat="44.358695" lon="8.5349567"><ele>180.0</ele><time>2026-03-26T09:42:10.937Z</time></trkpt><trkpt lat="44.3587633" lon="8.5348917"><ele>180.0</ele><time>2026-03-26T09:42:11.937Z</time></trkpt><trkpt lat="44.3588317" lon="8.5348433"><ele>180.0</ele><time>2026-03-26T09:42:12.938Z</time></trkpt><trkpt lat="44.3589433" lon="8.53491"><ele>180.0</ele><time>2026-03-26T09:42:14.938Z</time></trkpt><trkpt lat="44.3590217" lon="8.5350017"><ele>181.5</ele><time>2026-03-26T09:42:15.938Z</time></trkpt><trkpt lat="44.3591317" lon="8.5351183"><ele>183.0</ele><time>2026-03-26T09:42:16.938Z</time></trkpt><trkpt lat="44.3592567" lon="8.5352233"><ele>184.5</ele><time>2026-03-26T09:42:17.938Z</time></trkpt><trkpt lat="44.3593733" lon="8.5353383"><ele>186.0</ele><time>2026-03-26T09:42:18.937Z</time></trkpt><trkpt lat="44.3594917" lon="8.5354717"><ele>186.5</ele><time>2026-03-26T09:42:19.938Z</time></trkpt><trkpt lat="44.3595933" lon="8.5355833"><ele>187.0</ele><time>2026-03-26T09:42:20.937Z</time></trkpt><trkpt lat="44.3596583" lon="8.535685"><ele>187.5</ele><time>2026-03-26T09:42:21.937Z</time></trkpt><trkpt lat="44.3597117" lon="8.535815"><ele>188.0</ele><time>2026-03-26T09:42:22.938Z</time></trkpt><trkpt lat="44.35977" lon="8.5359783"><ele>192.25</ele><time>2026-03-26T09:42:23.938Z</time></trkpt><trkpt lat="44.3598467" lon="8.53615"><ele>196.5</ele><time>2026-03-26T09:42:24.938Z</time></trkpt><trkpt lat="44.3599233" lon="8.53631"><ele>200.75</ele><time>2026-03-26T09:42:25.939Z</time></trkpt><trkpt lat="44.36" lon="8.53645"><ele>205.0</ele><time>2026-03-26T09:42:26.938Z</time></trkpt><trkpt lat="44.3600483" lon="8.5365417"><ele>207.4</ele><time>2026-03-26T09:42:27.939Z</time></trkpt><trkpt lat="44.3600983" lon="8.5366067"><ele>209.8</ele><time>2026-03-26T09:42:28.938Z</time></trkpt><trkpt lat="44.360175" lon="8.5366367"><ele>212.2</ele><time>2026-03-26T09:42:30.938Z</time></trkpt><trkpt lat="44.360305" lon="8.5366167"><ele>214.6</ele><time>2026-03-26T09:42:32.938Z</time></trkpt><trkpt lat="44.3604017" lon="8.5366083"><ele>217.0</ele><time>2026-03-26T09:42:33.939Z</time></trkpt><trkpt lat="44.360515" lon="8.53663"><ele>218.2</ele><time>2026-03-26T09:42:34.938Z</time></trkpt><trkpt lat="44.3606167" lon="8.5366667"><ele>219.39999999999998</ele><time>2026-03-26T09:42:35.938Z</time></trkpt><trkpt lat="44.36071" lon="8.5367033"><ele>220.60000000000002</ele><time>2026-03-26T09:42:36.938Z</time></trkpt><trkpt lat="44.360805" lon="8.536715"><ele>221.8</ele><time>2026-03-26T09:42:37.938Z</time></trkpt><trkpt lat="44.3609017" lon="8.536705"><ele>223.0</ele><time>2026-03-26T09:42:38.938Z</time></trkpt><trkpt lat="44.3609983" lon="8.5366783"><ele>223.0</ele><time>2026-03-26T09:42:39.939Z</time></trkpt><trkpt lat="44.3611" lon="8.5366317"><ele>223.0</ele><time>2026-03-26T09:42:40.938Z</time></trkpt><trkpt lat="44.361215" lon="8.5365533"><ele>223.0</ele><time>2026-03-26T09:42:41.938Z</time></trkpt><trkpt lat="44.3613283" lon="8.536485"><ele>223.0</ele><time>2026-03-26T09:42:42.939Z</time></trkpt><trkpt lat="44.3614433" lon="8.5364317"><ele>225.0</ele><time>2026-03-26T09:42:43.939Z</time></trkpt><trkpt lat="44.3615583" lon="8.5363783"><ele>227.0</ele><time>2026-03-26T09:42:44.939Z</time></trkpt><trkpt lat="44.3616583" lon="8.5363167"><ele>229.0</ele><time>2026-03-26T09:42:45.939Z</time></trkpt><trkpt lat="44.36176" lon="8.536245"><ele>231.0</ele><time>2026-03-26T09:42:46.938Z</time></trkpt><trkpt lat="44.3618733" lon="8.5361833"><ele>229.75</ele><time>2026-03-26T09:42:47.939Z</time></trkpt><trkpt lat="44.3620033" lon="8.5361233"><ele>228.5</ele><time>2026-03-26T09:42:48.938Z</time></trkpt><trkpt lat="44.3621433" lon="8.5360767"><ele>227.25</ele><time>2026-03-26T09:42:49.938Z</time></trkpt><trkpt lat="44.3622733" lon="8.5360217"><ele>226.0</ele><time>2026-03-26T09:42:50.939Z</time></trkpt><trkpt lat="44.3624033" lon="8.535975"><ele>226.0</ele><time>2026-03-26T09:42:51.939Z</time></trkpt><trkpt lat="44.3625167" lon="8.5359383"><ele>226.00000000000003</ele><time>2026-03-26T09:42:52.939Z</time></trkpt><trkpt lat="44.3626117" lon="8.5359283"><ele>226.00000000000003</ele><time>2026-03-26T09:42:53.939Z</time></trkpt><trkpt lat="44.3626983" lon="8.5359333"><ele>226.0</ele><time>2026-03-26T09:42:54.938Z</time></trkpt><trkpt lat="44.362785" lon="8.5359567"><ele>226.0</ele><time>2026-03-26T09:42:55.938Z</time></trkpt><trkpt lat="44.3628933" lon="8.5360117"><ele>225.99999999999997</ele><time>2026-03-26T09:42:56.938Z</time></trkpt><trkpt lat="44.3629933" lon="8.5360783"><ele>226.0</ele><time>2026-03-26T09:42:57.938Z</time></trkpt><trkpt lat="44.3630667" lon="8.53614"><ele>226.0</ele><time>2026-03-26T09:42:58.938Z</time></trkpt><trkpt lat="44.363125" lon="8.5361883"><ele>226.0</ele><time>2026-03-26T09:42:59.939Z</time></trkpt><trkpt lat="44.3631917" lon="8.5362017"><ele>225.99999999999997</ele><time>2026-03-26T09:43:00.938Z</time></trkpt><trkpt lat="44.363295" lon="8.536175"><ele>226.0</ele><time>2026-03-26T09:43:01.939Z</time></trkpt><trkpt lat="44.3634233" lon="8.5361367"><ele>227.25</ele><time>2026-03-26T09:43:02.938Z</time></trkpt><trkpt lat="44.363555" lon="8.5361117"><ele>228.5</ele><time>2026-03-26T09:43:03.939Z</time></trkpt><trkpt lat="44.3636683" lon="8.5361267"><ele>229.75</ele><time>2026-03-26T09:43:04.938Z</time></trkpt><trkpt lat="44.3637933" lon="8.53618"><ele>231.0</ele><time>2026-03-26T09:43:05.938Z</time></trkpt><trkpt lat="44.3639167" lon="8.536255"><ele>232.25</ele><time>2026-03-26T09:43:06.938Z</time></trkpt><trkpt lat="44.364035" lon="8.53633"><ele>233.5</ele><time>2026-03-26T09:43:07.939Z</time></trkpt><trkpt lat="44.3641483" lon="8.536375"><ele>234.75</ele><time>2026-03-26T09:43:08.939Z</time></trkpt><trkpt lat="44.3642717" lon="8.536395"><ele>236.0</ele><time>2026-03-26T09:43:09.939Z</time></trkpt><trkpt lat="44.3644167" lon="8.536405"><ele>236.0</ele><time>2026-03-26T09:43:10.939Z</time></trkpt><trkpt lat="44.3645483" lon="8.5363817"><ele>236.0</ele><time>2026-03-26T09:43:11.938Z</time></trkpt><trkpt lat="44.36468" lon="8.5363383"><ele>236.0</ele><time>2026-03-26T09:43:12.938Z</time></trkpt><trkpt lat="44.3648" lon="8.5362967"><ele>236.0</ele><time>2026-03-26T09:43:13.939Z</time></trkpt><trkpt lat="44.3649267" lon="8.53626"><ele>236.60000000000002</ele><time>2026-03-26T09:43:14.939Z</time></trkpt><trkpt lat="44.365045" lon="8.5362567"><ele>237.20000000000002</ele><time>2026-03-26T09:43:15.939Z</time></trkpt><trkpt lat="44.3651583" lon="8.5362767"><ele>237.79999999999998</ele><time>2026-03-26T09:43:16.938Z</time></trkpt><trkpt lat="44.3652567" lon="8.536325"><ele>238.39999999999998</ele><time>2026-03-26T09:43:17.939Z</time></trkpt><trkpt lat="44.3653367" lon="8.5363883"><ele>239.0</ele><time>2026-03-26T09:43:18.938Z</time></trkpt><trkpt lat="44.36541" lon="8.536465"><ele>239.0</ele><time>2026-03-26T09:43:19.938Z</time></trkpt><trkpt lat="44.36547" lon="8.536595"><ele>238.99999999999997</ele><time>2026-03-26T09:43:20.938Z</time></trkpt><trkpt lat="44.3655483" lon="8.5367117"><ele>238.99999999999997</ele><time>2026-03-26T09:43:21.938Z</time></trkpt><trkpt lat="44.3656317" lon="8.5367733"><ele>239.0</ele><time>2026-03-26T09:43:22.938Z</time></trkpt><trkpt lat="44.3657333" lon="8.536805"><ele>239.0</ele><time>2026-03-26T09:43:23.938Z</time></trkpt><trkpt lat="44.3658633" lon="8.5368133"><ele>241.0</ele><time>2026-03-26T09:43:24.939Z</time></trkpt><trkpt lat="44.3660167" lon="8.5368317"><ele>243.0</ele><time>2026-03-26T09:43:25.939Z</time></trkpt><trkpt lat="44.3661617" lon="8.5368533"><ele>245.0</ele><time>2026-03-26T09:43:26.939Z</time></trkpt><trkpt lat="44.3662783" lon="8.5368633"><ele>247.0</ele><time>2026-03-26T09:43:27.938Z</time></trkpt><trkpt lat="44.3663883" lon="8.536875"><ele>248.5</ele><time>2026-03-26T09:43:28.938Z</time></trkpt><trkpt lat="44.3665067" lon="8.5368733"><ele>250.0</ele><time>2026-03-26T09:43:29.938Z</time></trkpt><trkpt lat="44.3666233" lon="8.5368533"><ele>251.5</ele><time>2026-03-26T09:43:30.938Z</time></trkpt><trkpt lat="44.366735" lon="8.5368067"><ele>253.0</ele><time>2026-03-26T09:43:31.938Z</time></trkpt><trkpt lat="44.3668517" lon="8.5367283"><ele>253.0</ele><time>2026-03-26T09:43:32.938Z</time></trkpt><trkpt lat="44.3669617" lon="8.5366267"><ele>253.0</ele><time>2026-03-26T09:43:33.939Z</time></trkpt><trkpt lat="44.36707" lon="8.5365217"><ele>253.0</ele><time>2026-03-26T09:43:34.939Z</time></trkpt><trkpt lat="44.3671717" lon="8.53642"><ele>253.0</ele><time>2026-03-26T09:43:35.938Z</time></trkpt><trkpt lat="44.367265" lon="8.53632"><ele>254.75</ele><time>2026-03-26T09:43:36.938Z</time></trkpt><trkpt lat="44.3673633" lon="8.5361917"><ele>256.5</ele><time>2026-03-26T09:43:37.938Z</time></trkpt><trkpt lat="44.367445" lon="8.5360483"><ele>258.25</ele><time>2026-03-26T09:43:38.938Z</time></trkpt><trkpt lat="44.3675367" lon="8.5359217"><ele>260.0</ele><time>2026-03-26T09:43:39.938Z</time></trkpt><trkpt lat="44.3676483" lon="8.53582"><ele>260.0</ele><time>2026-03-26T09:43:40.939Z</time></trkpt><trkpt lat="44.3677733" lon="8.5357233"><ele>260.0</ele><time>2026-03-26T09:43:41.938Z</time></trkpt><trkpt lat="44.3678817" lon="8.535625"><ele>260.0</ele><time>2026-03-26T09:43:42.939Z</time></trkpt><trkpt lat="44.3679733" lon="8.5355683"><ele>260.0</ele><time>2026-03-26T09:43:43.938Z</time></trkpt><trkpt lat="44.3680767" lon="8.53553"><ele>259.6</ele><time>2026-03-26T09:43:44.938Z</time></trkpt><trkpt lat="44.36819" lon="8.535505"><ele>259.2</ele><time>2026-03-26T09:43:45.938Z</time></trkpt><trkpt lat="44.3683083" lon="8.535495"><ele>258.8</ele><time>2026-03-26T09:43:46.938Z</time></trkpt><trkpt lat="44.3684233" lon="8.5354583"><ele>258.4</ele><time>2026-03-26T09:43:47.938Z</time></trkpt><trkpt lat="44.3685183" lon="8.5354233"><ele>258.0</ele><time>2026-03-26T09:43:48.938Z</time></trkpt><trkpt lat="44.3686117" lon="8.5353767"><ele>258.0</ele><time>2026-03-26T09:43:49.938Z</time></trkpt><trkpt lat="44.368705" lon="8.535335"><ele>258.0</ele><time>2026-03-26T09:43:50.939Z</time></trkpt><trkpt lat="44.3688183" lon="8.5353067"><ele>258.0</ele><time>2026-03-26T09:43:51.939Z</time></trkpt><trkpt lat="44.3689367" lon="8.5352483"><ele>258.0</ele><time>2026-03-26T09:43:52.938Z</time></trkpt><trkpt lat="44.3690567" lon="8.5351867"><ele>258.8</ele><time>2026-03-26T09:43:53.938Z</time></trkpt><trkpt lat="44.369165" lon="8.5350983"><ele>259.6</ele><time>2026-03-26T09:43:54.939Z</time></trkpt><trkpt lat="44.3692617" lon="8.53501"><ele>260.4</ele><time>2026-03-26T09:43:55.939Z</time></trkpt><trkpt lat="44.369345" lon="8.534925"><ele>261.2</ele><time>2026-03-26T09:43:56.939Z</time></trkpt><trkpt lat="44.3694183" lon="8.5348733"><ele>262.0</ele><time>2026-03-26T09:43:57.939Z</time></trkpt><trkpt lat="44.3695033" lon="8.5348567"><ele>262.0</ele><time>2026-03-26T09:43:58.938Z</time></trkpt><trkpt lat="44.3695967" lon="8.5348583"><ele>262.0</ele><time>2026-03-26T09:43:59.938Z</time></trkpt><trkpt lat="44.3696933" lon="8.5348733"><ele>262.0</ele><time>2026-03-26T09:44:00.938Z</time></trkpt><trkpt lat="44.369775" lon="8.5349017"><ele>262.0</ele><time>2026-03-26T09:44:01.938Z</time></trkpt><trkpt lat="44.3698467" lon="8.53492"><ele>262.0</ele><time>2026-03-26T09:44:02.939Z</time></trkpt><trkpt lat="44.3699167" lon="8.5349167"><ele>262.0</ele><time>2026-03-26T09:44:03.938Z</time></trkpt><trkpt lat="44.3699733" lon="8.53482"><ele>264.0</ele><time>2026-03-26T09:44:05.939Z</time></trkpt><trkpt lat="44.3699567" lon="8.53473"><ele>266.0</ele><time>2026-03-26T09:44:06.938Z</time></trkpt><trkpt lat="44.3699133" lon="8.5346217"><ele>268.0</ele><time>2026-03-26T09:44:07.939Z</time></trkpt><trkpt lat="44.36988" lon="8.53453"><ele>270.0</ele><time>2026-03-26T09:44:08.938Z</time></trkpt><trkpt lat="44.3698683" lon="8.5344117"><ele>272.0</ele><time>2026-03-26T09:44:10.939Z</time></trkpt><trkpt lat="44.3698917" lon="8.5342467"><ele>274.0</ele><time>2026-03-26T09:44:12.939Z</time></trkpt><trkpt lat="44.3699117" lon="8.5341617"><ele>274.8</ele><time>2026-03-26T09:44:13.939Z</time></trkpt><trkpt lat="44.3699667" lon="8.5340233"><ele>275.59999999999997</ele><time>2026-03-26T09:44:15.938Z</time></trkpt><trkpt lat="44.3699933" lon="8.5338917"><ele>276.4</ele><time>2026-03-26T09:44:17.939Z</time></trkpt><trkpt lat="44.3699783" lon="8.53373"><ele>277.2</ele><time>2026-03-26T09:44:19.939Z</time></trkpt><trkpt lat="44.3699633" lon="8.5336317"><ele>278.0</ele><time>2026-03-26T09:44:20.938Z</time></trkpt><trkpt lat="44.3699683" lon="8.533535"><ele>279.33333333333337</ele><time>2026-03-26T09:44:21.938Z</time></trkpt><trkpt lat="44.3699667" lon="8.5334267"><ele>280.6666666666667</ele><time>2026-03-26T09:44:22.939Z</time></trkpt><trkpt lat="44.3699783" lon="8.5333283"><ele>282.0</ele><time>2026-03-26T09:44:23.938Z</time></trkpt><trkpt lat="44.36999" lon="8.533235"><ele>283.3333333333333</ele><time>2026-03-26T09:44:24.939Z</time></trkpt><trkpt lat="44.37002" lon="8.5330733"><ele>284.66666666666663</ele><time>2026-03-26T09:44:26.939Z</time></trkpt><trkpt lat="44.37003" lon="8.5329767"><ele>286.0</ele><time>2026-03-26T09:44:27.938Z</time></trkpt><trkpt lat="44.370055" lon="8.5328783"><ele>286.71428571428567</ele><time>2026-03-26T09:44:28.938Z</time></trkpt><trkpt lat="44.3700783" lon="8.53278"><ele>287.42857142857144</ele><time>2026-03-26T09:44:29.938Z</time></trkpt><trkpt lat="44.3700917" lon="8.5326917"><ele>288.1428571428571</ele><time>2026-03-26T09:44:30.939Z</time></trkpt><trkpt lat="44.3701183" lon="8.5326033"><ele>288.85714285714283</ele><time>2026-03-26T09:44:31.938Z</time></trkpt><trkpt lat="44.370145" lon="8.532515"><ele>289.57142857142856</ele><time>2026-03-26T09:44:32.939Z</time></trkpt><trkpt lat="44.370165" lon="8.5324267"><ele>290.2857142857143</ele><time>2026-03-26T09:44:33.939Z</time></trkpt><trkpt lat="44.370205" lon="8.5323017"><ele>291.0</ele><time>2026-03-26T09:44:35.939Z</time></trkpt><trkpt lat="44.37024" lon="8.532215"><ele>291.0</ele><time>2026-03-26T09:44:37.939Z</time></trkpt><trkpt lat="44.37026" lon="8.5321"><ele>291.0</ele><time>2026-03-26T09:44:39.938Z</time></trkpt><trkpt lat="44.370265" lon="8.531995"><ele>291.0</ele><time>2026-03-26T09:44:41.939Z</time></trkpt><trkpt lat="44.37027" lon="8.5318733"><ele>291.0</ele><time>2026-03-26T09:44:43.939Z</time></trkpt><trkpt lat="44.3702817" lon="8.5317433"><ele>291.0</ele><time>2026-03-26T09:44:45.938Z</time></trkpt><trkpt lat="44.3702767" lon="8.5315633"><ele>292.2</ele><time>2026-03-26T09:44:47.938Z</time></trkpt><trkpt lat="44.3702883" lon="8.5314217"><ele>293.40000000000003</ele><time>2026-03-26T09:44:49.938Z</time></trkpt><trkpt lat="44.3703183" lon="8.5312867"><ele>294.6</ele><time>2026-03-26T09:44:51.938Z</time></trkpt><trkpt lat="44.3704117" lon="8.5311583"><ele>295.8</ele><time>2026-03-26T09:44:53.938Z</time></trkpt><trkpt lat="44.3704917" lon="8.5310833"><ele>297.0</ele><time>2026-03-26T09:44:54.938Z</time></trkpt><trkpt lat="44.3705833" lon="8.5310067"><ele>298.3333333333333</ele><time>2026-03-26T09:44:55.938Z</time></trkpt><trkpt lat="44.3706683" lon="8.5309433"><ele>299.6666666666667</ele><time>2026-03-26T09:44:56.938Z</time></trkpt><trkpt lat="44.3707683" lon="8.5308967"><ele>301.0</ele><time>2026-03-26T09:44:57.938Z</time></trkpt><trkpt lat="44.3708517" lon="8.530875"><ele>302.33333333333337</ele><time>2026-03-26T09:44:58.938Z</time></trkpt><trkpt lat="44.3709233" lon="8.53085"><ele>303.6666666666667</ele><time>2026-03-26T09:44:59.938Z</time></trkpt><trkpt lat="44.3709867" lon="8.5308483"><ele>305.0</ele><time>2026-03-26T09:45:01.939Z</time></trkpt><trkpt lat="44.3709883" lon="8.5309483"><ele>305.0</ele><time>2026-03-26T09:45:06.939Z</time></trkpt><trkpt lat="44.370935" lon="8.53101"><ele>305.0</ele><time>2026-03-26T09:45:08.939Z</time></trkpt><trkpt lat="44.370965" lon="8.5311083"><ele>305.0</ele><time>2026-03-26T09:45:10.938Z</time></trkpt><trkpt lat="44.3710217" lon="8.531165"><ele>305.0</ele><time>2026-03-26T09:45:11.938Z</time></trkpt><trkpt lat="44.3710933" lon="8.5312317"><ele>305.0</ele><time>2026-03-26T09:45:12.938Z</time></trkpt><trkpt lat="44.3711633" lon="8.5312883"><ele>305.0</ele><time>2026-03-26T09:45:13.938Z</time></trkpt><trkpt lat="44.3712283" lon="8.5313633"><ele>306.5</ele><time>2026-03-26T09:45:14.939Z</time></trkpt><trkpt lat="44.3712867" lon="8.5314383"><ele>308.0</ele><time>2026-03-26T09:45:15.939Z</time></trkpt><trkpt lat="44.3713333" lon="8.5315067"><ele>309.5</ele><time>2026-03-26T09:45:16.939Z</time></trkpt><trkpt lat="44.37143" lon="8.5315767"><ele>311.0</ele><time>2026-03-26T09:45:18.938Z</time></trkpt><trkpt lat="44.3714933" lon="8.5315917"><ele>312.5</ele><time>2026-03-26T09:45:19.939Z</time></trkpt><trkpt lat="44.3715567" lon="8.53162"><ele>314.0</ele><time>2026-03-26T09:45:21.939Z</time></trkpt><trkpt lat="44.3716" lon="8.5316867"><ele>316.6666666666667</ele><time>2026-03-26T09:45:23.939Z</time></trkpt><trkpt lat="44.3716183" lon="8.5317767"><ele>319.33333333333337</ele><time>2026-03-26T09:45:25.939Z</time></trkpt><trkpt lat="44.3715883" lon="8.5319"><ele>322.0</ele><time>2026-03-26T09:45:27.938Z</time></trkpt><trkpt lat="44.3715567" lon="8.5319833"><ele>324.6666666666667</ele><time>2026-03-26T09:45:28.938Z</time></trkpt><trkpt lat="44.37151" lon="8.5320783"><ele>327.3333333333333</ele><time>2026-03-26T09:45:29.938Z</time></trkpt><trkpt lat="44.3714517" lon="8.5321533"><ele>330.0</ele><time>2026-03-26T09:45:30.938Z</time></trkpt><trkpt lat="44.3714033" lon="8.5322317"><ele>330.3333333333333</ele><time>2026-03-26T09:45:31.938Z</time></trkpt><trkpt lat="44.3713467" lon="8.5323583"><ele>330.6666666666667</ele><time>2026-03-26T09:45:33.939Z</time></trkpt><trkpt lat="44.37133" lon="8.5324533"><ele>331.0</ele><time>2026-03-26T09:45:35.939Z</time></trkpt><trkpt lat="44.3713217" lon="8.5325433"><ele>331.33333333333337</ele><time>2026-03-26T09:45:37.939Z</time></trkpt><trkpt lat="44.3712883" lon="8.53266"><ele>331.6666666666667</ele><time>2026-03-26T09:45:39.939Z</time></trkpt><trkpt lat="44.3712633" lon="8.5328033"><ele>332.0</ele><time>2026-03-26T09:45:41.939Z</time></trkpt><trkpt lat="44.3712217" lon="8.532945"><ele>332.0</ele><time>2026-03-26T09:45:43.938Z</time></trkpt><trkpt lat="44.3711817" lon="8.5330533"><ele>332.0</ele><time>2026-03-26T09:45:45.938Z</time></trkpt><trkpt lat="44.3711533" lon="8.5331867"><ele>332.0</ele><time>2026-03-26T09:45:47.938Z</time></trkpt><trkpt lat="44.3711767" lon="8.5333133"><ele>332.0</ele><time>2026-03-26T09:45:49.938Z</time></trkpt><trkpt lat="44.371235" lon="8.533375"><ele>332.0</ele><time>2026-03-26T09:45:50.938Z</time></trkpt><trkpt lat="44.3713033" lon="8.533435"><ele>332.0</ele><time>2026-03-26T09:45:51.938Z</time></trkpt><trkpt lat="44.3713933" lon="8.5334917"><ele>334.6</ele><time>2026-03-26T09:45:52.938Z</time></trkpt><trkpt lat="44.3714883" lon="8.53357"><ele>337.20000000000005</ele><time>2026-03-26T09:45:53.938Z</time></trkpt><trkpt lat="44.3715733" lon="8.5336333"><ele>339.8</ele><time>2026-03-26T09:45:54.939Z</time></trkpt><trkpt lat="44.371655" lon="8.533675"><ele>342.4</ele><time>2026-03-26T09:45:55.938Z</time></trkpt><trkpt lat="44.37173" lon="8.533725"><ele>345.0</ele><time>2026-03-26T09:45:56.938Z</time></trkpt><trkpt lat="44.3717883" lon="8.5337983"><ele>345.0</ele><time>2026-03-26T09:45:57.939Z</time></trkpt><trkpt lat="44.37185" lon="8.5338967"><ele>345.0</ele><time>2026-03-26T09:45:58.939Z</time></trkpt><trkpt lat="44.3719067" lon="8.5339917"><ele>345.0</ele><time>2026-03-26T09:45:59.938Z</time></trkpt><trkpt lat="44.37196" lon="8.5340733"><ele>345.0</ele><time>2026-03-26T09:46:00.939Z</time></trkpt><trkpt lat="44.372045" lon="8.5341117"><ele>345.0</ele><time>2026-03-26T09:46:02.938Z</time></trkpt><trkpt lat="44.3721433" lon="8.5340933"><ele>348.0</ele><time>2026-03-26T09:46:04.939Z</time></trkpt><trkpt lat="44.3722017" lon="8.5340483"><ele>351.0</ele><time>2026-03-26T09:46:05.939Z</time></trkpt><trkpt lat="44.3722567" lon="8.5339917"><ele>354.0</ele><time>2026-03-26T09:46:06.939Z</time></trkpt><trkpt lat="44.3723583" lon="8.5339283"><ele>357.0</ele><time>2026-03-26T09:46:08.939Z</time></trkpt><trkpt lat="44.3724833" lon="8.5338917"><ele>360.0</ele><time>2026-03-26T09:46:10.938Z</time></trkpt><trkpt lat="44.3725483" lon="8.53388"><ele>363.0</ele><time>2026-03-26T09:46:11.939Z</time></trkpt><trkpt lat="44.37262" lon="8.5338617"><ele>363.0</ele><time>2026-03-26T09:46:12.939Z</time></trkpt><trkpt lat="44.3727417" lon="8.5338833"><ele>363.0</ele><time>2026-03-26T09:46:14.939Z</time></trkpt><trkpt lat="44.3728367" lon="8.53393"><ele>363.0</ele><time>2026-03-26T09:46:16.939Z</time></trkpt><trkpt lat="44.3729117" lon="8.5338367"><ele>363.0</ele><time>2026-03-26T09:46:18.938Z</time></trkpt><trkpt lat="44.373015" lon="8.5337367"><ele>363.0</ele><time>2026-03-26T09:46:20.939Z</time></trkpt><trkpt lat="44.373065" lon="8.533675"><ele>366.79999999999995</ele><time>2026-03-26T09:46:21.938Z</time></trkpt><trkpt lat="44.3731583" lon="8.533625"><ele>370.6</ele><time>2026-03-26T09:46:23.938Z</time></trkpt><trkpt lat="44.3732783" lon="8.5336367"><ele>374.4</ele><time>2026-03-26T09:46:25.939Z</time></trkpt><trkpt lat="44.3733467" lon="8.5336333"><ele>378.20000000000005</ele><time>2026-03-26T09:46:26.939Z</time></trkpt><trkpt lat="44.3734317" lon="8.53365"><ele>382.0</ele><time>2026-03-26T09:46:28.939Z</time></trkpt><trkpt lat="44.3734667" lon="8.5338033"><ele>382.3333333333333</ele><time>2026-03-26T09:46:31.938Z</time></trkpt><trkpt lat="44.3734583" lon="8.53392"><ele>382.66666666666663</ele><time>2026-03-26T09:46:32.938Z</time></trkpt><trkpt lat="44.3734383" lon="8.5340283"><ele>383.0</ele><time>2026-03-26T09:46:33.939Z</time></trkpt><trkpt lat="44.373435" lon="8.5341283"><ele>383.3333333333333</ele><time>2026-03-26T09:46:34.938Z</time></trkpt><trkpt lat="44.3734483" lon="8.5342233"><ele>383.6666666666667</ele><time>2026-03-26T09:46:35.939Z</time></trkpt><trkpt lat="44.373475" lon="8.5343233"><ele>384.0</ele><time>2026-03-26T09:46:36.938Z</time></trkpt><trkpt lat="44.3734933" lon="8.5344167"><ele>384.0</ele><time>2026-03-26T09:46:37.938Z</time></trkpt><trkpt lat="44.3734967" lon="8.5345217"><ele>384.0</ele><time>2026-03-26T09:46:38.939Z</time></trkpt><trkpt lat="44.373495" lon="8.534625"><ele>384.0</ele><time>2026-03-26T09:46:39.938Z</time></trkpt><trkpt lat="44.3734733" lon="8.5347283"><ele>384.0</ele><time>2026-03-26T09:46:40.938Z</time></trkpt><trkpt lat="44.3734383" lon="8.5348283"><ele>384.0</ele><time>2026-03-26T09:46:41.939Z</time></trkpt><trkpt lat="44.3734" lon="8.534925"><ele>384.0</ele><time>2026-03-26T09:46:42.939Z</time></trkpt><trkpt lat="44.3733733" lon="8.5350233"><ele>383.0</ele><time>2026-03-26T09:46:43.938Z</time></trkpt><trkpt lat="44.373395" lon="8.5351617"><ele>382.0</ele><time>2026-03-26T09:46:45.939Z</time></trkpt><trkpt lat="44.3734983" lon="8.5352717"><ele>381.0</ele><time>2026-03-26T09:46:47.939Z</time></trkpt><trkpt lat="44.373565" lon="8.53533"><ele>380.0</ele><time>2026-03-26T09:46:48.938Z</time></trkpt><trkpt lat="44.3736333" lon="8.5353917"><ele>379.0</ele><time>2026-03-26T09:46:49.938Z</time></trkpt><trkpt lat="44.3736967" lon="8.53546"><ele>378.0</ele><time>2026-03-26T09:46:50.939Z</time></trkpt><trkpt lat="44.3737583" lon="8.535545"><ele>377.0</ele><time>2026-03-26T09:46:51.938Z</time></trkpt><trkpt lat="44.3738017" lon="8.53563"><ele>376.0</ele><time>2026-03-26T09:46:52.939Z</time></trkpt><trkpt lat="44.3738217" lon="8.5357183"><ele>375.0</ele><time>2026-03-26T09:46:53.939Z</time></trkpt><trkpt lat="44.373805" lon="8.535865"><ele>374.0</ele><time>2026-03-26T09:46:55.938Z</time></trkpt><trkpt lat="44.3738033" lon="8.5359767"><ele>373.0</ele><time>2026-03-26T09:46:57.939Z</time></trkpt><trkpt lat="44.3738533" lon="8.5360567"><ele>379.2</ele><time>2026-03-26T09:46:59.939Z</time></trkpt><trkpt lat="44.3739233" lon="8.5361633"><ele>385.4</ele><time>2026-03-26T09:47:01.938Z</time></trkpt><trkpt lat="44.3739783" lon="8.53628"><ele>391.59999999999997</ele><time>2026-03-26T09:47:03.939Z</time></trkpt><trkpt lat="44.373975" lon="8.5364417"><ele>397.79999999999995</ele><time>2026-03-26T09:47:05.938Z</time></trkpt><trkpt lat="44.3739633" lon="8.5365883"><ele>404.0</ele><time>2026-03-26T09:47:06.938Z</time></trkpt><trkpt lat="44.3739417" lon="8.53676"><ele>403.99999999999994</ele><time>2026-03-26T09:47:07.939Z</time></trkpt><trkpt lat="44.3739167" lon="8.5368983"><ele>404.0</ele><time>2026-03-26T09:47:08.939Z</time></trkpt><trkpt lat="44.3738933" lon="8.5370133"><ele>404.0</ele><time>2026-03-26T09:47:09.939Z</time></trkpt><trkpt lat="44.373875" lon="8.5371067"><ele>404.0</ele><time>2026-03-26T09:47:10.938Z</time></trkpt><trkpt lat="44.3738483" lon="8.5372"><ele>403.99999999999994</ele><time>2026-03-26T09:47:11.938Z</time></trkpt><trkpt lat="44.3738083" lon="8.5373433"><ele>404.0</ele><time>2026-03-26T09:47:13.939Z</time></trkpt><trkpt lat="44.3738033" lon="8.5374417"><ele>404.5</ele><time>2026-03-26T09:47:15.939Z</time></trkpt><trkpt lat="44.3738717" lon="8.537505"><ele>405.0</ele><time>2026-03-26T09:47:18.938Z</time></trkpt><trkpt lat="44.3740167" lon="8.5375017"><ele>405.5</ele><time>2026-03-26T09:47:20.939Z</time></trkpt><trkpt lat="44.3741283" lon="8.5374883"><ele>406.0</ele><time>2026-03-26T09:47:21.939Z</time></trkpt><trkpt lat="44.3742633" lon="8.5374667"><ele>406.0</ele><time>2026-03-26T09:47:22.938Z</time></trkpt><trkpt lat="44.374405" lon="8.53743"><ele>406.0</ele><time>2026-03-26T09:47:23.938Z</time></trkpt><trkpt lat="44.37453" lon="8.5373733"><ele>406.0</ele><time>2026-03-26T09:47:24.938Z</time></trkpt><trkpt lat="44.374645" lon="8.5373167"><ele>406.0</ele><time>2026-03-26T09:47:25.939Z</time></trkpt><trkpt lat="44.3747467" lon="8.5372483"><ele>407.25</ele><time>2026-03-26T09:47:26.938Z</time></trkpt><trkpt lat="44.374845" lon="8.5371833"><ele>408.5</ele><time>2026-03-26T09:47:27.939Z</time></trkpt><trkpt lat="44.374945" lon="8.53711"><ele>409.75</ele><time>2026-03-26T09:47:28.938Z</time></trkpt><trkpt lat="44.3750333" lon="8.5370167"><ele>411.0</ele><time>2026-03-26T09:47:29.939Z</time></trkpt><trkpt lat="44.3751267" lon="8.5369167"><ele>411.0</ele><time>2026-03-26T09:47:30.938Z</time></trkpt><trkpt lat="44.375205" lon="8.5368333"><ele>411.0</ele><time>2026-03-26T09:47:31.938Z</time></trkpt><trkpt lat="44.3752783" lon="8.53677"><ele>411.0</ele><time>2026-03-26T09:47:32.938Z</time></trkpt><trkpt lat="44.375345" lon="8.5367083"><ele>411.0</ele><time>2026-03-26T09:47:33.938Z</time></trkpt><trkpt lat="44.3753983" lon="8.53665"><ele>411.0</ele><time>2026-03-26T09:47:34.939Z</time></trkpt><trkpt lat="44.3754583" lon="8.5365917"><ele>411.0</ele><time>2026-03-26T09:47:35.938Z</time></trkpt><trkpt lat="44.3755133" lon="8.536535"><ele>408.6666666666667</ele><time>2026-03-26T09:47:36.939Z</time></trkpt><trkpt lat="44.3756167" lon="8.5364267"><ele>406.33333333333337</ele><time>2026-03-26T09:47:38.939Z</time></trkpt><trkpt lat="44.3756717" lon="8.5363683"><ele>404.0</ele><time>2026-03-26T09:47:39.939Z</time></trkpt><trkpt lat="44.37572" lon="8.53629"><ele>401.6666666666667</ele><time>2026-03-26T09:47:40.939Z</time></trkpt><trkpt lat="44.37576" lon="8.5362067"><ele>399.33333333333337</ele><time>2026-03-26T09:47:41.939Z</time></trkpt><trkpt lat="44.37578" lon="8.5361167"><ele>397.0</ele><time>2026-03-26T09:47:42.938Z</time></trkpt><trkpt lat="44.3757833" lon="8.536005"><ele>397.0</ele><time>2026-03-26T09:47:43.938Z</time></trkpt><trkpt lat="44.37577" lon="8.5358817"><ele>397.0</ele><time>2026-03-26T09:47:44.938Z</time></trkpt><trkpt lat="44.37574" lon="8.53575"><ele>397.0</ele><time>2026-03-26T09:47:45.938Z</time></trkpt><trkpt lat="44.3756917" lon="8.5356167"><ele>397.0</ele><time>2026-03-26T09:47:46.938Z</time></trkpt><trkpt lat="44.37563" lon="8.5354917"><ele>397.0</ele><time>2026-03-26T09:47:47.938Z</time></trkpt><trkpt lat="44.3755733" lon="8.5353633"><ele>395.6</ele><time>2026-03-26T09:47:48.938Z</time></trkpt><trkpt lat="44.3755317" lon="8.5352283"><ele>394.20000000000005</ele><time>2026-03-26T09:47:49.939Z</time></trkpt><trkpt lat="44.375505" lon="8.5350983"><ele>392.8</ele><time>2026-03-26T09:47:50.939Z</time></trkpt><trkpt lat="44.37548" lon="8.5349683"><ele>391.4</ele><time>2026-03-26T09:47:51.938Z</time></trkpt><trkpt lat="44.3754583" lon="8.5348317"><ele>390.0</ele><time>2026-03-26T09:47:52.938Z</time></trkpt><trkpt lat="44.3754467" lon="8.5346967"><ele>390.0</ele><time>2026-03-26T09:47:53.938Z</time></trkpt><trkpt lat="44.37546" lon="8.53455"><ele>390.0</ele><time>2026-03-26T09:47:54.938Z</time></trkpt><trkpt lat="44.3754983" lon="8.5344133"><ele>390.0</ele><time>2026-03-26T09:47:55.939Z</time></trkpt><trkpt lat="44.3755533" lon="8.5342783"><ele>390.0</ele><time>2026-03-26T09:47:56.938Z</time></trkpt><trkpt lat="44.375605" lon="8.5341567"><ele>390.0</ele><time>2026-03-26T09:47:57.938Z</time></trkpt><trkpt lat="44.3756383" lon="8.5340467"><ele>390.0</ele><time>2026-03-26T09:47:58.938Z</time></trkpt><trkpt lat="44.375665" lon="8.5339333"><ele>390.0</ele><time>2026-03-26T09:47:59.938Z</time></trkpt><trkpt lat="44.3756767" lon="8.5338033"><ele>390.0</ele><time>2026-03-26T09:48:00.939Z</time></trkpt><trkpt lat="44.3756883" lon="8.5336583"><ele>390.0</ele><time>2026-03-26T09:48:01.939Z</time></trkpt><trkpt lat="44.3756867" lon="8.5335067"><ele>390.0</ele><time>2026-03-26T09:48:02.939Z</time></trkpt><trkpt lat="44.3756833" lon="8.533355"><ele>390.6</ele><time>2026-03-26T09:48:03.939Z</time></trkpt><trkpt lat="44.3756733" lon="8.5332167"><ele>391.2</ele><time>2026-03-26T09:48:04.938Z</time></trkpt><trkpt lat="44.3756567" lon="8.53306"><ele>391.79999999999995</ele><time>2026-03-26T09:48:05.938Z</time></trkpt><trkpt lat="44.3756433" lon="8.5329017"><ele>392.4</ele><time>2026-03-26T09:48:06.938Z</time></trkpt><trkpt lat="44.375635" lon="8.532755"><ele>393.0</ele><time>2026-03-26T09:48:07.938Z</time></trkpt><trkpt lat="44.37562" lon="8.532625"><ele>394.4</ele><time>2026-03-26T09:48:08.938Z</time></trkpt><trkpt lat="44.3756233" lon="8.5325267"><ele>395.79999999999995</ele><time>2026-03-26T09:48:09.938Z</time></trkpt><trkpt lat="44.3757033" lon="8.5324383"><ele>397.2</ele><time>2026-03-26T09:48:12.939Z</time></trkpt><trkpt lat="44.37579" lon="8.5324283"><ele>398.6</ele><time>2026-03-26T09:48:13.939Z</time></trkpt><trkpt lat="44.3758833" lon="8.532435"><ele>400.0</ele><time>2026-03-26T09:48:14.938Z</time></trkpt><trkpt lat="44.3759967" lon="8.5324633"><ele>400.0</ele><time>2026-03-26T09:48:15.938Z</time></trkpt><trkpt lat="44.37611" lon="8.5325033"><ele>400.0</ele><time>2026-03-26T09:48:16.938Z</time></trkpt><trkpt lat="44.37621" lon="8.532565"><ele>400.0</ele><time>2026-03-26T09:48:17.939Z</time></trkpt><trkpt lat="44.376305" lon="8.53263"><ele>400.0</ele><time>2026-03-26T09:48:18.938Z</time></trkpt><trkpt lat="44.3764017" lon="8.5326933"><ele>400.0</ele><time>2026-03-26T09:48:19.939Z</time></trkpt><trkpt lat="44.376505" lon="8.5327417"><ele>400.8</ele><time>2026-03-26T09:48:20.939Z</time></trkpt><trkpt lat="44.3766133" lon="8.5328033"><ele>401.6</ele><time>2026-03-26T09:48:21.938Z</time></trkpt><trkpt lat="44.3767167" lon="8.53287"><ele>402.4</ele><time>2026-03-26T09:48:22.938Z</time></trkpt><trkpt lat="44.376815" lon="8.5329383"><ele>403.2</ele><time>2026-03-26T09:48:23.939Z</time></trkpt><trkpt lat="44.376905" lon="8.5329817"><ele>404.0</ele><time>2026-03-26T09:48:24.938Z</time></trkpt><trkpt lat="44.3769983" lon="8.533005"><ele>400.16666666666663</ele><time>2026-03-26T09:48:25.939Z</time></trkpt><trkpt lat="44.3770983" lon="8.533005"><ele>396.3333333333333</ele><time>2026-03-26T09:48:26.938Z</time></trkpt><trkpt lat="44.3771883" lon="8.5330133"><ele>392.5</ele><time>2026-03-26T09:48:27.939Z</time></trkpt><trkpt lat="44.3772667" lon="8.5330017"><ele>388.66666666666663</ele><time>2026-03-26T09:48:28.939Z</time></trkpt><trkpt lat="44.3773433" lon="8.53297"><ele>384.8333333333333</ele><time>2026-03-26T09:48:29.938Z</time></trkpt><trkpt lat="44.3774067" lon="8.53293"><ele>381.0</ele><time>2026-03-26T09:48:30.938Z</time></trkpt><trkpt lat="44.3774767" lon="8.53291"><ele>380.6666666666667</ele><time>2026-03-26T09:48:31.938Z</time></trkpt><trkpt lat="44.377555" lon="8.5329017"><ele>380.3333333333333</ele><time>2026-03-26T09:48:32.938Z</time></trkpt><trkpt lat="44.3776367" lon="8.5329217"><ele>380.0</ele><time>2026-03-26T09:48:33.938Z</time></trkpt><trkpt lat="44.3777133" lon="8.5329617"><ele>379.66666666666663</ele><time>2026-03-26T09:48:34.939Z</time></trkpt><trkpt lat="44.3777867" lon="8.533005"><ele>379.3333333333333</ele><time>2026-03-26T09:48:35.939Z</time></trkpt><trkpt lat="44.37787" lon="8.53304"><ele>379.0</ele><time>2026-03-26T09:48:36.939Z</time></trkpt><trkpt lat="44.3779433" lon="8.5330583"><ele>381.2</ele><time>2026-03-26T09:48:37.939Z</time></trkpt><trkpt lat="44.378065" lon="8.5330383"><ele>383.4</ele><time>2026-03-26T09:48:39.938Z</time></trkpt><trkpt lat="44.3781483" lon="8.532955"><ele>385.6</ele><time>2026-03-26T09:48:40.938Z</time></trkpt><trkpt lat="44.3782383" lon="8.5328483"><ele>387.8</ele><time>2026-03-26T09:48:41.939Z</time></trkpt><trkpt lat="44.37831" lon="8.5327417"><ele>390.0</ele><time>2026-03-26T09:48:42.938Z</time></trkpt><trkpt lat="44.3783667" lon="8.5326617"><ele>390.0</ele><time>2026-03-26T09:48:43.939Z</time></trkpt><trkpt lat="44.378405" lon="8.532565"><ele>390.0</ele><time>2026-03-26T09:48:44.939Z</time></trkpt><trkpt lat="44.37845" lon="8.5324683"><ele>390.0</ele><time>2026-03-26T09:48:45.938Z</time></trkpt><trkpt lat="44.3785533" lon="8.5324033"><ele>390.0</ele><time>2026-03-26T09:48:47.938Z</time></trkpt><trkpt lat="44.3786433" lon="8.532435"><ele>390.0</ele><time>2026-03-26T09:48:48.939Z</time></trkpt><trkpt lat="44.37873" lon="8.5324717"><ele>390.0</ele><time>2026-03-26T09:48:49.938Z</time></trkpt><trkpt lat="44.3788017" lon="8.5324833"><ele>390.0</ele><time>2026-03-26T09:48:50.938Z</time></trkpt><trkpt lat="44.3788783" lon="8.5324917"><ele>390.0</ele><time>2026-03-26T09:48:51.938Z</time></trkpt><trkpt lat="44.37894" lon="8.5324483"><ele>390.0</ele><time>2026-03-26T09:48:52.939Z</time></trkpt><trkpt lat="44.379" lon="8.5323417"><ele>390.0</ele><time>2026-03-26T09:48:53.938Z</time></trkpt><trkpt lat="44.3790683" lon="8.53228"><ele>390.0</ele><time>2026-03-26T09:48:54.939Z</time></trkpt><trkpt lat="44.3791567" lon="8.532215"><ele>389.57142857142856</ele><time>2026-03-26T09:48:55.938Z</time></trkpt><trkpt lat="44.37924" lon="8.532155"><ele>389.1428571428571</ele><time>2026-03-26T09:48:56.939Z</time></trkpt><trkpt lat="44.3793117" lon="8.532095"><ele>388.7142857142857</ele><time>2026-03-26T09:48:57.939Z</time></trkpt><trkpt lat="44.3793683" lon="8.5320333"><ele>388.2857142857143</ele><time>2026-03-26T09:48:58.939Z</time></trkpt><trkpt lat="44.3794033" lon="8.531955"><ele>387.8571428571429</ele><time>2026-03-26T09:48:59.938Z</time></trkpt><trkpt lat="44.379415" lon="8.5318667"><ele>387.42857142857144</ele><time>2026-03-26T09:49:00.939Z</time></trkpt><trkpt lat="44.3794117" lon="8.5317717"><ele>387.0</ele><time>2026-03-26T09:49:01.938Z</time></trkpt><trkpt lat="44.3794067" lon="8.531665"><ele>387.0</ele><time>2026-03-26T09:49:02.939Z</time></trkpt><trkpt lat="44.3794017" lon="8.53156"><ele>387.0</ele><time>2026-03-26T09:49:03.938Z</time></trkpt><trkpt lat="44.3794083" lon="8.5314683"><ele>387.0</ele><time>2026-03-26T09:49:04.939Z</time></trkpt><trkpt lat="44.3794583" lon="8.5313033"><ele>387.0</ele><time>2026-03-26T09:49:06.939Z</time></trkpt><trkpt lat="44.379485" lon="8.5312017"><ele>387.0</ele><time>2026-03-26T09:49:07.938Z</time></trkpt><trkpt lat="44.379515" lon="8.5310833"><ele>387.0</ele><time>2026-03-26T09:49:08.939Z</time></trkpt><trkpt lat="44.3795533" lon="8.5309533"><ele>388.6666666666667</ele><time>2026-03-26T09:49:09.938Z</time></trkpt><trkpt lat="44.3795933" lon="8.530835"><ele>390.33333333333337</ele><time>2026-03-26T09:49:10.938Z</time></trkpt><trkpt lat="44.3796217" lon="8.5307283"><ele>392.0</ele><time>2026-03-26T09:49:11.938Z</time></trkpt><trkpt lat="44.3796367" lon="8.530625"><ele>393.6666666666667</ele><time>2026-03-26T09:49:12.939Z</time></trkpt><trkpt lat="44.379635" lon="8.530505"><ele>395.33333333333337</ele><time>2026-03-26T09:49:13.938Z</time></trkpt><trkpt lat="44.379635" lon="8.5303683"><ele>397.0</ele><time>2026-03-26T09:49:14.939Z</time></trkpt><trkpt lat="44.379625" lon="8.5302417"><ele>397.6</ele><time>2026-03-26T09:49:15.939Z</time></trkpt><trkpt lat="44.3796133" lon="8.5301433"><ele>398.20000000000005</ele><time>2026-03-26T09:49:16.939Z</time></trkpt><trkpt lat="44.37962" lon="8.5300467"><ele>398.8</ele><time>2026-03-26T09:49:18.938Z</time></trkpt><trkpt lat="44.3797233" lon="8.529945"><ele>399.4</ele><time>2026-03-26T09:49:21.939Z</time></trkpt><trkpt lat="44.379785" lon="8.5298967"><ele>400.0</ele><time>2026-03-26T09:49:22.939Z</time></trkpt><trkpt lat="44.37988" lon="8.52977"><ele>394.28571428571433</ele><time>2026-03-26T09:49:24.938Z</time></trkpt><trkpt lat="44.3799233" lon="8.5296767"><ele>388.57142857142856</ele><time>2026-03-26T09:49:25.938Z</time></trkpt><trkpt lat="44.37996" lon="8.52959"><ele>382.8571428571429</ele><time>2026-03-26T09:49:26.939Z</time></trkpt><trkpt lat="44.3799833" lon="8.5294883"><ele>377.14285714285717</ele><time>2026-03-26T09:49:27.939Z</time></trkpt><trkpt lat="44.3799883" lon="8.52938"><ele>371.42857142857144</ele><time>2026-03-26T09:49:28.939Z</time></trkpt><trkpt lat="44.37998" lon="8.5292833"><ele>365.7142857142857</ele><time>2026-03-26T09:49:29.938Z</time></trkpt><trkpt lat="44.3799567" lon="8.529195"><ele>360.0</ele><time>2026-03-26T09:49:30.939Z</time></trkpt><trkpt lat="44.3799" lon="8.52913"><ele>357.8</ele><time>2026-03-26T09:49:31.939Z</time></trkpt><trkpt lat="44.3798317" lon="8.529075"><ele>355.6</ele><time>2026-03-26T09:49:32.938Z</time></trkpt><trkpt lat="44.3797583" lon="8.529035"><ele>353.4</ele><time>2026-03-26T09:49:33.938Z</time></trkpt><trkpt lat="44.3796517" lon="8.5289533"><ele>351.2</ele><time>2026-03-26T09:49:35.938Z</time></trkpt><trkpt lat="44.379605" lon="8.5288933"><ele>349.0</ele><time>2026-03-26T09:49:36.938Z</time></trkpt><trkpt lat="44.3795067" lon="8.5287867"><ele>352.66666666666663</ele><time>2026-03-26T09:49:38.939Z</time></trkpt><trkpt lat="44.3794483" lon="8.52874"><ele>356.3333333333333</ele><time>2026-03-26T09:49:39.938Z</time></trkpt><trkpt lat="44.37935" lon="8.5286783"><ele>360.0</ele><time>2026-03-26T09:49:41.939Z</time></trkpt><trkpt lat="44.3793067" lon="8.5286017"><ele>363.6666666666667</ele><time>2026-03-26T09:49:43.939Z</time></trkpt><trkpt lat="44.37932" lon="8.5285117"><ele>367.33333333333337</ele><time>2026-03-26T09:49:45.939Z</time></trkpt><trkpt lat="44.3793067" lon="8.5283817"><ele>371.0</ele><time>2026-03-26T09:49:47.938Z</time></trkpt><trkpt lat="44.3792333" lon="8.5282633"><ele>371.0</ele><time>2026-03-26T09:49:49.938Z</time></trkpt><trkpt lat="44.3791883" lon="8.52819"><ele>371.0</ele><time>2026-03-26T09:49:50.938Z</time></trkpt><trkpt lat="44.379145" lon="8.5281117"><ele>371.0</ele><time>2026-03-26T09:49:51.938Z</time></trkpt><trkpt lat="44.379105" lon="8.52804"><ele>371.0</ele><time>2026-03-26T09:49:52.938Z</time></trkpt><trkpt lat="44.3790533" lon="8.5279883"><ele>371.0</ele><time>2026-03-26T09:49:53.939Z</time></trkpt><trkpt lat="44.3789983" lon="8.5279433"><ele>371.0</ele><time>2026-03-26T09:49:54.939Z</time></trkpt><trkpt lat="44.37892" lon="8.5278767"><ele>371.0</ele><time>2026-03-26T09:49:56.938Z</time></trkpt><trkpt lat="44.3788583" lon="8.5278067"><ele>374.83333333333337</ele><time>2026-03-26T09:49:59.939Z</time></trkpt><trkpt lat="44.3788133" lon="8.5277267"><ele>378.6666666666667</ele><time>2026-03-26T09:50:02.939Z</time></trkpt><trkpt lat="44.3787767" lon="8.5276383"><ele>382.5</ele><time>2026-03-26T09:50:04.938Z</time></trkpt><trkpt lat="44.3787533" lon="8.5275183"><ele>386.33333333333337</ele><time>2026-03-26T09:50:06.938Z</time></trkpt><trkpt lat="44.3786867" lon="8.5274217"><ele>390.1666666666667</ele><time>2026-03-26T09:50:08.938Z</time></trkpt><trkpt lat="44.3785967" lon="8.5273583"><ele>394.0</ele><time>2026-03-26T09:50:10.939Z</time></trkpt><trkpt lat="44.3785383" lon="8.5272917"><ele>394.00000000000006</ele><time>2026-03-26T09:50:12.938Z</time></trkpt><trkpt lat="44.3784817" lon="8.5272367"><ele>394.0</ele><time>2026-03-26T09:50:14.939Z</time></trkpt><trkpt lat="44.3784317" lon="8.5271167"><ele>394.0</ele><time>2026-03-26T09:50:16.938Z</time></trkpt><trkpt lat="44.3784233" lon="8.5269533"><ele>394.0</ele><time>2026-03-26T09:50:18.938Z</time></trkpt><trkpt lat="44.3784283" lon="8.5268517"><ele>394.00000000000006</ele><time>2026-03-26T09:50:19.938Z</time></trkpt><trkpt lat="44.3784267" lon="8.52675"><ele>394.0</ele><time>2026-03-26T09:50:20.938Z</time></trkpt><trkpt lat="44.378415" lon="8.5266617"><ele>393.00000000000006</ele><time>2026-03-26T09:50:21.938Z</time></trkpt><trkpt lat="44.3783583" lon="8.5265483"><ele>392.0</ele><time>2026-03-26T09:50:23.938Z</time></trkpt><trkpt lat="44.3782583" lon="8.526465"><ele>391.0</ele><time>2026-03-26T09:50:25.939Z</time></trkpt><trkpt lat="44.378195" lon="8.52644"><ele>390.0</ele><time>2026-03-26T09:50:26.938Z</time></trkpt><trkpt lat="44.3781267" lon="8.5264067"><ele>389.00000000000006</ele><time>2026-03-26T09:50:27.938Z</time></trkpt><trkpt lat="44.3780583" lon="8.5263467"><ele>388.0</ele><time>2026-03-26T09:50:28.939Z</time></trkpt><trkpt lat="44.378005" lon="8.526275"><ele>386.2</ele><time>2026-03-26T09:50:29.939Z</time></trkpt><trkpt lat="44.3779517" lon="8.52621"><ele>384.4</ele><time>2026-03-26T09:50:30.938Z</time></trkpt><trkpt lat="44.3778483" lon="8.526135"><ele>382.59999999999997</ele><time>2026-03-26T09:50:32.938Z</time></trkpt><trkpt lat="44.377735" lon="8.5260917"><ele>380.79999999999995</ele><time>2026-03-26T09:50:34.938Z</time></trkpt><trkpt lat="44.3776333" lon="8.5260583"><ele>379.0</ele><time>2026-03-26T09:50:36.938Z</time></trkpt><trkpt lat="44.377595" lon="8.52597"><ele>379.0</ele><time>2026-03-26T09:50:39.938Z</time></trkpt><trkpt lat="44.3776433" lon="8.525875"><ele>379.0</ele><time>2026-03-26T09:50:41.938Z</time></trkpt><trkpt lat="44.3777033" lon="8.5257517"><ele>379.0</ele><time>2026-03-26T09:50:43.938Z</time></trkpt><trkpt lat="44.3777517" lon="8.525615"><ele>379.0</ele><time>2026-03-26T09:50:45.939Z</time></trkpt><trkpt lat="44.37774" lon="8.5254533"><ele>379.0</ele><time>2026-03-26T09:50:47.939Z</time></trkpt><trkpt lat="44.3777283" lon="8.5253617"><ele>379.4</ele><time>2026-03-26T09:50:48.938Z</time></trkpt><trkpt lat="44.3777383" lon="8.5252367"><ele>379.79999999999995</ele><time>2026-03-26T09:50:50.938Z</time></trkpt><trkpt lat="44.3778383" lon="8.5251383"><ele>380.20000000000005</ele><time>2026-03-26T09:50:52.938Z</time></trkpt><trkpt lat="44.3779017" lon="8.52506"><ele>380.6</ele><time>2026-03-26T09:50:53.939Z</time></trkpt><trkpt lat="44.377955" lon="8.5249817"><ele>381.0</ele><time>2026-03-26T09:50:54.938Z</time></trkpt><trkpt lat="44.378015" lon="8.5248217"><ele>380.0</ele><time>2026-03-26T09:50:56.938Z</time></trkpt><trkpt lat="44.3780317" lon="8.52471"><ele>379.0</ele><time>2026-03-26T09:50:57.938Z</time></trkpt><trkpt lat="44.3780617" lon="8.5246067"><ele>378.0</ele><time>2026-03-26T09:50:58.938Z</time></trkpt><trkpt lat="44.3781433" lon="8.52448"><ele>377.0</ele><time>2026-03-26T09:51:00.939Z</time></trkpt><trkpt lat="44.37823" lon="8.52438"><ele>376.0</ele><time>2026-03-26T09:51:02.939Z</time></trkpt><trkpt lat="44.378305" lon="8.5242667"><ele>376.0</ele><time>2026-03-26T09:51:04.938Z</time></trkpt><trkpt lat="44.378385" lon="8.524225"><ele>376.0</ele><time>2026-03-26T09:51:06.938Z</time></trkpt><trkpt lat="44.3784767" lon="8.5242583"><ele>376.0</ele><time>2026-03-26T09:51:08.938Z</time></trkpt><trkpt lat="44.3785417" lon="8.524285"><ele>376.0</ele><time>2026-03-26T09:51:09.938Z</time></trkpt><trkpt lat="44.3786067" lon="8.5243"><ele>376.0</ele><time>2026-03-26T09:51:10.938Z</time></trkpt><trkpt lat="44.3786733" lon="8.5243017"><ele>376.0</ele><time>2026-03-26T09:51:11.939Z</time></trkpt><trkpt lat="44.3787417" lon="8.5243033"><ele>376.0</ele><time>2026-03-26T09:51:12.938Z</time></trkpt><trkpt lat="44.37881" lon="8.524285"><ele>372.5</ele><time>2026-03-26T09:51:13.939Z</time></trkpt><trkpt lat="44.3788883" lon="8.5242683"><ele>369.0</ele><time>2026-03-26T09:51:14.938Z</time></trkpt><trkpt lat="44.3789633" lon="8.5242567"><ele>365.5</ele><time>2026-03-26T09:51:15.938Z</time></trkpt><trkpt lat="44.3790267" lon="8.52424"><ele>362.0</ele><time>2026-03-26T09:51:16.939Z</time></trkpt><trkpt lat="44.37912" lon="8.5242367"><ele>358.5</ele><time>2026-03-26T09:51:18.938Z</time></trkpt><trkpt lat="44.3792267" lon="8.5242633"><ele>355.0</ele><time>2026-03-26T09:51:20.939Z</time></trkpt><trkpt lat="44.37929" lon="8.5242933"><ele>355.0</ele><time>2026-03-26T09:51:22.938Z</time></trkpt><trkpt lat="44.379365" lon="8.5242983"><ele>355.0</ele><time>2026-03-26T09:51:28.939Z</time></trkpt><trkpt lat="44.3794333" lon="8.5242517"><ele>355.0</ele><time>2026-03-26T09:51:30.938Z</time></trkpt><trkpt lat="44.379535" lon="8.5242183"><ele>355.0</ele><time>2026-03-26T09:51:32.938Z</time></trkpt><trkpt lat="44.3796567" lon="8.52419"><ele>355.0</ele><time>2026-03-26T09:51:34.938Z</time></trkpt><trkpt lat="44.379725" lon="8.5241783"><ele>355.0</ele><time>2026-03-26T09:51:35.939Z</time></trkpt><trkpt lat="44.3798467" lon="8.5241683"><ele>351.4</ele><time>2026-03-26T09:51:37.939Z</time></trkpt><trkpt lat="44.3799517" lon="8.5242033"><ele>347.8</ele><time>2026-03-26T09:51:39.938Z</time></trkpt><trkpt lat="44.3800417" lon="8.52428"><ele>344.20000000000005</ele><time>2026-03-26T09:51:41.939Z</time></trkpt><trkpt lat="44.3801267" lon="8.5243667"><ele>340.6</ele><time>2026-03-26T09:51:43.938Z</time></trkpt><trkpt lat="44.38021" lon="8.5244233"><ele>337.0</ele><time>2026-03-26T09:51:45.939Z</time></trkpt><trkpt lat="44.3802767" lon="8.5244817"><ele>337.0</ele><time>2026-03-26T09:51:47.938Z</time></trkpt><trkpt lat="44.38036" lon="8.52448"><ele>337.0</ele><time>2026-03-26T09:51:50.939Z</time></trkpt><trkpt lat="44.3804467" lon="8.52443"><ele>337.0</ele><time>2026-03-26T09:51:52.939Z</time></trkpt><trkpt lat="44.38053" lon="8.5244167"><ele>337.0</ele><time>2026-03-26T09:51:55.939Z</time></trkpt><trkpt lat="44.3806" lon="8.5244433"><ele>337.0</ele><time>2026-03-26T09:51:57.939Z</time></trkpt><trkpt lat="44.38067" lon="8.5244133"><ele>337.0</ele><time>2026-03-26T09:52:00.938Z</time></trkpt><trkpt lat="44.3807267" lon="8.5243467"><ele>334.8333333333333</ele><time>2026-03-26T09:52:03.938Z</time></trkpt><trkpt lat="44.380775" lon="8.524285"><ele>332.66666666666663</ele><time>2026-03-26T09:52:05.939Z</time></trkpt><trkpt lat="44.38085" lon="8.5242567"><ele>330.5</ele><time>2026-03-26T09:52:08.938Z</time></trkpt><trkpt lat="44.38092" lon="8.5243317"><ele>328.3333333333333</ele><time>2026-03-26T09:52:10.939Z</time></trkpt><trkpt lat="44.38095" lon="8.5244233"><ele>326.1666666666667</ele><time>2026-03-26T09:52:12.939Z</time></trkpt><trkpt lat="44.38096" lon="8.5245233"><ele>324.0</ele><time>2026-03-26T09:52:14.939Z</time></trkpt><trkpt lat="44.3809233" lon="8.52462"><ele>324.0</ele><time>2026-03-26T09:52:17.938Z</time></trkpt><trkpt lat="44.3809133" lon="8.52473"><ele>324.0</ele><time>2026-03-26T09:52:20.938Z</time></trkpt><trkpt lat="44.3809467" lon="8.5248283"><ele>324.0</ele><time>2026-03-26T09:52:23.938Z</time></trkpt><trkpt lat="44.3810133" lon="8.5248333"><ele>324.0</ele><time>2026-03-26T09:52:30.938Z</time></trkpt><trkpt lat="44.3810767" lon="8.5248433"><ele>324.0</ele><time>2026-03-26T09:52:32.939Z</time></trkpt><trkpt lat="44.3811283" lon="8.524925"><ele>324.0</ele><time>2026-03-26T09:52:34.938Z</time></trkpt><trkpt lat="44.3811833" lon="8.5250667"><ele>324.0</ele><time>2026-03-26T09:52:36.939Z</time></trkpt><trkpt lat="44.3812417" lon="8.5251467"><ele>324.0</ele><time>2026-03-26T09:52:38.939Z</time></trkpt><trkpt lat="44.3813117" lon="8.5251733"><ele>324.0</ele><time>2026-03-26T09:52:44.938Z</time></trkpt><trkpt lat="44.3813933" lon="8.52511"><ele>324.0</ele><time>2026-03-26T09:52:47.938Z</time></trkpt><trkpt lat="44.3814767" lon="8.525025"><ele>324.0</ele><time>2026-03-26T09:52:50.938Z</time></trkpt><trkpt lat="44.3815467" lon="8.524945"><ele>324.0</ele><time>2026-03-26T09:52:52.938Z</time></trkpt><trkpt lat="44.3816333" lon="8.5249133"><ele>318.0</ele><time>2026-03-26T09:52:55.938Z</time></trkpt><trkpt lat="44.381705" lon="8.5249483"><ele>312.0</ele><time>2026-03-26T09:52:57.938Z</time></trkpt><trkpt lat="44.38175" lon="8.5250533"><ele>306.0</ele><time>2026-03-26T09:53:00.939Z</time></trkpt><trkpt lat="44.3817983" lon="8.5249767"><ele>300.0</ele><time>2026-03-26T09:53:05.939Z</time></trkpt><trkpt lat="44.3818467" lon="8.5249017"><ele>294.0</ele><time>2026-03-26T09:53:07.938Z</time></trkpt><trkpt lat="44.381885" lon="8.5248033"><ele>288.0</ele><time>2026-03-26T09:53:10.939Z</time></trkpt><trkpt lat="44.38193" lon="8.5247383"><ele>288.0</ele><time>2026-03-26T09:53:14.939Z</time></trkpt><trkpt lat="44.3819883" lon="8.52469"><ele>288.0</ele><time>2026-03-26T09:53:16.938Z</time></trkpt><trkpt lat="44.382065" lon="8.5245983"><ele>288.0</ele><time>2026-03-26T09:53:18.939Z</time></trkpt><trkpt lat="44.3821633" lon="8.5244883"><ele>288.0</ele><time>2026-03-26T09:53:20.938Z</time></trkpt><trkpt lat="44.38223" lon="8.5244467"><ele>288.0</ele><time>2026-03-26T09:53:21.938Z</time></trkpt><trkpt lat="44.3822883" lon="8.5244133"><ele>288.0</ele><time>2026-03-26T09:53:22.938Z</time></trkpt><trkpt lat="44.3824017" lon="8.5243933"><ele>282.6</ele><time>2026-03-26T09:53:24.938Z</time></trkpt><trkpt lat="44.382485" lon="8.5243517"><ele>277.20000000000005</ele><time>2026-03-26T09:53:26.938Z</time></trkpt><trkpt lat="44.382555" lon="8.524245"><ele>271.8</ele><time>2026-03-26T09:53:28.939Z</time></trkpt><trkpt lat="44.3825917" lon="8.52415"><ele>266.40000000000003</ele><time>2026-03-26T09:53:30.938Z</time></trkpt><trkpt lat="44.382685" lon="8.5241483"><ele>261.0</ele><time>2026-03-26T09:53:34.939Z</time></trkpt><trkpt lat="44.3827717" lon="8.5241733"><ele>261.0</ele><time>2026-03-26T09:53:36.938Z</time></trkpt><trkpt lat="44.3828833" lon="8.5242433"><ele>261.0</ele><time>2026-03-26T09:53:38.939Z</time></trkpt><trkpt lat="44.3830017" lon="8.52425"><ele>261.0</ele><time>2026-03-26T09:53:40.939Z</time></trkpt><trkpt lat="44.383105" lon="8.524255"><ele>261.0</ele><time>2026-03-26T09:53:42.938Z</time></trkpt><trkpt lat="44.3831333" lon="8.524345"><ele>261.0</ele><time>2026-03-26T09:53:44.939Z</time></trkpt><trkpt lat="44.38317" lon="8.52446"><ele>259.40000000000003</ele><time>2026-03-26T09:53:46.938Z</time></trkpt><trkpt lat="44.3832433" lon="8.524525"><ele>257.8</ele><time>2026-03-26T09:53:48.938Z</time></trkpt><trkpt lat="44.3833533" lon="8.524545"><ele>256.20000000000005</ele><time>2026-03-26T09:53:50.938Z</time></trkpt><trkpt lat="44.383455" lon="8.5245533"><ele>254.60000000000002</ele><time>2026-03-26T09:53:52.938Z</time></trkpt><trkpt lat="44.3835583" lon="8.5245217"><ele>253.0</ele><time>2026-03-26T09:53:54.938Z</time></trkpt><trkpt lat="44.3836133" lon="8.5244633"><ele>252.99999999999997</ele><time>2026-03-26T09:53:55.939Z</time></trkpt><trkpt lat="44.3836617" lon="8.5243983"><ele>253.0</ele><time>2026-03-26T09:53:56.939Z</time></trkpt><trkpt lat="44.383715" lon="8.5243283"><ele>253.0</ele><time>2026-03-26T09:53:57.938Z</time></trkpt><trkpt lat="44.3837717" lon="8.5242583"><ele>253.0</ele><time>2026-03-26T09:53:58.938Z</time></trkpt><trkpt lat="44.38382" lon="8.5241983"><ele>252.99999999999997</ele><time>2026-03-26T09:53:59.939Z</time></trkpt><trkpt lat="44.3839067" lon="8.524115"><ele>253.0</ele><time>2026-03-26T09:54:01.938Z</time></trkpt><trkpt lat="44.3839933" lon="8.5240167"><ele>250.16666666666666</ele><time>2026-03-26T09:54:03.938Z</time></trkpt><trkpt lat="44.3840883" lon="8.5239267"><ele>247.33333333333331</ele><time>2026-03-26T09:54:05.938Z</time></trkpt><trkpt lat="44.384145" lon="8.5238783"><ele>244.5</ele><time>2026-03-26T09:54:06.939Z</time></trkpt><trkpt lat="44.3841917" lon="8.5237933"><ele>241.66666666666669</ele><time>2026-03-26T09:54:07.938Z</time></trkpt><trkpt lat="44.3842367" lon="8.523695"><ele>238.83333333333334</ele><time>2026-03-26T09:54:08.938Z</time></trkpt><trkpt lat="44.38427" lon="8.5236067"><ele>236.0</ele><time>2026-03-26T09:54:09.939Z</time></trkpt><trkpt lat="44.3842783" lon="8.5234767"><ele>235.60000000000002</ele><time>2026-03-26T09:54:11.939Z</time></trkpt><trkpt lat="44.3841917" lon="8.5233433"><ele>235.20000000000002</ele><time>2026-03-26T09:54:13.939Z</time></trkpt><trkpt lat="44.3841333" lon="8.5232717"><ele>234.79999999999998</ele><time>2026-03-26T09:54:14.938Z</time></trkpt><trkpt lat="44.384085" lon="8.52311"><ele>234.39999999999998</ele><time>2026-03-26T09:54:16.939Z</time></trkpt><trkpt lat="44.3841317" lon="8.5229767"><ele>234.0</ele><time>2026-03-26T09:54:18.939Z</time></trkpt><trkpt lat="44.3842217" lon="8.5229067"><ele>234.0</ele><time>2026-03-26T09:54:20.94Z</time></trkpt><trkpt lat="44.38429" lon="8.5229217"><ele>234.0</ele><time>2026-03-26T09:54:21.94Z</time></trkpt><trkpt lat="44.3843583" lon="8.5229333"><ele>234.0</ele><time>2026-03-26T09:54:22.939Z</time></trkpt><trkpt lat="44.3844217" lon="8.5229233"><ele>234.0</ele><time>2026-03-26T09:54:23.94Z</time></trkpt><trkpt lat="44.3845" lon="8.5229067"><ele>234.0</ele><time>2026-03-26T09:54:24.939Z</time></trkpt><trkpt lat="44.384585" lon="8.5228967"><ele>234.0</ele><time>2026-03-26T09:54:25.939Z</time></trkpt><trkpt lat="44.3846783" lon="8.5229183"><ele>231.6</ele><time>2026-03-26T09:54:26.939Z</time></trkpt><trkpt lat="44.3847767" lon="8.52297"><ele>229.2</ele><time>2026-03-26T09:54:27.94Z</time></trkpt><trkpt lat="44.3848583" lon="8.5230133"><ele>226.79999999999998</ele><time>2026-03-26T09:54:28.939Z</time></trkpt><trkpt lat="44.384935" lon="8.5230417"><ele>224.39999999999998</ele><time>2026-03-26T09:54:29.94Z</time></trkpt><trkpt lat="44.38502" lon="8.52305"><ele>222.0</ele><time>2026-03-26T09:54:30.939Z</time></trkpt><trkpt lat="44.385125" lon="8.523045"><ele>222.0</ele><time>2026-03-26T09:54:31.939Z</time></trkpt><trkpt lat="44.3852367" lon="8.5230317"><ele>222.0</ele><time>2026-03-26T09:54:32.939Z</time></trkpt><trkpt lat="44.38533" lon="8.5230017"><ele>222.0</ele><time>2026-03-26T09:54:33.939Z</time></trkpt><trkpt lat="44.3854283" lon="8.5229683"><ele>222.0</ele><time>2026-03-26T09:54:34.939Z</time></trkpt><trkpt lat="44.3855133" lon="8.522935"><ele>222.0</ele><time>2026-03-26T09:54:35.939Z</time></trkpt><trkpt lat="44.38558" lon="8.522935"><ele>220.6</ele><time>2026-03-26T09:54:36.939Z</time></trkpt><trkpt lat="44.3856417" lon="8.5229767"><ele>219.2</ele><time>2026-03-26T09:54:37.939Z</time></trkpt><trkpt lat="44.3857267" lon="8.5230483"><ele>217.8</ele><time>2026-03-26T09:54:38.94Z</time></trkpt><trkpt lat="44.38581" lon="8.52313"><ele>216.4</ele><time>2026-03-26T09:54:39.94Z</time></trkpt><trkpt lat="44.3858833" lon="8.523165"><ele>215.0</ele><time>2026-03-26T09:54:40.94Z</time></trkpt><trkpt lat="44.3860017" lon="8.5231083"><ele>215.00000000000003</ele><time>2026-03-26T09:54:42.94Z</time></trkpt><trkpt lat="44.386055" lon="8.522995"><ele>215.0</ele><time>2026-03-26T09:54:43.939Z</time></trkpt><trkpt lat="44.3861083" lon="8.5228767"><ele>215.0</ele><time>2026-03-26T09:54:44.939Z</time></trkpt><trkpt lat="44.3861633" lon="8.522785"><ele>215.0</ele><time>2026-03-26T09:54:45.939Z</time></trkpt><trkpt lat="44.386205" lon="8.5227133"><ele>215.00000000000003</ele><time>2026-03-26T09:54:46.94Z</time></trkpt><trkpt lat="44.3862567" lon="8.5226417"><ele>215.0</ele><time>2026-03-26T09:54:47.939Z</time></trkpt><trkpt lat="44.386305" lon="8.52256"><ele>216.16666666666669</ele><time>2026-03-26T09:54:48.939Z</time></trkpt><trkpt lat="44.38634" lon="8.5224683"><ele>217.33333333333334</ele><time>2026-03-26T09:54:49.94Z</time></trkpt><trkpt lat="44.3864217" lon="8.5223367"><ele>218.5</ele><time>2026-03-26T09:54:51.939Z</time></trkpt><trkpt lat="44.38648" lon="8.5222683"><ele>219.66666666666669</ele><time>2026-03-26T09:54:52.939Z</time></trkpt><trkpt lat="44.386545" lon="8.5221967"><ele>220.83333333333334</ele><time>2026-03-26T09:54:53.94Z</time></trkpt><trkpt lat="44.3866017" lon="8.522145"><ele>222.0</ele><time>2026-03-26T09:54:54.939Z</time></trkpt><trkpt lat="44.3866767" lon="8.5220383"><ele>223.16666666666666</ele><time>2026-03-26T09:54:56.94Z</time></trkpt><trkpt lat="44.3866233" lon="8.52188"><ele>224.33333333333331</ele><time>2026-03-26T09:54:58.94Z</time></trkpt><trkpt lat="44.3865733" lon="8.5218083"><ele>225.5</ele><time>2026-03-26T09:54:59.94Z</time></trkpt><trkpt lat="44.3865167" lon="8.5217417"><ele>226.66666666666666</ele><time>2026-03-26T09:55:00.94Z</time></trkpt><trkpt lat="44.3864583" lon="8.5216733"><ele>227.83333333333331</ele><time>2026-03-26T09:55:01.94Z</time></trkpt><trkpt lat="44.3864017" lon="8.5216067"><ele>229.0</ele><time>2026-03-26T09:55:02.94Z</time></trkpt><trkpt lat="44.3863533" lon="8.52152"><ele>231.16666666666666</ele><time>2026-03-26T09:55:03.94Z</time></trkpt><trkpt lat="44.38631" lon="8.5214217"><ele>233.33333333333331</ele><time>2026-03-26T09:55:04.94Z</time></trkpt><trkpt lat="44.38629" lon="8.52133"><ele>235.5</ele><time>2026-03-26T09:55:05.94Z</time></trkpt><trkpt lat="44.38629" lon="8.5211767"><ele>237.66666666666669</ele><time>2026-03-26T09:55:07.94Z</time></trkpt><trkpt lat="44.38628" lon="8.5210133"><ele>239.83333333333334</ele><time>2026-03-26T09:55:09.94Z</time></trkpt><trkpt lat="44.386275" lon="8.520925"><ele>242.0</ele><time>2026-03-26T09:55:10.94Z</time></trkpt><trkpt lat="44.3862617" lon="8.5207767"><ele>243.16666666666669</ele><time>2026-03-26T09:55:12.939Z</time></trkpt><trkpt lat="44.38623" lon="8.5206983"><ele>244.33333333333334</ele><time>2026-03-26T09:55:13.939Z</time></trkpt><trkpt lat="44.3861883" lon="8.5206017"><ele>245.5</ele><time>2026-03-26T09:55:14.939Z</time></trkpt><trkpt lat="44.3861583" lon="8.5204933"><ele>246.66666666666669</ele><time>2026-03-26T09:55:15.939Z</time></trkpt><trkpt lat="44.3861467" lon="8.52039"><ele>247.83333333333334</ele><time>2026-03-26T09:55:16.939Z</time></trkpt><trkpt lat="44.3862183" lon="8.52028"><ele>249.0</ele><time>2026-03-26T09:55:18.939Z</time></trkpt><trkpt lat="44.3862833" lon="8.5202617"><ele>248.2</ele><time>2026-03-26T09:55:19.939Z</time></trkpt><trkpt lat="44.38637" lon="8.5202583"><ele>247.39999999999998</ele><time>2026-03-26T09:55:20.94Z</time></trkpt><trkpt lat="44.3864583" lon="8.5202583"><ele>246.6</ele><time>2026-03-26T09:55:21.939Z</time></trkpt><trkpt lat="44.3865417" lon="8.5202633"><ele>245.8</ele><time>2026-03-26T09:55:22.939Z</time></trkpt><trkpt lat="44.386605" lon="8.520245"><ele>245.0</ele><time>2026-03-26T09:55:23.939Z</time></trkpt><trkpt lat="44.38671" lon="8.5201333"><ele>245.00000000000003</ele><time>2026-03-26T09:55:25.939Z</time></trkpt><trkpt lat="44.3867517" lon="8.52005"><ele>245.0</ele><time>2026-03-26T09:55:26.94Z</time></trkpt><trkpt lat="44.3867983" lon="8.51999"><ele>245.0</ele><time>2026-03-26T09:55:27.94Z</time></trkpt><trkpt lat="44.3868667" lon="8.5199617"><ele>245.0</ele><time>2026-03-26T09:55:28.939Z</time></trkpt><trkpt lat="44.386955" lon="8.5199433"><ele>245.00000000000003</ele><time>2026-03-26T09:55:29.94Z</time></trkpt><trkpt lat="44.3870483" lon="8.51993"><ele>245.0</ele><time>2026-03-26T09:55:30.939Z</time></trkpt><trkpt lat="44.3871333" lon="8.519925"><ele>245.33333333333334</ele><time>2026-03-26T09:55:31.939Z</time></trkpt><trkpt lat="44.3872117" lon="8.5199333"><ele>245.66666666666669</ele><time>2026-03-26T09:55:32.939Z</time></trkpt><trkpt lat="44.3872917" lon="8.5199433"><ele>246.0</ele><time>2026-03-26T09:55:33.94Z</time></trkpt><trkpt lat="44.38736" lon="8.5199533"><ele>246.33333333333331</ele><time>2026-03-26T09:55:34.939Z</time></trkpt><trkpt lat="44.38743" lon="8.51996"><ele>246.66666666666666</ele><time>2026-03-26T09:55:35.94Z</time></trkpt><trkpt lat="44.3875167" lon="8.5199417"><ele>247.0</ele><time>2026-03-26T09:55:36.939Z</time></trkpt><trkpt lat="44.387595" lon="8.51992"><ele>246.99999999999997</ele><time>2026-03-26T09:55:37.94Z</time></trkpt><trkpt lat="44.3876583" lon="8.5199083"><ele>247.0</ele><time>2026-03-26T09:55:38.94Z</time></trkpt><trkpt lat="44.3877217" lon="8.5199167"><ele>247.0</ele><time>2026-03-26T09:55:39.939Z</time></trkpt><trkpt lat="44.3878417" lon="8.5198883"><ele>247.0</ele><time>2026-03-26T09:55:41.94Z</time></trkpt><trkpt lat="44.3879083" lon="8.5198833"><ele>246.99999999999997</ele><time>2026-03-26T09:55:42.94Z</time></trkpt><trkpt lat="44.387995" lon="8.5198917"><ele>247.0</ele><time>2026-03-26T09:55:43.94Z</time></trkpt><trkpt lat="44.3880767" lon="8.5199133"><ele>246.8</ele><time>2026-03-26T09:55:44.939Z</time></trkpt><trkpt lat="44.38815" lon="8.5199433"><ele>246.6</ele><time>2026-03-26T09:55:45.94Z</time></trkpt><trkpt lat="44.3882717" lon="8.519995"><ele>246.40000000000003</ele><time>2026-03-26T09:55:47.939Z</time></trkpt><trkpt lat="44.3883917" lon="8.52002"><ele>246.20000000000002</ele><time>2026-03-26T09:55:49.939Z</time></trkpt><trkpt lat="44.388455" lon="8.5200283"><ele>246.0</ele><time>2026-03-26T09:55:50.94Z</time></trkpt><trkpt lat="44.3885267" lon="8.5200567"><ele>246.0</ele><time>2026-03-26T09:55:51.94Z</time></trkpt><trkpt lat="44.3886" lon="8.5201017"><ele>246.0</ele><time>2026-03-26T09:55:52.939Z</time></trkpt><trkpt lat="44.3886717" lon="8.5201367"><ele>246.0</ele><time>2026-03-26T09:55:53.939Z</time></trkpt><trkpt lat="44.3887367" lon="8.5201467"><ele>246.0</ele><time>2026-03-26T09:55:54.94Z</time></trkpt><trkpt lat="44.3888433" lon="8.5200667"><ele>246.0</ele><time>2026-03-26T09:55:56.939Z</time></trkpt><trkpt lat="44.388885" lon="8.519985"><ele>246.0</ele><time>2026-03-26T09:55:57.939Z</time></trkpt><trkpt lat="44.3889167" lon="8.5199033"><ele>246.20000000000002</ele><time>2026-03-26T09:55:58.939Z</time></trkpt><trkpt lat="44.388925" lon="8.5197117"><ele>246.40000000000003</ele><time>2026-03-26T09:56:00.939Z</time></trkpt><trkpt lat="44.3889083" lon="8.5195933"><ele>246.6</ele><time>2026-03-26T09:56:01.939Z</time></trkpt><trkpt lat="44.3888833" lon="8.51949"><ele>246.8</ele><time>2026-03-26T09:56:02.939Z</time></trkpt><trkpt lat="44.3888333" lon="8.5193933"><ele>247.0</ele><time>2026-03-26T09:56:03.939Z</time></trkpt><trkpt lat="44.3887817" lon="8.5192967"><ele>248.49999999999997</ele><time>2026-03-26T09:56:04.939Z</time></trkpt><trkpt lat="44.3887317" lon="8.5191933"><ele>250.0</ele><time>2026-03-26T09:56:05.939Z</time></trkpt><trkpt lat="44.3887" lon="8.5190883"><ele>251.5</ele><time>2026-03-26T09:56:06.939Z</time></trkpt><trkpt lat="44.3886767" lon="8.5189783"><ele>253.0</ele><time>2026-03-26T09:56:07.939Z</time></trkpt><trkpt lat="44.388665" lon="8.51886"><ele>254.49999999999997</ele><time>2026-03-26T09:56:08.94Z</time></trkpt><trkpt lat="44.3886517" lon="8.5187483"><ele>256.0</ele><time>2026-03-26T09:56:09.939Z</time></trkpt><trkpt lat="44.3886417" lon="8.51864"><ele>259.16666666666663</ele><time>2026-03-26T09:56:10.939Z</time></trkpt><trkpt lat="44.3886383" lon="8.518545"><ele>262.3333333333333</ele><time>2026-03-26T09:56:11.939Z</time></trkpt><trkpt lat="44.3886267" lon="8.5183817"><ele>265.5</ele><time>2026-03-26T09:56:13.94Z</time></trkpt><trkpt lat="44.3886317" lon="8.5182683"><ele>268.6666666666667</ele><time>2026-03-26T09:56:15.94Z</time></trkpt><trkpt lat="44.388665" lon="8.5181833"><ele>271.83333333333337</ele><time>2026-03-26T09:56:17.94Z</time></trkpt><trkpt lat="44.38873" lon="8.518075"><ele>275.0</ele><time>2026-03-26T09:56:19.939Z</time></trkpt><trkpt lat="44.388755" lon="8.5179317"><ele>277.0</ele><time>2026-03-26T09:56:21.94Z</time></trkpt><trkpt lat="44.38877" lon="8.51778"><ele>279.0</ele><time>2026-03-26T09:56:23.939Z</time></trkpt><trkpt lat="44.3888" lon="8.5176567"><ele>281.0</ele><time>2026-03-26T09:56:25.939Z</time></trkpt><trkpt lat="44.38885" lon="8.5175417"><ele>283.0</ele><time>2026-03-26T09:56:27.939Z</time></trkpt><trkpt lat="44.388865" lon="8.51738"><ele>285.0</ele><time>2026-03-26T09:56:29.939Z</time></trkpt><trkpt lat="44.3888233" lon="8.51725"><ele>286.8</ele><time>2026-03-26T09:56:31.94Z</time></trkpt><trkpt lat="44.3888133" lon="8.5171467"><ele>288.6</ele><time>2026-03-26T09:56:33.939Z</time></trkpt><trkpt lat="44.3888633" lon="8.5170417"><ele>290.4</ele><time>2026-03-26T09:56:35.939Z</time></trkpt><trkpt lat="44.3889233" lon="8.5169517"><ele>292.2</ele><time>2026-03-26T09:56:37.939Z</time></trkpt><trkpt lat="44.3890017" lon="8.5168583"><ele>294.0</ele><time>2026-03-26T09:56:39.939Z</time></trkpt><trkpt lat="44.3891067" lon="8.5168217"><ele>294.6666666666667</ele><time>2026-03-26T09:56:41.939Z</time></trkpt><trkpt lat="44.3892167" lon="8.5167383"><ele>295.3333333333333</ele><time>2026-03-26T09:56:43.939Z</time></trkpt><trkpt lat="44.3892767" lon="8.5166767"><ele>296.0</ele><time>2026-03-26T09:56:44.939Z</time></trkpt><trkpt lat="44.3893467" lon="8.5166133"><ele>296.66666666666663</ele><time>2026-03-26T09:56:45.939Z</time></trkpt><trkpt lat="44.3894267" lon="8.5165617"><ele>297.3333333333333</ele><time>2026-03-26T09:56:46.94Z</time></trkpt><trkpt lat="44.3894883" lon="8.5165233"><ele>298.0</ele><time>2026-03-26T09:56:47.94Z</time></trkpt><trkpt lat="44.3896033" lon="8.51643"><ele>298.0</ele><time>2026-03-26T09:56:49.94Z</time></trkpt><trkpt lat="44.3896583" lon="8.5163633"><ele>298.0</ele><time>2026-03-26T09:56:50.939Z</time></trkpt><trkpt lat="44.3897183" lon="8.51627"><ele>298.0</ele><time>2026-03-26T09:56:52.939Z</time></trkpt><trkpt lat="44.3897783" lon="8.516225"><ele>298.0</ele><time>2026-03-26T09:56:55.94Z</time></trkpt><trkpt lat="44.3898483" lon="8.5162"><ele>298.0</ele><time>2026-03-26T09:56:59.939Z</time></trkpt><trkpt lat="44.3899183" lon="8.5161667"><ele>298.0</ele><time>2026-03-26T09:57:02.94Z</time></trkpt><trkpt lat="44.389855" lon="8.5160983"><ele>302.4</ele><time>2026-03-26T09:57:07.939Z</time></trkpt><trkpt lat="44.38979" lon="8.5160533"><ele>306.8</ele><time>2026-03-26T09:57:08.94Z</time></trkpt><trkpt lat="44.389705" lon="8.5160117"><ele>311.2</ele><time>2026-03-26T09:57:09.939Z</time></trkpt><trkpt lat="44.3896183" lon="8.5159767"><ele>315.6</ele><time>2026-03-26T09:57:10.939Z</time></trkpt><trkpt lat="44.3895233" lon="8.5159617"><ele>320.0</ele><time>2026-03-26T09:57:11.94Z</time></trkpt><trkpt lat="44.38942" lon="8.5159583"><ele>321.0</ele><time>2026-03-26T09:57:12.939Z</time></trkpt><trkpt lat="44.38931" lon="8.5159567"><ele>322.0</ele><time>2026-03-26T09:57:13.94Z</time></trkpt><trkpt lat="44.38919" lon="8.5159467"><ele>323.0</ele><time>2026-03-26T09:57:14.94Z</time></trkpt><trkpt lat="44.3890767" lon="8.515945"><ele>324.0</ele><time>2026-03-26T09:57:15.939Z</time></trkpt><trkpt lat="44.3889767" lon="8.5159533"><ele>325.0</ele><time>2026-03-26T09:57:16.94Z</time></trkpt><trkpt lat="44.3888967" lon="8.515955"><ele>325.0</ele><time>2026-03-26T09:57:17.94Z</time></trkpt><trkpt lat="44.3888117" lon="8.515935"><ele>325.0</ele><time>2026-03-26T09:57:19.94Z</time></trkpt><trkpt lat="44.38886" lon="8.5158717"><ele>325.0</ele><time>2026-03-26T09:57:21.939Z</time></trkpt><trkpt lat="44.3889383" lon="8.5158533"><ele>325.0</ele><time>2026-03-26T09:57:22.94Z</time></trkpt><trkpt lat="44.38903" lon="8.5158333"><ele>325.0</ele><time>2026-03-26T09:57:23.94Z</time></trkpt><trkpt lat="44.38915" lon="8.5158267"><ele>325.0</ele><time>2026-03-26T09:57:24.939Z</time></trkpt><trkpt lat="44.3892733" lon="8.5158367"><ele>325.0</ele><time>2026-03-26T09:57:25.939Z</time></trkpt><trkpt lat="44.389395" lon="8.5158433"><ele>325.0</ele><time>2026-03-26T09:57:26.94Z</time></trkpt><trkpt lat="44.389495" lon="8.5158467"><ele>325.0</ele><time>2026-03-26T09:57:27.939Z</time></trkpt><trkpt lat="44.3895917" lon="8.515855"><ele>325.0</ele><time>2026-03-26T09:57:28.94Z</time></trkpt><trkpt lat="44.3897033" lon="8.51588"><ele>325.0</ele><time>2026-03-26T09:57:29.939Z</time></trkpt><trkpt lat="44.38981" lon="8.5158867"><ele>324.0</ele><time>2026-03-26T09:57:30.94Z</time></trkpt><trkpt lat="44.3899167" lon="8.515885"><ele>323.0</ele><time>2026-03-26T09:57:31.94Z</time></trkpt><trkpt lat="44.3900067" lon="8.5158517"><ele>322.0</ele><time>2026-03-26T09:57:32.939Z</time></trkpt><trkpt lat="44.39009" lon="8.5158"><ele>321.0</ele><time>2026-03-26T09:57:33.94Z</time></trkpt><trkpt lat="44.390155" lon="8.5157333"><ele>320.0</ele><time>2026-03-26T09:57:34.94Z</time></trkpt><trkpt lat="44.3902183" lon="8.5156583"><ele>320.0</ele><time>2026-03-26T09:57:35.939Z</time></trkpt><trkpt lat="44.390275" lon="8.5156083"><ele>320.0</ele><time>2026-03-26T09:57:36.939Z</time></trkpt><trkpt lat="44.390385" lon="8.515535"><ele>320.0</ele><time>2026-03-26T09:57:38.94Z</time></trkpt><trkpt lat="44.3904967" lon="8.5154783"><ele>320.0</ele><time>2026-03-26T09:57:40.939Z</time></trkpt><trkpt lat="44.3905617" lon="8.51544"><ele>320.0</ele><time>2026-03-26T09:57:41.939Z</time></trkpt><trkpt lat="44.390615" lon="8.51539"><ele>320.0</ele><time>2026-03-26T09:57:42.94Z</time></trkpt><trkpt lat="44.39071" lon="8.5153933"><ele>319.8</ele><time>2026-03-26T09:57:44.94Z</time></trkpt><trkpt lat="44.3908133" lon="8.515485"><ele>319.6</ele><time>2026-03-26T09:57:46.939Z</time></trkpt><trkpt lat="44.3908667" lon="8.51554"><ele>319.4</ele><time>2026-03-26T09:57:47.939Z</time></trkpt><trkpt lat="44.390925" lon="8.515615"><ele>319.2</ele><time>2026-03-26T09:57:48.939Z</time></trkpt><trkpt lat="44.391" lon="8.515695"><ele>319.0</ele><time>2026-03-26T09:57:49.939Z</time></trkpt><trkpt lat="44.391055" lon="8.5157917"><ele>319.0</ele><time>2026-03-26T09:57:50.939Z</time></trkpt><trkpt lat="44.3911067" lon="8.51587"><ele>319.0</ele><time>2026-03-26T09:57:51.939Z</time></trkpt><trkpt lat="44.3911567" lon="8.5159567"><ele>319.0</ele><time>2026-03-26T09:57:53.94Z</time></trkpt><trkpt lat="44.3911917" lon="8.5160433"><ele>319.0</ele><time>2026-03-26T09:57:58.94Z</time></trkpt><trkpt lat="44.3912167" lon="8.5161717"><ele>319.0</ele><time>2026-03-26T10:10:35.94Z</time></trkpt><trkpt lat="44.3912467" lon="8.5163433"><ele>319.0</ele><time>2026-03-26T10:10:37.94Z</time></trkpt><trkpt lat="44.3912483" lon="8.5164417"><ele>319.79999999999995</ele><time>2026-03-26T10:10:38.941Z</time></trkpt><trkpt lat="44.3912667" lon="8.5166167"><ele>320.59999999999997</ele><time>2026-03-26T10:10:40.941Z</time></trkpt><trkpt lat="44.3912767" lon="8.516785"><ele>321.4</ele><time>2026-03-26T10:10:42.941Z</time></trkpt><trkpt lat="44.3913" lon="8.5169167"><ele>322.2</ele><time>2026-03-26T10:10:44.94Z</time></trkpt><trkpt lat="44.3913483" lon="8.517025"><ele>323.0</ele><time>2026-03-26T10:10:46.94Z</time></trkpt><trkpt lat="44.3914183" lon="8.51714"><ele>323.0</ele><time>2026-03-26T10:10:48.94Z</time></trkpt><trkpt lat="44.39146" lon="8.51721"><ele>323.0</ele><time>2026-03-26T10:10:49.941Z</time></trkpt><trkpt lat="44.3915133" lon="8.5172667"><ele>323.0</ele><time>2026-03-26T10:10:50.94Z</time></trkpt><trkpt lat="44.3916083" lon="8.5173567"><ele>323.0</ele><time>2026-03-26T10:10:52.94Z</time></trkpt><trkpt lat="44.3916883" lon="8.5174417"><ele>323.0</ele><time>2026-03-26T10:10:54.941Z</time></trkpt><trkpt lat="44.3918017" lon="8.5175067"><ele>323.0</ele><time>2026-03-26T10:10:56.941Z</time></trkpt><trkpt lat="44.3918667" lon="8.5175267"><ele>323.0</ele><time>2026-03-26T10:10:57.941Z</time></trkpt><trkpt lat="44.3919633" lon="8.5175183"><ele>323.0</ele><time>2026-03-26T10:10:59.941Z</time></trkpt><trkpt lat="44.3920633" lon="8.5175017"><ele>323.0</ele><time>2026-03-26T10:11:01.941Z</time></trkpt><trkpt lat="44.3921717" lon="8.5174983"><ele>323.0</ele><time>2026-03-26T10:11:03.94Z</time></trkpt><trkpt lat="44.3922833" lon="8.5174967"><ele>323.0</ele><time>2026-03-26T10:11:05.94Z</time></trkpt><trkpt lat="44.3923767" lon="8.5175217"><ele>323.0</ele><time>2026-03-26T10:11:07.941Z</time></trkpt><trkpt lat="44.3924333" lon="8.5175617"><ele>323.0</ele><time>2026-03-26T10:11:08.94Z</time></trkpt><trkpt lat="44.39249" lon="8.5176233"><ele>323.0</ele><time>2026-03-26T10:11:09.941Z</time></trkpt><trkpt lat="44.3925483" lon="8.5177117"><ele>323.0</ele><time>2026-03-26T10:11:10.94Z</time></trkpt><trkpt lat="44.3926" lon="8.5178083"><ele>323.0</ele><time>2026-03-26T10:11:11.941Z</time></trkpt><trkpt lat="44.3926617" lon="8.517905"><ele>323.0</ele><time>2026-03-26T10:11:12.94Z</time></trkpt><trkpt lat="44.3927217" lon="8.5180033"><ele>323.0</ele><time>2026-03-26T10:11:13.94Z</time></trkpt><trkpt lat="44.392785" lon="8.518095"><ele>323.0</ele><time>2026-03-26T10:11:14.94Z</time></trkpt><trkpt lat="44.3928567" lon="8.5181667"><ele>323.0</ele><time>2026-03-26T10:11:15.94Z</time></trkpt><trkpt lat="44.39294" lon="8.5182433"><ele>323.0</ele><time>2026-03-26T10:11:16.941Z</time></trkpt><trkpt lat="44.3930167" lon="8.518315"><ele>321.79999999999995</ele><time>2026-03-26T10:11:17.941Z</time></trkpt><trkpt lat="44.3930617" lon="8.5184117"><ele>320.59999999999997</ele><time>2026-03-26T10:11:18.941Z</time></trkpt><trkpt lat="44.3930533" lon="8.518515"><ele>319.4</ele><time>2026-03-26T10:11:19.941Z</time></trkpt><trkpt lat="44.3930083" lon="8.5186317"><ele>318.2</ele><time>2026-03-26T10:11:20.941Z</time></trkpt><trkpt lat="44.3929517" lon="8.5187633"><ele>317.0</ele><time>2026-03-26T10:11:21.94Z</time></trkpt><trkpt lat="44.392905" lon="8.5188933"><ele>317.0</ele><time>2026-03-26T10:11:22.941Z</time></trkpt><trkpt lat="44.3928867" lon="8.51901"><ele>317.0</ele><time>2026-03-26T10:11:23.94Z</time></trkpt><trkpt lat="44.392915" lon="8.51914"><ele>317.0</ele><time>2026-03-26T10:11:24.941Z</time></trkpt><trkpt lat="44.3929583" lon="8.5192683"><ele>317.0</ele><time>2026-03-26T10:11:25.94Z</time></trkpt><trkpt lat="44.393005" lon="8.5194017"><ele>317.0</ele><time>2026-03-26T10:11:26.941Z</time></trkpt><trkpt lat="44.393045" lon="8.5195233"><ele>321.0</ele><time>2026-03-26T10:11:27.94Z</time></trkpt><trkpt lat="44.3930933" lon="8.5196533"><ele>325.0</ele><time>2026-03-26T10:11:28.941Z</time></trkpt><trkpt lat="44.3931483" lon="8.5197767"><ele>329.0</ele><time>2026-03-26T10:11:29.941Z</time></trkpt><trkpt lat="44.3932167" lon="8.519875"><ele>333.0</ele><time>2026-03-26T10:11:30.941Z</time></trkpt><trkpt lat="44.3932967" lon="8.51996"><ele>337.0</ele><time>2026-03-26T10:11:31.94Z</time></trkpt><trkpt lat="44.3933817" lon="8.52004"><ele>337.0</ele><time>2026-03-26T10:11:32.94Z</time></trkpt><trkpt lat="44.3934583" lon="8.52015"><ele>337.0</ele><time>2026-03-26T10:11:33.941Z</time></trkpt><trkpt lat="44.3935167" lon="8.5202633"><ele>337.0</ele><time>2026-03-26T10:11:34.94Z</time></trkpt><trkpt lat="44.3935483" lon="8.520395"><ele>337.0</ele><time>2026-03-26T10:11:35.941Z</time></trkpt><trkpt lat="44.3935833" lon="8.5205317"><ele>337.0</ele><time>2026-03-26T10:11:36.94Z</time></trkpt><trkpt lat="44.3936383" lon="8.5206667"><ele>336.5</ele><time>2026-03-26T10:11:37.94Z</time></trkpt><trkpt lat="44.3937033" lon="8.5208033"><ele>336.0</ele><time>2026-03-26T10:11:38.941Z</time></trkpt><trkpt lat="44.3937833" lon="8.52092"><ele>335.5</ele><time>2026-03-26T10:11:39.941Z</time></trkpt><trkpt lat="44.3938683" lon="8.521035"><ele>335.0</ele><time>2026-03-26T10:11:40.941Z</time></trkpt><trkpt lat="44.39395" lon="8.5211283"><ele>337.2</ele><time>2026-03-26T10:11:41.941Z</time></trkpt><trkpt lat="44.3940317" lon="8.5212"><ele>339.4</ele><time>2026-03-26T10:11:42.941Z</time></trkpt><trkpt lat="44.3941183" lon="8.521245"><ele>341.6</ele><time>2026-03-26T10:11:43.94Z</time></trkpt><trkpt lat="44.3942017" lon="8.5213033"><ele>343.8</ele><time>2026-03-26T10:11:44.94Z</time></trkpt><trkpt lat="44.3942733" lon="8.5213933"><ele>346.0</ele><time>2026-03-26T10:11:45.94Z</time></trkpt><trkpt lat="44.39434" lon="8.5215033"><ele>346.0</ele><time>2026-03-26T10:11:46.94Z</time></trkpt><trkpt lat="44.39441" lon="8.52161"><ele>346.0</ele><time>2026-03-26T10:11:47.94Z</time></trkpt><trkpt lat="44.394465" lon="8.5217017"><ele>346.0</ele><time>2026-03-26T10:11:48.941Z</time></trkpt><trkpt lat="44.3945133" lon="8.5217967"><ele>346.0</ele><time>2026-03-26T10:11:49.941Z</time></trkpt><trkpt lat="44.3945417" lon="8.52189"><ele>346.0</ele><time>2026-03-26T10:11:50.94Z</time></trkpt><trkpt lat="44.394525" lon="8.521995"><ele>346.0</ele><time>2026-03-26T10:11:51.941Z</time></trkpt><trkpt lat="44.39445" lon="8.5220983"><ele>344.5</ele><time>2026-03-26T10:11:52.941Z</time></trkpt><trkpt lat="44.3943717" lon="8.522205"><ele>343.0</ele><time>2026-03-26T10:11:53.941Z</time></trkpt><trkpt lat="44.3943233" lon="8.5222933"><ele>341.5</ele><time>2026-03-26T10:11:54.94Z</time></trkpt><trkpt lat="44.3942867" lon="8.5223767"><ele>340.0</ele><time>2026-03-26T10:11:55.94Z</time></trkpt><trkpt lat="44.39429" lon="8.5224683"><ele>338.5</ele><time>2026-03-26T10:11:56.941Z</time></trkpt><trkpt lat="44.3943233" lon="8.5225683"><ele>337.0</ele><time>2026-03-26T10:11:57.941Z</time></trkpt><trkpt lat="44.3943683" lon="8.5226767"><ele>337.0</ele><time>2026-03-26T10:11:58.94Z</time></trkpt><trkpt lat="44.3944133" lon="8.5227717"><ele>337.0</ele><time>2026-03-26T10:11:59.941Z</time></trkpt><trkpt lat="44.3944783" lon="8.5228617"><ele>337.0</ele><time>2026-03-26T10:12:00.941Z</time></trkpt><trkpt lat="44.3945467" lon="8.522955"><ele>337.0</ele><time>2026-03-26T10:12:01.94Z</time></trkpt><trkpt lat="44.3946033" lon="8.523065"><ele>337.0</ele><time>2026-03-26T10:12:02.941Z</time></trkpt><trkpt lat="44.3946433" lon="8.52318"><ele>342.5</ele><time>2026-03-26T10:12:03.94Z</time></trkpt><trkpt lat="44.3946883" lon="8.5232833"><ele>348.0</ele><time>2026-03-26T10:12:04.941Z</time></trkpt><trkpt lat="44.394725" lon="8.52336"><ele>353.5</ele><time>2026-03-26T10:12:05.94Z</time></trkpt><trkpt lat="44.394775" lon="8.5234417"><ele>359.0</ele><time>2026-03-26T10:12:06.94Z</time></trkpt><trkpt lat="44.3948267" lon="8.5235117"><ele>364.5</ele><time>2026-03-26T10:12:07.941Z</time></trkpt><trkpt lat="44.3948883" lon="8.5235833"><ele>370.0</ele><time>2026-03-26T10:12:08.94Z</time></trkpt><trkpt lat="44.39494" lon="8.523665"><ele>370.0</ele><time>2026-03-26T10:12:09.941Z</time></trkpt><trkpt lat="44.3949833" lon="8.5237617"><ele>370.0</ele><time>2026-03-26T10:12:10.941Z</time></trkpt><trkpt lat="44.39501" lon="8.5238417"><ele>370.0</ele><time>2026-03-26T10:12:11.941Z</time></trkpt><trkpt lat="44.3950317" lon="8.52395"><ele>370.0</ele><time>2026-03-26T10:12:13.94Z</time></trkpt><trkpt lat="44.3950883" lon="8.52389"><ele>370.0</ele><time>2026-03-26T10:12:16.941Z</time></trkpt><trkpt lat="44.3951783" lon="8.5237583"><ele>370.0</ele><time>2026-03-26T10:12:18.941Z</time></trkpt><trkpt lat="44.3952533" lon="8.5236867"><ele>370.0</ele><time>2026-03-26T10:12:19.94Z</time></trkpt><trkpt lat="44.3953067" lon="8.5236283"><ele>370.0</ele><time>2026-03-26T10:12:20.941Z</time></trkpt><trkpt lat="44.3953433" lon="8.5234933"><ele>370.0</ele><time>2026-03-26T10:12:22.941Z</time></trkpt><trkpt lat="44.3953483" lon="8.5233767"><ele>370.0</ele><time>2026-03-26T10:12:24.941Z</time></trkpt><trkpt lat="44.395445" lon="8.5234183"><ele>370.0</ele><time>2026-03-26T10:12:27.94Z</time></trkpt><trkpt lat="44.3954933" lon="8.5234833"><ele>370.0</ele><time>2026-03-26T10:12:28.94Z</time></trkpt><trkpt lat="44.3955467" lon="8.5235567"><ele>373.4</ele><time>2026-03-26T10:12:29.941Z</time></trkpt><trkpt lat="44.39557" lon="8.5236917"><ele>376.8</ele><time>2026-03-26T10:12:31.941Z</time></trkpt><trkpt lat="44.3955333" lon="8.5238183"><ele>380.20000000000005</ele><time>2026-03-26T10:12:33.94Z</time></trkpt><trkpt lat="44.3955217" lon="8.5239617"><ele>383.6</ele><time>2026-03-26T10:12:35.94Z</time></trkpt><trkpt lat="44.3955767" lon="8.5240867"><ele>387.0</ele><time>2026-03-26T10:12:37.94Z</time></trkpt><trkpt lat="44.3956317" lon="8.5241467"><ele>387.0</ele><time>2026-03-26T10:12:38.941Z</time></trkpt><trkpt lat="44.395705" lon="8.524185"><ele>387.0</ele><time>2026-03-26T10:12:39.941Z</time></trkpt><trkpt lat="44.3957883" lon="8.5242017"><ele>387.0</ele><time>2026-03-26T10:12:40.94Z</time></trkpt><trkpt lat="44.3958867" lon="8.5241917"><ele>387.0</ele><time>2026-03-26T10:12:41.94Z</time></trkpt><trkpt lat="44.396005" lon="8.5241717"><ele>387.0</ele><time>2026-03-26T10:12:42.941Z</time></trkpt><trkpt lat="44.39611" lon="8.5241433"><ele>387.0</ele><time>2026-03-26T10:12:43.94Z</time></trkpt><trkpt lat="44.3961933" lon="8.5240967"><ele>387.0</ele><time>2026-03-26T10:12:44.941Z</time></trkpt><trkpt lat="44.39626" lon="8.5240583"><ele>387.0</ele><time>2026-03-26T10:12:45.94Z</time></trkpt><trkpt lat="44.3963167" lon="8.5239883"><ele>387.0</ele><time>2026-03-26T10:12:46.941Z</time></trkpt><trkpt lat="44.3963967" lon="8.523935"><ele>387.0</ele><time>2026-03-26T10:12:48.94Z</time></trkpt><trkpt lat="44.3965083" lon="8.5239817"><ele>387.0</ele><time>2026-03-26T10:12:50.94Z</time></trkpt><trkpt lat="44.3965833" lon="8.5240517"><ele>387.8</ele><time>2026-03-26T10:12:51.94Z</time></trkpt><trkpt lat="44.3966483" lon="8.5241317"><ele>388.6</ele><time>2026-03-26T10:12:52.94Z</time></trkpt><trkpt lat="44.396695" lon="8.524275"><ele>389.40000000000003</ele><time>2026-03-26T10:12:53.94Z</time></trkpt><trkpt lat="44.39675" lon="8.5244317"><ele>390.20000000000005</ele><time>2026-03-26T10:12:54.94Z</time></trkpt><trkpt lat="44.396815" lon="8.524575"><ele>391.0</ele><time>2026-03-26T10:12:55.941Z</time></trkpt><trkpt lat="44.3968683" lon="8.5246967"><ele>391.00000000000006</ele><time>2026-03-26T10:12:56.94Z</time></trkpt><trkpt lat="44.3968983" lon="8.5248"><ele>391.0</ele><time>2026-03-26T10:12:57.941Z</time></trkpt><trkpt lat="44.396905" lon="8.5249267"><ele>391.0</ele><time>2026-03-26T10:12:59.94Z</time></trkpt><trkpt lat="44.396845" lon="8.524995"><ele>391.0</ele><time>2026-03-26T10:13:02.94Z</time></trkpt><trkpt lat="44.396895" lon="8.52507"><ele>391.00000000000006</ele><time>2026-03-26T10:13:11.94Z</time></trkpt><trkpt lat="44.3969617" lon="8.5250867"><ele>391.0</ele><time>2026-03-26T10:13:13.94Z</time></trkpt><trkpt lat="44.39703" lon="8.52513"><ele>391.00000000000006</ele><time>2026-03-26T10:13:15.94Z</time></trkpt><trkpt lat="44.3971067" lon="8.525205"><ele>391.0</ele><time>2026-03-26T10:13:17.941Z</time></trkpt><trkpt lat="44.3971633" lon="8.5252867"><ele>391.0</ele><time>2026-03-26T10:13:19.941Z</time></trkpt><trkpt lat="44.3971883" lon="8.5253967"><ele>391.0</ele><time>2026-03-26T10:13:22.941Z</time></trkpt><trkpt lat="44.3972633" lon="8.52543"><ele>391.00000000000006</ele><time>2026-03-26T10:13:26.941Z</time></trkpt><trkpt lat="44.397355" lon="8.5254317"><ele>391.0</ele><time>2026-03-26T10:13:29.941Z</time></trkpt><trkpt lat="44.39743" lon="8.5254067"><ele>393.50000000000006</ele><time>2026-03-26T10:13:31.94Z</time></trkpt><trkpt lat="44.3975283" lon="8.52541"><ele>396.0</ele><time>2026-03-26T10:13:33.941Z</time></trkpt><trkpt lat="44.3976033" lon="8.52545"><ele>398.5</ele><time>2026-03-26T10:13:35.94Z</time></trkpt><trkpt lat="44.3976617" lon="8.5254967"><ele>401.0</ele><time>2026-03-26T10:13:37.94Z</time></trkpt><trkpt lat="44.39771" lon="8.5255567"><ele>403.50000000000006</ele><time>2026-03-26T10:13:39.941Z</time></trkpt><trkpt lat="44.3978" lon="8.5256067"><ele>406.0</ele><time>2026-03-26T10:13:42.94Z</time></trkpt><trkpt lat="44.3978583" lon="8.5256467"><ele>406.00000000000006</ele><time>2026-03-26T10:13:44.94Z</time></trkpt><trkpt lat="44.3979383" lon="8.5256583"><ele>406.0</ele><time>2026-03-26T10:13:46.941Z</time></trkpt><trkpt lat="44.3980167" lon="8.5256667"><ele>406.0</ele><time>2026-03-26T10:13:48.94Z</time></trkpt><trkpt lat="44.3980833" lon="8.5256267"><ele>406.0</ele><time>2026-03-26T10:13:51.941Z</time></trkpt><trkpt lat="44.3981483" lon="8.5255783"><ele>406.00000000000006</ele><time>2026-03-26T10:13:53.94Z</time></trkpt><trkpt lat="44.3982317" lon="8.52553"><ele>406.0</ele><time>2026-03-26T10:13:55.941Z</time></trkpt><trkpt lat="44.3983233" lon="8.5254583"><ele>410.4</ele><time>2026-03-26T10:13:57.94Z</time></trkpt><trkpt lat="44.3984" lon="8.5253533"><ele>414.8</ele><time>2026-03-26T10:13:59.94Z</time></trkpt><trkpt lat="44.3985017" lon="8.5252867"><ele>419.19999999999993</ele><time>2026-03-26T10:14:01.941Z</time></trkpt><trkpt lat="44.3986067" lon="8.5252817"><ele>423.59999999999997</ele><time>2026-03-26T10:14:03.941Z</time></trkpt><trkpt lat="44.39872" lon="8.5252933"><ele>428.0</ele><time>2026-03-26T10:14:05.94Z</time></trkpt><trkpt lat="44.3988383" lon="8.5253317"><ele>430.3333333333333</ele><time>2026-03-26T10:14:07.941Z</time></trkpt><trkpt lat="44.398905" lon="8.5253517"><ele>432.66666666666663</ele><time>2026-03-26T10:14:08.941Z</time></trkpt><trkpt lat="44.39902" lon="8.525345"><ele>435.0</ele><time>2026-03-26T10:14:10.941Z</time></trkpt><trkpt lat="44.3990817" lon="8.52532"><ele>437.33333333333337</ele><time>2026-03-26T10:14:11.94Z</time></trkpt><trkpt lat="44.39915" lon="8.5252867"><ele>439.6666666666667</ele><time>2026-03-26T10:14:12.941Z</time></trkpt><trkpt lat="44.3992183" lon="8.52525"><ele>442.0</ele><time>2026-03-26T10:14:13.94Z</time></trkpt><trkpt lat="44.3992883" lon="8.5252117"><ele>442.00000000000006</ele><time>2026-03-26T10:14:14.941Z</time></trkpt><trkpt lat="44.3993633" lon="8.52513"><ele>442.0</ele><time>2026-03-26T10:14:16.941Z</time></trkpt><trkpt lat="44.399395" lon="8.5250483"><ele>442.0</ele><time>2026-03-26T10:14:19.941Z</time></trkpt><trkpt lat="44.3993267" lon="8.52497"><ele>442.0</ele><time>2026-03-26T10:14:21.94Z</time></trkpt><trkpt lat="44.3992767" lon="8.524905"><ele>442.00000000000006</ele><time>2026-03-26T10:14:22.941Z</time></trkpt><trkpt lat="44.3992333" lon="8.52481"><ele>442.0</ele><time>2026-03-26T10:14:23.941Z</time></trkpt><trkpt lat="44.39918" lon="8.5247217"><ele>442.0</ele><time>2026-03-26T10:14:24.941Z</time></trkpt><trkpt lat="44.39912" lon="8.5246333"><ele>442.00000000000006</ele><time>2026-03-26T10:14:25.941Z</time></trkpt><trkpt lat="44.3990617" lon="8.5245733"><ele>442.00000000000006</ele><time>2026-03-26T10:14:26.941Z</time></trkpt><trkpt lat="44.39897" lon="8.5245433"><ele>442.0</ele><time>2026-03-26T10:14:27.94Z</time></trkpt><trkpt lat="44.3988717" lon="8.5244983"><ele>442.0</ele><time>2026-03-26T10:14:28.941Z</time></trkpt><trkpt lat="44.3987733" lon="8.52443"><ele>443.25</ele><time>2026-03-26T10:14:29.941Z</time></trkpt><trkpt lat="44.3986833" lon="8.5243433"><ele>444.5</ele><time>2026-03-26T10:14:30.94Z</time></trkpt><trkpt lat="44.3985783" lon="8.524275"><ele>445.75</ele><time>2026-03-26T10:14:31.941Z</time></trkpt><trkpt lat="44.3984633" lon="8.524205"><ele>447.0</ele><time>2026-03-26T10:14:32.941Z</time></trkpt><trkpt lat="44.3983567" lon="8.52414"><ele>447.0</ele><time>2026-03-26T10:14:33.941Z</time></trkpt><trkpt lat="44.39827" lon="8.5240883"><ele>447.00000000000006</ele><time>2026-03-26T10:14:34.94Z</time></trkpt><trkpt lat="44.3981967" lon="8.5240133"><ele>447.00000000000006</ele><time>2026-03-26T10:14:35.941Z</time></trkpt><trkpt lat="44.3981233" lon="8.5239283"><ele>447.0</ele><time>2026-03-26T10:14:36.94Z</time></trkpt><trkpt lat="44.3980667" lon="8.5238417"><ele>447.0</ele><time>2026-03-26T10:14:37.941Z</time></trkpt><trkpt lat="44.398" lon="8.52374"><ele>445.6</ele><time>2026-03-26T10:14:38.94Z</time></trkpt><trkpt lat="44.3979533" lon="8.5236117"><ele>444.20000000000005</ele><time>2026-03-26T10:14:39.94Z</time></trkpt><trkpt lat="44.3978817" lon="8.5234717"><ele>442.8</ele><time>2026-03-26T10:14:40.941Z</time></trkpt><trkpt lat="44.3978183" lon="8.5233433"><ele>441.4</ele><time>2026-03-26T10:14:41.94Z</time></trkpt><trkpt lat="44.3977533" lon="8.523255"><ele>440.0</ele><time>2026-03-26T10:14:42.941Z</time></trkpt><trkpt lat="44.397695" lon="8.5231983"><ele>440.0</ele><time>2026-03-26T10:14:43.94Z</time></trkpt><trkpt lat="44.3976317" lon="8.5230967"><ele>440.0</ele><time>2026-03-26T10:14:45.941Z</time></trkpt><trkpt lat="44.3976767" lon="8.522965"><ele>440.0</ele><time>2026-03-26T10:14:48.941Z</time></trkpt><trkpt lat="44.39779" lon="8.5228617"><ele>440.0</ele><time>2026-03-26T10:14:50.94Z</time></trkpt><trkpt lat="44.3978817" lon="8.5228"><ele>440.0</ele><time>2026-03-26T10:14:51.94Z</time></trkpt><trkpt lat="44.3979967" lon="8.5227483"><ele>441.0</ele><time>2026-03-26T10:14:52.94Z</time></trkpt><trkpt lat="44.39811" lon="8.5226983"><ele>442.0</ele><time>2026-03-26T10:14:53.94Z</time></trkpt><trkpt lat="44.3982233" lon="8.5226417"><ele>443.0</ele><time>2026-03-26T10:14:54.94Z</time></trkpt><trkpt lat="44.3983267" lon="8.522585"><ele>444.0</ele><time>2026-03-26T10:14:55.941Z</time></trkpt><trkpt lat="44.3984083" lon="8.5225367"><ele>445.0</ele><time>2026-03-26T10:14:56.941Z</time></trkpt><trkpt lat="44.3984783" lon="8.522505"><ele>445.0</ele><time>2026-03-26T10:14:57.941Z</time></trkpt><trkpt lat="44.3985433" lon="8.52249"><ele>445.0</ele><time>2026-03-26T10:14:58.94Z</time></trkpt><trkpt lat="44.3986383" lon="8.5224583"><ele>445.0</ele><time>2026-03-26T10:15:00.94Z</time></trkpt><trkpt lat="44.3986117" lon="8.522305"><ele>445.0</ele><time>2026-03-26T10:15:03.94Z</time></trkpt><trkpt lat="44.3985417" lon="8.5222117"><ele>445.0</ele><time>2026-03-26T10:15:04.94Z</time></trkpt><trkpt lat="44.3984633" lon="8.522125"><ele>446.8</ele><time>2026-03-26T10:15:05.941Z</time></trkpt><trkpt lat="44.3983683" lon="8.5220367"><ele>448.6</ele><time>2026-03-26T10:15:06.941Z</time></trkpt><trkpt lat="44.3982733" lon="8.5219617"><ele>450.4</ele><time>2026-03-26T10:15:07.94Z</time></trkpt><trkpt lat="44.398185" lon="8.5219117"><ele>452.2</ele><time>2026-03-26T10:15:08.94Z</time></trkpt><trkpt lat="44.398095" lon="8.5218683"><ele>454.0</ele><time>2026-03-26T10:15:09.941Z</time></trkpt><trkpt lat="44.3980017" lon="8.5218117"><ele>450.6</ele><time>2026-03-26T10:15:10.941Z</time></trkpt><trkpt lat="44.3979067" lon="8.5217483"><ele>447.2</ele><time>2026-03-26T10:15:11.941Z</time></trkpt><trkpt lat="44.3978117" lon="8.5216967"><ele>443.80000000000007</ele><time>2026-03-26T10:15:12.94Z</time></trkpt><trkpt lat="44.3977067" lon="8.5216583"><ele>440.40000000000003</ele><time>2026-03-26T10:15:13.941Z</time></trkpt><trkpt lat="44.397595" lon="8.5216217"><ele>437.0</ele><time>2026-03-26T10:15:14.941Z</time></trkpt><trkpt lat="44.397495" lon="8.5215917"><ele>437.0</ele><time>2026-03-26T10:15:15.941Z</time></trkpt><trkpt lat="44.3974017" lon="8.5215733"><ele>437.00000000000006</ele><time>2026-03-26T10:15:16.941Z</time></trkpt><trkpt lat="44.3973" lon="8.5215433"><ele>437.00000000000006</ele><time>2026-03-26T10:15:17.94Z</time></trkpt><trkpt lat="44.3972033" lon="8.521515"><ele>437.0</ele><time>2026-03-26T10:15:18.94Z</time></trkpt><trkpt lat="44.3971167" lon="8.5214767"><ele>437.0</ele><time>2026-03-26T10:15:19.941Z</time></trkpt><trkpt lat="44.397045" lon="8.52144"><ele>437.99999999999994</ele><time>2026-03-26T10:15:20.941Z</time></trkpt><trkpt lat="44.39698" lon="8.52139"><ele>439.0</ele><time>2026-03-26T10:15:21.94Z</time></trkpt><trkpt lat="44.3969" lon="8.5213433"><ele>440.0</ele><time>2026-03-26T10:15:22.94Z</time></trkpt><trkpt lat="44.396805" lon="8.5212767"><ele>441.0</ele><time>2026-03-26T10:15:23.941Z</time></trkpt><trkpt lat="44.3967167" lon="8.5212133"><ele>441.99999999999994</ele><time>2026-03-26T10:15:24.941Z</time></trkpt><trkpt lat="44.3966483" lon="8.521175"><ele>443.0</ele><time>2026-03-26T10:15:25.94Z</time></trkpt><trkpt lat="44.3965833" lon="8.5211867"><ele>442.99999999999994</ele><time>2026-03-26T10:15:26.94Z</time></trkpt><trkpt lat="44.3965083" lon="8.5212233"><ele>443.0</ele><time>2026-03-26T10:15:27.941Z</time></trkpt><trkpt lat="44.3964233" lon="8.521245"><ele>443.0</ele><time>2026-03-26T10:15:29.941Z</time></trkpt><trkpt lat="44.3964317" lon="8.5211333"><ele>443.0</ele><time>2026-03-26T10:15:32.941Z</time></trkpt><trkpt lat="44.3964517" lon="8.5210283"><ele>442.99999999999994</ele><time>2026-03-26T10:15:34.941Z</time></trkpt><trkpt lat="44.39644" lon="8.520865"><ele>443.0</ele><time>2026-03-26T10:15:36.941Z</time></trkpt><trkpt lat="44.3964467" lon="8.520715"><ele>443.0</ele><time>2026-03-26T10:15:38.94Z</time></trkpt><trkpt lat="44.3965367" lon="8.5206"><ele>442.99999999999994</ele><time>2026-03-26T10:15:40.941Z</time></trkpt><trkpt lat="44.39661" lon="8.5205533"><ele>442.99999999999994</ele><time>2026-03-26T10:15:41.941Z</time></trkpt><trkpt lat="44.3967017" lon="8.52052"><ele>443.0</ele><time>2026-03-26T10:15:42.941Z</time></trkpt><trkpt lat="44.396805" lon="8.5204917"><ele>443.0</ele><time>2026-03-26T10:15:43.94Z</time></trkpt><trkpt lat="44.3968983" lon="8.5204783"><ele>442.99999999999994</ele><time>2026-03-26T10:15:44.94Z</time></trkpt><trkpt lat="44.39699" lon="8.520465"><ele>443.0</ele><time>2026-03-26T10:15:45.94Z</time></trkpt><trkpt lat="44.3970667" lon="8.520455"><ele>443.0</ele><time>2026-03-26T10:15:46.941Z</time></trkpt><trkpt lat="44.3971567" lon="8.5204617"><ele>443.0</ele><time>2026-03-26T10:15:47.94Z</time></trkpt><trkpt lat="44.3972383" lon="8.5204633"><ele>442.99999999999994</ele><time>2026-03-26T10:15:48.94Z</time></trkpt><trkpt lat="44.39731" lon="8.5204467"><ele>443.0</ele><time>2026-03-26T10:15:49.94Z</time></trkpt><trkpt lat="44.3973817" lon="8.5204333"><ele>445.0</ele><time>2026-03-26T10:15:50.941Z</time></trkpt><trkpt lat="44.397495" lon="8.5204083"><ele>447.0</ele><time>2026-03-26T10:15:52.941Z</time></trkpt><trkpt lat="44.3976133" lon="8.52037"><ele>449.0</ele><time>2026-03-26T10:15:54.94Z</time></trkpt><trkpt lat="44.3977483" lon="8.5203367"><ele>451.0</ele><time>2026-03-26T10:15:56.94Z</time></trkpt><trkpt lat="44.3978333" lon="8.5203267"><ele>451.0</ele><time>2026-03-26T10:15:57.94Z</time></trkpt><trkpt lat="44.3979033" lon="8.520315"><ele>451.0</ele><time>2026-03-26T10:15:58.94Z</time></trkpt><trkpt lat="44.398015" lon="8.5203"><ele>451.0</ele><time>2026-03-26T10:16:00.94Z</time></trkpt><trkpt lat="44.398115" lon="8.520315"><ele>451.0</ele><time>2026-03-26T10:16:02.94Z</time></trkpt><trkpt lat="44.398205" lon="8.520365"><ele>451.0</ele><time>2026-03-26T10:16:04.94Z</time></trkpt><trkpt lat="44.3982983" lon="8.5203867"><ele>453.83333333333337</ele><time>2026-03-26T10:16:06.941Z</time></trkpt><trkpt lat="44.39842" lon="8.52036"><ele>456.6666666666667</ele><time>2026-03-26T10:16:08.941Z</time></trkpt><trkpt lat="44.398485" lon="8.5203483"><ele>459.5</ele><time>2026-03-26T10:16:09.941Z</time></trkpt><trkpt lat="44.3985533" lon="8.520345"><ele>462.33333333333337</ele><time>2026-03-26T10:16:10.941Z</time></trkpt><trkpt lat="44.3986267" lon="8.52034"><ele>465.1666666666667</ele><time>2026-03-26T10:16:11.941Z</time></trkpt><trkpt lat="44.3987083" lon="8.5203367"><ele>468.0</ele><time>2026-03-26T10:16:12.941Z</time></trkpt><trkpt lat="44.39879" lon="8.5203567"><ele>471.0</ele><time>2026-03-26T10:16:13.941Z</time></trkpt><trkpt lat="44.398855" lon="8.5203833"><ele>473.99999999999994</ele><time>2026-03-26T10:16:14.94Z</time></trkpt><trkpt lat="44.398995" lon="8.520355"><ele>476.99999999999994</ele><time>2026-03-26T10:16:16.94Z</time></trkpt><trkpt lat="44.3990883" lon="8.5203017"><ele>480.0</ele><time>2026-03-26T10:16:17.94Z</time></trkpt><trkpt lat="44.3991767" lon="8.5202333"><ele>483.0</ele><time>2026-03-26T10:16:18.941Z</time></trkpt><trkpt lat="44.399255" lon="8.5201817"><ele>483.0</ele><time>2026-03-26T10:16:19.941Z</time></trkpt><trkpt lat="44.39932" lon="8.5201233"><ele>482.99999999999994</ele><time>2026-03-26T10:16:20.941Z</time></trkpt><trkpt lat="44.3993833" lon="8.52005"><ele>482.99999999999994</ele><time>2026-03-26T10:16:21.941Z</time></trkpt><trkpt lat="44.3994567" lon="8.5199483"><ele>483.0</ele><time>2026-03-26T10:16:22.94Z</time></trkpt><trkpt lat="44.399545" lon="8.5198483"><ele>483.0</ele><time>2026-03-26T10:16:23.94Z</time></trkpt><trkpt lat="44.399625" lon="8.5197567"><ele>483.59999999999997</ele><time>2026-03-26T10:16:24.941Z</time></trkpt><trkpt lat="44.3997033" lon="8.51965"><ele>484.19999999999993</ele><time>2026-03-26T10:16:25.941Z</time></trkpt><trkpt lat="44.3997833" lon="8.5195467"><ele>484.8</ele><time>2026-03-26T10:16:26.941Z</time></trkpt><trkpt lat="44.3998683" lon="8.5194417"><ele>485.4</ele><time>2026-03-26T10:16:27.941Z</time></trkpt><trkpt lat="44.3999583" lon="8.5193467"><ele>486.0</ele><time>2026-03-26T10:16:28.941Z</time></trkpt><trkpt lat="44.4000183" lon="8.5192417"><ele>486.0</ele><time>2026-03-26T10:16:29.94Z</time></trkpt><trkpt lat="44.4000683" lon="8.519115"><ele>486.0</ele><time>2026-03-26T10:16:30.941Z</time></trkpt><trkpt lat="44.4001" lon="8.51898"><ele>486.0</ele><time>2026-03-26T10:16:31.94Z</time></trkpt><trkpt lat="44.40011" lon="8.5188317"><ele>486.0</ele><time>2026-03-26T10:16:32.94Z</time></trkpt><trkpt lat="44.4001033" lon="8.5186733"><ele>486.0</ele><time>2026-03-26T10:16:33.94Z</time></trkpt><trkpt lat="44.4001017" lon="8.5185367"><ele>485.6</ele><time>2026-03-26T10:16:34.94Z</time></trkpt><trkpt lat="44.4000883" lon="8.5184267"><ele>485.20000000000005</ele><time>2026-03-26T10:16:35.941Z</time></trkpt><trkpt lat="44.4000517" lon="8.51833"><ele>484.79999999999995</ele><time>2026-03-26T10:16:36.941Z</time></trkpt><trkpt lat="44.3999867" lon="8.5182217"><ele>484.4</ele><time>2026-03-26T10:16:37.94Z</time></trkpt><trkpt lat="44.39989" lon="8.51809"><ele>484.0</ele><time>2026-03-26T10:16:38.94Z</time></trkpt><trkpt lat="44.399805" lon="8.5179333"><ele>483.5</ele><time>2026-03-26T10:16:39.94Z</time></trkpt><trkpt lat="44.3997617" lon="8.5177917"><ele>483.0</ele><time>2026-03-26T10:16:40.94Z</time></trkpt><trkpt lat="44.3997367" lon="8.517635"><ele>482.5</ele><time>2026-03-26T10:16:41.94Z</time></trkpt><trkpt lat="44.3997133" lon="8.5174567"><ele>482.0</ele><time>2026-03-26T10:16:42.941Z</time></trkpt><trkpt lat="44.3996833" lon="8.51728"><ele>482.40000000000003</ele><time>2026-03-26T10:16:43.941Z</time></trkpt><trkpt lat="44.3996467" lon="8.5171383"><ele>482.80000000000007</ele><time>2026-03-26T10:16:44.94Z</time></trkpt><trkpt lat="44.3996117" lon="8.5170033"><ele>483.2</ele><time>2026-03-26T10:16:45.94Z</time></trkpt><trkpt lat="44.399585" lon="8.5168733"><ele>483.6</ele><time>2026-03-26T10:16:46.94Z</time></trkpt><trkpt lat="44.3995567" lon="8.516745"><ele>484.0</ele><time>2026-03-26T10:16:47.94Z</time></trkpt><trkpt lat="44.3995167" lon="8.5166067"><ele>484.0</ele><time>2026-03-26T10:16:48.941Z</time></trkpt><trkpt lat="44.3994583" lon="8.5164683"><ele>484.0</ele><time>2026-03-26T10:16:49.94Z</time></trkpt><trkpt lat="44.3993917" lon="8.51633"><ele>484.0</ele><time>2026-03-26T10:16:50.941Z</time></trkpt><trkpt lat="44.39934" lon="8.5161783"><ele>484.0</ele><time>2026-03-26T10:16:51.94Z</time></trkpt><trkpt lat="44.3992933" lon="8.5160433"><ele>485.6666666666667</ele><time>2026-03-26T10:16:52.94Z</time></trkpt><trkpt lat="44.3992517" lon="8.5159083"><ele>487.33333333333337</ele><time>2026-03-26T10:16:53.94Z</time></trkpt><trkpt lat="44.399225" lon="8.515785"><ele>489.0</ele><time>2026-03-26T10:16:54.941Z</time></trkpt><trkpt lat="44.399215" lon="8.5156567"><ele>490.66666666666663</ele><time>2026-03-26T10:16:55.94Z</time></trkpt><trkpt lat="44.399225" lon="8.51554"><ele>492.3333333333333</ele><time>2026-03-26T10:16:56.941Z</time></trkpt><trkpt lat="44.3992317" lon="8.51544"><ele>494.0</ele><time>2026-03-26T10:16:57.94Z</time></trkpt><trkpt lat="44.3992267" lon="8.5153517"><ele>493.99999999999994</ele><time>2026-03-26T10:16:58.94Z</time></trkpt><trkpt lat="44.3991917" lon="8.5152783"><ele>494.0</ele><time>2026-03-26T10:16:59.941Z</time></trkpt><trkpt lat="44.3991283" lon="8.5151833"><ele>494.0</ele><time>2026-03-26T10:17:00.94Z</time></trkpt><trkpt lat="44.3990567" lon="8.515095"><ele>494.0</ele><time>2026-03-26T10:17:01.94Z</time></trkpt><trkpt lat="44.3990017" lon="8.515"><ele>493.99999999999994</ele><time>2026-03-26T10:17:02.94Z</time></trkpt><trkpt lat="44.3989733" lon="8.5149017"><ele>494.0</ele><time>2026-03-26T10:17:03.941Z</time></trkpt><trkpt lat="44.3989617" lon="8.51478"><ele>494.0</ele><time>2026-03-26T10:17:04.941Z</time></trkpt><trkpt lat="44.3989717" lon="8.514665"><ele>494.0</ele><time>2026-03-26T10:17:05.94Z</time></trkpt><trkpt lat="44.3990017" lon="8.5145467"><ele>494.0</ele><time>2026-03-26T10:17:06.94Z</time></trkpt><trkpt lat="44.3990317" lon="8.5144283"><ele>494.0</ele><time>2026-03-26T10:17:07.94Z</time></trkpt><trkpt lat="44.3990683" lon="8.5142867"><ele>494.0</ele><time>2026-03-26T10:17:08.941Z</time></trkpt><trkpt lat="44.3991133" lon="8.5141267"><ele>493.4</ele><time>2026-03-26T10:17:09.94Z</time></trkpt><trkpt lat="44.3991483" lon="8.5139733"><ele>492.79999999999995</ele><time>2026-03-26T10:17:10.94Z</time></trkpt><trkpt lat="44.399175" lon="8.5138167"><ele>492.20000000000005</ele><time>2026-03-26T10:17:11.94Z</time></trkpt><trkpt lat="44.3991933" lon="8.5136683"><ele>491.6</ele><time>2026-03-26T10:17:12.94Z</time></trkpt><trkpt lat="44.3992167" lon="8.51355"><ele>491.0</ele><time>2026-03-26T10:17:13.94Z</time></trkpt><trkpt lat="44.399235" lon="8.5134367"><ele>491.16666666666663</ele><time>2026-03-26T10:17:14.941Z</time></trkpt><trkpt lat="44.3992317" lon="8.5133483"><ele>491.3333333333333</ele><time>2026-03-26T10:17:15.941Z</time></trkpt><trkpt lat="44.399205" lon="8.5132517"><ele>491.5</ele><time>2026-03-26T10:17:16.942Z</time></trkpt><trkpt lat="44.3991617" lon="8.51313"><ele>491.66666666666663</ele><time>2026-03-26T10:17:17.941Z</time></trkpt><trkpt lat="44.39911" lon="8.513015"><ele>491.8333333333333</ele><time>2026-03-26T10:17:18.941Z</time></trkpt><trkpt lat="44.3990683" lon="8.5128983"><ele>492.0</ele><time>2026-03-26T10:17:19.941Z</time></trkpt><trkpt lat="44.3990417" lon="8.5127867"><ele>492.0</ele><time>2026-03-26T10:17:20.941Z</time></trkpt><trkpt lat="44.39904" lon="8.512675"><ele>492.00000000000006</ele><time>2026-03-26T10:17:21.941Z</time></trkpt><trkpt lat="44.3990533" lon="8.512545"><ele>492.00000000000006</ele><time>2026-03-26T10:17:22.942Z</time></trkpt><trkpt lat="44.399075" lon="8.5124067"><ele>492.0</ele><time>2026-03-26T10:17:23.942Z</time></trkpt><trkpt lat="44.3990783" lon="8.5122533"><ele>492.0</ele><time>2026-03-26T10:17:24.942Z</time></trkpt><trkpt lat="44.3990667" lon="8.512115"><ele>492.0</ele><time>2026-03-26T10:17:25.941Z</time></trkpt><trkpt lat="44.399065" lon="8.5120033"><ele>492.0</ele><time>2026-03-26T10:17:26.942Z</time></trkpt><trkpt lat="44.3990717" lon="8.511895"><ele>492.0</ele><time>2026-03-26T10:17:27.942Z</time></trkpt><trkpt lat="44.3991083" lon="8.511815"><ele>492.0</ele><time>2026-03-26T10:17:28.942Z</time></trkpt><trkpt lat="44.3991483" lon="8.511735"><ele>492.0</ele><time>2026-03-26T10:17:29.941Z</time></trkpt><trkpt lat="44.399215" lon="8.5116583"><ele>492.0</ele><time>2026-03-26T10:17:30.941Z</time></trkpt><trkpt lat="44.399285" lon="8.511565"><ele>492.0</ele><time>2026-03-26T10:17:31.941Z</time></trkpt><trkpt lat="44.3993483" lon="8.5114583"><ele>492.00000000000006</ele><time>2026-03-26T10:17:32.942Z</time></trkpt><trkpt lat="44.3993967" lon="8.51135"><ele>492.00000000000006</ele><time>2026-03-26T10:17:33.941Z</time></trkpt><trkpt lat="44.3994217" lon="8.5112217"><ele>492.0</ele><time>2026-03-26T10:17:34.941Z</time></trkpt><trkpt lat="44.3994133" lon="8.51107"><ele>492.0</ele><time>2026-03-26T10:17:35.941Z</time></trkpt><trkpt lat="44.3994" lon="8.51092"><ele>491.40000000000003</ele><time>2026-03-26T10:17:36.942Z</time></trkpt><trkpt lat="44.3993967" lon="8.5108017"><ele>490.80000000000007</ele><time>2026-03-26T10:17:37.941Z</time></trkpt><trkpt lat="44.3994117" lon="8.5107"><ele>490.2</ele><time>2026-03-26T10:17:38.942Z</time></trkpt><trkpt lat="44.3994433" lon="8.5105883"><ele>489.6</ele><time>2026-03-26T10:17:39.941Z</time></trkpt><trkpt lat="44.3994883" lon="8.5104667"><ele>489.0</ele><time>2026-03-26T10:17:40.941Z</time></trkpt><trkpt lat="44.39953" lon="8.5103267"><ele>489.0</ele><time>2026-03-26T10:17:41.942Z</time></trkpt><trkpt lat="44.3995467" lon="8.5101983"><ele>489.0</ele><time>2026-03-26T10:17:42.942Z</time></trkpt><trkpt lat="44.3995733" lon="8.5101"><ele>489.0</ele><time>2026-03-26T10:17:43.941Z</time></trkpt><trkpt lat="44.3996083" lon="8.5100167"><ele>489.0</ele><time>2026-03-26T10:17:44.942Z</time></trkpt><trkpt lat="44.399665" lon="8.5099517"><ele>489.0</ele><time>2026-03-26T10:17:45.941Z</time></trkpt><trkpt lat="44.3997333" lon="8.50988"><ele>489.0</ele><time>2026-03-26T10:17:46.942Z</time></trkpt><trkpt lat="44.3998017" lon="8.509785"><ele>492.2</ele><time>2026-03-26T10:17:47.941Z</time></trkpt><trkpt lat="44.3998733" lon="8.5096717"><ele>495.4</ele><time>2026-03-26T10:17:48.941Z</time></trkpt><trkpt lat="44.3999467" lon="8.5095517"><ele>498.6</ele><time>2026-03-26T10:17:49.941Z</time></trkpt><trkpt lat="44.400015" lon="8.50945"><ele>501.8</ele><time>2026-03-26T10:17:50.941Z</time></trkpt><trkpt lat="44.4000917" lon="8.5093633"><ele>505.0</ele><time>2026-03-26T10:17:51.941Z</time></trkpt><trkpt lat="44.4001933" lon="8.5092933"><ele>506.2</ele><time>2026-03-26T10:17:52.942Z</time></trkpt><trkpt lat="44.4003017" lon="8.5092333"><ele>507.4</ele><time>2026-03-26T10:17:53.942Z</time></trkpt><trkpt lat="44.400395" lon="8.5091733"><ele>508.6</ele><time>2026-03-26T10:17:54.942Z</time></trkpt><trkpt lat="44.4004667" lon="8.50911"><ele>509.8</ele><time>2026-03-26T10:17:55.941Z</time></trkpt><trkpt lat="44.400525" lon="8.5090033"><ele>511.0</ele><time>2026-03-26T10:17:56.942Z</time></trkpt><trkpt lat="44.40056" lon="8.5088833"><ele>508.75</ele><time>2026-03-26T10:17:57.941Z</time></trkpt><trkpt lat="44.4005767" lon="8.50874"><ele>506.5</ele><time>2026-03-26T10:17:58.941Z</time></trkpt><trkpt lat="44.40058" lon="8.50858"><ele>504.25</ele><time>2026-03-26T10:17:59.942Z</time></trkpt><trkpt lat="44.4005933" lon="8.50842"><ele>502.0</ele><time>2026-03-26T10:18:00.941Z</time></trkpt><trkpt lat="44.4006083" lon="8.5082467"><ele>502.0</ele><time>2026-03-26T10:18:01.941Z</time></trkpt><trkpt lat="44.4006317" lon="8.5080767"><ele>502.0</ele><time>2026-03-26T10:18:02.942Z</time></trkpt><trkpt lat="44.4006533" lon="8.5079067"><ele>502.0</ele><time>2026-03-26T10:18:03.942Z</time></trkpt><trkpt lat="44.4006733" lon="8.507735"><ele>502.0</ele><time>2026-03-26T10:18:04.942Z</time></trkpt><trkpt lat="44.400675" lon="8.5075633"><ele>503.5</ele><time>2026-03-26T10:18:05.942Z</time></trkpt><trkpt lat="44.400675" lon="8.5074"><ele>505.0</ele><time>2026-03-26T10:18:06.941Z</time></trkpt><trkpt lat="44.4006533" lon="8.50725"><ele>506.5</ele><time>2026-03-26T10:18:07.942Z</time></trkpt><trkpt lat="44.4006167" lon="8.5070917"><ele>508.0</ele><time>2026-03-26T10:18:08.941Z</time></trkpt><trkpt lat="44.4005783" lon="8.5069383"><ele>509.0</ele><time>2026-03-26T10:18:09.942Z</time></trkpt><trkpt lat="44.40056" lon="8.50679"><ele>509.99999999999994</ele><time>2026-03-26T10:18:10.941Z</time></trkpt><trkpt lat="44.400555" lon="8.506635"><ele>510.99999999999994</ele><time>2026-03-26T10:18:11.942Z</time></trkpt><trkpt lat="44.4005517" lon="8.5064933"><ele>512.0</ele><time>2026-03-26T10:18:12.941Z</time></trkpt><trkpt lat="44.4005417" lon="8.5063667"><ele>513.0</ele><time>2026-03-26T10:18:13.941Z</time></trkpt><trkpt lat="44.40051" lon="8.506255"><ele>512.1999999999999</ele><time>2026-03-26T10:18:14.942Z</time></trkpt><trkpt lat="44.4004567" lon="8.5061467"><ele>511.4</ele><time>2026-03-26T10:18:15.941Z</time></trkpt><trkpt lat="44.4003933" lon="8.5060417"><ele>510.59999999999997</ele><time>2026-03-26T10:18:16.941Z</time></trkpt><trkpt lat="44.400325" lon="8.5059267"><ele>509.79999999999995</ele><time>2026-03-26T10:18:17.942Z</time></trkpt><trkpt lat="44.400265" lon="8.5058133"><ele>509.0</ele><time>2026-03-26T10:18:18.941Z</time></trkpt><trkpt lat="44.40022" lon="8.5057033"><ele>509.0</ele><time>2026-03-26T10:18:19.941Z</time></trkpt><trkpt lat="44.4001883" lon="8.5056017"><ele>509.0</ele><time>2026-03-26T10:18:20.941Z</time></trkpt><trkpt lat="44.4001717" lon="8.50543"><ele>509.0</ele><time>2026-03-26T10:18:22.942Z</time></trkpt><trkpt lat="44.4001967" lon="8.5053317"><ele>509.0</ele><time>2026-03-26T10:18:23.941Z</time></trkpt><trkpt lat="44.4002533" lon="8.5052133"><ele>509.0</ele><time>2026-03-26T10:18:24.942Z</time></trkpt><trkpt lat="44.4003217" lon="8.5050983"><ele>508.6</ele><time>2026-03-26T10:18:25.941Z</time></trkpt><trkpt lat="44.40038" lon="8.5050033"><ele>508.2</ele><time>2026-03-26T10:18:26.941Z</time></trkpt><trkpt lat="44.4004417" lon="8.5049"><ele>507.80000000000007</ele><time>2026-03-26T10:18:27.942Z</time></trkpt><trkpt lat="44.400495" lon="8.504785"><ele>507.40000000000003</ele><time>2026-03-26T10:18:28.942Z</time></trkpt><trkpt lat="44.4005367" lon="8.504685"><ele>507.0</ele><time>2026-03-26T10:18:29.942Z</time></trkpt><trkpt lat="44.400575" lon="8.5045733"><ele>512.0</ele><time>2026-03-26T10:18:30.942Z</time></trkpt><trkpt lat="44.400605" lon="8.5044283"><ele>517.0</ele><time>2026-03-26T10:18:31.942Z</time></trkpt><trkpt lat="44.4006217" lon="8.504265"><ele>522.0</ele><time>2026-03-26T10:18:32.942Z</time></trkpt><trkpt lat="44.4006483" lon="8.50411"><ele>527.0</ele><time>2026-03-26T10:18:33.941Z</time></trkpt><trkpt lat="44.4006567" lon="8.5039767"><ele>532.0</ele><time>2026-03-26T10:18:34.942Z</time></trkpt><trkpt lat="44.4006567" lon="8.5038617"><ele>532.0</ele><time>2026-03-26T10:18:35.941Z</time></trkpt><trkpt lat="44.4006733" lon="8.5037667"><ele>532.0</ele><time>2026-03-26T10:18:36.941Z</time></trkpt><trkpt lat="44.400725" lon="8.5036233"><ele>532.0</ele><time>2026-03-26T10:18:38.941Z</time></trkpt><trkpt lat="44.40078" lon="8.5035783"><ele>532.0</ele><time>2026-03-26T10:18:39.941Z</time></trkpt><trkpt lat="44.4008583" lon="8.5035383"><ele>532.0</ele><time>2026-03-26T10:18:40.942Z</time></trkpt><trkpt lat="44.4009617" lon="8.5035033"><ele>532.0</ele><time>2026-03-26T10:18:41.942Z</time></trkpt><trkpt lat="44.401065" lon="8.5034433"><ele>530.2</ele><time>2026-03-26T10:18:42.942Z</time></trkpt><trkpt lat="44.4011667" lon="8.5033783"><ele>528.4000000000001</ele><time>2026-03-26T10:18:43.941Z</time></trkpt><trkpt lat="44.4012517" lon="8.5033033"><ele>526.5999999999999</ele><time>2026-03-26T10:18:44.941Z</time></trkpt><trkpt lat="44.4013267" lon="8.5032083"><ele>524.8</ele><time>2026-03-26T10:18:45.941Z</time></trkpt><trkpt lat="44.401375" lon="8.5031"><ele>523.0</ele><time>2026-03-26T10:18:46.942Z</time></trkpt><trkpt lat="44.401415" lon="8.50299"><ele>526.8</ele><time>2026-03-26T10:18:47.942Z</time></trkpt><trkpt lat="44.4014517" lon="8.5028667"><ele>530.5999999999999</ele><time>2026-03-26T10:18:48.941Z</time></trkpt><trkpt lat="44.4014833" lon="8.50274"><ele>534.4000000000001</ele><time>2026-03-26T10:18:49.941Z</time></trkpt><trkpt lat="44.4014967" lon="8.5026067"><ele>538.2</ele><time>2026-03-26T10:18:50.941Z</time></trkpt><trkpt lat="44.4014967" lon="8.502455"><ele>542.0</ele><time>2026-03-26T10:18:51.941Z</time></trkpt><trkpt lat="44.401495" lon="8.5023167"><ele>542.0</ele><time>2026-03-26T10:18:52.941Z</time></trkpt><trkpt lat="44.40151" lon="8.50218"><ele>542.0</ele><time>2026-03-26T10:18:53.942Z</time></trkpt><trkpt lat="44.4015583" lon="8.5020433"><ele>542.0</ele><time>2026-03-26T10:18:54.942Z</time></trkpt><trkpt lat="44.401635" lon="8.5019317"><ele>542.0</ele><time>2026-03-26T10:18:55.941Z</time></trkpt><trkpt lat="44.4017233" lon="8.5018433"><ele>542.0</ele><time>2026-03-26T10:18:56.941Z</time></trkpt><trkpt lat="44.4018333" lon="8.5017983"><ele>543.0</ele><time>2026-03-26T10:18:57.942Z</time></trkpt><trkpt lat="44.4019617" lon="8.5017617"><ele>544.0</ele><time>2026-03-26T10:18:58.941Z</time></trkpt><trkpt lat="44.4020833" lon="8.5017217"><ele>545.0</ele><time>2026-03-26T10:18:59.941Z</time></trkpt><trkpt lat="44.4022083" lon="8.5016683"><ele>546.0</ele><time>2026-03-26T10:19:00.941Z</time></trkpt><trkpt lat="44.4022917" lon="8.5015933"><ele>546.0</ele><time>2026-03-26T10:19:01.941Z</time></trkpt><trkpt lat="44.4023617" lon="8.501495"><ele>546.0</ele><time>2026-03-26T10:19:02.941Z</time></trkpt><trkpt lat="44.4024183" lon="8.501375"><ele>546.0</ele><time>2026-03-26T10:19:03.941Z</time></trkpt><trkpt lat="44.4024833" lon="8.5012917"><ele>546.0</ele><time>2026-03-26T10:19:04.942Z</time></trkpt><trkpt lat="44.4025467" lon="8.5012317"><ele>546.0</ele><time>2026-03-26T10:19:05.941Z</time></trkpt><trkpt lat="44.40262" lon="8.501205"><ele>546.0</ele><time>2026-03-26T10:19:06.941Z</time></trkpt><trkpt lat="44.4027033" lon="8.50121"><ele>544.6</ele><time>2026-03-26T10:19:07.941Z</time></trkpt><trkpt lat="44.4027983" lon="8.5012317"><ele>543.2</ele><time>2026-03-26T10:19:08.942Z</time></trkpt><trkpt lat="44.4029" lon="8.501235"><ele>541.8</ele><time>2026-03-26T10:19:09.942Z</time></trkpt><trkpt lat="44.40298" lon="8.5011883"><ele>540.4</ele><time>2026-03-26T10:19:10.942Z</time></trkpt><trkpt lat="44.4030683" lon="8.50111"><ele>539.0</ele><time>2026-03-26T10:19:11.942Z</time></trkpt><trkpt lat="44.40315" lon="8.5009917"><ele>539.0</ele><time>2026-03-26T10:19:12.941Z</time></trkpt><trkpt lat="44.4032367" lon="8.5008617"><ele>539.0</ele><time>2026-03-26T10:19:13.942Z</time></trkpt><trkpt lat="44.40333" lon="8.5007233"><ele>539.0</ele><time>2026-03-26T10:19:14.941Z</time></trkpt><trkpt lat="44.403415" lon="8.5006167"><ele>539.0</ele><time>2026-03-26T10:19:15.941Z</time></trkpt><trkpt lat="44.403485" lon="8.5005067"><ele>536.0</ele><time>2026-03-26T10:19:16.941Z</time></trkpt><trkpt lat="44.4035417" lon="8.5004033"><ele>533.0</ele><time>2026-03-26T10:19:17.942Z</time></trkpt><trkpt lat="44.4035817" lon="8.50029"><ele>530.0</ele><time>2026-03-26T10:19:18.942Z</time></trkpt><trkpt lat="44.4036" lon="8.5001617"><ele>527.0</ele><time>2026-03-26T10:19:19.941Z</time></trkpt><trkpt lat="44.4036217" lon="8.500065"><ele>524.0</ele><time>2026-03-26T10:19:20.941Z</time></trkpt><trkpt lat="44.403665" lon="8.4999817"><ele>521.0</ele><time>2026-03-26T10:19:21.942Z</time></trkpt><trkpt lat="44.40372" lon="8.49992"><ele>521.0</ele><time>2026-03-26T10:19:22.941Z</time></trkpt><trkpt lat="44.403805" lon="8.49989"><ele>521.0</ele><time>2026-03-26T10:19:23.941Z</time></trkpt><trkpt lat="44.40391" lon="8.4998783"><ele>521.0</ele><time>2026-03-26T10:19:24.942Z</time></trkpt><trkpt lat="44.4040333" lon="8.4998767"><ele>521.0</ele><time>2026-03-26T10:19:25.941Z</time></trkpt><trkpt lat="44.40416" lon="8.4998983"><ele>521.0</ele><time>2026-03-26T10:19:26.941Z</time></trkpt><trkpt lat="44.40427" lon="8.4998983"><ele>523.8333333333333</ele><time>2026-03-26T10:19:27.941Z</time></trkpt><trkpt lat="44.404365" lon="8.4999133"><ele>526.6666666666666</ele><time>2026-03-26T10:19:28.942Z</time></trkpt><trkpt lat="44.40444" lon="8.49994"><ele>529.5</ele><time>2026-03-26T10:19:29.942Z</time></trkpt><trkpt lat="44.40452" lon="8.499955"><ele>532.3333333333334</ele><time>2026-03-26T10:19:30.942Z</time></trkpt><trkpt lat="44.40459" lon="8.4999617"><ele>535.1666666666667</ele><time>2026-03-26T10:19:31.941Z</time></trkpt><trkpt lat="44.4046683" lon="8.4998633"><ele>538.0</ele><time>2026-03-26T10:19:33.941Z</time></trkpt><trkpt lat="44.40468" lon="8.4996783"><ele>539.0</ele><time>2026-03-26T10:19:35.942Z</time></trkpt><trkpt lat="44.4046633" lon="8.49954"><ele>540.0</ele><time>2026-03-26T10:19:36.942Z</time></trkpt><trkpt lat="44.4046567" lon="8.4993867"><ele>541.0</ele><time>2026-03-26T10:19:37.942Z</time></trkpt><trkpt lat="44.4046767" lon="8.49923"><ele>542.0</ele><time>2026-03-26T10:19:38.942Z</time></trkpt><trkpt lat="44.4047083" lon="8.499085"><ele>543.0</ele><time>2026-03-26T10:19:39.941Z</time></trkpt><trkpt lat="44.4047433" lon="8.4989633"><ele>543.0</ele><time>2026-03-26T10:19:40.941Z</time></trkpt><trkpt lat="44.4048083" lon="8.498855"><ele>543.0</ele><time>2026-03-26T10:19:41.941Z</time></trkpt><trkpt lat="44.4048817" lon="8.49876"><ele>543.0</ele><time>2026-03-26T10:19:42.942Z</time></trkpt><trkpt lat="44.404965" lon="8.4987033"><ele>543.0</ele><time>2026-03-26T10:19:43.942Z</time></trkpt><trkpt lat="44.405045" lon="8.4986483"><ele>543.0</ele><time>2026-03-26T10:19:44.942Z</time></trkpt><trkpt lat="44.4051433" lon="8.4986133"><ele>540.75</ele><time>2026-03-26T10:19:45.942Z</time></trkpt><trkpt lat="44.4052567" lon="8.49857"><ele>538.5</ele><time>2026-03-26T10:19:46.942Z</time></trkpt><trkpt lat="44.4053833" lon="8.4985117"><ele>536.25</ele><time>2026-03-26T10:19:47.941Z</time></trkpt><trkpt lat="44.4055033" lon="8.4984683"><ele>534.0</ele><time>2026-03-26T10:19:48.941Z</time></trkpt><trkpt lat="44.4056133" lon="8.498405"><ele>534.0</ele><time>2026-03-26T10:19:49.941Z</time></trkpt><trkpt lat="44.4057117" lon="8.4983483"><ele>534.0</ele><time>2026-03-26T10:19:50.942Z</time></trkpt><trkpt lat="44.4057767" lon="8.4983283"><ele>534.0</ele><time>2026-03-26T10:19:51.941Z</time></trkpt><trkpt lat="44.40584" lon="8.498295"><ele>534.0</ele><time>2026-03-26T10:19:55.941Z</time></trkpt><trkpt lat="44.40591" lon="8.4982833"><ele>534.0</ele><time>2026-03-26T10:20:04.942Z</time></trkpt><trkpt lat="44.4059067" lon="8.4983933"><ele>534.0</ele><time>2026-03-26T10:20:09.941Z</time></trkpt><trkpt lat="44.405875" lon="8.4985033"><ele>534.0</ele><time>2026-03-26T10:20:12.942Z</time></trkpt><trkpt lat="44.4058467" lon="8.4986517"><ele>534.0</ele><time>2026-03-26T10:20:14.941Z</time></trkpt><trkpt lat="44.4057967" lon="8.4987833"><ele>534.0</ele><time>2026-03-26T10:20:16.942Z</time></trkpt><trkpt lat="44.4057067" lon="8.49889"><ele>534.0</ele><time>2026-03-26T10:20:18.941Z</time></trkpt><trkpt lat="44.405615" lon="8.4989217"><ele>534.0</ele><time>2026-03-26T10:20:20.942Z</time></trkpt><trkpt lat="44.405575" lon="8.4989933"><ele>536.6666666666666</ele><time>2026-03-26T10:20:22.941Z</time></trkpt><trkpt lat="44.405585" lon="8.4991"><ele>539.3333333333334</ele><time>2026-03-26T10:20:24.942Z</time></trkpt><trkpt lat="44.405625" lon="8.4991783"><ele>542.0</ele><time>2026-03-26T10:20:26.941Z</time></trkpt><trkpt lat="44.405645" lon="8.4992633"><ele>544.6666666666667</ele><time>2026-03-26T10:20:29.942Z</time></trkpt><trkpt lat="44.4056733" lon="8.499395"><ele>547.3333333333334</ele><time>2026-03-26T10:20:32.942Z</time></trkpt><trkpt lat="44.4056967" lon="8.4995233"><ele>550.0</ele><time>2026-03-26T10:20:34.941Z</time></trkpt><trkpt lat="44.4057217" lon="8.4996933"><ele>554.6</ele><time>2026-03-26T10:20:36.942Z</time></trkpt><trkpt lat="44.4057633" lon="8.4998517"><ele>559.2</ele><time>2026-03-26T10:20:38.942Z</time></trkpt><trkpt lat="44.4057833" lon="8.4999417"><ele>563.8</ele><time>2026-03-26T10:20:39.941Z</time></trkpt><trkpt lat="44.4058033" lon="8.5001033"><ele>568.4</ele><time>2026-03-26T10:20:41.941Z</time></trkpt><trkpt lat="44.4058233" lon="8.5002333"><ele>573.0</ele><time>2026-03-26T10:20:43.941Z</time></trkpt><trkpt lat="44.4058517" lon="8.5003533"><ele>575.4</ele><time>2026-03-26T10:20:45.941Z</time></trkpt><trkpt lat="44.4059117" lon="8.5005067"><ele>577.8</ele><time>2026-03-26T10:20:47.942Z</time></trkpt><trkpt lat="44.4059367" lon="8.50059"><ele>580.2</ele><time>2026-03-26T10:20:48.942Z</time></trkpt><trkpt lat="44.40597" lon="8.500755"><ele>582.6</ele><time>2026-03-26T10:20:50.942Z</time></trkpt><trkpt lat="44.4059867" lon="8.5008417"><ele>585.0</ele><time>2026-03-26T10:20:51.942Z</time></trkpt><trkpt lat="44.406015" lon="8.5010217"><ele>585.0</ele><time>2026-03-26T10:20:53.941Z</time></trkpt><trkpt lat="44.406045" lon="8.5011367"><ele>585.0</ele><time>2026-03-26T10:20:55.942Z</time></trkpt><trkpt lat="44.40612" lon="8.501195"><ele>585.0</ele><time>2026-03-26T10:20:57.942Z</time></trkpt><trkpt lat="44.406215" lon="8.501245"><ele>585.0</ele><time>2026-03-26T10:20:59.942Z</time></trkpt><trkpt lat="44.4062667" lon="8.5013283"><ele>585.0</ele><time>2026-03-26T10:21:02.941Z</time></trkpt><trkpt lat="44.4062933" lon="8.5014167"><ele>585.0</ele><time>2026-03-26T10:21:04.941Z</time></trkpt><trkpt lat="44.4063467" lon="8.5014883"><ele>587.3333333333334</ele><time>2026-03-26T10:21:06.942Z</time></trkpt><trkpt lat="44.4064083" lon="8.5016133"><ele>589.6666666666666</ele><time>2026-03-26T10:21:08.941Z</time></trkpt><trkpt lat="44.4064333" lon="8.5017017"><ele>592.0</ele><time>2026-03-26T10:21:09.941Z</time></trkpt><trkpt lat="44.4064567" lon="8.501795"><ele>594.3333333333333</ele><time>2026-03-26T10:21:10.942Z</time></trkpt><trkpt lat="44.40648" lon="8.501885"><ele>596.6666666666666</ele><time>2026-03-26T10:21:11.942Z</time></trkpt><trkpt lat="44.4065217" lon="8.5019967"><ele>599.0</ele><time>2026-03-26T10:21:13.941Z</time></trkpt><trkpt lat="44.406545" lon="8.5021217"><ele>601.0</ele><time>2026-03-26T10:21:20.941Z</time></trkpt><trkpt lat="44.4065433" lon="8.5022517"><ele>603.0</ele><time>2026-03-26T10:21:22.941Z</time></trkpt><trkpt lat="44.4065317" lon="8.50234"><ele>605.0</ele><time>2026-03-26T10:21:23.941Z</time></trkpt><trkpt lat="44.4065283" lon="8.50247"><ele>607.0</ele><time>2026-03-26T10:21:25.941Z</time></trkpt><trkpt lat="44.4066217" lon="8.5024183"><ele>609.0</ele><time>2026-03-26T10:21:29.941Z</time></trkpt><trkpt lat="44.406665" lon="8.50235"><ele>611.0</ele><time>2026-03-26T10:21:30.941Z</time></trkpt><trkpt lat="44.406715" lon="8.50229"><ele>611.0</ele><time>2026-03-26T10:21:31.942Z</time></trkpt><trkpt lat="44.4068117" lon="8.50222"><ele>611.0</ele><time>2026-03-26T10:21:33.942Z</time></trkpt><trkpt lat="44.4069233" lon="8.5021933"><ele>611.0</ele><time>2026-03-26T10:21:35.941Z</time></trkpt><trkpt lat="44.4069967" lon="8.50219"><ele>611.0</ele><time>2026-03-26T10:21:36.942Z</time></trkpt><trkpt lat="44.4070633" lon="8.50218"><ele>611.0</ele><time>2026-03-26T10:21:37.942Z</time></trkpt><trkpt lat="44.4071817" lon="8.502185"><ele>610.1428571428572</ele><time>2026-03-26T10:21:39.942Z</time></trkpt><trkpt lat="44.4072533" lon="8.5021767"><ele>609.2857142857143</ele><time>2026-03-26T10:21:40.942Z</time></trkpt><trkpt lat="44.4073267" lon="8.502165"><ele>608.4285714285714</ele><time>2026-03-26T10:21:41.942Z</time></trkpt><trkpt lat="44.407395" lon="8.50215"><ele>607.5714285714287</ele><time>2026-03-26T10:21:42.942Z</time></trkpt><trkpt lat="44.407465" lon="8.5021483"><ele>606.7142857142858</ele><time>2026-03-26T10:21:43.942Z</time></trkpt><trkpt lat="44.4075417" lon="8.5021533"><ele>605.8571428571429</ele><time>2026-03-26T10:21:44.941Z</time></trkpt><trkpt lat="44.4076167" lon="8.5021633"><ele>605.0</ele><time>2026-03-26T10:21:45.942Z</time></trkpt><trkpt lat="44.4077" lon="8.5021533"><ele>605.0</ele><time>2026-03-26T10:21:46.942Z</time></trkpt><trkpt lat="44.4077883" lon="8.5021333"><ele>605.0</ele><time>2026-03-26T10:21:47.941Z</time></trkpt><trkpt lat="44.4078767" lon="8.5021067"><ele>605.0</ele><time>2026-03-26T10:21:48.941Z</time></trkpt><trkpt lat="44.4079633" lon="8.5020733"><ele>605.0</ele><time>2026-03-26T10:21:49.941Z</time></trkpt><trkpt lat="44.4080483" lon="8.5020533"><ele>605.0</ele><time>2026-03-26T10:21:50.942Z</time></trkpt><trkpt lat="44.4081317" lon="8.502025"><ele>605.0</ele><time>2026-03-26T10:21:51.941Z</time></trkpt><trkpt lat="44.4082167" lon="8.50199"><ele>603.4</ele><time>2026-03-26T10:21:52.942Z</time></trkpt><trkpt lat="44.408305" lon="8.5019367"><ele>601.8</ele><time>2026-03-26T10:21:53.941Z</time></trkpt><trkpt lat="44.40839" lon="8.501855"><ele>600.2</ele><time>2026-03-26T10:21:54.941Z</time></trkpt><trkpt lat="44.4084533" lon="8.50178"><ele>598.6</ele><time>2026-03-26T10:21:55.942Z</time></trkpt><trkpt lat="44.408515" lon="8.5016633"><ele>597.0</ele><time>2026-03-26T10:21:57.942Z</time></trkpt><trkpt lat="44.4085567" lon="8.501575"><ele>597.0</ele><time>2026-03-26T10:21:58.942Z</time></trkpt><trkpt lat="44.4086117" lon="8.501475"><ele>597.0</ele><time>2026-03-26T10:21:59.941Z</time></trkpt><trkpt lat="44.408665" lon="8.50138"><ele>597.0</ele><time>2026-03-26T10:22:00.942Z</time></trkpt><trkpt lat="44.4087167" lon="8.5013067"><ele>597.0</ele><time>2026-03-26T10:22:01.942Z</time></trkpt><trkpt lat="44.40876" lon="8.5012333"><ele>597.0</ele><time>2026-03-26T10:22:02.941Z</time></trkpt><trkpt lat="44.40882" lon="8.5011033"><ele>597.0</ele><time>2026-03-26T10:22:04.942Z</time></trkpt><trkpt lat="44.4088633" lon="8.50096"><ele>598.5</ele><time>2026-03-26T10:22:06.941Z</time></trkpt><trkpt lat="44.4089" lon="8.50087"><ele>600.0</ele><time>2026-03-26T10:22:07.941Z</time></trkpt><trkpt lat="44.4089267" lon="8.500785"><ele>601.5</ele><time>2026-03-26T10:22:08.941Z</time></trkpt><trkpt lat="44.4089883" lon="8.5006317"><ele>603.0</ele><time>2026-03-26T10:22:10.941Z</time></trkpt><trkpt lat="44.4090233" lon="8.5005467"><ele>604.5</ele><time>2026-03-26T10:22:11.941Z</time></trkpt><trkpt lat="44.4090617" lon="8.5004567"><ele>606.0</ele><time>2026-03-26T10:22:12.942Z</time></trkpt><trkpt lat="44.4091083" lon="8.5003683"><ele>602.3333333333334</ele><time>2026-03-26T10:22:13.942Z</time></trkpt><trkpt lat="44.4091583" lon="8.5002833"><ele>598.6666666666666</ele><time>2026-03-26T10:22:14.941Z</time></trkpt><trkpt lat="44.40921" lon="8.5002267"><ele>595.0</ele><time>2026-03-26T10:22:15.942Z</time></trkpt><trkpt lat="44.4093133" lon="8.5001417"><ele>591.3333333333333</ele><time>2026-03-26T10:22:17.942Z</time></trkpt><trkpt lat="44.4093717" lon="8.500095"><ele>587.6666666666666</ele><time>2026-03-26T10:22:18.942Z</time></trkpt><trkpt lat="44.4094317" lon="8.5000333"><ele>584.0</ele><time>2026-03-26T10:22:19.941Z</time></trkpt><trkpt lat="44.4094833" lon="8.499965"><ele>584.0</ele><time>2026-03-26T10:22:20.942Z</time></trkpt><trkpt lat="44.4095683" lon="8.4998567"><ele>584.0</ele><time>2026-03-26T10:22:22.941Z</time></trkpt><trkpt lat="44.40968" lon="8.4998017"><ele>584.0</ele><time>2026-03-26T10:22:24.941Z</time></trkpt><trkpt lat="44.4097983" lon="8.4997567"><ele>584.0</ele><time>2026-03-26T10:22:26.941Z</time></trkpt><trkpt lat="44.4098867" lon="8.4997"><ele>585.3333333333333</ele><time>2026-03-26T10:22:28.942Z</time></trkpt><trkpt lat="44.4099733" lon="8.499655"><ele>586.6666666666666</ele><time>2026-03-26T10:22:30.941Z</time></trkpt><trkpt lat="44.41008" lon="8.4996267"><ele>588.0</ele><time>2026-03-26T10:22:32.942Z</time></trkpt><trkpt lat="44.4101467" lon="8.4996033"><ele>589.3333333333334</ele><time>2026-03-26T10:22:33.941Z</time></trkpt><trkpt lat="44.410215" lon="8.4995717"><ele>590.6666666666667</ele><time>2026-03-26T10:22:34.941Z</time></trkpt><trkpt lat="44.410275" lon="8.499545"><ele>592.0</ele><time>2026-03-26T10:22:35.941Z</time></trkpt><trkpt lat="44.4104117" lon="8.4995067"><ele>588.8000000000001</ele><time>2026-03-26T10:22:37.941Z</time></trkpt><trkpt lat="44.4104917" lon="8.4994817"><ele>585.6</ele><time>2026-03-26T10:22:38.941Z</time></trkpt><trkpt lat="44.4105633" lon="8.49946"><ele>582.4000000000001</ele><time>2026-03-26T10:22:39.941Z</time></trkpt><trkpt lat="44.4106767" lon="8.499415"><ele>579.2</ele><time>2026-03-26T10:22:41.942Z</time></trkpt><trkpt lat="44.4107933" lon="8.49932"><ele>576.0</ele><time>2026-03-26T10:22:43.941Z</time></trkpt><trkpt lat="44.410855" lon="8.4992917"><ele>576.0</ele><time>2026-03-26T10:22:44.941Z</time></trkpt><trkpt lat="44.4109417" lon="8.4992333"><ele>576.0</ele><time>2026-03-26T10:22:46.941Z</time></trkpt><trkpt lat="44.4110333" lon="8.4991617"><ele>576.0</ele><time>2026-03-26T10:22:48.942Z</time></trkpt><trkpt lat="44.4111417" lon="8.499045"><ele>576.0</ele><time>2026-03-26T10:22:50.942Z</time></trkpt><trkpt lat="44.411205" lon="8.4989833"><ele>576.0</ele><time>2026-03-26T10:22:51.941Z</time></trkpt><trkpt lat="44.411275" lon="8.4989067"><ele>575.1666666666666</ele><time>2026-03-26T10:22:52.942Z</time></trkpt><trkpt lat="44.4113317" lon="8.498825"><ele>574.3333333333334</ele><time>2026-03-26T10:22:53.941Z</time></trkpt><trkpt lat="44.4113917" lon="8.4987267"><ele>573.5</ele><time>2026-03-26T10:22:55.941Z</time></trkpt><trkpt lat="44.41143" lon="8.4986567"><ele>572.6666666666667</ele><time>2026-03-26T10:22:57.942Z</time></trkpt><trkpt lat="44.4114817" lon="8.4985533"><ele>571.8333333333334</ele><time>2026-03-26T10:23:00.941Z</time></trkpt><trkpt lat="44.4115283" lon="8.4984867"><ele>571.0</ele><time>2026-03-26T10:23:02.942Z</time></trkpt><trkpt lat="44.4116067" lon="8.4984117"><ele>571.0</ele><time>2026-03-26T10:23:04.942Z</time></trkpt><trkpt lat="44.4116867" lon="8.4983067"><ele>571.0</ele><time>2026-03-26T10:23:06.941Z</time></trkpt><trkpt lat="44.41174" lon="8.4981983"><ele>571.0</ele><time>2026-03-26T10:23:08.941Z</time></trkpt><trkpt lat="44.4117933" lon="8.49814"><ele>571.0</ele><time>2026-03-26T10:23:10.941Z</time></trkpt><trkpt lat="44.4118733" lon="8.49808"><ele>571.0</ele><time>2026-03-26T10:23:12.942Z</time></trkpt><trkpt lat="44.4119633" lon="8.49797"><ele>568.6</ele><time>2026-03-26T10:23:14.941Z</time></trkpt><trkpt lat="44.4120383" lon="8.49787"><ele>566.2</ele><time>2026-03-26T10:23:16.941Z</time></trkpt><trkpt lat="44.41212" lon="8.4977817"><ele>563.8</ele><time>2026-03-26T10:23:18.942Z</time></trkpt><trkpt lat="44.4122183" lon="8.4976983"><ele>561.4</ele><time>2026-03-26T10:23:20.941Z</time></trkpt><trkpt lat="44.4122633" lon="8.4976333"><ele>559.0</ele><time>2026-03-26T10:23:21.941Z</time></trkpt><trkpt lat="44.4123183" lon="8.4975833"><ele>559.0</ele><time>2026-03-26T10:23:22.942Z</time></trkpt><trkpt lat="44.4123867" lon="8.4974717"><ele>559.0</ele><time>2026-03-26T10:23:24.941Z</time></trkpt><trkpt lat="44.412485" lon="8.497345"><ele>559.0</ele><time>2026-03-26T10:23:26.942Z</time></trkpt><trkpt lat="44.4125383" lon="8.4972683"><ele>559.0</ele><time>2026-03-26T10:23:27.942Z</time></trkpt><trkpt lat="44.4125983" lon="8.4972183"><ele>559.0</ele><time>2026-03-26T10:23:28.942Z</time></trkpt><trkpt lat="44.41268" lon="8.4971167"><ele>556.6666666666667</ele><time>2026-03-26T10:23:30.942Z</time></trkpt><trkpt lat="44.4127367" lon="8.4970133"><ele>554.3333333333334</ele><time>2026-03-26T10:23:32.941Z</time></trkpt><trkpt lat="44.412735" lon="8.4968967"><ele>552.0</ele><time>2026-03-26T10:23:34.941Z</time></trkpt><trkpt lat="44.4127533" lon="8.4968067"><ele>549.6666666666666</ele><time>2026-03-26T10:23:36.942Z</time></trkpt><trkpt lat="44.412825" lon="8.4967383"><ele>547.3333333333333</ele><time>2026-03-26T10:23:38.941Z</time></trkpt><trkpt lat="44.4128383" lon="8.4966067"><ele>545.0</ele><time>2026-03-26T10:23:40.941Z</time></trkpt><trkpt lat="44.41284" lon="8.49649"><ele>545.0</ele><time>2026-03-26T10:23:41.942Z</time></trkpt><trkpt lat="44.412835" lon="8.4963517"><ele>545.0</ele><time>2026-03-26T10:23:42.941Z</time></trkpt><trkpt lat="44.4128367" lon="8.496215"><ele>545.0</ele><time>2026-03-26T10:23:43.941Z</time></trkpt><trkpt lat="44.4128483" lon="8.4960767"><ele>545.0</ele><time>2026-03-26T10:23:44.941Z</time></trkpt><trkpt lat="44.4128483" lon="8.4959633"><ele>545.0</ele><time>2026-03-26T10:23:45.942Z</time></trkpt><trkpt lat="44.4128383" lon="8.4958717"><ele>545.0</ele><time>2026-03-26T10:23:46.942Z</time></trkpt><trkpt lat="44.4128617" lon="8.495705"><ele>545.8</ele><time>2026-03-26T10:23:48.941Z</time></trkpt><trkpt lat="44.4129367" lon="8.4955583"><ele>546.6</ele><time>2026-03-26T10:23:50.942Z</time></trkpt><trkpt lat="44.4129917" lon="8.4954933"><ele>547.4</ele><time>2026-03-26T10:23:51.941Z</time></trkpt><trkpt lat="44.4130667" lon="8.49543"><ele>548.2</ele><time>2026-03-26T10:23:52.941Z</time></trkpt><trkpt lat="44.4131683" lon="8.4953617"><ele>549.0</ele><time>2026-03-26T10:23:53.941Z</time></trkpt><trkpt lat="44.41326" lon="8.495305"><ele>546.2</ele><time>2026-03-26T10:23:54.941Z</time></trkpt><trkpt lat="44.4133333" lon="8.49526"><ele>543.4</ele><time>2026-03-26T10:23:55.941Z</time></trkpt><trkpt lat="44.4134383" lon="8.4951683"><ele>540.6</ele><time>2026-03-26T10:23:57.941Z</time></trkpt><trkpt lat="44.41355" lon="8.4950983"><ele>537.8</ele><time>2026-03-26T10:23:59.942Z</time></trkpt><trkpt lat="44.413615" lon="8.495085"><ele>535.0</ele><time>2026-03-26T10:24:00.942Z</time></trkpt><trkpt lat="44.4136817" lon="8.4950883"><ele>535.0</ele><time>2026-03-26T10:24:01.942Z</time></trkpt><trkpt lat="44.41379" lon="8.495135"><ele>535.0</ele><time>2026-03-26T10:24:03.942Z</time></trkpt><trkpt lat="44.4138483" lon="8.4951867"><ele>535.0</ele><time>2026-03-26T10:24:04.942Z</time></trkpt><trkpt lat="44.41392" lon="8.4952533"><ele>535.0</ele><time>2026-03-26T10:24:05.941Z</time></trkpt><trkpt lat="44.414" lon="8.4953217"><ele>535.0</ele><time>2026-03-26T10:24:06.942Z</time></trkpt><trkpt lat="44.4140983" lon="8.4953917"><ele>534.6</ele><time>2026-03-26T10:24:07.942Z</time></trkpt><trkpt lat="44.4141917" lon="8.4954533"><ele>534.2</ele><time>2026-03-26T10:24:08.941Z</time></trkpt><trkpt lat="44.4142783" lon="8.495495"><ele>533.8</ele><time>2026-03-26T10:24:09.942Z</time></trkpt><trkpt lat="44.4143567" lon="8.4954917"><ele>533.4</ele><time>2026-03-26T10:24:10.941Z</time></trkpt><trkpt lat="44.4144383" lon="8.49545"><ele>533.0</ele><time>2026-03-26T10:24:11.942Z</time></trkpt><trkpt lat="44.414525" lon="8.4953867"><ele>533.0</ele><time>2026-03-26T10:24:12.942Z</time></trkpt><trkpt lat="44.4146033" lon="8.4953533"><ele>533.0</ele><time>2026-03-26T10:24:13.942Z</time></trkpt><trkpt lat="44.4146783" lon="8.495335"><ele>533.0</ele><time>2026-03-26T10:24:14.941Z</time></trkpt><trkpt lat="44.4147517" lon="8.49534"><ele>533.0</ele><time>2026-03-26T10:24:15.941Z</time></trkpt><trkpt lat="44.4148217" lon="8.4953817"><ele>533.0</ele><time>2026-03-26T10:24:16.941Z</time></trkpt><trkpt lat="44.4148883" lon="8.495455"><ele>533.0</ele><time>2026-03-26T10:24:17.942Z</time></trkpt><trkpt lat="44.4149483" lon="8.4955467"><ele>533.8333333333333</ele><time>2026-03-26T10:24:18.942Z</time></trkpt><trkpt lat="44.414995" lon="8.49565"><ele>534.6666666666666</ele><time>2026-03-26T10:24:19.941Z</time></trkpt><trkpt lat="44.415035" lon="8.4957467"><ele>535.5</ele><time>2026-03-26T10:24:20.942Z</time></trkpt><trkpt lat="44.415085" lon="8.4958317"><ele>536.3333333333334</ele><time>2026-03-26T10:24:21.942Z</time></trkpt><trkpt lat="44.41514" lon="8.4958883"><ele>537.1666666666667</ele><time>2026-03-26T10:24:22.941Z</time></trkpt><trkpt lat="44.415245" lon="8.4959167"><ele>538.0</ele><time>2026-03-26T10:24:24.941Z</time></trkpt><trkpt lat="44.4153217" lon="8.49589"><ele>538.0</ele><time>2026-03-26T10:24:25.942Z</time></trkpt><trkpt lat="44.4154133" lon="8.49585"><ele>538.0</ele><time>2026-03-26T10:24:26.942Z</time></trkpt><trkpt lat="44.41551" lon="8.495805"><ele>538.0</ele><time>2026-03-26T10:24:27.941Z</time></trkpt><trkpt lat="44.4156067" lon="8.495775"><ele>538.0</ele><time>2026-03-26T10:24:28.941Z</time></trkpt><trkpt lat="44.4156983" lon="8.4957467"><ele>538.0</ele><time>2026-03-26T10:24:29.942Z</time></trkpt><trkpt lat="44.4157783" lon="8.49573"><ele>537.6666666666667</ele><time>2026-03-26T10:24:30.941Z</time></trkpt><trkpt lat="44.4158533" lon="8.49571"><ele>537.3333333333334</ele><time>2026-03-26T10:24:31.941Z</time></trkpt><trkpt lat="44.4159133" lon="8.49565"><ele>537.0</ele><time>2026-03-26T10:24:32.941Z</time></trkpt><trkpt lat="44.4159833" lon="8.49557"><ele>536.6666666666666</ele><time>2026-03-26T10:24:33.941Z</time></trkpt><trkpt lat="44.41605" lon="8.4954667"><ele>536.3333333333333</ele><time>2026-03-26T10:24:34.942Z</time></trkpt><trkpt lat="44.41612" lon="8.49535"><ele>536.0</ele><time>2026-03-26T10:24:35.942Z</time></trkpt><trkpt lat="44.41619" lon="8.4952417"><ele>533.8333333333333</ele><time>2026-03-26T10:24:36.941Z</time></trkpt><trkpt lat="44.4162633" lon="8.49517"><ele>531.6666666666666</ele><time>2026-03-26T10:24:37.942Z</time></trkpt><trkpt lat="44.4163283" lon="8.4951033"><ele>529.5</ele><time>2026-03-26T10:24:38.941Z</time></trkpt><trkpt lat="44.41639" lon="8.4950367"><ele>527.3333333333334</ele><time>2026-03-26T10:24:39.942Z</time></trkpt><trkpt lat="44.41646" lon="8.4949467"><ele>525.1666666666667</ele><time>2026-03-26T10:24:40.941Z</time></trkpt><trkpt lat="44.4165233" lon="8.494855"><ele>523.0</ele><time>2026-03-26T10:24:41.942Z</time></trkpt><trkpt lat="44.4165867" lon="8.4947267"><ele>520.8</ele><time>2026-03-26T10:24:42.942Z</time></trkpt><trkpt lat="44.416635" lon="8.4945833"><ele>518.5999999999999</ele><time>2026-03-26T10:24:43.941Z</time></trkpt><trkpt lat="44.4166967" lon="8.4944417"><ele>516.4000000000001</ele><time>2026-03-26T10:24:44.942Z</time></trkpt><trkpt lat="44.4167417" lon="8.4943233"><ele>514.2</ele><time>2026-03-26T10:24:45.942Z</time></trkpt><trkpt lat="44.41679" lon="8.49423"><ele>512.0</ele><time>2026-03-26T10:24:46.942Z</time></trkpt><trkpt lat="44.4168417" lon="8.4941633"><ele>512.0</ele><time>2026-03-26T10:24:47.941Z</time></trkpt><trkpt lat="44.4169567" lon="8.49421"><ele>512.0</ele><time>2026-03-26T10:24:49.942Z</time></trkpt><trkpt lat="44.4170083" lon="8.49429"><ele>512.0</ele><time>2026-03-26T10:24:50.941Z</time></trkpt><trkpt lat="44.4170517" lon="8.4943867"><ele>512.0</ele><time>2026-03-26T10:24:51.942Z</time></trkpt><trkpt lat="44.4171017" lon="8.4944867"><ele>512.0</ele><time>2026-03-26T10:24:52.941Z</time></trkpt><trkpt lat="44.41717" lon="8.4945667"><ele>514.6</ele><time>2026-03-26T10:24:53.941Z</time></trkpt><trkpt lat="44.41725" lon="8.494615"><ele>517.2</ele><time>2026-03-26T10:24:54.941Z</time></trkpt><trkpt lat="44.4173467" lon="8.49464"><ele>519.8</ele><time>2026-03-26T10:24:55.942Z</time></trkpt><trkpt lat="44.4174517" lon="8.4946583"><ele>522.4</ele><time>2026-03-26T10:24:56.942Z</time></trkpt><trkpt lat="44.4175733" lon="8.4946467"><ele>525.0</ele><time>2026-03-26T10:24:57.941Z</time></trkpt><trkpt lat="44.41769" lon="8.4946233"><ele>525.0</ele><time>2026-03-26T10:24:58.941Z</time></trkpt><trkpt lat="44.41779" lon="8.494605"><ele>525.0</ele><time>2026-03-26T10:24:59.941Z</time></trkpt><trkpt lat="44.4178817" lon="8.4945917"><ele>525.0</ele><time>2026-03-26T10:25:00.941Z</time></trkpt><trkpt lat="44.41797" lon="8.4945883"><ele>525.0</ele><time>2026-03-26T10:25:01.941Z</time></trkpt><trkpt lat="44.4180617" lon="8.4946067"><ele>525.0</ele><time>2026-03-26T10:25:02.942Z</time></trkpt><trkpt lat="44.4181467" lon="8.4946567"><ele>523.1666666666666</ele><time>2026-03-26T10:25:03.941Z</time></trkpt><trkpt lat="44.4182317" lon="8.49472"><ele>521.3333333333334</ele><time>2026-03-26T10:25:04.942Z</time></trkpt><trkpt lat="44.418305" lon="8.494805"><ele>519.5</ele><time>2026-03-26T10:25:05.942Z</time></trkpt><trkpt lat="44.4183633" lon="8.4949017"><ele>517.6666666666667</ele><time>2026-03-26T10:25:06.942Z</time></trkpt><trkpt lat="44.4184167" lon="8.4949833"><ele>515.8333333333334</ele><time>2026-03-26T10:25:07.942Z</time></trkpt><trkpt lat="44.418465" lon="8.49505"><ele>514.0</ele><time>2026-03-26T10:25:08.942Z</time></trkpt><trkpt lat="44.41858" lon="8.4950417"><ele>514.0</ele><time>2026-03-26T10:25:10.941Z</time></trkpt><trkpt lat="44.41864" lon="8.4949617"><ele>514.0</ele><time>2026-03-26T10:25:11.942Z</time></trkpt><trkpt lat="44.4186917" lon="8.494855"><ele>514.0</ele><time>2026-03-26T10:25:12.942Z</time></trkpt><trkpt lat="44.41872" lon="8.4947117"><ele>514.0</ele><time>2026-03-26T10:25:13.941Z</time></trkpt><trkpt lat="44.4187" lon="8.494505"><ele>514.0</ele><time>2026-03-26T10:25:14.941Z</time></trkpt><trkpt lat="44.418685" lon="8.494315"><ele>512.4</ele><time>2026-03-26T10:25:15.941Z</time></trkpt><trkpt lat="44.4186683" lon="8.4941583"><ele>510.79999999999995</ele><time>2026-03-26T10:25:16.941Z</time></trkpt><trkpt lat="44.4186683" lon="8.494035"><ele>509.20000000000005</ele><time>2026-03-26T10:25:17.941Z</time></trkpt><trkpt lat="44.41868" lon="8.4939167"><ele>507.6</ele><time>2026-03-26T10:25:18.941Z</time></trkpt><trkpt lat="44.4187" lon="8.4937833"><ele>506.0</ele><time>2026-03-26T10:25:19.942Z</time></trkpt><trkpt lat="44.4187033" lon="8.4936417"><ele>505.20000000000005</ele><time>2026-03-26T10:25:20.942Z</time></trkpt><trkpt lat="44.41869" lon="8.49349"><ele>504.40000000000003</ele><time>2026-03-26T10:25:21.941Z</time></trkpt><trkpt lat="44.4186917" lon="8.4933217"><ele>503.6</ele><time>2026-03-26T10:25:22.942Z</time></trkpt><trkpt lat="44.41869" lon="8.4931583"><ele>502.8</ele><time>2026-03-26T10:25:23.942Z</time></trkpt><trkpt lat="44.4186867" lon="8.4930383"><ele>502.0</ele><time>2026-03-26T10:25:24.941Z</time></trkpt><trkpt lat="44.4187067" lon="8.4929467"><ele>502.6</ele><time>2026-03-26T10:25:25.941Z</time></trkpt><trkpt lat="44.41883" lon="8.492875"><ele>503.20000000000005</ele><time>2026-03-26T10:25:27.942Z</time></trkpt><trkpt lat="44.4189183" lon="8.4928567"><ele>503.8</ele><time>2026-03-26T10:25:28.942Z</time></trkpt><trkpt lat="44.4190183" lon="8.4928483"><ele>504.4</ele><time>2026-03-26T10:25:29.942Z</time></trkpt><trkpt lat="44.4191117" lon="8.4928"><ele>505.0</ele><time>2026-03-26T10:25:30.941Z</time></trkpt><trkpt lat="44.419195" lon="8.49271"><ele>505.0</ele><time>2026-03-26T10:25:31.942Z</time></trkpt><trkpt lat="44.4192817" lon="8.4926317"><ele>505.0</ele><time>2026-03-26T10:25:32.941Z</time></trkpt><trkpt lat="44.4193817" lon="8.4925683"><ele>505.0</ele><time>2026-03-26T10:25:33.941Z</time></trkpt><trkpt lat="44.4194983" lon="8.49252"><ele>505.0</ele><time>2026-03-26T10:25:34.941Z</time></trkpt><trkpt lat="44.419625" lon="8.492465"><ele>506.5</ele><time>2026-03-26T10:25:35.942Z</time></trkpt><trkpt lat="44.4197433" lon="8.4924033"><ele>508.0</ele><time>2026-03-26T10:25:36.941Z</time></trkpt><trkpt lat="44.4198583" lon="8.4923433"><ele>509.5</ele><time>2026-03-26T10:25:37.942Z</time></trkpt><trkpt lat="44.4199683" lon="8.4922883"><ele>511.0</ele><time>2026-03-26T10:25:38.942Z</time></trkpt><trkpt lat="44.4200583" lon="8.49225"><ele>511.0</ele><time>2026-03-26T10:25:39.941Z</time></trkpt><trkpt lat="44.4201767" lon="8.4922267"><ele>511.0</ele><time>2026-03-26T10:25:41.942Z</time></trkpt><trkpt lat="44.4202683" lon="8.4921983"><ele>511.0</ele><time>2026-03-26T10:25:43.941Z</time></trkpt><trkpt lat="44.42033" lon="8.492155"><ele>511.0</ele><time>2026-03-26T10:25:47.941Z</time></trkpt><trkpt lat="44.4203233" lon="8.4922767"><ele>511.0</ele><time>2026-03-26T10:25:54.941Z</time></trkpt><trkpt lat="44.4202667" lon="8.4924083"><ele>511.00000000000006</ele><time>2026-03-26T10:25:56.941Z</time></trkpt><trkpt lat="44.4202167" lon="8.49248"><ele>511.0</ele><time>2026-03-26T10:25:57.941Z</time></trkpt><trkpt lat="44.420165" lon="8.4925383"><ele>511.0</ele><time>2026-03-26T10:25:58.941Z</time></trkpt><trkpt lat="44.420105" lon="8.492595"><ele>511.0</ele><time>2026-03-26T10:25:59.942Z</time></trkpt><trkpt lat="44.4200417" lon="8.4926617"><ele>511.00000000000006</ele><time>2026-03-26T10:26:01.942Z</time></trkpt><trkpt lat="44.4200917" lon="8.4927717"><ele>511.0</ele><time>2026-03-26T10:26:04.941Z</time></trkpt><trkpt lat="44.4201667" lon="8.4928817"><ele>513.3333333333334</ele><time>2026-03-26T10:26:06.941Z</time></trkpt><trkpt lat="44.4202033" lon="8.49304"><ele>515.6666666666667</ele><time>2026-03-26T10:26:08.941Z</time></trkpt><trkpt lat="44.42023" lon="8.4931333"><ele>518.0</ele><time>2026-03-26T10:26:09.942Z</time></trkpt><trkpt lat="44.4202683" lon="8.4932267"><ele>520.3333333333334</ele><time>2026-03-26T10:26:10.942Z</time></trkpt><trkpt lat="44.4203067" lon="8.4933183"><ele>522.6666666666666</ele><time>2026-03-26T10:26:11.941Z</time></trkpt><trkpt lat="44.4203483" lon="8.4934133"><ele>525.0</ele><time>2026-03-26T10:26:12.942Z</time></trkpt><trkpt lat="44.42039" lon="8.4934967"><ele>525.0</ele><time>2026-03-26T10:26:13.942Z</time></trkpt><trkpt lat="44.42043" lon="8.49357"><ele>525.0</ele><time>2026-03-26T10:26:14.941Z</time></trkpt><trkpt lat="44.42047" lon="8.4936467"><ele>525.0</ele><time>2026-03-26T10:26:15.941Z</time></trkpt><trkpt lat="44.4205017" lon="8.4937333"><ele>525.0</ele><time>2026-03-26T10:26:16.941Z</time></trkpt><trkpt lat="44.4205317" lon="8.4938217"><ele>525.0</ele><time>2026-03-26T10:26:17.941Z</time></trkpt><trkpt lat="44.4205383" lon="8.4940067"><ele>525.0</ele><time>2026-03-26T10:26:19.942Z</time></trkpt><trkpt lat="44.42052" lon="8.4941233"><ele>526.6</ele><time>2026-03-26T10:26:20.942Z</time></trkpt><trkpt lat="44.4204883" lon="8.4942383"><ele>528.2</ele><time>2026-03-26T10:26:21.941Z</time></trkpt><trkpt lat="44.4204433" lon="8.494345"><ele>529.8</ele><time>2026-03-26T10:26:22.941Z</time></trkpt><trkpt lat="44.4203883" lon="8.4944517"><ele>531.4</ele><time>2026-03-26T10:26:23.941Z</time></trkpt><trkpt lat="44.4203367" lon="8.4945617"><ele>533.0</ele><time>2026-03-26T10:26:24.941Z</time></trkpt><trkpt lat="44.42029" lon="8.4946833"><ele>534.1666666666666</ele><time>2026-03-26T10:26:25.941Z</time></trkpt><trkpt lat="44.4202583" lon="8.4948017"><ele>535.3333333333333</ele><time>2026-03-26T10:26:26.942Z</time></trkpt><trkpt lat="44.4202517" lon="8.4949267"><ele>536.5</ele><time>2026-03-26T10:26:27.942Z</time></trkpt><trkpt lat="44.4202717" lon="8.4950567"><ele>537.6666666666666</ele><time>2026-03-26T10:26:28.941Z</time></trkpt><trkpt lat="44.4202867" lon="8.4951717"><ele>538.8333333333334</ele><time>2026-03-26T10:26:29.941Z</time></trkpt><trkpt lat="44.4202867" lon="8.4952667"><ele>540.0</ele><time>2026-03-26T10:26:30.942Z</time></trkpt><trkpt lat="44.4202833" lon="8.49541"><ele>542.4</ele><time>2026-03-26T10:26:32.943Z</time></trkpt><trkpt lat="44.4202867" lon="8.4955917"><ele>544.8</ele><time>2026-03-26T10:26:34.943Z</time></trkpt><trkpt lat="44.4203017" lon="8.4956917"><ele>547.2</ele><time>2026-03-26T10:26:35.942Z</time></trkpt><trkpt lat="44.420315" lon="8.49578"><ele>549.6</ele><time>2026-03-26T10:26:36.943Z</time></trkpt><trkpt lat="44.4203667" lon="8.4959133"><ele>552.0</ele><time>2026-03-26T10:26:38.943Z</time></trkpt><trkpt lat="44.4204267" lon="8.4960783"><ele>552.0</ele><time>2026-03-26T10:26:40.942Z</time></trkpt><trkpt lat="44.4204733" lon="8.4962217"><ele>552.0</ele><time>2026-03-26T10:26:42.942Z</time></trkpt><trkpt lat="44.4205133" lon="8.4963733"><ele>552.0</ele><time>2026-03-26T10:26:44.942Z</time></trkpt><trkpt lat="44.42057" lon="8.49651"><ele>552.0</ele><time>2026-03-26T10:26:46.942Z</time></trkpt><trkpt lat="44.420645" lon="8.49662"><ele>552.0</ele><time>2026-03-26T10:26:48.942Z</time></trkpt><trkpt lat="44.4207117" lon="8.4967333"><ele>555.6666666666666</ele><time>2026-03-26T10:26:50.942Z</time></trkpt><trkpt lat="44.42076" lon="8.4968717"><ele>559.3333333333334</ele><time>2026-03-26T10:26:52.942Z</time></trkpt><trkpt lat="44.4208267" lon="8.496985"><ele>563.0</ele><time>2026-03-26T10:26:54.942Z</time></trkpt><trkpt lat="44.42087" lon="8.49705"><ele>566.6666666666667</ele><time>2026-03-26T10:26:55.943Z</time></trkpt><trkpt lat="44.4209233" lon="8.49712"><ele>570.3333333333334</ele><time>2026-03-26T10:26:56.943Z</time></trkpt><trkpt lat="44.4209867" lon="8.4972017"><ele>574.0</ele><time>2026-03-26T10:26:57.942Z</time></trkpt><trkpt lat="44.4210567" lon="8.4972767"><ele>576.8</ele><time>2026-03-26T10:26:58.942Z</time></trkpt><trkpt lat="44.4211367" lon="8.4973483"><ele>579.5999999999999</ele><time>2026-03-26T10:26:59.943Z</time></trkpt><trkpt lat="44.4212183" lon="8.497415"><ele>582.4</ele><time>2026-03-26T10:27:00.943Z</time></trkpt><trkpt lat="44.4213117" lon="8.4974717"><ele>585.1999999999999</ele><time>2026-03-26T10:27:01.942Z</time></trkpt><trkpt lat="44.4214233" lon="8.4975267"><ele>588.0</ele><time>2026-03-26T10:27:02.943Z</time></trkpt><trkpt lat="44.4215333" lon="8.4975783"><ele>588.0</ele><time>2026-03-26T10:27:03.942Z</time></trkpt><trkpt lat="44.4216433" lon="8.497625"><ele>588.0</ele><time>2026-03-26T10:27:04.942Z</time></trkpt><trkpt lat="44.4217283" lon="8.49768"><ele>588.0</ele><time>2026-03-26T10:27:05.943Z</time></trkpt><trkpt lat="44.4217983" lon="8.4977233"><ele>588.0</ele><time>2026-03-26T10:27:06.942Z</time></trkpt><trkpt lat="44.4218733" lon="8.4977283"><ele>588.0</ele><time>2026-03-26T10:27:07.943Z</time></trkpt><trkpt lat="44.4219817" lon="8.4976417"><ele>588.0</ele><time>2026-03-26T10:27:09.942Z</time></trkpt><trkpt lat="44.4220433" lon="8.4975467"><ele>588.0</ele><time>2026-03-26T10:27:10.942Z</time></trkpt><trkpt lat="44.422105" lon="8.4974383"><ele>588.0</ele><time>2026-03-26T10:27:11.943Z</time></trkpt><trkpt lat="44.4221767" lon="8.4973483"><ele>588.0</ele><time>2026-03-26T10:27:12.943Z</time></trkpt><trkpt lat="44.4222533" lon="8.4972633"><ele>588.0</ele><time>2026-03-26T10:27:13.943Z</time></trkpt><trkpt lat="44.42232" lon="8.4972033"><ele>587.6</ele><time>2026-03-26T10:27:14.943Z</time></trkpt><trkpt lat="44.4223767" lon="8.4971133"><ele>587.1999999999999</ele><time>2026-03-26T10:27:15.942Z</time></trkpt><trkpt lat="44.422415" lon="8.4970033"><ele>586.8</ele><time>2026-03-26T10:27:16.942Z</time></trkpt><trkpt lat="44.4224567" lon="8.496875"><ele>586.4</ele><time>2026-03-26T10:27:17.942Z</time></trkpt><trkpt lat="44.422495" lon="8.4967583"><ele>586.0</ele><time>2026-03-26T10:27:18.942Z</time></trkpt><trkpt lat="44.4225467" lon="8.4966517"><ele>586.0</ele><time>2026-03-26T10:27:19.942Z</time></trkpt><trkpt lat="44.422605" lon="8.4965483"><ele>586.0</ele><time>2026-03-26T10:27:20.943Z</time></trkpt><trkpt lat="44.422665" lon="8.4964533"><ele>586.0</ele><time>2026-03-26T10:27:21.943Z</time></trkpt><trkpt lat="44.4227383" lon="8.4963583"><ele>586.0</ele><time>2026-03-26T10:27:22.942Z</time></trkpt><trkpt lat="44.4228017" lon="8.49627"><ele>586.0</ele><time>2026-03-26T10:27:23.943Z</time></trkpt><trkpt lat="44.4228617" lon="8.4961867"><ele>586.5</ele><time>2026-03-26T10:27:24.942Z</time></trkpt><trkpt lat="44.42293" lon="8.496095"><ele>587.0</ele><time>2026-03-26T10:27:25.943Z</time></trkpt><trkpt lat="44.423" lon="8.4960233"><ele>587.5</ele><time>2026-03-26T10:27:26.943Z</time></trkpt><trkpt lat="44.42307" lon="8.4959783"><ele>588.0</ele><time>2026-03-26T10:27:27.942Z</time></trkpt><trkpt lat="44.42315" lon="8.4959517"><ele>588.5</ele><time>2026-03-26T10:27:28.942Z</time></trkpt><trkpt lat="44.4232517" lon="8.495945"><ele>589.0</ele><time>2026-03-26T10:27:29.943Z</time></trkpt><trkpt lat="44.4233683" lon="8.4959467"><ele>589.0</ele><time>2026-03-26T10:27:30.943Z</time></trkpt><trkpt lat="44.4234833" lon="8.4959283"><ele>589.0</ele><time>2026-03-26T10:27:31.942Z</time></trkpt><trkpt lat="44.4236017" lon="8.4959017"><ele>589.0</ele><time>2026-03-26T10:27:32.942Z</time></trkpt><trkpt lat="44.4237083" lon="8.4958767"><ele>589.0</ele><time>2026-03-26T10:27:33.942Z</time></trkpt><trkpt lat="44.4238233" lon="8.49585"><ele>589.4</ele><time>2026-03-26T10:27:34.943Z</time></trkpt><trkpt lat="44.4239217" lon="8.49583"><ele>589.8</ele><time>2026-03-26T10:27:35.942Z</time></trkpt><trkpt lat="44.4240133" lon="8.495815"><ele>590.2</ele><time>2026-03-26T10:27:36.943Z</time></trkpt><trkpt lat="44.424105" lon="8.4958233"><ele>590.6</ele><time>2026-03-26T10:27:37.943Z</time></trkpt><trkpt lat="44.4242067" lon="8.495835"><ele>591.0</ele><time>2026-03-26T10:27:38.942Z</time></trkpt><trkpt lat="44.4243117" lon="8.495845"><ele>591.0</ele><time>2026-03-26T10:27:39.942Z</time></trkpt><trkpt lat="44.4244183" lon="8.4958517"><ele>591.0</ele><time>2026-03-26T10:27:40.943Z</time></trkpt><trkpt lat="44.424515" lon="8.4958733"><ele>591.0</ele><time>2026-03-26T10:27:41.942Z</time></trkpt><trkpt lat="44.4245967" lon="8.495885"><ele>591.0</ele><time>2026-03-26T10:27:42.943Z</time></trkpt><trkpt lat="44.424675" lon="8.4958933"><ele>591.0</ele><time>2026-03-26T10:27:43.943Z</time></trkpt><trkpt lat="44.424745" lon="8.4959083"><ele>591.0</ele><time>2026-03-26T10:27:44.942Z</time></trkpt><trkpt lat="44.4248217" lon="8.4959117"><ele>592.8</ele><time>2026-03-26T10:27:45.942Z</time></trkpt><trkpt lat="44.4249483" lon="8.4958917"><ele>594.6</ele><time>2026-03-26T10:27:47.942Z</time></trkpt><trkpt lat="44.4250433" lon="8.4958433"><ele>596.4</ele><time>2026-03-26T10:27:49.942Z</time></trkpt><trkpt lat="44.4251017" lon="8.4957317"><ele>598.2</ele><time>2026-03-26T10:27:51.943Z</time></trkpt><trkpt lat="44.4251033" lon="8.4956267"><ele>600.0</ele><time>2026-03-26T10:27:52.942Z</time></trkpt><trkpt lat="44.4251183" lon="8.49552"><ele>600.0</ele><time>2026-03-26T10:27:53.943Z</time></trkpt><trkpt lat="44.4251383" lon="8.4954267"><ele>600.0</ele><time>2026-03-26T10:27:54.943Z</time></trkpt><trkpt lat="44.4251717" lon="8.49535"><ele>600.0</ele><time>2026-03-26T10:27:55.942Z</time></trkpt><trkpt lat="44.4252383" lon="8.4952417"><ele>600.0</ele><time>2026-03-26T10:27:57.942Z</time></trkpt><trkpt lat="44.4253267" lon="8.4952417"><ele>600.0</ele><time>2026-03-26T10:27:59.943Z</time></trkpt><trkpt lat="44.425395" lon="8.4952817"><ele>600.0</ele><time>2026-03-26T10:28:00.943Z</time></trkpt><trkpt lat="44.425465" lon="8.495315"><ele>601.0</ele><time>2026-03-26T10:28:01.942Z</time></trkpt><trkpt lat="44.4255483" lon="8.4953317"><ele>602.0</ele><time>2026-03-26T10:28:02.942Z</time></trkpt><trkpt lat="44.4256367" lon="8.4953283"><ele>603.0</ele><time>2026-03-26T10:28:03.943Z</time></trkpt><trkpt lat="44.4257283" lon="8.4953067"><ele>604.0</ele><time>2026-03-26T10:28:04.943Z</time></trkpt><trkpt lat="44.4258233" lon="8.49525"><ele>605.0</ele><time>2026-03-26T10:28:05.943Z</time></trkpt><trkpt lat="44.425895" lon="8.495195"><ele>605.0</ele><time>2026-03-26T10:28:06.942Z</time></trkpt><trkpt lat="44.42597" lon="8.4951283"><ele>605.0</ele><time>2026-03-26T10:28:07.942Z</time></trkpt><trkpt lat="44.426045" lon="8.4950833"><ele>605.0</ele><time>2026-03-26T10:28:08.942Z</time></trkpt><trkpt lat="44.426135" lon="8.4950383"><ele>605.0</ele><time>2026-03-26T10:28:09.942Z</time></trkpt><trkpt lat="44.4262367" lon="8.4949983"><ele>605.0</ele><time>2026-03-26T10:28:10.943Z</time></trkpt><trkpt lat="44.4263383" lon="8.4949717"><ele>605.0</ele><time>2026-03-26T10:28:11.942Z</time></trkpt><trkpt lat="44.4264367" lon="8.494965"><ele>605.0</ele><time>2026-03-26T10:28:13.942Z</time></trkpt><trkpt lat="44.4264933" lon="8.4950317"><ele>605.0</ele><time>2026-03-26T10:28:15.942Z</time></trkpt><trkpt lat="44.4265117" lon="8.4951167"><ele>605.0</ele><time>2026-03-26T10:28:17.942Z</time></trkpt><trkpt lat="44.4264283" lon="8.495195"><ele>605.0</ele><time>2026-03-26T10:28:19.942Z</time></trkpt><trkpt lat="44.4263667" lon="8.4952433"><ele>605.0</ele><time>2026-03-26T10:28:20.942Z</time></trkpt><trkpt lat="44.4262867" lon="8.49532"><ele>607.2</ele><time>2026-03-26T10:28:21.942Z</time></trkpt><trkpt lat="44.4262033" lon="8.495425"><ele>609.4</ele><time>2026-03-26T10:28:22.942Z</time></trkpt><trkpt lat="44.4261317" lon="8.4955417"><ele>611.6</ele><time>2026-03-26T10:28:23.943Z</time></trkpt><trkpt lat="44.4260783" lon="8.4956633"><ele>613.8</ele><time>2026-03-26T10:28:24.943Z</time></trkpt><trkpt lat="44.4260033" lon="8.4957683"><ele>616.0</ele><time>2026-03-26T10:28:25.942Z</time></trkpt><trkpt lat="44.4259317" lon="8.4958683"><ele>616.0</ele><time>2026-03-26T10:28:26.943Z</time></trkpt><trkpt lat="44.425875" lon="8.4959467"><ele>616.0</ele><time>2026-03-26T10:28:27.943Z</time></trkpt><trkpt lat="44.4258183" lon="8.496065"><ele>616.0</ele><time>2026-03-26T10:28:29.943Z</time></trkpt><trkpt lat="44.4258683" lon="8.49615"><ele>616.0</ele><time>2026-03-26T10:28:31.942Z</time></trkpt><trkpt lat="44.425955" lon="8.4961667"><ele>616.0</ele><time>2026-03-26T10:28:32.943Z</time></trkpt><trkpt lat="44.4260633" lon="8.49619"><ele>616.0</ele><time>2026-03-26T10:28:33.942Z</time></trkpt><trkpt lat="44.4261983" lon="8.4962133"><ele>616.0</ele><time>2026-03-26T10:28:34.943Z</time></trkpt><trkpt lat="44.4263333" lon="8.4962417"><ele>616.0</ele><time>2026-03-26T10:28:35.942Z</time></trkpt><trkpt lat="44.42645" lon="8.4962767"><ele>616.0</ele><time>2026-03-26T10:28:36.942Z</time></trkpt><trkpt lat="44.4265533" lon="8.4963167"><ele>619.8</ele><time>2026-03-26T10:28:37.943Z</time></trkpt><trkpt lat="44.426645" lon="8.4963533"><ele>623.6</ele><time>2026-03-26T10:28:38.942Z</time></trkpt><trkpt lat="44.426745" lon="8.4964233"><ele>627.4</ele><time>2026-03-26T10:28:39.942Z</time></trkpt><trkpt lat="44.42683" lon="8.4964867"><ele>631.2</ele><time>2026-03-26T10:28:40.942Z</time></trkpt><trkpt lat="44.4269017" lon="8.49654"><ele>635.0</ele><time>2026-03-26T10:28:41.943Z</time></trkpt><trkpt lat="44.4269633" lon="8.4965817"><ele>635.0</ele><time>2026-03-26T10:28:42.942Z</time></trkpt><trkpt lat="44.42703" lon="8.4966267"><ele>635.0</ele><time>2026-03-26T10:28:43.942Z</time></trkpt><trkpt lat="44.4270983" lon="8.4966833"><ele>635.0</ele><time>2026-03-26T10:28:44.942Z</time></trkpt><trkpt lat="44.4271667" lon="8.4967467"><ele>635.0</ele><time>2026-03-26T10:28:45.943Z</time></trkpt><trkpt lat="44.4272233" lon="8.4968133"><ele>635.0</ele><time>2026-03-26T10:28:46.942Z</time></trkpt><trkpt lat="44.42732" lon="8.4969133"><ele>635.0</ele><time>2026-03-26T10:28:48.943Z</time></trkpt><trkpt lat="44.4273883" lon="8.4969517"><ele>634.3333333333333</ele><time>2026-03-26T10:28:49.942Z</time></trkpt><trkpt lat="44.427465" lon="8.49697"><ele>633.6666666666666</ele><time>2026-03-26T10:28:50.942Z</time></trkpt><trkpt lat="44.4275483" lon="8.4969867"><ele>633.0</ele><time>2026-03-26T10:28:51.943Z</time></trkpt><trkpt lat="44.4276267" lon="8.4969883"><ele>632.3333333333334</ele><time>2026-03-26T10:28:52.942Z</time></trkpt><trkpt lat="44.4277033" lon="8.4969933"><ele>631.6666666666667</ele><time>2026-03-26T10:28:53.943Z</time></trkpt><trkpt lat="44.427795" lon="8.4970267"><ele>631.0</ele><time>2026-03-26T10:28:54.943Z</time></trkpt><trkpt lat="44.4279017" lon="8.49708"><ele>637.75</ele><time>2026-03-26T10:28:55.943Z</time></trkpt><trkpt lat="44.428015" lon="8.4971433"><ele>644.5</ele><time>2026-03-26T10:28:56.942Z</time></trkpt><trkpt lat="44.42813" lon="8.4972067"><ele>651.25</ele><time>2026-03-26T10:28:57.942Z</time></trkpt><trkpt lat="44.428255" lon="8.4972717"><ele>658.0</ele><time>2026-03-26T10:28:58.942Z</time></trkpt><trkpt lat="44.42837" lon="8.49733"><ele>658.0</ele><time>2026-03-26T10:28:59.943Z</time></trkpt><trkpt lat="44.4284683" lon="8.4973883"><ele>658.0</ele><time>2026-03-26T10:29:00.942Z</time></trkpt><trkpt lat="44.42856" lon="8.49746"><ele>658.0</ele><time>2026-03-26T10:29:01.942Z</time></trkpt><trkpt lat="44.4286583" lon="8.497545"><ele>658.0</ele><time>2026-03-26T10:29:02.942Z</time></trkpt><trkpt lat="44.4287417" lon="8.4976233"><ele>658.0</ele><time>2026-03-26T10:29:03.943Z</time></trkpt><trkpt lat="44.4288117" lon="8.4977017"><ele>655.5999999999999</ele><time>2026-03-26T10:29:04.942Z</time></trkpt><trkpt lat="44.4288717" lon="8.4977967"><ele>653.1999999999999</ele><time>2026-03-26T10:29:05.942Z</time></trkpt><trkpt lat="44.4289583" lon="8.4979167"><ele>650.8</ele><time>2026-03-26T10:29:06.942Z</time></trkpt><trkpt lat="44.429035" lon="8.498035"><ele>648.4</ele><time>2026-03-26T10:29:07.942Z</time></trkpt><trkpt lat="44.4291033" lon="8.4981483"><ele>646.0</ele><time>2026-03-26T10:29:08.942Z</time></trkpt><trkpt lat="44.429155" lon="8.4982533"><ele>651.0</ele><time>2026-03-26T10:29:09.943Z</time></trkpt><trkpt lat="44.42919" lon="8.4983767"><ele>656.0</ele><time>2026-03-26T10:29:10.943Z</time></trkpt><trkpt lat="44.4292283" lon="8.49848"><ele>661.0</ele><time>2026-03-26T10:29:11.943Z</time></trkpt><trkpt lat="44.4292967" lon="8.4985617"><ele>666.0</ele><time>2026-03-26T10:29:13.943Z</time></trkpt><trkpt lat="44.4293817" lon="8.4985167"><ele>671.0</ele><time>2026-03-26T10:29:14.943Z</time></trkpt><trkpt lat="44.4294767" lon="8.4984783"><ele>671.0</ele><time>2026-03-26T10:29:15.942Z</time></trkpt><trkpt lat="44.4295717" lon="8.49845"><ele>671.0</ele><time>2026-03-26T10:29:16.942Z</time></trkpt><trkpt lat="44.4296583" lon="8.4984383"><ele>671.0</ele><time>2026-03-26T10:29:17.942Z</time></trkpt><trkpt lat="44.4297583" lon="8.4984567"><ele>671.0</ele><time>2026-03-26T10:29:18.942Z</time></trkpt><trkpt lat="44.4298567" lon="8.4984917"><ele>671.0</ele><time>2026-03-26T10:29:19.942Z</time></trkpt><trkpt lat="44.4299617" lon="8.4985333"><ele>668.8</ele><time>2026-03-26T10:29:20.943Z</time></trkpt><trkpt lat="44.4300717" lon="8.4985767"><ele>666.5999999999999</ele><time>2026-03-26T10:29:21.942Z</time></trkpt><trkpt lat="44.4301667" lon="8.49861"><ele>664.4</ele><time>2026-03-26T10:29:22.942Z</time></trkpt><trkpt lat="44.4302667" lon="8.498645"><ele>662.2</ele><time>2026-03-26T10:29:23.942Z</time></trkpt><trkpt lat="44.430365" lon="8.4986817"><ele>660.0</ele><time>2026-03-26T10:29:24.942Z</time></trkpt><trkpt lat="44.4304583" lon="8.49871"><ele>658.4</ele><time>2026-03-26T10:29:25.942Z</time></trkpt><trkpt lat="44.4305433" lon="8.4987417"><ele>656.8</ele><time>2026-03-26T10:29:26.943Z</time></trkpt><trkpt lat="44.4306267" lon="8.4987717"><ele>655.2</ele><time>2026-03-26T10:29:27.943Z</time></trkpt><trkpt lat="44.4307333" lon="8.49885"><ele>653.6</ele><time>2026-03-26T10:29:28.943Z</time></trkpt><trkpt lat="44.4308367" lon="8.4989033"><ele>652.0</ele><time>2026-03-26T10:29:29.943Z</time></trkpt><trkpt lat="44.4309317" lon="8.49894"><ele>653.3333333333334</ele><time>2026-03-26T10:29:30.943Z</time></trkpt><trkpt lat="44.4310283" lon="8.4989667"><ele>654.6666666666667</ele><time>2026-03-26T10:29:31.942Z</time></trkpt><trkpt lat="44.4311117" lon="8.4989933"><ele>656.0</ele><time>2026-03-26T10:29:32.943Z</time></trkpt><trkpt lat="44.4311933" lon="8.49901"><ele>657.3333333333334</ele><time>2026-03-26T10:29:33.942Z</time></trkpt><trkpt lat="44.4312717" lon="8.4990283"><ele>658.6666666666666</ele><time>2026-03-26T10:29:34.943Z</time></trkpt><trkpt lat="44.4313533" lon="8.4990667"><ele>660.0</ele><time>2026-03-26T10:29:35.942Z</time></trkpt><trkpt lat="44.4314417" lon="8.49912"><ele>660.0</ele><time>2026-03-26T10:29:36.942Z</time></trkpt><trkpt lat="44.431535" lon="8.4991817"><ele>660.0</ele><time>2026-03-26T10:29:37.943Z</time></trkpt><trkpt lat="44.431635" lon="8.49925"><ele>660.0</ele><time>2026-03-26T10:29:38.942Z</time></trkpt><trkpt lat="44.4317283" lon="8.499315"><ele>660.0</ele><time>2026-03-26T10:29:39.943Z</time></trkpt><trkpt lat="44.4317967" lon="8.4994"><ele>660.0</ele><time>2026-03-26T10:29:41.942Z</time></trkpt><trkpt lat="44.4318317" lon="8.4995617"><ele>660.6666666666666</ele><time>2026-03-26T10:29:43.942Z</time></trkpt><trkpt lat="44.4318317" lon="8.4996633"><ele>661.3333333333334</ele><time>2026-03-26T10:29:44.942Z</time></trkpt><trkpt lat="44.4318267" lon="8.4997717"><ele>662.0</ele><time>2026-03-26T10:29:45.942Z</time></trkpt><trkpt lat="44.4318317" lon="8.4998683"><ele>662.6666666666667</ele><time>2026-03-26T10:29:46.942Z</time></trkpt><trkpt lat="44.431835" lon="8.4999667"><ele>663.3333333333334</ele><time>2026-03-26T10:29:47.943Z</time></trkpt><trkpt lat="44.43183" lon="8.5000567"><ele>664.0</ele><time>2026-03-26T10:29:48.943Z</time></trkpt><trkpt lat="44.4318217" lon="8.500205"><ele>664.0</ele><time>2026-03-26T10:29:50.943Z</time></trkpt><trkpt lat="44.4318717" lon="8.5003067"><ele>664.0</ele><time>2026-03-26T10:29:53.942Z</time></trkpt><trkpt lat="44.431955" lon="8.5003383"><ele>664.0</ele><time>2026-03-26T10:29:54.943Z</time></trkpt><trkpt lat="44.4320333" lon="8.5004"><ele>664.0</ele><time>2026-03-26T10:29:55.942Z</time></trkpt><trkpt lat="44.4320967" lon="8.500465"><ele>664.0</ele><time>2026-03-26T10:29:56.942Z</time></trkpt><trkpt lat="44.43214" lon="8.5005367"><ele>664.0</ele><time>2026-03-26T10:29:57.942Z</time></trkpt><trkpt lat="44.43218" lon="8.5006233"><ele>663.0</ele><time>2026-03-26T10:29:58.942Z</time></trkpt><trkpt lat="44.4321917" lon="8.5007817"><ele>662.0</ele><time>2026-03-26T10:30:00.943Z</time></trkpt><trkpt lat="44.4321633" lon="8.5008817"><ele>661.0</ele><time>2026-03-26T10:30:01.943Z</time></trkpt><trkpt lat="44.432135" lon="8.5009833"><ele>660.0</ele><time>2026-03-26T10:30:02.942Z</time></trkpt><trkpt lat="44.4321117" lon="8.5010833"><ele>659.0</ele><time>2026-03-26T10:30:03.942Z</time></trkpt><trkpt lat="44.4320967" lon="8.50119"><ele>658.0</ele><time>2026-03-26T10:30:04.942Z</time></trkpt><trkpt lat="44.4320867" lon="8.501305"><ele>659.6666666666667</ele><time>2026-03-26T10:30:05.943Z</time></trkpt><trkpt lat="44.4320933" lon="8.50141"><ele>661.3333333333334</ele><time>2026-03-26T10:30:06.943Z</time></trkpt><trkpt lat="44.4321117" lon="8.501505"><ele>663.0</ele><time>2026-03-26T10:30:07.942Z</time></trkpt><trkpt lat="44.4321633" lon="8.5016533"><ele>664.6666666666666</ele><time>2026-03-26T10:30:09.942Z</time></trkpt><trkpt lat="44.4321817" lon="8.50174"><ele>666.3333333333333</ele><time>2026-03-26T10:30:10.943Z</time></trkpt><trkpt lat="44.4322467" lon="8.5018633"><ele>668.0</ele><time>2026-03-26T10:30:12.942Z</time></trkpt><trkpt lat="44.4323717" lon="8.50184"><ele>668.0</ele><time>2026-03-26T10:30:14.942Z</time></trkpt><trkpt lat="44.4324583" lon="8.501725"><ele>668.0</ele><time>2026-03-26T10:30:15.943Z</time></trkpt><trkpt lat="44.43253" lon="8.5016067"><ele>668.0</ele><time>2026-03-26T10:30:16.943Z</time></trkpt><trkpt lat="44.4325733" lon="8.5014933"><ele>668.0</ele><time>2026-03-26T10:30:17.942Z</time></trkpt><trkpt lat="44.4326133" lon="8.5013967"><ele>668.0</ele><time>2026-03-26T10:30:18.943Z</time></trkpt><trkpt lat="44.4326233" lon="8.501295"><ele>666.0</ele><time>2026-03-26T10:30:20.943Z</time></trkpt><trkpt lat="44.4326483" lon="8.5011683"><ele>664.0</ele><time>2026-03-26T10:35:18.943Z</time></trkpt><trkpt lat="44.43267" lon="8.5010167"><ele>662.0</ele><time>2026-03-26T10:35:20.943Z</time></trkpt><trkpt lat="44.4327133" lon="8.50088"><ele>660.0</ele><time>2026-03-26T10:35:22.943Z</time></trkpt><trkpt lat="44.4327817" lon="8.5008133"><ele>658.0</ele><time>2026-03-26T10:35:24.943Z</time></trkpt><trkpt lat="44.4328583" lon="8.50085"><ele>658.0</ele><time>2026-03-26T10:35:26.943Z</time></trkpt><trkpt lat="44.4329017" lon="8.5009183"><ele>658.0</ele><time>2026-03-26T10:35:27.943Z</time></trkpt><trkpt lat="44.4329483" lon="8.501005"><ele>658.0</ele><time>2026-03-26T10:35:28.943Z</time></trkpt><trkpt lat="44.4329983" lon="8.5010833"><ele>658.0</ele><time>2026-03-26T10:35:29.943Z</time></trkpt><trkpt lat="44.4330633" lon="8.50116"><ele>658.0</ele><time>2026-03-26T10:35:30.944Z</time></trkpt><trkpt lat="44.43315" lon="8.5012367"><ele>658.0</ele><time>2026-03-26T10:35:31.944Z</time></trkpt><trkpt lat="44.433225" lon="8.5013017"><ele>658.1666666666667</ele><time>2026-03-26T10:35:32.944Z</time></trkpt><trkpt lat="44.4332883" lon="8.50136"><ele>658.3333333333334</ele><time>2026-03-26T10:35:33.943Z</time></trkpt><trkpt lat="44.433345" lon="8.5014667"><ele>658.5</ele><time>2026-03-26T10:35:35.943Z</time></trkpt><trkpt lat="44.433395" lon="8.5015583"><ele>658.6666666666666</ele><time>2026-03-26T10:35:37.943Z</time></trkpt><trkpt lat="44.43343" lon="8.5016433"><ele>658.8333333333333</ele><time>2026-03-26T10:35:39.943Z</time></trkpt><trkpt lat="44.4334483" lon="8.5017283"><ele>659.0</ele><time>2026-03-26T10:35:41.943Z</time></trkpt><trkpt lat="44.4334567" lon="8.5018417"><ele>659.0</ele><time>2026-03-26T10:35:43.943Z</time></trkpt><trkpt lat="44.4334983" lon="8.5019667"><ele>659.0</ele><time>2026-03-26T10:35:45.943Z</time></trkpt><trkpt lat="44.4335583" lon="8.50203"><ele>659.0</ele><time>2026-03-26T10:35:47.943Z</time></trkpt><trkpt lat="44.4336467" lon="8.5020183"><ele>659.0</ele><time>2026-03-26T10:36:15.944Z</time></trkpt><trkpt lat="44.4337283" lon="8.5019267"><ele>659.0</ele><time>2026-03-26T10:36:17.944Z</time></trkpt><trkpt lat="44.4338217" lon="8.5018267"><ele>658.3333333333333</ele><time>2026-03-26T10:36:19.943Z</time></trkpt><trkpt lat="44.433875" lon="8.5017583"><ele>657.6666666666666</ele><time>2026-03-26T10:36:20.944Z</time></trkpt><trkpt lat="44.4339283" lon="8.5016767"><ele>657.0</ele><time>2026-03-26T10:36:21.944Z</time></trkpt><trkpt lat="44.433985" lon="8.5015817"><ele>656.3333333333334</ele><time>2026-03-26T10:36:22.943Z</time></trkpt><trkpt lat="44.4340367" lon="8.5014867"><ele>655.6666666666667</ele><time>2026-03-26T10:36:23.944Z</time></trkpt><trkpt lat="44.4340867" lon="8.5014083"><ele>655.0</ele><time>2026-03-26T10:36:24.943Z</time></trkpt><trkpt lat="44.43414" lon="8.5013417"><ele>655.0</ele><time>2026-03-26T10:36:25.944Z</time></trkpt><trkpt lat="44.4341717" lon="8.5012583"><ele>655.0</ele><time>2026-03-26T10:36:26.943Z</time></trkpt><trkpt lat="44.4342" lon="8.501155"><ele>655.0</ele><time>2026-03-26T10:36:27.944Z</time></trkpt><trkpt lat="44.4342167" lon="8.50102"><ele>655.0</ele><time>2026-03-26T10:36:28.943Z</time></trkpt><trkpt lat="44.4342083" lon="8.5008667"><ele>655.0</ele><time>2026-03-26T10:36:29.944Z</time></trkpt><trkpt lat="44.4341883" lon="8.5007017"><ele>654.6</ele><time>2026-03-26T10:36:30.944Z</time></trkpt><trkpt lat="44.4341717" lon="8.5005417"><ele>654.2</ele><time>2026-03-26T10:36:31.944Z</time></trkpt><trkpt lat="44.4341533" lon="8.50041"><ele>653.8</ele><time>2026-03-26T10:36:32.944Z</time></trkpt><trkpt lat="44.4341433" lon="8.5002717"><ele>653.4</ele><time>2026-03-26T10:36:33.943Z</time></trkpt><trkpt lat="44.4341417" lon="8.5001317"><ele>653.0</ele><time>2026-03-26T10:36:34.944Z</time></trkpt><trkpt lat="44.4341483" lon="8.5000167"><ele>653.0</ele><time>2026-03-26T10:36:35.944Z</time></trkpt><trkpt lat="44.434165" lon="8.499915"><ele>653.0</ele><time>2026-03-26T10:36:36.943Z</time></trkpt><trkpt lat="44.4342067" lon="8.4998183"><ele>653.0</ele><time>2026-03-26T10:36:37.944Z</time></trkpt><trkpt lat="44.4342633" lon="8.4997183"><ele>653.0</ele><time>2026-03-26T10:36:38.943Z</time></trkpt><trkpt lat="44.4343017" lon="8.499615"><ele>653.0</ele><time>2026-03-26T10:36:39.943Z</time></trkpt><trkpt lat="44.4343417" lon="8.4995333"><ele>653.0</ele><time>2026-03-26T10:36:40.944Z</time></trkpt><trkpt lat="44.4343633" lon="8.4994333"><ele>653.3333333333333</ele><time>2026-03-26T10:36:41.944Z</time></trkpt><trkpt lat="44.4343717" lon="8.4993167"><ele>653.6666666666666</ele><time>2026-03-26T10:36:42.943Z</time></trkpt><trkpt lat="44.4343833" lon="8.499175"><ele>654.0</ele><time>2026-03-26T10:36:43.944Z</time></trkpt><trkpt lat="44.4343967" lon="8.4990417"><ele>654.3333333333334</ele><time>2026-03-26T10:36:44.943Z</time></trkpt><trkpt lat="44.4344167" lon="8.4989217"><ele>654.6666666666667</ele><time>2026-03-26T10:36:45.943Z</time></trkpt><trkpt lat="44.4344417" lon="8.49883"><ele>655.0</ele><time>2026-03-26T10:36:46.944Z</time></trkpt><trkpt lat="44.4345217" lon="8.49872"><ele>655.0</ele><time>2026-03-26T10:36:48.943Z</time></trkpt><trkpt lat="44.4345817" lon="8.498645"><ele>655.0</ele><time>2026-03-26T10:36:50.944Z</time></trkpt><trkpt lat="44.434605" lon="8.4985167"><ele>655.0</ele><time>2026-03-26T10:36:52.944Z</time></trkpt><trkpt lat="44.43461" lon="8.4984267"><ele>655.0</ele><time>2026-03-26T10:36:53.944Z</time></trkpt><trkpt lat="44.4345983" lon="8.4983117"><ele>655.0</ele><time>2026-03-26T10:36:54.944Z</time></trkpt><trkpt lat="44.43456" lon="8.49818"><ele>655.0</ele><time>2026-03-26T10:36:55.944Z</time></trkpt><trkpt lat="44.4345083" lon="8.4980367"><ele>659.25</ele><time>2026-03-26T10:36:56.943Z</time></trkpt><trkpt lat="44.4344417" lon="8.497905"><ele>663.5</ele><time>2026-03-26T10:36:57.943Z</time></trkpt><trkpt lat="44.4343817" lon="8.497795"><ele>667.75</ele><time>2026-03-26T10:36:58.944Z</time></trkpt><trkpt lat="44.43429" lon="8.4976817"><ele>672.0</ele><time>2026-03-26T10:36:59.943Z</time></trkpt><trkpt lat="44.434185" lon="8.497575"><ele>672.0</ele><time>2026-03-26T10:37:00.944Z</time></trkpt><trkpt lat="44.4340967" lon="8.4974767"><ele>672.0</ele><time>2026-03-26T10:37:01.943Z</time></trkpt><trkpt lat="44.434035" lon="8.497375"><ele>672.0</ele><time>2026-03-26T10:37:02.943Z</time></trkpt><trkpt lat="44.4339883" lon="8.4972767"><ele>672.0</ele><time>2026-03-26T10:37:03.943Z</time></trkpt><trkpt lat="44.4339617" lon="8.49717"><ele>672.0</ele><time>2026-03-26T10:37:04.943Z</time></trkpt><trkpt lat="44.43395" lon="8.49705"><ele>672.8333333333334</ele><time>2026-03-26T10:37:05.943Z</time></trkpt><trkpt lat="44.4339483" lon="8.496945"><ele>673.6666666666666</ele><time>2026-03-26T10:37:06.943Z</time></trkpt><trkpt lat="44.4339783" lon="8.4967867"><ele>674.5</ele><time>2026-03-26T10:37:08.944Z</time></trkpt><trkpt lat="44.43403" lon="8.496715"><ele>675.3333333333333</ele><time>2026-03-26T10:37:09.943Z</time></trkpt><trkpt lat="44.43409" lon="8.49665"><ele>676.1666666666666</ele><time>2026-03-26T10:37:10.943Z</time></trkpt><trkpt lat="44.4341717" lon="8.4965883"><ele>677.0</ele><time>2026-03-26T10:37:11.944Z</time></trkpt><trkpt lat="44.4342617" lon="8.4965283"><ele>677.0</ele><time>2026-03-26T10:37:12.943Z</time></trkpt><trkpt lat="44.434335" lon="8.496485"><ele>677.0</ele><time>2026-03-26T10:37:13.944Z</time></trkpt><trkpt lat="44.434415" lon="8.4964333"><ele>677.0</ele><time>2026-03-26T10:37:15.943Z</time></trkpt><trkpt lat="44.4343833" lon="8.4965617"><ele>677.0</ele><time>2026-03-26T10:37:38.943Z</time></trkpt><trkpt lat="44.43434" lon="8.49664"><ele>677.0</ele><time>2026-03-26T10:37:39.943Z</time></trkpt><trkpt lat="44.4342783" lon="8.4967433"><ele>677.0</ele><time>2026-03-26T10:37:40.943Z</time></trkpt><trkpt lat="44.43422" lon="8.4968317"><ele>677.0</ele><time>2026-03-26T10:37:41.944Z</time></trkpt><trkpt lat="44.4341667" lon="8.4969083"><ele>677.0</ele><time>2026-03-26T10:37:42.944Z</time></trkpt><trkpt lat="44.4341383" lon="8.49699"><ele>677.0</ele><time>2026-03-26T10:37:43.944Z</time></trkpt><trkpt lat="44.4342167" lon="8.497145"><ele>677.0</ele><time>2026-03-26T10:37:45.944Z</time></trkpt><trkpt lat="44.4342867" lon="8.49721"><ele>677.0</ele><time>2026-03-26T10:37:46.943Z</time></trkpt><trkpt lat="44.4343717" lon="8.497245"><ele>677.0</ele><time>2026-03-26T10:37:47.943Z</time></trkpt><trkpt lat="44.434475" lon="8.4972767"><ele>676.0</ele><time>2026-03-26T10:37:48.944Z</time></trkpt><trkpt lat="44.4345767" lon="8.4973133"><ele>675.0</ele><time>2026-03-26T10:37:49.944Z</time></trkpt><trkpt lat="44.4346767" lon="8.497375"><ele>674.0</ele><time>2026-03-26T10:37:50.943Z</time></trkpt><trkpt lat="44.434765" lon="8.49746"><ele>673.0</ele><time>2026-03-26T10:37:51.944Z</time></trkpt><trkpt lat="44.4348433" lon="8.4975683"><ele>672.0</ele><time>2026-03-26T10:37:52.944Z</time></trkpt><trkpt lat="44.434905" lon="8.49769"><ele>676.2</ele><time>2026-03-26T10:37:53.943Z</time></trkpt><trkpt lat="44.434945" lon="8.4978117"><ele>680.4000000000001</ele><time>2026-03-26T10:37:54.943Z</time></trkpt><trkpt lat="44.43498" lon="8.49795"><ele>684.5999999999999</ele><time>2026-03-26T10:37:55.943Z</time></trkpt><trkpt lat="44.4350183" lon="8.4980667"><ele>688.8</ele><time>2026-03-26T10:37:56.944Z</time></trkpt><trkpt lat="44.4350667" lon="8.498175"><ele>693.0</ele><time>2026-03-26T10:37:57.943Z</time></trkpt><trkpt lat="44.4351133" lon="8.4982517"><ele>693.0</ele><time>2026-03-26T10:37:58.944Z</time></trkpt><trkpt lat="44.4352217" lon="8.4983233"><ele>693.0</ele><time>2026-03-26T10:38:00.944Z</time></trkpt><trkpt lat="44.4353" lon="8.498325"><ele>693.0</ele><time>2026-03-26T10:38:01.944Z</time></trkpt><trkpt lat="44.4353917" lon="8.4983333"><ele>693.0</ele><time>2026-03-26T10:38:02.943Z</time></trkpt><trkpt lat="44.43548" lon="8.4983433"><ele>693.0</ele><time>2026-03-26T10:38:03.943Z</time></trkpt><trkpt lat="44.4355567" lon="8.498355"><ele>696.6666666666666</ele><time>2026-03-26T10:38:04.944Z</time></trkpt><trkpt lat="44.4356183" lon="8.4983817"><ele>700.3333333333334</ele><time>2026-03-26T10:38:05.944Z</time></trkpt><trkpt lat="44.4356783" lon="8.4984317"><ele>704.0</ele><time>2026-03-26T10:38:06.943Z</time></trkpt><trkpt lat="44.435735" lon="8.4985133"><ele>707.6666666666667</ele><time>2026-03-26T10:38:07.943Z</time></trkpt><trkpt lat="44.43578" lon="8.49861"><ele>711.3333333333334</ele><time>2026-03-26T10:38:08.943Z</time></trkpt><trkpt lat="44.43583" lon="8.4986983"><ele>715.0</ele><time>2026-03-26T10:38:09.943Z</time></trkpt><trkpt lat="44.435875" lon="8.4987767"><ele>715.0</ele><time>2026-03-26T10:38:10.944Z</time></trkpt><trkpt lat="44.435925" lon="8.4988967"><ele>715.0</ele><time>2026-03-26T10:38:12.943Z</time></trkpt><trkpt lat="44.435965" lon="8.49902"><ele>715.0</ele><time>2026-03-26T10:38:14.943Z</time></trkpt><trkpt lat="44.4360217" lon="8.4991583"><ele>715.0</ele><time>2026-03-26T10:38:16.944Z</time></trkpt><trkpt lat="44.4360767" lon="8.49924"><ele>715.0</ele><time>2026-03-26T10:38:17.944Z</time></trkpt><trkpt lat="44.4361267" lon="8.4993233"><ele>715.0</ele><time>2026-03-26T10:38:18.943Z</time></trkpt><trkpt lat="44.4361817" lon="8.4994517"><ele>715.0</ele><time>2026-03-26T10:38:20.944Z</time></trkpt><trkpt lat="44.4362167" lon="8.4995983"><ele>715.0</ele><time>2026-03-26T10:38:22.943Z</time></trkpt><trkpt lat="44.43624" lon="8.499695"><ele>715.0</ele><time>2026-03-26T10:38:23.944Z</time></trkpt><trkpt lat="44.4362633" lon="8.499805"><ele>715.0</ele><time>2026-03-26T10:38:24.943Z</time></trkpt><trkpt lat="44.4363067" lon="8.4999233"><ele>719.3333333333334</ele><time>2026-03-26T10:38:25.944Z</time></trkpt><trkpt lat="44.4363617" lon="8.5000433"><ele>723.6666666666667</ele><time>2026-03-26T10:38:26.943Z</time></trkpt><trkpt lat="44.43641" lon="8.5001217"><ele>728.0</ele><time>2026-03-26T10:38:27.943Z</time></trkpt><trkpt lat="44.4364667" lon="8.5001767"><ele>732.3333333333334</ele><time>2026-03-26T10:38:28.944Z</time></trkpt><trkpt lat="44.4365417" lon="8.5002467"><ele>736.6666666666666</ele><time>2026-03-26T10:38:29.943Z</time></trkpt><trkpt lat="44.4366133" lon="8.5003183"><ele>741.0</ele><time>2026-03-26T10:38:30.943Z</time></trkpt><trkpt lat="44.4366817" lon="8.5003883"><ele>740.2857142857142</ele><time>2026-03-26T10:38:31.943Z</time></trkpt><trkpt lat="44.4367533" lon="8.5004483"><ele>739.5714285714287</ele><time>2026-03-26T10:38:33.943Z</time></trkpt><trkpt lat="44.4368167" lon="8.5004817"><ele>738.8571428571429</ele><time>2026-03-26T10:38:38.944Z</time></trkpt><trkpt lat="44.4369" lon="8.5005167"><ele>738.1428571428571</ele><time>2026-03-26T10:38:40.944Z</time></trkpt><trkpt lat="44.4369683" lon="8.5005417"><ele>737.4285714285713</ele><time>2026-03-26T10:38:41.944Z</time></trkpt><trkpt lat="44.4370367" lon="8.5005733"><ele>736.7142857142858</ele><time>2026-03-26T10:38:42.943Z</time></trkpt><trkpt lat="44.4370983" lon="8.5005967"><ele>736.0</ele><time>2026-03-26T10:38:43.944Z</time></trkpt><trkpt lat="44.4371567" lon="8.500645"><ele>738.8571428571429</ele><time>2026-03-26T10:38:44.944Z</time></trkpt><trkpt lat="44.437215" lon="8.50069"><ele>741.7142857142857</ele><time>2026-03-26T10:38:46.944Z</time></trkpt><trkpt lat="44.43728" lon="8.5006767"><ele>744.5714285714286</ele><time>2026-03-26T10:38:48.943Z</time></trkpt><trkpt lat="44.4373517" lon="8.500595"><ele>747.4285714285714</ele><time>2026-03-26T10:38:50.944Z</time></trkpt><trkpt lat="44.437405" lon="8.500545"><ele>750.2857142857142</ele><time>2026-03-26T10:38:51.944Z</time></trkpt><trkpt lat="44.43746" lon="8.5004967"><ele>753.1428571428571</ele><time>2026-03-26T10:38:52.943Z</time></trkpt><trkpt lat="44.4375167" lon="8.5004517"><ele>756.0</ele><time>2026-03-26T10:38:53.943Z</time></trkpt><trkpt lat="44.4375733" lon="8.5003983"><ele>756.5</ele><time>2026-03-26T10:38:54.943Z</time></trkpt><trkpt lat="44.43764" lon="8.5003233"><ele>757.0</ele><time>2026-03-26T10:38:55.944Z</time></trkpt><trkpt lat="44.4377083" lon="8.500245"><ele>757.5</ele><time>2026-03-26T10:38:56.943Z</time></trkpt><trkpt lat="44.437785" lon="8.5001917"><ele>758.0</ele><time>2026-03-26T10:38:57.944Z</time></trkpt><trkpt lat="44.4378567" lon="8.50014"><ele>758.5</ele><time>2026-03-26T10:38:58.943Z</time></trkpt><trkpt lat="44.43793" lon="8.50008"><ele>759.0</ele><time>2026-03-26T10:38:59.943Z</time></trkpt><trkpt lat="44.4380017" lon="8.5000283"><ele>759.3333333333334</ele><time>2026-03-26T10:39:00.943Z</time></trkpt><trkpt lat="44.4380867" lon="8.4999583"><ele>759.6666666666666</ele><time>2026-03-26T10:39:01.943Z</time></trkpt><trkpt lat="44.4381667" lon="8.4998667"><ele>760.0</ele><time>2026-03-26T10:39:02.943Z</time></trkpt><trkpt lat="44.438235" lon="8.4997683"><ele>760.3333333333333</ele><time>2026-03-26T10:39:03.943Z</time></trkpt><trkpt lat="44.43828" lon="8.4996833"><ele>760.6666666666666</ele><time>2026-03-26T10:39:04.943Z</time></trkpt><trkpt lat="44.4383183" lon="8.499605"><ele>761.0</ele><time>2026-03-26T10:39:05.944Z</time></trkpt><trkpt lat="44.438405" lon="8.4995133"><ele>761.0</ele><time>2026-03-26T10:39:07.944Z</time></trkpt><trkpt lat="44.438475" lon="8.4994833"><ele>761.0</ele><time>2026-03-26T10:39:09.944Z</time></trkpt><trkpt lat="44.4385517" lon="8.4994933"><ele>761.0</ele><time>2026-03-26T10:39:11.943Z</time></trkpt><trkpt lat="44.4386583" lon="8.499555"><ele>761.0</ele><time>2026-03-26T10:39:13.944Z</time></trkpt><trkpt lat="44.4387183" lon="8.499635"><ele>761.0</ele><time>2026-03-26T10:39:14.943Z</time></trkpt><trkpt lat="44.43879" lon="8.4997383"><ele>760.5</ele><time>2026-03-26T10:39:15.943Z</time></trkpt><trkpt lat="44.4388567" lon="8.49984"><ele>760.0</ele><time>2026-03-26T10:39:16.944Z</time></trkpt><trkpt lat="44.438915" lon="8.4999283"><ele>759.5</ele><time>2026-03-26T10:39:17.943Z</time></trkpt><trkpt lat="44.4389583" lon="8.5000083"><ele>759.0</ele><time>2026-03-26T10:39:18.944Z</time></trkpt><trkpt lat="44.4390033" lon="8.50009"><ele>758.5</ele><time>2026-03-26T10:39:19.944Z</time></trkpt><trkpt lat="44.4390383" lon="8.5001767"><ele>758.0</ele><time>2026-03-26T10:39:20.944Z</time></trkpt><trkpt lat="44.4390633" lon="8.5002733"><ele>758.0</ele><time>2026-03-26T10:39:21.943Z</time></trkpt><trkpt lat="44.439075" lon="8.5003783"><ele>758.0</ele><time>2026-03-26T10:39:22.943Z</time></trkpt><trkpt lat="44.4390683" lon="8.500485"><ele>758.0</ele><time>2026-03-26T10:39:23.943Z</time></trkpt><trkpt lat="44.439065" lon="8.5005933"><ele>758.0</ele><time>2026-03-26T10:39:24.944Z</time></trkpt><trkpt lat="44.4390667" lon="8.5007033"><ele>758.0</ele><time>2026-03-26T10:39:25.944Z</time></trkpt><trkpt lat="44.4390833" lon="8.500815"><ele>758.0</ele><time>2026-03-26T10:39:26.943Z</time></trkpt><trkpt lat="44.4391183" lon="8.5009183"><ele>758.6666666666666</ele><time>2026-03-26T10:39:27.943Z</time></trkpt><trkpt lat="44.4391733" lon="8.501015"><ele>759.3333333333333</ele><time>2026-03-26T10:39:28.943Z</time></trkpt><trkpt lat="44.43926" lon="8.5010733"><ele>760.0</ele><time>2026-03-26T10:39:29.943Z</time></trkpt><trkpt lat="44.4393517" lon="8.5011233"><ele>760.6666666666666</ele><time>2026-03-26T10:39:30.943Z</time></trkpt><trkpt lat="44.4394433" lon="8.5011483"><ele>761.3333333333334</ele><time>2026-03-26T10:39:31.944Z</time></trkpt><trkpt lat="44.43951" lon="8.5011717"><ele>762.0</ele><time>2026-03-26T10:39:32.944Z</time></trkpt><trkpt lat="44.439585" lon="8.501175"><ele>758.6</ele><time>2026-03-26T10:39:35.943Z</time></trkpt><trkpt lat="44.4396717" lon="8.5011483"><ele>755.2</ele><time>2026-03-26T10:39:39.943Z</time></trkpt><trkpt lat="44.4397433" lon="8.5011333"><ele>751.8</ele><time>2026-03-26T10:39:43.943Z</time></trkpt><trkpt lat="44.4398517" lon="8.5011067"><ele>748.4</ele><time>2026-03-26T10:39:52.944Z</time></trkpt><trkpt lat="44.4399383" lon="8.5010817"><ele>745.0</ele><time>2026-03-26T10:39:54.943Z</time></trkpt><trkpt lat="44.4400317" lon="8.5011433"><ele>745.0</ele><time>2026-03-26T10:39:56.943Z</time></trkpt><trkpt lat="44.440105" lon="8.5012233"><ele>745.0</ele><time>2026-03-26T10:39:58.943Z</time></trkpt><trkpt lat="44.440195" lon="8.501295"><ele>745.0</ele><time>2026-03-26T10:40:00.943Z</time></trkpt><trkpt lat="44.4402883" lon="8.5013533"><ele>745.0</ele><time>2026-03-26T10:40:02.943Z</time></trkpt><trkpt lat="44.44037" lon="8.5014233"><ele>745.0</ele><time>2026-03-26T10:40:04.943Z</time></trkpt><trkpt lat="44.4404633" lon="8.5015"><ele>740.3333333333334</ele><time>2026-03-26T10:40:06.943Z</time></trkpt><trkpt lat="44.4405367" lon="8.5015517"><ele>735.6666666666667</ele><time>2026-03-26T10:40:08.944Z</time></trkpt><trkpt lat="44.4406" lon="8.5015567"><ele>731.0</ele><time>2026-03-26T10:40:12.943Z</time></trkpt><trkpt lat="44.4406883" lon="8.5015367"><ele>726.3333333333334</ele><time>2026-03-26T10:40:15.943Z</time></trkpt><trkpt lat="44.4407617" lon="8.5015417"><ele>721.6666666666666</ele><time>2026-03-26T10:40:17.944Z</time></trkpt><trkpt lat="44.4408467" lon="8.5015417"><ele>717.0</ele><time>2026-03-26T10:40:19.943Z</time></trkpt><trkpt lat="44.441055" lon="8.50155"><ele>717.0</ele><time>2026-03-26T10:40:30.944Z</time></trkpt><trkpt lat="44.4411267" lon="8.501525"><ele>717.0</ele><time>2026-03-26T10:40:32.943Z</time></trkpt><trkpt lat="44.4411917" lon="8.5014733"><ele>717.0</ele><time>2026-03-26T10:40:34.943Z</time></trkpt><trkpt lat="44.4412433" lon="8.501385"><ele>717.0</ele><time>2026-03-26T10:40:36.944Z</time></trkpt><trkpt lat="44.44127" lon="8.501275"><ele>717.0</ele><time>2026-03-26T10:40:39.943Z</time></trkpt><trkpt lat="44.44131" lon="8.501175"><ele>717.0</ele><time>2026-03-26T10:40:42.944Z</time></trkpt><trkpt lat="44.44136" lon="8.5011017"><ele>713.1666666666666</ele><time>2026-03-26T10:40:45.943Z</time></trkpt><trkpt lat="44.441415" lon="8.5010117"><ele>709.3333333333334</ele><time>2026-03-26T10:40:48.943Z</time></trkpt><trkpt lat="44.441475" lon="8.5009133"><ele>705.5</ele><time>2026-03-26T10:40:51.943Z</time></trkpt><trkpt lat="44.441505" lon="8.50083"><ele>701.6666666666667</ele><time>2026-03-26T10:40:53.943Z</time></trkpt><trkpt lat="44.441555" lon="8.5007283"><ele>697.8333333333334</ele><time>2026-03-26T10:40:56.944Z</time></trkpt><trkpt lat="44.4416167" lon="8.50065"><ele>694.0</ele><time>2026-03-26T10:40:59.944Z</time></trkpt><trkpt lat="44.4416917" lon="8.500605"><ele>694.0</ele><time>2026-03-26T10:41:03.943Z</time></trkpt><trkpt lat="44.4417533" lon="8.5005483"><ele>694.0</ele><time>2026-03-26T10:41:06.943Z</time></trkpt><trkpt lat="44.4418267" lon="8.500505"><ele>694.0</ele><time>2026-03-26T10:41:09.943Z</time></trkpt><trkpt lat="44.4418967" lon="8.50049"><ele>694.0</ele><time>2026-03-26T10:41:12.943Z</time></trkpt><trkpt lat="44.4419667" lon="8.5004683"><ele>694.0</ele><time>2026-03-26T10:41:15.943Z</time></trkpt><trkpt lat="44.44204" lon="8.5004783"><ele>694.0</ele><time>2026-03-26T10:41:17.943Z</time></trkpt><trkpt lat="44.442125" lon="8.500495"><ele>690.8333333333334</ele><time>2026-03-26T10:41:19.944Z</time></trkpt><trkpt lat="44.4422017" lon="8.5005417"><ele>687.6666666666667</ele><time>2026-03-26T10:41:21.943Z</time></trkpt><trkpt lat="44.4422733" lon="8.5005767"><ele>684.5</ele><time>2026-03-26T10:41:23.943Z</time></trkpt><trkpt lat="44.442345" lon="8.500585"><ele>681.3333333333334</ele><time>2026-03-26T10:41:25.944Z</time></trkpt><trkpt lat="44.4424733" lon="8.5005817"><ele>678.1666666666666</ele><time>2026-03-26T10:41:31.944Z</time></trkpt><trkpt lat="44.44254" lon="8.500575"><ele>675.0</ele><time>2026-03-26T10:41:33.944Z</time></trkpt><trkpt lat="44.4426167" lon="8.5006583"><ele>675.0</ele><time>2026-03-26T10:41:38.944Z</time></trkpt><trkpt lat="44.442625" lon="8.500805"><ele>675.0</ele><time>2026-03-26T10:41:48.944Z</time></trkpt><trkpt lat="44.442675" lon="8.50092"><ele>675.0</ele><time>2026-03-26T10:41:50.944Z</time></trkpt><trkpt lat="44.4427117" lon="8.500995"><ele>675.0</ele><time>2026-03-26T10:41:51.943Z</time></trkpt><trkpt lat="44.442755" lon="8.5010783"><ele>675.0</ele><time>2026-03-26T10:41:52.943Z</time></trkpt><trkpt lat="44.4428133" lon="8.50116"><ele>675.0</ele><time>2026-03-26T10:41:53.944Z</time></trkpt><trkpt lat="44.4428717" lon="8.5012383"><ele>675.0</ele><time>2026-03-26T10:41:54.944Z</time></trkpt><trkpt lat="44.4429367" lon="8.5012983"><ele>675.0</ele><time>2026-03-26T10:41:55.944Z</time></trkpt><trkpt lat="44.4429933" lon="8.50134"><ele>675.0</ele><time>2026-03-26T10:41:56.943Z</time></trkpt><trkpt lat="44.443095" lon="8.5013917"><ele>675.0</ele><time>2026-03-26T10:41:58.944Z</time></trkpt><trkpt lat="44.443175" lon="8.5014417"><ele>675.0</ele><time>2026-03-26T10:42:00.944Z</time></trkpt><trkpt lat="44.4432533" lon="8.501535"><ele>675.0</ele><time>2026-03-26T10:42:02.943Z</time></trkpt><trkpt lat="44.44331" lon="8.5016667"><ele>673.5</ele><time>2026-03-26T10:42:04.943Z</time></trkpt><trkpt lat="44.4433583" lon="8.50178"><ele>672.0</ele><time>2026-03-26T10:42:06.943Z</time></trkpt><trkpt lat="44.4434667" lon="8.501825"><ele>670.5</ele><time>2026-03-26T10:42:08.943Z</time></trkpt><trkpt lat="44.4435333" lon="8.5018517"><ele>669.0</ele><time>2026-03-26T10:42:09.943Z</time></trkpt><trkpt lat="44.4435967" lon="8.501885"><ele>667.5</ele><time>2026-03-26T10:42:10.943Z</time></trkpt><trkpt lat="44.44366" lon="8.5019183"><ele>666.0</ele><time>2026-03-26T10:42:11.944Z</time></trkpt><trkpt lat="44.443735" lon="8.5019767"><ele>663.0</ele><time>2026-03-26T10:42:12.944Z</time></trkpt><trkpt lat="44.4437983" lon="8.502055"><ele>660.0</ele><time>2026-03-26T10:42:13.943Z</time></trkpt><trkpt lat="44.443845" lon="8.5021317"><ele>657.0</ele><time>2026-03-26T10:42:14.943Z</time></trkpt><trkpt lat="44.4438983" lon="8.5022133"><ele>654.0</ele><time>2026-03-26T10:42:15.943Z</time></trkpt><trkpt lat="44.4439667" lon="8.502325"><ele>651.0</ele><time>2026-03-26T10:42:16.943Z</time></trkpt><trkpt lat="44.444025" lon="8.5024367"><ele>648.0</ele><time>2026-03-26T10:42:17.944Z</time></trkpt><trkpt lat="44.44408" lon="8.5025417"><ele>648.0</ele><time>2026-03-26T10:42:18.943Z</time></trkpt><trkpt lat="44.4441183" lon="8.5026433"><ele>648.0</ele><time>2026-03-26T10:42:19.943Z</time></trkpt><trkpt lat="44.4441383" lon="8.5027367"><ele>648.0</ele><time>2026-03-26T10:42:20.944Z</time></trkpt><trkpt lat="44.4441317" lon="8.5028767"><ele>648.0</ele><time>2026-03-26T10:42:22.944Z</time></trkpt><trkpt lat="44.4441" lon="8.5029817"><ele>648.0</ele><time>2026-03-26T10:42:24.943Z</time></trkpt><trkpt lat="44.4440983" lon="8.5031"><ele>648.0</ele><time>2026-03-26T10:42:26.943Z</time></trkpt><trkpt lat="44.4441183" lon="8.5032167"><ele>649.4</ele><time>2026-03-26T10:42:28.943Z</time></trkpt><trkpt lat="44.4441367" lon="8.503345"><ele>650.8</ele><time>2026-03-26T10:42:30.944Z</time></trkpt><trkpt lat="44.444185" lon="8.5034267"><ele>652.2</ele><time>2026-03-26T10:42:32.944Z</time></trkpt><trkpt lat="44.4442883" lon="8.5034367"><ele>653.6</ele><time>2026-03-26T10:42:35.944Z</time></trkpt><trkpt lat="44.4444067" lon="8.5034017"><ele>655.0</ele><time>2026-03-26T10:42:37.943Z</time></trkpt><trkpt lat="44.4445267" lon="8.5034433"><ele>655.0</ele><time>2026-03-26T10:42:39.943Z</time></trkpt><trkpt lat="44.4445767" lon="8.5035083"><ele>655.0</ele><time>2026-03-26T10:42:40.943Z</time></trkpt><trkpt lat="44.44462" lon="8.5036"><ele>655.0</ele><time>2026-03-26T10:42:41.943Z</time></trkpt><trkpt lat="44.4446417" lon="8.50369"><ele>655.0</ele><time>2026-03-26T10:42:42.943Z</time></trkpt><trkpt lat="44.444655" lon="8.5037767"><ele>655.0</ele><time>2026-03-26T10:42:43.944Z</time></trkpt><trkpt lat="44.4446783" lon="8.5039317"><ele>655.0</ele><time>2026-03-26T10:42:45.944Z</time></trkpt><trkpt lat="44.4446983" lon="8.5040617"><ele>654.2</ele><time>2026-03-26T10:42:47.943Z</time></trkpt><trkpt lat="44.444715" lon="8.5041967"><ele>653.4</ele><time>2026-03-26T10:42:49.944Z</time></trkpt><trkpt lat="44.4447383" lon="8.5043683"><ele>652.5999999999999</ele><time>2026-03-26T10:42:51.943Z</time></trkpt><trkpt lat="44.44476" lon="8.5044867"><ele>651.8</ele><time>2026-03-26T10:42:53.943Z</time></trkpt><trkpt lat="44.44484" lon="8.5045617"><ele>651.0</ele><time>2026-03-26T10:42:56.943Z</time></trkpt><trkpt lat="44.4449083" lon="8.504595"><ele>651.0</ele><time>2026-03-26T10:42:58.943Z</time></trkpt><trkpt lat="44.4449717" lon="8.5046517"><ele>651.0</ele><time>2026-03-26T10:43:01.943Z</time></trkpt><trkpt lat="44.44504" lon="8.5047283"><ele>651.0</ele><time>2026-03-26T10:43:05.944Z</time></trkpt><trkpt lat="44.44513" lon="8.504735"><ele>651.0</ele><time>2026-03-26T10:43:09.944Z</time></trkpt><trkpt lat="44.445195" lon="8.5047833"><ele>651.0</ele><time>2026-03-26T10:43:11.943Z</time></trkpt><trkpt lat="44.445245" lon="8.504855"><ele>651.0</ele><time>2026-03-26T10:43:13.943Z</time></trkpt><trkpt lat="44.445305" lon="8.5049133"><ele>651.0</ele><time>2026-03-26T10:43:15.943Z</time></trkpt><trkpt lat="44.4453583" lon="8.504965"><ele>651.0</ele><time>2026-03-26T10:43:17.943Z</time></trkpt><trkpt lat="44.445415" lon="8.5050067"><ele>651.0</ele><time>2026-03-26T10:43:19.943Z</time></trkpt><trkpt lat="44.445505" lon="8.505035"><ele>651.0</ele><time>2026-03-26T10:43:22.944Z</time></trkpt><trkpt lat="44.4455383" lon="8.5051267"><ele>651.0</ele><time>2026-03-26T10:43:24.943Z</time></trkpt><trkpt lat="44.4455383" lon="8.5052167"><ele>651.0</ele><time>2026-03-26T10:43:25.944Z</time></trkpt><trkpt lat="44.4455217" lon="8.50533"><ele>651.0</ele><time>2026-03-26T10:43:26.944Z</time></trkpt><trkpt lat="44.4455067" lon="8.5054317"><ele>653.8333333333334</ele><time>2026-03-26T10:43:27.945Z</time></trkpt><trkpt lat="44.4455017" lon="8.5055483"><ele>656.6666666666666</ele><time>2026-03-26T10:43:29.944Z</time></trkpt><trkpt lat="44.4455467" lon="8.5056517"><ele>659.5</ele><time>2026-03-26T10:43:34.944Z</time></trkpt><trkpt lat="44.4455783" lon="8.5057417"><ele>662.3333333333333</ele><time>2026-03-26T10:43:38.945Z</time></trkpt><trkpt lat="44.4456167" lon="8.5058383"><ele>665.1666666666666</ele><time>2026-03-26T10:43:42.945Z</time></trkpt><trkpt lat="44.4456567" lon="8.5059467"><ele>668.0</ele><time>2026-03-26T10:43:48.945Z</time></trkpt><trkpt lat="44.4456833" lon="8.50607"><ele>668.0</ele><time>2026-03-26T10:43:51.945Z</time></trkpt><trkpt lat="44.4457" lon="8.5061767"><ele>668.0</ele><time>2026-03-26T10:43:53.944Z</time></trkpt><trkpt lat="44.4457083" lon="8.5062833"><ele>668.0</ele><time>2026-03-26T10:43:55.944Z</time></trkpt><trkpt lat="44.4457" lon="8.506375"><ele>668.0</ele><time>2026-03-26T10:43:57.945Z</time></trkpt><trkpt lat="44.44571" lon="8.5064767"><ele>668.0</ele><time>2026-03-26T10:43:59.945Z</time></trkpt><trkpt lat="44.4457417" lon="8.5065717"><ele>668.0</ele><time>2026-03-26T10:44:01.944Z</time></trkpt><trkpt lat="44.44582" lon="8.5066917"><ele>669.0</ele><time>2026-03-26T10:44:18.945Z</time></trkpt><trkpt lat="44.445855" lon="8.50678"><ele>670.0</ele><time>2026-03-26T10:44:21.944Z</time></trkpt><trkpt lat="44.4459083" lon="8.5068883"><ele>671.0</ele><time>2026-03-26T10:44:24.945Z</time></trkpt><trkpt lat="44.445945" lon="8.506985"><ele>672.0</ele><time>2026-03-26T10:44:26.945Z</time></trkpt><trkpt lat="44.4459783" lon="8.5071067"><ele>673.0</ele><time>2026-03-26T10:44:29.944Z</time></trkpt><trkpt lat="44.446005" lon="8.5072117"><ele>674.0</ele><time>2026-03-26T10:44:31.944Z</time></trkpt><trkpt lat="44.4460067" lon="8.5073567"><ele>674.8333333333333</ele><time>2026-03-26T10:44:33.944Z</time></trkpt><trkpt lat="44.4460083" lon="8.5074817"><ele>675.6666666666666</ele><time>2026-03-26T10:44:35.945Z</time></trkpt><trkpt lat="44.4459933" lon="8.5075867"><ele>676.5</ele><time>2026-03-26T10:44:37.945Z</time></trkpt><trkpt lat="44.4459833" lon="8.5077067"><ele>677.3333333333334</ele><time>2026-03-26T10:44:39.945Z</time></trkpt><trkpt lat="44.4459883" lon="8.507805"><ele>678.1666666666667</ele><time>2026-03-26T10:44:41.944Z</time></trkpt><trkpt lat="44.4459917" lon="8.5079"><ele>679.0</ele><time>2026-03-26T10:44:43.944Z</time></trkpt><trkpt lat="44.4460233" lon="8.5079967"><ele>680.6666666666667</ele><time>2026-03-26T10:44:53.944Z</time></trkpt><trkpt lat="44.4460583" lon="8.50812"><ele>682.3333333333334</ele><time>2026-03-26T10:44:55.945Z</time></trkpt><trkpt lat="44.4460733" lon="8.5082517"><ele>684.0</ele><time>2026-03-26T10:44:57.945Z</time></trkpt><trkpt lat="44.4461" lon="8.5083767"><ele>685.6666666666666</ele><time>2026-03-26T10:44:59.945Z</time></trkpt><trkpt lat="44.446125" lon="8.5084617"><ele>687.3333333333333</ele><time>2026-03-26T10:45:01.944Z</time></trkpt><trkpt lat="44.44617" lon="8.5085733"><ele>689.0</ele><time>2026-03-26T10:45:03.944Z</time></trkpt><trkpt lat="44.4461933" lon="8.5086567"><ele>689.6666666666666</ele><time>2026-03-26T10:45:04.945Z</time></trkpt><trkpt lat="44.4462117" lon="8.508745"><ele>690.3333333333333</ele><time>2026-03-26T10:45:05.945Z</time></trkpt><trkpt lat="44.4462233" lon="8.5088367"><ele>691.0</ele><time>2026-03-26T10:45:06.945Z</time></trkpt><trkpt lat="44.446255" lon="8.508975"><ele>691.6666666666666</ele><time>2026-03-26T10:45:08.944Z</time></trkpt><trkpt lat="44.446335" lon="8.5090167"><ele>692.3333333333334</ele><time>2026-03-26T10:45:10.944Z</time></trkpt><trkpt lat="44.44643" lon="8.50896"><ele>693.0</ele><time>2026-03-26T10:45:12.945Z</time></trkpt><trkpt lat="44.4465067" lon="8.5088567"><ele>694.4</ele><time>2026-03-26T10:45:14.945Z</time></trkpt><trkpt lat="44.446555" lon="8.5087283"><ele>695.8</ele><time>2026-03-26T10:45:16.945Z</time></trkpt><trkpt lat="44.4465967" lon="8.50861"><ele>697.2</ele><time>2026-03-26T10:45:18.944Z</time></trkpt><trkpt lat="44.4466417" lon="8.5085333"><ele>698.6</ele><time>2026-03-26T10:45:20.945Z</time></trkpt><trkpt lat="44.4467317" lon="8.5085267"><ele>700.0</ele><time>2026-03-26T10:45:23.945Z</time></trkpt><trkpt lat="44.44683" lon="8.5085383"><ele>700.0</ele><time>2026-03-26T10:45:26.945Z</time></trkpt><trkpt lat="44.4469417" lon="8.5085267"><ele>700.0</ele><time>2026-03-26T10:45:28.944Z</time></trkpt><trkpt lat="44.4470083" lon="8.50851"><ele>700.0</ele><time>2026-03-26T10:45:29.944Z</time></trkpt><trkpt lat="44.4470883" lon="8.5084883"><ele>700.0</ele><time>2026-03-26T10:45:30.945Z</time></trkpt><trkpt lat="44.4471517" lon="8.508465"><ele>700.0</ele><time>2026-03-26T10:45:31.944Z</time></trkpt><trkpt lat="44.44725" lon="8.5084517"><ele>700.0</ele><time>2026-03-26T10:45:33.944Z</time></trkpt><trkpt lat="44.4473383" lon="8.508485"><ele>706.0</ele><time>2026-03-26T10:45:35.945Z</time></trkpt><trkpt lat="44.4474317" lon="8.5085617"><ele>712.0</ele><time>2026-03-26T10:45:37.945Z</time></trkpt><trkpt lat="44.4475117" lon="8.5086417"><ele>718.0</ele><time>2026-03-26T10:45:39.944Z</time></trkpt><trkpt lat="44.4475967" lon="8.508755"><ele>724.0</ele><time>2026-03-26T10:45:41.945Z</time></trkpt><trkpt lat="44.4476467" lon="8.5088817"><ele>730.0</ele><time>2026-03-26T10:45:43.944Z</time></trkpt><trkpt lat="44.4476683" lon="8.508965"><ele>730.1666666666667</ele><time>2026-03-26T10:45:44.945Z</time></trkpt><trkpt lat="44.4476883" lon="8.5091217"><ele>730.3333333333334</ele><time>2026-03-26T10:45:46.944Z</time></trkpt><trkpt lat="44.4476767" lon="8.50921"><ele>730.5</ele><time>2026-03-26T10:45:47.944Z</time></trkpt><trkpt lat="44.4476583" lon="8.50931"><ele>730.6666666666666</ele><time>2026-03-26T10:45:48.945Z</time></trkpt><trkpt lat="44.4476433" lon="8.509425"><ele>730.8333333333333</ele><time>2026-03-26T10:45:49.945Z</time></trkpt><trkpt lat="44.44764" lon="8.5095383"><ele>731.0</ele><time>2026-03-26T10:45:50.945Z</time></trkpt><trkpt lat="44.4476467" lon="8.5096617"><ele>731.3333333333333</ele><time>2026-03-26T10:45:51.945Z</time></trkpt><trkpt lat="44.4476517" lon="8.50977"><ele>731.6666666666666</ele><time>2026-03-26T10:45:52.945Z</time></trkpt><trkpt lat="44.447645" lon="8.509865"><ele>732.0</ele><time>2026-03-26T10:45:53.944Z</time></trkpt><trkpt lat="44.4476333" lon="8.509995"><ele>732.3333333333334</ele><time>2026-03-26T10:45:55.945Z</time></trkpt><trkpt lat="44.4476617" lon="8.5101017"><ele>732.6666666666667</ele><time>2026-03-26T10:45:57.944Z</time></trkpt><trkpt lat="44.4476817" lon="8.51024"><ele>733.0</ele><time>2026-03-26T10:46:00.945Z</time></trkpt><trkpt lat="44.4476467" lon="8.5104233"><ele>734.4</ele><time>2026-03-26T10:46:02.944Z</time></trkpt><trkpt lat="44.447625" lon="8.5105217"><ele>735.8</ele><time>2026-03-26T10:46:03.944Z</time></trkpt><trkpt lat="44.4475967" lon="8.5106183"><ele>737.2</ele><time>2026-03-26T10:46:04.944Z</time></trkpt><trkpt lat="44.4475817" lon="8.51078"><ele>738.6</ele><time>2026-03-26T10:46:06.945Z</time></trkpt><trkpt lat="44.4476083" lon="8.5109217"><ele>740.0</ele><time>2026-03-26T10:46:08.945Z</time></trkpt><trkpt lat="44.447685" lon="8.51105"><ele>740.0</ele><time>2026-03-26T10:46:10.944Z</time></trkpt><trkpt lat="44.4477433" lon="8.5111883"><ele>740.0</ele><time>2026-03-26T10:46:12.944Z</time></trkpt><trkpt lat="44.44779" lon="8.5113267"><ele>740.0</ele><time>2026-03-26T10:46:14.944Z</time></trkpt><trkpt lat="44.447825" lon="8.51145"><ele>740.0</ele><time>2026-03-26T10:46:16.945Z</time></trkpt><trkpt lat="44.4478633" lon="8.5115967"><ele>740.0</ele><time>2026-03-26T10:46:18.945Z</time></trkpt><trkpt lat="44.4479083" lon="8.5117117"><ele>745.6666666666666</ele><time>2026-03-26T10:46:20.945Z</time></trkpt><trkpt lat="44.4479783" lon="8.511695"><ele>751.3333333333333</ele><time>2026-03-26T10:46:22.945Z</time></trkpt><trkpt lat="44.4480483" lon="8.5115933"><ele>757.0</ele><time>2026-03-26T10:46:24.945Z</time></trkpt><trkpt lat="44.44807" lon="8.511505"><ele>762.6666666666666</ele><time>2026-03-26T10:46:26.945Z</time></trkpt><trkpt lat="44.4481067" lon="8.5114067"><ele>768.3333333333334</ele><time>2026-03-26T10:46:29.944Z</time></trkpt><trkpt lat="44.4481533" lon="8.5113217"><ele>774.0</ele><time>2026-03-26T10:46:33.944Z</time></trkpt><trkpt lat="44.4481983" lon="8.51125"><ele>773.6666666666666</ele><time>2026-03-26T10:46:37.945Z</time></trkpt><trkpt lat="44.4482567" lon="8.5111833"><ele>773.3333333333333</ele><time>2026-03-26T10:46:40.944Z</time></trkpt><trkpt lat="44.448335" lon="8.5110983"><ele>773.0</ele><time>2026-03-26T10:46:42.944Z</time></trkpt><trkpt lat="44.4483783" lon="8.5110267"><ele>772.6666666666666</ele><time>2026-03-26T10:46:43.944Z</time></trkpt><trkpt lat="44.448435" lon="8.5109517"><ele>772.3333333333333</ele><time>2026-03-26T10:46:44.945Z</time></trkpt><trkpt lat="44.448495" lon="8.5108833"><ele>772.0</ele><time>2026-03-26T10:46:45.945Z</time></trkpt><trkpt lat="44.448545" lon="8.5108183"><ele>772.0</ele><time>2026-03-26T10:46:46.944Z</time></trkpt><trkpt lat="44.4486133" lon="8.5107233"><ele>772.0</ele><time>2026-03-26T10:46:48.944Z</time></trkpt><trkpt lat="44.4486833" lon="8.5106217"><ele>772.0</ele><time>2026-03-26T10:46:50.944Z</time></trkpt><trkpt lat="44.4487733" lon="8.510555"><ele>772.0</ele><time>2026-03-26T10:46:52.945Z</time></trkpt><trkpt lat="44.4488617" lon="8.5104967"><ele>772.0</ele><time>2026-03-26T10:46:54.945Z</time></trkpt><trkpt lat="44.448965" lon="8.510415"><ele>776.6666666666666</ele><time>2026-03-26T10:46:56.945Z</time></trkpt><trkpt lat="44.449025" lon="8.5103433"><ele>781.3333333333333</ele><time>2026-03-26T10:46:58.944Z</time></trkpt><trkpt lat="44.4490433" lon="8.5102567"><ele>786.0</ele><time>2026-03-26T10:47:03.945Z</time></trkpt><trkpt lat="44.4490317" lon="8.510155"><ele>790.6666666666667</ele><time>2026-03-26T10:47:06.944Z</time></trkpt><trkpt lat="44.4490583" lon="8.5100433"><ele>795.3333333333334</ele><time>2026-03-26T10:47:08.944Z</time></trkpt><trkpt lat="44.4490783" lon="8.509895"><ele>800.0</ele><time>2026-03-26T10:47:10.944Z</time></trkpt><trkpt lat="44.4490617" lon="8.5097483"><ele>800.0000000000001</ele><time>2026-03-26T10:47:12.944Z</time></trkpt><trkpt lat="44.4490233" lon="8.5096117"><ele>800.0</ele><time>2026-03-26T10:47:14.945Z</time></trkpt><trkpt lat="44.4489683" lon="8.5095067"><ele>800.0</ele><time>2026-03-26T10:47:16.944Z</time></trkpt><trkpt lat="44.4489367" lon="8.5094217"><ele>800.0</ele><time>2026-03-26T10:47:31.944Z</time></trkpt><trkpt lat="44.4489267" lon="8.5093233"><ele>800.0000000000001</ele><time>2026-03-26T10:47:32.944Z</time></trkpt><trkpt lat="44.44892" lon="8.5092"><ele>800.0</ele><time>2026-03-26T10:47:33.944Z</time></trkpt><trkpt lat="44.448915" lon="8.5090933"><ele>800.6666666666667</ele><time>2026-03-26T10:47:34.944Z</time></trkpt><trkpt lat="44.4489217" lon="8.5089883"><ele>801.3333333333334</ele><time>2026-03-26T10:47:35.945Z</time></trkpt><trkpt lat="44.4489333" lon="8.5088967"><ele>802.0</ele><time>2026-03-26T10:47:36.945Z</time></trkpt><trkpt lat="44.448965" lon="8.5087917"><ele>802.6666666666667</ele><time>2026-03-26T10:47:37.944Z</time></trkpt><trkpt lat="44.4490133" lon="8.5086917"><ele>803.3333333333334</ele><time>2026-03-26T10:47:38.944Z</time></trkpt><trkpt lat="44.4490367" lon="8.5085917"><ele>804.0</ele><time>2026-03-26T10:47:39.944Z</time></trkpt><trkpt lat="44.4490217" lon="8.5084533"><ele>805.0</ele><time>2026-03-26T10:47:41.945Z</time></trkpt><trkpt lat="44.4489767" lon="8.5083183"><ele>806.0</ele><time>2026-03-26T10:47:43.945Z</time></trkpt><trkpt lat="44.448945" lon="8.5082217"><ele>807.0</ele><time>2026-03-26T10:47:44.945Z</time></trkpt><trkpt lat="44.4489" lon="8.508135"><ele>808.0</ele><time>2026-03-26T10:47:45.944Z</time></trkpt><trkpt lat="44.44885" lon="8.5080433"><ele>809.0</ele><time>2026-03-26T10:47:46.944Z</time></trkpt><trkpt lat="44.448805" lon="8.50794"><ele>810.0</ele><time>2026-03-26T10:47:47.945Z</time></trkpt><trkpt lat="44.4487633" lon="8.5078567"><ele>804.4</ele><time>2026-03-26T10:47:48.944Z</time></trkpt><trkpt lat="44.4487433" lon="8.5077267"><ele>798.8</ele><time>2026-03-26T10:47:50.945Z</time></trkpt><trkpt lat="44.4487567" lon="8.5075983"><ele>793.2</ele><time>2026-03-26T10:47:52.945Z</time></trkpt><trkpt lat="44.44875" lon="8.5074183"><ele>787.6</ele><time>2026-03-26T10:47:54.945Z</time></trkpt><trkpt lat="44.44874" lon="8.5073283"><ele>782.0</ele><time>2026-03-26T10:47:55.944Z</time></trkpt><trkpt lat="44.448735" lon="8.507165"><ele>780.8</ele><time>2026-03-26T10:47:57.945Z</time></trkpt><trkpt lat="44.4487433" lon="8.5070167"><ele>779.6</ele><time>2026-03-26T10:47:59.944Z</time></trkpt><trkpt lat="44.4487483" lon="8.5068467"><ele>778.4</ele><time>2026-03-26T10:48:01.945Z</time></trkpt><trkpt lat="44.448745" lon="8.5067567"><ele>777.1999999999999</ele><time>2026-03-26T10:48:02.945Z</time></trkpt><trkpt lat="44.44874" lon="8.5066133"><ele>776.0</ele><time>2026-03-26T10:48:04.944Z</time></trkpt><trkpt lat="44.4487483" lon="8.5064967"><ele>776.0</ele><time>2026-03-26T10:48:06.944Z</time></trkpt><trkpt lat="44.4487533" lon="8.5063783"><ele>776.0</ele><time>2026-03-26T10:48:08.944Z</time></trkpt><trkpt lat="44.4487717" lon="8.5062633"><ele>776.0</ele><time>2026-03-26T10:48:10.944Z</time></trkpt><trkpt lat="44.4488133" lon="8.50613"><ele>776.0</ele><time>2026-03-26T10:48:12.945Z</time></trkpt><trkpt lat="44.44881" lon="8.5059817"><ele>776.0</ele><time>2026-03-26T10:48:14.944Z</time></trkpt><trkpt lat="44.448785" lon="8.50587"><ele>775.0</ele><time>2026-03-26T10:48:16.945Z</time></trkpt><trkpt lat="44.4487933" lon="8.5057283"><ele>774.0</ele><time>2026-03-26T10:49:10.944Z</time></trkpt><trkpt lat="44.4487783" lon="8.5056"><ele>773.0</ele><time>2026-03-26T10:49:13.945Z</time></trkpt><trkpt lat="44.448755" lon="8.5054933"><ele>772.0</ele><time>2026-03-26T10:49:15.945Z</time></trkpt><trkpt lat="44.4487367" lon="8.505385"><ele>771.0</ele><time>2026-03-26T10:49:17.944Z</time></trkpt><trkpt lat="44.4487167" lon="8.505225"><ele>771.0</ele><time>2026-03-26T10:49:37.944Z</time></trkpt><trkpt lat="44.4486567" lon="8.5053017"><ele>771.0</ele><time>2026-03-26T10:49:40.945Z</time></trkpt><trkpt lat="44.4486" lon="8.50538"><ele>771.0</ele><time>2026-03-26T10:49:42.945Z</time></trkpt><trkpt lat="44.448595" lon="8.5054683"><ele>771.0</ele><time>2026-03-26T10:49:44.944Z</time></trkpt><trkpt lat="44.44863" lon="8.5055667"><ele>771.0</ele><time>2026-03-26T10:49:47.945Z</time></trkpt><trkpt lat="44.4486133" lon="8.5054467"><ele>771.0</ele><time>2026-03-26T10:51:11.945Z</time></trkpt><trkpt lat="44.4486567" lon="8.505335"><ele>771.0</ele><time>2026-03-26T10:51:14.944Z</time></trkpt><trkpt lat="44.4487" lon="8.5052417"><ele>771.0</ele><time>2026-03-26T10:51:16.944Z</time></trkpt><trkpt lat="44.448745" lon="8.5053167"><ele>771.0</ele><time>2026-03-26T10:51:35.945Z</time></trkpt><trkpt lat="44.4487833" lon="8.5054167"><ele>771.0</ele><time>2026-03-26T10:51:38.946Z</time></trkpt><trkpt lat="44.4488067" lon="8.505535"><ele>771.0</ele><time>2026-03-26T10:51:41.945Z</time></trkpt><trkpt lat="44.4487917" lon="8.5056367"><ele>771.0</ele><time>2026-03-26T10:51:45.945Z</time></trkpt><trkpt lat="44.4488133" lon="8.5055417"><ele>771.0</ele><time>2026-03-26T10:55:35.945Z</time></trkpt><trkpt lat="44.44879" lon="8.505425"><ele>771.0</ele><time>2026-03-26T10:55:38.945Z</time></trkpt><trkpt lat="44.448775" lon="8.505315"><ele>771.0</ele><time>2026-03-26T10:55:40.945Z</time></trkpt><trkpt lat="44.4487617" lon="8.5052117"><ele>771.0</ele><time>2026-03-26T10:55:42.945Z</time></trkpt><trkpt lat="44.4487667" lon="8.50511"><ele>771.0</ele><time>2026-03-26T10:55:44.945Z</time></trkpt><trkpt lat="44.4487933" lon="8.504955"><ele>771.0</ele><time>2026-03-26T10:55:46.946Z</time></trkpt><trkpt lat="44.448825" lon="8.5048667"><ele>768.6666666666666</ele><time>2026-03-26T10:55:47.946Z</time></trkpt><trkpt lat="44.4488517" lon="8.50478"><ele>766.3333333333334</ele><time>2026-03-26T10:55:48.946Z</time></trkpt><trkpt lat="44.4488783" lon="8.5047"><ele>764.0</ele><time>2026-03-26T10:55:49.946Z</time></trkpt><trkpt lat="44.44889" lon="8.5045933"><ele>761.6666666666667</ele><time>2026-03-26T10:55:51.945Z</time></trkpt><trkpt lat="44.4488183" lon="8.5045317"><ele>759.3333333333334</ele><time>2026-03-26T10:55:55.946Z</time></trkpt><trkpt lat="44.448735" lon="8.5044983"><ele>757.0</ele><time>2026-03-26T10:55:59.946Z</time></trkpt><trkpt lat="44.448675" lon="8.5044433"><ele>757.0</ele><time>2026-03-26T10:56:01.945Z</time></trkpt><trkpt lat="44.4486367" lon="8.5043667"><ele>757.0</ele><time>2026-03-26T10:56:03.946Z</time></trkpt><trkpt lat="44.4486217" lon="8.50427"><ele>757.0</ele><time>2026-03-26T10:56:09.946Z</time></trkpt><trkpt lat="44.4485533" lon="8.5041767"><ele>757.0</ele><time>2026-03-26T10:56:16.945Z</time></trkpt><trkpt lat="44.4484733" lon="8.504125"><ele>757.0</ele><time>2026-03-26T10:56:19.945Z</time></trkpt><trkpt lat="44.4484067" lon="8.504135"><ele>757.0</ele><time>2026-03-26T10:56:21.946Z</time></trkpt><trkpt lat="44.4483183" lon="8.5040983"><ele>757.0</ele><time>2026-03-26T10:56:24.946Z</time></trkpt><trkpt lat="44.4482633" lon="8.5040133"><ele>757.0</ele><time>2026-03-26T10:56:27.945Z</time></trkpt><trkpt lat="44.4482483" lon="8.5039133"><ele>757.0</ele><time>2026-03-26T10:56:30.945Z</time></trkpt><trkpt lat="44.4482217" lon="8.5038133"><ele>757.0</ele><time>2026-03-26T10:56:33.946Z</time></trkpt><trkpt lat="44.448185" lon="8.503695"><ele>757.0</ele><time>2026-03-26T10:56:36.946Z</time></trkpt><trkpt lat="44.44818" lon="8.5035683"><ele>757.0</ele><time>2026-03-26T10:56:39.946Z</time></trkpt><trkpt lat="44.4481617" lon="8.50347"><ele>755.1666666666667</ele><time>2026-03-26T10:56:42.945Z</time></trkpt><trkpt lat="44.4481433" lon="8.5033667"><ele>753.3333333333334</ele><time>2026-03-26T10:56:45.946Z</time></trkpt><trkpt lat="44.4481667" lon="8.50317"><ele>751.5</ele><time>2026-03-26T11:00:39.947Z</time></trkpt><trkpt lat="44.448075" lon="8.50316"><ele>749.6666666666666</ele><time>2026-03-26T11:14:00.948Z</time></trkpt><trkpt lat="44.4480083" lon="8.50316"><ele>747.8333333333333</ele><time>2026-03-26T11:14:02.947Z</time></trkpt><trkpt lat="44.4479467" lon="8.5031833"><ele>746.0</ele><time>2026-03-26T11:14:05.948Z</time></trkpt><trkpt lat="44.447865" lon="8.5032133"><ele>739.6666666666666</ele><time>2026-03-26T11:14:08.947Z</time></trkpt><trkpt lat="44.4477933" lon="8.5031917"><ele>733.3333333333333</ele><time>2026-03-26T11:14:10.947Z</time></trkpt><trkpt lat="44.44775" lon="8.503125"><ele>727.0</ele><time>2026-03-26T11:14:13.947Z</time></trkpt><trkpt lat="44.4477267" lon="8.503015"><ele>720.6666666666666</ele><time>2026-03-26T11:14:19.947Z</time></trkpt><trkpt lat="44.4477283" lon="8.5028283"><ele>714.3333333333334</ele><time>2026-03-26T11:14:39.947Z</time></trkpt><trkpt lat="44.447725" lon="8.5027167"><ele>708.0</ele><time>2026-03-26T11:14:41.948Z</time></trkpt><trkpt lat="44.4477267" lon="8.5025917"><ele>707.8333333333334</ele><time>2026-03-26T11:14:45.947Z</time></trkpt><trkpt lat="44.4477317" lon="8.5024817"><ele>707.6666666666666</ele><time>2026-03-26T11:14:48.947Z</time></trkpt><trkpt lat="44.4477317" lon="8.5023733"><ele>707.5</ele><time>2026-03-26T11:14:51.948Z</time></trkpt><trkpt lat="44.4477517" lon="8.5022417"><ele>707.3333333333333</ele><time>2026-03-26T11:14:54.947Z</time></trkpt><trkpt lat="44.4477833" lon="8.5021483"><ele>707.1666666666666</ele><time>2026-03-26T11:14:56.947Z</time></trkpt><trkpt lat="44.4477633" lon="8.5019867"><ele>707.0</ele><time>2026-03-26T11:15:07.948Z</time></trkpt><trkpt lat="44.44777" lon="8.5018133"><ele>707.4000000000001</ele><time>2026-03-26T11:15:09.948Z</time></trkpt><trkpt lat="44.4477867" lon="8.5016417"><ele>707.8000000000001</ele><time>2026-03-26T11:15:11.947Z</time></trkpt><trkpt lat="44.44779" lon="8.5014817"><ele>708.2</ele><time>2026-03-26T11:15:13.947Z</time></trkpt><trkpt lat="44.4478033" lon="8.5013383"><ele>708.6</ele><time>2026-03-26T11:15:15.948Z</time></trkpt><trkpt lat="44.447845" lon="8.5012017"><ele>709.0</ele><time>2026-03-26T11:15:17.948Z</time></trkpt><trkpt lat="44.447895" lon="8.5010633"><ele>709.0</ele><time>2026-03-26T11:15:19.947Z</time></trkpt><trkpt lat="44.4479483" lon="8.5009617"><ele>709.0</ele><time>2026-03-26T11:15:21.947Z</time></trkpt><trkpt lat="44.448035" lon="8.5008133"><ele>709.0</ele><time>2026-03-26T11:15:48.948Z</time></trkpt><trkpt lat="44.4480967" lon="8.50077"><ele>709.0</ele><time>2026-03-26T11:15:51.947Z</time></trkpt><trkpt lat="44.4481017" lon="8.500645"><ele>709.0</ele><time>2026-03-26T11:16:04.948Z</time></trkpt><trkpt lat="44.4481433" lon="8.5005783"><ele>709.0</ele><time>2026-03-26T11:16:08.947Z</time></trkpt><trkpt lat="44.4482083" lon="8.5005933"><ele>716.4000000000001</ele><time>2026-03-26T11:16:13.947Z</time></trkpt><trkpt lat="44.44826" lon="8.5006483"><ele>723.8</ele><time>2026-03-26T11:16:16.947Z</time></trkpt><trkpt lat="44.4483633" lon="8.500775"><ele>731.2</ele><time>2026-03-26T11:18:43.948Z</time></trkpt><trkpt lat="44.4484333" lon="8.5007767"><ele>738.5999999999999</ele><time>2026-03-26T11:18:47.947Z</time></trkpt><trkpt lat="44.44852" lon="8.5007467"><ele>746.0</ele><time>2026-03-26T11:19:34.949Z</time></trkpt><trkpt lat="44.4486183" lon="8.5006717"><ele>746.0</ele><time>2026-03-26T11:20:10.949Z</time></trkpt><trkpt lat="44.4487" lon="8.5006583"><ele>746.0</ele><time>2026-03-26T11:20:13.948Z</time></trkpt><trkpt lat="44.4487817" lon="8.5006383"><ele>746.0</ele><time>2026-03-26T11:20:16.948Z</time></trkpt><trkpt lat="44.4488483" lon="8.5006033"><ele>746.0</ele><time>2026-03-26T11:20:18.948Z</time></trkpt><trkpt lat="44.4489167" lon="8.50057"><ele>746.0</ele><time>2026-03-26T11:20:20.948Z</time></trkpt><trkpt lat="44.4489783" lon="8.500545"><ele>746.0</ele><time>2026-03-26T11:20:22.948Z</time></trkpt><trkpt lat="44.4490433" lon="8.5004533"><ele>747.5</ele><time>2026-03-26T11:20:50.949Z</time></trkpt><trkpt lat="44.4490433" lon="8.5003533"><ele>749.0</ele><time>2026-03-26T11:20:52.948Z</time></trkpt><trkpt lat="44.449045" lon="8.5002533"><ele>750.5</ele><time>2026-03-26T11:20:54.949Z</time></trkpt><trkpt lat="44.4490483" lon="8.5001317"><ele>752.0</ele><time>2026-03-26T11:20:57.948Z</time></trkpt><trkpt lat="44.44904" lon="8.5000433"><ele>753.5</ele><time>2026-03-26T11:20:59.948Z</time></trkpt><trkpt lat="44.44899" lon="8.4999483"><ele>755.0</ele><time>2026-03-26T11:21:02.948Z</time></trkpt><trkpt lat="44.448945" lon="8.499835"><ele>755.0</ele><time>2026-03-26T11:21:08.949Z</time></trkpt><trkpt lat="44.44893" lon="8.4997333"><ele>755.0</ele><time>2026-03-26T11:21:11.949Z</time></trkpt><trkpt lat="44.4489467" lon="8.4996233"><ele>755.0</ele><time>2026-03-26T11:21:15.948Z</time></trkpt><trkpt lat="44.44895" lon="8.4995133"><ele>755.0</ele><time>2026-03-26T11:21:18.948Z</time></trkpt><trkpt lat="44.4489583" lon="8.4993933"><ele>755.0</ele><time>2026-03-26T11:21:21.949Z</time></trkpt><trkpt lat="44.4489867" lon="8.499285"><ele>755.0</ele><time>2026-03-26T11:21:25.948Z</time></trkpt><trkpt lat="44.4490283" lon="8.4991783"><ele>754.4</ele><time>2026-03-26T11:21:28.948Z</time></trkpt><trkpt lat="44.4490633" lon="8.49905"><ele>753.8</ele><time>2026-03-26T11:21:30.948Z</time></trkpt><trkpt lat="44.449095" lon="8.4988683"><ele>753.2</ele><time>2026-03-26T11:21:32.948Z</time></trkpt><trkpt lat="44.4491083" lon="8.4987617"><ele>752.6</ele><time>2026-03-26T11:21:33.948Z</time></trkpt><trkpt lat="44.4491233" lon="8.49866"><ele>752.0</ele><time>2026-03-26T11:21:34.948Z</time></trkpt><trkpt lat="44.4491667" lon="8.4984933"><ele>752.0</ele><time>2026-03-26T11:21:36.948Z</time></trkpt><trkpt lat="44.449225" lon="8.4983683"><ele>752.0</ele><time>2026-03-26T11:21:38.949Z</time></trkpt><trkpt lat="44.44928" lon="8.4982483"><ele>752.0</ele><time>2026-03-26T11:21:40.948Z</time></trkpt><trkpt lat="44.4493617" lon="8.4981183"><ele>752.0</ele><time>2026-03-26T11:21:42.949Z</time></trkpt><trkpt lat="44.449435" lon="8.4980267"><ele>752.0</ele><time>2026-03-26T11:21:44.948Z</time></trkpt><trkpt lat="44.4494967" lon="8.497965"><ele>750.1666666666666</ele><time>2026-03-26T11:21:46.949Z</time></trkpt><trkpt lat="44.4495633" lon="8.4979133"><ele>748.3333333333333</ele><time>2026-03-26T11:21:48.949Z</time></trkpt><trkpt lat="44.44962" lon="8.4978317"><ele>746.5</ele><time>2026-03-26T11:21:50.949Z</time></trkpt><trkpt lat="44.4496633" lon="8.4977367"><ele>744.6666666666666</ele><time>2026-03-26T11:21:52.948Z</time></trkpt><trkpt lat="44.4497567" lon="8.497705"><ele>742.8333333333334</ele><time>2026-03-26T11:21:55.948Z</time></trkpt><trkpt lat="44.449835" lon="8.4976383"><ele>741.0</ele><time>2026-03-26T11:21:57.949Z</time></trkpt><trkpt lat="44.4499017" lon="8.4975483"><ele>740.0</ele><time>2026-03-26T11:21:59.948Z</time></trkpt><trkpt lat="44.4500033" lon="8.497455"><ele>739.0</ele><time>2026-03-26T11:22:01.949Z</time></trkpt><trkpt lat="44.4500683" lon="8.497415"><ele>738.0</ele><time>2026-03-26T11:22:02.948Z</time></trkpt><trkpt lat="44.4501267" lon="8.49738"><ele>737.0</ele><time>2026-03-26T11:22:03.948Z</time></trkpt><trkpt lat="44.450185" lon="8.49734"><ele>736.0</ele><time>2026-03-26T11:22:04.948Z</time></trkpt><trkpt lat="44.450245" lon="8.4972983"><ele>735.0</ele><time>2026-03-26T11:22:05.949Z</time></trkpt><trkpt lat="44.45035" lon="8.4972167"><ele>735.0</ele><time>2026-03-26T11:22:07.948Z</time></trkpt><trkpt lat="44.4504467" lon="8.4971617"><ele>735.0</ele><time>2026-03-26T11:22:09.948Z</time></trkpt><trkpt lat="44.4505483" lon="8.49717"><ele>735.0</ele><time>2026-03-26T11:22:11.949Z</time></trkpt><trkpt lat="44.45061" lon="8.49719"><ele>735.0</ele><time>2026-03-26T11:22:12.948Z</time></trkpt><trkpt lat="44.4507267" lon="8.4972217"><ele>735.0</ele><time>2026-03-26T11:22:14.949Z</time></trkpt><trkpt lat="44.4508467" lon="8.49722"><ele>731.2</ele><time>2026-03-26T11:22:16.948Z</time></trkpt><trkpt lat="44.45091" lon="8.4971983"><ele>727.4</ele><time>2026-03-26T11:22:17.948Z</time></trkpt><trkpt lat="44.4510017" lon="8.4971633"><ele>723.5999999999999</ele><time>2026-03-26T11:22:19.949Z</time></trkpt><trkpt lat="44.4511067" lon="8.4971033"><ele>719.8</ele><time>2026-03-26T11:22:21.949Z</time></trkpt><trkpt lat="44.451205" lon="8.4970617"><ele>716.0</ele><time>2026-03-26T11:22:23.948Z</time></trkpt><trkpt lat="44.451295" lon="8.4970217"><ele>713.0</ele><time>2026-03-26T11:22:25.948Z</time></trkpt><trkpt lat="44.451385" lon="8.4969633"><ele>710.0</ele><time>2026-03-26T11:22:27.949Z</time></trkpt><trkpt lat="44.4514733" lon="8.4969117"><ele>707.0</ele><time>2026-03-26T11:22:29.948Z</time></trkpt><trkpt lat="44.4515483" lon="8.4968633"><ele>704.0</ele><time>2026-03-26T11:22:42.948Z</time></trkpt><trkpt lat="44.4516467" lon="8.4968133"><ele>701.0</ele><time>2026-03-26T11:22:44.949Z</time></trkpt><trkpt lat="44.4517333" lon="8.4967617"><ele>701.0</ele><time>2026-03-26T11:22:45.949Z</time></trkpt><trkpt lat="44.451825" lon="8.4967033"><ele>701.0</ele><time>2026-03-26T11:22:46.948Z</time></trkpt><trkpt lat="44.45191" lon="8.4966367"><ele>701.0</ele><time>2026-03-26T11:22:47.949Z</time></trkpt><trkpt lat="44.4519767" lon="8.4965733"><ele>701.0</ele><time>2026-03-26T11:22:48.948Z</time></trkpt><trkpt lat="44.4520233" lon="8.4965133"><ele>701.0</ele><time>2026-03-26T11:22:49.949Z</time></trkpt><trkpt lat="44.4521033" lon="8.4963933"><ele>698.0</ele><time>2026-03-26T11:22:51.948Z</time></trkpt><trkpt lat="44.4521817" lon="8.4962633"><ele>695.0</ele><time>2026-03-26T11:22:53.948Z</time></trkpt><trkpt lat="44.452255" lon="8.4961417"><ele>692.0</ele><time>2026-03-26T11:22:55.948Z</time></trkpt><trkpt lat="44.45229" lon="8.4960083"><ele>689.0</ele><time>2026-03-26T11:22:57.948Z</time></trkpt><trkpt lat="44.452315" lon="8.495915"><ele>686.0</ele><time>2026-03-26T11:22:59.948Z</time></trkpt><trkpt lat="44.4523583" lon="8.49583"><ele>686.0</ele><time>2026-03-26T11:23:03.948Z</time></trkpt><trkpt lat="44.4524767" lon="8.4956983"><ele>686.0</ele><time>2026-03-26T11:23:24.949Z</time></trkpt><trkpt lat="44.45258" lon="8.4955817"><ele>686.0</ele><time>2026-03-26T11:23:26.949Z</time></trkpt><trkpt lat="44.45264" lon="8.4955067"><ele>686.0</ele><time>2026-03-26T11:23:27.949Z</time></trkpt><trkpt lat="44.4526867" lon="8.4954217"><ele>686.0</ele><time>2026-03-26T11:23:28.948Z</time></trkpt><trkpt lat="44.4527333" lon="8.4953267"><ele>686.8</ele><time>2026-03-26T11:23:29.949Z</time></trkpt><trkpt lat="44.452775" lon="8.4952317"><ele>687.5999999999999</ele><time>2026-03-26T11:23:30.949Z</time></trkpt><trkpt lat="44.452815" lon="8.4951183"><ele>688.4</ele><time>2026-03-26T11:23:31.949Z</time></trkpt><trkpt lat="44.452865" lon="8.494995"><ele>689.2</ele><time>2026-03-26T11:23:32.948Z</time></trkpt><trkpt lat="44.4529117" lon="8.4948683"><ele>690.0</ele><time>2026-03-26T11:23:33.948Z</time></trkpt><trkpt lat="44.45297" lon="8.494755"><ele>690.0</ele><time>2026-03-26T11:23:34.949Z</time></trkpt><trkpt lat="44.4530333" lon="8.4946633"><ele>690.0</ele><time>2026-03-26T11:23:35.948Z</time></trkpt><trkpt lat="44.4531033" lon="8.4945833"><ele>690.0</ele><time>2026-03-26T11:23:36.948Z</time></trkpt><trkpt lat="44.4531917" lon="8.494495"><ele>690.0</ele><time>2026-03-26T11:23:37.949Z</time></trkpt><trkpt lat="44.4532783" lon="8.4944067"><ele>690.0</ele><time>2026-03-26T11:23:38.949Z</time></trkpt><trkpt lat="44.45337" lon="8.494315"><ele>692.8</ele><time>2026-03-26T11:23:39.949Z</time></trkpt><trkpt lat="44.4534633" lon="8.494235"><ele>695.6</ele><time>2026-03-26T11:23:40.949Z</time></trkpt><trkpt lat="44.453545" lon="8.494175"><ele>698.4000000000001</ele><time>2026-03-26T11:23:41.949Z</time></trkpt><trkpt lat="44.45362" lon="8.4941417"><ele>701.2</ele><time>2026-03-26T11:23:42.949Z</time></trkpt><trkpt lat="44.4537067" lon="8.49413"><ele>704.0</ele><time>2026-03-26T11:23:43.948Z</time></trkpt><trkpt lat="44.4537917" lon="8.49412"><ele>704.0</ele><time>2026-03-26T11:23:44.949Z</time></trkpt><trkpt lat="44.4538767" lon="8.494095"><ele>704.0</ele><time>2026-03-26T11:23:45.948Z</time></trkpt><trkpt lat="44.45397" lon="8.49405"><ele>704.0</ele><time>2026-03-26T11:23:46.949Z</time></trkpt><trkpt lat="44.4540733" lon="8.4939967"><ele>704.0</ele><time>2026-03-26T11:23:47.948Z</time></trkpt><trkpt lat="44.4541617" lon="8.4939417"><ele>704.0</ele><time>2026-03-26T11:23:48.948Z</time></trkpt><trkpt lat="44.4542617" lon="8.493895"><ele>704.0</ele><time>2026-03-26T11:23:49.948Z</time></trkpt><trkpt lat="44.4543583" lon="8.4938533"><ele>704.0</ele><time>2026-03-26T11:23:50.948Z</time></trkpt><trkpt lat="44.45445" lon="8.4937983"><ele>704.0</ele><time>2026-03-26T11:23:51.948Z</time></trkpt><trkpt lat="44.4545367" lon="8.493745"><ele>704.0</ele><time>2026-03-26T11:23:52.949Z</time></trkpt><trkpt lat="44.4546067" lon="8.4936883"><ele>704.0</ele><time>2026-03-26T11:23:53.948Z</time></trkpt><trkpt lat="44.4546733" lon="8.4936233"><ele>702.5714285714286</ele><time>2026-03-26T11:23:54.949Z</time></trkpt><trkpt lat="44.45474" lon="8.4935567"><ele>701.1428571428571</ele><time>2026-03-26T11:23:55.949Z</time></trkpt><trkpt lat="44.4548033" lon="8.4934983"><ele>699.7142857142858</ele><time>2026-03-26T11:23:56.949Z</time></trkpt><trkpt lat="44.4548583" lon="8.493455"><ele>698.2857142857142</ele><time>2026-03-26T11:23:57.948Z</time></trkpt><trkpt lat="44.4549283" lon="8.4934233"><ele>696.8571428571428</ele><time>2026-03-26T11:23:58.949Z</time></trkpt><trkpt lat="44.4550033" lon="8.4933917"><ele>695.4285714285714</ele><time>2026-03-26T11:23:59.948Z</time></trkpt><trkpt lat="44.4550767" lon="8.4933633"><ele>694.0</ele><time>2026-03-26T11:24:00.948Z</time></trkpt><trkpt lat="44.4551567" lon="8.4933233"><ele>694.0</ele><time>2026-03-26T11:24:01.949Z</time></trkpt><trkpt lat="44.4552433" lon="8.4932667"><ele>694.0</ele><time>2026-03-26T11:24:02.949Z</time></trkpt><trkpt lat="44.45532" lon="8.4931933"><ele>694.0</ele><time>2026-03-26T11:24:03.949Z</time></trkpt><trkpt lat="44.4553933" lon="8.4931067"><ele>694.0</ele><time>2026-03-26T11:24:04.948Z</time></trkpt><trkpt lat="44.4554517" lon="8.493015"><ele>694.0</ele><time>2026-03-26T11:24:05.949Z</time></trkpt><trkpt lat="44.4555067" lon="8.4929317"><ele>693.8000000000001</ele><time>2026-03-26T11:24:06.949Z</time></trkpt><trkpt lat="44.4555817" lon="8.49285"><ele>693.6</ele><time>2026-03-26T11:24:25.948Z</time></trkpt><trkpt lat="44.4556467" lon="8.4927133"><ele>693.4</ele><time>2026-03-26T11:24:27.948Z</time></trkpt><trkpt lat="44.4556733" lon="8.492615"><ele>693.2</ele><time>2026-03-26T11:24:28.949Z</time></trkpt><trkpt lat="44.455695" lon="8.49247"><ele>693.0</ele><time>2026-03-26T11:24:29.949Z</time></trkpt><trkpt lat="44.4557067" lon="8.4923117"><ele>693.0</ele><time>2026-03-26T11:24:30.948Z</time></trkpt><trkpt lat="44.4557167" lon="8.49212"><ele>693.0</ele><time>2026-03-26T11:24:31.948Z</time></trkpt><trkpt lat="44.455715" lon="8.4919133"><ele>693.0</ele><time>2026-03-26T11:24:32.948Z</time></trkpt><trkpt lat="44.4557033" lon="8.4917533"><ele>693.0</ele><time>2026-03-26T11:24:33.949Z</time></trkpt><trkpt lat="44.4556883" lon="8.4916083"><ele>691.0</ele><time>2026-03-26T11:24:34.948Z</time></trkpt><trkpt lat="44.4556767" lon="8.4914517"><ele>689.0</ele><time>2026-03-26T11:24:35.949Z</time></trkpt><trkpt lat="44.45567" lon="8.4912983"><ele>687.0</ele><time>2026-03-26T11:24:36.948Z</time></trkpt><trkpt lat="44.455655" lon="8.4911483"><ele>685.0</ele><time>2026-03-26T11:24:37.949Z</time></trkpt><trkpt lat="44.4556517" lon="8.490975"><ele>684.4</ele><time>2026-03-26T11:24:38.948Z</time></trkpt><trkpt lat="44.4556667" lon="8.4908117"><ele>683.8</ele><time>2026-03-26T11:24:39.949Z</time></trkpt><trkpt lat="44.4556817" lon="8.4906533"><ele>683.2</ele><time>2026-03-26T11:24:40.948Z</time></trkpt><trkpt lat="44.45569" lon="8.4905"><ele>682.6</ele><time>2026-03-26T11:24:41.948Z</time></trkpt><trkpt lat="44.4557083" lon="8.4903667"><ele>682.0</ele><time>2026-03-26T11:24:42.949Z</time></trkpt><trkpt lat="44.4557267" lon="8.4902467"><ele>681.6</ele><time>2026-03-26T11:24:43.949Z</time></trkpt><trkpt lat="44.4557633" lon="8.4901367"><ele>681.2</ele><time>2026-03-26T11:24:44.948Z</time></trkpt><trkpt lat="44.4558033" lon="8.4900167"><ele>680.8</ele><time>2026-03-26T11:24:45.949Z</time></trkpt><trkpt lat="44.4558217" lon="8.48989"><ele>680.4</ele><time>2026-03-26T11:24:46.949Z</time></trkpt><trkpt lat="44.455825" lon="8.4897517"><ele>680.0</ele><time>2026-03-26T11:24:47.948Z</time></trkpt><trkpt lat="44.4558233" lon="8.4896283"><ele>678.5</ele><time>2026-03-26T11:24:48.948Z</time></trkpt><trkpt lat="44.4558083" lon="8.4895117"><ele>677.0</ele><time>2026-03-26T11:24:49.948Z</time></trkpt><trkpt lat="44.4557967" lon="8.489405"><ele>675.5</ele><time>2026-03-26T11:24:50.948Z</time></trkpt><trkpt lat="44.45577" lon="8.4892933"><ele>674.0</ele><time>2026-03-26T11:24:51.949Z</time></trkpt><trkpt lat="44.4557417" lon="8.4891617"><ele>672.5</ele><time>2026-03-26T11:24:52.948Z</time></trkpt><trkpt lat="44.4557167" lon="8.489025"><ele>671.0</ele><time>2026-03-26T11:24:53.949Z</time></trkpt><trkpt lat="44.4557017" lon="8.4889133"><ele>671.0</ele><time>2026-03-26T11:24:54.949Z</time></trkpt><trkpt lat="44.4556983" lon="8.4887933"><ele>671.0</ele><time>2026-03-26T11:24:56.948Z</time></trkpt><trkpt lat="44.455755" lon="8.4887183"><ele>671.0</ele><time>2026-03-26T11:25:01.948Z</time></trkpt><trkpt lat="44.45576" lon="8.488615"><ele>671.0</ele><time>2026-03-26T11:25:03.948Z</time></trkpt><trkpt lat="44.455735" lon="8.4884767"><ele>671.0</ele><time>2026-03-26T11:25:05.949Z</time></trkpt><trkpt lat="44.455665" lon="8.4883317"><ele>667.8333333333333</ele><time>2026-03-26T11:25:07.948Z</time></trkpt><trkpt lat="44.4556083" lon="8.488265"><ele>664.6666666666666</ele><time>2026-03-26T11:25:08.948Z</time></trkpt><trkpt lat="44.4555533" lon="8.4882067"><ele>661.5</ele><time>2026-03-26T11:25:09.948Z</time></trkpt><trkpt lat="44.45546" lon="8.488155"><ele>658.3333333333334</ele><time>2026-03-26T11:25:11.948Z</time></trkpt><trkpt lat="44.4553967" lon="8.488135"><ele>655.1666666666667</ele><time>2026-03-26T11:25:12.949Z</time></trkpt><trkpt lat="44.4553233" lon="8.4881133"><ele>652.0</ele><time>2026-03-26T11:25:13.949Z</time></trkpt><trkpt lat="44.455255" lon="8.4880767"><ele>650.5714285714286</ele><time>2026-03-26T11:25:14.948Z</time></trkpt><trkpt lat="44.4551833" lon="8.4880467"><ele>649.1428571428571</ele><time>2026-03-26T11:25:15.948Z</time></trkpt><trkpt lat="44.4551167" lon="8.4880167"><ele>647.7142857142857</ele><time>2026-03-26T11:25:16.948Z</time></trkpt><trkpt lat="44.455045" lon="8.4879817"><ele>646.2857142857142</ele><time>2026-03-26T11:25:17.949Z</time></trkpt><trkpt lat="44.4549833" lon="8.4879367"><ele>644.8571428571429</ele><time>2026-03-26T11:25:18.948Z</time></trkpt><trkpt lat="44.4549167" lon="8.4878867"><ele>643.4285714285713</ele><time>2026-03-26T11:25:19.949Z</time></trkpt><trkpt lat="44.4548617" lon="8.48783"><ele>642.0</ele><time>2026-03-26T11:25:20.949Z</time></trkpt><trkpt lat="44.45475" lon="8.48772"><ele>639.6666666666666</ele><time>2026-03-26T11:25:22.948Z</time></trkpt><trkpt lat="44.45468" lon="8.4876767"><ele>637.3333333333334</ele><time>2026-03-26T11:25:23.948Z</time></trkpt><trkpt lat="44.4546017" lon="8.4876433"><ele>635.0</ele><time>2026-03-26T11:25:24.949Z</time></trkpt><trkpt lat="44.4545233" lon="8.4876117"><ele>632.6666666666667</ele><time>2026-03-26T11:25:25.948Z</time></trkpt><trkpt lat="44.45444" lon="8.4875733"><ele>630.3333333333334</ele><time>2026-03-26T11:25:26.949Z</time></trkpt><trkpt lat="44.4543733" lon="8.4875417"><ele>628.0</ele><time>2026-03-26T11:25:27.949Z</time></trkpt><trkpt lat="44.45425" lon="8.487505"><ele>626.7142857142857</ele><time>2026-03-26T11:25:29.949Z</time></trkpt><trkpt lat="44.4541783" lon="8.487495"><ele>625.4285714285714</ele><time>2026-03-26T11:25:30.949Z</time></trkpt><trkpt lat="44.4541017" lon="8.4874883"><ele>624.1428571428571</ele><time>2026-03-26T11:25:31.948Z</time></trkpt><trkpt lat="44.4540283" lon="8.4874717"><ele>622.8571428571429</ele><time>2026-03-26T11:25:32.948Z</time></trkpt><trkpt lat="44.4539667" lon="8.487425"><ele>621.5714285714286</ele><time>2026-03-26T11:25:33.948Z</time></trkpt><trkpt lat="44.4539183" lon="8.4873617"><ele>620.2857142857142</ele><time>2026-03-26T11:25:34.948Z</time></trkpt><trkpt lat="44.453865" lon="8.48728"><ele>619.0</ele><time>2026-03-26T11:25:35.949Z</time></trkpt><trkpt lat="44.4538183" lon="8.4871533"><ele>616.3333333333334</ele><time>2026-03-26T11:25:36.948Z</time></trkpt><trkpt lat="44.4537633" lon="8.4870283"><ele>613.6666666666667</ele><time>2026-03-26T11:25:37.949Z</time></trkpt><trkpt lat="44.4537167" lon="8.48692"><ele>611.0</ele><time>2026-03-26T11:25:38.949Z</time></trkpt><trkpt lat="44.453665" lon="8.486825"><ele>608.3333333333334</ele><time>2026-03-26T11:25:39.949Z</time></trkpt><trkpt lat="44.4536067" lon="8.48675"><ele>605.6666666666666</ele><time>2026-03-26T11:25:40.948Z</time></trkpt><trkpt lat="44.4535517" lon="8.4866833"><ele>603.0</ele><time>2026-03-26T11:25:41.949Z</time></trkpt><trkpt lat="44.4534983" lon="8.4866133"><ele>603.0</ele><time>2026-03-26T11:25:42.948Z</time></trkpt><trkpt lat="44.4534467" lon="8.486505"><ele>603.0</ele><time>2026-03-26T11:25:43.949Z</time></trkpt><trkpt lat="44.4533967" lon="8.4863867"><ele>603.0</ele><time>2026-03-26T11:25:44.949Z</time></trkpt><trkpt lat="44.453355" lon="8.4862767"><ele>603.0</ele><time>2026-03-26T11:25:45.949Z</time></trkpt><trkpt lat="44.4532917" lon="8.4861883"><ele>603.0</ele><time>2026-03-26T11:25:46.948Z</time></trkpt><trkpt lat="44.45322" lon="8.4860933"><ele>602.1666666666666</ele><time>2026-03-26T11:25:47.948Z</time></trkpt><trkpt lat="44.453145" lon="8.4859967"><ele>601.3333333333334</ele><time>2026-03-26T11:25:48.948Z</time></trkpt><trkpt lat="44.4530583" lon="8.485905"><ele>600.5</ele><time>2026-03-26T11:25:49.948Z</time></trkpt><trkpt lat="44.452985" lon="8.4858283"><ele>599.6666666666667</ele><time>2026-03-26T11:25:50.948Z</time></trkpt><trkpt lat="44.4529267" lon="8.4857783"><ele>598.8333333333334</ele><time>2026-03-26T11:25:51.948Z</time></trkpt><trkpt lat="44.4528633" lon="8.4857217"><ele>598.0</ele><time>2026-03-26T11:25:53.949Z</time></trkpt><trkpt lat="44.4528483" lon="8.48561"><ele>596.1666666666667</ele><time>2026-03-26T11:26:08.948Z</time></trkpt><trkpt lat="44.4528667" lon="8.4854433"><ele>594.3333333333334</ele><time>2026-03-26T11:26:10.949Z</time></trkpt><trkpt lat="44.45287" lon="8.4853517"><ele>592.5</ele><time>2026-03-26T11:26:11.948Z</time></trkpt><trkpt lat="44.4528733" lon="8.4852533"><ele>590.6666666666666</ele><time>2026-03-26T11:26:12.949Z</time></trkpt><trkpt lat="44.452885" lon="8.4851417"><ele>588.8333333333333</ele><time>2026-03-26T11:26:13.948Z</time></trkpt><trkpt lat="44.4528983" lon="8.4850233"><ele>587.0</ele><time>2026-03-26T11:26:14.949Z</time></trkpt><trkpt lat="44.45291" lon="8.4849133"><ele>585.1666666666666</ele><time>2026-03-26T11:26:15.948Z</time></trkpt><trkpt lat="44.4529183" lon="8.4848133"><ele>583.3333333333333</ele><time>2026-03-26T11:26:16.948Z</time></trkpt><trkpt lat="44.452925" lon="8.484725"><ele>581.5</ele><time>2026-03-26T11:26:17.948Z</time></trkpt><trkpt lat="44.4529167" lon="8.4846"><ele>579.6666666666666</ele><time>2026-03-26T11:26:19.948Z</time></trkpt><trkpt lat="44.45288" lon="8.4845183"><ele>577.8333333333334</ele><time>2026-03-26T11:26:21.949Z</time></trkpt><trkpt lat="44.4528483" lon="8.4844"><ele>576.0</ele><time>2026-03-26T11:26:23.949Z</time></trkpt><trkpt lat="44.4528217" lon="8.4842917"><ele>574.8</ele><time>2026-03-26T11:26:25.948Z</time></trkpt><trkpt lat="44.45279" lon="8.48419"><ele>573.6</ele><time>2026-03-26T11:26:28.948Z</time></trkpt><trkpt lat="44.4527117" lon="8.48411"><ele>572.4</ele><time>2026-03-26T11:26:31.949Z</time></trkpt><trkpt lat="44.452615" lon="8.4840083"><ele>571.2</ele><time>2026-03-26T11:26:33.949Z</time></trkpt><trkpt lat="44.4525417" lon="8.48392"><ele>570.0</ele><time>2026-03-26T11:26:34.948Z</time></trkpt><trkpt lat="44.4524683" lon="8.483815"><ele>568.0</ele><time>2026-03-26T11:26:35.948Z</time></trkpt><trkpt lat="44.45241" lon="8.4837233"><ele>566.0</ele><time>2026-03-26T11:26:36.948Z</time></trkpt><trkpt lat="44.4523567" lon="8.4836217"><ele>564.0</ele><time>2026-03-26T11:26:37.948Z</time></trkpt><trkpt lat="44.452325" lon="8.4835067"><ele>562.0</ele><time>2026-03-26T11:26:38.949Z</time></trkpt><trkpt lat="44.4522983" lon="8.48338"><ele>560.0</ele><time>2026-03-26T11:26:39.948Z</time></trkpt><trkpt lat="44.4522717" lon="8.48325"><ele>560.0</ele><time>2026-03-26T11:26:40.948Z</time></trkpt><trkpt lat="44.45225" lon="8.4831067"><ele>560.0</ele><time>2026-03-26T11:26:41.948Z</time></trkpt><trkpt lat="44.45223" lon="8.4829967"><ele>560.0</ele><time>2026-03-26T11:26:42.948Z</time></trkpt><trkpt lat="44.452195" lon="8.4828933"><ele>560.0</ele><time>2026-03-26T11:26:43.949Z</time></trkpt><trkpt lat="44.45216" lon="8.482745"><ele>560.0</ele><time>2026-03-26T11:26:45.948Z</time></trkpt><trkpt lat="44.4521483" lon="8.4826533"><ele>560.0</ele><time>2026-03-26T11:26:46.949Z</time></trkpt><trkpt lat="44.4521083" lon="8.482475"><ele>557.5714285714286</ele><time>2026-03-26T11:26:48.948Z</time></trkpt><trkpt lat="44.4520833" lon="8.4823733"><ele>555.1428571428571</ele><time>2026-03-26T11:26:49.948Z</time></trkpt><trkpt lat="44.4520717" lon="8.4822833"><ele>552.7142857142858</ele><time>2026-03-26T11:26:50.948Z</time></trkpt><trkpt lat="44.4520283" lon="8.48216"><ele>550.2857142857142</ele><time>2026-03-26T11:26:52.948Z</time></trkpt><trkpt lat="44.4519667" lon="8.4821183"><ele>547.8571428571429</ele><time>2026-03-26T11:26:54.948Z</time></trkpt><trkpt lat="44.4519" lon="8.482115"><ele>545.4285714285714</ele><time>2026-03-26T11:26:56.948Z</time></trkpt><trkpt lat="44.451835" lon="8.4821017"><ele>543.0</ele><time>2026-03-26T11:26:57.948Z</time></trkpt><trkpt lat="44.4517683" lon="8.4820967"><ele>543.0</ele><time>2026-03-26T11:26:58.948Z</time></trkpt><trkpt lat="44.4517" lon="8.4820817"><ele>543.0</ele><time>2026-03-26T11:26:59.949Z</time></trkpt><trkpt lat="44.4516067" lon="8.4820567"><ele>543.0</ele><time>2026-03-26T11:27:01.948Z</time></trkpt><trkpt lat="44.4515067" lon="8.4820817"><ele>543.0</ele><time>2026-03-26T11:27:03.949Z</time></trkpt><trkpt lat="44.4513967" lon="8.4821067"><ele>543.0</ele><time>2026-03-26T11:27:05.948Z</time></trkpt><trkpt lat="44.4512867" lon="8.4820433"><ele>539.0</ele><time>2026-03-26T11:27:07.948Z</time></trkpt><trkpt lat="44.451225" lon="8.4819817"><ele>535.0</ele><time>2026-03-26T11:27:08.949Z</time></trkpt><trkpt lat="44.4511667" lon="8.4819033"><ele>531.0</ele><time>2026-03-26T11:27:09.948Z</time></trkpt><trkpt lat="44.4511083" lon="8.481825"><ele>527.0</ele><time>2026-03-26T11:27:10.949Z</time></trkpt><trkpt lat="44.4510467" lon="8.4817533"><ele>523.0</ele><time>2026-03-26T11:27:11.949Z</time></trkpt><trkpt lat="44.450985" lon="8.4816917"><ele>519.0</ele><time>2026-03-26T11:27:12.948Z</time></trkpt><trkpt lat="44.4509083" lon="8.481645"><ele>519.0</ele><time>2026-03-26T11:27:13.949Z</time></trkpt><trkpt lat="44.450815" lon="8.4816217"><ele>519.0</ele><time>2026-03-26T11:27:14.948Z</time></trkpt><trkpt lat="44.45072" lon="8.4815817"><ele>519.0</ele><time>2026-03-26T11:27:15.948Z</time></trkpt><trkpt lat="44.450635" lon="8.4815533"><ele>519.0</ele><time>2026-03-26T11:27:16.948Z</time></trkpt><trkpt lat="44.4505417" lon="8.4815217"><ele>519.0</ele><time>2026-03-26T11:27:17.949Z</time></trkpt><trkpt lat="44.4504367" lon="8.481495"><ele>516.6</ele><time>2026-03-26T11:27:18.949Z</time></trkpt><trkpt lat="44.4503383" lon="8.4814533"><ele>514.2</ele><time>2026-03-26T11:27:19.949Z</time></trkpt><trkpt lat="44.4502483" lon="8.4813867"><ele>511.80000000000007</ele><time>2026-03-26T11:27:20.948Z</time></trkpt><trkpt lat="44.4501667" lon="8.48128"><ele>509.40000000000003</ele><time>2026-03-26T11:27:21.948Z</time></trkpt><trkpt lat="44.45008" lon="8.4811767"><ele>507.0</ele><time>2026-03-26T11:27:22.949Z</time></trkpt><trkpt lat="44.4500017" lon="8.481085"><ele>507.0</ele><time>2026-03-26T11:27:23.948Z</time></trkpt><trkpt lat="44.4498983" lon="8.4810017"><ele>507.00000000000006</ele><time>2026-03-26T11:27:24.949Z</time></trkpt><trkpt lat="44.4497967" lon="8.48092"><ele>507.00000000000006</ele><time>2026-03-26T11:27:25.949Z</time></trkpt><trkpt lat="44.4497067" lon="8.4808267"><ele>507.0</ele><time>2026-03-26T11:27:26.948Z</time></trkpt><trkpt lat="44.4496533" lon="8.4807317"><ele>507.0</ele><time>2026-03-26T11:27:27.948Z</time></trkpt><trkpt lat="44.449615" lon="8.480605"><ele>504.0</ele><time>2026-03-26T11:27:28.948Z</time></trkpt><trkpt lat="44.4495833" lon="8.4804767"><ele>501.00000000000006</ele><time>2026-03-26T11:27:29.949Z</time></trkpt><trkpt lat="44.4495617" lon="8.480335"><ele>498.00000000000006</ele><time>2026-03-26T11:27:30.948Z</time></trkpt><trkpt lat="44.4495317" lon="8.4802067"><ele>495.0</ele><time>2026-03-26T11:27:31.948Z</time></trkpt><trkpt lat="44.4494967" lon="8.48009"><ele>492.0</ele><time>2026-03-26T11:27:32.948Z</time></trkpt><trkpt lat="44.4494517" lon="8.4799733"><ele>492.0</ele><time>2026-03-26T11:27:33.948Z</time></trkpt><trkpt lat="44.4493967" lon="8.4798583"><ele>492.00000000000006</ele><time>2026-03-26T11:27:34.949Z</time></trkpt><trkpt lat="44.4493417" lon="8.4797317"><ele>492.00000000000006</ele><time>2026-03-26T11:27:35.949Z</time></trkpt><trkpt lat="44.44929" lon="8.4796183"><ele>492.0</ele><time>2026-03-26T11:27:36.949Z</time></trkpt><trkpt lat="44.4492467" lon="8.4795083"><ele>492.0</ele><time>2026-03-26T11:27:37.949Z</time></trkpt><trkpt lat="44.4492133" lon="8.4793967"><ele>490.8</ele><time>2026-03-26T11:27:38.949Z</time></trkpt><trkpt lat="44.4492017" lon="8.4792933"><ele>489.6</ele><time>2026-03-26T11:27:39.949Z</time></trkpt><trkpt lat="44.4492017" lon="8.479175"><ele>488.40000000000003</ele><time>2026-03-26T11:27:40.949Z</time></trkpt><trkpt lat="44.4492" lon="8.4790433"><ele>487.20000000000005</ele><time>2026-03-26T11:27:41.948Z</time></trkpt><trkpt lat="44.4491867" lon="8.4789"><ele>486.0</ele><time>2026-03-26T11:27:42.948Z</time></trkpt><trkpt lat="44.449165" lon="8.4787617"><ele>484.20000000000005</ele><time>2026-03-26T11:27:43.948Z</time></trkpt><trkpt lat="44.4491383" lon="8.4786167"><ele>482.40000000000003</ele><time>2026-03-26T11:27:44.948Z</time></trkpt><trkpt lat="44.449105" lon="8.4784767"><ele>480.6</ele><time>2026-03-26T11:27:45.948Z</time></trkpt><trkpt lat="44.4490717" lon="8.4783583"><ele>478.8</ele><time>2026-03-26T11:27:46.948Z</time></trkpt><trkpt lat="44.4490217" lon="8.4782633"><ele>477.0</ele><time>2026-03-26T11:27:47.949Z</time></trkpt><trkpt lat="44.4489767" lon="8.47819"><ele>477.0</ele><time>2026-03-26T11:27:48.948Z</time></trkpt><trkpt lat="44.4489117" lon="8.47812"><ele>477.0</ele><time>2026-03-26T11:27:49.949Z</time></trkpt><trkpt lat="44.4488233" lon="8.4780617"><ele>477.0</ele><time>2026-03-26T11:27:50.949Z</time></trkpt><trkpt lat="44.4487417" lon="8.4779983"><ele>477.0</ele><time>2026-03-26T11:27:51.948Z</time></trkpt><trkpt lat="44.448675" lon="8.47794"><ele>477.0</ele><time>2026-03-26T11:27:52.949Z</time></trkpt><trkpt lat="44.448615" lon="8.4778617"><ele>477.0</ele><time>2026-03-26T11:27:53.949Z</time></trkpt><trkpt lat="44.4485767" lon="8.477775"><ele>474.0</ele><time>2026-03-26T11:27:54.949Z</time></trkpt><trkpt lat="44.4485383" lon="8.47767"><ele>471.00000000000006</ele><time>2026-03-26T11:27:55.948Z</time></trkpt><trkpt lat="44.4484933" lon="8.477555"><ele>468.00000000000006</ele><time>2026-03-26T11:27:56.948Z</time></trkpt><trkpt lat="44.4484383" lon="8.4774417"><ele>465.0</ele><time>2026-03-26T11:27:57.948Z</time></trkpt><trkpt lat="44.4483833" lon="8.4773367"><ele>462.0</ele><time>2026-03-26T11:27:58.948Z</time></trkpt><trkpt lat="44.4483417" lon="8.47723"><ele>462.0</ele><time>2026-03-26T11:27:59.948Z</time></trkpt><trkpt lat="44.448285" lon="8.4771717"><ele>462.0</ele><time>2026-03-26T11:28:00.95Z</time></trkpt><trkpt lat="44.448195" lon="8.4771033"><ele>462.0</ele><time>2026-03-26T11:28:02.949Z</time></trkpt><trkpt lat="44.4481667" lon="8.4770117"><ele>462.0</ele><time>2026-03-26T11:28:05.949Z</time></trkpt><trkpt lat="44.4481917" lon="8.4769217"><ele>462.0</ele><time>2026-03-26T11:28:06.95Z</time></trkpt><trkpt lat="44.4482483" lon="8.4768433"><ele>462.0</ele><time>2026-03-26T11:28:07.949Z</time></trkpt><trkpt lat="44.44832" lon="8.476765"><ele>460.6666666666667</ele><time>2026-03-26T11:28:08.95Z</time></trkpt><trkpt lat="44.4483617" lon="8.4766817"><ele>459.33333333333337</ele><time>2026-03-26T11:28:09.949Z</time></trkpt><trkpt lat="44.448365" lon="8.4765867"><ele>458.0</ele><time>2026-03-26T11:28:10.95Z</time></trkpt><trkpt lat="44.4483067" lon="8.4764917"><ele>456.6666666666667</ele><time>2026-03-26T11:28:11.949Z</time></trkpt><trkpt lat="44.4482217" lon="8.47641"><ele>455.33333333333337</ele><time>2026-03-26T11:28:12.95Z</time></trkpt><trkpt lat="44.4481217" lon="8.4763733"><ele>454.0</ele><time>2026-03-26T11:28:13.95Z</time></trkpt><trkpt lat="44.44802" lon="8.4763533"><ele>455.2</ele><time>2026-03-26T11:28:14.949Z</time></trkpt><trkpt lat="44.4479167" lon="8.4763233"><ele>456.4</ele><time>2026-03-26T11:28:15.949Z</time></trkpt><trkpt lat="44.44782" lon="8.4762867"><ele>457.6</ele><time>2026-03-26T11:28:16.95Z</time></trkpt><trkpt lat="44.4477383" lon="8.4762633"><ele>458.8</ele><time>2026-03-26T11:28:17.95Z</time></trkpt><trkpt lat="44.447665" lon="8.4762233"><ele>460.0</ele><time>2026-03-26T11:28:18.949Z</time></trkpt><trkpt lat="44.4475667" lon="8.4761867"><ele>460.1666666666667</ele><time>2026-03-26T11:28:20.949Z</time></trkpt><trkpt lat="44.4474983" lon="8.4761633"><ele>460.33333333333337</ele><time>2026-03-26T11:28:22.949Z</time></trkpt><trkpt lat="44.4474017" lon="8.47609"><ele>460.5</ele><time>2026-03-26T11:28:24.949Z</time></trkpt><trkpt lat="44.4473367" lon="8.4760767"><ele>460.66666666666663</ele><time>2026-03-26T11:28:25.95Z</time></trkpt><trkpt lat="44.4472667" lon="8.476055"><ele>460.8333333333333</ele><time>2026-03-26T11:28:26.95Z</time></trkpt><trkpt lat="44.4472033" lon="8.4760283"><ele>461.0</ele><time>2026-03-26T11:28:27.95Z</time></trkpt><trkpt lat="44.4471183" lon="8.4759817"><ele>462.8333333333333</ele><time>2026-03-26T11:28:29.95Z</time></trkpt><trkpt lat="44.4470533" lon="8.4759533"><ele>464.66666666666663</ele><time>2026-03-26T11:28:31.949Z</time></trkpt><trkpt lat="44.446975" lon="8.4759367"><ele>466.5</ele><time>2026-03-26T11:28:33.95Z</time></trkpt><trkpt lat="44.446865" lon="8.4758967"><ele>468.33333333333337</ele><time>2026-03-26T11:28:35.95Z</time></trkpt><trkpt lat="44.4467967" lon="8.4758617"><ele>470.1666666666667</ele><time>2026-03-26T11:28:36.95Z</time></trkpt><trkpt lat="44.4467233" lon="8.475825"><ele>472.0</ele><time>2026-03-26T11:28:37.95Z</time></trkpt><trkpt lat="44.446655" lon="8.4757933"><ele>472.0</ele><time>2026-03-26T11:28:38.949Z</time></trkpt><trkpt lat="44.4465417" lon="8.4757433"><ele>472.0</ele><time>2026-03-26T11:28:40.949Z</time></trkpt><trkpt lat="44.4464217" lon="8.47577"><ele>472.0</ele><time>2026-03-26T11:28:42.949Z</time></trkpt><trkpt lat="44.4463033" lon="8.4757417"><ele>472.0</ele><time>2026-03-26T11:28:44.95Z</time></trkpt><trkpt lat="44.4462467" lon="8.4756367"><ele>474.1666666666667</ele><time>2026-03-26T11:28:46.949Z</time></trkpt><trkpt lat="44.4462233" lon="8.47554"><ele>476.33333333333337</ele><time>2026-03-26T11:28:47.949Z</time></trkpt><trkpt lat="44.446195" lon="8.4754233"><ele>478.5</ele><time>2026-03-26T11:28:48.95Z</time></trkpt><trkpt lat="44.4461683" lon="8.4753067"><ele>480.66666666666663</ele><time>2026-03-26T11:28:49.949Z</time></trkpt><trkpt lat="44.4461367" lon="8.4752017"><ele>482.8333333333333</ele><time>2026-03-26T11:28:50.949Z</time></trkpt><trkpt lat="44.4460967" lon="8.475115"><ele>485.0</ele><time>2026-03-26T11:28:51.95Z</time></trkpt><trkpt lat="44.44605" lon="8.4750383"><ele>484.99999999999994</ele><time>2026-03-26T11:28:52.949Z</time></trkpt><trkpt lat="44.4460017" lon="8.47497"><ele>485.0</ele><time>2026-03-26T11:28:53.949Z</time></trkpt><trkpt lat="44.4459467" lon="8.474895"><ele>485.0</ele><time>2026-03-26T11:28:54.949Z</time></trkpt><trkpt lat="44.44588" lon="8.4748183"><ele>485.0</ele><time>2026-03-26T11:28:55.949Z</time></trkpt><trkpt lat="44.4458083" lon="8.4747433"><ele>484.99999999999994</ele><time>2026-03-26T11:28:56.949Z</time></trkpt><trkpt lat="44.445745" lon="8.4746867"><ele>485.0</ele><time>2026-03-26T11:28:57.95Z</time></trkpt><trkpt lat="44.445675" lon="8.4746233"><ele>486.4</ele><time>2026-03-26T11:28:58.949Z</time></trkpt><trkpt lat="44.4456067" lon="8.47455"><ele>487.8</ele><time>2026-03-26T11:28:59.95Z</time></trkpt><trkpt lat="44.44551" lon="8.4744817"><ele>489.20000000000005</ele><time>2026-03-26T11:29:00.95Z</time></trkpt><trkpt lat="44.4454217" lon="8.4744433"><ele>490.6</ele><time>2026-03-26T11:29:01.949Z</time></trkpt><trkpt lat="44.4453433" lon="8.4744183"><ele>492.0</ele><time>2026-03-26T11:29:02.95Z</time></trkpt><trkpt lat="44.44524" lon="8.474395"><ele>492.0</ele><time>2026-03-26T11:29:03.949Z</time></trkpt><trkpt lat="44.4451417" lon="8.4743867"><ele>492.00000000000006</ele><time>2026-03-26T11:29:04.949Z</time></trkpt><trkpt lat="44.4450417" lon="8.4743883"><ele>492.00000000000006</ele><time>2026-03-26T11:29:05.95Z</time></trkpt><trkpt lat="44.4449283" lon="8.4744233"><ele>492.0</ele><time>2026-03-26T11:29:06.949Z</time></trkpt><trkpt lat="44.4448133" lon="8.47445"><ele>492.0</ele><time>2026-03-26T11:29:07.949Z</time></trkpt><trkpt lat="44.4447117" lon="8.474475"><ele>494.0</ele><time>2026-03-26T11:29:08.95Z</time></trkpt><trkpt lat="44.4445967" lon="8.4745033"><ele>496.00000000000006</ele><time>2026-03-26T11:29:09.949Z</time></trkpt><trkpt lat="44.4444867" lon="8.474535"><ele>498.00000000000006</ele><time>2026-03-26T11:29:10.95Z</time></trkpt><trkpt lat="44.4443967" lon="8.4745783"><ele>500.0</ele><time>2026-03-26T11:29:11.949Z</time></trkpt><trkpt lat="44.4443133" lon="8.4746167"><ele>502.0</ele><time>2026-03-26T11:29:12.949Z</time></trkpt><trkpt lat="44.4442417" lon="8.474645"><ele>503.6</ele><time>2026-03-26T11:29:13.95Z</time></trkpt><trkpt lat="44.4441817" lon="8.4746933"><ele>505.20000000000005</ele><time>2026-03-26T11:29:14.949Z</time></trkpt><trkpt lat="44.4441183" lon="8.4747817"><ele>506.8</ele><time>2026-03-26T11:29:15.949Z</time></trkpt><trkpt lat="44.4440467" lon="8.4748783"><ele>508.4</ele><time>2026-03-26T11:29:16.95Z</time></trkpt><trkpt lat="44.4439583" lon="8.474975"><ele>510.0</ele><time>2026-03-26T11:29:17.95Z</time></trkpt><trkpt lat="44.4438617" lon="8.47504"><ele>512.6</ele><time>2026-03-26T11:29:18.95Z</time></trkpt><trkpt lat="44.443765" lon="8.4750933"><ele>515.2</ele><time>2026-03-26T11:29:19.949Z</time></trkpt><trkpt lat="44.4436633" lon="8.4751233"><ele>517.8</ele><time>2026-03-26T11:29:20.949Z</time></trkpt><trkpt lat="44.4435583" lon="8.4751567"><ele>520.4</ele><time>2026-03-26T11:29:21.95Z</time></trkpt><trkpt lat="44.44346" lon="8.4751867"><ele>523.0</ele><time>2026-03-26T11:29:22.949Z</time></trkpt><trkpt lat="44.443385" lon="8.47521"><ele>523.0</ele><time>2026-03-26T11:29:23.949Z</time></trkpt><trkpt lat="44.4433217" lon="8.4752233"><ele>523.0</ele><time>2026-03-26T11:29:24.949Z</time></trkpt><trkpt lat="44.44326" lon="8.475255"><ele>523.0</ele><time>2026-03-26T11:29:25.949Z</time></trkpt><trkpt lat="44.4431567" lon="8.4753067"><ele>523.0</ele><time>2026-03-26T11:29:27.949Z</time></trkpt><trkpt lat="44.4432417" lon="8.475305"><ele>523.0</ele><time>2026-03-26T11:29:38.95Z</time></trkpt><trkpt lat="44.443315" lon="8.475265"><ele>523.0</ele><time>2026-03-26T11:29:39.95Z</time></trkpt><trkpt lat="44.44339" lon="8.4752283"><ele>523.0</ele><time>2026-03-26T11:29:40.95Z</time></trkpt><trkpt lat="44.4434583" lon="8.4752033"><ele>523.0</ele><time>2026-03-26T11:29:41.95Z</time></trkpt><trkpt lat="44.4435233" lon="8.4751867"><ele>523.0</ele><time>2026-03-26T11:29:42.95Z</time></trkpt><trkpt lat="44.4435983" lon="8.47514"><ele>523.0</ele><time>2026-03-26T11:29:43.949Z</time></trkpt><trkpt lat="44.443685" lon="8.4751033"><ele>523.0</ele><time>2026-03-26T11:29:44.949Z</time></trkpt><trkpt lat="44.4437683" lon="8.4750583"><ele>523.0</ele><time>2026-03-26T11:29:45.949Z</time></trkpt><trkpt lat="44.4438333" lon="8.4750383"><ele>520.8333333333334</ele><time>2026-03-26T11:29:46.95Z</time></trkpt><trkpt lat="44.443905" lon="8.4750283"><ele>518.6666666666667</ele><time>2026-03-26T11:29:48.949Z</time></trkpt><trkpt lat="44.44397" lon="8.4750117"><ele>516.5</ele><time>2026-03-26T11:29:51.95Z</time></trkpt><trkpt lat="44.4440417" lon="8.47491"><ele>514.3333333333334</ele><time>2026-03-26T11:29:54.949Z</time></trkpt><trkpt lat="44.4441017" lon="8.4748083"><ele>512.1666666666666</ele><time>2026-03-26T11:29:56.949Z</time></trkpt><trkpt lat="44.4441583" lon="8.4747467"><ele>510.0</ele><time>2026-03-26T11:29:58.949Z</time></trkpt><trkpt lat="44.44409" lon="8.4747033"><ele>510.0</ele><time>2026-03-26T11:30:05.949Z</time></trkpt><trkpt lat="44.4440233" lon="8.4747167"><ele>510.00000000000006</ele><time>2026-03-26T11:30:06.95Z</time></trkpt><trkpt lat="44.4439417" lon="8.4747183"><ele>510.0</ele><time>2026-03-26T11:30:07.95Z</time></trkpt><trkpt lat="44.44386" lon="8.4747"><ele>510.0</ele><time>2026-03-26T11:30:08.949Z</time></trkpt><trkpt lat="44.44379" lon="8.4746683"><ele>510.00000000000006</ele><time>2026-03-26T11:30:09.95Z</time></trkpt><trkpt lat="44.443725" lon="8.4746417"><ele>510.0</ele><time>2026-03-26T11:30:10.95Z</time></trkpt><trkpt lat="44.4436583" lon="8.4746033"><ele>510.0</ele><time>2026-03-26T11:30:11.949Z</time></trkpt><trkpt lat="44.4435833" lon="8.47455"><ele>511.5714285714286</ele><time>2026-03-26T11:30:13.95Z</time></trkpt><trkpt lat="44.443555" lon="8.4744567"><ele>513.1428571428572</ele><time>2026-03-26T11:30:18.95Z</time></trkpt><trkpt lat="44.4435433" lon="8.47435"><ele>514.7142857142858</ele><time>2026-03-26T11:30:22.95Z</time></trkpt><trkpt lat="44.443515" lon="8.4742567"><ele>516.2857142857143</ele><time>2026-03-26T11:30:25.949Z</time></trkpt><trkpt lat="44.44344" lon="8.4742867"><ele>517.8571428571429</ele><time>2026-03-26T11:30:28.95Z</time></trkpt><trkpt lat="44.4433767" lon="8.4743317"><ele>519.4285714285714</ele><time>2026-03-26T11:30:32.949Z</time></trkpt><trkpt lat="44.4433033" lon="8.4742983"><ele>521.0</ele><time>2026-03-26T11:30:43.949Z</time></trkpt><trkpt lat="44.44324" lon="8.4742317"><ele>521.0</ele><time>2026-03-26T11:30:46.949Z</time></trkpt><trkpt lat="44.4431633" lon="8.474195"><ele>521.0</ele><time>2026-03-26T11:30:48.95Z</time></trkpt><trkpt lat="44.4430733" lon="8.4741717"><ele>521.0</ele><time>2026-03-26T11:30:50.949Z</time></trkpt><trkpt lat="44.4429933" lon="8.474135"><ele>521.0</ele><time>2026-03-26T11:30:52.949Z</time></trkpt><trkpt lat="44.44292" lon="8.4740833"><ele>521.0</ele><time>2026-03-26T11:30:54.949Z</time></trkpt><trkpt lat="44.44284" lon="8.474105"><ele>521.0</ele><time>2026-03-26T11:30:57.949Z</time></trkpt><trkpt lat="44.44275" lon="8.4740967"><ele>526.6</ele><time>2026-03-26T11:31:01.95Z</time></trkpt><trkpt lat="44.4426733" lon="8.474095"><ele>532.2</ele><time>2026-03-26T11:31:04.95Z</time></trkpt><trkpt lat="44.4425967" lon="8.4740933"><ele>537.8</ele><time>2026-03-26T11:31:08.95Z</time></trkpt><trkpt lat="44.4425283" lon="8.474095"><ele>543.4</ele><time>2026-03-26T11:31:18.949Z</time></trkpt><trkpt lat="44.4424533" lon="8.474065"><ele>549.0</ele><time>2026-03-26T11:31:28.95Z</time></trkpt><trkpt lat="44.442295" lon="8.4740767"><ele>549.0</ele><time>2026-03-26T11:31:41.949Z</time></trkpt><trkpt lat="44.4422017" lon="8.4740617"><ele>549.0</ele><time>2026-03-26T11:31:44.949Z</time></trkpt><trkpt lat="44.44212" lon="8.4740167"><ele>549.0</ele><time>2026-03-26T11:31:47.949Z</time></trkpt><trkpt lat="44.4420417" lon="8.4739483"><ele>549.0</ele><time>2026-03-26T11:31:49.95Z</time></trkpt><trkpt lat="44.4419717" lon="8.4739067"><ele>549.0</ele><time>2026-03-26T11:31:51.95Z</time></trkpt><trkpt lat="44.4418883" lon="8.47394"><ele>549.0</ele><time>2026-03-26T11:32:00.949Z</time></trkpt><trkpt lat="44.4418117" lon="8.4739733"><ele>553.1666666666666</ele><time>2026-03-26T11:32:03.949Z</time></trkpt><trkpt lat="44.4417367" lon="8.473995"><ele>557.3333333333334</ele><time>2026-03-26T11:32:06.95Z</time></trkpt><trkpt lat="44.4416633" lon="8.4740733"><ele>561.5</ele><time>2026-03-26T11:32:09.949Z</time></trkpt><trkpt lat="44.441595" lon="8.47416"><ele>565.6666666666667</ele><time>2026-03-26T11:32:11.95Z</time></trkpt><trkpt lat="44.4415233" lon="8.4742333"><ele>569.8333333333334</ele><time>2026-03-26T11:32:13.949Z</time></trkpt><trkpt lat="44.4414567" lon="8.47423"><ele>574.0</ele><time>2026-03-26T11:32:16.949Z</time></trkpt><trkpt lat="44.4414067" lon="8.474135"><ele>574.0</ele><time>2026-03-26T11:32:19.949Z</time></trkpt><trkpt lat="44.441345" lon="8.4740717"><ele>574.0</ele><time>2026-03-26T11:32:22.95Z</time></trkpt><trkpt lat="44.4413333" lon="8.47396"><ele>574.0</ele><time>2026-03-26T11:32:40.95Z</time></trkpt><trkpt lat="44.4413233" lon="8.4738383"><ele>574.0</ele><time>2026-03-26T11:32:42.949Z</time></trkpt><trkpt lat="44.4412767" lon="8.4737133"><ele>574.0</ele><time>2026-03-26T11:32:44.949Z</time></trkpt><trkpt lat="44.4412217" lon="8.4735867"><ele>573.8</ele><time>2026-03-26T11:32:46.95Z</time></trkpt><trkpt lat="44.4411983" lon="8.4734883"><ele>573.5999999999999</ele><time>2026-03-26T11:32:48.95Z</time></trkpt><trkpt lat="44.441225" lon="8.4733417"><ele>573.4</ele><time>2026-03-26T11:32:50.949Z</time></trkpt><trkpt lat="44.441245" lon="8.4732367"><ele>573.1999999999999</ele><time>2026-03-26T11:32:51.949Z</time></trkpt><trkpt lat="44.441275" lon="8.4730933"><ele>573.0</ele><time>2026-03-26T11:32:53.95Z</time></trkpt><trkpt lat="44.4412567" lon="8.4729467"><ele>572.6</ele><time>2026-03-26T11:32:56.949Z</time></trkpt><trkpt lat="44.4412483" lon="8.4728433"><ele>572.1999999999999</ele><time>2026-03-26T11:32:58.95Z</time></trkpt><trkpt lat="44.44125" lon="8.4727267"><ele>571.8</ele><time>2026-03-26T11:33:00.95Z</time></trkpt><trkpt lat="44.4413017" lon="8.4726567"><ele>571.4</ele><time>2026-03-26T11:33:03.949Z</time></trkpt><trkpt lat="44.44136" lon="8.472525"><ele>571.0</ele><time>2026-03-26T11:33:06.949Z</time></trkpt><trkpt lat="44.4413967" lon="8.472365"><ele>571.8333333333334</ele><time>2026-03-26T11:33:08.95Z</time></trkpt><trkpt lat="44.4413983" lon="8.4722767"><ele>572.6666666666667</ele><time>2026-03-26T11:33:09.95Z</time></trkpt><trkpt lat="44.4414183" lon="8.4721417"><ele>573.5</ele><time>2026-03-26T11:33:11.949Z</time></trkpt><trkpt lat="44.44143" lon="8.4720267"><ele>574.3333333333334</ele><time>2026-03-26T11:33:13.949Z</time></trkpt><trkpt lat="44.4414767" lon="8.4719183"><ele>575.1666666666666</ele><time>2026-03-26T11:33:15.95Z</time></trkpt><trkpt lat="44.44151" lon="8.4718367"><ele>576.0</ele><time>2026-03-26T11:33:17.95Z</time></trkpt><trkpt lat="44.441515" lon="8.4716817"><ele>575.5</ele><time>2026-03-26T11:33:19.949Z</time></trkpt><trkpt lat="44.4415033" lon="8.4715267"><ele>575.0</ele><time>2026-03-26T11:33:21.949Z</time></trkpt><trkpt lat="44.4414833" lon="8.4714417"><ele>574.5</ele><time>2026-03-26T11:33:23.949Z</time></trkpt><trkpt lat="44.4414783" lon="8.4713283"><ele>574.0</ele><time>2026-03-26T11:33:28.95Z</time></trkpt><trkpt lat="44.441465" lon="8.47124"><ele>573.5</ele><time>2026-03-26T11:33:30.949Z</time></trkpt><trkpt lat="44.4414083" lon="8.4711583"><ele>573.0</ele><time>2026-03-26T11:33:33.949Z</time></trkpt><trkpt lat="44.441335" lon="8.47114"><ele>575.0</ele><time>2026-03-26T11:33:35.949Z</time></trkpt><trkpt lat="44.4412567" lon="8.4710733"><ele>577.0</ele><time>2026-03-26T11:33:37.95Z</time></trkpt><trkpt lat="44.4411833" lon="8.47095"><ele>579.0</ele><time>2026-03-26T11:33:39.95Z</time></trkpt><trkpt lat="44.4411467" lon="8.47086"><ele>581.0</ele><time>2026-03-26T11:33:40.95Z</time></trkpt><trkpt lat="44.4411117" lon="8.4707617"><ele>583.0</ele><time>2026-03-26T11:33:41.95Z</time></trkpt><trkpt lat="44.4410817" lon="8.4706617"><ele>585.0</ele><time>2026-03-26T11:33:42.949Z</time></trkpt><trkpt lat="44.4410217" lon="8.470525"><ele>583.6666666666666</ele><time>2026-03-26T11:33:44.95Z</time></trkpt><trkpt lat="44.4409317" lon="8.470435"><ele>582.3333333333334</ele><time>2026-03-26T11:33:46.949Z</time></trkpt><trkpt lat="44.4408683" lon="8.4704117"><ele>581.0</ele><time>2026-03-26T11:33:47.95Z</time></trkpt><trkpt lat="44.4408017" lon="8.470375"><ele>579.6666666666667</ele><time>2026-03-26T11:33:48.95Z</time></trkpt><trkpt lat="44.4407383" lon="8.47033"><ele>578.3333333333334</ele><time>2026-03-26T11:33:49.95Z</time></trkpt><trkpt lat="44.440655" lon="8.4702233"><ele>577.0</ele><time>2026-03-26T11:33:51.95Z</time></trkpt><trkpt lat="44.4406383" lon="8.47013"><ele>577.0</ele><time>2026-03-26T11:33:53.949Z</time></trkpt><trkpt lat="44.4405767" lon="8.47004"><ele>577.0</ele><time>2026-03-26T11:33:55.949Z</time></trkpt><trkpt lat="44.44054" lon="8.4699317"><ele>577.0</ele><time>2026-03-26T11:33:57.949Z</time></trkpt><trkpt lat="44.4405283" lon="8.4697917"><ele>577.0</ele><time>2026-03-26T11:33:59.95Z</time></trkpt><trkpt lat="44.4404833" lon="8.469645"><ele>577.0</ele><time>2026-03-26T11:34:01.949Z</time></trkpt><trkpt lat="44.4404533" lon="8.469565"><ele>578.3333333333334</ele><time>2026-03-26T11:34:02.949Z</time></trkpt><trkpt lat="44.4404117" lon="8.4694917"><ele>579.6666666666667</ele><time>2026-03-26T11:34:04.95Z</time></trkpt><trkpt lat="44.44039" lon="8.46939"><ele>581.0</ele><time>2026-03-26T11:34:07.95Z</time></trkpt><trkpt lat="44.4403433" lon="8.469265"><ele>582.3333333333334</ele><time>2026-03-26T11:34:09.949Z</time></trkpt><trkpt lat="44.44031" lon="8.469125"><ele>583.6666666666666</ele><time>2026-03-26T11:34:11.95Z</time></trkpt><trkpt lat="44.4402883" lon="8.4690283"><ele>585.0</ele><time>2026-03-26T11:34:13.95Z</time></trkpt><trkpt lat="44.4402967" lon="8.46893"><ele>587.1666666666666</ele><time>2026-03-26T11:34:15.95Z</time></trkpt><trkpt lat="44.4403033" lon="8.468765"><ele>589.3333333333334</ele><time>2026-03-26T11:34:17.95Z</time></trkpt><trkpt lat="44.4402767" lon="8.46865"><ele>591.5</ele><time>2026-03-26T11:34:19.95Z</time></trkpt><trkpt lat="44.4402467" lon="8.46855"><ele>593.6666666666667</ele><time>2026-03-26T11:34:22.949Z</time></trkpt><trkpt lat="44.4402283" lon="8.4684433"><ele>595.8333333333334</ele><time>2026-03-26T11:34:25.95Z</time></trkpt><trkpt lat="44.4401917" lon="8.4683417"><ele>598.0</ele><time>2026-03-26T11:34:28.949Z</time></trkpt><trkpt lat="44.440205" lon="8.46823"><ele>598.0</ele><time>2026-03-26T11:34:31.949Z</time></trkpt><trkpt lat="44.4402083" lon="8.46814"><ele>598.0</ele><time>2026-03-26T11:34:33.949Z</time></trkpt><trkpt lat="44.44013" lon="8.46807"><ele>598.0</ele><time>2026-03-26T11:34:36.95Z</time></trkpt><trkpt lat="44.4400533" lon="8.4679583"><ele>598.0</ele><time>2026-03-26T11:34:38.949Z</time></trkpt><trkpt lat="44.4400067" lon="8.4678433"><ele>598.0</ele><time>2026-03-26T11:34:40.95Z</time></trkpt><trkpt lat="44.4399617" lon="8.4677567"><ele>598.0</ele><time>2026-03-26T11:34:42.949Z</time></trkpt><trkpt lat="44.4399033" lon="8.4677083"><ele>599.6666666666667</ele><time>2026-03-26T11:34:44.95Z</time></trkpt><trkpt lat="44.43983" lon="8.4676433"><ele>601.3333333333334</ele><time>2026-03-26T11:34:46.95Z</time></trkpt><trkpt lat="44.439785" lon="8.467575"><ele>603.0</ele><time>2026-03-26T11:34:47.95Z</time></trkpt><trkpt lat="44.4397417" lon="8.4675083"><ele>604.6666666666666</ele><time>2026-03-26T11:34:48.95Z</time></trkpt><trkpt lat="44.439685" lon="8.4674417"><ele>606.3333333333333</ele><time>2026-03-26T11:34:50.95Z</time></trkpt><trkpt lat="44.439635" lon="8.4673383"><ele>608.0</ele><time>2026-03-26T11:34:53.949Z</time></trkpt><trkpt lat="44.4395883" lon="8.467265"><ele>612.1666666666666</ele><time>2026-03-26T11:34:55.95Z</time></trkpt><trkpt lat="44.4395317" lon="8.4672067"><ele>616.3333333333333</ele><time>2026-03-26T11:34:57.95Z</time></trkpt><trkpt lat="44.4394467" lon="8.4671817"><ele>620.5</ele><time>2026-03-26T11:35:00.949Z</time></trkpt><trkpt lat="44.4393883" lon="8.4671083"><ele>624.6666666666666</ele><time>2026-03-26T11:35:03.949Z</time></trkpt><trkpt lat="44.439365" lon="8.46698"><ele>628.8333333333334</ele><time>2026-03-26T11:35:05.95Z</time></trkpt><trkpt lat="44.439365" lon="8.4668717"><ele>633.0</ele><time>2026-03-26T11:35:06.95Z</time></trkpt><trkpt lat="44.4393767" lon="8.4667633"><ele>633.0</ele><time>2026-03-26T11:35:07.949Z</time></trkpt><trkpt lat="44.4393833" lon="8.4666567"><ele>633.0</ele><time>2026-03-26T11:35:08.949Z</time></trkpt><trkpt lat="44.4393983" lon="8.4665583"><ele>633.0</ele><time>2026-03-26T11:35:09.949Z</time></trkpt><trkpt lat="44.4394233" lon="8.466475"><ele>633.0</ele><time>2026-03-26T11:35:10.949Z</time></trkpt><trkpt lat="44.4394683" lon="8.466395"><ele>633.0</ele><time>2026-03-26T11:35:11.95Z</time></trkpt><trkpt lat="44.4395267" lon="8.4663133"><ele>633.0</ele><time>2026-03-26T11:35:12.949Z</time></trkpt><trkpt lat="44.4395867" lon="8.4662433"><ele>633.0</ele><time>2026-03-26T11:35:13.949Z</time></trkpt><trkpt lat="44.43964" lon="8.4661783"><ele>633.0</ele><time>2026-03-26T11:35:14.949Z</time></trkpt><trkpt lat="44.4397017" lon="8.4661033"><ele>633.0</ele><time>2026-03-26T11:35:15.949Z</time></trkpt><trkpt lat="44.4397717" lon="8.4660167"><ele>633.0</ele><time>2026-03-26T11:35:16.95Z</time></trkpt><trkpt lat="44.4398417" lon="8.4659417"><ele>633.0</ele><time>2026-03-26T11:35:17.949Z</time></trkpt><trkpt lat="44.4399" lon="8.4658633"><ele>633.0</ele><time>2026-03-26T11:35:18.949Z</time></trkpt><trkpt lat="44.4399433" lon="8.46578"><ele>633.0</ele><time>2026-03-26T11:35:19.95Z</time></trkpt><trkpt lat="44.4399617" lon="8.4656583"><ele>633.0</ele><time>2026-03-26T11:35:20.95Z</time></trkpt><trkpt lat="44.4399833" lon="8.4655283"><ele>633.0</ele><time>2026-03-26T11:35:21.949Z</time></trkpt><trkpt lat="44.44002" lon="8.4653767"><ele>633.0</ele><time>2026-03-26T11:35:22.95Z</time></trkpt><trkpt lat="44.4400633" lon="8.4652217"><ele>633.0</ele><time>2026-03-26T11:35:23.949Z</time></trkpt><trkpt lat="44.44012" lon="8.465075"><ele>633.0</ele><time>2026-03-26T11:35:24.949Z</time></trkpt><trkpt lat="44.4401883" lon="8.464935"><ele>633.75</ele><time>2026-03-26T11:35:25.949Z</time></trkpt><trkpt lat="44.4402583" lon="8.4647933"><ele>634.5</ele><time>2026-03-26T11:35:26.949Z</time></trkpt><trkpt lat="44.440315" lon="8.464645"><ele>635.25</ele><time>2026-03-26T11:35:27.949Z</time></trkpt><trkpt lat="44.4403683" lon="8.4645133"><ele>636.0</ele><time>2026-03-26T11:35:28.95Z</time></trkpt><trkpt lat="44.440435" lon="8.464395"><ele>635.1666666666666</ele><time>2026-03-26T11:35:29.949Z</time></trkpt><trkpt lat="44.4405133" lon="8.4643183"><ele>634.3333333333334</ele><time>2026-03-26T11:35:30.949Z</time></trkpt><trkpt lat="44.4405883" lon="8.4642783"><ele>633.5</ele><time>2026-03-26T11:35:31.949Z</time></trkpt><trkpt lat="44.4406517" lon="8.46427"><ele>632.6666666666667</ele><time>2026-03-26T11:35:32.949Z</time></trkpt><trkpt lat="44.4407267" lon="8.4642517"><ele>631.8333333333334</ele><time>2026-03-26T11:35:34.95Z</time></trkpt><trkpt lat="44.4407367" lon="8.4641217"><ele>631.0</ele><time>2026-03-26T11:35:38.95Z</time></trkpt><trkpt lat="44.44077" lon="8.463945"><ele>631.0</ele><time>2026-03-26T11:35:40.95Z</time></trkpt><trkpt lat="44.4407783" lon="8.4638517"><ele>631.0</ele><time>2026-03-26T11:35:41.95Z</time></trkpt><trkpt lat="44.44079" lon="8.46375"><ele>631.0</ele><time>2026-03-26T11:35:42.95Z</time></trkpt><trkpt lat="44.4407933" lon="8.463645"><ele>631.0</ele><time>2026-03-26T11:35:43.949Z</time></trkpt><trkpt lat="44.44078" lon="8.4635417"><ele>631.0</ele><time>2026-03-26T11:35:44.95Z</time></trkpt><trkpt lat="44.44074" lon="8.4634317"><ele>631.0</ele><time>2026-03-26T11:35:45.949Z</time></trkpt><trkpt lat="44.440675" lon="8.4633317"><ele>630.8333333333334</ele><time>2026-03-26T11:35:46.949Z</time></trkpt><trkpt lat="44.4406133" lon="8.4632283"><ele>630.6666666666667</ele><time>2026-03-26T11:35:47.95Z</time></trkpt><trkpt lat="44.4405617" lon="8.4631283"><ele>630.5</ele><time>2026-03-26T11:35:48.95Z</time></trkpt><trkpt lat="44.44052" lon="8.4630483"><ele>630.3333333333334</ele><time>2026-03-26T11:35:49.95Z</time></trkpt><trkpt lat="44.4404883" lon="8.4629683"><ele>630.1666666666666</ele><time>2026-03-26T11:35:50.95Z</time></trkpt><trkpt lat="44.4405067" lon="8.4628417"><ele>630.0</ele><time>2026-03-26T11:35:52.949Z</time></trkpt><trkpt lat="44.4405933" lon="8.462745"><ele>630.0</ele><time>2026-03-26T11:35:54.949Z</time></trkpt><trkpt lat="44.440685" lon="8.462655"><ele>630.0</ele><time>2026-03-26T11:35:56.95Z</time></trkpt><trkpt lat="44.4407233" lon="8.4625633"><ele>630.0</ele><time>2026-03-26T11:35:58.95Z</time></trkpt><trkpt lat="44.44073" lon="8.462465"><ele>630.0</ele><time>2026-03-26T11:36:00.95Z</time></trkpt><trkpt lat="44.44073" lon="8.4623717"><ele>630.0</ele><time>2026-03-26T11:36:02.949Z</time></trkpt><trkpt lat="44.4407083" lon="8.4622783"><ele>630.0</ele><time>2026-03-26T11:36:04.95Z</time></trkpt><trkpt lat="44.440645" lon="8.4621933"><ele>630.0</ele><time>2026-03-26T11:36:07.95Z</time></trkpt><trkpt lat="44.44061" lon="8.4621183"><ele>630.0</ele><time>2026-03-26T11:36:09.949Z</time></trkpt><trkpt lat="44.4406133" lon="8.4620233"><ele>630.0</ele><time>2026-03-26T11:36:11.95Z</time></trkpt><trkpt lat="44.4406233" lon="8.461925"><ele>630.0</ele><time>2026-03-26T11:36:14.949Z</time></trkpt><trkpt lat="44.4406567" lon="8.4618333"><ele>630.0</ele><time>2026-03-26T11:36:16.949Z</time></trkpt><trkpt lat="44.4406883" lon="8.46172"><ele>630.0</ele><time>2026-03-26T11:36:18.949Z</time></trkpt><trkpt lat="44.4407017" lon="8.4616167"><ele>630.0</ele><time>2026-03-26T11:36:20.949Z</time></trkpt><trkpt lat="44.440655" lon="8.46152"><ele>630.4</ele><time>2026-03-26T11:36:22.949Z</time></trkpt><trkpt lat="44.4405917" lon="8.4613383"><ele>630.8</ele><time>2026-03-26T11:36:24.95Z</time></trkpt><trkpt lat="44.4405517" lon="8.46122"><ele>631.2</ele><time>2026-03-26T11:36:25.949Z</time></trkpt><trkpt lat="44.44053" lon="8.4611167"><ele>631.6</ele><time>2026-03-26T11:36:26.95Z</time></trkpt><trkpt lat="44.4405283" lon="8.46099"><ele>632.0</ele><time>2026-03-26T11:36:28.949Z</time></trkpt><trkpt lat="44.4405133" lon="8.4608767"><ele>632.0</ele><time>2026-03-26T11:36:31.95Z</time></trkpt><trkpt lat="44.4404983" lon="8.4607683"><ele>632.0</ele><time>2026-03-26T11:36:34.951Z</time></trkpt><trkpt lat="44.4404183" lon="8.4607583"><ele>632.0</ele><time>2026-03-26T11:36:37.951Z</time></trkpt><trkpt lat="44.4403417" lon="8.46077"><ele>632.0</ele><time>2026-03-26T11:36:40.951Z</time></trkpt><trkpt lat="44.4402617" lon="8.4607867"><ele>632.0</ele><time>2026-03-26T11:36:42.95Z</time></trkpt><trkpt lat="44.4401517" lon="8.4607983"><ele>632.0</ele><time>2026-03-26T11:36:44.951Z</time></trkpt><trkpt lat="44.440035" lon="8.4607783"><ele>628.6666666666666</ele><time>2026-03-26T11:36:46.95Z</time></trkpt><trkpt lat="44.4399483" lon="8.46073"><ele>625.3333333333333</ele><time>2026-03-26T11:36:48.95Z</time></trkpt><trkpt lat="44.43984" lon="8.4606217"><ele>622.0</ele><time>2026-03-26T11:36:50.95Z</time></trkpt><trkpt lat="44.4397833" lon="8.46058"><ele>618.6666666666666</ele><time>2026-03-26T11:36:51.951Z</time></trkpt><trkpt lat="44.4397133" lon="8.460555"><ele>615.3333333333334</ele><time>2026-03-26T11:36:52.951Z</time></trkpt><trkpt lat="44.43963" lon="8.46055"><ele>612.0</ele><time>2026-03-26T11:36:53.951Z</time></trkpt><trkpt lat="44.4395583" lon="8.4605467"><ele>612.8333333333334</ele><time>2026-03-26T11:36:54.95Z</time></trkpt><trkpt lat="44.4394733" lon="8.4605267"><ele>613.6666666666666</ele><time>2026-03-26T11:36:56.95Z</time></trkpt><trkpt lat="44.4394183" lon="8.4604767"><ele>614.5</ele><time>2026-03-26T11:36:58.95Z</time></trkpt><trkpt lat="44.4393683" lon="8.4603833"><ele>615.3333333333333</ele><time>2026-03-26T11:37:00.95Z</time></trkpt><trkpt lat="44.4393117" lon="8.4602933"><ele>616.1666666666666</ele><time>2026-03-26T11:37:02.95Z</time></trkpt><trkpt lat="44.4392633" lon="8.4601983"><ele>617.0</ele><time>2026-03-26T11:37:05.95Z</time></trkpt><trkpt lat="44.43917" lon="8.4601467"><ele>617.0</ele><time>2026-03-26T11:37:07.95Z</time></trkpt><trkpt lat="44.4390733" lon="8.4601017"><ele>617.0</ele><time>2026-03-26T11:37:09.95Z</time></trkpt><trkpt lat="44.4389917" lon="8.4600317"><ele>617.0</ele><time>2026-03-26T11:37:11.95Z</time></trkpt><trkpt lat="44.4389117" lon="8.4599583"><ele>617.0</ele><time>2026-03-26T11:37:13.95Z</time></trkpt><trkpt lat="44.4388567" lon="8.45989"><ele>617.0</ele><time>2026-03-26T11:37:15.951Z</time></trkpt><trkpt lat="44.4388033" lon="8.4597917"><ele>617.0</ele><time>2026-03-26T11:37:17.95Z</time></trkpt><trkpt lat="44.4388017" lon="8.459695"><ele>617.0</ele><time>2026-03-26T11:37:19.951Z</time></trkpt><trkpt lat="44.4388767" lon="8.459625"><ele>617.0</ele><time>2026-03-26T11:37:21.95Z</time></trkpt><trkpt lat="44.4389583" lon="8.4595117"><ele>617.0</ele><time>2026-03-26T11:37:23.95Z</time></trkpt><trkpt lat="44.4389983" lon="8.4594383"><ele>617.0</ele><time>2026-03-26T11:37:24.95Z</time></trkpt><trkpt lat="44.4390333" lon="8.4593383"><ele>617.0</ele><time>2026-03-26T11:37:25.951Z</time></trkpt><trkpt lat="44.4390567" lon="8.4592533"><ele>616.2</ele><time>2026-03-26T11:37:26.951Z</time></trkpt><trkpt lat="44.43912" lon="8.4591017"><ele>615.4000000000001</ele><time>2026-03-26T11:37:28.95Z</time></trkpt><trkpt lat="44.439165" lon="8.459015"><ele>614.5999999999999</ele><time>2026-03-26T11:37:29.95Z</time></trkpt><trkpt lat="44.4392167" lon="8.45895"><ele>613.8</ele><time>2026-03-26T11:37:30.95Z</time></trkpt><trkpt lat="44.4392733" lon="8.4589067"><ele>613.0</ele><time>2026-03-26T11:37:31.95Z</time></trkpt><trkpt lat="44.4394033" lon="8.458865"><ele>613.0</ele><time>2026-03-26T11:37:33.95Z</time></trkpt><trkpt lat="44.439485" lon="8.45883"><ele>613.0</ele><time>2026-03-26T11:37:34.95Z</time></trkpt><trkpt lat="44.439555" lon="8.458775"><ele>613.0</ele><time>2026-03-26T11:37:35.95Z</time></trkpt><trkpt lat="44.4396217" lon="8.4587117"><ele>613.0</ele><time>2026-03-26T11:37:36.951Z</time></trkpt><trkpt lat="44.4396767" lon="8.4586533"><ele>613.0</ele><time>2026-03-26T11:37:37.95Z</time></trkpt><trkpt lat="44.439775" lon="8.458605"><ele>613.0</ele><time>2026-03-26T11:37:39.95Z</time></trkpt><trkpt lat="44.439825" lon="8.4585267"><ele>615.8</ele><time>2026-03-26T11:37:41.95Z</time></trkpt><trkpt lat="44.439805" lon="8.4583667"><ele>618.5999999999999</ele><time>2026-03-26T11:37:43.95Z</time></trkpt><trkpt lat="44.4398133" lon="8.45827"><ele>621.4000000000001</ele><time>2026-03-26T11:37:44.95Z</time></trkpt><trkpt lat="44.4398433" lon="8.45812"><ele>624.2</ele><time>2026-03-26T11:37:46.95Z</time></trkpt><trkpt lat="44.4398217" lon="8.4579967"><ele>627.0</ele><time>2026-03-26T11:37:48.951Z</time></trkpt><trkpt lat="44.439735" lon="8.4579233"><ele>627.0</ele><time>2026-03-26T11:37:50.95Z</time></trkpt><trkpt lat="44.4396617" lon="8.4578383"><ele>627.0</ele><time>2026-03-26T11:37:52.95Z</time></trkpt><trkpt lat="44.4396633" lon="8.4576767"><ele>627.0</ele><time>2026-03-26T11:37:54.95Z</time></trkpt><trkpt lat="44.439695" lon="8.4575717"><ele>627.0</ele><time>2026-03-26T11:37:55.95Z</time></trkpt><trkpt lat="44.4397317" lon="8.4574533"><ele>627.0</ele><time>2026-03-26T11:37:56.951Z</time></trkpt><trkpt lat="44.4397617" lon="8.4573367"><ele>627.0</ele><time>2026-03-26T11:37:57.95Z</time></trkpt><trkpt lat="44.43978" lon="8.4572183"><ele>627.0</ele><time>2026-03-26T11:37:58.95Z</time></trkpt><trkpt lat="44.439785" lon="8.4571017"><ele>627.0</ele><time>2026-03-26T11:37:59.951Z</time></trkpt><trkpt lat="44.439775" lon="8.4569817"><ele>627.0</ele><time>2026-03-26T11:38:00.95Z</time></trkpt><trkpt lat="44.4397417" lon="8.456855"><ele>627.0</ele><time>2026-03-26T11:38:01.95Z</time></trkpt><trkpt lat="44.439705" lon="8.4567383"><ele>627.0</ele><time>2026-03-26T11:38:02.95Z</time></trkpt><trkpt lat="44.4396617" lon="8.4566383"><ele>621.0</ele><time>2026-03-26T11:38:03.95Z</time></trkpt><trkpt lat="44.4396283" lon="8.4565383"><ele>615.0</ele><time>2026-03-26T11:38:04.95Z</time></trkpt><trkpt lat="44.4395917" lon="8.4564367"><ele>609.0</ele><time>2026-03-26T11:38:05.951Z</time></trkpt><trkpt lat="44.4395617" lon="8.4563383"><ele>603.0</ele><time>2026-03-26T11:38:06.95Z</time></trkpt><trkpt lat="44.4395283" lon="8.4561967"><ele>597.0</ele><time>2026-03-26T11:38:08.951Z</time></trkpt><trkpt lat="44.43953" lon="8.45606"><ele>591.0</ele><time>2026-03-26T11:38:10.951Z</time></trkpt><trkpt lat="44.43955" lon="8.4559333"><ele>591.0</ele><time>2026-03-26T11:38:12.951Z</time></trkpt><trkpt lat="44.43956" lon="8.4557833"><ele>591.0</ele><time>2026-03-26T11:38:14.95Z</time></trkpt><trkpt lat="44.4396167" lon="8.4556583"><ele>591.0</ele><time>2026-03-26T11:38:16.95Z</time></trkpt><trkpt lat="44.43969" lon="8.45556"><ele>591.0</ele><time>2026-03-26T11:38:18.95Z</time></trkpt><trkpt lat="44.4397483" lon="8.4554317"><ele>591.0</ele><time>2026-03-26T11:38:20.951Z</time></trkpt><trkpt lat="44.4398267" lon="8.455315"><ele>591.3333333333334</ele><time>2026-03-26T11:38:22.951Z</time></trkpt><trkpt lat="44.4399117" lon="8.4552067"><ele>591.6666666666666</ele><time>2026-03-26T11:38:24.951Z</time></trkpt><trkpt lat="44.43995" lon="8.4551033"><ele>592.0</ele><time>2026-03-26T11:38:26.95Z</time></trkpt><trkpt lat="44.4399517" lon="8.4549933"><ele>592.3333333333333</ele><time>2026-03-26T11:38:28.95Z</time></trkpt><trkpt lat="44.43991" lon="8.4548883"><ele>592.6666666666666</ele><time>2026-03-26T11:38:31.95Z</time></trkpt><trkpt lat="44.4398717" lon="8.454785"><ele>593.0</ele><time>2026-03-26T11:38:33.951Z</time></trkpt><trkpt lat="44.4398583" lon="8.454675"><ele>590.8</ele><time>2026-03-26T11:38:35.951Z</time></trkpt><trkpt lat="44.43987" lon="8.454545"><ele>588.5999999999999</ele><time>2026-03-26T11:38:37.95Z</time></trkpt><trkpt lat="44.4398467" lon="8.4544017"><ele>586.4000000000001</ele><time>2026-03-26T11:38:39.95Z</time></trkpt><trkpt lat="44.4398" lon="8.454315"><ele>584.2</ele><time>2026-03-26T11:38:41.951Z</time></trkpt><trkpt lat="44.4397017" lon="8.45429"><ele>582.0</ele><time>2026-03-26T11:38:45.951Z</time></trkpt><trkpt lat="44.4396217" lon="8.4542183"><ele>578.8333333333334</ele><time>2026-03-26T11:38:47.951Z</time></trkpt><trkpt lat="44.4395767" lon="8.4541367"><ele>575.6666666666666</ele><time>2026-03-26T11:38:48.95Z</time></trkpt><trkpt lat="44.4395367" lon="8.4540383"><ele>572.5</ele><time>2026-03-26T11:38:49.951Z</time></trkpt><trkpt lat="44.439495" lon="8.4539383"><ele>569.3333333333333</ele><time>2026-03-26T11:38:50.95Z</time></trkpt><trkpt lat="44.4394533" lon="8.4538483"><ele>566.1666666666666</ele><time>2026-03-26T11:38:51.95Z</time></trkpt><trkpt lat="44.4394067" lon="8.4537567"><ele>563.0</ele><time>2026-03-26T11:38:52.95Z</time></trkpt><trkpt lat="44.43936" lon="8.45367"><ele>561.1666666666666</ele><time>2026-03-26T11:38:53.95Z</time></trkpt><trkpt lat="44.43931" lon="8.4535883"><ele>559.3333333333333</ele><time>2026-03-26T11:38:54.95Z</time></trkpt><trkpt lat="44.4392583" lon="8.45352"><ele>557.5</ele><time>2026-03-26T11:38:55.951Z</time></trkpt><trkpt lat="44.4392233" lon="8.4534433"><ele>555.6666666666666</ele><time>2026-03-26T11:38:56.95Z</time></trkpt><trkpt lat="44.4392017" lon="8.4532633"><ele>553.8333333333334</ele><time>2026-03-26T11:38:58.95Z</time></trkpt><trkpt lat="44.4391917" lon="8.4531617"><ele>552.0</ele><time>2026-03-26T11:38:59.951Z</time></trkpt><trkpt lat="44.4392067" lon="8.4530283"><ele>552.0</ele><time>2026-03-26T11:39:01.95Z</time></trkpt><trkpt lat="44.4392633" lon="8.452975"><ele>552.0</ele><time>2026-03-26T11:39:03.951Z</time></trkpt><trkpt lat="44.43935" lon="8.4529483"><ele>552.0</ele><time>2026-03-26T11:39:13.951Z</time></trkpt><trkpt lat="44.43946" lon="8.452985"><ele>552.0</ele><time>2026-03-26T11:39:15.951Z</time></trkpt><trkpt lat="44.43957" lon="8.4530133"><ele>552.0</ele><time>2026-03-26T11:39:17.95Z</time></trkpt><trkpt lat="44.4396767" lon="8.4529283"><ele>552.0</ele><time>2026-03-26T11:39:19.95Z</time></trkpt><trkpt lat="44.43978" lon="8.4529033"><ele>552.0</ele><time>2026-03-26T11:39:21.95Z</time></trkpt><trkpt lat="44.4398583" lon="8.45291"><ele>552.0</ele><time>2026-03-26T11:39:23.95Z</time></trkpt><trkpt lat="44.4399417" lon="8.453005"><ele>552.0</ele><time>2026-03-26T11:39:25.95Z</time></trkpt><trkpt lat="44.4399867" lon="8.45309"><ele>552.0</ele><time>2026-03-26T11:39:26.95Z</time></trkpt><trkpt lat="44.4400483" lon="8.45318"><ele>552.1666666666666</ele><time>2026-03-26T11:39:27.951Z</time></trkpt><trkpt lat="44.44011" lon="8.45323"><ele>552.3333333333334</ele><time>2026-03-26T11:39:28.951Z</time></trkpt><trkpt lat="44.4401783" lon="8.453245"><ele>552.5</ele><time>2026-03-26T11:39:29.951Z</time></trkpt><trkpt lat="44.4402617" lon="8.4532267"><ele>552.6666666666667</ele><time>2026-03-26T11:39:30.95Z</time></trkpt><trkpt lat="44.4403417" lon="8.4532067"><ele>552.8333333333334</ele><time>2026-03-26T11:39:31.95Z</time></trkpt><trkpt lat="44.4404067" lon="8.45321"><ele>553.0</ele><time>2026-03-26T11:39:32.95Z</time></trkpt><trkpt lat="44.4405083" lon="8.4533467"><ele>553.0</ele><time>2026-03-26T11:39:34.951Z</time></trkpt><trkpt lat="44.4405583" lon="8.4534767"><ele>553.0</ele><time>2026-03-26T11:39:35.95Z</time></trkpt><trkpt lat="44.440615" lon="8.4536"><ele>553.0</ele><time>2026-03-26T11:39:36.951Z</time></trkpt><trkpt lat="44.440665" lon="8.4537183"><ele>553.0</ele><time>2026-03-26T11:39:37.95Z</time></trkpt><trkpt lat="44.4407033" lon="8.45382"><ele>553.0</ele><time>2026-03-26T11:39:38.95Z</time></trkpt><trkpt lat="44.4407317" lon="8.453905"><ele>557.0</ele><time>2026-03-26T11:39:39.951Z</time></trkpt><trkpt lat="44.440765" lon="8.45406"><ele>561.0</ele><time>2026-03-26T11:39:41.95Z</time></trkpt><trkpt lat="44.4407983" lon="8.4541383"><ele>565.0</ele><time>2026-03-26T11:39:42.951Z</time></trkpt><trkpt lat="44.4408617" lon="8.454265"><ele>569.0</ele><time>2026-03-26T11:39:44.95Z</time></trkpt><trkpt lat="44.4409567" lon="8.4542667"><ele>573.0</ele><time>2026-03-26T11:39:46.95Z</time></trkpt><trkpt lat="44.4410333" lon="8.4542133"><ele>573.0</ele><time>2026-03-26T11:39:47.951Z</time></trkpt><trkpt lat="44.4411317" lon="8.4541567"><ele>573.0</ele><time>2026-03-26T11:39:48.951Z</time></trkpt><trkpt lat="44.4412183" lon="8.4541217"><ele>573.0</ele><time>2026-03-26T11:39:49.951Z</time></trkpt><trkpt lat="44.4412983" lon="8.4541133"><ele>573.0</ele><time>2026-03-26T11:39:50.951Z</time></trkpt><trkpt lat="44.4413833" lon="8.454125"><ele>573.0</ele><time>2026-03-26T11:39:51.95Z</time></trkpt><trkpt lat="44.44145" lon="8.4541417"><ele>573.0</ele><time>2026-03-26T11:39:52.95Z</time></trkpt><trkpt lat="44.4415617" lon="8.454115"><ele>573.6</ele><time>2026-03-26T11:39:54.951Z</time></trkpt><trkpt lat="44.4415983" lon="8.4540383"><ele>574.1999999999999</ele><time>2026-03-26T11:39:55.95Z</time></trkpt><trkpt lat="44.4416417" lon="8.4539333"><ele>574.8</ele><time>2026-03-26T11:39:56.951Z</time></trkpt><trkpt lat="44.4416783" lon="8.4537817"><ele>575.4</ele><time>2026-03-26T11:39:57.951Z</time></trkpt><trkpt lat="44.441715" lon="8.4536267"><ele>576.0</ele><time>2026-03-26T11:39:58.951Z</time></trkpt><trkpt lat="44.441745" lon="8.453505"><ele>573.4</ele><time>2026-03-26T11:39:59.95Z</time></trkpt><trkpt lat="44.441775" lon="8.4534"><ele>570.8</ele><time>2026-03-26T11:40:00.951Z</time></trkpt><trkpt lat="44.4418233" lon="8.453265"><ele>568.1999999999999</ele><time>2026-03-26T11:40:02.95Z</time></trkpt><trkpt lat="44.4418817" lon="8.4532017"><ele>565.6</ele><time>2026-03-26T11:40:04.951Z</time></trkpt><trkpt lat="44.4419767" lon="8.4531683"><ele>563.0</ele><time>2026-03-26T11:40:06.951Z</time></trkpt><trkpt lat="44.4420933" lon="8.4531583"><ele>564.1428571428571</ele><time>2026-03-26T11:40:08.951Z</time></trkpt><trkpt lat="44.4421683" lon="8.4531617"><ele>565.2857142857143</ele><time>2026-03-26T11:40:09.951Z</time></trkpt><trkpt lat="44.442245" lon="8.453175"><ele>566.4285714285714</ele><time>2026-03-26T11:40:10.95Z</time></trkpt><trkpt lat="44.4423133" lon="8.4532067"><ele>567.5714285714286</ele><time>2026-03-26T11:40:11.951Z</time></trkpt><trkpt lat="44.44238" lon="8.4532433"><ele>568.7142857142857</ele><time>2026-03-26T11:40:12.95Z</time></trkpt><trkpt lat="44.44244" lon="8.45327"><ele>569.8571428571429</ele><time>2026-03-26T11:40:13.951Z</time></trkpt><trkpt lat="44.4425033" lon="8.4532833"><ele>571.0</ele><time>2026-03-26T11:40:14.95Z</time></trkpt><trkpt lat="44.4426333" lon="8.45333"><ele>571.0</ele><time>2026-03-26T11:40:16.951Z</time></trkpt><trkpt lat="44.44272" lon="8.453375"><ele>571.0</ele><time>2026-03-26T11:40:17.951Z</time></trkpt><trkpt lat="44.4428183" lon="8.4534283"><ele>571.0</ele><time>2026-03-26T11:40:18.95Z</time></trkpt><trkpt lat="44.4429217" lon="8.453495"><ele>571.0</ele><time>2026-03-26T11:40:19.95Z</time></trkpt><trkpt lat="44.443015" lon="8.4535567"><ele>571.0</ele><time>2026-03-26T11:40:20.951Z</time></trkpt><trkpt lat="44.44308" lon="8.4536167"><ele>570.0</ele><time>2026-03-26T11:40:21.95Z</time></trkpt><trkpt lat="44.4431533" lon="8.4536733"><ele>569.0</ele><time>2026-03-26T11:40:22.951Z</time></trkpt><trkpt lat="44.443205" lon="8.4537317"><ele>568.0</ele><time>2026-03-26T11:40:23.95Z</time></trkpt><trkpt lat="44.4432633" lon="8.4537667"><ele>567.0</ele><time>2026-03-26T11:40:24.95Z</time></trkpt><trkpt lat="44.4433617" lon="8.45378"><ele>566.0</ele><time>2026-03-26T11:40:26.95Z</time></trkpt><trkpt lat="44.4434633" lon="8.4536367"><ele>566.0</ele><time>2026-03-26T11:40:28.95Z</time></trkpt><trkpt lat="44.4435167" lon="8.453555"><ele>566.0</ele><time>2026-03-26T11:40:29.951Z</time></trkpt><trkpt lat="44.4435733" lon="8.4534933"><ele>566.0</ele><time>2026-03-26T11:40:30.95Z</time></trkpt><trkpt lat="44.4436533" lon="8.45346"><ele>566.0</ele><time>2026-03-26T11:40:31.95Z</time></trkpt><trkpt lat="44.4437333" lon="8.45345"><ele>566.0</ele><time>2026-03-26T11:40:32.951Z</time></trkpt><trkpt lat="44.4438217" lon="8.4534467"><ele>566.0</ele><time>2026-03-26T11:40:33.951Z</time></trkpt><trkpt lat="44.4439" lon="8.4534433"><ele>565.0</ele><time>2026-03-26T11:40:34.95Z</time></trkpt><trkpt lat="44.44398" lon="8.453455"><ele>564.0</ele><time>2026-03-26T11:40:35.951Z</time></trkpt><trkpt lat="44.444045" lon="8.4534917"><ele>563.0</ele><time>2026-03-26T11:40:36.951Z</time></trkpt><trkpt lat="44.4441167" lon="8.4535533"><ele>562.0</ele><time>2026-03-26T11:40:37.95Z</time></trkpt><trkpt lat="44.4441867" lon="8.4536283"><ele>561.0</ele><time>2026-03-26T11:40:38.95Z</time></trkpt><trkpt lat="44.4442467" lon="8.4537017"><ele>560.0</ele><time>2026-03-26T11:40:39.951Z</time></trkpt><trkpt lat="44.4443033" lon="8.45377"><ele>560.8333333333333</ele><time>2026-03-26T11:40:40.95Z</time></trkpt><trkpt lat="44.4443717" lon="8.4538433"><ele>561.6666666666666</ele><time>2026-03-26T11:40:41.951Z</time></trkpt><trkpt lat="44.444445" lon="8.4539033"><ele>562.5</ele><time>2026-03-26T11:40:42.951Z</time></trkpt><trkpt lat="44.444505" lon="8.4539533"><ele>563.3333333333334</ele><time>2026-03-26T11:40:43.951Z</time></trkpt><trkpt lat="44.4446" lon="8.453965"><ele>564.1666666666667</ele><time>2026-03-26T11:40:45.95Z</time></trkpt><trkpt lat="44.4446917" lon="8.4539083"><ele>565.0</ele><time>2026-03-26T11:40:47.95Z</time></trkpt><trkpt lat="44.44477" lon="8.4537783"><ele>562.1666666666667</ele><time>2026-03-26T11:40:49.951Z</time></trkpt><trkpt lat="44.4448183" lon="8.4536867"><ele>559.3333333333334</ele><time>2026-03-26T11:40:50.951Z</time></trkpt><trkpt lat="44.4448683" lon="8.4535867"><ele>556.5</ele><time>2026-03-26T11:40:51.95Z</time></trkpt><trkpt lat="44.44492" lon="8.453515"><ele>553.6666666666666</ele><time>2026-03-26T11:40:52.95Z</time></trkpt><trkpt lat="44.4449817" lon="8.4534733"><ele>550.8333333333333</ele><time>2026-03-26T11:40:53.95Z</time></trkpt><trkpt lat="44.445115" lon="8.4534567"><ele>548.0</ele><time>2026-03-26T11:40:55.95Z</time></trkpt><trkpt lat="44.4451867" lon="8.453455"><ele>548.0</ele><time>2026-03-26T11:40:56.951Z</time></trkpt><trkpt lat="44.4452617" lon="8.45346"><ele>548.0</ele><time>2026-03-26T11:40:57.951Z</time></trkpt><trkpt lat="44.445335" lon="8.45346"><ele>548.0</ele><time>2026-03-26T11:40:58.951Z</time></trkpt><trkpt lat="44.445455" lon="8.4534717"><ele>548.0</ele><time>2026-03-26T11:41:00.95Z</time></trkpt><trkpt lat="44.4455283" lon="8.4534733"><ele>548.0</ele><time>2026-03-26T11:41:02.951Z</time></trkpt><trkpt lat="44.44556" lon="8.4533483"><ele>548.0</ele><time>2026-03-26T11:41:05.951Z</time></trkpt><trkpt lat="44.4455233" lon="8.4531683"><ele>548.0</ele><time>2026-03-26T11:41:07.95Z</time></trkpt><trkpt lat="44.4454883" lon="8.4530917"><ele>548.0</ele><time>2026-03-26T11:41:08.95Z</time></trkpt><trkpt lat="44.4454267" lon="8.4529917"><ele>548.0</ele><time>2026-03-26T11:41:10.951Z</time></trkpt><trkpt lat="44.445355" lon="8.4529383"><ele>548.0</ele><time>2026-03-26T11:41:12.95Z</time></trkpt><trkpt lat="44.44532" lon="8.45285"><ele>548.0</ele><time>2026-03-26T11:41:14.95Z</time></trkpt><trkpt lat="44.4453133" lon="8.452705"><ele>548.0</ele><time>2026-03-26T11:41:16.951Z</time></trkpt><trkpt lat="44.4452883" lon="8.45254"><ele>548.4</ele><time>2026-03-26T11:41:18.95Z</time></trkpt><trkpt lat="44.4452283" lon="8.4523917"><ele>548.8</ele><time>2026-03-26T11:41:20.95Z</time></trkpt><trkpt lat="44.4451667" lon="8.4523217"><ele>549.2</ele><time>2026-03-26T11:41:21.951Z</time></trkpt><trkpt lat="44.445115" lon="8.45226"><ele>549.6</ele><time>2026-03-26T11:41:22.95Z</time></trkpt><trkpt lat="44.445085" lon="8.45212"><ele>550.0</ele><time>2026-03-26T11:41:24.95Z</time></trkpt><trkpt lat="44.4451133" lon="8.451955"><ele>551.0</ele><time>2026-03-26T11:41:26.95Z</time></trkpt><trkpt lat="44.44514" lon="8.4518533"><ele>552.0</ele><time>2026-03-26T11:41:27.95Z</time></trkpt><trkpt lat="44.4451683" lon="8.4517367"><ele>553.0</ele><time>2026-03-26T11:41:28.95Z</time></trkpt><trkpt lat="44.44521" lon="8.4515967"><ele>554.0</ele><time>2026-03-26T11:41:29.951Z</time></trkpt><trkpt lat="44.4452533" lon="8.4514317"><ele>555.0</ele><time>2026-03-26T11:41:30.95Z</time></trkpt><trkpt lat="44.4453017" lon="8.451245"><ele>555.0</ele><time>2026-03-26T11:41:31.95Z</time></trkpt><trkpt lat="44.44535" lon="8.4510567"><ele>555.0</ele><time>2026-03-26T11:41:32.951Z</time></trkpt><trkpt lat="44.4453867" lon="8.450905"><ele>555.0</ele><time>2026-03-26T11:41:33.95Z</time></trkpt><trkpt lat="44.445415" lon="8.4508017"><ele>555.0</ele><time>2026-03-26T11:41:34.95Z</time></trkpt><trkpt lat="44.445495" lon="8.4506883"><ele>559.0</ele><time>2026-03-26T11:41:36.95Z</time></trkpt><trkpt lat="44.445615" lon="8.4506817"><ele>563.0</ele><time>2026-03-26T11:41:38.951Z</time></trkpt><trkpt lat="44.4457017" lon="8.45075"><ele>567.0</ele><time>2026-03-26T11:41:40.951Z</time></trkpt><trkpt lat="44.4457983" lon="8.450885"><ele>571.0</ele><time>2026-03-26T11:41:42.95Z</time></trkpt><trkpt lat="44.44586" lon="8.45095"><ele>575.0</ele><time>2026-03-26T11:41:43.951Z</time></trkpt><trkpt lat="44.445935" lon="8.4510217"><ele>575.0</ele><time>2026-03-26T11:41:44.95Z</time></trkpt><trkpt lat="44.4460033" lon="8.4510717"><ele>575.0</ele><time>2026-03-26T11:41:45.951Z</time></trkpt><trkpt lat="44.4460683" lon="8.4511"><ele>575.0</ele><time>2026-03-26T11:41:46.95Z</time></trkpt><trkpt lat="44.4461417" lon="8.45111"><ele>575.0</ele><time>2026-03-26T11:41:47.95Z</time></trkpt><trkpt lat="44.4462117" lon="8.4511267"><ele>575.0</ele><time>2026-03-26T11:41:48.951Z</time></trkpt><trkpt lat="44.4462833" lon="8.4511567"><ele>575.0</ele><time>2026-03-26T11:41:49.951Z</time></trkpt><trkpt lat="44.44636" lon="8.4511917"><ele>575.0</ele><time>2026-03-26T11:41:50.95Z</time></trkpt><trkpt lat="44.4464367" lon="8.4512283"><ele>578.0</ele><time>2026-03-26T11:41:51.951Z</time></trkpt><trkpt lat="44.4465183" lon="8.4512267"><ele>581.0</ele><time>2026-03-26T11:41:52.95Z</time></trkpt><trkpt lat="44.4466117" lon="8.4512267"><ele>584.0</ele><time>2026-03-26T11:41:53.951Z</time></trkpt><trkpt lat="44.44669" lon="8.4512167"><ele>587.0</ele><time>2026-03-26T11:41:54.951Z</time></trkpt><trkpt lat="44.4467533" lon="8.45123"><ele>590.0</ele><time>2026-03-26T11:41:55.95Z</time></trkpt><trkpt lat="44.4468183" lon="8.4512467"><ele>593.0</ele><time>2026-03-26T11:41:56.95Z</time></trkpt><trkpt lat="44.44689" lon="8.4512433"><ele>593.0</ele><time>2026-03-26T11:41:57.95Z</time></trkpt><trkpt lat="44.4469767" lon="8.45124"><ele>593.0</ele><time>2026-03-26T11:41:58.95Z</time></trkpt><trkpt lat="44.4470733" lon="8.451225"><ele>593.0</ele><time>2026-03-26T11:41:59.951Z</time></trkpt><trkpt lat="44.4471783" lon="8.4512017"><ele>593.0</ele><time>2026-03-26T11:42:00.951Z</time></trkpt><trkpt lat="44.4472833" lon="8.4511683"><ele>593.0</ele><time>2026-03-26T11:42:01.95Z</time></trkpt><trkpt lat="44.4473717" lon="8.4511133"><ele>595.8333333333333</ele><time>2026-03-26T11:42:02.951Z</time></trkpt><trkpt lat="44.4474417" lon="8.4510433"><ele>598.6666666666666</ele><time>2026-03-26T11:42:03.951Z</time></trkpt><trkpt lat="44.4475033" lon="8.4509633"><ele>601.5</ele><time>2026-03-26T11:42:04.951Z</time></trkpt><trkpt lat="44.4475683" lon="8.450885"><ele>604.3333333333334</ele><time>2026-03-26T11:42:05.951Z</time></trkpt><trkpt lat="44.4476417" lon="8.4508283"><ele>607.1666666666667</ele><time>2026-03-26T11:42:06.95Z</time></trkpt><trkpt lat="44.4477183" lon="8.45079"><ele>610.0</ele><time>2026-03-26T11:42:07.951Z</time></trkpt><trkpt lat="44.4477833" lon="8.4507467"><ele>610.0</ele><time>2026-03-26T11:42:08.95Z</time></trkpt><trkpt lat="44.4478317" lon="8.45067"><ele>610.0</ele><time>2026-03-26T11:42:09.95Z</time></trkpt><trkpt lat="44.4478817" lon="8.4505767"><ele>610.0</ele><time>2026-03-26T11:42:10.95Z</time></trkpt><trkpt lat="44.447945" lon="8.45048"><ele>610.0</ele><time>2026-03-26T11:42:11.951Z</time></trkpt><trkpt lat="44.4480117" lon="8.4504017"><ele>610.0</ele><time>2026-03-26T11:42:12.951Z</time></trkpt><trkpt lat="44.4480733" lon="8.4503433"><ele>610.0</ele><time>2026-03-26T11:42:13.951Z</time></trkpt><trkpt lat="44.4481383" lon="8.45031"><ele>613.2</ele><time>2026-03-26T11:42:14.95Z</time></trkpt><trkpt lat="44.4482333" lon="8.450345"><ele>616.4</ele><time>2026-03-26T11:42:16.95Z</time></trkpt><trkpt lat="44.4482733" lon="8.4504883"><ele>619.6</ele><time>2026-03-26T11:42:18.951Z</time></trkpt><trkpt lat="44.4482783" lon="8.45059"><ele>622.8</ele><time>2026-03-26T11:42:19.951Z</time></trkpt><trkpt lat="44.448285" lon="8.4507233"><ele>626.0</ele><time>2026-03-26T11:42:20.95Z</time></trkpt><trkpt lat="44.4482733" lon="8.4508783"><ele>626.8</ele><time>2026-03-26T11:42:21.95Z</time></trkpt><trkpt lat="44.4482467" lon="8.451035"><ele>627.6</ele><time>2026-03-26T11:42:22.95Z</time></trkpt><trkpt lat="44.4482383" lon="8.45117"><ele>628.4</ele><time>2026-03-26T11:42:23.95Z</time></trkpt><trkpt lat="44.4482533" lon="8.4513"><ele>629.2</ele><time>2026-03-26T11:42:24.95Z</time></trkpt><trkpt lat="44.4482783" lon="8.4514117"><ele>630.0</ele><time>2026-03-26T11:42:25.951Z</time></trkpt><trkpt lat="44.448325" lon="8.4515017"><ele>630.0</ele><time>2026-03-26T11:42:26.95Z</time></trkpt><trkpt lat="44.4483917" lon="8.4516083"><ele>630.0</ele><time>2026-03-26T11:42:27.95Z</time></trkpt><trkpt lat="44.4484617" lon="8.4516967"><ele>630.0</ele><time>2026-03-26T11:42:28.95Z</time></trkpt><trkpt lat="44.4485183" lon="8.4517683"><ele>630.0</ele><time>2026-03-26T11:42:29.951Z</time></trkpt><trkpt lat="44.44857" lon="8.45185"><ele>630.0</ele><time>2026-03-26T11:42:30.95Z</time></trkpt><trkpt lat="44.44861" lon="8.45197"><ele>630.0</ele><time>2026-03-26T11:42:31.95Z</time></trkpt><trkpt lat="44.4486533" lon="8.452115"><ele>631.6</ele><time>2026-03-26T11:42:32.951Z</time></trkpt><trkpt lat="44.4486967" lon="8.4522367"><ele>633.2</ele><time>2026-03-26T11:42:33.95Z</time></trkpt><trkpt lat="44.44874" lon="8.4523367"><ele>634.8</ele><time>2026-03-26T11:42:34.95Z</time></trkpt><trkpt lat="44.4488467" lon="8.452445"><ele>636.4</ele><time>2026-03-26T11:42:36.95Z</time></trkpt><trkpt lat="44.448935" lon="8.45248"><ele>638.0</ele><time>2026-03-26T11:42:37.95Z</time></trkpt><trkpt lat="44.4490317" lon="8.4524917"><ele>638.0</ele><time>2026-03-26T11:42:38.951Z</time></trkpt><trkpt lat="44.449135" lon="8.452485"><ele>638.0</ele><time>2026-03-26T11:42:39.95Z</time></trkpt><trkpt lat="44.4492567" lon="8.45245"><ele>638.0</ele><time>2026-03-26T11:42:40.951Z</time></trkpt><trkpt lat="44.4493467" lon="8.4524233"><ele>638.0</ele><time>2026-03-26T11:42:41.95Z</time></trkpt><trkpt lat="44.44941" lon="8.4523967"><ele>638.0</ele><time>2026-03-26T11:42:42.951Z</time></trkpt><trkpt lat="44.449485" lon="8.4523867"><ele>638.0</ele><time>2026-03-26T11:42:44.951Z</time></trkpt><trkpt lat="44.4495267" lon="8.4524733"><ele>638.0</ele><time>2026-03-26T11:42:46.951Z</time></trkpt><trkpt lat="44.4496067" lon="8.4526383"><ele>638.0</ele><time>2026-03-26T11:42:48.951Z</time></trkpt><trkpt lat="44.4496633" lon="8.45276"><ele>638.0</ele><time>2026-03-26T11:42:49.95Z</time></trkpt><trkpt lat="44.4497217" lon="8.452895"><ele>638.0</ele><time>2026-03-26T11:42:50.95Z</time></trkpt><trkpt lat="44.44977" lon="8.453005"><ele>637.0</ele><time>2026-03-26T11:42:51.95Z</time></trkpt><trkpt lat="44.4498083" lon="8.453095"><ele>636.0</ele><time>2026-03-26T11:42:52.95Z</time></trkpt><trkpt lat="44.4498933" lon="8.453135"><ele>635.0</ele><time>2026-03-26T11:42:54.951Z</time></trkpt><trkpt lat="44.4499417" lon="8.453065"><ele>634.0</ele><time>2026-03-26T11:42:55.951Z</time></trkpt><trkpt lat="44.45" lon="8.45299"><ele>633.0</ele><time>2026-03-26T11:42:56.951Z</time></trkpt><trkpt lat="44.45008" lon="8.45291"><ele>632.0</ele><time>2026-03-26T11:42:57.951Z</time></trkpt><trkpt lat="44.4501683" lon="8.45283"><ele>635.4000000000001</ele><time>2026-03-26T11:42:58.95Z</time></trkpt><trkpt lat="44.4502583" lon="8.452745"><ele>638.8000000000001</ele><time>2026-03-26T11:42:59.951Z</time></trkpt><trkpt lat="44.4503283" lon="8.4526767"><ele>642.2</ele><time>2026-03-26T11:43:00.95Z</time></trkpt><trkpt lat="44.4503933" lon="8.4526167"><ele>645.6</ele><time>2026-03-26T11:43:01.951Z</time></trkpt><trkpt lat="44.4504717" lon="8.4525"><ele>649.0</ele><time>2026-03-26T11:43:03.95Z</time></trkpt><trkpt lat="44.4505117" lon="8.4524083"><ele>649.0</ele><time>2026-03-26T11:43:04.951Z</time></trkpt><trkpt lat="44.4505467" lon="8.4523183"><ele>649.0</ele><time>2026-03-26T11:43:05.95Z</time></trkpt><trkpt lat="44.4506033" lon="8.45218"><ele>649.0</ele><time>2026-03-26T11:43:07.951Z</time></trkpt><trkpt lat="44.4507133" lon="8.4520983"><ele>649.0</ele><time>2026-03-26T11:43:09.95Z</time></trkpt><trkpt lat="44.450805" lon="8.4520883"><ele>649.0</ele><time>2026-03-26T11:43:10.95Z</time></trkpt><trkpt lat="44.4509133" lon="8.4520983"><ele>649.0</ele><time>2026-03-26T11:43:11.951Z</time></trkpt><trkpt lat="44.4510233" lon="8.4521183"><ele>649.0</ele><time>2026-03-26T11:43:12.951Z</time></trkpt><trkpt lat="44.45112" lon="8.4521583"><ele>649.0</ele><time>2026-03-26T11:43:13.951Z</time></trkpt><trkpt lat="44.4512067" lon="8.4522133"><ele>649.0</ele><time>2026-03-26T11:43:14.95Z</time></trkpt><trkpt lat="44.4512817" lon="8.4522817"><ele>649.0</ele><time>2026-03-26T11:43:15.95Z</time></trkpt><trkpt lat="44.45133" lon="8.452345"><ele>649.6</ele><time>2026-03-26T11:43:16.95Z</time></trkpt><trkpt lat="44.451395" lon="8.4524917"><ele>650.2</ele><time>2026-03-26T11:43:18.951Z</time></trkpt><trkpt lat="44.4514167" lon="8.452575"><ele>650.8000000000001</ele><time>2026-03-26T11:43:19.951Z</time></trkpt><trkpt lat="44.4515083" lon="8.4526367"><ele>651.4000000000001</ele><time>2026-03-26T11:43:21.95Z</time></trkpt><trkpt lat="44.4515933" lon="8.4526383"><ele>652.0</ele><time>2026-03-26T11:43:22.951Z</time></trkpt><trkpt lat="44.4516733" lon="8.4526483"><ele>652.0</ele><time>2026-03-26T11:43:23.951Z</time></trkpt><trkpt lat="44.45174" lon="8.45267"><ele>652.0</ele><time>2026-03-26T11:43:24.951Z</time></trkpt><trkpt lat="44.451815" lon="8.4527183"><ele>652.0</ele><time>2026-03-26T11:43:25.95Z</time></trkpt><trkpt lat="44.4518817" lon="8.4527783"><ele>652.0</ele><time>2026-03-26T11:43:26.951Z</time></trkpt><trkpt lat="44.4520067" lon="8.4528033"><ele>652.0</ele><time>2026-03-26T11:43:28.951Z</time></trkpt><trkpt lat="44.45207" lon="8.4528033"><ele>652.0</ele><time>2026-03-26T11:43:29.95Z</time></trkpt><trkpt lat="44.4521767" lon="8.4528483"><ele>654.2</ele><time>2026-03-26T11:43:31.95Z</time></trkpt><trkpt lat="44.4523033" lon="8.4529183"><ele>656.4000000000001</ele><time>2026-03-26T11:43:33.95Z</time></trkpt><trkpt lat="44.4523683" lon="8.4529733"><ele>658.5999999999999</ele><time>2026-03-26T11:43:34.95Z</time></trkpt><trkpt lat="44.4524233" lon="8.4530533"><ele>660.8</ele><time>2026-03-26T11:43:35.95Z</time></trkpt><trkpt lat="44.4524633" lon="8.453155"><ele>663.0</ele><time>2026-03-26T11:43:36.951Z</time></trkpt><trkpt lat="44.4525" lon="8.453255"><ele>663.3333333333334</ele><time>2026-03-26T11:43:37.951Z</time></trkpt><trkpt lat="44.452525" lon="8.45336"><ele>663.6666666666666</ele><time>2026-03-26T11:43:38.951Z</time></trkpt><trkpt lat="44.4525333" lon="8.453485"><ele>664.0</ele><time>2026-03-26T11:43:39.951Z</time></trkpt><trkpt lat="44.452525" lon="8.453615"><ele>664.3333333333333</ele><time>2026-03-26T11:43:40.951Z</time></trkpt><trkpt lat="44.452515" lon="8.45372"><ele>664.6666666666666</ele><time>2026-03-26T11:43:41.951Z</time></trkpt><trkpt lat="44.4525183" lon="8.4538133"><ele>665.0</ele><time>2026-03-26T11:43:42.95Z</time></trkpt><trkpt lat="44.4525317" lon="8.4539117"><ele>665.0</ele><time>2026-03-26T11:43:43.95Z</time></trkpt><trkpt lat="44.45257" lon="8.4540217"><ele>665.0</ele><time>2026-03-26T11:43:44.951Z</time></trkpt><trkpt lat="44.4526133" lon="8.4541367"><ele>665.0</ele><time>2026-03-26T11:43:45.95Z</time></trkpt><trkpt lat="44.452655" lon="8.454245"><ele>665.0</ele><time>2026-03-26T11:43:46.95Z</time></trkpt><trkpt lat="44.452675" lon="8.45435"><ele>665.0</ele><time>2026-03-26T11:43:47.95Z</time></trkpt><trkpt lat="44.4526533" lon="8.45445"><ele>665.0</ele><time>2026-03-26T11:43:48.95Z</time></trkpt><trkpt lat="44.4526167" lon="8.4545383"><ele>664.5</ele><time>2026-03-26T11:43:49.95Z</time></trkpt><trkpt lat="44.4525783" lon="8.4546217"><ele>664.0</ele><time>2026-03-26T11:43:50.951Z</time></trkpt><trkpt lat="44.4526133" lon="8.4546983"><ele>663.5</ele><time>2026-03-26T11:43:53.951Z</time></trkpt><trkpt lat="44.452685" lon="8.4547233"><ele>663.0</ele><time>2026-03-26T11:43:55.95Z</time></trkpt><trkpt lat="44.4528017" lon="8.4547867"><ele>662.5</ele><time>2026-03-26T11:43:57.951Z</time></trkpt><trkpt lat="44.45286" lon="8.454835"><ele>662.0</ele><time>2026-03-26T11:43:58.951Z</time></trkpt><trkpt lat="44.4529283" lon="8.45489"><ele>665.3333333333333</ele><time>2026-03-26T11:43:59.951Z</time></trkpt><trkpt lat="44.4530067" lon="8.4549683"><ele>668.6666666666666</ele><time>2026-03-26T11:44:00.95Z</time></trkpt><trkpt lat="44.4530883" lon="8.455055"><ele>672.0</ele><time>2026-03-26T11:44:01.951Z</time></trkpt><trkpt lat="44.4531617" lon="8.4551367"><ele>675.3333333333334</ele><time>2026-03-26T11:44:02.95Z</time></trkpt><trkpt lat="44.4532267" lon="8.4552067"><ele>678.6666666666667</ele><time>2026-03-26T11:44:03.951Z</time></trkpt><trkpt lat="44.453285" lon="8.4552717"><ele>682.0</ele><time>2026-03-26T11:44:04.951Z</time></trkpt><trkpt lat="44.4533467" lon="8.4553217"><ele>682.0</ele><time>2026-03-26T11:44:05.951Z</time></trkpt><trkpt lat="44.45343" lon="8.4553317"><ele>682.0</ele><time>2026-03-26T11:44:07.95Z</time></trkpt><trkpt lat="44.4534333" lon="8.455195"><ele>682.0</ele><time>2026-03-26T11:44:11.95Z</time></trkpt><trkpt lat="44.4534083" lon="8.4550167"><ele>682.0</ele><time>2026-03-26T11:44:13.951Z</time></trkpt><trkpt lat="44.453385" lon="8.45492"><ele>682.0</ele><time>2026-03-26T11:44:14.95Z</time></trkpt><trkpt lat="44.4533617" lon="8.4548183"><ele>682.0</ele><time>2026-03-26T11:44:15.951Z</time></trkpt><trkpt lat="44.4533483" lon="8.454705"><ele>682.0</ele><time>2026-03-26T11:44:16.951Z</time></trkpt><trkpt lat="44.4533417" lon="8.4546"><ele>682.0</ele><time>2026-03-26T11:44:17.95Z</time></trkpt><trkpt lat="44.4533267" lon="8.45447"><ele>682.0</ele><time>2026-03-26T11:44:18.951Z</time></trkpt><trkpt lat="44.4533133" lon="8.4543467"><ele>682.0</ele><time>2026-03-26T11:44:19.951Z</time></trkpt><trkpt lat="44.4533" lon="8.45421"><ele>682.0</ele><time>2026-03-26T11:44:20.95Z</time></trkpt><trkpt lat="44.4532967" lon="8.4540767"><ele>682.0</ele><time>2026-03-26T11:44:21.95Z</time></trkpt><trkpt lat="44.453295" lon="8.4539733"><ele>682.0</ele><time>2026-03-26T11:44:22.95Z</time></trkpt><trkpt lat="44.4533217" lon="8.4538417"><ele>682.0</ele><time>2026-03-26T11:44:24.95Z</time></trkpt><trkpt lat="44.45338" lon="8.4537283"><ele>682.0</ele><time>2026-03-26T11:44:26.951Z</time></trkpt><trkpt lat="44.45345" lon="8.453615"><ele>682.0</ele><time>2026-03-26T11:44:28.95Z</time></trkpt><trkpt lat="44.4534867" lon="8.45354"><ele>682.0</ele><time>2026-03-26T11:44:29.95Z</time></trkpt><trkpt lat="44.4535283" lon="8.45346"><ele>681.2</ele><time>2026-03-26T11:44:30.951Z</time></trkpt><trkpt lat="44.4535883" lon="8.4533617"><ele>680.4000000000001</ele><time>2026-03-26T11:44:31.951Z</time></trkpt><trkpt lat="44.453645" lon="8.45326"><ele>679.5999999999999</ele><time>2026-03-26T11:44:32.95Z</time></trkpt><trkpt lat="44.453695" lon="8.4531533"><ele>678.8</ele><time>2026-03-26T11:44:33.951Z</time></trkpt><trkpt lat="44.4537283" lon="8.4530683"><ele>678.0</ele><time>2026-03-26T11:44:34.95Z</time></trkpt><trkpt lat="44.4537767" lon="8.4529217"><ele>677.2</ele><time>2026-03-26T11:44:36.951Z</time></trkpt><trkpt lat="44.4537917" lon="8.4527783"><ele>676.4</ele><time>2026-03-26T11:44:38.95Z</time></trkpt><trkpt lat="44.4537833" lon="8.4526817"><ele>675.6</ele><time>2026-03-26T11:44:39.95Z</time></trkpt><trkpt lat="44.4537733" lon="8.4525517"><ele>674.8000000000001</ele><time>2026-03-26T11:44:40.95Z</time></trkpt><trkpt lat="44.4537667" lon="8.4523983"><ele>674.0</ele><time>2026-03-26T11:44:41.95Z</time></trkpt><trkpt lat="44.4537633" lon="8.4522383"><ele>674.75</ele><time>2026-03-26T11:44:42.951Z</time></trkpt><trkpt lat="44.4537667" lon="8.4520567"><ele>675.5</ele><time>2026-03-26T11:44:43.951Z</time></trkpt><trkpt lat="44.4537867" lon="8.4518817"><ele>676.25</ele><time>2026-03-26T11:44:44.95Z</time></trkpt><trkpt lat="44.4538233" lon="8.451725"><ele>677.0</ele><time>2026-03-26T11:44:45.95Z</time></trkpt><trkpt lat="44.4538667" lon="8.4515867"><ele>677.0</ele><time>2026-03-26T11:44:46.951Z</time></trkpt><trkpt lat="44.453905" lon="8.4514733"><ele>677.0</ele><time>2026-03-26T11:44:47.951Z</time></trkpt><trkpt lat="44.4539283" lon="8.451355"><ele>677.0</ele><time>2026-03-26T11:44:48.95Z</time></trkpt><trkpt lat="44.4539317" lon="8.4512383"><ele>677.0</ele><time>2026-03-26T11:44:49.95Z</time></trkpt><trkpt lat="44.4538817" lon="8.4510833"><ele>677.0</ele><time>2026-03-26T11:44:51.951Z</time></trkpt><trkpt lat="44.4538433" lon="8.4509933"><ele>676.3333333333333</ele><time>2026-03-26T11:44:52.95Z</time></trkpt><trkpt lat="44.4538167" lon="8.4508883"><ele>675.6666666666666</ele><time>2026-03-26T11:44:53.95Z</time></trkpt><trkpt lat="44.453785" lon="8.4507783"><ele>675.0</ele><time>2026-03-26T11:44:54.95Z</time></trkpt><trkpt lat="44.4537467" lon="8.4506683"><ele>674.3333333333334</ele><time>2026-03-26T11:44:55.951Z</time></trkpt><trkpt lat="44.45371" lon="8.4505783"><ele>673.6666666666667</ele><time>2026-03-26T11:44:56.95Z</time></trkpt><trkpt lat="44.4536567" lon="8.4504883"><ele>673.0</ele><time>2026-03-26T11:44:57.95Z</time></trkpt><trkpt lat="44.4535783" lon="8.4503967"><ele>672.8</ele><time>2026-03-26T11:44:58.95Z</time></trkpt><trkpt lat="44.4535183" lon="8.4503033"><ele>672.5999999999999</ele><time>2026-03-26T11:44:59.95Z</time></trkpt><trkpt lat="44.4534817" lon="8.4502133"><ele>672.4000000000001</ele><time>2026-03-26T11:45:00.95Z</time></trkpt><trkpt lat="44.4534733" lon="8.450035"><ele>672.2</ele><time>2026-03-26T11:45:02.951Z</time></trkpt><trkpt lat="44.4535067" lon="8.449875"><ele>672.0</ele><time>2026-03-26T11:45:04.95Z</time></trkpt><trkpt lat="44.4535183" lon="8.4497867"><ele>672.0</ele><time>2026-03-26T11:45:05.95Z</time></trkpt><trkpt lat="44.4535283" lon="8.44969"><ele>672.0</ele><time>2026-03-26T11:45:06.95Z</time></trkpt><trkpt lat="44.453535" lon="8.4495933"><ele>672.0</ele><time>2026-03-26T11:45:07.951Z</time></trkpt><trkpt lat="44.4535367" lon="8.4494933"><ele>672.0</ele><time>2026-03-26T11:45:08.952Z</time></trkpt><trkpt lat="44.4535333" lon="8.4493817"><ele>672.0</ele><time>2026-03-26T11:45:09.952Z</time></trkpt><trkpt lat="44.4535333" lon="8.44926"><ele>672.0</ele><time>2026-03-26T11:45:10.951Z</time></trkpt><trkpt lat="44.4535483" lon="8.449155"><ele>672.0</ele><time>2026-03-26T11:45:11.952Z</time></trkpt><trkpt lat="44.4535933" lon="8.4490533"><ele>672.0</ele><time>2026-03-26T11:45:12.951Z</time></trkpt><trkpt lat="44.45365" lon="8.4489517"><ele>672.0</ele><time>2026-03-26T11:45:13.951Z</time></trkpt><trkpt lat="44.4537167" lon="8.448865"><ele>672.0</ele><time>2026-03-26T11:45:14.952Z</time></trkpt><trkpt lat="44.45379" lon="8.448775"><ele>672.0</ele><time>2026-03-26T11:45:15.952Z</time></trkpt><trkpt lat="44.4538633" lon="8.4486933"><ele>672.0</ele><time>2026-03-26T11:45:16.952Z</time></trkpt><trkpt lat="44.4539167" lon="8.4485983"><ele>672.0</ele><time>2026-03-26T11:45:17.952Z</time></trkpt><trkpt lat="44.45397" lon="8.4484967"><ele>672.0</ele><time>2026-03-26T11:45:18.951Z</time></trkpt><trkpt lat="44.454015" lon="8.4483917"><ele>672.0</ele><time>2026-03-26T11:45:19.951Z</time></trkpt><trkpt lat="44.4540433" lon="8.4482883"><ele>672.0</ele><time>2026-03-26T11:45:20.951Z</time></trkpt><trkpt lat="44.4540533" lon="8.4481933"><ele>672.0</ele><time>2026-03-26T11:45:21.951Z</time></trkpt><trkpt lat="44.454045" lon="8.4481017"><ele>670.4000000000001</ele><time>2026-03-26T11:45:22.952Z</time></trkpt><trkpt lat="44.4540183" lon="8.44795"><ele>668.8000000000001</ele><time>2026-03-26T11:45:24.951Z</time></trkpt><trkpt lat="44.4539617" lon="8.447795"><ele>667.2</ele><time>2026-03-26T11:45:26.951Z</time></trkpt><trkpt lat="44.453925" lon="8.4477033"><ele>665.6</ele><time>2026-03-26T11:45:27.952Z</time></trkpt><trkpt lat="44.453885" lon="8.4476283"><ele>664.0</ele><time>2026-03-26T11:45:28.951Z</time></trkpt><trkpt lat="44.4538483" lon="8.44754"><ele>664.0</ele><time>2026-03-26T11:45:29.951Z</time></trkpt><trkpt lat="44.4538167" lon="8.447445"><ele>664.0</ele><time>2026-03-26T11:45:30.951Z</time></trkpt><trkpt lat="44.4537867" lon="8.4473467"><ele>664.0</ele><time>2026-03-26T11:45:31.951Z</time></trkpt><trkpt lat="44.4537667" lon="8.4472483"><ele>664.0</ele><time>2026-03-26T11:45:32.952Z</time></trkpt><trkpt lat="44.4537517" lon="8.4471483"><ele>664.0</ele><time>2026-03-26T11:45:33.951Z</time></trkpt><trkpt lat="44.4537367" lon="8.4470383"><ele>664.0</ele><time>2026-03-26T11:45:34.951Z</time></trkpt><trkpt lat="44.453725" lon="8.44691"><ele>663.0</ele><time>2026-03-26T11:45:35.951Z</time></trkpt><trkpt lat="44.453715" lon="8.446775"><ele>662.0</ele><time>2026-03-26T11:45:36.951Z</time></trkpt><trkpt lat="44.4537083" lon="8.4466367"><ele>661.0</ele><time>2026-03-26T11:45:37.952Z</time></trkpt><trkpt lat="44.453715" lon="8.446515"><ele>660.0</ele><time>2026-03-26T11:45:38.951Z</time></trkpt><trkpt lat="44.4537317" lon="8.446425"><ele>659.0</ele><time>2026-03-26T11:45:39.952Z</time></trkpt><trkpt lat="44.4537633" lon="8.4462533"><ele>659.0</ele><time>2026-03-26T11:45:41.951Z</time></trkpt><trkpt lat="44.4537767" lon="8.446165"><ele>659.0</ele><time>2026-03-26T11:45:42.951Z</time></trkpt><trkpt lat="44.4538183" lon="8.446045"><ele>659.0</ele><time>2026-03-26T11:45:44.951Z</time></trkpt><trkpt lat="44.4538717" lon="8.4458667"><ele>659.0</ele><time>2026-03-26T11:45:46.951Z</time></trkpt><trkpt lat="44.4539067" lon="8.445775"><ele>659.0</ele><time>2026-03-26T11:45:47.951Z</time></trkpt><trkpt lat="44.4539583" lon="8.4456933"><ele>660.0</ele><time>2026-03-26T11:45:48.951Z</time></trkpt><trkpt lat="44.4540117" lon="8.4456033"><ele>661.0</ele><time>2026-03-26T11:45:49.952Z</time></trkpt><trkpt lat="44.4540633" lon="8.4455017"><ele>662.0</ele><time>2026-03-26T11:45:50.951Z</time></trkpt><trkpt lat="44.4541017" lon="8.44539"><ele>663.0</ele><time>2026-03-26T11:45:51.951Z</time></trkpt><trkpt lat="44.4541333" lon="8.44529"><ele>664.0</ele><time>2026-03-26T11:45:52.952Z</time></trkpt><trkpt lat="44.454155" lon="8.445205"><ele>665.0</ele><time>2026-03-26T11:45:53.952Z</time></trkpt><trkpt lat="44.4541783" lon="8.4450933"><ele>665.6</ele><time>2026-03-26T11:45:55.951Z</time></trkpt><trkpt lat="44.4541667" lon="8.4449717"><ele>666.2</ele><time>2026-03-26T11:45:58.951Z</time></trkpt><trkpt lat="44.454145" lon="8.4448667"><ele>666.8</ele><time>2026-03-26T11:46:00.951Z</time></trkpt><trkpt lat="44.4541117" lon="8.444745"><ele>667.4</ele><time>2026-03-26T11:46:02.951Z</time></trkpt><trkpt lat="44.454095" lon="8.4446117"><ele>668.0</ele><time>2026-03-26T11:46:04.952Z</time></trkpt><trkpt lat="44.4540617" lon="8.44447"><ele>665.3333333333333</ele><time>2026-03-26T11:46:06.951Z</time></trkpt><trkpt lat="44.4540517" lon="8.44434"><ele>662.6666666666666</ele><time>2026-03-26T11:46:08.951Z</time></trkpt><trkpt lat="44.4540183" lon="8.4442083"><ele>660.0</ele><time>2026-03-26T11:46:10.951Z</time></trkpt><trkpt lat="44.45401" lon="8.4441"><ele>657.3333333333334</ele><time>2026-03-26T11:46:12.951Z</time></trkpt><trkpt lat="44.4539783" lon="8.4439917"><ele>654.6666666666667</ele><time>2026-03-26T11:46:15.951Z</time></trkpt><trkpt lat="44.4539583" lon="8.4439"><ele>652.0</ele><time>2026-03-26T11:46:18.952Z</time></trkpt><trkpt lat="44.4539017" lon="8.4438167"><ele>649.8</ele><time>2026-03-26T11:46:21.951Z</time></trkpt><trkpt lat="44.4538633" lon="8.4437083"><ele>647.6</ele><time>2026-03-26T11:46:24.952Z</time></trkpt><trkpt lat="44.4538633" lon="8.4435867"><ele>645.4</ele><time>2026-03-26T11:46:26.951Z</time></trkpt><trkpt lat="44.45382" lon="8.4434167"><ele>643.1999999999999</ele><time>2026-03-26T11:46:28.951Z</time></trkpt><trkpt lat="44.453785" lon="8.443325"><ele>641.0</ele><time>2026-03-26T11:46:29.951Z</time></trkpt><trkpt lat="44.4537483" lon="8.4432333"><ele>641.0</ele><time>2026-03-26T11:46:30.951Z</time></trkpt><trkpt lat="44.4537133" lon="8.44314"><ele>641.0</ele><time>2026-03-26T11:46:31.951Z</time></trkpt><trkpt lat="44.4536867" lon="8.4430483"><ele>641.0</ele><time>2026-03-26T11:46:32.951Z</time></trkpt><trkpt lat="44.4536733" lon="8.4429583"><ele>641.0</ele><time>2026-03-26T11:46:33.951Z</time></trkpt><trkpt lat="44.4536783" lon="8.44279"><ele>641.0</ele><time>2026-03-26T11:46:35.952Z</time></trkpt><trkpt lat="44.4536933" lon="8.442695"><ele>641.0</ele><time>2026-03-26T11:46:36.951Z</time></trkpt><trkpt lat="44.453695" lon="8.4425917"><ele>641.8</ele><time>2026-03-26T11:46:37.951Z</time></trkpt><trkpt lat="44.4537067" lon="8.4424283"><ele>642.5999999999999</ele><time>2026-03-26T11:46:39.952Z</time></trkpt><trkpt lat="44.45371" lon="8.4422583"><ele>643.4</ele><time>2026-03-26T11:46:41.951Z</time></trkpt><trkpt lat="44.45372" lon="8.4421567"><ele>644.2</ele><time>2026-03-26T11:46:42.952Z</time></trkpt><trkpt lat="44.4537317" lon="8.442055"><ele>645.0</ele><time>2026-03-26T11:46:43.951Z</time></trkpt><trkpt lat="44.4537433" lon="8.4419583"><ele>643.1666666666666</ele><time>2026-03-26T11:46:44.951Z</time></trkpt><trkpt lat="44.4537517" lon="8.441865"><ele>641.3333333333334</ele><time>2026-03-26T11:46:45.952Z</time></trkpt><trkpt lat="44.4537633" lon="8.4417783"><ele>639.5</ele><time>2026-03-26T11:46:46.951Z</time></trkpt><trkpt lat="44.4537833" lon="8.4416817"><ele>637.6666666666667</ele><time>2026-03-26T11:46:47.951Z</time></trkpt><trkpt lat="44.4538117" lon="8.441505"><ele>635.8333333333334</ele><time>2026-03-26T11:46:49.952Z</time></trkpt><trkpt lat="44.4538167" lon="8.4414"><ele>634.0</ele><time>2026-03-26T11:46:50.951Z</time></trkpt><trkpt lat="44.453825" lon="8.4412933"><ele>632.8333333333334</ele><time>2026-03-26T11:46:51.951Z</time></trkpt><trkpt lat="44.4538433" lon="8.441195"><ele>631.6666666666667</ele><time>2026-03-26T11:46:52.951Z</time></trkpt><trkpt lat="44.4538617" lon="8.4410983"><ele>630.5</ele><time>2026-03-26T11:46:53.952Z</time></trkpt><trkpt lat="44.4538917" lon="8.441005"><ele>629.3333333333334</ele><time>2026-03-26T11:46:54.952Z</time></trkpt><trkpt lat="44.4539267" lon="8.44091"><ele>628.1666666666666</ele><time>2026-03-26T11:46:55.951Z</time></trkpt><trkpt lat="44.453965" lon="8.4407967"><ele>627.0</ele><time>2026-03-26T11:46:56.952Z</time></trkpt><trkpt lat="44.4539917" lon="8.4406883"><ele>627.0</ele><time>2026-03-26T11:46:57.951Z</time></trkpt><trkpt lat="44.4540167" lon="8.4406"><ele>627.0</ele><time>2026-03-26T11:46:58.952Z</time></trkpt><trkpt lat="44.4540683" lon="8.4404767"><ele>627.0</ele><time>2026-03-26T11:47:00.951Z</time></trkpt><trkpt lat="44.4541117" lon="8.440405"><ele>627.0</ele><time>2026-03-26T11:47:01.952Z</time></trkpt><trkpt lat="44.4541683" lon="8.4403217"><ele>627.0</ele><time>2026-03-26T11:47:02.952Z</time></trkpt><trkpt lat="44.454235" lon="8.4402167"><ele>627.0</ele><time>2026-03-26T11:47:03.951Z</time></trkpt><trkpt lat="44.4543" lon="8.4401083"><ele>628.1666666666666</ele><time>2026-03-26T11:47:04.951Z</time></trkpt><trkpt lat="44.4543667" lon="8.4399967"><ele>629.3333333333334</ele><time>2026-03-26T11:47:05.952Z</time></trkpt><trkpt lat="44.4544267" lon="8.4399"><ele>630.5</ele><time>2026-03-26T11:47:06.951Z</time></trkpt><trkpt lat="44.45445" lon="8.4398117"><ele>631.6666666666667</ele><time>2026-03-26T11:47:07.952Z</time></trkpt><trkpt lat="44.454465" lon="8.4397033"><ele>632.8333333333334</ele><time>2026-03-26T11:47:09.951Z</time></trkpt><trkpt lat="44.454475" lon="8.439615"><ele>634.0</ele><time>2026-03-26T11:47:11.951Z</time></trkpt><trkpt lat="44.454515" lon="8.4395167"><ele>634.6666666666667</ele><time>2026-03-26T11:47:13.952Z</time></trkpt><trkpt lat="44.4545617" lon="8.439415"><ele>635.3333333333334</ele><time>2026-03-26T11:47:16.952Z</time></trkpt><trkpt lat="44.4546017" lon="8.4393233"><ele>636.0</ele><time>2026-03-26T11:47:19.951Z</time></trkpt><trkpt lat="44.45463" lon="8.43921"><ele>636.6666666666666</ele><time>2026-03-26T11:47:21.952Z</time></trkpt><trkpt lat="44.454665" lon="8.43909"><ele>637.3333333333333</ele><time>2026-03-26T11:47:23.952Z</time></trkpt><trkpt lat="44.4546267" lon="8.4389717"><ele>638.0</ele><time>2026-03-26T11:47:26.951Z</time></trkpt><trkpt lat="44.45455" lon="8.4388767"><ele>636.8</ele><time>2026-03-26T11:47:28.952Z</time></trkpt><trkpt lat="44.4544767" lon="8.4387833"><ele>635.5999999999999</ele><time>2026-03-26T11:47:30.952Z</time></trkpt><trkpt lat="44.4543967" lon="8.4386933"><ele>634.4000000000001</ele><time>2026-03-26T11:47:32.951Z</time></trkpt><trkpt lat="44.4543217" lon="8.438595"><ele>633.2</ele><time>2026-03-26T11:47:34.952Z</time></trkpt><trkpt lat="44.4542333" lon="8.4385117"><ele>632.0</ele><time>2026-03-26T11:47:36.952Z</time></trkpt><trkpt lat="44.4541467" lon="8.43842"><ele>632.0</ele><time>2026-03-26T11:47:38.952Z</time></trkpt><trkpt lat="44.4540617" lon="8.438315"><ele>632.0</ele><time>2026-03-26T11:47:40.951Z</time></trkpt><trkpt lat="44.454005" lon="8.4382217"><ele>632.0</ele><time>2026-03-26T11:47:42.952Z</time></trkpt><trkpt lat="44.4539533" lon="8.4381667"><ele>632.0</ele><time>2026-03-26T11:47:44.951Z</time></trkpt><trkpt lat="44.4538817" lon="8.43811"><ele>632.0</ele><time>2026-03-26T11:47:46.952Z</time></trkpt><trkpt lat="44.4538067" lon="8.438055"><ele>632.0</ele><time>2026-03-26T11:47:48.952Z</time></trkpt><trkpt lat="44.453755" lon="8.4379867"><ele>626.6666666666666</ele><time>2026-03-26T11:47:50.951Z</time></trkpt><trkpt lat="44.4537183" lon="8.437875"><ele>621.3333333333333</ele><time>2026-03-26T11:47:53.951Z</time></trkpt><trkpt lat="44.453665" lon="8.437815"><ele>616.0</ele><time>2026-03-26T11:47:55.952Z</time></trkpt><trkpt lat="44.4536117" lon="8.4377467"><ele>610.6666666666666</ele><time>2026-03-26T11:47:57.951Z</time></trkpt><trkpt lat="44.4535683" lon="8.4376617"><ele>605.3333333333334</ele><time>2026-03-26T11:47:59.952Z</time></trkpt><trkpt lat="44.4535367" lon="8.4375783"><ele>600.0</ele><time>2026-03-26T11:48:01.952Z</time></trkpt><trkpt lat="44.4535033" lon="8.4374583"><ele>600.0</ele><time>2026-03-26T11:48:03.952Z</time></trkpt><trkpt lat="44.453505" lon="8.43737"><ele>600.0</ele><time>2026-03-26T11:48:05.952Z</time></trkpt><trkpt lat="44.4536117" lon="8.4372933"><ele>600.0</ele><time>2026-03-26T11:48:08.951Z</time></trkpt><trkpt lat="44.4536967" lon="8.4372583"><ele>600.0</ele><time>2026-03-26T11:48:09.951Z</time></trkpt><trkpt lat="44.4537833" lon="8.4372017"><ele>600.0</ele><time>2026-03-26T11:48:10.951Z</time></trkpt><trkpt lat="44.45386" lon="8.4371417"><ele>602.0</ele><time>2026-03-26T11:48:11.951Z</time></trkpt><trkpt lat="44.4539333" lon="8.437095"><ele>604.0</ele><time>2026-03-26T11:48:12.952Z</time></trkpt><trkpt lat="44.4540017" lon="8.43706"><ele>606.0</ele><time>2026-03-26T11:48:13.951Z</time></trkpt><trkpt lat="44.4540617" lon="8.43703"><ele>608.0</ele><time>2026-03-26T11:48:14.952Z</time></trkpt><trkpt lat="44.4541683" lon="8.4370667"><ele>610.0</ele><time>2026-03-26T11:48:16.952Z</time></trkpt><trkpt lat="44.4542217" lon="8.4371233"><ele>612.0</ele><time>2026-03-26T11:48:17.951Z</time></trkpt><trkpt lat="44.4542867" lon="8.4371867"><ele>612.0</ele><time>2026-03-26T11:48:18.952Z</time></trkpt><trkpt lat="44.4543617" lon="8.4372517"><ele>612.0</ele><time>2026-03-26T11:48:19.952Z</time></trkpt><trkpt lat="44.454475" lon="8.4373033"><ele>612.0</ele><time>2026-03-26T11:48:20.952Z</time></trkpt><trkpt lat="44.45457" lon="8.4373583"><ele>612.0</ele><time>2026-03-26T11:48:21.951Z</time></trkpt><trkpt lat="44.45465" lon="8.4374017"><ele>612.0</ele><time>2026-03-26T11:48:22.952Z</time></trkpt><trkpt lat="44.4547633" lon="8.4373433"><ele>611.3333333333334</ele><time>2026-03-26T11:48:24.951Z</time></trkpt><trkpt lat="44.454825" lon="8.4372667"><ele>610.6666666666666</ele><time>2026-03-26T11:48:25.951Z</time></trkpt><trkpt lat="44.45487" lon="8.4371767"><ele>610.0</ele><time>2026-03-26T11:48:26.952Z</time></trkpt><trkpt lat="44.454925" lon="8.43711"><ele>609.3333333333333</ele><time>2026-03-26T11:48:27.951Z</time></trkpt><trkpt lat="44.4549733" lon="8.437035"><ele>608.6666666666666</ele><time>2026-03-26T11:48:28.952Z</time></trkpt><trkpt lat="44.4550217" lon="8.436955"><ele>608.0</ele><time>2026-03-26T11:48:29.952Z</time></trkpt><trkpt lat="44.4550217" lon="8.4368067"><ele>604.4</ele><time>2026-03-26T11:48:31.952Z</time></trkpt><trkpt lat="44.4549417" lon="8.4366633"><ele>600.8</ele><time>2026-03-26T11:48:33.951Z</time></trkpt><trkpt lat="44.4548883" lon="8.4365733"><ele>597.2</ele><time>2026-03-26T11:48:34.951Z</time></trkpt><trkpt lat="44.4548533" lon="8.4364933"><ele>593.6</ele><time>2026-03-26T11:48:35.951Z</time></trkpt><trkpt lat="44.45482" lon="8.4363417"><ele>590.0</ele><time>2026-03-26T11:48:37.952Z</time></trkpt><trkpt lat="44.45482" lon="8.4361767"><ele>586.6</ele><time>2026-03-26T11:48:39.952Z</time></trkpt><trkpt lat="44.4548517" lon="8.4360267"><ele>583.2</ele><time>2026-03-26T11:48:41.951Z</time></trkpt><trkpt lat="44.4549033" lon="8.43587"><ele>579.8</ele><time>2026-03-26T11:48:43.951Z</time></trkpt><trkpt lat="44.4549467" lon="8.4357283"><ele>576.4</ele><time>2026-03-26T11:48:45.951Z</time></trkpt><trkpt lat="44.4549867" lon="8.4355933"><ele>573.0</ele><time>2026-03-26T11:48:47.951Z</time></trkpt><trkpt lat="44.455055" lon="8.4354683"><ele>569.5</ele><time>2026-03-26T11:48:49.951Z</time></trkpt><trkpt lat="44.4551217" lon="8.4353583"><ele>566.0</ele><time>2026-03-26T11:48:51.951Z</time></trkpt><trkpt lat="44.455165" lon="8.4352883"><ele>562.5</ele><time>2026-03-26T11:48:52.952Z</time></trkpt><trkpt lat="44.455215" lon="8.4352033"><ele>559.0</ele><time>2026-03-26T11:48:53.952Z</time></trkpt><trkpt lat="44.455255" lon="8.4351083"><ele>555.5</ele><time>2026-03-26T11:48:54.952Z</time></trkpt><trkpt lat="44.45529" lon="8.4350267"><ele>552.0</ele><time>2026-03-26T11:48:55.952Z</time></trkpt><trkpt lat="44.45534" lon="8.4348767"><ele>552.0</ele><time>2026-03-26T11:48:57.951Z</time></trkpt><trkpt lat="44.45538" lon="8.43477"><ele>552.0</ele><time>2026-03-26T11:48:59.952Z</time></trkpt><trkpt lat="44.4554183" lon="8.4347"><ele>552.0</ele><time>2026-03-26T11:49:01.952Z</time></trkpt><trkpt lat="44.455435" lon="8.4346033"><ele>552.0</ele><time>2026-03-26T11:49:04.952Z</time></trkpt><trkpt lat="44.455475" lon="8.434505"><ele>552.0</ele><time>2026-03-26T11:49:08.951Z</time></trkpt><trkpt lat="44.4554883" lon="8.43441"><ele>552.0</ele><time>2026-03-26T11:49:11.952Z</time></trkpt><trkpt lat="44.4555117" lon="8.4343133"><ele>552.0</ele><time>2026-03-26T11:49:13.951Z</time></trkpt><trkpt lat="44.455535" lon="8.43419"><ele>546.0</ele><time>2026-03-26T11:49:15.951Z</time></trkpt><trkpt lat="44.4555717" lon="8.4340333"><ele>540.0</ele><time>2026-03-26T11:49:17.951Z</time></trkpt><trkpt lat="44.4556117" lon="8.4338717"><ele>534.0</ele><time>2026-03-26T11:49:19.951Z</time></trkpt><trkpt lat="44.4556433" lon="8.43373"><ele>528.0</ele><time>2026-03-26T11:49:21.951Z</time></trkpt><trkpt lat="44.4557067" lon="8.4336517"><ele>522.0</ele><time>2026-03-26T11:49:23.951Z</time></trkpt><trkpt lat="44.4557767" lon="8.433735"><ele>522.0</ele><time>2026-03-26T11:49:26.952Z</time></trkpt><trkpt lat="44.4558017" lon="8.4338883"><ele>522.0</ele><time>2026-03-26T11:49:28.952Z</time></trkpt><trkpt lat="44.4558367" lon="8.43407"><ele>522.0</ele><time>2026-03-26T11:49:30.951Z</time></trkpt><trkpt lat="44.4558667" lon="8.434165"><ele>522.0</ele><time>2026-03-26T11:49:31.952Z</time></trkpt><trkpt lat="44.4559133" lon="8.4342517"><ele>522.0</ele><time>2026-03-26T11:49:32.952Z</time></trkpt><trkpt lat="44.4560017" lon="8.4343517"><ele>522.0</ele><time>2026-03-26T11:49:34.951Z</time></trkpt><trkpt lat="44.456085" lon="8.4343233"><ele>522.0</ele><time>2026-03-26T11:49:36.952Z</time></trkpt><trkpt lat="44.456145" lon="8.4342033"><ele>522.0</ele><time>2026-03-26T11:49:38.951Z</time></trkpt><trkpt lat="44.4561833" lon="8.4341033"><ele>522.0</ele><time>2026-03-26T11:49:39.951Z</time></trkpt><trkpt lat="44.4562167" lon="8.4339817"><ele>522.0</ele><time>2026-03-26T11:49:40.951Z</time></trkpt><trkpt lat="44.4562567" lon="8.43387"><ele>517.0</ele><time>2026-03-26T11:49:41.951Z</time></trkpt><trkpt lat="44.45631" lon="8.433775"><ele>512.0</ele><time>2026-03-26T11:49:42.951Z</time></trkpt><trkpt lat="44.4563767" lon="8.4336717"><ele>507.0</ele><time>2026-03-26T11:49:43.952Z</time></trkpt><trkpt lat="44.4564167" lon="8.4335683"><ele>502.0</ele><time>2026-03-26T11:49:44.951Z</time></trkpt><trkpt lat="44.45644" lon="8.4334817"><ele>497.0</ele><time>2026-03-26T11:49:45.952Z</time></trkpt><trkpt lat="44.45645" lon="8.433365"><ele>492.0</ele><time>2026-03-26T11:49:47.951Z</time></trkpt><trkpt lat="44.456465" lon="8.43323"><ele>492.0</ele><time>2026-03-26T11:49:50.951Z</time></trkpt><trkpt lat="44.4565383" lon="8.4331583"><ele>492.00000000000006</ele><time>2026-03-26T11:49:52.951Z</time></trkpt><trkpt lat="44.45662" lon="8.4331267"><ele>492.00000000000006</ele><time>2026-03-26T11:49:54.951Z</time></trkpt><trkpt lat="44.4567017" lon="8.4331433"><ele>492.0</ele><time>2026-03-26T11:49:56.951Z</time></trkpt><trkpt lat="44.4567783" lon="8.4332333"><ele>492.0</ele><time>2026-03-26T11:49:58.952Z</time></trkpt><trkpt lat="44.4568467" lon="8.43336"><ele>492.0</ele><time>2026-03-26T11:50:00.951Z</time></trkpt><trkpt lat="44.45693" lon="8.4334967"><ele>492.00000000000006</ele><time>2026-03-26T11:50:02.952Z</time></trkpt><trkpt lat="44.4569983" lon="8.4335783"><ele>492.00000000000006</ele><time>2026-03-26T11:50:03.951Z</time></trkpt><trkpt lat="44.4570633" lon="8.43365"><ele>492.0</ele><time>2026-03-26T11:50:04.952Z</time></trkpt><trkpt lat="44.4571283" lon="8.433705"><ele>492.0</ele><time>2026-03-26T11:50:05.951Z</time></trkpt><trkpt lat="44.4572267" lon="8.4337517"><ele>490.8333333333333</ele><time>2026-03-26T11:50:07.951Z</time></trkpt><trkpt lat="44.4572733" lon="8.4336633"><ele>489.66666666666663</ele><time>2026-03-26T11:50:23.952Z</time></trkpt><trkpt lat="44.4573117" lon="8.4335383"><ele>488.5</ele><time>2026-03-26T11:50:25.952Z</time></trkpt><trkpt lat="44.457305" lon="8.4334483"><ele>487.3333333333333</ele><time>2026-03-26T11:50:26.951Z</time></trkpt><trkpt lat="44.4572883" lon="8.4333383"><ele>486.16666666666663</ele><time>2026-03-26T11:50:27.951Z</time></trkpt><trkpt lat="44.45726" lon="8.4332"><ele>485.0</ele><time>2026-03-26T11:50:28.952Z</time></trkpt><trkpt lat="44.4572417" lon="8.4330683"><ele>483.3333333333333</ele><time>2026-03-26T11:50:29.951Z</time></trkpt><trkpt lat="44.45723" lon="8.4329483"><ele>481.66666666666663</ele><time>2026-03-26T11:50:30.952Z</time></trkpt><trkpt lat="44.457225" lon="8.432825"><ele>480.0</ele><time>2026-03-26T11:50:31.951Z</time></trkpt><trkpt lat="44.4572233" lon="8.43271"><ele>478.33333333333337</ele><time>2026-03-26T11:50:32.951Z</time></trkpt><trkpt lat="44.4572217" lon="8.4325867"><ele>476.6666666666667</ele><time>2026-03-26T11:50:33.952Z</time></trkpt><trkpt lat="44.4572233" lon="8.4324667"><ele>475.0</ele><time>2026-03-26T11:50:34.952Z</time></trkpt><trkpt lat="44.45722" lon="8.432365"><ele>475.0</ele><time>2026-03-26T11:50:35.951Z</time></trkpt><trkpt lat="44.457245" lon="8.432215"><ele>475.0</ele><time>2026-03-26T11:50:37.951Z</time></trkpt><trkpt lat="44.4573167" lon="8.4320867"><ele>475.0</ele><time>2026-03-26T11:50:39.952Z</time></trkpt><trkpt lat="44.4573383" lon="8.4319883"><ele>475.0</ele><time>2026-03-26T11:50:40.951Z</time></trkpt><trkpt lat="44.457355" lon="8.43187"><ele>475.0</ele><time>2026-03-26T11:50:41.951Z</time></trkpt><trkpt lat="44.45738" lon="8.4317617"><ele>472.0</ele><time>2026-03-26T11:50:42.951Z</time></trkpt><trkpt lat="44.4574233" lon="8.4316733"><ele>469.0</ele><time>2026-03-26T11:50:43.952Z</time></trkpt><trkpt lat="44.4575" lon="8.4316117"><ele>466.0</ele><time>2026-03-26T11:50:44.951Z</time></trkpt><trkpt lat="44.4576" lon="8.43157"><ele>463.0</ele><time>2026-03-26T11:50:45.952Z</time></trkpt><trkpt lat="44.4577017" lon="8.4315467"><ele>460.0</ele><time>2026-03-26T11:50:46.951Z</time></trkpt><trkpt lat="44.4578083" lon="8.431555"><ele>460.0</ele><time>2026-03-26T11:50:47.951Z</time></trkpt><trkpt lat="44.4579367" lon="8.4315617"><ele>460.0</ele><time>2026-03-26T11:50:48.952Z</time></trkpt><trkpt lat="44.458065" lon="8.43157"><ele>460.0</ele><time>2026-03-26T11:50:49.952Z</time></trkpt><trkpt lat="44.458175" lon="8.4315533"><ele>460.0</ele><time>2026-03-26T11:50:50.952Z</time></trkpt><trkpt lat="44.45827" lon="8.4315383"><ele>460.00000000000006</ele><time>2026-03-26T11:50:51.951Z</time></trkpt><trkpt lat="44.4583683" lon="8.431505"><ele>460.0</ele><time>2026-03-26T11:50:52.951Z</time></trkpt><trkpt lat="44.4584267" lon="8.4314567"><ele>460.0</ele><time>2026-03-26T11:50:53.952Z</time></trkpt><trkpt lat="44.4584733" lon="8.4313917"><ele>460.0</ele><time>2026-03-26T11:50:54.951Z</time></trkpt><trkpt lat="44.45851" lon="8.4313017"><ele>460.00000000000006</ele><time>2026-03-26T11:50:55.951Z</time></trkpt><trkpt lat="44.45854" lon="8.4312"><ele>460.0</ele><time>2026-03-26T11:50:56.952Z</time></trkpt><trkpt lat="44.4585617" lon="8.431075"><ele>460.8</ele><time>2026-03-26T11:50:57.951Z</time></trkpt><trkpt lat="44.45858" lon="8.4309367"><ele>461.6</ele><time>2026-03-26T11:50:58.951Z</time></trkpt><trkpt lat="44.4586167" lon="8.4308033"><ele>462.4</ele><time>2026-03-26T11:50:59.951Z</time></trkpt><trkpt lat="44.4586617" lon="8.430685"><ele>463.2</ele><time>2026-03-26T11:51:00.951Z</time></trkpt><trkpt lat="44.4587" lon="8.4305783"><ele>464.0</ele><time>2026-03-26T11:51:01.952Z</time></trkpt><trkpt lat="44.45873" lon="8.4304717"><ele>462.2</ele><time>2026-03-26T11:51:02.951Z</time></trkpt><trkpt lat="44.4587433" lon="8.43035"><ele>460.4</ele><time>2026-03-26T11:51:03.951Z</time></trkpt><trkpt lat="44.45873" lon="8.43023"><ele>458.6</ele><time>2026-03-26T11:51:04.952Z</time></trkpt><trkpt lat="44.4587033" lon="8.4300967"><ele>456.8</ele><time>2026-03-26T11:51:05.951Z</time></trkpt><trkpt lat="44.4586717" lon="8.4299633"><ele>455.0</ele><time>2026-03-26T11:51:06.951Z</time></trkpt><trkpt lat="44.45865" lon="8.429825"><ele>454.99999999999994</ele><time>2026-03-26T11:51:07.951Z</time></trkpt><trkpt lat="44.45865" lon="8.42971"><ele>455.0</ele><time>2026-03-26T11:51:08.951Z</time></trkpt><trkpt lat="44.45866" lon="8.42961"><ele>455.0</ele><time>2026-03-26T11:51:09.951Z</time></trkpt><trkpt lat="44.4586841" lon="8.4295188"><ele>455.0</ele><time>2026-03-26T11:51:10.951Z</time></trkpt><trkpt lat="44.4587098" lon="8.429438"><ele>454.99999999999994</ele><time>2026-03-26T11:51:11.952Z</time></trkpt><trkpt lat="44.4587107" lon="8.429271"><ele>455.0</ele><time>2026-03-26T11:51:13.952Z</time></trkpt><trkpt lat="44.4587071" lon="8.4291815"><ele>450.6</ele><time>2026-03-26T11:51:14.951Z</time></trkpt><trkpt lat="44.458701" lon="8.4290179"><ele>446.2</ele><time>2026-03-26T11:51:16.952Z</time></trkpt><trkpt lat="44.4587501" lon="8.4288432"><ele>441.79999999999995</ele><time>2026-03-26T11:51:18.951Z</time></trkpt><trkpt lat="44.4587795" lon="8.4287558"><ele>437.4</ele><time>2026-03-26T11:51:19.952Z</time></trkpt><trkpt lat="44.4588072" lon="8.4286763"><ele>433.0</ele><time>2026-03-26T11:51:20.951Z</time></trkpt><trkpt lat="44.4588408" lon="8.4285328"><ele>430.33333333333337</ele><time>2026-03-26T11:51:22.951Z</time></trkpt><trkpt lat="44.4588321" lon="8.4283687"><ele>427.6666666666667</ele><time>2026-03-26T11:51:24.951Z</time></trkpt><trkpt lat="44.4588252" lon="8.4282788"><ele>425.0</ele><time>2026-03-26T11:51:25.951Z</time></trkpt><trkpt lat="44.4588011" lon="8.4281047"><ele>422.33333333333337</ele><time>2026-03-26T11:51:27.952Z</time></trkpt><trkpt lat="44.458778" lon="8.428018"><ele>419.6666666666667</ele><time>2026-03-26T11:51:28.952Z</time></trkpt><trkpt lat="44.458747" lon="8.4279324"><ele>417.0</ele><time>2026-03-26T11:51:29.951Z</time></trkpt><trkpt lat="44.4586871" lon="8.4278145"><ele>417.0</ele><time>2026-03-26T11:51:31.951Z</time></trkpt><trkpt lat="44.4586244" lon="8.4277934"><ele>417.0</ele><time>2026-03-26T11:51:33.951Z</time></trkpt><trkpt lat="44.458536" lon="8.427892"><ele>417.0</ele><time>2026-03-26T11:51:48.951Z</time></trkpt><trkpt lat="44.4584954" lon="8.4279727"><ele>417.0</ele><time>2026-03-26T11:51:49.952Z</time></trkpt><trkpt lat="44.4584515" lon="8.4280812"><ele>417.0</ele><time>2026-03-26T11:51:50.951Z</time></trkpt><trkpt lat="44.4584071" lon="8.4282086"><ele>417.0</ele><time>2026-03-26T11:51:51.951Z</time></trkpt><trkpt lat="44.4583624" lon="8.428341"><ele>417.0</ele><time>2026-03-26T11:51:52.951Z</time></trkpt><trkpt lat="44.4583068" lon="8.4284628"><ele>417.0</ele><time>2026-03-26T11:51:53.952Z</time></trkpt><trkpt lat="44.4582412" lon="8.4285745"><ele>417.0</ele><time>2026-03-26T11:51:54.951Z</time></trkpt><trkpt lat="44.4581705" lon="8.4286926"><ele>417.0</ele><time>2026-03-26T11:51:55.952Z</time></trkpt><trkpt lat="44.4580979" lon="8.4288121"><ele>417.0</ele><time>2026-03-26T11:51:56.951Z</time></trkpt><trkpt lat="44.4580281" lon="8.4289305"><ele>415.40000000000003</ele><time>2026-03-26T11:51:57.952Z</time></trkpt><trkpt lat="44.4579583" lon="8.42904"><ele>413.8</ele><time>2026-03-26T11:51:58.952Z</time></trkpt><trkpt lat="44.4579" lon="8.42915"><ele>412.2</ele><time>2026-03-26T11:51:59.951Z</time></trkpt><trkpt lat="44.4578367" lon="8.4292717"><ele>410.6</ele><time>2026-03-26T11:52:00.951Z</time></trkpt><trkpt lat="44.4577667" lon="8.4293883"><ele>409.0</ele><time>2026-03-26T11:52:01.952Z</time></trkpt><trkpt lat="44.4576867" lon="8.429505"><ele>409.0</ele><time>2026-03-26T11:52:02.951Z</time></trkpt><trkpt lat="44.4576067" lon="8.4296083"><ele>409.0</ele><time>2026-03-26T11:52:03.951Z</time></trkpt><trkpt lat="44.4575083" lon="8.4296717"><ele>409.0</ele><time>2026-03-26T11:52:04.951Z</time></trkpt><trkpt lat="44.4574067" lon="8.42971"><ele>409.0</ele><time>2026-03-26T11:52:05.952Z</time></trkpt><trkpt lat="44.457295" lon="8.429705"><ele>409.0</ele><time>2026-03-26T11:52:06.952Z</time></trkpt><trkpt lat="44.4571733" lon="8.429635"><ele>408.75</ele><time>2026-03-26T11:52:07.951Z</time></trkpt><trkpt lat="44.4570617" lon="8.4295533"><ele>408.5</ele><time>2026-03-26T11:52:08.952Z</time></trkpt><trkpt lat="44.4569467" lon="8.429475"><ele>408.25</ele><time>2026-03-26T11:52:09.951Z</time></trkpt><trkpt lat="44.4568467" lon="8.429415"><ele>408.0</ele><time>2026-03-26T11:52:10.951Z</time></trkpt><trkpt lat="44.45676" lon="8.4293567"><ele>408.0</ele><time>2026-03-26T11:52:11.951Z</time></trkpt><trkpt lat="44.4566917" lon="8.4292917"><ele>408.0</ele><time>2026-03-26T11:52:12.952Z</time></trkpt><trkpt lat="44.4566067" lon="8.4292417"><ele>408.0</ele><time>2026-03-26T11:52:13.951Z</time></trkpt><trkpt lat="44.456505" lon="8.429205"><ele>408.0</ele><time>2026-03-26T11:52:14.951Z</time></trkpt><trkpt lat="44.4563817" lon="8.4291683"><ele>408.0</ele><time>2026-03-26T11:52:15.952Z</time></trkpt><trkpt lat="44.4562517" lon="8.429155"><ele>408.5</ele><time>2026-03-26T11:52:16.952Z</time></trkpt><trkpt lat="44.4561383" lon="8.4291367"><ele>409.0</ele><time>2026-03-26T11:52:17.952Z</time></trkpt><trkpt lat="44.45601" lon="8.4291417"><ele>409.5</ele><time>2026-03-26T11:52:18.951Z</time></trkpt><trkpt lat="44.4558717" lon="8.42918"><ele>410.0</ele><time>2026-03-26T11:52:19.951Z</time></trkpt><trkpt lat="44.4557383" lon="8.429225"><ele>410.0</ele><time>2026-03-26T11:52:20.951Z</time></trkpt><trkpt lat="44.455625" lon="8.42925"><ele>410.0</ele><time>2026-03-26T11:52:21.951Z</time></trkpt><trkpt lat="44.4555233" lon="8.4292667"><ele>410.0</ele><time>2026-03-26T11:52:22.952Z</time></trkpt><trkpt lat="44.4554317" lon="8.4292617"><ele>410.0</ele><time>2026-03-26T11:52:23.951Z</time></trkpt><trkpt lat="44.4553483" lon="8.42921"><ele>410.0</ele><time>2026-03-26T11:52:24.952Z</time></trkpt><trkpt lat="44.455275" lon="8.4291183"><ele>410.6</ele><time>2026-03-26T11:52:25.952Z</time></trkpt><trkpt lat="44.4552217" lon="8.4290067"><ele>411.2</ele><time>2026-03-26T11:52:26.951Z</time></trkpt><trkpt lat="44.4551867" lon="8.4288617"><ele>411.79999999999995</ele><time>2026-03-26T11:52:27.952Z</time></trkpt><trkpt lat="44.4551633" lon="8.428705"><ele>412.4</ele><time>2026-03-26T11:52:28.952Z</time></trkpt><trkpt lat="44.4551167" lon="8.42856"><ele>413.0</ele><time>2026-03-26T11:52:29.951Z</time></trkpt><trkpt lat="44.455075" lon="8.4284417"><ele>413.0</ele><time>2026-03-26T11:52:30.951Z</time></trkpt><trkpt lat="44.454975" lon="8.4283233"><ele>413.0</ele><time>2026-03-26T11:52:31.952Z</time></trkpt><trkpt lat="44.4548733" lon="8.4282017"><ele>413.0</ele><time>2026-03-26T11:52:32.952Z</time></trkpt><trkpt lat="44.4547867" lon="8.4280667"><ele>413.0</ele><time>2026-03-26T11:52:33.952Z</time></trkpt><trkpt lat="44.45471" lon="8.427935"><ele>413.4</ele><time>2026-03-26T11:52:34.951Z</time></trkpt><trkpt lat="44.4546467" lon="8.427805"><ele>413.79999999999995</ele><time>2026-03-26T11:52:35.952Z</time></trkpt><trkpt lat="44.454595" lon="8.42769"><ele>414.2</ele><time>2026-03-26T11:52:36.951Z</time></trkpt><trkpt lat="44.4545467" lon="8.4275917"><ele>414.6</ele><time>2026-03-26T11:52:37.951Z</time></trkpt><trkpt lat="44.4544967" lon="8.427515"><ele>415.0</ele><time>2026-03-26T11:52:38.952Z</time></trkpt><trkpt lat="44.454435" lon="8.4274383"><ele>415.00000000000006</ele><time>2026-03-26T11:52:39.951Z</time></trkpt><trkpt lat="44.4543817" lon="8.4273533"><ele>415.0</ele><time>2026-03-26T11:52:40.952Z</time></trkpt><trkpt lat="44.4543533" lon="8.42726"><ele>415.0</ele><time>2026-03-26T11:52:41.951Z</time></trkpt><trkpt lat="44.45435" lon="8.4271567"><ele>415.0</ele><time>2026-03-26T11:52:42.952Z</time></trkpt><trkpt lat="44.4543833" lon="8.4270533"><ele>415.00000000000006</ele><time>2026-03-26T11:52:43.952Z</time></trkpt><trkpt lat="44.4544283" lon="8.4269533"><ele>415.0</ele><time>2026-03-26T11:52:44.951Z</time></trkpt><trkpt lat="44.4544733" lon="8.42687"><ele>414.50000000000006</ele><time>2026-03-26T11:52:45.952Z</time></trkpt><trkpt lat="44.45451" lon="8.4267883"><ele>414.0</ele><time>2026-03-26T11:52:46.952Z</time></trkpt><trkpt lat="44.4545467" lon="8.426715"><ele>413.5</ele><time>2026-03-26T11:52:47.952Z</time></trkpt><trkpt lat="44.4546367" lon="8.4266383"><ele>413.0</ele><time>2026-03-26T11:52:49.952Z</time></trkpt><trkpt lat="44.4546983" lon="8.42667"><ele>412.50000000000006</ele><time>2026-03-26T11:52:50.952Z</time></trkpt><trkpt lat="44.45476" lon="8.4267417"><ele>412.0</ele><time>2026-03-26T11:52:51.952Z</time></trkpt><trkpt lat="44.454865" lon="8.4268733"><ele>411.33333333333337</ele><time>2026-03-26T11:52:52.951Z</time></trkpt><trkpt lat="44.4549783" lon="8.42702"><ele>410.66666666666663</ele><time>2026-03-26T11:52:53.952Z</time></trkpt><trkpt lat="44.4550933" lon="8.427165"><ele>410.0</ele><time>2026-03-26T11:52:54.951Z</time></trkpt><trkpt lat="44.45521" lon="8.427295"><ele>410.0</ele><time>2026-03-26T11:52:55.952Z</time></trkpt><trkpt lat="44.4553267" lon="8.427405"><ele>410.0</ele><time>2026-03-26T11:52:56.951Z</time></trkpt><trkpt lat="44.4554467" lon="8.4274983"><ele>410.0</ele><time>2026-03-26T11:52:57.951Z</time></trkpt><trkpt lat="44.45557" lon="8.4275883"><ele>410.0</ele><time>2026-03-26T11:52:58.952Z</time></trkpt><trkpt lat="44.455685" lon="8.427655"><ele>411.5</ele><time>2026-03-26T11:52:59.951Z</time></trkpt><trkpt lat="44.455815" lon="8.4277167"><ele>413.0</ele><time>2026-03-26T11:53:00.952Z</time></trkpt><trkpt lat="44.45594" lon="8.4277633"><ele>414.5</ele><time>2026-03-26T11:53:01.951Z</time></trkpt><trkpt lat="44.456065" lon="8.4277783"><ele>416.0</ele><time>2026-03-26T11:53:02.951Z</time></trkpt><trkpt lat="44.45619" lon="8.427745"><ele>414.75</ele><time>2026-03-26T11:53:03.952Z</time></trkpt><trkpt lat="44.456305" lon="8.4276917"><ele>413.5</ele><time>2026-03-26T11:53:04.951Z</time></trkpt><trkpt lat="44.4564" lon="8.4275933"><ele>412.25</ele><time>2026-03-26T11:53:05.952Z</time></trkpt><trkpt lat="44.45648" lon="8.4274567"><ele>411.0</ele><time>2026-03-26T11:53:06.952Z</time></trkpt><trkpt lat="44.4565217" lon="8.427235"><ele>411.0</ele><time>2026-03-26T11:53:07.952Z</time></trkpt><trkpt lat="44.4565617" lon="8.4270183"><ele>411.0</ele><time>2026-03-26T11:53:08.952Z</time></trkpt><trkpt lat="44.4566017" lon="8.4268133"><ele>411.0</ele><time>2026-03-26T11:53:09.951Z</time></trkpt><trkpt lat="44.4566217" lon="8.4266183"><ele>411.0</ele><time>2026-03-26T11:53:10.951Z</time></trkpt><trkpt lat="44.456625" lon="8.426425"><ele>411.0</ele><time>2026-03-26T11:53:11.951Z</time></trkpt><trkpt lat="44.45662" lon="8.4262283"><ele>411.0</ele><time>2026-03-26T11:53:12.951Z</time></trkpt><trkpt lat="44.45661" lon="8.4260283"><ele>411.0</ele><time>2026-03-26T11:53:13.951Z</time></trkpt><trkpt lat="44.456595" lon="8.42583"><ele>410.5</ele><time>2026-03-26T11:53:14.951Z</time></trkpt><trkpt lat="44.456585" lon="8.4256167"><ele>410.0</ele><time>2026-03-26T11:53:15.951Z</time></trkpt><trkpt lat="44.456575" lon="8.4254117"><ele>409.5</ele><time>2026-03-26T11:53:16.951Z</time></trkpt><trkpt lat="44.45658" lon="8.4252117"><ele>409.0</ele><time>2026-03-26T11:53:17.952Z</time></trkpt><trkpt lat="44.456585" lon="8.4250117"><ele>409.33333333333337</ele><time>2026-03-26T11:53:18.951Z</time></trkpt><trkpt lat="44.45661" lon="8.4248033"><ele>409.66666666666663</ele><time>2026-03-26T11:53:19.951Z</time></trkpt><trkpt lat="44.4566517" lon="8.424585"><ele>410.0</ele><time>2026-03-26T11:53:20.952Z</time></trkpt><trkpt lat="44.4567" lon="8.4243617"><ele>410.0</ele><time>2026-03-26T11:53:21.951Z</time></trkpt><trkpt lat="44.4567517" lon="8.424145"><ele>410.0</ele><time>2026-03-26T11:53:22.951Z</time></trkpt><trkpt lat="44.4568" lon="8.42393"><ele>410.0</ele><time>2026-03-26T11:53:23.952Z</time></trkpt><trkpt lat="44.45684" lon="8.423705"><ele>413.0</ele><time>2026-03-26T11:53:24.951Z</time></trkpt><trkpt lat="44.4568833" lon="8.423505"><ele>416.0</ele><time>2026-03-26T11:53:25.952Z</time></trkpt><trkpt lat="44.456935" lon="8.4233217"><ele>419.0</ele><time>2026-03-26T11:53:26.951Z</time></trkpt><trkpt lat="44.4569783" lon="8.423145"><ele>422.0</ele><time>2026-03-26T11:53:27.951Z</time></trkpt><trkpt lat="44.4570183" lon="8.4229567"><ele>425.0</ele><time>2026-03-26T11:53:28.951Z</time></trkpt><trkpt lat="44.45706" lon="8.4227717"><ele>428.0</ele><time>2026-03-26T11:53:29.951Z</time></trkpt><trkpt lat="44.4571033" lon="8.4225983"><ele>431.0</ele><time>2026-03-26T11:53:30.952Z</time></trkpt><trkpt lat="44.4571483" lon="8.4224233"><ele>434.0</ele><time>2026-03-26T11:53:31.951Z</time></trkpt><trkpt lat="44.4572017" lon="8.422245"><ele>428.0</ele><time>2026-03-26T11:53:32.951Z</time></trkpt><trkpt lat="44.4572667" lon="8.4220717"><ele>422.0</ele><time>2026-03-26T11:53:33.952Z</time></trkpt><trkpt lat="44.4573317" lon="8.4219017"><ele>416.0</ele><time>2026-03-26T11:53:34.951Z</time></trkpt><trkpt lat="44.4574167" lon="8.4217467"><ele>410.0</ele><time>2026-03-26T11:53:35.952Z</time></trkpt><trkpt lat="44.4575133" lon="8.4216083"><ele>410.0</ele><time>2026-03-26T11:53:36.952Z</time></trkpt><trkpt lat="44.457615" lon="8.421495"><ele>410.0</ele><time>2026-03-26T11:53:37.951Z</time></trkpt><trkpt lat="44.457725" lon="8.4213783"><ele>410.0</ele><time>2026-03-26T11:53:38.951Z</time></trkpt><trkpt lat="44.4578367" lon="8.4212833"><ele>410.0</ele><time>2026-03-26T11:53:39.952Z</time></trkpt><trkpt lat="44.4579633" lon="8.421215"><ele>409.75</ele><time>2026-03-26T11:53:40.952Z</time></trkpt><trkpt lat="44.4580817" lon="8.42115"><ele>409.5</ele><time>2026-03-26T11:53:41.952Z</time></trkpt><trkpt lat="44.45821" lon="8.4211017"><ele>409.25</ele><time>2026-03-26T11:53:42.953Z</time></trkpt><trkpt lat="44.4583383" lon="8.4210233"><ele>409.0</ele><time>2026-03-26T11:53:43.953Z</time></trkpt><trkpt lat="44.458455" lon="8.4209533"><ele>409.0</ele><time>2026-03-26T11:53:44.952Z</time></trkpt><trkpt lat="44.45858" lon="8.4208867"><ele>409.0</ele><time>2026-03-26T11:53:45.953Z</time></trkpt><trkpt lat="44.4587017" lon="8.42082"><ele>409.0</ele><time>2026-03-26T11:53:46.952Z</time></trkpt><trkpt lat="44.4588233" lon="8.4207467"><ele>409.0</ele><time>2026-03-26T11:53:47.952Z</time></trkpt><trkpt lat="44.4589367" lon="8.4206717"><ele>408.0</ele><time>2026-03-26T11:53:48.953Z</time></trkpt><trkpt lat="44.4590633" lon="8.4206133"><ele>407.0</ele><time>2026-03-26T11:53:49.952Z</time></trkpt><trkpt lat="44.4591933" lon="8.4205467"><ele>406.0</ele><time>2026-03-26T11:53:50.952Z</time></trkpt><trkpt lat="44.45932" lon="8.4204783"><ele>405.0</ele><time>2026-03-26T11:53:51.953Z</time></trkpt><trkpt lat="44.4594533" lon="8.4204117"><ele>407.5</ele><time>2026-03-26T11:53:52.952Z</time></trkpt><trkpt lat="44.459595" lon="8.4203583"><ele>410.0</ele><time>2026-03-26T11:53:53.953Z</time></trkpt><trkpt lat="44.4597333" lon="8.420315"><ele>412.5</ele><time>2026-03-26T11:53:54.952Z</time></trkpt><trkpt lat="44.4598833" lon="8.42028"><ele>415.0</ele><time>2026-03-26T11:53:55.953Z</time></trkpt><trkpt lat="44.4600267" lon="8.4202483"><ele>415.25</ele><time>2026-03-26T11:53:56.952Z</time></trkpt><trkpt lat="44.46017" lon="8.42021"><ele>415.5</ele><time>2026-03-26T11:53:57.952Z</time></trkpt><trkpt lat="44.4603167" lon="8.420175"><ele>415.75</ele><time>2026-03-26T11:53:58.953Z</time></trkpt><trkpt lat="44.4604583" lon="8.420135"><ele>416.0</ele><time>2026-03-26T11:53:59.953Z</time></trkpt><trkpt lat="44.4605917" lon="8.4201"><ele>416.0</ele><time>2026-03-26T11:54:00.952Z</time></trkpt><trkpt lat="44.46072" lon="8.4200583"><ele>416.0</ele><time>2026-03-26T11:54:01.952Z</time></trkpt><trkpt lat="44.4608383" lon="8.4200233"><ele>416.0</ele><time>2026-03-26T11:54:02.953Z</time></trkpt><trkpt lat="44.46095" lon="8.4199533"><ele>416.0</ele><time>2026-03-26T11:54:03.953Z</time></trkpt><trkpt lat="44.4610633" lon="8.4198983"><ele>416.0</ele><time>2026-03-26T11:54:04.952Z</time></trkpt><trkpt lat="44.4611683" lon="8.4198317"><ele>416.0</ele><time>2026-03-26T11:54:05.953Z</time></trkpt><trkpt lat="44.4612783" lon="8.41981"><ele>416.0</ele><time>2026-03-26T11:54:06.953Z</time></trkpt><trkpt lat="44.46138" lon="8.41983"><ele>416.0</ele><time>2026-03-26T11:54:07.953Z</time></trkpt><trkpt lat="44.461465" lon="8.4198767"><ele>416.0</ele><time>2026-03-26T11:54:08.953Z</time></trkpt><trkpt lat="44.4615417" lon="8.4199883"><ele>417.5</ele><time>2026-03-26T11:54:09.953Z</time></trkpt><trkpt lat="44.4616033" lon="8.4201383"><ele>419.0</ele><time>2026-03-26T11:54:10.953Z</time></trkpt><trkpt lat="44.4616433" lon="8.4203117"><ele>420.5</ele><time>2026-03-26T11:54:11.953Z</time></trkpt><trkpt lat="44.4616667" lon="8.420505"><ele>422.0</ele><time>2026-03-26T11:54:12.952Z</time></trkpt><trkpt lat="44.461675" lon="8.4207"><ele>422.0</ele><time>2026-03-26T11:54:13.953Z</time></trkpt><trkpt lat="44.4616933" lon="8.4208917"><ele>422.0</ele><time>2026-03-26T11:54:14.952Z</time></trkpt><trkpt lat="44.4617283" lon="8.4210617"><ele>422.0</ele><time>2026-03-26T11:54:15.952Z</time></trkpt><trkpt lat="44.4617833" lon="8.421225"><ele>422.0</ele><time>2026-03-26T11:54:16.952Z</time></trkpt><trkpt lat="44.4618433" lon="8.4213533"><ele>420.6</ele><time>2026-03-26T11:54:17.953Z</time></trkpt><trkpt lat="44.4619" lon="8.421475"><ele>419.20000000000005</ele><time>2026-03-26T11:54:18.952Z</time></trkpt><trkpt lat="44.4619933" lon="8.4215683"><ele>417.8</ele><time>2026-03-26T11:54:19.952Z</time></trkpt><trkpt lat="44.4620933" lon="8.4216333"><ele>416.4</ele><time>2026-03-26T11:54:20.952Z</time></trkpt><trkpt lat="44.46219" lon="8.4215967"><ele>415.0</ele><time>2026-03-26T11:54:21.953Z</time></trkpt><trkpt lat="44.462285" lon="8.4215083"><ele>419.5</ele><time>2026-03-26T11:54:22.953Z</time></trkpt><trkpt lat="44.4623617" lon="8.4213633"><ele>424.0</ele><time>2026-03-26T11:54:23.953Z</time></trkpt><trkpt lat="44.4624417" lon="8.4212117"><ele>428.5</ele><time>2026-03-26T11:54:24.952Z</time></trkpt><trkpt lat="44.4625117" lon="8.421055"><ele>433.0</ele><time>2026-03-26T11:54:25.952Z</time></trkpt><trkpt lat="44.46257" lon="8.4208583"><ele>434.33333333333337</ele><time>2026-03-26T11:54:26.952Z</time></trkpt><trkpt lat="44.4626167" lon="8.42064"><ele>435.66666666666663</ele><time>2026-03-26T11:54:27.953Z</time></trkpt><trkpt lat="44.4626433" lon="8.4204133"><ele>437.0</ele><time>2026-03-26T11:54:28.952Z</time></trkpt><trkpt lat="44.462685" lon="8.4201883"><ele>437.0</ele><time>2026-03-26T11:54:29.953Z</time></trkpt><trkpt lat="44.46276" lon="8.4199933"><ele>437.0</ele><time>2026-03-26T11:54:30.952Z</time></trkpt><trkpt lat="44.4628617" lon="8.419805"><ele>437.0</ele><time>2026-03-26T11:54:31.952Z</time></trkpt><trkpt lat="44.4629883" lon="8.4196433"><ele>441.0</ele><time>2026-03-26T11:54:32.953Z</time></trkpt><trkpt lat="44.4631233" lon="8.4194983"><ele>445.0</ele><time>2026-03-26T11:54:33.952Z</time></trkpt><trkpt lat="44.463275" lon="8.419395"><ele>449.0</ele><time>2026-03-26T11:54:34.952Z</time></trkpt><trkpt lat="44.4634283" lon="8.4193033"><ele>449.0</ele><time>2026-03-26T11:54:35.953Z</time></trkpt><trkpt lat="44.4635617" lon="8.41923"><ele>449.0</ele><time>2026-03-26T11:54:36.953Z</time></trkpt><trkpt lat="44.4636883" lon="8.4191567"><ele>449.0</ele><time>2026-03-26T11:54:37.953Z</time></trkpt><trkpt lat="44.4638133" lon="8.4190817"><ele>449.0</ele><time>2026-03-26T11:54:38.952Z</time></trkpt><trkpt lat="44.4639333" lon="8.4190233"><ele>449.79999999999995</ele><time>2026-03-26T11:54:39.952Z</time></trkpt><trkpt lat="44.4640317" lon="8.4189717"><ele>450.59999999999997</ele><time>2026-03-26T11:54:40.952Z</time></trkpt><trkpt lat="44.464115" lon="8.4189167"><ele>451.4</ele><time>2026-03-26T11:54:41.953Z</time></trkpt><trkpt lat="44.4641817" lon="8.4188967"><ele>452.2</ele><time>2026-03-26T11:54:42.952Z</time></trkpt><trkpt lat="44.4642783" lon="8.4189083"><ele>453.0</ele><time>2026-03-26T11:54:44.952Z</time></trkpt><trkpt lat="44.4643233" lon="8.4190233"><ele>453.0</ele><time>2026-03-26T11:54:46.953Z</time></trkpt><trkpt lat="44.4643383" lon="8.41911"><ele>453.0</ele><time>2026-03-26T11:54:47.953Z</time></trkpt><trkpt lat="44.464355" lon="8.4191967"><ele>453.0</ele><time>2026-03-26T11:54:48.953Z</time></trkpt><trkpt lat="44.46444" lon="8.4193067"><ele>453.0</ele><time>2026-03-26T11:54:50.953Z</time></trkpt><trkpt lat="44.4644983" lon="8.4193683"><ele>453.0</ele><time>2026-03-26T11:54:51.953Z</time></trkpt><trkpt lat="44.4645617" lon="8.41942"><ele>453.0</ele><time>2026-03-26T11:54:52.952Z</time></trkpt><trkpt lat="44.4646333" lon="8.4194817"><ele>454.3333333333333</ele><time>2026-03-26T11:54:53.952Z</time></trkpt><trkpt lat="44.464695" lon="8.4195433"><ele>455.66666666666663</ele><time>2026-03-26T11:54:54.952Z</time></trkpt><trkpt lat="44.464745" lon="8.4196067"><ele>457.0</ele><time>2026-03-26T11:54:55.952Z</time></trkpt><trkpt lat="44.46478" lon="8.419745"><ele>458.3333333333333</ele><time>2026-03-26T11:54:57.952Z</time></trkpt><trkpt lat="44.46478" lon="8.4198333"><ele>459.66666666666663</ele><time>2026-03-26T11:54:58.953Z</time></trkpt><trkpt lat="44.4647483" lon="8.4199733"><ele>461.0</ele><time>2026-03-26T11:55:00.952Z</time></trkpt><trkpt lat="44.4647367" lon="8.4200667"><ele>462.6</ele><time>2026-03-26T11:55:01.952Z</time></trkpt><trkpt lat="44.4647317" lon="8.42021"><ele>464.20000000000005</ele><time>2026-03-26T11:55:03.952Z</time></trkpt><trkpt lat="44.4648083" lon="8.4203433"><ele>465.79999999999995</ele><time>2026-03-26T11:55:05.953Z</time></trkpt><trkpt lat="44.4648867" lon="8.4204567"><ele>467.4</ele><time>2026-03-26T11:55:07.952Z</time></trkpt><trkpt lat="44.4649033" lon="8.4205533"><ele>469.0</ele><time>2026-03-26T11:55:08.952Z</time></trkpt><trkpt lat="44.4649083" lon="8.4206867"><ele>470.1666666666667</ele><time>2026-03-26T11:55:09.953Z</time></trkpt><trkpt lat="44.464895" lon="8.4208267"><ele>471.33333333333337</ele><time>2026-03-26T11:55:10.952Z</time></trkpt><trkpt lat="44.4648717" lon="8.42096"><ele>472.5</ele><time>2026-03-26T11:55:11.952Z</time></trkpt><trkpt lat="44.4648167" lon="8.42107"><ele>473.66666666666663</ele><time>2026-03-26T11:55:12.952Z</time></trkpt><trkpt lat="44.464785" lon="8.42116"><ele>474.8333333333333</ele><time>2026-03-26T11:55:13.952Z</time></trkpt><trkpt lat="44.4647633" lon="8.4212583"><ele>476.0</ele><time>2026-03-26T11:55:14.952Z</time></trkpt><trkpt lat="44.4647417" lon="8.4214017"><ele>476.20000000000005</ele><time>2026-03-26T11:55:15.953Z</time></trkpt><trkpt lat="44.4647333" lon="8.4215583"><ele>476.40000000000003</ele><time>2026-03-26T11:55:16.952Z</time></trkpt><trkpt lat="44.4647183" lon="8.4217033"><ele>476.6</ele><time>2026-03-26T11:55:17.953Z</time></trkpt><trkpt lat="44.464685" lon="8.421835"><ele>476.8</ele><time>2026-03-26T11:55:18.953Z</time></trkpt><trkpt lat="44.4646383" lon="8.421935"><ele>477.0</ele><time>2026-03-26T11:55:19.952Z</time></trkpt><trkpt lat="44.4645833" lon="8.4220417"><ele>478.0</ele><time>2026-03-26T11:55:20.953Z</time></trkpt><trkpt lat="44.4645333" lon="8.4221633"><ele>479.00000000000006</ele><time>2026-03-26T11:55:21.953Z</time></trkpt><trkpt lat="44.4645067" lon="8.4222917"><ele>480.00000000000006</ele><time>2026-03-26T11:55:22.952Z</time></trkpt><trkpt lat="44.4645133" lon="8.4224233"><ele>481.0</ele><time>2026-03-26T11:55:23.952Z</time></trkpt><trkpt lat="44.4645333" lon="8.4225767"><ele>482.0</ele><time>2026-03-26T11:55:24.952Z</time></trkpt><trkpt lat="44.4645617" lon="8.42275"><ele>481.99999999999994</ele><time>2026-03-26T11:55:25.952Z</time></trkpt><trkpt lat="44.4645717" lon="8.4228917"><ele>482.0</ele><time>2026-03-26T11:55:26.953Z</time></trkpt><trkpt lat="44.4645833" lon="8.42303"><ele>482.0</ele><time>2026-03-26T11:55:27.953Z</time></trkpt><trkpt lat="44.4645733" lon="8.4231383"><ele>482.0</ele><time>2026-03-26T11:55:28.953Z</time></trkpt><trkpt lat="44.4645717" lon="8.4232267"><ele>481.99999999999994</ele><time>2026-03-26T11:55:29.952Z</time></trkpt><trkpt lat="44.4646483" lon="8.4232933"><ele>482.0</ele><time>2026-03-26T11:55:32.953Z</time></trkpt><trkpt lat="44.4647267" lon="8.42327"><ele>482.3333333333333</ele><time>2026-03-26T11:55:33.952Z</time></trkpt><trkpt lat="44.464805" lon="8.42324"><ele>482.66666666666663</ele><time>2026-03-26T11:55:34.953Z</time></trkpt><trkpt lat="44.4648767" lon="8.4232117"><ele>483.0</ele><time>2026-03-26T11:55:35.952Z</time></trkpt><trkpt lat="44.464955" lon="8.42318"><ele>483.33333333333337</ele><time>2026-03-26T11:55:36.953Z</time></trkpt><trkpt lat="44.4650267" lon="8.4231517"><ele>483.6666666666667</ele><time>2026-03-26T11:55:37.952Z</time></trkpt><trkpt lat="44.4650983" lon="8.4231333"><ele>484.0</ele><time>2026-03-26T11:55:38.953Z</time></trkpt><trkpt lat="44.4651683" lon="8.423115"><ele>484.00000000000006</ele><time>2026-03-26T11:55:39.953Z</time></trkpt><trkpt lat="44.4652583" lon="8.4230783"><ele>484.0</ele><time>2026-03-26T11:55:41.952Z</time></trkpt><trkpt lat="44.4653333" lon="8.4230483"><ele>484.0</ele><time>2026-03-26T11:55:43.953Z</time></trkpt><trkpt lat="44.4654467" lon="8.423"><ele>484.0</ele><time>2026-03-26T11:55:45.952Z</time></trkpt><trkpt lat="44.4655183" lon="8.4229667"><ele>484.00000000000006</ele><time>2026-03-26T11:55:46.953Z</time></trkpt><trkpt lat="44.4655917" lon="8.4229333"><ele>484.0</ele><time>2026-03-26T11:55:47.953Z</time></trkpt><trkpt lat="44.4656717" lon="8.4229033"><ele>480.00000000000006</ele><time>2026-03-26T11:55:48.952Z</time></trkpt><trkpt lat="44.4657517" lon="8.4228783"><ele>476.0</ele><time>2026-03-26T11:55:49.953Z</time></trkpt><trkpt lat="44.4658367" lon="8.4228533"><ele>472.0</ele><time>2026-03-26T11:55:50.952Z</time></trkpt><trkpt lat="44.46593" lon="8.4228267"><ele>468.0</ele><time>2026-03-26T11:55:51.952Z</time></trkpt><trkpt lat="44.4660133" lon="8.4228"><ele>464.00000000000006</ele><time>2026-03-26T11:55:52.952Z</time></trkpt><trkpt lat="44.4661033" lon="8.42277"><ele>460.0</ele><time>2026-03-26T11:55:53.953Z</time></trkpt><trkpt lat="44.4661917" lon="8.4227383"><ele>460.00000000000006</ele><time>2026-03-26T11:55:54.953Z</time></trkpt><trkpt lat="44.4662733" lon="8.4227167"><ele>460.0</ele><time>2026-03-26T11:55:55.953Z</time></trkpt><trkpt lat="44.4663567" lon="8.4227"><ele>460.0</ele><time>2026-03-26T11:55:56.953Z</time></trkpt><trkpt lat="44.4664317" lon="8.4226817"><ele>460.0</ele><time>2026-03-26T11:55:57.953Z</time></trkpt><trkpt lat="44.46654" lon="8.42266"><ele>460.00000000000006</ele><time>2026-03-26T11:55:59.953Z</time></trkpt><trkpt lat="44.46663" lon="8.4226183"><ele>460.0</ele><time>2026-03-26T11:56:01.953Z</time></trkpt><trkpt lat="44.4667067" lon="8.4225867"><ele>456.1666666666667</ele><time>2026-03-26T11:56:03.953Z</time></trkpt><trkpt lat="44.4667967" lon="8.42255"><ele>452.33333333333337</ele><time>2026-03-26T11:56:05.952Z</time></trkpt><trkpt lat="44.4669083" lon="8.4225233"><ele>448.5</ele><time>2026-03-26T11:56:07.952Z</time></trkpt><trkpt lat="44.4669767" lon="8.422505"><ele>444.66666666666663</ele><time>2026-03-26T11:56:08.952Z</time></trkpt><trkpt lat="44.4670517" lon="8.4224883"><ele>440.8333333333333</ele><time>2026-03-26T11:56:09.952Z</time></trkpt><trkpt lat="44.4671283" lon="8.4224717"><ele>437.0</ele><time>2026-03-26T11:56:10.952Z</time></trkpt><trkpt lat="44.4671917" lon="8.4224683"><ele>433.8</ele><time>2026-03-26T11:56:11.953Z</time></trkpt><trkpt lat="44.467255" lon="8.4224883"><ele>430.6</ele><time>2026-03-26T11:56:12.952Z</time></trkpt><trkpt lat="44.4673233" lon="8.4225783"><ele>427.40000000000003</ele><time>2026-03-26T11:56:14.952Z</time></trkpt><trkpt lat="44.467375" lon="8.4226683"><ele>424.20000000000005</ele><time>2026-03-26T11:56:16.953Z</time></trkpt><trkpt lat="44.4674683" lon="8.4226617"><ele>421.0</ele><time>2026-03-26T11:56:19.953Z</time></trkpt><trkpt lat="44.46759" lon="8.42261"><ele>421.0</ele><time>2026-03-26T11:56:21.952Z</time></trkpt><trkpt lat="44.4676567" lon="8.4225933"><ele>421.0</ele><time>2026-03-26T11:56:22.952Z</time></trkpt><trkpt lat="44.46772" lon="8.4225767"><ele>421.0</ele><time>2026-03-26T11:56:23.952Z</time></trkpt><trkpt lat="44.467835" lon="8.4225633"><ele>421.0</ele><time>2026-03-26T11:56:25.953Z</time></trkpt><trkpt lat="44.467965" lon="8.4225617"><ele>421.0</ele><time>2026-03-26T11:56:27.952Z</time></trkpt><trkpt lat="44.4680417" lon="8.42253"><ele>420.4</ele><time>2026-03-26T11:56:28.953Z</time></trkpt><trkpt lat="44.468125" lon="8.4224617"><ele>419.8</ele><time>2026-03-26T11:56:29.952Z</time></trkpt><trkpt lat="44.4682167" lon="8.4223733"><ele>419.2</ele><time>2026-03-26T11:56:30.952Z</time></trkpt><trkpt lat="44.468305" lon="8.422295"><ele>418.59999999999997</ele><time>2026-03-26T11:56:31.953Z</time></trkpt><trkpt lat="44.4683983" lon="8.422225"><ele>418.0</ele><time>2026-03-26T11:56:32.952Z</time></trkpt><trkpt lat="44.4685033" lon="8.4221683"><ele>416.83333333333337</ele><time>2026-03-26T11:56:33.952Z</time></trkpt><trkpt lat="44.4686017" lon="8.4221233"><ele>415.6666666666667</ele><time>2026-03-26T11:56:34.952Z</time></trkpt><trkpt lat="44.4686817" lon="8.4220883"><ele>414.5</ele><time>2026-03-26T11:56:35.953Z</time></trkpt><trkpt lat="44.468765" lon="8.422075"><ele>413.33333333333337</ele><time>2026-03-26T11:56:36.952Z</time></trkpt><trkpt lat="44.4688417" lon="8.422065"><ele>412.1666666666667</ele><time>2026-03-26T11:56:37.952Z</time></trkpt><trkpt lat="44.4689083" lon="8.422045"><ele>411.0</ele><time>2026-03-26T11:56:38.953Z</time></trkpt><trkpt lat="44.4689683" lon="8.4220117"><ele>409.8</ele><time>2026-03-26T11:56:39.953Z</time></trkpt><trkpt lat="44.46907" lon="8.4219433"><ele>408.6</ele><time>2026-03-26T11:56:41.952Z</time></trkpt><trkpt lat="44.4691233" lon="8.4218517"><ele>407.4</ele><time>2026-03-26T11:56:43.952Z</time></trkpt><trkpt lat="44.4691183" lon="8.4217183"><ele>406.2</ele><time>2026-03-26T11:56:45.953Z</time></trkpt><trkpt lat="44.4691" lon="8.42154"><ele>405.0</ele><time>2026-03-26T11:56:47.952Z</time></trkpt><trkpt lat="44.4690967" lon="8.42145"><ele>405.0</ele><time>2026-03-26T11:56:48.953Z</time></trkpt><trkpt lat="44.4691617" lon="8.4213167"><ele>405.0</ele><time>2026-03-26T11:56:50.953Z</time></trkpt><trkpt lat="44.469235" lon="8.42126"><ele>405.0</ele><time>2026-03-26T11:56:51.953Z</time></trkpt><trkpt lat="44.4693267" lon="8.42122"><ele>405.0</ele><time>2026-03-26T11:56:52.952Z</time></trkpt><trkpt lat="44.4694083" lon="8.421195"><ele>405.0</ele><time>2026-03-26T11:56:53.952Z</time></trkpt><trkpt lat="44.4694867" lon="8.4211617"><ele>405.0</ele><time>2026-03-26T11:56:54.952Z</time></trkpt><trkpt lat="44.46957" lon="8.421125"><ele>405.0</ele><time>2026-03-26T11:56:55.952Z</time></trkpt><trkpt lat="44.46964" lon="8.4210833"><ele>405.0</ele><time>2026-03-26T11:56:56.952Z</time></trkpt><trkpt lat="44.4697183" lon="8.42099"><ele>405.0</ele><time>2026-03-26T11:56:58.952Z</time></trkpt><trkpt lat="44.469785" lon="8.421005"><ele>405.0</ele><time>2026-03-26T11:57:01.953Z</time></trkpt><trkpt lat="44.4697783" lon="8.42122"><ele>404.0</ele><time>2026-03-26T11:57:03.952Z</time></trkpt><trkpt lat="44.469765" lon="8.4213967"><ele>403.0</ele><time>2026-03-26T11:57:04.953Z</time></trkpt><trkpt lat="44.46975" lon="8.4215833"><ele>402.0</ele><time>2026-03-26T11:57:05.952Z</time></trkpt><trkpt lat="44.469735" lon="8.4217517"><ele>401.0</ele><time>2026-03-26T11:57:06.952Z</time></trkpt><trkpt lat="44.4697633" lon="8.4218967"><ele>401.0</ele><time>2026-03-26T11:57:07.953Z</time></trkpt><trkpt lat="44.4698133" lon="8.4219983"><ele>401.0</ele><time>2026-03-26T11:57:08.953Z</time></trkpt><trkpt lat="44.4698933" lon="8.4221133"><ele>401.0</ele><time>2026-03-26T11:57:09.953Z</time></trkpt><trkpt lat="44.4700067" lon="8.4222133"><ele>401.0</ele><time>2026-03-26T11:57:10.953Z</time></trkpt><trkpt lat="44.4701417" lon="8.4223017"><ele>401.0</ele><time>2026-03-26T11:57:11.953Z</time></trkpt><trkpt lat="44.470265" lon="8.4224167"><ele>401.0</ele><time>2026-03-26T11:57:12.952Z</time></trkpt><trkpt lat="44.4703933" lon="8.42251"><ele>401.0</ele><time>2026-03-26T11:57:13.952Z</time></trkpt><trkpt lat="44.4704933" lon="8.4226133"><ele>401.0</ele><time>2026-03-26T11:57:14.953Z</time></trkpt><trkpt lat="44.4705967" lon="8.42271"><ele>400.20000000000005</ele><time>2026-03-26T11:57:15.952Z</time></trkpt><trkpt lat="44.470695" lon="8.4227833"><ele>399.40000000000003</ele><time>2026-03-26T11:57:16.952Z</time></trkpt><trkpt lat="44.470785" lon="8.4228583"><ele>398.6</ele><time>2026-03-26T11:57:17.953Z</time></trkpt><trkpt lat="44.4708617" lon="8.4229283"><ele>397.8</ele><time>2026-03-26T11:57:18.952Z</time></trkpt><trkpt lat="44.4709317" lon="8.4229983"><ele>397.0</ele><time>2026-03-26T11:57:19.953Z</time></trkpt><trkpt lat="44.4710067" lon="8.4230717"><ele>397.0</ele><time>2026-03-26T11:57:20.952Z</time></trkpt><trkpt lat="44.4710983" lon="8.423145"><ele>397.0</ele><time>2026-03-26T11:57:21.953Z</time></trkpt><trkpt lat="44.471195" lon="8.4232333"><ele>397.0</ele><time>2026-03-26T11:57:22.953Z</time></trkpt><trkpt lat="44.4712983" lon="8.423315"><ele>397.0</ele><time>2026-03-26T11:57:23.953Z</time></trkpt><trkpt lat="44.4714067" lon="8.42341"><ele>397.25</ele><time>2026-03-26T11:57:24.952Z</time></trkpt><trkpt lat="44.4715117" lon="8.4235383"><ele>397.5</ele><time>2026-03-26T11:57:25.952Z</time></trkpt><trkpt lat="44.4716" lon="8.4236817"><ele>397.75</ele><time>2026-03-26T11:57:26.952Z</time></trkpt><trkpt lat="44.47166" lon="8.42384"><ele>398.0</ele><time>2026-03-26T11:57:27.953Z</time></trkpt><trkpt lat="44.4717133" lon="8.42401"><ele>401.3333333333333</ele><time>2026-03-26T11:57:28.952Z</time></trkpt><trkpt lat="44.4717483" lon="8.4242333"><ele>404.66666666666663</ele><time>2026-03-26T11:57:29.952Z</time></trkpt><trkpt lat="44.471785" lon="8.4244617"><ele>408.0</ele><time>2026-03-26T11:57:30.953Z</time></trkpt><trkpt lat="44.4718183" lon="8.42467"><ele>408.5</ele><time>2026-03-26T11:57:31.953Z</time></trkpt><trkpt lat="44.4718633" lon="8.4248033"><ele>409.0</ele><time>2026-03-26T11:57:32.952Z</time></trkpt><trkpt lat="44.4719117" lon="8.4249283"><ele>409.5</ele><time>2026-03-26T11:57:33.952Z</time></trkpt><trkpt lat="44.472" lon="8.4250217"><ele>410.0</ele><time>2026-03-26T11:57:34.953Z</time></trkpt><trkpt lat="44.47213" lon="8.4251133"><ele>410.0</ele><time>2026-03-26T11:57:35.953Z</time></trkpt><trkpt lat="44.472275" lon="8.4252183"><ele>410.0</ele><time>2026-03-26T11:57:36.953Z</time></trkpt><trkpt lat="44.472405" lon="8.42533"><ele>410.0</ele><time>2026-03-26T11:57:37.952Z</time></trkpt><trkpt lat="44.4725133" lon="8.42543"><ele>410.0</ele><time>2026-03-26T11:57:38.952Z</time></trkpt><trkpt lat="44.4725933" lon="8.4255067"><ele>410.66666666666663</ele><time>2026-03-26T11:57:39.953Z</time></trkpt><trkpt lat="44.4726667" lon="8.4255583"><ele>411.3333333333333</ele><time>2026-03-26T11:57:40.952Z</time></trkpt><trkpt lat="44.47274" lon="8.4256117"><ele>412.0</ele><time>2026-03-26T11:57:41.953Z</time></trkpt><trkpt lat="44.4728033" lon="8.42567"><ele>412.66666666666663</ele><time>2026-03-26T11:57:42.952Z</time></trkpt><trkpt lat="44.4728817" lon="8.4257267"><ele>413.3333333333333</ele><time>2026-03-26T11:57:43.953Z</time></trkpt><trkpt lat="44.4729633" lon="8.4258067"><ele>414.0</ele><time>2026-03-26T11:57:44.953Z</time></trkpt><trkpt lat="44.4730633" lon="8.42591"><ele>414.0</ele><time>2026-03-26T11:57:45.953Z</time></trkpt><trkpt lat="44.4731633" lon="8.4260083"><ele>414.0</ele><time>2026-03-26T11:57:46.952Z</time></trkpt><trkpt lat="44.4732817" lon="8.4261083"><ele>414.0</ele><time>2026-03-26T11:57:47.952Z</time></trkpt><trkpt lat="44.4734" lon="8.4261933"><ele>414.0</ele><time>2026-03-26T11:57:48.952Z</time></trkpt><trkpt lat="44.4735283" lon="8.4262867"><ele>414.5</ele><time>2026-03-26T11:57:49.952Z</time></trkpt><trkpt lat="44.4736683" lon="8.426385"><ele>415.0</ele><time>2026-03-26T11:57:50.952Z</time></trkpt><trkpt lat="44.4737983" lon="8.4264867"><ele>415.5</ele><time>2026-03-26T11:57:51.953Z</time></trkpt><trkpt lat="44.47392" lon="8.4265717"><ele>416.0</ele><time>2026-03-26T11:57:52.952Z</time></trkpt><trkpt lat="44.4740367" lon="8.4266417"><ele>416.0</ele><time>2026-03-26T11:57:53.952Z</time></trkpt><trkpt lat="44.4741583" lon="8.4267117"><ele>416.0</ele><time>2026-03-26T11:57:54.952Z</time></trkpt><trkpt lat="44.4743017" lon="8.42677"><ele>416.0</ele><time>2026-03-26T11:57:55.953Z</time></trkpt><trkpt lat="44.474455" lon="8.4267833"><ele>416.0</ele><time>2026-03-26T11:57:56.953Z</time></trkpt><trkpt lat="44.4746067" lon="8.4267767"><ele>416.5</ele><time>2026-03-26T11:57:57.953Z</time></trkpt><trkpt lat="44.47475" lon="8.4267483"><ele>417.0</ele><time>2026-03-26T11:57:58.953Z</time></trkpt><trkpt lat="44.47489" lon="8.426695"><ele>417.5</ele><time>2026-03-26T11:57:59.953Z</time></trkpt><trkpt lat="44.475025" lon="8.4266317"><ele>418.0</ele><time>2026-03-26T11:58:00.953Z</time></trkpt><trkpt lat="44.4751533" lon="8.426565"><ele>418.0</ele><time>2026-03-26T11:58:01.953Z</time></trkpt><trkpt lat="44.4752867" lon="8.426515"><ele>418.0</ele><time>2026-03-26T11:58:02.952Z</time></trkpt><trkpt lat="44.47544" lon="8.4264633"><ele>418.0</ele><time>2026-03-26T11:58:03.953Z</time></trkpt><trkpt lat="44.4756017" lon="8.4264117"><ele>419.0</ele><time>2026-03-26T11:58:04.953Z</time></trkpt><trkpt lat="44.4757517" lon="8.4263817"><ele>420.0</ele><time>2026-03-26T11:58:05.953Z</time></trkpt><trkpt lat="44.4758983" lon="8.42636"><ele>421.0</ele><time>2026-03-26T11:58:06.952Z</time></trkpt><trkpt lat="44.47604" lon="8.4263333"><ele>422.0</ele><time>2026-03-26T11:58:07.953Z</time></trkpt><trkpt lat="44.4761567" lon="8.4263217"><ele>422.0</ele><time>2026-03-26T11:58:08.953Z</time></trkpt><trkpt lat="44.4762633" lon="8.426305"><ele>422.0</ele><time>2026-03-26T11:58:09.952Z</time></trkpt><trkpt lat="44.476375" lon="8.4262967"><ele>422.0</ele><time>2026-03-26T11:58:10.952Z</time></trkpt><trkpt lat="44.4764967" lon="8.4262867"><ele>422.0</ele><time>2026-03-26T11:58:11.952Z</time></trkpt><trkpt lat="44.4766217" lon="8.4262817"><ele>422.0</ele><time>2026-03-26T11:58:12.953Z</time></trkpt><trkpt lat="44.4767567" lon="8.4262783"><ele>422.0</ele><time>2026-03-26T11:58:13.952Z</time></trkpt><trkpt lat="44.4768867" lon="8.4262917"><ele>422.0</ele><time>2026-03-26T11:58:14.953Z</time></trkpt><trkpt lat="44.4770167" lon="8.426325"><ele>422.0</ele><time>2026-03-26T11:58:15.952Z</time></trkpt><trkpt lat="44.47715" lon="8.4263383"><ele>422.75</ele><time>2026-03-26T11:58:16.953Z</time></trkpt><trkpt lat="44.47728" lon="8.426365"><ele>423.5</ele><time>2026-03-26T11:58:17.953Z</time></trkpt><trkpt lat="44.4774017" lon="8.4263867"><ele>424.25</ele><time>2026-03-26T11:58:18.952Z</time></trkpt><trkpt lat="44.4775267" lon="8.4264183"><ele>425.0</ele><time>2026-03-26T11:58:19.952Z</time></trkpt><trkpt lat="44.4776483" lon="8.426455"><ele>425.0</ele><time>2026-03-26T11:58:20.952Z</time></trkpt><trkpt lat="44.4777783" lon="8.4264933"><ele>425.0</ele><time>2026-03-26T11:58:21.952Z</time></trkpt><trkpt lat="44.4779133" lon="8.4265333"><ele>425.0</ele><time>2026-03-26T11:58:22.953Z</time></trkpt><trkpt lat="44.4780483" lon="8.42656"><ele>425.0</ele><time>2026-03-26T11:58:23.952Z</time></trkpt><trkpt lat="44.4781883" lon="8.4266"><ele>425.0</ele><time>2026-03-26T11:58:24.952Z</time></trkpt><trkpt lat="44.4783283" lon="8.4266517"><ele>425.0</ele><time>2026-03-26T11:58:25.952Z</time></trkpt><trkpt lat="44.478475" lon="8.4266867"><ele>425.0</ele><time>2026-03-26T11:58:26.952Z</time></trkpt><trkpt lat="44.4786283" lon="8.42671"><ele>425.0</ele><time>2026-03-26T11:58:27.952Z</time></trkpt><trkpt lat="44.4787683" lon="8.4267367"><ele>426.0</ele><time>2026-03-26T11:58:28.952Z</time></trkpt><trkpt lat="44.4788967" lon="8.4267367"><ele>427.0</ele><time>2026-03-26T11:58:29.953Z</time></trkpt><trkpt lat="44.4790133" lon="8.426725"><ele>428.0</ele><time>2026-03-26T11:58:30.952Z</time></trkpt><trkpt lat="44.47913" lon="8.426695"><ele>429.0</ele><time>2026-03-26T11:58:31.953Z</time></trkpt><trkpt lat="44.47925" lon="8.4266667"><ele>429.0</ele><time>2026-03-26T11:58:32.953Z</time></trkpt><trkpt lat="44.4793717" lon="8.42665"><ele>429.0</ele><time>2026-03-26T11:58:33.952Z</time></trkpt><trkpt lat="44.4794967" lon="8.426615"><ele>429.0</ele><time>2026-03-26T11:58:34.953Z</time></trkpt><trkpt lat="44.47962" lon="8.4265867"><ele>429.0</ele><time>2026-03-26T11:58:35.953Z</time></trkpt><trkpt lat="44.4797467" lon="8.4265583"><ele>430.25</ele><time>2026-03-26T11:58:36.953Z</time></trkpt><trkpt lat="44.4798817" lon="8.4265417"><ele>431.5</ele><time>2026-03-26T11:58:37.952Z</time></trkpt><trkpt lat="44.4800167" lon="8.4265433"><ele>432.75</ele><time>2026-03-26T11:58:38.953Z</time></trkpt><trkpt lat="44.4801433" lon="8.42657"><ele>434.0</ele><time>2026-03-26T11:58:39.952Z</time></trkpt><trkpt lat="44.4802633" lon="8.42661"><ele>434.0</ele><time>2026-03-26T11:58:40.952Z</time></trkpt><trkpt lat="44.4803533" lon="8.4266617"><ele>434.0</ele><time>2026-03-26T11:58:41.953Z</time></trkpt><trkpt lat="44.4804417" lon="8.4267383"><ele>434.0</ele><time>2026-03-26T11:58:42.952Z</time></trkpt><trkpt lat="44.4805117" lon="8.42686"><ele>434.0</ele><time>2026-03-26T11:58:43.953Z</time></trkpt><trkpt lat="44.4805833" lon="8.427"><ele>434.0</ele><time>2026-03-26T11:58:44.953Z</time></trkpt><trkpt lat="44.480635" lon="8.4271633"><ele>435.6</ele><time>2026-03-26T11:58:45.952Z</time></trkpt><trkpt lat="44.4806717" lon="8.4273217"><ele>437.2</ele><time>2026-03-26T11:58:46.952Z</time></trkpt><trkpt lat="44.4807083" lon="8.4274617"><ele>438.80000000000007</ele><time>2026-03-26T11:58:47.952Z</time></trkpt><trkpt lat="44.4807517" lon="8.4275817"><ele>440.40000000000003</ele><time>2026-03-26T11:58:48.952Z</time></trkpt><trkpt lat="44.48081" lon="8.4277033"><ele>442.0</ele><time>2026-03-26T11:58:49.952Z</time></trkpt><trkpt lat="44.4808833" lon="8.42783"><ele>442.0</ele><time>2026-03-26T11:58:50.953Z</time></trkpt><trkpt lat="44.4809567" lon="8.427965"><ele>442.0</ele><time>2026-03-26T11:58:51.952Z</time></trkpt><trkpt lat="44.481045" lon="8.4280867"><ele>442.0</ele><time>2026-03-26T11:58:52.952Z</time></trkpt><trkpt lat="44.4811483" lon="8.4281883"><ele>442.0</ele><time>2026-03-26T11:58:53.952Z</time></trkpt><trkpt lat="44.4812617" lon="8.4282817"><ele>442.5</ele><time>2026-03-26T11:58:54.952Z</time></trkpt><trkpt lat="44.4813733" lon="8.4283783"><ele>443.0</ele><time>2026-03-26T11:58:55.953Z</time></trkpt><trkpt lat="44.4814883" lon="8.4284583"><ele>443.5</ele><time>2026-03-26T11:58:56.952Z</time></trkpt><trkpt lat="44.4815917" lon="8.4285533"><ele>444.0</ele><time>2026-03-26T11:58:57.953Z</time></trkpt><trkpt lat="44.4816833" lon="8.4286417"><ele>444.0</ele><time>2026-03-26T11:58:58.952Z</time></trkpt><trkpt lat="44.481775" lon="8.4287533"><ele>444.0</ele><time>2026-03-26T11:58:59.953Z</time></trkpt><trkpt lat="44.481865" lon="8.428855"><ele>444.0</ele><time>2026-03-26T11:59:00.953Z</time></trkpt><trkpt lat="44.48194" lon="8.4289233"><ele>444.0</ele><time>2026-03-26T11:59:01.952Z</time></trkpt><trkpt lat="44.4819917" lon="8.4289783"><ele>444.0</ele><time>2026-03-26T11:59:03.953Z</time></trkpt><trkpt lat="44.4820483" lon="8.4290183"><ele>445.8333333333333</ele><time>2026-03-26T12:05:27.953Z</time></trkpt><trkpt lat="44.4821083" lon="8.4290467"><ele>447.66666666666663</ele><time>2026-03-26T12:05:28.952Z</time></trkpt><trkpt lat="44.4821883" lon="8.4290817"><ele>449.5</ele><time>2026-03-26T12:05:29.952Z</time></trkpt><trkpt lat="44.482265" lon="8.42912"><ele>451.3333333333333</ele><time>2026-03-26T12:05:30.953Z</time></trkpt><trkpt lat="44.4823533" lon="8.429175"><ele>453.16666666666663</ele><time>2026-03-26T12:05:31.953Z</time></trkpt><trkpt lat="44.4824483" lon="8.4292333"><ele>455.0</ele><time>2026-03-26T12:05:32.953Z</time></trkpt><trkpt lat="44.48255" lon="8.4293133"><ele>455.0</ele><time>2026-03-26T12:05:33.952Z</time></trkpt><trkpt lat="44.4826517" lon="8.4294"><ele>455.0</ele><time>2026-03-26T12:05:34.952Z</time></trkpt><trkpt lat="44.4827517" lon="8.429495"><ele>455.0</ele><time>2026-03-26T12:05:35.952Z</time></trkpt><trkpt lat="44.4828517" lon="8.4295717"><ele>455.0</ele><time>2026-03-26T12:05:36.952Z</time></trkpt><trkpt lat="44.482955" lon="8.4296617"><ele>457.6</ele><time>2026-03-26T12:05:37.952Z</time></trkpt><trkpt lat="44.4830417" lon="8.4297533"><ele>460.2</ele><time>2026-03-26T12:05:38.953Z</time></trkpt><trkpt lat="44.4831133" lon="8.4298367"><ele>462.79999999999995</ele><time>2026-03-26T12:05:39.952Z</time></trkpt><trkpt lat="44.4831717" lon="8.42993"><ele>465.4</ele><time>2026-03-26T12:05:40.952Z</time></trkpt><trkpt lat="44.4832183" lon="8.4300383"><ele>468.0</ele><time>2026-03-26T12:05:41.952Z</time></trkpt><trkpt lat="44.483245" lon="8.43016"><ele>468.0</ele><time>2026-03-26T12:05:42.952Z</time></trkpt><trkpt lat="44.4832733" lon="8.4302583"><ele>467.99999999999994</ele><time>2026-03-26T12:05:43.952Z</time></trkpt><trkpt lat="44.48338" lon="8.4303683"><ele>467.99999999999994</ele><time>2026-03-26T12:05:45.953Z</time></trkpt><trkpt lat="44.4834783" lon="8.4303967"><ele>468.0</ele><time>2026-03-26T12:05:46.952Z</time></trkpt><trkpt lat="44.4836033" lon="8.4304317"><ele>468.0</ele><time>2026-03-26T12:05:47.952Z</time></trkpt><trkpt lat="44.483755" lon="8.4304717"><ele>468.5</ele><time>2026-03-26T12:05:48.952Z</time></trkpt><trkpt lat="44.483905" lon="8.4305217"><ele>469.0</ele><time>2026-03-26T12:05:49.953Z</time></trkpt><trkpt lat="44.4840367" lon="8.430575"><ele>469.5</ele><time>2026-03-26T12:05:50.952Z</time></trkpt><trkpt lat="44.4841733" lon="8.430645"><ele>470.0</ele><time>2026-03-26T12:05:51.952Z</time></trkpt><trkpt lat="44.4843233" lon="8.4307283"><ele>470.0</ele><time>2026-03-26T12:05:52.952Z</time></trkpt><trkpt lat="44.48445" lon="8.4308317"><ele>470.0</ele><time>2026-03-26T12:05:53.952Z</time></trkpt><trkpt lat="44.484575" lon="8.4309267"><ele>470.0</ele><time>2026-03-26T12:05:54.952Z</time></trkpt><trkpt lat="44.4847067" lon="8.43102"><ele>470.0</ele><time>2026-03-26T12:05:55.953Z</time></trkpt><trkpt lat="44.4848317" lon="8.431115"><ele>470.6</ele><time>2026-03-26T12:05:56.952Z</time></trkpt><trkpt lat="44.4849433" lon="8.4312017"><ele>471.2</ele><time>2026-03-26T12:05:57.952Z</time></trkpt><trkpt lat="44.4850467" lon="8.4312817"><ele>471.79999999999995</ele><time>2026-03-26T12:05:58.952Z</time></trkpt><trkpt lat="44.4851367" lon="8.4313483"><ele>472.4</ele><time>2026-03-26T12:05:59.953Z</time></trkpt><trkpt lat="44.4852333" lon="8.4313783"><ele>473.0</ele><time>2026-03-26T12:06:00.952Z</time></trkpt><trkpt lat="44.485335" lon="8.4313683"><ele>474.5</ele><time>2026-03-26T12:06:01.953Z</time></trkpt><trkpt lat="44.485455" lon="8.431325"><ele>476.0</ele><time>2026-03-26T12:06:02.952Z</time></trkpt><trkpt lat="44.4855833" lon="8.431265"><ele>477.5</ele><time>2026-03-26T12:06:03.952Z</time></trkpt><trkpt lat="44.4857233" lon="8.4312283"><ele>479.0</ele><time>2026-03-26T12:06:04.952Z</time></trkpt><trkpt lat="44.48586" lon="8.43119"><ele>474.75</ele><time>2026-03-26T12:06:05.953Z</time></trkpt><trkpt lat="44.4859967" lon="8.4311533"><ele>470.5</ele><time>2026-03-26T12:06:06.953Z</time></trkpt><trkpt lat="44.486125" lon="8.4311033"><ele>466.25</ele><time>2026-03-26T12:06:07.953Z</time></trkpt><trkpt lat="44.4862367" lon="8.431035"><ele>462.0</ele><time>2026-03-26T12:06:08.953Z</time></trkpt><trkpt lat="44.486335" lon="8.43096"><ele>462.0</ele><time>2026-03-26T12:06:09.952Z</time></trkpt><trkpt lat="44.4864233" lon="8.4308833"><ele>462.00000000000006</ele><time>2026-03-26T12:06:10.953Z</time></trkpt><trkpt lat="44.486505" lon="8.430835"><ele>462.00000000000006</ele><time>2026-03-26T12:06:11.952Z</time></trkpt><trkpt lat="44.4865917" lon="8.4308083"><ele>462.0</ele><time>2026-03-26T12:06:12.953Z</time></trkpt><trkpt lat="44.486695" lon="8.430785"><ele>462.0</ele><time>2026-03-26T12:06:13.953Z</time></trkpt><trkpt lat="44.4868267" lon="8.43077"><ele>462.0</ele><time>2026-03-26T12:06:14.953Z</time></trkpt><trkpt lat="44.4869617" lon="8.4307733"><ele>462.0</ele><time>2026-03-26T12:06:15.953Z</time></trkpt><trkpt lat="44.4870917" lon="8.4307983"><ele>462.0</ele><time>2026-03-26T12:06:16.953Z</time></trkpt><trkpt lat="44.48722" lon="8.430825"><ele>462.0</ele><time>2026-03-26T12:06:17.952Z</time></trkpt><trkpt lat="44.4873217" lon="8.43085"><ele>461.6</ele><time>2026-03-26T12:06:18.953Z</time></trkpt><trkpt lat="44.4874233" lon="8.4309117"><ele>461.20000000000005</ele><time>2026-03-26T12:06:19.953Z</time></trkpt><trkpt lat="44.4875133" lon="8.430955"><ele>460.8</ele><time>2026-03-26T12:06:20.952Z</time></trkpt><trkpt lat="44.4876017" lon="8.4309667"><ele>460.4</ele><time>2026-03-26T12:06:21.953Z</time></trkpt><trkpt lat="44.4876767" lon="8.4309683"><ele>460.0</ele><time>2026-03-26T12:06:22.952Z</time></trkpt><trkpt lat="44.48777" lon="8.430935"><ele>460.0</ele><time>2026-03-26T12:06:23.952Z</time></trkpt><trkpt lat="44.4878783" lon="8.4308867"><ele>460.0</ele><time>2026-03-26T12:06:24.953Z</time></trkpt><trkpt lat="44.4880067" lon="8.4308217"><ele>460.0</ele><time>2026-03-26T12:06:25.952Z</time></trkpt><trkpt lat="44.488145" lon="8.430735"><ele>460.0</ele><time>2026-03-26T12:06:26.952Z</time></trkpt><trkpt lat="44.4882933" lon="8.4306417"><ele>460.75</ele><time>2026-03-26T12:06:27.952Z</time></trkpt><trkpt lat="44.488435" lon="8.4305467"><ele>461.5</ele><time>2026-03-26T12:06:28.953Z</time></trkpt><trkpt lat="44.4885483" lon="8.43046"><ele>462.25</ele><time>2026-03-26T12:06:29.953Z</time></trkpt><trkpt lat="44.4886583" lon="8.4303767"><ele>463.0</ele><time>2026-03-26T12:06:30.953Z</time></trkpt><trkpt lat="44.4887817" lon="8.4302567"><ele>463.2</ele><time>2026-03-26T12:06:31.953Z</time></trkpt><trkpt lat="44.4888933" lon="8.4301433"><ele>463.4</ele><time>2026-03-26T12:06:32.953Z</time></trkpt><trkpt lat="44.4889983" lon="8.43006"><ele>463.59999999999997</ele><time>2026-03-26T12:06:33.953Z</time></trkpt><trkpt lat="44.4890833" lon="8.42999"><ele>463.79999999999995</ele><time>2026-03-26T12:06:34.952Z</time></trkpt><trkpt lat="44.4891617" lon="8.4299233"><ele>464.0</ele><time>2026-03-26T12:06:35.952Z</time></trkpt><trkpt lat="44.4892417" lon="8.4298533"><ele>464.0</ele><time>2026-03-26T12:06:36.952Z</time></trkpt><trkpt lat="44.4893383" lon="8.42981"><ele>464.0</ele><time>2026-03-26T12:06:37.952Z</time></trkpt><trkpt lat="44.48946" lon="8.429775"><ele>464.0</ele><time>2026-03-26T12:06:38.953Z</time></trkpt><trkpt lat="44.4895933" lon="8.429735"><ele>464.0</ele><time>2026-03-26T12:06:39.953Z</time></trkpt><trkpt lat="44.489715" lon="8.4296767"><ele>463.0</ele><time>2026-03-26T12:06:40.952Z</time></trkpt><trkpt lat="44.489825" lon="8.4296067"><ele>462.0</ele><time>2026-03-26T12:06:41.952Z</time></trkpt><trkpt lat="44.489905" lon="8.429515"><ele>461.0</ele><time>2026-03-26T12:06:42.952Z</time></trkpt><trkpt lat="44.489975" lon="8.4294183"><ele>460.0</ele><time>2026-03-26T12:06:43.953Z</time></trkpt><trkpt lat="44.4900433" lon="8.4293067"><ele>459.0</ele><time>2026-03-26T12:06:44.952Z</time></trkpt><trkpt lat="44.4901133" lon="8.429185"><ele>459.0</ele><time>2026-03-26T12:06:45.953Z</time></trkpt><trkpt lat="44.4901917" lon="8.429055"><ele>459.0</ele><time>2026-03-26T12:06:46.952Z</time></trkpt><trkpt lat="44.490285" lon="8.4289433"><ele>459.0</ele><time>2026-03-26T12:06:47.953Z</time></trkpt><trkpt lat="44.490385" lon="8.428845"><ele>459.0</ele><time>2026-03-26T12:06:48.953Z</time></trkpt><trkpt lat="44.490475" lon="8.4287667"><ele>456.6</ele><time>2026-03-26T12:06:49.952Z</time></trkpt><trkpt lat="44.4905483" lon="8.4286983"><ele>454.2</ele><time>2026-03-26T12:06:50.953Z</time></trkpt><trkpt lat="44.490605" lon="8.4286417"><ele>451.80000000000007</ele><time>2026-03-26T12:06:51.952Z</time></trkpt><trkpt lat="44.4906267" lon="8.4284633"><ele>449.40000000000003</ele><time>2026-03-26T12:06:53.953Z</time></trkpt><trkpt lat="44.4906067" lon="8.4283383"><ele>447.0</ele><time>2026-03-26T12:06:54.952Z</time></trkpt><trkpt lat="44.4905933" lon="8.42821"><ele>447.0</ele><time>2026-03-26T12:06:55.953Z</time></trkpt><trkpt lat="44.4905867" lon="8.4280867"><ele>447.0</ele><time>2026-03-26T12:06:56.953Z</time></trkpt><trkpt lat="44.4906017" lon="8.4279933"><ele>447.0</ele><time>2026-03-26T12:06:57.952Z</time></trkpt><trkpt lat="44.490665" lon="8.4279283"><ele>447.0</ele><time>2026-03-26T12:06:59.953Z</time></trkpt><trkpt lat="44.4907817" lon="8.4280017"><ele>447.0</ele><time>2026-03-26T12:07:01.952Z</time></trkpt><trkpt lat="44.4908533" lon="8.428055"><ele>447.0</ele><time>2026-03-26T12:07:02.952Z</time></trkpt><trkpt lat="44.4909467" lon="8.4281"><ele>447.0</ele><time>2026-03-26T12:07:03.953Z</time></trkpt><trkpt lat="44.49107" lon="8.4281317"><ele>447.0</ele><time>2026-03-26T12:07:04.952Z</time></trkpt><trkpt lat="44.4911833" lon="8.4281617"><ele>447.0</ele><time>2026-03-26T12:07:05.952Z</time></trkpt><trkpt lat="44.491295" lon="8.4282017"><ele>447.0</ele><time>2026-03-26T12:07:06.952Z</time></trkpt><trkpt lat="44.4914067" lon="8.4282467"><ele>445.3333333333333</ele><time>2026-03-26T12:07:07.953Z</time></trkpt><trkpt lat="44.4915067" lon="8.42826"><ele>443.66666666666663</ele><time>2026-03-26T12:07:08.952Z</time></trkpt><trkpt lat="44.491615" lon="8.4282617"><ele>442.0</ele><time>2026-03-26T12:07:09.953Z</time></trkpt><trkpt lat="44.4917033" lon="8.4282633"><ele>440.3333333333333</ele><time>2026-03-26T12:07:10.952Z</time></trkpt><trkpt lat="44.4917833" lon="8.42826"><ele>438.66666666666663</ele><time>2026-03-26T12:07:11.953Z</time></trkpt><trkpt lat="44.4918467" lon="8.428255"><ele>437.0</ele><time>2026-03-26T12:07:12.952Z</time></trkpt><trkpt lat="44.4919" lon="8.4281883"><ele>437.0</ele><time>2026-03-26T12:07:14.952Z</time></trkpt><trkpt lat="44.49188" lon="8.42807"><ele>437.00000000000006</ele><time>2026-03-26T12:07:17.952Z</time></trkpt><trkpt lat="44.491815" lon="8.4279767"><ele>437.00000000000006</ele><time>2026-03-26T12:07:19.952Z</time></trkpt><trkpt lat="44.491745" lon="8.4278983"><ele>437.0</ele><time>2026-03-26T12:07:21.953Z</time></trkpt><trkpt lat="44.49167" lon="8.4278417"><ele>437.0</ele><time>2026-03-26T12:07:23.952Z</time></trkpt><trkpt lat="44.49158" lon="8.4277517"><ele>434.66666666666663</ele><time>2026-03-26T12:07:25.952Z</time></trkpt><trkpt lat="44.4915283" lon="8.4277"><ele>432.3333333333333</ele><time>2026-03-26T12:07:26.952Z</time></trkpt><trkpt lat="44.4914767" lon="8.4276367"><ele>430.0</ele><time>2026-03-26T12:07:27.953Z</time></trkpt><trkpt lat="44.4914117" lon="8.427475"><ele>427.66666666666663</ele><time>2026-03-26T12:07:29.952Z</time></trkpt><trkpt lat="44.4914133" lon="8.4273533"><ele>425.3333333333333</ele><time>2026-03-26T12:07:30.952Z</time></trkpt><trkpt lat="44.4914283" lon="8.4272367"><ele>423.0</ele><time>2026-03-26T12:07:31.953Z</time></trkpt><trkpt lat="44.4914417" lon="8.4271267"><ele>423.0</ele><time>2026-03-26T12:07:32.952Z</time></trkpt><trkpt lat="44.49145" lon="8.4270283"><ele>423.0</ele><time>2026-03-26T12:07:33.953Z</time></trkpt><trkpt lat="44.4914483" lon="8.4269333"><ele>423.0</ele><time>2026-03-26T12:07:34.952Z</time></trkpt><trkpt lat="44.4914033" lon="8.426805"><ele>423.0</ele><time>2026-03-26T12:07:36.953Z</time></trkpt><trkpt lat="44.4913417" lon="8.4267717"><ele>423.0</ele><time>2026-03-26T12:07:37.953Z</time></trkpt><trkpt lat="44.4912583" lon="8.4267433"><ele>423.0</ele><time>2026-03-26T12:07:38.953Z</time></trkpt><trkpt lat="44.4911817" lon="8.4267083"><ele>423.0</ele><time>2026-03-26T12:07:39.952Z</time></trkpt><trkpt lat="44.4911117" lon="8.4266567"><ele>423.0</ele><time>2026-03-26T12:07:40.953Z</time></trkpt><trkpt lat="44.4910533" lon="8.42654"><ele>423.0</ele><time>2026-03-26T12:07:42.952Z</time></trkpt><trkpt lat="44.491105" lon="8.4263983"><ele>423.0</ele><time>2026-03-26T12:07:44.953Z</time></trkpt><trkpt lat="44.4911683" lon="8.4262683"><ele>423.0</ele><time>2026-03-26T12:07:46.952Z</time></trkpt><trkpt lat="44.491205" lon="8.4261833"><ele>422.0</ele><time>2026-03-26T12:07:47.952Z</time></trkpt><trkpt lat="44.491245" lon="8.4261"><ele>421.0</ele><time>2026-03-26T12:07:48.952Z</time></trkpt><trkpt lat="44.491295" lon="8.4260217"><ele>420.0</ele><time>2026-03-26T12:07:49.952Z</time></trkpt><trkpt lat="44.4913617" lon="8.425945"><ele>419.0</ele><time>2026-03-26T12:07:50.953Z</time></trkpt><trkpt lat="44.4914467" lon="8.425885"><ele>418.0</ele><time>2026-03-26T12:07:51.953Z</time></trkpt><trkpt lat="44.4915417" lon="8.4258117"><ele>417.0</ele><time>2026-03-26T12:07:52.953Z</time></trkpt><trkpt lat="44.49163" lon="8.4257483"><ele>416.40000000000003</ele><time>2026-03-26T12:07:53.953Z</time></trkpt><trkpt lat="44.4917333" lon="8.4256833"><ele>415.8</ele><time>2026-03-26T12:07:54.953Z</time></trkpt><trkpt lat="44.4918283" lon="8.4256"><ele>415.2</ele><time>2026-03-26T12:07:55.952Z</time></trkpt><trkpt lat="44.491915" lon="8.4255083"><ele>414.6</ele><time>2026-03-26T12:07:56.952Z</time></trkpt><trkpt lat="44.4919767" lon="8.4254083"><ele>414.0</ele><time>2026-03-26T12:07:57.953Z</time></trkpt><trkpt lat="44.4920233" lon="8.4253033"><ele>414.0</ele><time>2026-03-26T12:07:58.953Z</time></trkpt><trkpt lat="44.49206" lon="8.4251917"><ele>414.0</ele><time>2026-03-26T12:07:59.953Z</time></trkpt><trkpt lat="44.492095" lon="8.4250733"><ele>414.0</ele><time>2026-03-26T12:08:00.952Z</time></trkpt><trkpt lat="44.492125" lon="8.4249367"><ele>414.0</ele><time>2026-03-26T12:08:01.952Z</time></trkpt><trkpt lat="44.49217" lon="8.4248"><ele>414.0</ele><time>2026-03-26T12:08:02.953Z</time></trkpt><trkpt lat="44.492225" lon="8.4246583"><ele>412.4</ele><time>2026-03-26T12:08:03.953Z</time></trkpt><trkpt lat="44.4922833" lon="8.42451"><ele>410.79999999999995</ele><time>2026-03-26T12:08:04.952Z</time></trkpt><trkpt lat="44.4923317" lon="8.424375"><ele>409.20000000000005</ele><time>2026-03-26T12:08:05.953Z</time></trkpt><trkpt lat="44.4923683" lon="8.4242417"><ele>407.6</ele><time>2026-03-26T12:08:06.952Z</time></trkpt><trkpt lat="44.4924067" lon="8.4241333"><ele>406.0</ele><time>2026-03-26T12:08:07.952Z</time></trkpt><trkpt lat="44.49244" lon="8.42405"><ele>406.00000000000006</ele><time>2026-03-26T12:08:08.952Z</time></trkpt><trkpt lat="44.4925067" lon="8.423895"><ele>406.0</ele><time>2026-03-26T12:08:10.952Z</time></trkpt><trkpt lat="44.4925483" lon="8.4238"><ele>406.0</ele><time>2026-03-26T12:08:11.952Z</time></trkpt><trkpt lat="44.49259" lon="8.4237017"><ele>406.0</ele><time>2026-03-26T12:08:12.952Z</time></trkpt><trkpt lat="44.4926333" lon="8.4236233"><ele>406.00000000000006</ele><time>2026-03-26T12:08:13.953Z</time></trkpt><trkpt lat="44.4926917" lon="8.42355"><ele>406.0</ele><time>2026-03-26T12:08:14.952Z</time></trkpt><trkpt lat="44.49275" lon="8.423495"><ele>406.00000000000006</ele><time>2026-03-26T12:08:15.953Z</time></trkpt><trkpt lat="44.4928033" lon="8.42344"><ele>406.0</ele><time>2026-03-26T12:08:16.953Z</time></trkpt><trkpt lat="44.4928533" lon="8.4233117"><ele>406.0</ele><time>2026-03-26T12:08:18.953Z</time></trkpt><trkpt lat="44.4928583" lon="8.423185"><ele>406.0</ele><time>2026-03-26T12:08:20.953Z</time></trkpt><trkpt lat="44.492865" lon="8.42306"><ele>406.00000000000006</ele><time>2026-03-26T12:08:22.953Z</time></trkpt><trkpt lat="44.4928767" lon="8.422965"><ele>406.0</ele><time>2026-03-26T12:08:24.952Z</time></trkpt><trkpt lat="44.49292" lon="8.4228483"><ele>402.6</ele><time>2026-03-26T12:08:29.953Z</time></trkpt><trkpt lat="44.492965" lon="8.4227417"><ele>399.20000000000005</ele><time>2026-03-26T12:08:31.954Z</time></trkpt><trkpt lat="44.4930217" lon="8.4226183"><ele>395.79999999999995</ele><time>2026-03-26T12:08:33.954Z</time></trkpt><trkpt lat="44.4931" lon="8.422485"><ele>392.4</ele><time>2026-03-26T12:08:35.953Z</time></trkpt><trkpt lat="44.4931517" lon="8.4224167"><ele>389.0</ele><time>2026-03-26T12:08:36.954Z</time></trkpt><trkpt lat="44.493235" lon="8.42229"><ele>388.99999999999994</ele><time>2026-03-26T12:08:38.954Z</time></trkpt><trkpt lat="44.4932967" lon="8.4222233"><ele>389.0</ele><time>2026-03-26T12:08:39.954Z</time></trkpt><trkpt lat="44.4933567" lon="8.42216"><ele>389.0</ele><time>2026-03-26T12:08:40.953Z</time></trkpt><trkpt lat="44.4934067" lon="8.4220917"><ele>389.0</ele><time>2026-03-26T12:08:41.953Z</time></trkpt><trkpt lat="44.4934633" lon="8.42202"><ele>388.99999999999994</ele><time>2026-03-26T12:08:42.954Z</time></trkpt><trkpt lat="44.493525" lon="8.4219233"><ele>389.0</ele><time>2026-03-26T12:08:43.953Z</time></trkpt><trkpt lat="44.4935867" lon="8.4218283"><ele>388.16666666666663</ele><time>2026-03-26T12:08:44.953Z</time></trkpt><trkpt lat="44.4936217" lon="8.4217467"><ele>387.3333333333333</ele><time>2026-03-26T12:08:45.954Z</time></trkpt><trkpt lat="44.4936483" lon="8.4216083"><ele>386.5</ele><time>2026-03-26T12:08:47.953Z</time></trkpt><trkpt lat="44.4936533" lon="8.4214667"><ele>385.66666666666663</ele><time>2026-03-26T12:08:49.953Z</time></trkpt><trkpt lat="44.4936383" lon="8.4213783"><ele>384.8333333333333</ele><time>2026-03-26T12:08:50.953Z</time></trkpt><trkpt lat="44.4936267" lon="8.42129"><ele>384.0</ele><time>2026-03-26T12:08:51.954Z</time></trkpt><trkpt lat="44.4936167" lon="8.4211867"><ele>383.3333333333333</ele><time>2026-03-26T12:08:52.954Z</time></trkpt><trkpt lat="44.4936133" lon="8.4210783"><ele>382.6666666666667</ele><time>2026-03-26T12:08:53.953Z</time></trkpt><trkpt lat="44.4936283" lon="8.4209733"><ele>382.0</ele><time>2026-03-26T12:08:54.953Z</time></trkpt><trkpt lat="44.4936283" lon="8.420865"><ele>381.33333333333337</ele><time>2026-03-26T12:08:55.953Z</time></trkpt><trkpt lat="44.4936417" lon="8.4207567"><ele>380.6666666666667</ele><time>2026-03-26T12:08:56.953Z</time></trkpt><trkpt lat="44.4936617" lon="8.4206533"><ele>380.0</ele><time>2026-03-26T12:08:57.953Z</time></trkpt><trkpt lat="44.493675" lon="8.4205533"><ele>378.8</ele><time>2026-03-26T12:08:58.954Z</time></trkpt><trkpt lat="44.493685" lon="8.4204633"><ele>377.6</ele><time>2026-03-26T12:08:59.953Z</time></trkpt><trkpt lat="44.49369" lon="8.4202917"><ele>376.4</ele><time>2026-03-26T12:09:01.953Z</time></trkpt><trkpt lat="44.4936883" lon="8.420145"><ele>375.2</ele><time>2026-03-26T12:09:03.954Z</time></trkpt><trkpt lat="44.493685" lon="8.420035"><ele>374.0</ele><time>2026-03-26T12:09:05.953Z</time></trkpt><trkpt lat="44.4936767" lon="8.4199017"><ele>374.0</ele><time>2026-03-26T12:09:07.954Z</time></trkpt><trkpt lat="44.4936667" lon="8.4197533"><ele>374.0</ele><time>2026-03-26T12:09:09.954Z</time></trkpt><trkpt lat="44.4936683" lon="8.41961"><ele>374.0</ele><time>2026-03-26T12:09:11.953Z</time></trkpt><trkpt lat="44.4936917" lon="8.4195133"><ele>374.0</ele><time>2026-03-26T12:09:13.953Z</time></trkpt><trkpt lat="44.4937317" lon="8.4193917"><ele>374.0</ele><time>2026-03-26T12:09:15.953Z</time></trkpt><trkpt lat="44.4937633" lon="8.41931"><ele>374.0</ele><time>2026-03-26T12:09:16.954Z</time></trkpt><trkpt lat="44.4937883" lon="8.419225"><ele>372.83333333333337</ele><time>2026-03-26T12:09:17.953Z</time></trkpt><trkpt lat="44.493805" lon="8.4191333"><ele>371.6666666666667</ele><time>2026-03-26T12:09:18.954Z</time></trkpt><trkpt lat="44.493815" lon="8.4190233"><ele>370.5</ele><time>2026-03-26T12:09:19.953Z</time></trkpt><trkpt lat="44.4938367" lon="8.418925"><ele>369.3333333333333</ele><time>2026-03-26T12:09:20.953Z</time></trkpt><trkpt lat="44.4939133" lon="8.41879"><ele>368.16666666666663</ele><time>2026-03-26T12:09:22.953Z</time></trkpt><trkpt lat="44.494" lon="8.4187117"><ele>367.0</ele><time>2026-03-26T12:09:24.953Z</time></trkpt><trkpt lat="44.4940367" lon="8.41862"><ele>365.0</ele><time>2026-03-26T12:09:26.954Z</time></trkpt><trkpt lat="44.4940183" lon="8.41853"><ele>363.0</ele><time>2026-03-26T12:12:13.953Z</time></trkpt><trkpt lat="44.493995" lon="8.418385"><ele>361.0</ele><time>2026-03-26T12:12:15.953Z</time></trkpt><trkpt lat="44.49394" lon="8.4182333"><ele>359.0</ele><time>2026-03-26T12:12:17.953Z</time></trkpt><trkpt lat="44.4938933" lon="8.4181567"><ele>357.0</ele><time>2026-03-26T12:12:18.953Z</time></trkpt><trkpt lat="44.4938483" lon="8.4180883"><ele>355.0</ele><time>2026-03-26T12:12:19.954Z</time></trkpt><trkpt lat="44.4937767" lon="8.4179567"><ele>354.5</ele><time>2026-03-26T12:12:21.953Z</time></trkpt><trkpt lat="44.4937283" lon="8.4178117"><ele>354.0</ele><time>2026-03-26T12:12:23.953Z</time></trkpt><trkpt lat="44.4937117" lon="8.4177167"><ele>353.5</ele><time>2026-03-26T12:12:24.953Z</time></trkpt><trkpt lat="44.493685" lon="8.41762"><ele>353.0</ele><time>2026-03-26T12:12:25.954Z</time></trkpt><trkpt lat="44.49365" lon="8.4175183"><ele>352.5</ele><time>2026-03-26T12:12:26.954Z</time></trkpt><trkpt lat="44.4936117" lon="8.4174117"><ele>352.0</ele><time>2026-03-26T12:12:27.953Z</time></trkpt><trkpt lat="44.4935717" lon="8.41731"><ele>352.0</ele><time>2026-03-26T12:12:28.954Z</time></trkpt><trkpt lat="44.4935367" lon="8.4172133"><ele>352.0</ele><time>2026-03-26T12:12:29.953Z</time></trkpt><trkpt lat="44.4935" lon="8.41711"><ele>352.0</ele><time>2026-03-26T12:12:30.953Z</time></trkpt><trkpt lat="44.49348" lon="8.4170033"><ele>352.0</ele><time>2026-03-26T12:12:31.953Z</time></trkpt><trkpt lat="44.4934667" lon="8.41687"><ele>352.0</ele><time>2026-03-26T12:12:32.953Z</time></trkpt><trkpt lat="44.49347" lon="8.4167367"><ele>352.0</ele><time>2026-03-26T12:12:33.953Z</time></trkpt><trkpt lat="44.493505" lon="8.4165983"><ele>351.16666666666663</ele><time>2026-03-26T12:12:34.953Z</time></trkpt><trkpt lat="44.493545" lon="8.4164567"><ele>350.3333333333333</ele><time>2026-03-26T12:12:35.953Z</time></trkpt><trkpt lat="44.49357" lon="8.416355"><ele>349.5</ele><time>2026-03-26T12:12:36.953Z</time></trkpt><trkpt lat="44.4935867" lon="8.41626"><ele>348.6666666666667</ele><time>2026-03-26T12:12:37.954Z</time></trkpt><trkpt lat="44.4935567" lon="8.41618"><ele>347.83333333333337</ele><time>2026-03-26T12:12:38.953Z</time></trkpt><trkpt lat="44.4935117" lon="8.4161017"><ele>347.0</ele><time>2026-03-26T12:12:39.954Z</time></trkpt><trkpt lat="44.4934367" lon="8.41602"><ele>346.5</ele><time>2026-03-26T12:12:40.954Z</time></trkpt><trkpt lat="44.4933533" lon="8.4159383"><ele>346.0</ele><time>2026-03-26T12:12:41.953Z</time></trkpt><trkpt lat="44.4932717" lon="8.41588"><ele>345.5</ele><time>2026-03-26T12:12:42.953Z</time></trkpt><trkpt lat="44.4932" lon="8.4158283"><ele>345.0</ele><time>2026-03-26T12:12:43.953Z</time></trkpt><trkpt lat="44.4931433" lon="8.41577"><ele>344.5</ele><time>2026-03-26T12:12:44.953Z</time></trkpt><trkpt lat="44.493095" lon="8.4156867"><ele>344.0</ele><time>2026-03-26T12:12:45.954Z</time></trkpt><trkpt lat="44.4930567" lon="8.4155817"><ele>344.1666666666667</ele><time>2026-03-26T12:12:46.954Z</time></trkpt><trkpt lat="44.49302" lon="8.4154583"><ele>344.33333333333337</ele><time>2026-03-26T12:12:47.954Z</time></trkpt><trkpt lat="44.49301" lon="8.4153467"><ele>344.5</ele><time>2026-03-26T12:12:48.954Z</time></trkpt><trkpt lat="44.4929983" lon="8.4152067"><ele>344.6666666666667</ele><time>2026-03-26T12:12:50.953Z</time></trkpt><trkpt lat="44.4929233" lon="8.415115"><ele>344.8333333333333</ele><time>2026-03-26T12:12:53.953Z</time></trkpt><trkpt lat="44.492865" lon="8.4150783"><ele>345.0</ele><time>2026-03-26T12:12:54.954Z</time></trkpt><trkpt lat="44.4927833" lon="8.4150267"><ele>345.4</ele><time>2026-03-26T12:12:55.953Z</time></trkpt><trkpt lat="44.4926867" lon="8.41498"><ele>345.8</ele><time>2026-03-26T12:12:56.953Z</time></trkpt><trkpt lat="44.4925767" lon="8.4149467"><ele>346.20000000000005</ele><time>2026-03-26T12:12:57.954Z</time></trkpt><trkpt lat="44.4924683" lon="8.4149"><ele>346.6</ele><time>2026-03-26T12:12:58.953Z</time></trkpt><trkpt lat="44.49236" lon="8.4148333"><ele>347.0</ele><time>2026-03-26T12:12:59.953Z</time></trkpt><trkpt lat="44.4922517" lon="8.4147667"><ele>347.0</ele><time>2026-03-26T12:13:00.953Z</time></trkpt><trkpt lat="44.4921467" lon="8.4147083"><ele>347.0</ele><time>2026-03-26T12:13:01.954Z</time></trkpt><trkpt lat="44.4920467" lon="8.414645"><ele>347.0</ele><time>2026-03-26T12:13:02.954Z</time></trkpt><trkpt lat="44.49194" lon="8.4145917"><ele>347.0</ele><time>2026-03-26T12:13:03.954Z</time></trkpt><trkpt lat="44.49184" lon="8.41453"><ele>347.0</ele><time>2026-03-26T12:13:04.953Z</time></trkpt><trkpt lat="44.4917367" lon="8.4144633"><ele>346.5</ele><time>2026-03-26T12:13:05.953Z</time></trkpt><trkpt lat="44.4916333" lon="8.4143917"><ele>346.0</ele><time>2026-03-26T12:13:06.954Z</time></trkpt><trkpt lat="44.4915317" lon="8.4143067"><ele>345.5</ele><time>2026-03-26T12:13:07.954Z</time></trkpt><trkpt lat="44.4914417" lon="8.4141983"><ele>345.0</ele><time>2026-03-26T12:13:08.953Z</time></trkpt><trkpt lat="44.4913583" lon="8.4140783"><ele>345.0</ele><time>2026-03-26T12:13:09.953Z</time></trkpt><trkpt lat="44.4912767" lon="8.41394"><ele>345.0</ele><time>2026-03-26T12:13:10.953Z</time></trkpt><trkpt lat="44.491175" lon="8.4137967"><ele>345.0</ele><time>2026-03-26T12:13:11.953Z</time></trkpt><trkpt lat="44.491055" lon="8.4136967"><ele>345.0</ele><time>2026-03-26T12:13:12.954Z</time></trkpt><trkpt lat="44.4909383" lon="8.4136183"><ele>345.25</ele><time>2026-03-26T12:13:13.954Z</time></trkpt><trkpt lat="44.4908267" lon="8.413545"><ele>345.5</ele><time>2026-03-26T12:13:14.954Z</time></trkpt><trkpt lat="44.4907233" lon="8.4134633"><ele>345.75</ele><time>2026-03-26T12:13:15.954Z</time></trkpt><trkpt lat="44.49062" lon="8.413375"><ele>346.0</ele><time>2026-03-26T12:13:16.953Z</time></trkpt><trkpt lat="44.4905267" lon="8.4132883"><ele>346.0</ele><time>2026-03-26T12:13:17.954Z</time></trkpt><trkpt lat="44.490455" lon="8.413185"><ele>346.0</ele><time>2026-03-26T12:13:18.953Z</time></trkpt><trkpt lat="44.490395" lon="8.4130683"><ele>346.0</ele><time>2026-03-26T12:13:19.953Z</time></trkpt><trkpt lat="44.4903567" lon="8.4129767"><ele>348.0</ele><time>2026-03-26T12:13:20.953Z</time></trkpt><trkpt lat="44.490315" lon="8.41286"><ele>348.0</ele><time>2026-03-26T12:13:22.953Z</time></trkpt><trkpt lat="44.4902533" lon="8.4128317"><ele>348.0</ele><time>2026-03-26T12:13:28.953Z</time></trkpt></trkseg><trkseg><trkpt lat="44.491975" lon="8.41484"><ele>347.0</ele><time>2026-03-26T13:17:32.886Z</time></trkpt><trkpt lat="44.4923183" lon="8.4149833"><ele>347.0</ele><time>2026-03-26T13:17:36.887Z</time></trkpt><trkpt lat="44.4924117" lon="8.4150083"><ele>347.0</ele><time>2026-03-26T13:17:37.886Z</time></trkpt><trkpt lat="44.4925117" lon="8.4150533"><ele>347.0</ele><time>2026-03-26T13:17:38.886Z</time></trkpt><trkpt lat="44.49261" lon="8.4151117"><ele>347.0</ele><time>2026-03-26T13:17:39.886Z</time></trkpt><trkpt lat="44.49269" lon="8.4151567"><ele>347.0</ele><time>2026-03-26T13:17:40.886Z</time></trkpt><trkpt lat="44.4927567" lon="8.4151833"><ele>347.0</ele><time>2026-03-26T13:17:41.887Z</time></trkpt><trkpt lat="44.49282" lon="8.415195"><ele>347.0</ele><time>2026-03-26T13:17:42.887Z</time></trkpt><trkpt lat="44.4928883" lon="8.41525"><ele>346.6666666666667</ele><time>2026-03-26T13:17:44.938Z</time></trkpt><trkpt lat="44.4929567" lon="8.415285"><ele>346.33333333333337</ele><time>2026-03-26T13:17:47.938Z</time></trkpt><trkpt lat="44.4929367" lon="8.4153883"><ele>346.0</ele><time>2026-03-26T13:17:50.938Z</time></trkpt><trkpt lat="44.492945" lon="8.4154867"><ele>345.6666666666667</ele><time>2026-03-26T13:17:51.937Z</time></trkpt><trkpt lat="44.492975" lon="8.4155967"><ele>345.3333333333333</ele><time>2026-03-26T13:17:52.937Z</time></trkpt><trkpt lat="44.493005" lon="8.4156967"><ele>345.0</ele><time>2026-03-26T13:17:53.938Z</time></trkpt><trkpt lat="44.4930417" lon="8.4157783"><ele>344.8</ele><time>2026-03-26T13:17:54.938Z</time></trkpt><trkpt lat="44.4931083" lon="8.4158517"><ele>344.6</ele><time>2026-03-26T13:17:55.937Z</time></trkpt><trkpt lat="44.4932" lon="8.4159167"><ele>344.4</ele><time>2026-03-26T13:17:56.938Z</time></trkpt><trkpt lat="44.4932917" lon="8.4159917"><ele>344.2</ele><time>2026-03-26T13:17:57.938Z</time></trkpt><trkpt lat="44.4933683" lon="8.4160767"><ele>344.0</ele><time>2026-03-26T13:17:58.938Z</time></trkpt><trkpt lat="44.4934267" lon="8.416155"><ele>344.0</ele><time>2026-03-26T13:17:59.937Z</time></trkpt><trkpt lat="44.4934717" lon="8.416235"><ele>344.0</ele><time>2026-03-26T13:18:00.937Z</time></trkpt><trkpt lat="44.49349" lon="8.4163967"><ele>344.0</ele><time>2026-03-26T13:18:02.938Z</time></trkpt><trkpt lat="44.4934717" lon="8.4164833"><ele>344.0</ele><time>2026-03-26T13:18:03.937Z</time></trkpt><trkpt lat="44.493445" lon="8.4165817"><ele>344.0</ele><time>2026-03-26T13:18:04.938Z</time></trkpt><trkpt lat="44.4934217" lon="8.416685"><ele>344.0</ele><time>2026-03-26T13:18:05.938Z</time></trkpt><trkpt lat="44.4933983" lon="8.4167867"><ele>344.6</ele><time>2026-03-26T13:18:06.938Z</time></trkpt><trkpt lat="44.4933867" lon="8.4169017"><ele>345.2</ele><time>2026-03-26T13:18:07.937Z</time></trkpt><trkpt lat="44.493405" lon="8.4170417"><ele>345.8</ele><time>2026-03-26T13:18:08.937Z</time></trkpt><trkpt lat="44.4934467" lon="8.4171833"><ele>346.40000000000003</ele><time>2026-03-26T13:18:09.937Z</time></trkpt><trkpt lat="44.4934967" lon="8.4173217"><ele>347.0</ele><time>2026-03-26T13:18:10.937Z</time></trkpt><trkpt lat="44.49356" lon="8.4174617"><ele>348.0</ele><time>2026-03-26T13:18:11.938Z</time></trkpt><trkpt lat="44.4936183" lon="8.4176017"><ele>349.0</ele><time>2026-03-26T13:18:12.938Z</time></trkpt><trkpt lat="44.4936633" lon="8.4177333"><ele>350.0</ele><time>2026-03-26T13:18:13.937Z</time></trkpt><trkpt lat="44.4936917" lon="8.41785"><ele>351.0</ele><time>2026-03-26T13:18:14.937Z</time></trkpt><trkpt lat="44.493725" lon="8.4179583"><ele>352.0</ele><time>2026-03-26T13:18:15.937Z</time></trkpt><trkpt lat="44.4937783" lon="8.41806"><ele>352.5</ele><time>2026-03-26T13:18:16.937Z</time></trkpt><trkpt lat="44.4938417" lon="8.4181583"><ele>353.0</ele><time>2026-03-26T13:18:17.938Z</time></trkpt><trkpt lat="44.493915" lon="8.418245"><ele>353.5</ele><time>2026-03-26T13:18:18.937Z</time></trkpt><trkpt lat="44.4939617" lon="8.4183267"><ele>354.0</ele><time>2026-03-26T13:18:19.938Z</time></trkpt><trkpt lat="44.494015" lon="8.418445"><ele>354.5</ele><time>2026-03-26T13:18:21.937Z</time></trkpt><trkpt lat="44.494005" lon="8.4185417"><ele>355.0</ele><time>2026-03-26T13:19:51.938Z</time></trkpt><trkpt lat="44.49399" lon="8.4186567"><ele>355.0</ele><time>2026-03-26T13:19:54.938Z</time></trkpt><trkpt lat="44.4939383" lon="8.4187567"><ele>355.0</ele><time>2026-03-26T13:19:56.938Z</time></trkpt><trkpt lat="44.493835" lon="8.4188533"><ele>355.0</ele><time>2026-03-26T13:19:58.939Z</time></trkpt><trkpt lat="44.4937883" lon="8.4189433"><ele>355.0</ele><time>2026-03-26T13:19:59.938Z</time></trkpt><trkpt lat="44.4937617" lon="8.4190367"><ele>355.0</ele><time>2026-03-26T13:20:00.939Z</time></trkpt><trkpt lat="44.49376" lon="8.41913"><ele>355.0</ele><time>2026-03-26T13:20:01.939Z</time></trkpt><trkpt lat="44.49375" lon="8.4192217"><ele>357.4</ele><time>2026-03-26T13:20:02.939Z</time></trkpt><trkpt lat="44.4937017" lon="8.4193917"><ele>359.8</ele><time>2026-03-26T13:20:04.938Z</time></trkpt><trkpt lat="44.4936717" lon="8.419485"><ele>362.20000000000005</ele><time>2026-03-26T13:20:05.938Z</time></trkpt><trkpt lat="44.4936433" lon="8.419565"><ele>364.6</ele><time>2026-03-26T13:20:06.939Z</time></trkpt><trkpt lat="44.4936217" lon="8.4197"><ele>367.0</ele><time>2026-03-26T13:20:08.939Z</time></trkpt><trkpt lat="44.49363" lon="8.41985"><ele>368.40000000000003</ele><time>2026-03-26T13:20:10.938Z</time></trkpt><trkpt lat="44.4936567" lon="8.4200217"><ele>369.8</ele><time>2026-03-26T13:20:12.939Z</time></trkpt><trkpt lat="44.493645" lon="8.420175"><ele>371.2</ele><time>2026-03-26T13:20:14.939Z</time></trkpt><trkpt lat="44.4936383" lon="8.4203317"><ele>372.6</ele><time>2026-03-26T13:20:16.938Z</time></trkpt><trkpt lat="44.49363" lon="8.4204283"><ele>374.0</ele><time>2026-03-26T13:20:17.939Z</time></trkpt><trkpt lat="44.4936283" lon="8.4205367"><ele>375.2</ele><time>2026-03-26T13:20:18.938Z</time></trkpt><trkpt lat="44.493625" lon="8.4206283"><ele>376.4</ele><time>2026-03-26T13:20:19.938Z</time></trkpt><trkpt lat="44.4936067" lon="8.4207667"><ele>377.6</ele><time>2026-03-26T13:20:21.938Z</time></trkpt><trkpt lat="44.49358" lon="8.4209333"><ele>378.8</ele><time>2026-03-26T13:20:23.939Z</time></trkpt><trkpt lat="44.4935733" lon="8.42103"><ele>380.0</ele><time>2026-03-26T13:20:24.938Z</time></trkpt><trkpt lat="44.4935867" lon="8.42121"><ele>380.0</ele><time>2026-03-26T13:20:26.939Z</time></trkpt><trkpt lat="44.4936033" lon="8.4212983"><ele>380.0</ele><time>2026-03-26T13:20:27.938Z</time></trkpt><trkpt lat="44.493615" lon="8.4213867"><ele>380.0</ele><time>2026-03-26T13:20:28.939Z</time></trkpt><trkpt lat="44.4936217" lon="8.4215517"><ele>380.0</ele><time>2026-03-26T13:20:30.938Z</time></trkpt><trkpt lat="44.493605" lon="8.421685"><ele>380.0</ele><time>2026-03-26T13:20:32.938Z</time></trkpt><trkpt lat="44.4935417" lon="8.42184"><ele>380.6666666666667</ele><time>2026-03-26T13:20:34.939Z</time></trkpt><trkpt lat="44.4935" lon="8.421925"><ele>381.33333333333337</ele><time>2026-03-26T13:20:35.938Z</time></trkpt><trkpt lat="44.4934567" lon="8.42199"><ele>382.0</ele><time>2026-03-26T13:20:36.938Z</time></trkpt><trkpt lat="44.4934" lon="8.4220517"><ele>382.6666666666667</ele><time>2026-03-26T13:20:37.938Z</time></trkpt><trkpt lat="44.4932967" lon="8.4221833"><ele>383.3333333333333</ele><time>2026-03-26T13:20:39.939Z</time></trkpt><trkpt lat="44.493235" lon="8.4222583"><ele>384.0</ele><time>2026-03-26T13:20:40.939Z</time></trkpt><trkpt lat="44.493175" lon="8.4223333"><ele>384.8333333333333</ele><time>2026-03-26T13:20:41.938Z</time></trkpt><trkpt lat="44.49313" lon="8.4224067"><ele>385.66666666666663</ele><time>2026-03-26T13:20:42.939Z</time></trkpt><trkpt lat="44.493085" lon="8.42247"><ele>386.5</ele><time>2026-03-26T13:20:43.939Z</time></trkpt><trkpt lat="44.49301" lon="8.422565"><ele>387.3333333333333</ele><time>2026-03-26T13:20:45.939Z</time></trkpt><trkpt lat="44.492935" lon="8.4226583"><ele>388.16666666666663</ele><time>2026-03-26T13:20:47.938Z</time></trkpt><trkpt lat="44.4928833" lon="8.4227817"><ele>389.0</ele><time>2026-03-26T13:20:49.939Z</time></trkpt><trkpt lat="44.4928583" lon="8.422885"><ele>391.8333333333333</ele><time>2026-03-26T13:20:51.939Z</time></trkpt><trkpt lat="44.4928167" lon="8.4230117"><ele>394.66666666666663</ele><time>2026-03-26T13:20:53.938Z</time></trkpt><trkpt lat="44.4927933" lon="8.423165"><ele>397.5</ele><time>2026-03-26T13:20:55.938Z</time></trkpt><trkpt lat="44.4927933" lon="8.4232533"><ele>400.33333333333337</ele><time>2026-03-26T13:20:56.938Z</time></trkpt><trkpt lat="44.4928083" lon="8.4233417"><ele>403.1666666666667</ele><time>2026-03-26T13:20:57.938Z</time></trkpt><trkpt lat="44.4927917" lon="8.4234833"><ele>406.0</ele><time>2026-03-26T13:20:59.938Z</time></trkpt><trkpt lat="44.4926933" lon="8.42356"><ele>406.00000000000006</ele><time>2026-03-26T13:21:01.938Z</time></trkpt><trkpt lat="44.4926317" lon="8.423605"><ele>406.0</ele><time>2026-03-26T13:21:02.938Z</time></trkpt><trkpt lat="44.4925783" lon="8.4236617"><ele>406.0</ele><time>2026-03-26T13:21:03.938Z</time></trkpt><trkpt lat="44.4924917" lon="8.423785"><ele>406.0</ele><time>2026-03-26T13:21:05.939Z</time></trkpt><trkpt lat="44.4924583" lon="8.4238667"><ele>406.00000000000006</ele><time>2026-03-26T13:21:06.938Z</time></trkpt><trkpt lat="44.4924233" lon="8.4239467"><ele>406.0</ele><time>2026-03-26T13:21:07.938Z</time></trkpt><trkpt lat="44.49238" lon="8.424025"><ele>406.00000000000006</ele><time>2026-03-26T13:21:08.939Z</time></trkpt><trkpt lat="44.4923417" lon="8.4241"><ele>406.0</ele><time>2026-03-26T13:21:09.938Z</time></trkpt><trkpt lat="44.4923067" lon="8.4241833"><ele>406.0</ele><time>2026-03-26T13:21:10.939Z</time></trkpt><trkpt lat="44.4922767" lon="8.4242833"><ele>406.0</ele><time>2026-03-26T13:21:11.938Z</time></trkpt><trkpt lat="44.49225" lon="8.4244117"><ele>406.00000000000006</ele><time>2026-03-26T13:21:12.939Z</time></trkpt><trkpt lat="44.492205" lon="8.424545"><ele>406.0</ele><time>2026-03-26T13:21:13.938Z</time></trkpt><trkpt lat="44.4921517" lon="8.4246867"><ele>405.0</ele><time>2026-03-26T13:21:14.938Z</time></trkpt><trkpt lat="44.4920917" lon="8.4248333"><ele>404.0</ele><time>2026-03-26T13:21:15.938Z</time></trkpt><trkpt lat="44.4920517" lon="8.42499"><ele>403.0</ele><time>2026-03-26T13:21:16.938Z</time></trkpt><trkpt lat="44.4920267" lon="8.42515"><ele>402.0</ele><time>2026-03-26T13:21:17.939Z</time></trkpt><trkpt lat="44.492005" lon="8.42529"><ele>404.0</ele><time>2026-03-26T13:21:18.938Z</time></trkpt><trkpt lat="44.4919667" lon="8.4254033"><ele>406.0</ele><time>2026-03-26T13:21:19.938Z</time></trkpt><trkpt lat="44.4919217" lon="8.42551"><ele>408.0</ele><time>2026-03-26T13:21:20.938Z</time></trkpt><trkpt lat="44.4918583" lon="8.4256117"><ele>410.0</ele><time>2026-03-26T13:21:21.939Z</time></trkpt><trkpt lat="44.4917667" lon="8.42571"><ele>412.0</ele><time>2026-03-26T13:21:22.939Z</time></trkpt><trkpt lat="44.4916633" lon="8.4257933"><ele>412.0</ele><time>2026-03-26T13:21:23.939Z</time></trkpt><trkpt lat="44.49157" lon="8.4258467"><ele>412.0</ele><time>2026-03-26T13:21:24.939Z</time></trkpt><trkpt lat="44.491485" lon="8.4259067"><ele>412.0</ele><time>2026-03-26T13:21:25.938Z</time></trkpt><trkpt lat="44.4914117" lon="8.4259817"><ele>412.0</ele><time>2026-03-26T13:21:26.938Z</time></trkpt><trkpt lat="44.4913283" lon="8.4260533"><ele>412.0</ele><time>2026-03-26T13:21:27.939Z</time></trkpt><trkpt lat="44.4912533" lon="8.4261133"><ele>413.0</ele><time>2026-03-26T13:21:28.938Z</time></trkpt><trkpt lat="44.4912" lon="8.4261633"><ele>414.0</ele><time>2026-03-26T13:21:29.938Z</time></trkpt><trkpt lat="44.49114" lon="8.42631"><ele>415.0</ele><time>2026-03-26T13:21:31.939Z</time></trkpt><trkpt lat="44.4911017" lon="8.4264233"><ele>416.0</ele><time>2026-03-26T13:21:33.939Z</time></trkpt><trkpt lat="44.4910717" lon="8.42658"><ele>417.0</ele><time>2026-03-26T13:21:35.939Z</time></trkpt><trkpt lat="44.4911" lon="8.426705"><ele>418.0</ele><time>2026-03-26T13:21:37.938Z</time></trkpt><trkpt lat="44.4911917" lon="8.4267583"><ele>419.0</ele><time>2026-03-26T13:21:39.939Z</time></trkpt><trkpt lat="44.4912617" lon="8.426785"><ele>420.0</ele><time>2026-03-26T13:21:40.939Z</time></trkpt><trkpt lat="44.4913317" lon="8.4268233"><ele>421.0</ele><time>2026-03-26T13:21:41.939Z</time></trkpt><trkpt lat="44.4913883" lon="8.4268717"><ele>422.0</ele><time>2026-03-26T13:21:42.939Z</time></trkpt><trkpt lat="44.49143" lon="8.4270333"><ele>423.0</ele><time>2026-03-26T13:21:44.938Z</time></trkpt><trkpt lat="44.4914333" lon="8.42714"><ele>423.0</ele><time>2026-03-26T13:21:45.938Z</time></trkpt><trkpt lat="44.4914217" lon="8.42724"><ele>423.0</ele><time>2026-03-26T13:21:46.938Z</time></trkpt><trkpt lat="44.4914017" lon="8.4273367"><ele>423.0</ele><time>2026-03-26T13:21:47.939Z</time></trkpt><trkpt lat="44.4913883" lon="8.427435"><ele>423.0</ele><time>2026-03-26T13:21:48.938Z</time></trkpt><trkpt lat="44.4913817" lon="8.427535"><ele>423.0</ele><time>2026-03-26T13:21:49.938Z</time></trkpt><trkpt lat="44.49141" lon="8.42767"><ele>423.0</ele><time>2026-03-26T13:21:51.939Z</time></trkpt><trkpt lat="44.4915067" lon="8.4277517"><ele>423.0</ele><time>2026-03-26T13:21:53.938Z</time></trkpt><trkpt lat="44.491605" lon="8.4278267"><ele>423.0</ele><time>2026-03-26T13:21:55.938Z</time></trkpt><trkpt lat="44.4916567" lon="8.4279"><ele>423.0</ele><time>2026-03-26T13:21:57.938Z</time></trkpt><trkpt lat="44.4917233" lon="8.427945"><ele>423.0</ele><time>2026-03-26T13:21:59.939Z</time></trkpt><trkpt lat="44.4917933" lon="8.4280267"><ele>423.0</ele><time>2026-03-26T13:22:01.939Z</time></trkpt><trkpt lat="44.4918217" lon="8.4281317"><ele>423.0</ele><time>2026-03-26T13:22:03.939Z</time></trkpt><trkpt lat="44.49179" lon="8.428265"><ele>425.79999999999995</ele><time>2026-03-26T13:22:05.939Z</time></trkpt><trkpt lat="44.491695" lon="8.4283583"><ele>428.6</ele><time>2026-03-26T13:22:07.938Z</time></trkpt><trkpt lat="44.4916483" lon="8.4284283"><ele>431.40000000000003</ele><time>2026-03-26T13:22:09.938Z</time></trkpt><trkpt lat="44.4917367" lon="8.4285283"><ele>434.20000000000005</ele><time>2026-03-26T13:22:19.939Z</time></trkpt><trkpt lat="44.4918267" lon="8.4286167"><ele>437.0</ele><time>2026-03-26T13:22:21.938Z</time></trkpt><trkpt lat="44.4918817" lon="8.4286733"><ele>436.99999999999994</ele><time>2026-03-26T13:22:22.938Z</time></trkpt><trkpt lat="44.4919367" lon="8.42873"><ele>437.0</ele><time>2026-03-26T13:22:23.939Z</time></trkpt><trkpt lat="44.491995" lon="8.42879"><ele>437.0</ele><time>2026-03-26T13:22:24.938Z</time></trkpt><trkpt lat="44.492055" lon="8.428845"><ele>437.0</ele><time>2026-03-26T13:22:25.939Z</time></trkpt><trkpt lat="44.4921033" lon="8.42891"><ele>436.99999999999994</ele><time>2026-03-26T13:22:26.938Z</time></trkpt><trkpt lat="44.492155" lon="8.42898"><ele>437.0</ele><time>2026-03-26T13:22:27.938Z</time></trkpt><trkpt lat="44.4922633" lon="8.4290883"><ele>438.16666666666663</ele><time>2026-03-26T13:22:29.938Z</time></trkpt><trkpt lat="44.4923317" lon="8.4291467"><ele>439.3333333333333</ele><time>2026-03-26T13:22:30.939Z</time></trkpt><trkpt lat="44.4924017" lon="8.4292167"><ele>440.5</ele><time>2026-03-26T13:22:31.939Z</time></trkpt><trkpt lat="44.4924667" lon="8.42929"><ele>441.66666666666663</ele><time>2026-03-26T13:22:32.938Z</time></trkpt><trkpt lat="44.49253" lon="8.4293567"><ele>442.8333333333333</ele><time>2026-03-26T13:22:33.938Z</time></trkpt><trkpt lat="44.4926" lon="8.429425"><ele>444.0</ele><time>2026-03-26T13:22:34.939Z</time></trkpt><trkpt lat="44.492655" lon="8.4294983"><ele>444.0</ele><time>2026-03-26T13:22:35.939Z</time></trkpt><trkpt lat="44.4927067" lon="8.4295617"><ele>444.0</ele><time>2026-03-26T13:22:36.938Z</time></trkpt><trkpt lat="44.4927683" lon="8.4296867"><ele>444.0</ele><time>2026-03-26T13:22:38.938Z</time></trkpt><trkpt lat="44.492775" lon="8.4297983"><ele>444.0</ele><time>2026-03-26T13:22:39.938Z</time></trkpt><trkpt lat="44.4927767" lon="8.429915"><ele>444.0</ele><time>2026-03-26T13:22:40.938Z</time></trkpt><trkpt lat="44.4927983" lon="8.4300217"><ele>444.0</ele><time>2026-03-26T13:22:41.938Z</time></trkpt><trkpt lat="44.4928483" lon="8.430125"><ele>443.8333333333333</ele><time>2026-03-26T13:22:42.938Z</time></trkpt><trkpt lat="44.492905" lon="8.430215"><ele>443.66666666666663</ele><time>2026-03-26T13:22:43.939Z</time></trkpt><trkpt lat="44.49296" lon="8.430275"><ele>443.5</ele><time>2026-03-26T13:22:44.938Z</time></trkpt><trkpt lat="44.493035" lon="8.43032"><ele>443.3333333333333</ele><time>2026-03-26T13:22:45.938Z</time></trkpt><trkpt lat="44.4931033" lon="8.4303567"><ele>443.16666666666663</ele><time>2026-03-26T13:22:46.938Z</time></trkpt><trkpt lat="44.49315" lon="8.4304267"><ele>443.0</ele><time>2026-03-26T13:22:47.939Z</time></trkpt><trkpt lat="44.4931833" lon="8.4305167"><ele>441.49999999999994</ele><time>2026-03-26T13:22:48.938Z</time></trkpt><trkpt lat="44.4932067" lon="8.4306167"><ele>440.0</ele><time>2026-03-26T13:22:49.939Z</time></trkpt><trkpt lat="44.49323" lon="8.4307283"><ele>438.5</ele><time>2026-03-26T13:22:50.938Z</time></trkpt><trkpt lat="44.49326" lon="8.4308483"><ele>437.0</ele><time>2026-03-26T13:22:51.938Z</time></trkpt><trkpt lat="44.49329" lon="8.4309367"><ele>435.49999999999994</ele><time>2026-03-26T13:22:52.939Z</time></trkpt><trkpt lat="44.493315" lon="8.431025"><ele>434.0</ele><time>2026-03-26T13:22:53.938Z</time></trkpt><trkpt lat="44.493315" lon="8.4311167"><ele>433.99999999999994</ele><time>2026-03-26T13:22:54.939Z</time></trkpt><trkpt lat="44.4933083" lon="8.4312167"><ele>434.0</ele><time>2026-03-26T13:22:55.939Z</time></trkpt><trkpt lat="44.4933" lon="8.4313167"><ele>434.0</ele><time>2026-03-26T13:22:56.939Z</time></trkpt><trkpt lat="44.4932883" lon="8.4314683"><ele>434.0</ele><time>2026-03-26T13:22:58.938Z</time></trkpt><trkpt lat="44.4932667" lon="8.4316283"><ele>433.99999999999994</ele><time>2026-03-26T13:23:00.938Z</time></trkpt><trkpt lat="44.4932483" lon="8.4317217"><ele>434.0</ele><time>2026-03-26T13:23:01.938Z</time></trkpt><trkpt lat="44.4932283" lon="8.43182"><ele>433.79999999999995</ele><time>2026-03-26T13:23:02.939Z</time></trkpt><trkpt lat="44.4932067" lon="8.4319183"><ele>433.59999999999997</ele><time>2026-03-26T13:23:03.939Z</time></trkpt><trkpt lat="44.49318" lon="8.4320083"><ele>433.4</ele><time>2026-03-26T13:23:04.939Z</time></trkpt><trkpt lat="44.493155" lon="8.4321533"><ele>433.2</ele><time>2026-03-26T13:23:06.939Z</time></trkpt><trkpt lat="44.4931917" lon="8.432265"><ele>433.0</ele><time>2026-03-26T13:23:08.938Z</time></trkpt><trkpt lat="44.4932467" lon="8.432415"><ele>432.50000000000006</ele><time>2026-03-26T13:23:10.939Z</time></trkpt><trkpt lat="44.4933233" lon="8.4325133"><ele>432.0</ele><time>2026-03-26T13:23:12.938Z</time></trkpt><trkpt lat="44.4933817" lon="8.43255"><ele>431.5</ele><time>2026-03-26T13:23:13.939Z</time></trkpt><trkpt lat="44.4934533" lon="8.4325767"><ele>431.0</ele><time>2026-03-26T13:23:14.938Z</time></trkpt><trkpt lat="44.4935217" lon="8.4326267"><ele>430.50000000000006</ele><time>2026-03-26T13:23:15.938Z</time></trkpt><trkpt lat="44.493595" lon="8.4326833"><ele>430.0</ele><time>2026-03-26T13:23:16.938Z</time></trkpt><trkpt lat="44.4936717" lon="8.4327367"><ele>430.0</ele><time>2026-03-26T13:23:17.938Z</time></trkpt><trkpt lat="44.4937333" lon="8.4327967"><ele>430.0</ele><time>2026-03-26T13:23:18.939Z</time></trkpt><trkpt lat="44.49382" lon="8.4329367"><ele>430.0</ele><time>2026-03-26T13:23:20.938Z</time></trkpt><trkpt lat="44.4938767" lon="8.4330267"><ele>430.0</ele><time>2026-03-26T13:23:21.938Z</time></trkpt><trkpt lat="44.4939467" lon="8.433135"><ele>430.0</ele><time>2026-03-26T13:23:22.939Z</time></trkpt><trkpt lat="44.4940133" lon="8.4332683"><ele>428.6</ele><time>2026-03-26T13:23:23.938Z</time></trkpt><trkpt lat="44.4940817" lon="8.4334033"><ele>427.2</ele><time>2026-03-26T13:23:24.939Z</time></trkpt><trkpt lat="44.4941483" lon="8.4335067"><ele>425.79999999999995</ele><time>2026-03-26T13:23:25.938Z</time></trkpt><trkpt lat="44.4942017" lon="8.4335833"><ele>424.4</ele><time>2026-03-26T13:23:26.939Z</time></trkpt><trkpt lat="44.4942717" lon="8.4337017"><ele>423.0</ele><time>2026-03-26T13:23:28.938Z</time></trkpt><trkpt lat="44.4943017" lon="8.4338767"><ele>421.4</ele><time>2026-03-26T13:23:30.938Z</time></trkpt><trkpt lat="44.4943333" lon="8.4339633"><ele>419.79999999999995</ele><time>2026-03-26T13:23:31.939Z</time></trkpt><trkpt lat="44.4943733" lon="8.4340333"><ele>418.2</ele><time>2026-03-26T13:23:32.939Z</time></trkpt><trkpt lat="44.4944383" lon="8.4341917"><ele>416.6</ele><time>2026-03-26T13:23:34.939Z</time></trkpt><trkpt lat="44.4944733" lon="8.4342767"><ele>415.0</ele><time>2026-03-26T13:23:35.939Z</time></trkpt><trkpt lat="44.4945533" lon="8.4344267"><ele>415.00000000000006</ele><time>2026-03-26T13:23:37.938Z</time></trkpt><trkpt lat="44.4945983" lon="8.434495"><ele>415.0</ele><time>2026-03-26T13:23:38.939Z</time></trkpt><trkpt lat="44.4946467" lon="8.4345517"><ele>415.0</ele><time>2026-03-26T13:23:39.938Z</time></trkpt><trkpt lat="44.494755" lon="8.43461"><ele>415.0</ele><time>2026-03-26T13:23:41.938Z</time></trkpt><trkpt lat="44.49482" lon="8.434655"><ele>415.00000000000006</ele><time>2026-03-26T13:23:43.938Z</time></trkpt><trkpt lat="44.49489" lon="8.4346867"><ele>415.0</ele><time>2026-03-26T13:23:46.938Z</time></trkpt><trkpt lat="44.4949967" lon="8.4347417"><ele>415.00000000000006</ele><time>2026-03-26T13:23:48.939Z</time></trkpt><trkpt lat="44.495065" lon="8.4347833"><ele>415.0</ele><time>2026-03-26T13:23:49.938Z</time></trkpt><trkpt lat="44.4951333" lon="8.43484"><ele>415.0</ele><time>2026-03-26T13:23:50.939Z</time></trkpt><trkpt lat="44.495195" lon="8.434925"><ele>415.0</ele><time>2026-03-26T13:23:51.938Z</time></trkpt><trkpt lat="44.49524" lon="8.43501"><ele>415.00000000000006</ele><time>2026-03-26T13:23:52.939Z</time></trkpt><trkpt lat="44.4952767" lon="8.4351"><ele>415.0</ele><time>2026-03-26T13:23:53.938Z</time></trkpt><trkpt lat="44.4953233" lon="8.435195"><ele>415.0</ele><time>2026-03-26T13:23:54.938Z</time></trkpt><trkpt lat="44.495375" lon="8.4353"><ele>415.0</ele><time>2026-03-26T13:23:55.939Z</time></trkpt><trkpt lat="44.495415" lon="8.4353883"><ele>415.0</ele><time>2026-03-26T13:23:56.939Z</time></trkpt><trkpt lat="44.49545" lon="8.435465"><ele>415.0</ele><time>2026-03-26T13:23:57.939Z</time></trkpt><trkpt lat="44.4954933" lon="8.4355417"><ele>415.0</ele><time>2026-03-26T13:23:58.938Z</time></trkpt><trkpt lat="44.4955367" lon="8.4356267"><ele>415.0</ele><time>2026-03-26T13:23:59.938Z</time></trkpt><trkpt lat="44.4955783" lon="8.4357133"><ele>415.0</ele><time>2026-03-26T13:24:00.939Z</time></trkpt><trkpt lat="44.4956233" lon="8.4357817"><ele>418.0</ele><time>2026-03-26T13:24:01.939Z</time></trkpt><trkpt lat="44.49572" lon="8.4358883"><ele>421.0</ele><time>2026-03-26T13:24:03.939Z</time></trkpt><trkpt lat="44.4957933" lon="8.4359267"><ele>424.0</ele><time>2026-03-26T13:24:04.939Z</time></trkpt><trkpt lat="44.495885" lon="8.43596"><ele>427.0</ele><time>2026-03-26T13:24:05.938Z</time></trkpt><trkpt lat="44.4959683" lon="8.4360067"><ele>430.0</ele><time>2026-03-26T13:24:06.938Z</time></trkpt><trkpt lat="44.496035" lon="8.4360583"><ele>430.00000000000006</ele><time>2026-03-26T13:24:07.938Z</time></trkpt><trkpt lat="44.49609" lon="8.4361217"><ele>430.0</ele><time>2026-03-26T13:24:08.939Z</time></trkpt><trkpt lat="44.496175" lon="8.4362333"><ele>430.0</ele><time>2026-03-26T13:24:10.938Z</time></trkpt><trkpt lat="44.496275" lon="8.4362967"><ele>430.0</ele><time>2026-03-26T13:24:12.939Z</time></trkpt><trkpt lat="44.4963467" lon="8.43628"><ele>430.00000000000006</ele><time>2026-03-26T13:24:13.939Z</time></trkpt><trkpt lat="44.4964233" lon="8.4362583"><ele>430.0</ele><time>2026-03-26T13:24:14.938Z</time></trkpt><trkpt lat="44.4965" lon="8.4362483"><ele>430.0</ele><time>2026-03-26T13:24:15.939Z</time></trkpt><trkpt lat="44.4965733" lon="8.436255"><ele>430.0</ele><time>2026-03-26T13:24:16.939Z</time></trkpt><trkpt lat="44.49665" lon="8.4362933"><ele>430.0</ele><time>2026-03-26T13:24:17.938Z</time></trkpt><trkpt lat="44.4967383" lon="8.436355"><ele>430.0</ele><time>2026-03-26T13:24:18.938Z</time></trkpt><trkpt lat="44.4968383" lon="8.4364267"><ele>430.0</ele><time>2026-03-26T13:24:19.938Z</time></trkpt><trkpt lat="44.4969367" lon="8.4365033"><ele>429.6</ele><time>2026-03-26T13:24:20.938Z</time></trkpt><trkpt lat="44.4970483" lon="8.4366067"><ele>429.2</ele><time>2026-03-26T13:24:21.938Z</time></trkpt><trkpt lat="44.4971583" lon="8.4367083"><ele>428.79999999999995</ele><time>2026-03-26T13:24:22.938Z</time></trkpt><trkpt lat="44.4972367" lon="8.4367767"><ele>428.4</ele><time>2026-03-26T13:24:23.938Z</time></trkpt><trkpt lat="44.4973033" lon="8.4368633"><ele>428.0</ele><time>2026-03-26T13:24:24.939Z</time></trkpt><trkpt lat="44.4973733" lon="8.4369483"><ele>428.0</ele><time>2026-03-26T13:24:25.938Z</time></trkpt><trkpt lat="44.4974567" lon="8.4370567"><ele>427.99999999999994</ele><time>2026-03-26T13:24:26.939Z</time></trkpt><trkpt lat="44.49755" lon="8.4371567"><ele>427.99999999999994</ele><time>2026-03-26T13:24:27.938Z</time></trkpt><trkpt lat="44.4976283" lon="8.4372617"><ele>428.0</ele><time>2026-03-26T13:24:28.938Z</time></trkpt><trkpt lat="44.4976933" lon="8.4373683"><ele>428.0</ele><time>2026-03-26T13:24:29.938Z</time></trkpt><trkpt lat="44.49776" lon="8.4374767"><ele>428.16666666666663</ele><time>2026-03-26T13:24:30.939Z</time></trkpt><trkpt lat="44.497825" lon="8.437595"><ele>428.3333333333333</ele><time>2026-03-26T13:24:31.938Z</time></trkpt><trkpt lat="44.4978817" lon="8.4376967"><ele>428.5</ele><time>2026-03-26T13:24:32.939Z</time></trkpt><trkpt lat="44.4979233" lon="8.4377983"><ele>428.66666666666663</ele><time>2026-03-26T13:24:33.938Z</time></trkpt><trkpt lat="44.4979483" lon="8.4379033"><ele>428.8333333333333</ele><time>2026-03-26T13:24:34.939Z</time></trkpt><trkpt lat="44.4979533" lon="8.438"><ele>429.0</ele><time>2026-03-26T13:24:35.939Z</time></trkpt><trkpt lat="44.4979733" lon="8.4380933"><ele>429.8333333333333</ele><time>2026-03-26T13:24:36.938Z</time></trkpt><trkpt lat="44.4980067" lon="8.4382617"><ele>430.66666666666663</ele><time>2026-03-26T13:24:38.939Z</time></trkpt><trkpt lat="44.4980233" lon="8.438355"><ele>431.5</ele><time>2026-03-26T13:24:39.939Z</time></trkpt><trkpt lat="44.4980367" lon="8.4384417"><ele>432.3333333333333</ele><time>2026-03-26T13:24:40.939Z</time></trkpt><trkpt lat="44.4980383" lon="8.4385517"><ele>433.16666666666663</ele><time>2026-03-26T13:24:41.938Z</time></trkpt><trkpt lat="44.4980317" lon="8.4386583"><ele>434.0</ele><time>2026-03-26T13:24:42.939Z</time></trkpt><trkpt lat="44.4980217" lon="8.4387533"><ele>435.0</ele><time>2026-03-26T13:24:43.938Z</time></trkpt><trkpt lat="44.4980183" lon="8.4389133"><ele>436.0</ele><time>2026-03-26T13:24:45.939Z</time></trkpt><trkpt lat="44.4980583" lon="8.439065"><ele>437.0</ele><time>2026-03-26T13:24:47.939Z</time></trkpt><trkpt lat="44.4981117" lon="8.4392"><ele>438.0</ele><time>2026-03-26T13:24:49.938Z</time></trkpt><trkpt lat="44.4982267" lon="8.4392433"><ele>438.0</ele><time>2026-03-26T13:24:51.938Z</time></trkpt><trkpt lat="44.498305" lon="8.4392533"><ele>437.99999999999994</ele><time>2026-03-26T13:24:52.938Z</time></trkpt><trkpt lat="44.4984217" lon="8.4392567"><ele>437.99999999999994</ele><time>2026-03-26T13:24:54.939Z</time></trkpt><trkpt lat="44.49851" lon="8.4392267"><ele>438.0</ele><time>2026-03-26T13:24:56.938Z</time></trkpt><trkpt lat="44.4985733" lon="8.4391333"><ele>438.0</ele><time>2026-03-26T13:24:58.939Z</time></trkpt><trkpt lat="44.4986433" lon="8.4390233"><ele>438.0</ele><time>2026-03-26T13:25:00.938Z</time></trkpt><trkpt lat="44.4987067" lon="8.4389283"><ele>438.0</ele><time>2026-03-26T13:25:02.939Z</time></trkpt><trkpt lat="44.49874" lon="8.438835"><ele>438.0</ele><time>2026-03-26T13:25:04.938Z</time></trkpt><trkpt lat="44.4987917" lon="8.43877"><ele>438.0</ele><time>2026-03-26T13:25:06.938Z</time></trkpt><trkpt lat="44.49887" lon="8.4386917"><ele>438.0</ele><time>2026-03-26T13:25:08.939Z</time></trkpt><trkpt lat="44.49894" lon="8.4386367"><ele>438.0</ele><time>2026-03-26T13:25:10.938Z</time></trkpt><trkpt lat="44.4990217" lon="8.438575"><ele>433.6666666666667</ele><time>2026-03-26T13:25:12.938Z</time></trkpt><trkpt lat="44.4990983" lon="8.4385517"><ele>429.33333333333337</ele><time>2026-03-26T13:25:14.939Z</time></trkpt><trkpt lat="44.4991617" lon="8.4385367"><ele>425.0</ele><time>2026-03-26T13:25:15.939Z</time></trkpt><trkpt lat="44.4992733" lon="8.4385117"><ele>420.6666666666667</ele><time>2026-03-26T13:25:17.939Z</time></trkpt><trkpt lat="44.4993867" lon="8.4384867"><ele>416.33333333333337</ele><time>2026-03-26T13:25:19.939Z</time></trkpt><trkpt lat="44.4994483" lon="8.4384567"><ele>412.0</ele><time>2026-03-26T13:25:20.939Z</time></trkpt><trkpt lat="44.4995667" lon="8.4384267"><ele>409.6</ele><time>2026-03-26T13:25:22.938Z</time></trkpt><trkpt lat="44.4996617" lon="8.4383933"><ele>407.20000000000005</ele><time>2026-03-26T13:25:24.938Z</time></trkpt><trkpt lat="44.4997533" lon="8.4382817"><ele>404.8</ele><time>2026-03-26T13:25:26.939Z</time></trkpt><trkpt lat="44.4998083" lon="8.4381917"><ele>402.4</ele><time>2026-03-26T13:25:27.939Z</time></trkpt><trkpt lat="44.4998683" lon="8.4381117"><ele>400.0</ele><time>2026-03-26T13:25:28.938Z</time></trkpt><trkpt lat="44.4999267" lon="8.4380583"><ele>400.0</ele><time>2026-03-26T13:25:29.939Z</time></trkpt><trkpt lat="44.4999833" lon="8.4380017"><ele>400.0</ele><time>2026-03-26T13:25:30.939Z</time></trkpt><trkpt lat="44.5000383" lon="8.4379567"><ele>400.0</ele><time>2026-03-26T13:25:31.939Z</time></trkpt><trkpt lat="44.500145" lon="8.4378933"><ele>400.0</ele><time>2026-03-26T13:25:33.938Z</time></trkpt><trkpt lat="44.50025" lon="8.437845"><ele>400.0</ele><time>2026-03-26T13:25:35.939Z</time></trkpt><trkpt lat="44.5003433" lon="8.437845"><ele>398.0</ele><time>2026-03-26T13:25:37.939Z</time></trkpt><trkpt lat="44.5004417" lon="8.43791"><ele>396.0</ele><time>2026-03-26T13:25:39.938Z</time></trkpt><trkpt lat="44.5005183" lon="8.4380183"><ele>394.0</ele><time>2026-03-26T13:25:41.938Z</time></trkpt><trkpt lat="44.500535" lon="8.4381683"><ele>392.0</ele><time>2026-03-26T13:25:43.939Z</time></trkpt><trkpt lat="44.5005267" lon="8.4382667"><ele>390.0</ele><time>2026-03-26T13:25:44.939Z</time></trkpt><trkpt lat="44.5005183" lon="8.4383683"><ele>390.0</ele><time>2026-03-26T13:25:45.938Z</time></trkpt><trkpt lat="44.5005117" lon="8.4384783"><ele>390.0</ele><time>2026-03-26T13:25:46.938Z</time></trkpt><trkpt lat="44.500525" lon="8.4385767"><ele>390.0</ele><time>2026-03-26T13:25:47.938Z</time></trkpt><trkpt lat="44.5005517" lon="8.4386733"><ele>390.0</ele><time>2026-03-26T13:25:48.938Z</time></trkpt><trkpt lat="44.500585" lon="8.43876"><ele>390.0</ele><time>2026-03-26T13:25:49.939Z</time></trkpt><trkpt lat="44.5006167" lon="8.438905"><ele>390.0</ele><time>2026-03-26T13:25:51.939Z</time></trkpt><trkpt lat="44.5006233" lon="8.4389983"><ele>390.1428571428571</ele><time>2026-03-26T13:25:52.938Z</time></trkpt><trkpt lat="44.5006317" lon="8.4390867"><ele>390.2857142857143</ele><time>2026-03-26T13:25:53.938Z</time></trkpt><trkpt lat="44.5006567" lon="8.4391683"><ele>390.42857142857144</ele><time>2026-03-26T13:25:54.938Z</time></trkpt><trkpt lat="44.50068" lon="8.4392533"><ele>390.57142857142856</ele><time>2026-03-26T13:25:55.938Z</time></trkpt><trkpt lat="44.5007017" lon="8.4393417"><ele>390.7142857142857</ele><time>2026-03-26T13:25:56.939Z</time></trkpt><trkpt lat="44.50071" lon="8.439435"><ele>390.85714285714283</ele><time>2026-03-26T13:25:57.938Z</time></trkpt><trkpt lat="44.5007017" lon="8.43953"><ele>391.0</ele><time>2026-03-26T13:25:58.939Z</time></trkpt><trkpt lat="44.5006633" lon="8.4396883"><ele>392.1666666666667</ele><time>2026-03-26T13:26:00.939Z</time></trkpt><trkpt lat="44.500635" lon="8.4398083"><ele>393.33333333333337</ele><time>2026-03-26T13:26:02.938Z</time></trkpt><trkpt lat="44.50069" lon="8.4399167"><ele>394.5</ele><time>2026-03-26T13:26:04.938Z</time></trkpt><trkpt lat="44.5007467" lon="8.43998"><ele>395.66666666666663</ele><time>2026-03-26T13:26:05.938Z</time></trkpt><trkpt lat="44.5008" lon="8.4400683"><ele>396.8333333333333</ele><time>2026-03-26T13:26:06.938Z</time></trkpt><trkpt lat="44.5008567" lon="8.440175"><ele>398.0</ele><time>2026-03-26T13:26:07.938Z</time></trkpt><trkpt lat="44.5009133" lon="8.4402883"><ele>398.0</ele><time>2026-03-26T13:26:08.938Z</time></trkpt><trkpt lat="44.5009767" lon="8.4403917"><ele>398.0</ele><time>2026-03-26T13:26:09.938Z</time></trkpt><trkpt lat="44.5010467" lon="8.4404767"><ele>398.0</ele><time>2026-03-26T13:26:10.938Z</time></trkpt><trkpt lat="44.5011167" lon="8.4405717"><ele>398.0</ele><time>2026-03-26T13:26:11.939Z</time></trkpt><trkpt lat="44.5011667" lon="8.4406583"><ele>398.0</ele><time>2026-03-26T13:26:12.938Z</time></trkpt><trkpt lat="44.501245" lon="8.4406983"><ele>399.49999999999994</ele><time>2026-03-26T13:26:14.938Z</time></trkpt><trkpt lat="44.50136" lon="8.440665"><ele>401.0</ele><time>2026-03-26T13:26:16.938Z</time></trkpt><trkpt lat="44.5014317" lon="8.4406417"><ele>402.5</ele><time>2026-03-26T13:26:17.938Z</time></trkpt><trkpt lat="44.5015117" lon="8.4406233"><ele>404.0</ele><time>2026-03-26T13:26:18.938Z</time></trkpt><trkpt lat="44.5016" lon="8.4405967"><ele>405.49999999999994</ele><time>2026-03-26T13:26:19.939Z</time></trkpt><trkpt lat="44.5016717" lon="8.4405667"><ele>407.0</ele><time>2026-03-26T13:26:20.938Z</time></trkpt><trkpt lat="44.5017417" lon="8.440555"><ele>406.99999999999994</ele><time>2026-03-26T13:26:21.939Z</time></trkpt><trkpt lat="44.5018067" lon="8.44058"><ele>407.0</ele><time>2026-03-26T13:26:22.939Z</time></trkpt><trkpt lat="44.5018733" lon="8.440615"><ele>407.0</ele><time>2026-03-26T13:26:23.938Z</time></trkpt><trkpt lat="44.501945" lon="8.440655"><ele>407.0</ele><time>2026-03-26T13:26:24.938Z</time></trkpt><trkpt lat="44.5020317" lon="8.440695"><ele>406.99999999999994</ele><time>2026-03-26T13:26:25.938Z</time></trkpt><trkpt lat="44.5021133" lon="8.44073"><ele>407.0</ele><time>2026-03-26T13:26:26.938Z</time></trkpt><trkpt lat="44.5022083" lon="8.44077"><ele>406.8333333333333</ele><time>2026-03-26T13:26:27.939Z</time></trkpt><trkpt lat="44.5023067" lon="8.44083"><ele>406.66666666666663</ele><time>2026-03-26T13:26:28.939Z</time></trkpt><trkpt lat="44.5023933" lon="8.4409067"><ele>406.5</ele><time>2026-03-26T13:26:29.939Z</time></trkpt><trkpt lat="44.502455" lon="8.4409667"><ele>406.33333333333337</ele><time>2026-03-26T13:26:30.939Z</time></trkpt><trkpt lat="44.502515" lon="8.441"><ele>406.1666666666667</ele><time>2026-03-26T13:26:31.939Z</time></trkpt><trkpt lat="44.5026117" lon="8.4410017"><ele>406.0</ele><time>2026-03-26T13:26:33.938Z</time></trkpt><trkpt lat="44.5026983" lon="8.4410233"><ele>406.0</ele><time>2026-03-26T13:26:35.938Z</time></trkpt><trkpt lat="44.502805" lon="8.441065"><ele>406.0</ele><time>2026-03-26T13:26:37.939Z</time></trkpt><trkpt lat="44.502925" lon="8.4410967"><ele>406.0</ele><time>2026-03-26T13:26:39.938Z</time></trkpt><trkpt lat="44.50305" lon="8.4410733"><ele>406.0</ele><time>2026-03-26T13:26:41.938Z</time></trkpt><trkpt lat="44.503155" lon="8.441035"><ele>403.8</ele><time>2026-03-26T13:26:43.939Z</time></trkpt><trkpt lat="44.5032183" lon="8.4410133"><ele>401.6</ele><time>2026-03-26T13:26:44.938Z</time></trkpt><trkpt lat="44.5033283" lon="8.44097"><ele>399.4</ele><time>2026-03-26T13:26:46.939Z</time></trkpt><trkpt lat="44.5034183" lon="8.4409767"><ele>397.2</ele><time>2026-03-26T13:26:48.938Z</time></trkpt><trkpt lat="44.50352" lon="8.4409967"><ele>395.0</ele><time>2026-03-26T13:26:50.938Z</time></trkpt><trkpt lat="44.50364" lon="8.4410233"><ele>395.0</ele><time>2026-03-26T13:26:52.939Z</time></trkpt><trkpt lat="44.5037133" lon="8.4411467"><ele>395.0</ele><time>2026-03-26T13:26:54.939Z</time></trkpt><trkpt lat="44.5036883" lon="8.4412983"><ele>395.0</ele><time>2026-03-26T13:26:56.939Z</time></trkpt><trkpt lat="44.503665" lon="8.4413867"><ele>395.0</ele><time>2026-03-26T13:26:57.938Z</time></trkpt><trkpt lat="44.5036333" lon="8.4414983"><ele>395.0</ele><time>2026-03-26T13:26:58.939Z</time></trkpt><trkpt lat="44.5036083" lon="8.44161"><ele>395.16666666666663</ele><time>2026-03-26T13:26:59.939Z</time></trkpt><trkpt lat="44.5035867" lon="8.4417333"><ele>395.3333333333333</ele><time>2026-03-26T13:27:00.938Z</time></trkpt><trkpt lat="44.5035733" lon="8.4418517"><ele>395.5</ele><time>2026-03-26T13:27:01.938Z</time></trkpt><trkpt lat="44.503565" lon="8.4419533"><ele>395.66666666666663</ele><time>2026-03-26T13:27:02.939Z</time></trkpt><trkpt lat="44.5036417" lon="8.44199"><ele>395.8333333333333</ele><time>2026-03-26T13:27:05.938Z</time></trkpt><trkpt lat="44.503735" lon="8.441915"><ele>396.0</ele><time>2026-03-26T13:27:07.938Z</time></trkpt><trkpt lat="44.5038033" lon="8.4418633"><ele>394.6666666666667</ele><time>2026-03-26T13:27:08.939Z</time></trkpt><trkpt lat="44.50387" lon="8.4418233"><ele>393.33333333333337</ele><time>2026-03-26T13:27:09.938Z</time></trkpt><trkpt lat="44.5039533" lon="8.44181"><ele>392.0</ele><time>2026-03-26T13:27:10.939Z</time></trkpt><trkpt lat="44.504045" lon="8.4418083"><ele>390.6666666666667</ele><time>2026-03-26T13:27:11.938Z</time></trkpt><trkpt lat="44.5041267" lon="8.4418317"><ele>389.33333333333337</ele><time>2026-03-26T13:27:12.939Z</time></trkpt><trkpt lat="44.5042067" lon="8.441865"><ele>388.0</ele><time>2026-03-26T13:27:13.938Z</time></trkpt><trkpt lat="44.5042817" lon="8.4419033"><ele>388.00000000000006</ele><time>2026-03-26T13:27:14.938Z</time></trkpt><trkpt lat="44.5043533" lon="8.4419283"><ele>388.0</ele><time>2026-03-26T13:27:15.938Z</time></trkpt><trkpt lat="44.50443" lon="8.44195"><ele>388.0</ele><time>2026-03-26T13:27:16.939Z</time></trkpt><trkpt lat="44.5045167" lon="8.4419917"><ele>388.0</ele><time>2026-03-26T13:27:17.938Z</time></trkpt><trkpt lat="44.5045933" lon="8.4420617"><ele>388.00000000000006</ele><time>2026-03-26T13:27:18.938Z</time></trkpt><trkpt lat="44.50465" lon="8.4421433"><ele>388.0</ele><time>2026-03-26T13:27:19.939Z</time></trkpt><trkpt lat="44.5047017" lon="8.4422667"><ele>386.79999999999995</ele><time>2026-03-26T13:27:20.938Z</time></trkpt><trkpt lat="44.5047383" lon="8.442415"><ele>385.6</ele><time>2026-03-26T13:27:21.938Z</time></trkpt><trkpt lat="44.5047667" lon="8.4425483"><ele>384.4</ele><time>2026-03-26T13:27:22.938Z</time></trkpt><trkpt lat="44.5047883" lon="8.4426617"><ele>383.20000000000005</ele><time>2026-03-26T13:27:23.938Z</time></trkpt><trkpt lat="44.5048117" lon="8.4427583"><ele>382.0</ele><time>2026-03-26T13:27:24.938Z</time></trkpt><trkpt lat="44.5048617" lon="8.4429017"><ele>382.5</ele><time>2026-03-26T13:27:26.938Z</time></trkpt><trkpt lat="44.5049267" lon="8.4429967"><ele>383.0</ele><time>2026-03-26T13:31:33.939Z</time></trkpt><trkpt lat="44.5050217" lon="8.4430767"><ele>383.5</ele><time>2026-03-26T13:31:35.939Z</time></trkpt><trkpt lat="44.5050933" lon="8.4431117"><ele>384.0</ele><time>2026-03-26T13:31:36.939Z</time></trkpt><trkpt lat="44.5051683" lon="8.443155"><ele>384.50000000000006</ele><time>2026-03-26T13:31:37.938Z</time></trkpt><trkpt lat="44.505245" lon="8.4431867"><ele>385.0</ele><time>2026-03-26T13:31:38.939Z</time></trkpt><trkpt lat="44.505325" lon="8.44318"><ele>385.0</ele><time>2026-03-26T13:31:39.938Z</time></trkpt><trkpt lat="44.5053917" lon="8.4431567"><ele>385.0</ele><time>2026-03-26T13:31:40.939Z</time></trkpt><trkpt lat="44.505465" lon="8.4430917"><ele>385.0</ele><time>2026-03-26T13:31:41.938Z</time></trkpt><trkpt lat="44.50555" lon="8.443"><ele>385.0</ele><time>2026-03-26T13:31:42.938Z</time></trkpt><trkpt lat="44.5056367" lon="8.4429117"><ele>385.0</ele><time>2026-03-26T13:31:43.939Z</time></trkpt><trkpt lat="44.5057133" lon="8.4428467"><ele>382.0</ele><time>2026-03-26T13:31:44.939Z</time></trkpt><trkpt lat="44.5057767" lon="8.4428167"><ele>379.0</ele><time>2026-03-26T13:31:45.938Z</time></trkpt><trkpt lat="44.5058767" lon="8.442915"><ele>376.0</ele><time>2026-03-26T13:31:47.938Z</time></trkpt><trkpt lat="44.50594" lon="8.4430133"><ele>373.0</ele><time>2026-03-26T13:31:48.938Z</time></trkpt><trkpt lat="44.50601" lon="8.4431233"><ele>370.0</ele><time>2026-03-26T13:31:49.939Z</time></trkpt><trkpt lat="44.5060817" lon="8.4432517"><ele>370.0</ele><time>2026-03-26T13:31:50.939Z</time></trkpt><trkpt lat="44.5061583" lon="8.4433683"><ele>370.0</ele><time>2026-03-26T13:31:51.939Z</time></trkpt><trkpt lat="44.5062433" lon="8.4434667"><ele>370.0</ele><time>2026-03-26T13:31:52.939Z</time></trkpt><trkpt lat="44.5063067" lon="8.4435417"><ele>370.0</ele><time>2026-03-26T13:31:53.938Z</time></trkpt><trkpt lat="44.5063617" lon="8.443585"><ele>370.0</ele><time>2026-03-26T13:31:54.939Z</time></trkpt><trkpt lat="44.50646" lon="8.443575"><ele>369.0</ele><time>2026-03-26T13:31:56.939Z</time></trkpt><trkpt lat="44.506515" lon="8.4435083"><ele>368.0</ele><time>2026-03-26T13:31:57.939Z</time></trkpt><trkpt lat="44.50659" lon="8.4434"><ele>367.0</ele><time>2026-03-26T13:31:58.938Z</time></trkpt><trkpt lat="44.5066567" lon="8.4432933"><ele>366.0</ele><time>2026-03-26T13:31:59.939Z</time></trkpt><trkpt lat="44.5066967" lon="8.44318"><ele>365.0</ele><time>2026-03-26T13:32:00.938Z</time></trkpt><trkpt lat="44.50673" lon="8.443095"><ele>364.0</ele><time>2026-03-26T13:32:01.939Z</time></trkpt><trkpt lat="44.5067617" lon="8.4430017"><ele>364.5</ele><time>2026-03-26T13:32:02.938Z</time></trkpt><trkpt lat="44.5068183" lon="8.4429217"><ele>365.0</ele><time>2026-03-26T13:32:03.938Z</time></trkpt><trkpt lat="44.506875" lon="8.44282"><ele>365.5</ele><time>2026-03-26T13:32:04.938Z</time></trkpt><trkpt lat="44.5069267" lon="8.4427367"><ele>366.0</ele><time>2026-03-26T13:32:05.938Z</time></trkpt><trkpt lat="44.506985" lon="8.4426533"><ele>366.5</ele><time>2026-03-26T13:32:06.939Z</time></trkpt><trkpt lat="44.5070417" lon="8.4426033"><ele>367.0</ele><time>2026-03-26T13:32:07.939Z</time></trkpt><trkpt lat="44.5070983" lon="8.442545"><ele>367.0</ele><time>2026-03-26T13:32:08.939Z</time></trkpt><trkpt lat="44.5071617" lon="8.4424817"><ele>367.0</ele><time>2026-03-26T13:32:09.939Z</time></trkpt><trkpt lat="44.50722" lon="8.44242"><ele>367.0</ele><time>2026-03-26T13:32:10.938Z</time></trkpt><trkpt lat="44.5073117" lon="8.4423433"><ele>367.0</ele><time>2026-03-26T13:32:12.939Z</time></trkpt><trkpt lat="44.5073683" lon="8.44229"><ele>367.0</ele><time>2026-03-26T13:32:13.938Z</time></trkpt><trkpt lat="44.50743" lon="8.4422517"><ele>367.0</ele><time>2026-03-26T13:32:14.938Z</time></trkpt><trkpt lat="44.5074933" lon="8.44224"><ele>367.0</ele><time>2026-03-26T13:32:15.938Z</time></trkpt><trkpt lat="44.5075783" lon="8.4422233"><ele>367.0</ele><time>2026-03-26T13:32:16.938Z</time></trkpt><trkpt lat="44.5076667" lon="8.4422333"><ele>367.0</ele><time>2026-03-26T13:32:17.939Z</time></trkpt><trkpt lat="44.507755" lon="8.4422367"><ele>367.0</ele><time>2026-03-26T13:32:18.938Z</time></trkpt><trkpt lat="44.5078267" lon="8.442275"><ele>367.0</ele><time>2026-03-26T13:32:19.938Z</time></trkpt><trkpt lat="44.5078967" lon="8.442355"><ele>367.0</ele><time>2026-03-26T13:32:20.939Z</time></trkpt><trkpt lat="44.507975" lon="8.44245"><ele>366.0</ele><time>2026-03-26T13:32:21.938Z</time></trkpt><trkpt lat="44.508045" lon="8.44254"><ele>365.0</ele><time>2026-03-26T13:32:22.938Z</time></trkpt><trkpt lat="44.50808" lon="8.4426217"><ele>364.0</ele><time>2026-03-26T13:32:23.939Z</time></trkpt><trkpt lat="44.508095" lon="8.44279"><ele>363.0</ele><time>2026-03-26T13:32:25.939Z</time></trkpt><trkpt lat="44.508105" lon="8.4429033"><ele>362.0</ele><time>2026-03-26T13:32:26.938Z</time></trkpt><trkpt lat="44.508125" lon="8.4430167"><ele>361.0</ele><time>2026-03-26T13:32:27.939Z</time></trkpt><trkpt lat="44.5081467" lon="8.44311"><ele>361.0</ele><time>2026-03-26T13:32:28.939Z</time></trkpt><trkpt lat="44.5081717" lon="8.44327"><ele>361.0</ele><time>2026-03-26T13:32:30.938Z</time></trkpt><trkpt lat="44.5082233" lon="8.443425"><ele>361.0</ele><time>2026-03-26T13:32:32.938Z</time></trkpt><trkpt lat="44.508255" lon="8.443505"><ele>361.0</ele><time>2026-03-26T13:32:33.939Z</time></trkpt><trkpt lat="44.5083267" lon="8.4436017"><ele>361.0</ele><time>2026-03-26T13:32:35.939Z</time></trkpt><trkpt lat="44.50846" lon="8.443625"><ele>361.0</ele><time>2026-03-26T13:32:37.939Z</time></trkpt><trkpt lat="44.508525" lon="8.4436517"><ele>361.0</ele><time>2026-03-26T13:32:38.939Z</time></trkpt><trkpt lat="44.5086033" lon="8.4437183"><ele>361.0</ele><time>2026-03-26T13:32:40.939Z</time></trkpt><trkpt lat="44.5085617" lon="8.44379"><ele>361.0</ele><time>2026-03-26T13:32:42.938Z</time></trkpt><trkpt lat="44.5084417" lon="8.4439017"><ele>361.0</ele><time>2026-03-26T13:32:44.939Z</time></trkpt><trkpt lat="44.50837" lon="8.4439483"><ele>361.0</ele><time>2026-03-26T13:32:45.938Z</time></trkpt><trkpt lat="44.5083033" lon="8.4439667"><ele>360.5</ele><time>2026-03-26T13:32:46.938Z</time></trkpt><trkpt lat="44.5082317" lon="8.4439583"><ele>360.0</ele><time>2026-03-26T13:32:47.938Z</time></trkpt><trkpt lat="44.5081517" lon="8.443935"><ele>359.5</ele><time>2026-03-26T13:32:48.939Z</time></trkpt><trkpt lat="44.50807" lon="8.4439083"><ele>359.0</ele><time>2026-03-26T13:32:49.938Z</time></trkpt><trkpt lat="44.5080017" lon="8.4438917"><ele>358.5</ele><time>2026-03-26T13:32:50.938Z</time></trkpt><trkpt lat="44.5079117" lon="8.44381"><ele>358.0</ele><time>2026-03-26T13:32:52.939Z</time></trkpt><trkpt lat="44.50783" lon="8.44374"><ele>356.5</ele><time>2026-03-26T13:32:54.938Z</time></trkpt><trkpt lat="44.50781" lon="8.4438317"><ele>355.0</ele><time>2026-03-26T13:32:57.939Z</time></trkpt><trkpt lat="44.5079067" lon="8.4439633"><ele>353.5</ele><time>2026-03-26T13:32:59.939Z</time></trkpt><trkpt lat="44.5079583" lon="8.4440517"><ele>352.0</ele><time>2026-03-26T13:33:00.939Z</time></trkpt><trkpt lat="44.5080083" lon="8.4441383"><ele>350.5</ele><time>2026-03-26T13:33:01.938Z</time></trkpt><trkpt lat="44.50805" lon="8.444205"><ele>349.0</ele><time>2026-03-26T13:33:02.938Z</time></trkpt><trkpt lat="44.50813" lon="8.4443167"><ele>348.99999999999994</ele><time>2026-03-26T13:33:04.938Z</time></trkpt><trkpt lat="44.50819" lon="8.4443517"><ele>349.0</ele><time>2026-03-26T13:33:05.939Z</time></trkpt><trkpt lat="44.5082633" lon="8.444395"><ele>349.0</ele><time>2026-03-26T13:33:06.938Z</time></trkpt><trkpt lat="44.5083333" lon="8.4444383"><ele>349.0</ele><time>2026-03-26T13:33:07.938Z</time></trkpt><trkpt lat="44.5084083" lon="8.4444617"><ele>349.0</ele><time>2026-03-26T13:33:08.938Z</time></trkpt><trkpt lat="44.508475" lon="8.4444767"><ele>348.99999999999994</ele><time>2026-03-26T13:33:09.939Z</time></trkpt><trkpt lat="44.5085567" lon="8.4444633"><ele>349.0</ele><time>2026-03-26T13:33:11.938Z</time></trkpt><trkpt lat="44.5086383" lon="8.4444033"><ele>349.0</ele><time>2026-03-26T13:33:13.938Z</time></trkpt><trkpt lat="44.5087417" lon="8.4443433"><ele>349.0</ele><time>2026-03-26T13:33:15.939Z</time></trkpt><trkpt lat="44.5088233" lon="8.444325"><ele>349.0</ele><time>2026-03-26T13:33:17.938Z</time></trkpt><trkpt lat="44.50878" lon="8.4444617"><ele>349.0</ele><time>2026-03-26T13:33:21.938Z</time></trkpt><trkpt lat="44.5087033" lon="8.4445767"><ele>349.0</ele><time>2026-03-26T13:33:23.939Z</time></trkpt><trkpt lat="44.5086567" lon="8.4446383"><ele>345.79999999999995</ele><time>2026-03-26T13:33:24.939Z</time></trkpt><trkpt lat="44.5086083" lon="8.4447033"><ele>342.59999999999997</ele><time>2026-03-26T13:33:25.939Z</time></trkpt><trkpt lat="44.5085333" lon="8.4448517"><ele>339.4</ele><time>2026-03-26T13:33:27.939Z</time></trkpt><trkpt lat="44.5085017" lon="8.445"><ele>336.2</ele><time>2026-03-26T13:33:29.938Z</time></trkpt><trkpt lat="44.5084333" lon="8.445075"><ele>333.0</ele><time>2026-03-26T13:33:31.938Z</time></trkpt><trkpt lat="44.5083383" lon="8.4451083"><ele>333.0</ele><time>2026-03-26T13:33:32.938Z</time></trkpt><trkpt lat="44.50822" lon="8.4451667"><ele>333.0</ele><time>2026-03-26T13:33:33.939Z</time></trkpt><trkpt lat="44.5081017" lon="8.4452383"><ele>333.0</ele><time>2026-03-26T13:33:34.939Z</time></trkpt><trkpt lat="44.5079867" lon="8.4453283"><ele>333.0</ele><time>2026-03-26T13:33:35.939Z</time></trkpt><trkpt lat="44.5078917" lon="8.4454167"><ele>332.4</ele><time>2026-03-26T13:33:36.938Z</time></trkpt><trkpt lat="44.5078033" lon="8.4455017"><ele>331.79999999999995</ele><time>2026-03-26T13:33:37.938Z</time></trkpt><trkpt lat="44.5077167" lon="8.4455933"><ele>331.2</ele><time>2026-03-26T13:33:38.938Z</time></trkpt><trkpt lat="44.507635" lon="8.4456783"><ele>330.6</ele><time>2026-03-26T13:33:39.938Z</time></trkpt><trkpt lat="44.5075667" lon="8.4457517"><ele>330.0</ele><time>2026-03-26T13:33:40.938Z</time></trkpt><trkpt lat="44.507495" lon="8.4458133"><ele>330.0</ele><time>2026-03-26T13:33:41.938Z</time></trkpt><trkpt lat="44.5074367" lon="8.44587"><ele>330.0</ele><time>2026-03-26T13:33:42.939Z</time></trkpt><trkpt lat="44.5073617" lon="8.4459583"><ele>330.0</ele><time>2026-03-26T13:33:44.939Z</time></trkpt><trkpt lat="44.50739" lon="8.44608"><ele>330.0</ele><time>2026-03-26T13:33:46.939Z</time></trkpt><trkpt lat="44.5074317" lon="8.4461717"><ele>330.0</ele><time>2026-03-26T13:33:47.939Z</time></trkpt><trkpt lat="44.5074883" lon="8.446265"><ele>330.0</ele><time>2026-03-26T13:33:48.94Z</time></trkpt><trkpt lat="44.5075317" lon="8.4463683"><ele>329.5</ele><time>2026-03-26T13:33:49.94Z</time></trkpt><trkpt lat="44.5075783" lon="8.446475"><ele>329.0</ele><time>2026-03-26T13:33:50.939Z</time></trkpt><trkpt lat="44.5076067" lon="8.4465717"><ele>328.5</ele><time>2026-03-26T13:33:51.939Z</time></trkpt><trkpt lat="44.5076283" lon="8.4466733"><ele>328.0</ele><time>2026-03-26T13:33:52.939Z</time></trkpt><trkpt lat="44.50765" lon="8.4467633"><ele>327.5</ele><time>2026-03-26T13:33:53.939Z</time></trkpt><trkpt lat="44.5076683" lon="8.44685"><ele>327.0</ele><time>2026-03-26T13:33:54.94Z</time></trkpt><trkpt lat="44.507705" lon="8.447015"><ele>327.0</ele><time>2026-03-26T13:33:56.939Z</time></trkpt><trkpt lat="44.5077233" lon="8.4471183"><ele>327.0</ele><time>2026-03-26T13:33:57.94Z</time></trkpt><trkpt lat="44.5077367" lon="8.447235"><ele>327.0</ele><time>2026-03-26T13:33:58.939Z</time></trkpt><trkpt lat="44.5077533" lon="8.4473683"><ele>327.0</ele><time>2026-03-26T13:33:59.939Z</time></trkpt><trkpt lat="44.5077833" lon="8.447525"><ele>327.0</ele><time>2026-03-26T13:34:00.94Z</time></trkpt><trkpt lat="44.507825" lon="8.4477017"><ele>326.5</ele><time>2026-03-26T13:34:01.94Z</time></trkpt><trkpt lat="44.5078767" lon="8.4478683"><ele>326.0</ele><time>2026-03-26T13:34:02.939Z</time></trkpt><trkpt lat="44.507935" lon="8.4480167"><ele>325.5</ele><time>2026-03-26T13:34:03.94Z</time></trkpt><trkpt lat="44.508" lon="8.44815"><ele>325.0</ele><time>2026-03-26T13:34:04.939Z</time></trkpt><trkpt lat="44.5080567" lon="8.44828"><ele>325.0</ele><time>2026-03-26T13:34:05.94Z</time></trkpt><trkpt lat="44.5081083" lon="8.4484133"><ele>325.0</ele><time>2026-03-26T13:34:06.939Z</time></trkpt><trkpt lat="44.508165" lon="8.448555"><ele>325.0</ele><time>2026-03-26T13:34:07.939Z</time></trkpt><trkpt lat="44.5082117" lon="8.44868"><ele>325.0</ele><time>2026-03-26T13:34:08.94Z</time></trkpt><trkpt lat="44.5082617" lon="8.4488083"><ele>325.0</ele><time>2026-03-26T13:34:09.94Z</time></trkpt><trkpt lat="44.50831" lon="8.4489367"><ele>325.0</ele><time>2026-03-26T13:34:10.939Z</time></trkpt><trkpt lat="44.5083633" lon="8.4490367"><ele>325.0</ele><time>2026-03-26T13:34:11.939Z</time></trkpt><trkpt lat="44.508415" lon="8.44913"><ele>325.0</ele><time>2026-03-26T13:34:12.939Z</time></trkpt><trkpt lat="44.508475" lon="8.44921"><ele>325.0</ele><time>2026-03-26T13:34:13.939Z</time></trkpt><trkpt lat="44.5085417" lon="8.44929"><ele>325.0</ele><time>2026-03-26T13:34:14.939Z</time></trkpt><trkpt lat="44.5086133" lon="8.4493767"><ele>325.0</ele><time>2026-03-26T13:34:15.94Z</time></trkpt><trkpt lat="44.50869" lon="8.4494633"><ele>326.2</ele><time>2026-03-26T13:34:16.94Z</time></trkpt><trkpt lat="44.5087583" lon="8.4495683"><ele>327.4</ele><time>2026-03-26T13:34:17.939Z</time></trkpt><trkpt lat="44.50883" lon="8.44966"><ele>328.6</ele><time>2026-03-26T13:34:18.939Z</time></trkpt><trkpt lat="44.508895" lon="8.4497533"><ele>329.8</ele><time>2026-03-26T13:34:19.94Z</time></trkpt><trkpt lat="44.5089533" lon="8.44985"><ele>331.0</ele><time>2026-03-26T13:34:20.94Z</time></trkpt><trkpt lat="44.508995" lon="8.44994"><ele>331.0</ele><time>2026-03-26T13:34:21.94Z</time></trkpt><trkpt lat="44.50904" lon="8.450025"><ele>331.0</ele><time>2026-03-26T13:34:22.94Z</time></trkpt><trkpt lat="44.5090833" lon="8.450105"><ele>331.0</ele><time>2026-03-26T13:34:23.939Z</time></trkpt><trkpt lat="44.50915" lon="8.450225"><ele>331.0</ele><time>2026-03-26T13:34:25.94Z</time></trkpt><trkpt lat="44.5091983" lon="8.45029"><ele>331.0</ele><time>2026-03-26T13:34:27.94Z</time></trkpt><trkpt lat="44.5092717" lon="8.4503167"><ele>331.0</ele><time>2026-03-26T13:34:31.939Z</time></trkpt><trkpt lat="44.509355" lon="8.4503533"><ele>331.0</ele><time>2026-03-26T13:34:34.94Z</time></trkpt><trkpt lat="44.509425" lon="8.4504133"><ele>331.0</ele><time>2026-03-26T13:34:36.939Z</time></trkpt><trkpt lat="44.5095333" lon="8.4505383"><ele>331.0</ele><time>2026-03-26T13:34:57.94Z</time></trkpt><trkpt lat="44.5095917" lon="8.4506233"><ele>331.0</ele><time>2026-03-26T13:35:01.939Z</time></trkpt><trkpt lat="44.509675" lon="8.4506933"><ele>331.0</ele><time>2026-03-26T13:35:04.94Z</time></trkpt><trkpt lat="44.5097783" lon="8.4507967"><ele>331.6</ele><time>2026-03-26T13:35:06.94Z</time></trkpt><trkpt lat="44.509855" lon="8.4508767"><ele>332.20000000000005</ele><time>2026-03-26T13:35:07.94Z</time></trkpt><trkpt lat="44.50994" lon="8.4509683"><ele>332.79999999999995</ele><time>2026-03-26T13:35:08.94Z</time></trkpt><trkpt lat="44.5100117" lon="8.451075"><ele>333.4</ele><time>2026-03-26T13:35:09.94Z</time></trkpt><trkpt lat="44.51007" lon="8.4511783"><ele>334.0</ele><time>2026-03-26T13:35:10.94Z</time></trkpt><trkpt lat="44.5101417" lon="8.4512967"><ele>332.6</ele><time>2026-03-26T13:35:11.94Z</time></trkpt><trkpt lat="44.51021" lon="8.4514"><ele>331.2</ele><time>2026-03-26T13:35:12.94Z</time></trkpt><trkpt lat="44.510275" lon="8.4514933"><ele>329.8</ele><time>2026-03-26T13:35:13.939Z</time></trkpt><trkpt lat="44.51036" lon="8.45158"><ele>328.40000000000003</ele><time>2026-03-26T13:35:14.939Z</time></trkpt><trkpt lat="44.510465" lon="8.4516733"><ele>327.0</ele><time>2026-03-26T13:35:15.939Z</time></trkpt><trkpt lat="44.510555" lon="8.4517567"><ele>327.0</ele><time>2026-03-26T13:35:16.94Z</time></trkpt><trkpt lat="44.5106483" lon="8.4518283"><ele>327.0</ele><time>2026-03-26T13:35:17.94Z</time></trkpt><trkpt lat="44.5107283" lon="8.4518833"><ele>327.0</ele><time>2026-03-26T13:35:18.939Z</time></trkpt><trkpt lat="44.5108" lon="8.4519333"><ele>327.0</ele><time>2026-03-26T13:35:19.939Z</time></trkpt><trkpt lat="44.5108617" lon="8.4519717"><ele>327.0</ele><time>2026-03-26T13:35:20.939Z</time></trkpt><trkpt lat="44.5109633" lon="8.4519933"><ele>327.0</ele><time>2026-03-26T13:35:22.94Z</time></trkpt><trkpt lat="44.5110383" lon="8.4519983"><ele>327.0</ele><time>2026-03-26T13:35:24.939Z</time></trkpt><trkpt lat="44.51111" lon="8.45201"><ele>327.0</ele><time>2026-03-26T13:35:26.939Z</time></trkpt><trkpt lat="44.5112033" lon="8.4519967"><ele>327.0</ele><time>2026-03-26T13:35:28.94Z</time></trkpt><trkpt lat="44.511265" lon="8.4519717"><ele>327.0</ele><time>2026-03-26T13:35:29.939Z</time></trkpt><trkpt lat="44.5113333" lon="8.4519417"><ele>327.0</ele><time>2026-03-26T13:35:30.94Z</time></trkpt><trkpt lat="44.5113933" lon="8.451905"><ele>327.0</ele><time>2026-03-26T13:35:31.94Z</time></trkpt><trkpt lat="44.51151" lon="8.4518833"><ele>324.8333333333333</ele><time>2026-03-26T13:35:33.94Z</time></trkpt><trkpt lat="44.5115833" lon="8.4518883"><ele>322.6666666666667</ele><time>2026-03-26T13:35:34.94Z</time></trkpt><trkpt lat="44.5116933" lon="8.451965"><ele>320.5</ele><time>2026-03-26T13:35:36.939Z</time></trkpt><trkpt lat="44.5117383" lon="8.45203"><ele>318.33333333333337</ele><time>2026-03-26T13:35:37.939Z</time></trkpt><trkpt lat="44.51178" lon="8.4521083"><ele>316.1666666666667</ele><time>2026-03-26T13:35:38.94Z</time></trkpt><trkpt lat="44.51183" lon="8.4522583"><ele>314.0</ele><time>2026-03-26T13:35:40.939Z</time></trkpt><trkpt lat="44.5118133" lon="8.4524067"><ele>314.0</ele><time>2026-03-26T13:35:42.939Z</time></trkpt><trkpt lat="44.511795" lon="8.4525783"><ele>314.0</ele><time>2026-03-26T13:35:44.94Z</time></trkpt><trkpt lat="44.51179" lon="8.4527133"><ele>314.0</ele><time>2026-03-26T13:35:46.94Z</time></trkpt><trkpt lat="44.5117583" lon="8.452855"><ele>314.0</ele><time>2026-03-26T13:35:48.939Z</time></trkpt><trkpt lat="44.5117167" lon="8.4529883"><ele>314.0</ele><time>2026-03-26T13:35:50.94Z</time></trkpt><trkpt lat="44.5117433" lon="8.4530917"><ele>313.4</ele><time>2026-03-26T13:35:53.939Z</time></trkpt><trkpt lat="44.51181" lon="8.4531867"><ele>312.79999999999995</ele><time>2026-03-26T13:35:55.94Z</time></trkpt><trkpt lat="44.5118467" lon="8.453275"><ele>312.20000000000005</ele><time>2026-03-26T13:35:56.94Z</time></trkpt><trkpt lat="44.5118767" lon="8.4533933"><ele>311.6</ele><time>2026-03-26T13:35:57.94Z</time></trkpt><trkpt lat="44.5118933" lon="8.4535433"><ele>311.0</ele><time>2026-03-26T13:35:58.94Z</time></trkpt><trkpt lat="44.5119067" lon="8.4537033"><ele>309.6</ele><time>2026-03-26T13:35:59.94Z</time></trkpt><trkpt lat="44.51192" lon="8.4538667"><ele>308.20000000000005</ele><time>2026-03-26T13:36:00.939Z</time></trkpt><trkpt lat="44.5119367" lon="8.4540233"><ele>306.79999999999995</ele><time>2026-03-26T13:36:01.939Z</time></trkpt><trkpt lat="44.5119533" lon="8.4541733"><ele>305.4</ele><time>2026-03-26T13:36:02.939Z</time></trkpt><trkpt lat="44.5119783" lon="8.4543017"><ele>304.0</ele><time>2026-03-26T13:36:03.94Z</time></trkpt><trkpt lat="44.512" lon="8.4544267"><ele>304.0</ele><time>2026-03-26T13:36:04.94Z</time></trkpt><trkpt lat="44.512025" lon="8.45455"><ele>304.0</ele><time>2026-03-26T13:36:05.94Z</time></trkpt><trkpt lat="44.5120533" lon="8.4546733"><ele>304.0</ele><time>2026-03-26T13:36:06.94Z</time></trkpt><trkpt lat="44.5120683" lon="8.4547867"><ele>304.0</ele><time>2026-03-26T13:36:07.939Z</time></trkpt><trkpt lat="44.5120833" lon="8.4548833"><ele>304.0</ele><time>2026-03-26T13:36:08.939Z</time></trkpt><trkpt lat="44.5120783" lon="8.4549983"><ele>304.0</ele><time>2026-03-26T13:36:10.939Z</time></trkpt><trkpt lat="44.512035" lon="8.4550933"><ele>303.5</ele><time>2026-03-26T13:36:13.94Z</time></trkpt><trkpt lat="44.5120067" lon="8.45518"><ele>303.0</ele><time>2026-03-26T13:36:15.939Z</time></trkpt><trkpt lat="44.5119633" lon="8.455285"><ele>302.5</ele><time>2026-03-26T13:36:17.939Z</time></trkpt><trkpt lat="44.5119267" lon="8.4553733"><ele>302.0</ele><time>2026-03-26T13:36:19.939Z</time></trkpt><trkpt lat="44.51186" lon="8.4553933"><ele>301.5</ele><time>2026-03-26T13:36:21.94Z</time></trkpt><trkpt lat="44.511765" lon="8.4554067"><ele>301.0</ele><time>2026-03-26T13:36:23.939Z</time></trkpt><trkpt lat="44.5117" lon="8.4554733"><ele>301.0</ele><time>2026-03-26T13:36:25.94Z</time></trkpt><trkpt lat="44.5116367" lon="8.45555"><ele>301.0</ele><time>2026-03-26T13:36:27.94Z</time></trkpt><trkpt lat="44.5116333" lon="8.4556717"><ele>301.0</ele><time>2026-03-26T13:36:36.939Z</time></trkpt><trkpt lat="44.5117067" lon="8.455735"><ele>301.0</ele><time>2026-03-26T13:36:38.94Z</time></trkpt><trkpt lat="44.51183" lon="8.4558033"><ele>301.0</ele><time>2026-03-26T13:36:40.939Z</time></trkpt><trkpt lat="44.51195" lon="8.45587"><ele>301.0</ele><time>2026-03-26T13:36:42.939Z</time></trkpt><trkpt lat="44.5120333" lon="8.4559233"><ele>301.0</ele><time>2026-03-26T13:36:43.939Z</time></trkpt><trkpt lat="44.512125" lon="8.4559883"><ele>301.0</ele><time>2026-03-26T13:36:44.94Z</time></trkpt><trkpt lat="44.5122217" lon="8.4560583"><ele>301.0</ele><time>2026-03-26T13:36:45.939Z</time></trkpt><trkpt lat="44.5123033" lon="8.45613"><ele>301.0</ele><time>2026-03-26T13:36:46.939Z</time></trkpt><trkpt lat="44.5123617" lon="8.4562183"><ele>301.40000000000003</ele><time>2026-03-26T13:36:47.939Z</time></trkpt><trkpt lat="44.512415" lon="8.456325"><ele>301.8</ele><time>2026-03-26T13:36:48.939Z</time></trkpt><trkpt lat="44.512465" lon="8.456425"><ele>302.20000000000005</ele><time>2026-03-26T13:36:49.94Z</time></trkpt><trkpt lat="44.5125333" lon="8.4565167"><ele>302.6</ele><time>2026-03-26T13:36:50.94Z</time></trkpt><trkpt lat="44.5126267" lon="8.4566017"><ele>303.0</ele><time>2026-03-26T13:36:51.939Z</time></trkpt><trkpt lat="44.512695" lon="8.4566817"><ele>303.0</ele><time>2026-03-26T13:36:52.939Z</time></trkpt><trkpt lat="44.5127583" lon="8.4567733"><ele>303.0</ele><time>2026-03-26T13:36:53.939Z</time></trkpt><trkpt lat="44.5128183" lon="8.45687"><ele>303.0</ele><time>2026-03-26T13:36:54.94Z</time></trkpt><trkpt lat="44.5128717" lon="8.4569417"><ele>303.0</ele><time>2026-03-26T13:36:55.94Z</time></trkpt><trkpt lat="44.512935" lon="8.4569983"><ele>303.0</ele><time>2026-03-26T13:36:56.939Z</time></trkpt><trkpt lat="44.513" lon="8.4570433"><ele>303.0</ele><time>2026-03-26T13:36:57.94Z</time></trkpt><trkpt lat="44.5130533" lon="8.4571067"><ele>303.0</ele><time>2026-03-26T13:36:59.94Z</time></trkpt><trkpt lat="44.512995" lon="8.4571883"><ele>303.0</ele><time>2026-03-26T13:37:02.94Z</time></trkpt><trkpt lat="44.512935" lon="8.4572933"><ele>303.0</ele><time>2026-03-26T13:37:05.939Z</time></trkpt><trkpt lat="44.5129283" lon="8.4574617"><ele>303.0</ele><time>2026-03-26T13:37:07.939Z</time></trkpt><trkpt lat="44.5129383" lon="8.4575633"><ele>303.0</ele><time>2026-03-26T13:37:08.939Z</time></trkpt><trkpt lat="44.5129983" lon="8.4576967"><ele>303.0</ele><time>2026-03-26T13:37:10.939Z</time></trkpt><trkpt lat="44.5130917" lon="8.4578033"><ele>303.0</ele><time>2026-03-26T13:37:12.94Z</time></trkpt><trkpt lat="44.5131533" lon="8.4578533"><ele>303.0</ele><time>2026-03-26T13:37:13.939Z</time></trkpt><trkpt lat="44.51322" lon="8.457885"><ele>303.0</ele><time>2026-03-26T13:37:14.94Z</time></trkpt><trkpt lat="44.5132833" lon="8.4579317"><ele>303.0</ele><time>2026-03-26T13:37:15.939Z</time></trkpt><trkpt lat="44.51334" lon="8.457985"><ele>303.0</ele><time>2026-03-26T13:37:16.939Z</time></trkpt><trkpt lat="44.5133917" lon="8.4580433"><ele>307.6</ele><time>2026-03-26T13:37:17.939Z</time></trkpt><trkpt lat="44.51346" lon="8.4581533"><ele>312.20000000000005</ele><time>2026-03-26T13:37:19.94Z</time></trkpt><trkpt lat="44.5134967" lon="8.4582667"><ele>316.8</ele><time>2026-03-26T13:37:21.94Z</time></trkpt><trkpt lat="44.5134217" lon="8.4583167"><ele>321.40000000000003</ele><time>2026-03-26T13:37:23.939Z</time></trkpt><trkpt lat="44.5133367" lon="8.458315"><ele>326.0</ele><time>2026-03-26T13:37:24.939Z</time></trkpt><trkpt lat="44.5132417" lon="8.4583033"><ele>326.0</ele><time>2026-03-26T13:37:25.94Z</time></trkpt><trkpt lat="44.5131533" lon="8.45829"><ele>326.0</ele><time>2026-03-26T13:37:26.94Z</time></trkpt><trkpt lat="44.5130867" lon="8.4582767"><ele>326.0</ele><time>2026-03-26T13:37:27.939Z</time></trkpt><trkpt lat="44.51301" lon="8.45828"><ele>326.0</ele><time>2026-03-26T13:37:28.94Z</time></trkpt><trkpt lat="44.512935" lon="8.4582883"><ele>326.0</ele><time>2026-03-26T13:37:29.939Z</time></trkpt><trkpt lat="44.512865" lon="8.4583083"><ele>326.0</ele><time>2026-03-26T13:37:30.94Z</time></trkpt><trkpt lat="44.5127917" lon="8.458385"><ele>328.0</ele><time>2026-03-26T13:37:32.939Z</time></trkpt><trkpt lat="44.5128167" lon="8.4584867"><ele>330.0</ele><time>2026-03-26T13:37:34.94Z</time></trkpt><trkpt lat="44.5128617" lon="8.4585883"><ele>332.0</ele><time>2026-03-26T13:37:36.94Z</time></trkpt><trkpt lat="44.5129" lon="8.45866"><ele>334.0</ele><time>2026-03-26T13:37:37.94Z</time></trkpt><trkpt lat="44.51294" lon="8.458815"><ele>336.0</ele><time>2026-03-26T13:37:39.94Z</time></trkpt><trkpt lat="44.5129083" lon="8.4589233"><ele>338.0</ele><time>2026-03-26T13:37:41.939Z</time></trkpt><trkpt lat="44.5128117" lon="8.4588533"><ele>338.0</ele><time>2026-03-26T13:37:43.939Z</time></trkpt><trkpt lat="44.5127567" lon="8.4587833"><ele>338.0</ele><time>2026-03-26T13:37:44.939Z</time></trkpt><trkpt lat="44.5126983" lon="8.458735"><ele>338.0</ele><time>2026-03-26T13:37:45.939Z</time></trkpt><trkpt lat="44.5125983" lon="8.458755"><ele>338.0</ele><time>2026-03-26T13:37:47.94Z</time></trkpt><trkpt lat="44.512515" lon="8.4587217"><ele>338.0</ele><time>2026-03-26T13:37:49.939Z</time></trkpt><trkpt lat="44.5124183" lon="8.4586617"><ele>338.0</ele><time>2026-03-26T13:37:51.94Z</time></trkpt><trkpt lat="44.5123533" lon="8.4586267"><ele>338.0</ele><time>2026-03-26T13:37:53.939Z</time></trkpt><trkpt lat="44.512295" lon="8.4585883"><ele>338.0</ele><time>2026-03-26T13:37:55.939Z</time></trkpt><trkpt lat="44.5122217" lon="8.4585967"><ele>338.0</ele><time>2026-03-26T13:37:58.94Z</time></trkpt><trkpt lat="44.5121983" lon="8.4586983"><ele>338.0</ele><time>2026-03-26T13:38:01.94Z</time></trkpt><trkpt lat="44.5121467" lon="8.4588183"><ele>338.0</ele><time>2026-03-26T13:38:03.94Z</time></trkpt><trkpt lat="44.5121133" lon="8.4589567"><ele>338.0</ele><time>2026-03-26T13:38:05.939Z</time></trkpt><trkpt lat="44.5121783" lon="8.4590917"><ele>341.4</ele><time>2026-03-26T13:38:07.94Z</time></trkpt><trkpt lat="44.51221" lon="8.4592183"><ele>344.79999999999995</ele><time>2026-03-26T13:38:09.939Z</time></trkpt><trkpt lat="44.5121467" lon="8.4593183"><ele>348.2</ele><time>2026-03-26T13:38:11.939Z</time></trkpt><trkpt lat="44.5120867" lon="8.4593567"><ele>351.6</ele><time>2026-03-26T13:38:12.939Z</time></trkpt><trkpt lat="44.51198" lon="8.4594517"><ele>355.0</ele><time>2026-03-26T13:38:14.94Z</time></trkpt><trkpt lat="44.511905" lon="8.4595233"><ele>356.6</ele><time>2026-03-26T13:38:15.939Z</time></trkpt><trkpt lat="44.51183" lon="8.4595917"><ele>358.2</ele><time>2026-03-26T13:38:16.939Z</time></trkpt><trkpt lat="44.511735" lon="8.459645"><ele>359.79999999999995</ele><time>2026-03-26T13:38:17.94Z</time></trkpt><trkpt lat="44.51163" lon="8.4596867"><ele>361.4</ele><time>2026-03-26T13:38:18.939Z</time></trkpt><trkpt lat="44.5115467" lon="8.4597317"><ele>363.0</ele><time>2026-03-26T13:38:19.939Z</time></trkpt><trkpt lat="44.511485" lon="8.4597917"><ele>365.79999999999995</ele><time>2026-03-26T13:38:20.94Z</time></trkpt><trkpt lat="44.5114367" lon="8.45995"><ele>368.6</ele><time>2026-03-26T13:38:22.94Z</time></trkpt><trkpt lat="44.51146" lon="8.4600783"><ele>371.4</ele><time>2026-03-26T13:38:23.939Z</time></trkpt><trkpt lat="44.511485" lon="8.4602117"><ele>374.20000000000005</ele><time>2026-03-26T13:38:24.939Z</time></trkpt><trkpt lat="44.511495" lon="8.4603483"><ele>377.0</ele><time>2026-03-26T13:38:25.939Z</time></trkpt><trkpt lat="44.5114833" lon="8.460465"><ele>378.6666666666667</ele><time>2026-03-26T13:38:26.939Z</time></trkpt><trkpt lat="44.511465" lon="8.4605717"><ele>380.33333333333337</ele><time>2026-03-26T13:38:27.939Z</time></trkpt><trkpt lat="44.5114433" lon="8.4606567"><ele>382.0</ele><time>2026-03-26T13:38:28.939Z</time></trkpt><trkpt lat="44.51142" lon="8.460755"><ele>383.6666666666667</ele><time>2026-03-26T13:38:29.939Z</time></trkpt><trkpt lat="44.5114033" lon="8.4608717"><ele>385.3333333333333</ele><time>2026-03-26T13:38:30.94Z</time></trkpt><trkpt lat="44.5113867" lon="8.460975"><ele>387.0</ele><time>2026-03-26T13:38:31.94Z</time></trkpt><trkpt lat="44.5113567" lon="8.4610767"><ele>387.0</ele><time>2026-03-26T13:38:32.939Z</time></trkpt><trkpt lat="44.5113183" lon="8.4611767"><ele>387.0</ele><time>2026-03-26T13:38:33.939Z</time></trkpt><trkpt lat="44.51128" lon="8.4612667"><ele>387.0</ele><time>2026-03-26T13:38:34.939Z</time></trkpt><trkpt lat="44.51123" lon="8.46134"><ele>387.0</ele><time>2026-03-26T13:38:35.939Z</time></trkpt><trkpt lat="44.51117" lon="8.4614083"><ele>387.0</ele><time>2026-03-26T13:38:36.939Z</time></trkpt><trkpt lat="44.5111067" lon="8.4614633"><ele>387.0</ele><time>2026-03-26T13:38:37.939Z</time></trkpt><trkpt lat="44.5110317" lon="8.461495"><ele>389.8333333333333</ele><time>2026-03-26T13:38:38.94Z</time></trkpt><trkpt lat="44.5109667" lon="8.4615017"><ele>392.66666666666663</ele><time>2026-03-26T13:38:39.939Z</time></trkpt><trkpt lat="44.5109017" lon="8.46153"><ele>395.5</ele><time>2026-03-26T13:38:40.939Z</time></trkpt><trkpt lat="44.51083" lon="8.4615633"><ele>398.3333333333333</ele><time>2026-03-26T13:38:41.94Z</time></trkpt><trkpt lat="44.5107633" lon="8.46159"><ele>401.16666666666663</ele><time>2026-03-26T13:38:42.94Z</time></trkpt><trkpt lat="44.510695" lon="8.461605"><ele>404.0</ele><time>2026-03-26T13:38:43.939Z</time></trkpt><trkpt lat="44.5105767" lon="8.4615567"><ele>403.99999999999994</ele><time>2026-03-26T13:38:45.939Z</time></trkpt><trkpt lat="44.510515" lon="8.461485"><ele>404.0</ele><time>2026-03-26T13:38:46.94Z</time></trkpt><trkpt lat="44.5104667" lon="8.4613833"><ele>404.0</ele><time>2026-03-26T13:38:47.94Z</time></trkpt><trkpt lat="44.5104233" lon="8.4612767"><ele>404.0</ele><time>2026-03-26T13:38:48.939Z</time></trkpt><trkpt lat="44.5103717" lon="8.46117"><ele>403.99999999999994</ele><time>2026-03-26T13:38:49.94Z</time></trkpt><trkpt lat="44.5103083" lon="8.4610783"><ele>404.0</ele><time>2026-03-26T13:38:50.94Z</time></trkpt><trkpt lat="44.5102333" lon="8.461005"><ele>405.16666666666663</ele><time>2026-03-26T13:38:51.94Z</time></trkpt><trkpt lat="44.5101567" lon="8.4609467"><ele>406.3333333333333</ele><time>2026-03-26T13:38:52.94Z</time></trkpt><trkpt lat="44.5100817" lon="8.4609033"><ele>407.5</ele><time>2026-03-26T13:38:53.939Z</time></trkpt><trkpt lat="44.5100117" lon="8.4608783"><ele>408.66666666666663</ele><time>2026-03-26T13:38:54.939Z</time></trkpt><trkpt lat="44.5099167" lon="8.4607767"><ele>409.8333333333333</ele><time>2026-03-26T13:38:56.939Z</time></trkpt><trkpt lat="44.5098583" lon="8.4606817"><ele>411.0</ele><time>2026-03-26T13:38:58.94Z</time></trkpt><trkpt lat="44.5097467" lon="8.46059"><ele>411.0</ele><time>2026-03-26T13:39:00.939Z</time></trkpt><trkpt lat="44.5096733" lon="8.460545"><ele>411.0</ele><time>2026-03-26T13:39:01.939Z</time></trkpt><trkpt lat="44.5096083" lon="8.4605217"><ele>411.0</ele><time>2026-03-26T13:39:02.94Z</time></trkpt><trkpt lat="44.5095183" lon="8.4604967"><ele>411.0</ele><time>2026-03-26T13:39:04.939Z</time></trkpt><trkpt lat="44.50945" lon="8.4605533"><ele>411.0</ele><time>2026-03-26T13:39:08.939Z</time></trkpt><trkpt lat="44.509385" lon="8.4606367"><ele>411.0</ele><time>2026-03-26T13:39:11.939Z</time></trkpt><trkpt lat="44.5092983" lon="8.460735"><ele>414.5</ele><time>2026-03-26T13:39:13.939Z</time></trkpt><trkpt lat="44.5092317" lon="8.4607467"><ele>418.0</ele><time>2026-03-26T13:39:15.939Z</time></trkpt><trkpt lat="44.509185" lon="8.4606717"><ele>421.5</ele><time>2026-03-26T13:39:17.94Z</time></trkpt><trkpt lat="44.5091467" lon="8.46059"><ele>425.0</ele><time>2026-03-26T13:39:20.939Z</time></trkpt><trkpt lat="44.5090767" lon="8.4605417"><ele>428.5</ele><time>2026-03-26T13:39:22.939Z</time></trkpt><trkpt lat="44.50897" lon="8.460515"><ele>432.0</ele><time>2026-03-26T13:39:24.939Z</time></trkpt><trkpt lat="44.5088767" lon="8.4604517"><ele>430.20000000000005</ele><time>2026-03-26T13:39:26.939Z</time></trkpt><trkpt lat="44.508815" lon="8.4603683"><ele>428.40000000000003</ele><time>2026-03-26T13:39:28.94Z</time></trkpt><trkpt lat="44.5087533" lon="8.4603217"><ele>426.6</ele><time>2026-03-26T13:39:30.94Z</time></trkpt><trkpt lat="44.5086283" lon="8.4602283"><ele>424.79999999999995</ele><time>2026-03-26T13:39:32.939Z</time></trkpt><trkpt lat="44.5085367" lon="8.4601817"><ele>423.0</ele><time>2026-03-26T13:39:33.939Z</time></trkpt><trkpt lat="44.5084633" lon="8.4601317"><ele>426.8333333333333</ele><time>2026-03-26T13:39:34.94Z</time></trkpt><trkpt lat="44.5083917" lon="8.4600633"><ele>430.66666666666663</ele><time>2026-03-26T13:39:35.94Z</time></trkpt><trkpt lat="44.50833" lon="8.4599833"><ele>434.5</ele><time>2026-03-26T13:39:36.939Z</time></trkpt><trkpt lat="44.50827" lon="8.45989"><ele>438.3333333333333</ele><time>2026-03-26T13:39:37.939Z</time></trkpt><trkpt lat="44.50822" lon="8.4598017"><ele>442.16666666666663</ele><time>2026-03-26T13:39:38.939Z</time></trkpt><trkpt lat="44.5081783" lon="8.4597167"><ele>446.0</ele><time>2026-03-26T13:39:39.94Z</time></trkpt><trkpt lat="44.5081283" lon="8.4596333"><ele>446.49999999999994</ele><time>2026-03-26T13:39:40.939Z</time></trkpt><trkpt lat="44.5080633" lon="8.4595567"><ele>447.0</ele><time>2026-03-26T13:39:41.939Z</time></trkpt><trkpt lat="44.507985" lon="8.45949"><ele>447.5</ele><time>2026-03-26T13:39:42.939Z</time></trkpt><trkpt lat="44.507915" lon="8.45943"><ele>448.0</ele><time>2026-03-26T13:39:43.94Z</time></trkpt><trkpt lat="44.5078083" lon="8.4593833"><ele>448.49999999999994</ele><time>2026-03-26T13:39:45.94Z</time></trkpt><trkpt lat="44.507745" lon="8.4593617"><ele>449.0</ele><time>2026-03-26T13:39:46.939Z</time></trkpt><trkpt lat="44.507665" lon="8.4593267"><ele>448.99999999999994</ele><time>2026-03-26T13:39:47.939Z</time></trkpt><trkpt lat="44.5075733" lon="8.4592667"><ele>449.0</ele><time>2026-03-26T13:39:48.94Z</time></trkpt><trkpt lat="44.507495" lon="8.4591983"><ele>449.0</ele><time>2026-03-26T13:39:49.939Z</time></trkpt><trkpt lat="44.507435" lon="8.459125"><ele>449.0</ele><time>2026-03-26T13:39:50.939Z</time></trkpt><trkpt lat="44.507385" lon="8.4590617"><ele>448.99999999999994</ele><time>2026-03-26T13:39:51.939Z</time></trkpt><trkpt lat="44.507325" lon="8.4590317"><ele>449.0</ele><time>2026-03-26T13:39:53.939Z</time></trkpt><trkpt lat="44.50732" lon="8.4591333"><ele>448.99999999999994</ele><time>2026-03-26T13:40:00.939Z</time></trkpt><trkpt lat="44.5073017" lon="8.45923"><ele>449.0</ele><time>2026-03-26T13:40:03.939Z</time></trkpt><trkpt lat="44.507275" lon="8.4593233"><ele>449.0</ele><time>2026-03-26T13:40:05.94Z</time></trkpt><trkpt lat="44.5072383" lon="8.45942"><ele>449.0</ele><time>2026-03-26T13:40:07.94Z</time></trkpt><trkpt lat="44.507205" lon="8.4595367"><ele>448.99999999999994</ele><time>2026-03-26T13:40:09.939Z</time></trkpt><trkpt lat="44.5071817" lon="8.459685"><ele>449.0</ele><time>2026-03-26T13:40:11.939Z</time></trkpt><trkpt lat="44.507145" lon="8.4598267"><ele>448.99999999999994</ele><time>2026-03-26T13:40:13.939Z</time></trkpt><trkpt lat="44.50712" lon="8.4599083"><ele>449.0</ele><time>2026-03-26T13:40:14.939Z</time></trkpt><trkpt lat="44.5070733" lon="8.4600483"><ele>449.0</ele><time>2026-03-26T13:40:16.94Z</time></trkpt><trkpt lat="44.50705" lon="8.46019"><ele>449.0</ele><time>2026-03-26T13:40:18.94Z</time></trkpt><trkpt lat="44.50702" lon="8.46027"><ele>448.99999999999994</ele><time>2026-03-26T13:40:19.94Z</time></trkpt><trkpt lat="44.50698" lon="8.4603383"><ele>449.0</ele><time>2026-03-26T13:40:20.939Z</time></trkpt><trkpt lat="44.5069383" lon="8.4604067"><ele>451.57142857142856</ele><time>2026-03-26T13:40:21.939Z</time></trkpt><trkpt lat="44.5068933" lon="8.4604817"><ele>454.1428571428571</ele><time>2026-03-26T13:40:22.94Z</time></trkpt><trkpt lat="44.50685" lon="8.4605583"><ele>456.71428571428567</ele><time>2026-03-26T13:40:23.94Z</time></trkpt><trkpt lat="44.5067933" lon="8.4606383"><ele>459.2857142857142</ele><time>2026-03-26T13:40:24.939Z</time></trkpt><trkpt lat="44.5067283" lon="8.460705"><ele>461.85714285714283</ele><time>2026-03-26T13:40:25.94Z</time></trkpt><trkpt lat="44.5066733" lon="8.4607567"><ele>464.42857142857133</ele><time>2026-03-26T13:40:26.939Z</time></trkpt><trkpt lat="44.506615" lon="8.4608083"><ele>466.99999999999994</ele><time>2026-03-26T13:40:27.94Z</time></trkpt><trkpt lat="44.506535" lon="8.460935"><ele>467.0</ele><time>2026-03-26T13:40:29.939Z</time></trkpt><trkpt lat="44.5064933" lon="8.4610783"><ele>467.00000000000006</ele><time>2026-03-26T13:40:31.939Z</time></trkpt><trkpt lat="44.5064767" lon="8.4612167"><ele>467.00000000000006</ele><time>2026-03-26T13:40:33.94Z</time></trkpt><trkpt lat="44.5064733" lon="8.4613167"><ele>467.0</ele><time>2026-03-26T13:40:34.939Z</time></trkpt><trkpt lat="44.5064633" lon="8.461435"><ele>467.0</ele><time>2026-03-26T13:40:35.939Z</time></trkpt><trkpt lat="44.5064383" lon="8.4615583"><ele>466.99999999999994</ele><time>2026-03-26T13:40:36.94Z</time></trkpt><trkpt lat="44.50641" lon="8.4616883"><ele>467.0</ele><time>2026-03-26T13:40:37.939Z</time></trkpt><trkpt lat="44.506375" lon="8.4618117"><ele>467.0</ele><time>2026-03-26T13:40:38.939Z</time></trkpt><trkpt lat="44.5063367" lon="8.4619133"><ele>467.0</ele><time>2026-03-26T13:40:39.94Z</time></trkpt><trkpt lat="44.506295" lon="8.4620117"><ele>466.99999999999994</ele><time>2026-03-26T13:40:40.939Z</time></trkpt><trkpt lat="44.506265" lon="8.4620917"><ele>467.0</ele><time>2026-03-26T13:40:41.939Z</time></trkpt><trkpt lat="44.50624" lon="8.4621783"><ele>466.99999999999994</ele><time>2026-03-26T13:40:43.94Z</time></trkpt><trkpt lat="44.5062367" lon="8.462275"><ele>467.0</ele><time>2026-03-26T13:40:46.939Z</time></trkpt><trkpt lat="44.5062033" lon="8.46241"><ele>467.0</ele><time>2026-03-26T13:40:48.939Z</time></trkpt><trkpt lat="44.5061717" lon="8.4624883"><ele>467.0</ele><time>2026-03-26T13:40:49.939Z</time></trkpt><trkpt lat="44.50614" lon="8.4625783"><ele>466.99999999999994</ele><time>2026-03-26T13:40:50.939Z</time></trkpt><trkpt lat="44.50612" lon="8.4627533"><ele>467.0</ele><time>2026-03-26T13:40:52.939Z</time></trkpt><trkpt lat="44.5061217" lon="8.4628667"><ele>468.40000000000003</ele><time>2026-03-26T13:40:53.939Z</time></trkpt><trkpt lat="44.5061467" lon="8.4630083"><ele>469.80000000000007</ele><time>2026-03-26T13:40:54.94Z</time></trkpt><trkpt lat="44.5061533" lon="8.4631383"><ele>471.2</ele><time>2026-03-26T13:40:55.94Z</time></trkpt><trkpt lat="44.506145" lon="8.463275"><ele>472.6</ele><time>2026-03-26T13:40:56.939Z</time></trkpt><trkpt lat="44.5060967" lon="8.4633817"><ele>474.0</ele><time>2026-03-26T13:40:57.94Z</time></trkpt><trkpt lat="44.506035" lon="8.4634533"><ele>474.0</ele><time>2026-03-26T13:40:58.94Z</time></trkpt><trkpt lat="44.5059583" lon="8.4635117"><ele>474.0</ele><time>2026-03-26T13:40:59.94Z</time></trkpt><trkpt lat="44.5058717" lon="8.4635717"><ele>474.0</ele><time>2026-03-26T13:41:00.939Z</time></trkpt><trkpt lat="44.5057633" lon="8.4636267"><ele>474.0</ele><time>2026-03-26T13:41:01.939Z</time></trkpt><trkpt lat="44.5056383" lon="8.4636767"><ele>474.0</ele><time>2026-03-26T13:41:02.939Z</time></trkpt><trkpt lat="44.5055067" lon="8.46373"><ele>473.0</ele><time>2026-03-26T13:41:03.939Z</time></trkpt><trkpt lat="44.50539" lon="8.4637683"><ele>472.0</ele><time>2026-03-26T13:41:04.939Z</time></trkpt><trkpt lat="44.5052683" lon="8.46382"><ele>471.0</ele><time>2026-03-26T13:41:05.939Z</time></trkpt><trkpt lat="44.5051417" lon="8.4638883"><ele>470.0</ele><time>2026-03-26T13:41:06.939Z</time></trkpt><trkpt lat="44.5050283" lon="8.463975"><ele>470.0</ele><time>2026-03-26T13:41:07.94Z</time></trkpt><trkpt lat="44.5049067" lon="8.4640617"><ele>470.0</ele><time>2026-03-26T13:41:08.94Z</time></trkpt><trkpt lat="44.5047783" lon="8.4641417"><ele>470.0</ele><time>2026-03-26T13:41:09.94Z</time></trkpt><trkpt lat="44.504655" lon="8.4642083"><ele>470.0</ele><time>2026-03-26T13:41:10.939Z</time></trkpt><trkpt lat="44.50455" lon="8.4642683"><ele>470.16666666666663</ele><time>2026-03-26T13:41:11.939Z</time></trkpt><trkpt lat="44.5044617" lon="8.4643317"><ele>470.3333333333333</ele><time>2026-03-26T13:41:12.939Z</time></trkpt><trkpt lat="44.5044" lon="8.4644183"><ele>470.5</ele><time>2026-03-26T13:41:13.939Z</time></trkpt><trkpt lat="44.5043567" lon="8.4645217"><ele>470.66666666666663</ele><time>2026-03-26T13:41:14.94Z</time></trkpt><trkpt lat="44.504315" lon="8.4646233"><ele>470.8333333333333</ele><time>2026-03-26T13:41:15.939Z</time></trkpt><trkpt lat="44.50426" lon="8.4647083"><ele>471.0</ele><time>2026-03-26T13:41:16.939Z</time></trkpt><trkpt lat="44.5042" lon="8.464795"><ele>470.6666666666667</ele><time>2026-03-26T13:41:17.939Z</time></trkpt><trkpt lat="44.504125" lon="8.4649033"><ele>470.33333333333337</ele><time>2026-03-26T13:41:18.939Z</time></trkpt><trkpt lat="44.5040633" lon="8.4650017"><ele>470.0</ele><time>2026-03-26T13:41:19.94Z</time></trkpt><trkpt lat="44.5040067" lon="8.46506"><ele>469.6666666666667</ele><time>2026-03-26T13:41:20.939Z</time></trkpt><trkpt lat="44.50394" lon="8.4650983"><ele>469.33333333333337</ele><time>2026-03-26T13:41:21.939Z</time></trkpt><trkpt lat="44.503855" lon="8.4651333"><ele>469.0</ele><time>2026-03-26T13:41:22.94Z</time></trkpt><trkpt lat="44.5037567" lon="8.4651917"><ele>474.0</ele><time>2026-03-26T13:41:23.94Z</time></trkpt><trkpt lat="44.5036583" lon="8.4652583"><ele>479.0</ele><time>2026-03-26T13:41:24.939Z</time></trkpt><trkpt lat="44.5035983" lon="8.4653283"><ele>484.0</ele><time>2026-03-26T13:41:25.94Z</time></trkpt><trkpt lat="44.5035567" lon="8.4654067"><ele>489.0</ele><time>2026-03-26T13:41:26.94Z</time></trkpt><trkpt lat="44.5036033" lon="8.4655967"><ele>494.0</ele><time>2026-03-26T13:41:28.939Z</time></trkpt><trkpt lat="44.503645" lon="8.4657217"><ele>494.0</ele><time>2026-03-26T13:41:29.94Z</time></trkpt><trkpt lat="44.5036717" lon="8.4658667"><ele>494.0</ele><time>2026-03-26T13:41:30.939Z</time></trkpt><trkpt lat="44.5036833" lon="8.4660083"><ele>494.0</ele><time>2026-03-26T13:41:31.939Z</time></trkpt><trkpt lat="44.5036617" lon="8.4661183"><ele>494.0</ele><time>2026-03-26T13:41:32.939Z</time></trkpt><trkpt lat="44.5036317" lon="8.4662183"><ele>494.0</ele><time>2026-03-26T13:41:33.94Z</time></trkpt><trkpt lat="44.5035933" lon="8.4663433"><ele>492.79999999999995</ele><time>2026-03-26T13:41:34.939Z</time></trkpt><trkpt lat="44.503565" lon="8.466485"><ele>491.59999999999997</ele><time>2026-03-26T13:41:35.94Z</time></trkpt><trkpt lat="44.50356" lon="8.4666067"><ele>490.4</ele><time>2026-03-26T13:41:36.939Z</time></trkpt><trkpt lat="44.5035767" lon="8.4667517"><ele>489.2</ele><time>2026-03-26T13:41:37.939Z</time></trkpt><trkpt lat="44.5036133" lon="8.4669267"><ele>488.0</ele><time>2026-03-26T13:41:38.939Z</time></trkpt><trkpt lat="44.503635" lon="8.4671167"><ele>485.99999999999994</ele><time>2026-03-26T13:41:39.939Z</time></trkpt><trkpt lat="44.5036483" lon="8.467245"><ele>484.0</ele><time>2026-03-26T13:41:40.939Z</time></trkpt><trkpt lat="44.5036433" lon="8.467365"><ele>482.0</ele><time>2026-03-26T13:41:41.94Z</time></trkpt><trkpt lat="44.5036333" lon="8.46748"><ele>480.0</ele><time>2026-03-26T13:41:42.939Z</time></trkpt><trkpt lat="44.503625" lon="8.4675683"><ele>477.99999999999994</ele><time>2026-03-26T13:41:43.94Z</time></trkpt><trkpt lat="44.5035917" lon="8.4676617"><ele>476.0</ele><time>2026-03-26T13:41:46.939Z</time></trkpt><trkpt lat="44.5035117" lon="8.4677467"><ele>475.99999999999994</ele><time>2026-03-26T13:41:49.939Z</time></trkpt><trkpt lat="44.5034467" lon="8.4678017"><ele>476.0</ele><time>2026-03-26T13:41:51.939Z</time></trkpt><trkpt lat="44.50337" lon="8.467835"><ele>476.0</ele><time>2026-03-26T13:41:54.939Z</time></trkpt><trkpt lat="44.5033133" lon="8.4679267"><ele>476.0</ele><time>2026-03-26T13:41:58.939Z</time></trkpt><trkpt lat="44.5032683" lon="8.468"><ele>475.99999999999994</ele><time>2026-03-26T13:42:00.94Z</time></trkpt><trkpt lat="44.5032267" lon="8.4680883"><ele>476.0</ele><time>2026-03-26T13:42:02.939Z</time></trkpt><trkpt lat="44.5031833" lon="8.4682117"><ele>472.8</ele><time>2026-03-26T13:42:04.939Z</time></trkpt><trkpt lat="44.5031567" lon="8.468295"><ele>469.6</ele><time>2026-03-26T13:42:05.94Z</time></trkpt><trkpt lat="44.5031183" lon="8.4683933"><ele>466.4</ele><time>2026-03-26T13:42:06.939Z</time></trkpt><trkpt lat="44.50306" lon="8.4685117"><ele>463.2</ele><time>2026-03-26T13:42:07.939Z</time></trkpt><trkpt lat="44.5029833" lon="8.4686567"><ele>460.0</ele><time>2026-03-26T13:42:08.94Z</time></trkpt><trkpt lat="44.5028983" lon="8.4688067"><ele>455.5</ele><time>2026-03-26T13:42:09.94Z</time></trkpt><trkpt lat="44.5028083" lon="8.468955"><ele>451.0</ele><time>2026-03-26T13:42:10.939Z</time></trkpt><trkpt lat="44.5027333" lon="8.4690883"><ele>446.5</ele><time>2026-03-26T13:42:11.939Z</time></trkpt><trkpt lat="44.5026833" lon="8.4692217"><ele>442.0</ele><time>2026-03-26T13:42:12.939Z</time></trkpt><trkpt lat="44.5026633" lon="8.469355"><ele>442.0</ele><time>2026-03-26T13:42:13.939Z</time></trkpt><trkpt lat="44.50265" lon="8.4694767"><ele>442.00000000000006</ele><time>2026-03-26T13:42:14.939Z</time></trkpt><trkpt lat="44.50262" lon="8.4695783"><ele>442.00000000000006</ele><time>2026-03-26T13:42:15.939Z</time></trkpt><trkpt lat="44.5025583" lon="8.46966"><ele>442.0</ele><time>2026-03-26T13:42:16.939Z</time></trkpt><trkpt lat="44.5024883" lon="8.469745"><ele>442.0</ele><time>2026-03-26T13:42:17.94Z</time></trkpt><trkpt lat="44.5024167" lon="8.46987"><ele>441.5</ele><time>2026-03-26T13:42:18.94Z</time></trkpt><trkpt lat="44.5023517" lon="8.4700383"><ele>441.0</ele><time>2026-03-26T13:42:19.939Z</time></trkpt><trkpt lat="44.50229" lon="8.4702067"><ele>440.5</ele><time>2026-03-26T13:42:20.94Z</time></trkpt><trkpt lat="44.5022533" lon="8.4703583"><ele>440.0</ele><time>2026-03-26T13:42:21.94Z</time></trkpt><trkpt lat="44.5022017" lon="8.470505"><ele>439.0</ele><time>2026-03-26T13:42:22.939Z</time></trkpt><trkpt lat="44.502175" lon="8.4706517"><ele>438.0</ele><time>2026-03-26T13:42:23.939Z</time></trkpt><trkpt lat="44.50218" lon="8.4708067"><ele>437.0</ele><time>2026-03-26T13:42:24.939Z</time></trkpt><trkpt lat="44.5022" lon="8.47098"><ele>436.0</ele><time>2026-03-26T13:42:25.939Z</time></trkpt><trkpt lat="44.5022167" lon="8.4711533"><ele>435.6</ele><time>2026-03-26T13:42:26.939Z</time></trkpt><trkpt lat="44.502215" lon="8.471295"><ele>435.20000000000005</ele><time>2026-03-26T13:42:27.94Z</time></trkpt><trkpt lat="44.502175" lon="8.471405"><ele>434.79999999999995</ele><time>2026-03-26T13:42:28.939Z</time></trkpt><trkpt lat="44.5021183" lon="8.471485"><ele>434.4</ele><time>2026-03-26T13:42:29.939Z</time></trkpt><trkpt lat="44.50202" lon="8.4715667"><ele>434.0</ele><time>2026-03-26T13:42:30.939Z</time></trkpt><trkpt lat="44.501915" lon="8.47166"><ele>437.5</ele><time>2026-03-26T13:42:31.939Z</time></trkpt><trkpt lat="44.501795" lon="8.4717483"><ele>441.0</ele><time>2026-03-26T13:42:32.94Z</time></trkpt><trkpt lat="44.5016633" lon="8.47183"><ele>444.5</ele><time>2026-03-26T13:42:33.94Z</time></trkpt><trkpt lat="44.5015467" lon="8.4718983"><ele>448.0</ele><time>2026-03-26T13:42:34.94Z</time></trkpt><trkpt lat="44.5014567" lon="8.471915"><ele>448.0</ele><time>2026-03-26T13:42:35.94Z</time></trkpt><trkpt lat="44.5013667" lon="8.4719033"><ele>447.99999999999994</ele><time>2026-03-26T13:42:36.94Z</time></trkpt><trkpt lat="44.50127" lon="8.4719133"><ele>447.99999999999994</ele><time>2026-03-26T13:42:37.94Z</time></trkpt><trkpt lat="44.5011817" lon="8.4719567"><ele>448.0</ele><time>2026-03-26T13:42:38.939Z</time></trkpt><trkpt lat="44.5010867" lon="8.4720267"><ele>448.0</ele><time>2026-03-26T13:42:39.939Z</time></trkpt><trkpt lat="44.5009967" lon="8.4721417"><ele>450.75</ele><time>2026-03-26T13:42:40.94Z</time></trkpt><trkpt lat="44.50092" lon="8.4722567"><ele>453.5</ele><time>2026-03-26T13:42:41.939Z</time></trkpt><trkpt lat="44.500835" lon="8.4723833"><ele>456.25</ele><time>2026-03-26T13:42:42.939Z</time></trkpt><trkpt lat="44.5007467" lon="8.4724967"><ele>459.0</ele><time>2026-03-26T13:42:43.939Z</time></trkpt><trkpt lat="44.5006733" lon="8.472595"><ele>459.0</ele><time>2026-03-26T13:42:44.939Z</time></trkpt><trkpt lat="44.5006083" lon="8.4727"><ele>459.0</ele><time>2026-03-26T13:42:45.939Z</time></trkpt><trkpt lat="44.5005633" lon="8.4728217"><ele>459.0</ele><time>2026-03-26T13:42:46.939Z</time></trkpt><trkpt lat="44.5005217" lon="8.4729583"><ele>459.0</ele><time>2026-03-26T13:42:47.94Z</time></trkpt><trkpt lat="44.5004717" lon="8.4730883"><ele>459.0</ele><time>2026-03-26T13:42:48.94Z</time></trkpt><trkpt lat="44.5004283" lon="8.4732217"><ele>460.0</ele><time>2026-03-26T13:42:49.94Z</time></trkpt><trkpt lat="44.5003983" lon="8.47336"><ele>461.0</ele><time>2026-03-26T13:42:50.94Z</time></trkpt><trkpt lat="44.5003783" lon="8.473505"><ele>462.0</ele><time>2026-03-26T13:42:51.939Z</time></trkpt><trkpt lat="44.5003667" lon="8.473645"><ele>463.0</ele><time>2026-03-26T13:42:52.939Z</time></trkpt><trkpt lat="44.50034" lon="8.4737883"><ele>464.0</ele><time>2026-03-26T13:42:53.939Z</time></trkpt><trkpt lat="44.5002967" lon="8.4739133"><ele>465.2</ele><time>2026-03-26T13:42:54.939Z</time></trkpt><trkpt lat="44.50025" lon="8.4740233"><ele>466.4</ele><time>2026-03-26T13:42:55.939Z</time></trkpt><trkpt lat="44.50018" lon="8.4741283"><ele>467.6</ele><time>2026-03-26T13:42:56.94Z</time></trkpt><trkpt lat="44.5001033" lon="8.474225"><ele>468.8</ele><time>2026-03-26T13:42:57.939Z</time></trkpt><trkpt lat="44.50001" lon="8.474315"><ele>470.0</ele><time>2026-03-26T13:42:58.939Z</time></trkpt><trkpt lat="44.4999183" lon="8.47438"><ele>470.0</ele><time>2026-03-26T13:42:59.94Z</time></trkpt><trkpt lat="44.4998033" lon="8.4744267"><ele>470.0</ele><time>2026-03-26T13:43:00.939Z</time></trkpt><trkpt lat="44.4997133" lon="8.4744783"><ele>470.0</ele><time>2026-03-26T13:43:01.939Z</time></trkpt><trkpt lat="44.4996317" lon="8.47454"><ele>470.0</ele><time>2026-03-26T13:43:02.939Z</time></trkpt><trkpt lat="44.499545" lon="8.4746167"><ele>470.0</ele><time>2026-03-26T13:43:03.94Z</time></trkpt><trkpt lat="44.4994383" lon="8.474715"><ele>468.6</ele><time>2026-03-26T13:43:04.94Z</time></trkpt><trkpt lat="44.49934" lon="8.4748"><ele>467.2</ele><time>2026-03-26T13:43:05.94Z</time></trkpt><trkpt lat="44.4992117" lon="8.474895"><ele>465.79999999999995</ele><time>2026-03-26T13:43:06.939Z</time></trkpt><trkpt lat="44.499115" lon="8.4749667"><ele>464.4</ele><time>2026-03-26T13:43:07.94Z</time></trkpt><trkpt lat="44.4990467" lon="8.4750167"><ele>463.0</ele><time>2026-03-26T13:43:08.939Z</time></trkpt><trkpt lat="44.4989583" lon="8.4750767"><ele>463.00000000000006</ele><time>2026-03-26T13:43:10.94Z</time></trkpt><trkpt lat="44.4989" lon="8.4751467"><ele>463.0</ele><time>2026-03-26T13:43:14.94Z</time></trkpt><trkpt lat="44.4989683" lon="8.47524"><ele>463.0</ele><time>2026-03-26T13:43:17.94Z</time></trkpt><trkpt lat="44.4990433" lon="8.4752517"><ele>463.0</ele><time>2026-03-26T13:43:18.94Z</time></trkpt><trkpt lat="44.4991283" lon="8.475265"><ele>463.00000000000006</ele><time>2026-03-26T13:43:19.94Z</time></trkpt><trkpt lat="44.4992133" lon="8.475275"><ele>463.0</ele><time>2026-03-26T13:43:20.939Z</time></trkpt><trkpt lat="44.4992933" lon="8.47527"><ele>463.00000000000006</ele><time>2026-03-26T13:43:21.94Z</time></trkpt><trkpt lat="44.49937" lon="8.4752733"><ele>463.0</ele><time>2026-03-26T13:43:22.939Z</time></trkpt><trkpt lat="44.499441" lon="8.4753007"><ele>463.0</ele><time>2026-03-26T13:43:23.939Z</time></trkpt><trkpt lat="44.4995135" lon="8.4753469"><ele>463.0</ele><time>2026-03-26T13:43:24.939Z</time></trkpt><trkpt lat="44.49958" lon="8.4753777"><ele>463.00000000000006</ele><time>2026-03-26T13:43:25.939Z</time></trkpt><trkpt lat="44.4997141" lon="8.4753876"><ele>463.0</ele><time>2026-03-26T13:43:27.939Z</time></trkpt><trkpt lat="44.4997832" lon="8.475402"><ele>460.6666666666667</ele><time>2026-03-26T13:43:28.94Z</time></trkpt><trkpt lat="44.4998399" lon="8.4754614"><ele>458.33333333333337</ele><time>2026-03-26T13:43:29.939Z</time></trkpt><trkpt lat="44.499895" lon="8.475558"><ele>456.0</ele><time>2026-03-26T13:43:30.939Z</time></trkpt><trkpt lat="44.4999563" lon="8.4756555"><ele>453.66666666666663</ele><time>2026-03-26T13:43:31.939Z</time></trkpt><trkpt lat="44.5000148" lon="8.475748"><ele>451.3333333333333</ele><time>2026-03-26T13:43:32.94Z</time></trkpt><trkpt lat="44.5000599" lon="8.4758339"><ele>449.0</ele><time>2026-03-26T13:43:33.94Z</time></trkpt><trkpt lat="44.5000983" lon="8.4759101"><ele>449.0</ele><time>2026-03-26T13:43:34.939Z</time></trkpt><trkpt lat="44.500185" lon="8.4759763"><ele>449.0</ele><time>2026-03-26T13:43:36.939Z</time></trkpt><trkpt lat="44.5002967" lon="8.4759807"><ele>449.0</ele><time>2026-03-26T13:43:38.939Z</time></trkpt><trkpt lat="44.5004119" lon="8.4759557"><ele>449.0</ele><time>2026-03-26T13:43:40.94Z</time></trkpt><trkpt lat="44.5004768" lon="8.4759371"><ele>449.0</ele><time>2026-03-26T13:43:41.939Z</time></trkpt><trkpt lat="44.5005413" lon="8.4759283"><ele>447.79999999999995</ele><time>2026-03-26T13:43:42.939Z</time></trkpt><trkpt lat="44.5006393" lon="8.4759112"><ele>446.59999999999997</ele><time>2026-03-26T13:43:44.939Z</time></trkpt><trkpt lat="44.5007435" lon="8.4758526"><ele>445.4</ele><time>2026-03-26T13:43:46.939Z</time></trkpt><trkpt lat="44.5008307" lon="8.4758133"><ele>444.2</ele><time>2026-03-26T13:43:47.94Z</time></trkpt><trkpt lat="44.5009153" lon="8.4757844"><ele>443.0</ele><time>2026-03-26T13:43:48.94Z</time></trkpt><trkpt lat="44.5009968" lon="8.4757637"><ele>443.0</ele><time>2026-03-26T13:43:49.94Z</time></trkpt><trkpt lat="44.5010747" lon="8.4757457"><ele>443.0</ele><time>2026-03-26T13:43:50.939Z</time></trkpt><trkpt lat="44.5011396" lon="8.4757475"><ele>443.0</ele><time>2026-03-26T13:43:51.94Z</time></trkpt><trkpt lat="44.5012082" lon="8.4757619"><ele>443.0</ele><time>2026-03-26T13:43:52.94Z</time></trkpt><trkpt lat="44.5012769" lon="8.4757845"><ele>443.0</ele><time>2026-03-26T13:43:53.939Z</time></trkpt><trkpt lat="44.5013391" lon="8.4758079"><ele>443.0</ele><time>2026-03-26T13:43:54.94Z</time></trkpt><trkpt lat="44.5014222" lon="8.4758824"><ele>443.0</ele><time>2026-03-26T13:43:56.94Z</time></trkpt><trkpt lat="44.5014772" lon="8.4760018"><ele>439.79999999999995</ele><time>2026-03-26T13:43:58.939Z</time></trkpt><trkpt lat="44.5015242" lon="8.4761391"><ele>436.59999999999997</ele><time>2026-03-26T13:44:00.939Z</time></trkpt><trkpt lat="44.5015783" lon="8.476225"><ele>433.40000000000003</ele><time>2026-03-26T13:44:02.94Z</time></trkpt><trkpt lat="44.501666" lon="8.4762444"><ele>430.20000000000005</ele><time>2026-03-26T13:44:04.939Z</time></trkpt><trkpt lat="44.5017533" lon="8.4762376"><ele>427.0</ele><time>2026-03-26T13:44:06.94Z</time></trkpt><trkpt lat="44.5018886" lon="8.4761846"><ele>427.0</ele><time>2026-03-26T13:44:08.94Z</time></trkpt><trkpt lat="44.5019759" lon="8.4761647"><ele>427.00000000000006</ele><time>2026-03-26T13:44:09.94Z</time></trkpt><trkpt lat="44.5020679" lon="8.4761721"><ele>427.00000000000006</ele><time>2026-03-26T13:44:10.94Z</time></trkpt><trkpt lat="44.5021751" lon="8.4762001"><ele>427.0</ele><time>2026-03-26T13:44:11.94Z</time></trkpt><trkpt lat="44.5023095" lon="8.476255"><ele>427.0</ele><time>2026-03-26T13:44:12.94Z</time></trkpt><trkpt lat="44.5024431" lon="8.4763253"><ele>424.6</ele><time>2026-03-26T13:44:13.94Z</time></trkpt><trkpt lat="44.502541" lon="8.4763742"><ele>422.20000000000005</ele><time>2026-03-26T13:44:14.939Z</time></trkpt><trkpt lat="44.5026113" lon="8.4763785"><ele>419.8</ele><time>2026-03-26T13:44:15.939Z</time></trkpt><trkpt lat="44.5027245" lon="8.4763969"><ele>417.4</ele><time>2026-03-26T13:44:17.94Z</time></trkpt><trkpt lat="44.5028123" lon="8.4764705"><ele>415.0</ele><time>2026-03-26T13:44:19.939Z</time></trkpt><trkpt lat="44.5027902" lon="8.4763391"><ele>413.83333333333337</ele><time>2026-03-26T13:44:29.939Z</time></trkpt><trkpt lat="44.502749" lon="8.4762458"><ele>412.6666666666667</ele><time>2026-03-26T13:44:30.94Z</time></trkpt><trkpt lat="44.5026717" lon="8.4761402"><ele>411.5</ele><time>2026-03-26T13:44:32.94Z</time></trkpt><trkpt lat="44.5025637" lon="8.4761043"><ele>410.33333333333337</ele><time>2026-03-26T13:44:34.939Z</time></trkpt><trkpt lat="44.5024987" lon="8.4760754"><ele>409.1666666666667</ele><time>2026-03-26T13:44:35.939Z</time></trkpt><trkpt lat="44.5024309" lon="8.4760366"><ele>408.0</ele><time>2026-03-26T13:44:36.94Z</time></trkpt><trkpt lat="44.5023568" lon="8.475994"><ele>408.0</ele><time>2026-03-26T13:44:37.939Z</time></trkpt><trkpt lat="44.502284" lon="8.4759598"><ele>408.0</ele><time>2026-03-26T13:44:38.939Z</time></trkpt><trkpt lat="44.5022161" lon="8.4759228"><ele>408.0</ele><time>2026-03-26T13:44:39.94Z</time></trkpt><trkpt lat="44.5021247" lon="8.4758332"><ele>408.0</ele><time>2026-03-26T13:44:41.939Z</time></trkpt><trkpt lat="44.5021024" lon="8.4757447"><ele>408.0</ele><time>2026-03-26T13:44:43.939Z</time></trkpt><trkpt lat="44.5021289" lon="8.4756185"><ele>408.0</ele><time>2026-03-26T13:44:45.939Z</time></trkpt><trkpt lat="44.5021354" lon="8.4755175"><ele>410.1666666666667</ele><time>2026-03-26T13:44:46.939Z</time></trkpt><trkpt lat="44.5021275" lon="8.4754073"><ele>412.33333333333337</ele><time>2026-03-26T13:44:47.939Z</time></trkpt><trkpt lat="44.5021229" lon="8.4753097"><ele>414.5</ele><time>2026-03-26T13:44:48.94Z</time></trkpt><trkpt lat="44.5021021" lon="8.4751529"><ele>416.6666666666667</ele><time>2026-03-26T13:44:50.939Z</time></trkpt><trkpt lat="44.5020668" lon="8.4750788"><ele>418.83333333333337</ele><time>2026-03-26T13:44:51.94Z</time></trkpt><trkpt lat="44.5019895" lon="8.4749534"><ele>421.0</ele><time>2026-03-26T13:44:53.939Z</time></trkpt><trkpt lat="44.5019753" lon="8.4748022"><ele>421.0</ele><time>2026-03-26T13:44:55.939Z</time></trkpt><trkpt lat="44.5020176" lon="8.4746935"><ele>421.0</ele><time>2026-03-26T13:44:57.94Z</time></trkpt><trkpt lat="44.5020255" lon="8.4745962"><ele>421.0</ele><time>2026-03-26T13:44:59.94Z</time></trkpt><trkpt lat="44.5019517" lon="8.4744767"><ele>421.0</ele><time>2026-03-26T13:45:01.939Z</time></trkpt><trkpt lat="44.5018683" lon="8.4743783"><ele>421.0</ele><time>2026-03-26T13:45:03.94Z</time></trkpt><trkpt lat="44.501805" lon="8.4742967"><ele>420.20000000000005</ele><time>2026-03-26T13:45:05.939Z</time></trkpt><trkpt lat="44.5018583" lon="8.4742083"><ele>419.40000000000003</ele><time>2026-03-26T13:45:12.94Z</time></trkpt><trkpt lat="44.5019217" lon="8.4741733"><ele>418.6</ele><time>2026-03-26T13:45:14.939Z</time></trkpt><trkpt lat="44.50202" lon="8.474155"><ele>417.8</ele><time>2026-03-26T13:45:16.939Z</time></trkpt><trkpt lat="44.5020917" lon="8.474105"><ele>417.0</ele><time>2026-03-26T13:45:18.939Z</time></trkpt><trkpt lat="44.5021533" lon="8.4739367"><ele>414.40000000000003</ele><time>2026-03-26T13:45:20.94Z</time></trkpt><trkpt lat="44.5021983" lon="8.47384"><ele>411.8</ele><time>2026-03-26T13:45:21.94Z</time></trkpt><trkpt lat="44.50224" lon="8.4737583"><ele>409.2</ele><time>2026-03-26T13:45:22.94Z</time></trkpt><trkpt lat="44.50234" lon="8.4736567"><ele>406.6</ele><time>2026-03-26T13:45:24.939Z</time></trkpt><trkpt lat="44.50243" lon="8.4735717"><ele>404.0</ele><time>2026-03-26T13:45:26.94Z</time></trkpt><trkpt lat="44.5024817" lon="8.473465"><ele>404.0</ele><time>2026-03-26T13:45:28.94Z</time></trkpt><trkpt lat="44.50257" lon="8.47335"><ele>404.0</ele><time>2026-03-26T13:45:30.939Z</time></trkpt><trkpt lat="44.5026217" lon="8.4732983"><ele>404.0</ele><time>2026-03-26T13:45:31.939Z</time></trkpt><trkpt lat="44.502715" lon="8.4732283"><ele>404.0</ele><time>2026-03-26T13:45:33.939Z</time></trkpt><trkpt lat="44.5028067" lon="8.4731633"><ele>404.0</ele><time>2026-03-26T13:45:35.939Z</time></trkpt><trkpt lat="44.5028967" lon="8.4730867"><ele>402.8333333333333</ele><time>2026-03-26T13:45:37.94Z</time></trkpt><trkpt lat="44.5030033" lon="8.47304"><ele>401.66666666666663</ele><time>2026-03-26T13:45:39.939Z</time></trkpt><trkpt lat="44.5030683" lon="8.4730317"><ele>400.5</ele><time>2026-03-26T13:45:40.94Z</time></trkpt><trkpt lat="44.5031267" lon="8.4730717"><ele>399.33333333333337</ele><time>2026-03-26T13:45:41.939Z</time></trkpt><trkpt lat="44.5031867" lon="8.4731367"><ele>398.1666666666667</ele><time>2026-03-26T13:45:42.94Z</time></trkpt><trkpt lat="44.5032417" lon="8.473205"><ele>397.0</ele><time>2026-03-26T13:45:43.939Z</time></trkpt><trkpt lat="44.5032967" lon="8.4732733"><ele>397.00000000000006</ele><time>2026-03-26T13:45:44.94Z</time></trkpt><trkpt lat="44.503375" lon="8.473355"><ele>397.0</ele><time>2026-03-26T13:45:46.939Z</time></trkpt><trkpt lat="44.5034033" lon="8.47347"><ele>397.0</ele><time>2026-03-26T13:45:48.939Z</time></trkpt><trkpt lat="44.50341" lon="8.4735617"><ele>397.0</ele><time>2026-03-26T13:45:50.94Z</time></trkpt><trkpt lat="44.50342" lon="8.4736567"><ele>397.00000000000006</ele><time>2026-03-26T13:45:52.94Z</time></trkpt><trkpt lat="44.5034467" lon="8.4737717"><ele>397.0</ele><time>2026-03-26T13:45:54.939Z</time></trkpt><trkpt lat="44.5035083" lon="8.4737967"><ele>394.40000000000003</ele><time>2026-03-26T13:45:56.939Z</time></trkpt><trkpt lat="44.503615" lon="8.473775"><ele>391.8</ele><time>2026-03-26T13:45:58.939Z</time></trkpt><trkpt lat="44.5037417" lon="8.4738267"><ele>389.2</ele><time>2026-03-26T13:46:00.939Z</time></trkpt><trkpt lat="44.5037967" lon="8.473885"><ele>386.6</ele><time>2026-03-26T13:46:01.94Z</time></trkpt><trkpt lat="44.5038967" lon="8.473965"><ele>384.0</ele><time>2026-03-26T13:46:03.939Z</time></trkpt><trkpt lat="44.50401" lon="8.4739983"><ele>383.4</ele><time>2026-03-26T13:46:05.939Z</time></trkpt><trkpt lat="44.504125" lon="8.47395"><ele>382.79999999999995</ele><time>2026-03-26T13:46:07.939Z</time></trkpt><trkpt lat="44.50419" lon="8.4738333"><ele>382.20000000000005</ele><time>2026-03-26T13:46:09.939Z</time></trkpt><trkpt lat="44.5042083" lon="8.4737483"><ele>381.6</ele><time>2026-03-26T13:46:10.94Z</time></trkpt><trkpt lat="44.5042283" lon="8.4736383"><ele>381.0</ele><time>2026-03-26T13:46:11.939Z</time></trkpt><trkpt lat="44.5042467" lon="8.4735133"><ele>381.0</ele><time>2026-03-26T13:46:12.94Z</time></trkpt><trkpt lat="44.5042717" lon="8.473425"><ele>381.0</ele><time>2026-03-26T13:46:13.94Z</time></trkpt><trkpt lat="44.504355" lon="8.4733317"><ele>381.0</ele><time>2026-03-26T13:46:15.94Z</time></trkpt><trkpt lat="44.5044267" lon="8.47331"><ele>381.0</ele><time>2026-03-26T13:46:16.939Z</time></trkpt><trkpt lat="44.504515" lon="8.4733017"><ele>381.0</ele><time>2026-03-26T13:46:17.94Z</time></trkpt><trkpt lat="44.5046067" lon="8.4733033"><ele>381.0</ele><time>2026-03-26T13:46:18.94Z</time></trkpt><trkpt lat="44.5046683" lon="8.4733367"><ele>378.5</ele><time>2026-03-26T13:46:19.94Z</time></trkpt><trkpt lat="44.5047483" lon="8.4734733"><ele>376.0</ele><time>2026-03-26T13:46:21.939Z</time></trkpt><trkpt lat="44.5047817" lon="8.473555"><ele>373.5</ele><time>2026-03-26T13:46:22.939Z</time></trkpt><trkpt lat="44.5048317" lon="8.4736417"><ele>371.0</ele><time>2026-03-26T13:46:23.939Z</time></trkpt><trkpt lat="44.50488" lon="8.47373"><ele>368.5</ele><time>2026-03-26T13:46:24.94Z</time></trkpt><trkpt lat="44.5049183" lon="8.473815"><ele>366.0</ele><time>2026-03-26T13:46:25.94Z</time></trkpt><trkpt lat="44.5049867" lon="8.4739117"><ele>364.6666666666667</ele><time>2026-03-26T13:46:27.939Z</time></trkpt><trkpt lat="44.5050417" lon="8.473995"><ele>363.3333333333333</ele><time>2026-03-26T13:46:29.939Z</time></trkpt><trkpt lat="44.5050883" lon="8.47411"><ele>362.0</ele><time>2026-03-26T13:46:31.939Z</time></trkpt><trkpt lat="44.5051667" lon="8.4742283"><ele>360.66666666666663</ele><time>2026-03-26T13:46:33.939Z</time></trkpt><trkpt lat="44.5052283" lon="8.4742967"><ele>359.3333333333333</ele><time>2026-03-26T13:46:35.94Z</time></trkpt><trkpt lat="44.5053067" lon="8.47431"><ele>358.0</ele><time>2026-03-26T13:46:37.939Z</time></trkpt><trkpt lat="44.505365" lon="8.474235"><ele>358.0</ele><time>2026-03-26T13:46:39.94Z</time></trkpt><trkpt lat="44.50541" lon="8.4741083"><ele>358.0</ele><time>2026-03-26T13:46:41.939Z</time></trkpt><trkpt lat="44.5054267" lon="8.4739633"><ele>358.0</ele><time>2026-03-26T13:46:46.94Z</time></trkpt><trkpt lat="44.5054683" lon="8.473865"><ele>358.0</ele><time>2026-03-26T13:46:49.939Z</time></trkpt><trkpt lat="44.5055483" lon="8.4738767"><ele>358.0</ele><time>2026-03-26T13:46:52.939Z</time></trkpt><trkpt lat="44.50561" lon="8.4739117"><ele>358.0</ele><time>2026-03-26T13:46:55.939Z</time></trkpt><trkpt lat="44.5056917" lon="8.4739317"><ele>357.66666666666663</ele><time>2026-03-26T13:47:07.94Z</time></trkpt><trkpt lat="44.5057567" lon="8.473915"><ele>357.3333333333333</ele><time>2026-03-26T13:47:09.939Z</time></trkpt><trkpt lat="44.5058267" lon="8.4738867"><ele>357.0</ele><time>2026-03-26T13:47:11.94Z</time></trkpt><trkpt lat="44.5059" lon="8.4738267"><ele>356.6666666666667</ele><time>2026-03-26T13:47:14.939Z</time></trkpt><trkpt lat="44.5059617" lon="8.4737333"><ele>356.33333333333337</ele><time>2026-03-26T13:47:16.94Z</time></trkpt><trkpt lat="44.50601" lon="8.473655"><ele>356.0</ele><time>2026-03-26T13:47:17.939Z</time></trkpt><trkpt lat="44.506065" lon="8.4735583"><ele>356.0</ele><time>2026-03-26T13:47:18.939Z</time></trkpt><trkpt lat="44.5061217" lon="8.47347"><ele>356.0</ele><time>2026-03-26T13:47:19.939Z</time></trkpt><trkpt lat="44.5061933" lon="8.4733983"><ele>356.0</ele><time>2026-03-26T13:47:20.939Z</time></trkpt><trkpt lat="44.5062683" lon="8.4733933"><ele>356.0</ele><time>2026-03-26T13:47:21.94Z</time></trkpt><trkpt lat="44.506355" lon="8.473435"><ele>356.0</ele><time>2026-03-26T13:47:22.94Z</time></trkpt><trkpt lat="44.5064367" lon="8.4735233"><ele>356.0</ele><time>2026-03-26T13:47:23.94Z</time></trkpt><trkpt lat="44.506505" lon="8.4736367"><ele>355.20000000000005</ele><time>2026-03-26T13:47:24.939Z</time></trkpt><trkpt lat="44.5065733" lon="8.4737383"><ele>354.40000000000003</ele><time>2026-03-26T13:47:25.94Z</time></trkpt><trkpt lat="44.5066283" lon="8.4738483"><ele>353.6</ele><time>2026-03-26T13:47:26.939Z</time></trkpt><trkpt lat="44.5066967" lon="8.4739433"><ele>352.8</ele><time>2026-03-26T13:47:27.94Z</time></trkpt><trkpt lat="44.5067617" lon="8.474025"><ele>352.0</ele><time>2026-03-26T13:47:28.94Z</time></trkpt><trkpt lat="44.5068233" lon="8.4741017"><ele>351.16666666666663</ele><time>2026-03-26T13:47:29.939Z</time></trkpt><trkpt lat="44.5068833" lon="8.4741667"><ele>350.3333333333333</ele><time>2026-03-26T13:47:30.939Z</time></trkpt><trkpt lat="44.5069483" lon="8.4741967"><ele>349.5</ele><time>2026-03-26T13:47:31.939Z</time></trkpt><trkpt lat="44.5070167" lon="8.4741983"><ele>348.6666666666667</ele><time>2026-03-26T13:47:32.94Z</time></trkpt><trkpt lat="44.50714" lon="8.47411"><ele>347.83333333333337</ele><time>2026-03-26T13:47:34.939Z</time></trkpt><trkpt lat="44.5072017" lon="8.4740617"><ele>347.0</ele><time>2026-03-26T13:47:35.939Z</time></trkpt><trkpt lat="44.5072717" lon="8.47401"><ele>346.1666666666667</ele><time>2026-03-26T13:47:36.94Z</time></trkpt><trkpt lat="44.5073467" lon="8.4739783"><ele>345.33333333333337</ele><time>2026-03-26T13:47:37.939Z</time></trkpt><trkpt lat="44.50742" lon="8.473965"><ele>344.5</ele><time>2026-03-26T13:47:38.939Z</time></trkpt><trkpt lat="44.5074983" lon="8.473975"><ele>343.6666666666667</ele><time>2026-03-26T13:47:39.94Z</time></trkpt><trkpt lat="44.5075817" lon="8.474"><ele>342.8333333333333</ele><time>2026-03-26T13:47:40.939Z</time></trkpt><trkpt lat="44.5076583" lon="8.4740367"><ele>342.0</ele><time>2026-03-26T13:47:41.939Z</time></trkpt><trkpt lat="44.5077383" lon="8.4740683"><ele>342.0</ele><time>2026-03-26T13:47:42.94Z</time></trkpt><trkpt lat="44.5078183" lon="8.4740917"><ele>342.0</ele><time>2026-03-26T13:47:43.939Z</time></trkpt><trkpt lat="44.50789" lon="8.47411"><ele>342.0</ele><time>2026-03-26T13:47:44.94Z</time></trkpt><trkpt lat="44.5079583" lon="8.4741433"><ele>342.0</ele><time>2026-03-26T13:47:45.94Z</time></trkpt><trkpt lat="44.50803" lon="8.4741667"><ele>342.0</ele><time>2026-03-26T13:47:46.939Z</time></trkpt><trkpt lat="44.5080983" lon="8.47419"><ele>342.0</ele><time>2026-03-26T13:47:47.94Z</time></trkpt><trkpt lat="44.5081783" lon="8.4741817"><ele>341.0</ele><time>2026-03-26T13:47:48.939Z</time></trkpt><trkpt lat="44.50826" lon="8.474155"><ele>340.0</ele><time>2026-03-26T13:47:49.939Z</time></trkpt><trkpt lat="44.5083517" lon="8.474105"><ele>339.0</ele><time>2026-03-26T13:47:50.94Z</time></trkpt><trkpt lat="44.5084267" lon="8.4740483"><ele>338.0</ele><time>2026-03-26T13:47:51.94Z</time></trkpt><trkpt lat="44.5084933" lon="8.473995"><ele>337.0</ele><time>2026-03-26T13:47:52.939Z</time></trkpt><trkpt lat="44.5085567" lon="8.4739667"><ele>336.0</ele><time>2026-03-26T13:47:53.94Z</time></trkpt><trkpt lat="44.508625" lon="8.4739433"><ele>334.8</ele><time>2026-03-26T13:47:54.94Z</time></trkpt><trkpt lat="44.5087533" lon="8.4739817"><ele>333.6</ele><time>2026-03-26T13:47:56.94Z</time></trkpt><trkpt lat="44.50882" lon="8.4740467"><ele>332.4</ele><time>2026-03-26T13:47:57.94Z</time></trkpt><trkpt lat="44.5088933" lon="8.474125"><ele>331.2</ele><time>2026-03-26T13:47:58.939Z</time></trkpt><trkpt lat="44.5089633" lon="8.47423"><ele>330.0</ele><time>2026-03-26T13:47:59.939Z</time></trkpt><trkpt lat="44.5090183" lon="8.4743383"><ele>330.0</ele><time>2026-03-26T13:48:00.939Z</time></trkpt><trkpt lat="44.509075" lon="8.4744483"><ele>330.0</ele><time>2026-03-26T13:48:01.939Z</time></trkpt><trkpt lat="44.509135" lon="8.4745583"><ele>330.0</ele><time>2026-03-26T13:48:02.94Z</time></trkpt><trkpt lat="44.5092033" lon="8.4746667"><ele>330.0</ele><time>2026-03-26T13:48:03.939Z</time></trkpt><trkpt lat="44.509275" lon="8.474775"><ele>330.0</ele><time>2026-03-26T13:48:04.94Z</time></trkpt><trkpt lat="44.5093617" lon="8.474875"><ele>329.6</ele><time>2026-03-26T13:48:05.94Z</time></trkpt><trkpt lat="44.5094567" lon="8.474975"><ele>329.2</ele><time>2026-03-26T13:48:06.94Z</time></trkpt><trkpt lat="44.5095533" lon="8.475055"><ele>328.79999999999995</ele><time>2026-03-26T13:48:07.939Z</time></trkpt><trkpt lat="44.5096367" lon="8.4751417"><ele>328.4</ele><time>2026-03-26T13:48:08.939Z</time></trkpt><trkpt lat="44.5097033" lon="8.47521"><ele>328.0</ele><time>2026-03-26T13:48:09.939Z</time></trkpt><trkpt lat="44.509745" lon="8.4752933"><ele>327.2</ele><time>2026-03-26T13:48:10.94Z</time></trkpt><trkpt lat="44.5097633" lon="8.4753933"><ele>326.4</ele><time>2026-03-26T13:48:11.94Z</time></trkpt><trkpt lat="44.5097683" lon="8.4755117"><ele>325.59999999999997</ele><time>2026-03-26T13:48:12.94Z</time></trkpt><trkpt lat="44.509765" lon="8.4756533"><ele>324.79999999999995</ele><time>2026-03-26T13:48:13.939Z</time></trkpt><trkpt lat="44.50976" lon="8.4758033"><ele>324.0</ele><time>2026-03-26T13:48:14.939Z</time></trkpt><trkpt lat="44.5097733" lon="8.47593"><ele>324.0</ele><time>2026-03-26T13:48:15.94Z</time></trkpt><trkpt lat="44.50979" lon="8.4760683"><ele>324.0</ele><time>2026-03-26T13:48:16.939Z</time></trkpt><trkpt lat="44.5098083" lon="8.476215"><ele>324.0</ele><time>2026-03-26T13:48:17.939Z</time></trkpt><trkpt lat="44.5098233" lon="8.4763617"><ele>324.0</ele><time>2026-03-26T13:48:18.94Z</time></trkpt><trkpt lat="44.5098267" lon="8.4765133"><ele>324.0</ele><time>2026-03-26T13:48:19.94Z</time></trkpt><trkpt lat="44.5098267" lon="8.4766583"><ele>323.79999999999995</ele><time>2026-03-26T13:48:20.94Z</time></trkpt><trkpt lat="44.5098383" lon="8.4767883"><ele>323.59999999999997</ele><time>2026-03-26T13:48:21.939Z</time></trkpt><trkpt lat="44.509835" lon="8.4769167"><ele>323.4</ele><time>2026-03-26T13:48:22.939Z</time></trkpt><trkpt lat="44.5098283" lon="8.477045"><ele>323.2</ele><time>2026-03-26T13:48:23.94Z</time></trkpt><trkpt lat="44.5098333" lon="8.4771817"><ele>323.0</ele><time>2026-03-26T13:48:24.939Z</time></trkpt><trkpt lat="44.5098283" lon="8.477325"><ele>323.0</ele><time>2026-03-26T13:48:25.94Z</time></trkpt><trkpt lat="44.5098217" lon="8.477455"><ele>323.0</ele><time>2026-03-26T13:48:26.94Z</time></trkpt><trkpt lat="44.5098" lon="8.4775983"><ele>323.0</ele><time>2026-03-26T13:48:27.94Z</time></trkpt><trkpt lat="44.5097617" lon="8.4777567"><ele>323.0</ele><time>2026-03-26T13:48:28.94Z</time></trkpt><trkpt lat="44.5097183" lon="8.4779417"><ele>323.0</ele><time>2026-03-26T13:48:29.94Z</time></trkpt><trkpt lat="44.509665" lon="8.478135"><ele>323.0</ele><time>2026-03-26T13:48:30.939Z</time></trkpt><trkpt lat="44.5096117" lon="8.47834"><ele>323.0</ele><time>2026-03-26T13:48:31.939Z</time></trkpt><trkpt lat="44.5095733" lon="8.478555"><ele>329.0</ele><time>2026-03-26T13:48:32.94Z</time></trkpt><trkpt lat="44.5095217" lon="8.4787767"><ele>335.0</ele><time>2026-03-26T13:48:33.939Z</time></trkpt><trkpt lat="44.509475" lon="8.4790017"><ele>341.0</ele><time>2026-03-26T13:48:34.94Z</time></trkpt><trkpt lat="44.5094417" lon="8.4792317"><ele>341.0</ele><time>2026-03-26T13:48:35.94Z</time></trkpt><trkpt lat="44.5094017" lon="8.4794383"><ele>341.0</ele><time>2026-03-26T13:48:36.939Z</time></trkpt><trkpt lat="44.5093533" lon="8.479665"><ele>341.0</ele><time>2026-03-26T13:48:37.94Z</time></trkpt><trkpt lat="44.5093117" lon="8.4798867"><ele>341.0</ele><time>2026-03-26T13:48:38.94Z</time></trkpt><trkpt lat="44.5092767" lon="8.4800817"><ele>341.0</ele><time>2026-03-26T13:48:39.939Z</time></trkpt><trkpt lat="44.50922" lon="8.4802967"><ele>341.0</ele><time>2026-03-26T13:48:40.939Z</time></trkpt><trkpt lat="44.5091617" lon="8.4805017"><ele>338.6666666666667</ele><time>2026-03-26T13:48:41.939Z</time></trkpt><trkpt lat="44.509095" lon="8.4806967"><ele>336.3333333333333</ele><time>2026-03-26T13:48:42.94Z</time></trkpt><trkpt lat="44.5090133" lon="8.4808833"><ele>334.0</ele><time>2026-03-26T13:48:43.94Z</time></trkpt><trkpt lat="44.5089217" lon="8.48106"><ele>334.0</ele><time>2026-03-26T13:48:44.939Z</time></trkpt><trkpt lat="44.5088217" lon="8.48123"><ele>334.0</ele><time>2026-03-26T13:48:45.939Z</time></trkpt><trkpt lat="44.5087133" lon="8.4813917"><ele>334.0</ele><time>2026-03-26T13:48:46.94Z</time></trkpt><trkpt lat="44.5085967" lon="8.481535"><ele>335.75</ele><time>2026-03-26T13:48:47.941Z</time></trkpt><trkpt lat="44.5084767" lon="8.4816567"><ele>337.5</ele><time>2026-03-26T13:48:48.94Z</time></trkpt><trkpt lat="44.5083517" lon="8.481755"><ele>339.25</ele><time>2026-03-26T13:48:49.94Z</time></trkpt><trkpt lat="44.5082117" lon="8.48183"><ele>341.0</ele><time>2026-03-26T13:48:50.94Z</time></trkpt><trkpt lat="44.5080833" lon="8.4819267"><ele>341.0</ele><time>2026-03-26T13:48:51.94Z</time></trkpt><trkpt lat="44.5079683" lon="8.4820417"><ele>341.0</ele><time>2026-03-26T13:48:52.941Z</time></trkpt><trkpt lat="44.5078767" lon="8.4822017"><ele>341.0</ele><time>2026-03-26T13:48:53.94Z</time></trkpt><trkpt lat="44.5077983" lon="8.4823517"><ele>341.0</ele><time>2026-03-26T13:48:54.941Z</time></trkpt><trkpt lat="44.5077017" lon="8.482465"><ele>340.75</ele><time>2026-03-26T13:48:55.941Z</time></trkpt><trkpt lat="44.5075983" lon="8.4825167"><ele>340.5</ele><time>2026-03-26T13:48:56.941Z</time></trkpt><trkpt lat="44.507465" lon="8.4825183"><ele>340.25</ele><time>2026-03-26T13:48:57.941Z</time></trkpt><trkpt lat="44.5073317" lon="8.4824967"><ele>340.0</ele><time>2026-03-26T13:48:58.941Z</time></trkpt><trkpt lat="44.50721" lon="8.48245"><ele>340.0</ele><time>2026-03-26T13:48:59.94Z</time></trkpt><trkpt lat="44.5070867" lon="8.4824"><ele>340.0</ele><time>2026-03-26T13:49:00.941Z</time></trkpt><trkpt lat="44.506965" lon="8.4823467"><ele>340.0</ele><time>2026-03-26T13:49:01.941Z</time></trkpt><trkpt lat="44.5068583" lon="8.48229"><ele>340.0</ele><time>2026-03-26T13:49:02.94Z</time></trkpt><trkpt lat="44.50676" lon="8.48224"><ele>339.4</ele><time>2026-03-26T13:49:03.94Z</time></trkpt><trkpt lat="44.5066617" lon="8.4822383"><ele>338.8</ele><time>2026-03-26T13:49:04.94Z</time></trkpt><trkpt lat="44.5065767" lon="8.4822683"><ele>338.20000000000005</ele><time>2026-03-26T13:49:05.94Z</time></trkpt><trkpt lat="44.506495" lon="8.4823333"><ele>337.6</ele><time>2026-03-26T13:49:06.941Z</time></trkpt><trkpt lat="44.5064233" lon="8.48242"><ele>337.0</ele><time>2026-03-26T13:49:07.94Z</time></trkpt><trkpt lat="44.5063533" lon="8.4825267"><ele>337.0</ele><time>2026-03-26T13:49:08.941Z</time></trkpt><trkpt lat="44.50628" lon="8.48262"><ele>337.0</ele><time>2026-03-26T13:49:09.94Z</time></trkpt><trkpt lat="44.50618" lon="8.4826917"><ele>337.0</ele><time>2026-03-26T13:49:10.94Z</time></trkpt><trkpt lat="44.5060617" lon="8.4827333"><ele>337.0</ele><time>2026-03-26T13:49:11.941Z</time></trkpt><trkpt lat="44.5059333" lon="8.4827483"><ele>337.5</ele><time>2026-03-26T13:49:12.941Z</time></trkpt><trkpt lat="44.5058" lon="8.4827517"><ele>338.0</ele><time>2026-03-26T13:49:13.94Z</time></trkpt><trkpt lat="44.5056583" lon="8.4827683"><ele>338.5</ele><time>2026-03-26T13:49:14.941Z</time></trkpt><trkpt lat="44.5055217" lon="8.4828083"><ele>339.0</ele><time>2026-03-26T13:49:15.941Z</time></trkpt><trkpt lat="44.5053817" lon="8.482875"><ele>339.3333333333333</ele><time>2026-03-26T13:49:16.941Z</time></trkpt><trkpt lat="44.5052367" lon="8.4829533"><ele>339.66666666666663</ele><time>2026-03-26T13:49:17.941Z</time></trkpt><trkpt lat="44.50509" lon="8.4830283"><ele>340.0</ele><time>2026-03-26T13:49:18.94Z</time></trkpt><trkpt lat="44.5049433" lon="8.4831067"><ele>340.0</ele><time>2026-03-26T13:49:19.94Z</time></trkpt><trkpt lat="44.5047983" lon="8.4831733"><ele>340.0</ele><time>2026-03-26T13:49:20.94Z</time></trkpt><trkpt lat="44.5046467" lon="8.483245"><ele>340.0</ele><time>2026-03-26T13:49:21.941Z</time></trkpt><trkpt lat="44.504495" lon="8.483315"><ele>338.66666666666663</ele><time>2026-03-26T13:49:22.941Z</time></trkpt><trkpt lat="44.5043433" lon="8.483395"><ele>337.3333333333333</ele><time>2026-03-26T13:49:23.941Z</time></trkpt><trkpt lat="44.5041917" lon="8.4834867"><ele>336.0</ele><time>2026-03-26T13:49:24.941Z</time></trkpt><trkpt lat="44.5040617" lon="8.483545"><ele>336.0</ele><time>2026-03-26T13:49:25.94Z</time></trkpt><trkpt lat="44.5039567" lon="8.4835983"><ele>336.0</ele><time>2026-03-26T13:49:26.941Z</time></trkpt><trkpt lat="44.5038533" lon="8.48365"><ele>336.0</ele><time>2026-03-26T13:49:27.941Z</time></trkpt><trkpt lat="44.5037617" lon="8.4837117"><ele>336.0</ele><time>2026-03-26T13:49:28.941Z</time></trkpt><trkpt lat="44.5036767" lon="8.48377"><ele>336.0</ele><time>2026-03-26T13:49:29.94Z</time></trkpt><trkpt lat="44.503615" lon="8.4838283"><ele>335.8</ele><time>2026-03-26T13:49:30.941Z</time></trkpt><trkpt lat="44.50358" lon="8.4839233"><ele>335.6</ele><time>2026-03-26T13:49:31.94Z</time></trkpt><trkpt lat="44.503545" lon="8.484035"><ele>335.4</ele><time>2026-03-26T13:49:32.94Z</time></trkpt><trkpt lat="44.5035033" lon="8.484165"><ele>335.2</ele><time>2026-03-26T13:49:33.941Z</time></trkpt><trkpt lat="44.5034483" lon="8.4843017"><ele>335.0</ele><time>2026-03-26T13:49:34.94Z</time></trkpt><trkpt lat="44.5033933" lon="8.4844367"><ele>335.0</ele><time>2026-03-26T13:49:35.94Z</time></trkpt><trkpt lat="44.5033317" lon="8.4845567"><ele>335.0</ele><time>2026-03-26T13:49:36.94Z</time></trkpt><trkpt lat="44.5032783" lon="8.4846467"><ele>335.0</ele><time>2026-03-26T13:49:37.941Z</time></trkpt><trkpt lat="44.50323" lon="8.484715"><ele>335.0</ele><time>2026-03-26T13:49:38.94Z</time></trkpt><trkpt lat="44.5031667" lon="8.4848617"><ele>335.0</ele><time>2026-03-26T13:49:40.94Z</time></trkpt><trkpt lat="44.5031583" lon="8.4850167"><ele>335.33333333333337</ele><time>2026-03-26T13:49:42.941Z</time></trkpt><trkpt lat="44.5031883" lon="8.485095"><ele>335.6666666666667</ele><time>2026-03-26T13:49:43.941Z</time></trkpt><trkpt lat="44.50324" lon="8.4851683"><ele>336.0</ele><time>2026-03-26T13:49:44.94Z</time></trkpt><trkpt lat="44.5032967" lon="8.4852517"><ele>336.3333333333333</ele><time>2026-03-26T13:49:45.94Z</time></trkpt><trkpt lat="44.5033467" lon="8.48536"><ele>336.66666666666663</ele><time>2026-03-26T13:49:46.94Z</time></trkpt><trkpt lat="44.5033783" lon="8.485485"><ele>337.0</ele><time>2026-03-26T13:49:47.94Z</time></trkpt><trkpt lat="44.5033967" lon="8.4856417"><ele>337.75</ele><time>2026-03-26T13:49:48.94Z</time></trkpt><trkpt lat="44.5033917" lon="8.4858183"><ele>338.5</ele><time>2026-03-26T13:49:49.94Z</time></trkpt><trkpt lat="44.5033867" lon="8.4859883"><ele>339.25</ele><time>2026-03-26T13:49:50.94Z</time></trkpt><trkpt lat="44.5033667" lon="8.48615"><ele>340.0</ele><time>2026-03-26T13:49:51.94Z</time></trkpt><trkpt lat="44.503325" lon="8.4863033"><ele>341.2</ele><time>2026-03-26T13:49:52.941Z</time></trkpt><trkpt lat="44.5032783" lon="8.48643"><ele>342.4</ele><time>2026-03-26T13:49:53.941Z</time></trkpt><trkpt lat="44.5032233" lon="8.486545"><ele>343.6</ele><time>2026-03-26T13:49:54.94Z</time></trkpt><trkpt lat="44.5031767" lon="8.4866517"><ele>344.8</ele><time>2026-03-26T13:49:55.94Z</time></trkpt><trkpt lat="44.5031283" lon="8.4867467"><ele>346.0</ele><time>2026-03-26T13:49:56.941Z</time></trkpt><trkpt lat="44.50309" lon="8.4868533"><ele>346.0</ele><time>2026-03-26T13:49:57.941Z</time></trkpt><trkpt lat="44.503045" lon="8.48698"><ele>346.0</ele><time>2026-03-26T13:49:58.94Z</time></trkpt><trkpt lat="44.5030133" lon="8.487135"><ele>346.0</ele><time>2026-03-26T13:49:59.941Z</time></trkpt><trkpt lat="44.5029883" lon="8.487305"><ele>346.0</ele><time>2026-03-26T13:50:00.941Z</time></trkpt><trkpt lat="44.502975" lon="8.4874767"><ele>347.6</ele><time>2026-03-26T13:50:01.94Z</time></trkpt><trkpt lat="44.502965" lon="8.4876433"><ele>349.20000000000005</ele><time>2026-03-26T13:50:02.94Z</time></trkpt><trkpt lat="44.502975" lon="8.4877933"><ele>350.79999999999995</ele><time>2026-03-26T13:50:03.94Z</time></trkpt><trkpt lat="44.5030133" lon="8.4879317"><ele>352.4</ele><time>2026-03-26T13:50:04.94Z</time></trkpt><trkpt lat="44.5030583" lon="8.4880667"><ele>354.0</ele><time>2026-03-26T13:50:05.94Z</time></trkpt><trkpt lat="44.5031117" lon="8.4882283"><ele>354.4</ele><time>2026-03-26T13:50:06.94Z</time></trkpt><trkpt lat="44.50316" lon="8.48838"><ele>354.79999999999995</ele><time>2026-03-26T13:50:07.94Z</time></trkpt><trkpt lat="44.5032017" lon="8.48852"><ele>355.20000000000005</ele><time>2026-03-26T13:50:08.94Z</time></trkpt><trkpt lat="44.5032267" lon="8.4886433"><ele>355.6</ele><time>2026-03-26T13:50:09.941Z</time></trkpt><trkpt lat="44.5032317" lon="8.4887567"><ele>356.0</ele><time>2026-03-26T13:50:10.94Z</time></trkpt><trkpt lat="44.5032067" lon="8.4888783"><ele>355.20000000000005</ele><time>2026-03-26T13:50:11.941Z</time></trkpt><trkpt lat="44.5031683" lon="8.4890133"><ele>354.40000000000003</ele><time>2026-03-26T13:50:12.94Z</time></trkpt><trkpt lat="44.503135" lon="8.48916"><ele>353.6</ele><time>2026-03-26T13:50:13.941Z</time></trkpt><trkpt lat="44.5031167" lon="8.4893117"><ele>352.8</ele><time>2026-03-26T13:50:14.94Z</time></trkpt><trkpt lat="44.5031083" lon="8.48947"><ele>352.0</ele><time>2026-03-26T13:50:15.94Z</time></trkpt><trkpt lat="44.5031133" lon="8.4896117"><ele>351.8</ele><time>2026-03-26T13:50:16.94Z</time></trkpt><trkpt lat="44.5031383" lon="8.4897333"><ele>351.6</ele><time>2026-03-26T13:50:17.94Z</time></trkpt><trkpt lat="44.50318" lon="8.4898383"><ele>351.40000000000003</ele><time>2026-03-26T13:50:18.941Z</time></trkpt><trkpt lat="44.5032533" lon="8.4899483"><ele>351.20000000000005</ele><time>2026-03-26T13:50:19.941Z</time></trkpt><trkpt lat="44.5033467" lon="8.490045"><ele>351.0</ele><time>2026-03-26T13:50:20.941Z</time></trkpt><trkpt lat="44.5034533" lon="8.4901533"><ele>351.0</ele><time>2026-03-26T13:50:21.94Z</time></trkpt><trkpt lat="44.503545" lon="8.490255"><ele>351.0</ele><time>2026-03-26T13:50:22.941Z</time></trkpt><trkpt lat="44.5036333" lon="8.4903667"><ele>351.0</ele><time>2026-03-26T13:50:23.941Z</time></trkpt><trkpt lat="44.5037283" lon="8.4904983"><ele>351.0</ele><time>2026-03-26T13:50:24.94Z</time></trkpt><trkpt lat="44.503825" lon="8.4906283"><ele>351.5</ele><time>2026-03-26T13:50:25.94Z</time></trkpt><trkpt lat="44.5039167" lon="8.4907667"><ele>352.0</ele><time>2026-03-26T13:50:26.941Z</time></trkpt><trkpt lat="44.50401" lon="8.4909033"><ele>352.5</ele><time>2026-03-26T13:50:27.94Z</time></trkpt><trkpt lat="44.5040917" lon="8.4910317"><ele>353.0</ele><time>2026-03-26T13:50:28.94Z</time></trkpt><trkpt lat="44.504165" lon="8.49116"><ele>353.0</ele><time>2026-03-26T13:50:29.94Z</time></trkpt><trkpt lat="44.5042367" lon="8.49126"><ele>353.0</ele><time>2026-03-26T13:50:30.94Z</time></trkpt><trkpt lat="44.5042933" lon="8.4913717"><ele>353.0</ele><time>2026-03-26T13:50:31.94Z</time></trkpt><trkpt lat="44.5043433" lon="8.4915033"><ele>353.0</ele><time>2026-03-26T13:50:32.941Z</time></trkpt><trkpt lat="44.504375" lon="8.4916467"><ele>353.0</ele><time>2026-03-26T13:50:33.941Z</time></trkpt><trkpt lat="44.5043883" lon="8.4917883"><ele>353.0</ele><time>2026-03-26T13:50:34.941Z</time></trkpt><trkpt lat="44.5043967" lon="8.4919333"><ele>353.0</ele><time>2026-03-26T13:50:35.94Z</time></trkpt><trkpt lat="44.504395" lon="8.492075"><ele>353.0</ele><time>2026-03-26T13:50:36.941Z</time></trkpt><trkpt lat="44.5043783" lon="8.4922083"><ele>353.0</ele><time>2026-03-26T13:50:37.94Z</time></trkpt><trkpt lat="44.50434" lon="8.49234"><ele>353.0</ele><time>2026-03-26T13:50:38.941Z</time></trkpt><trkpt lat="44.5043033" lon="8.49247"><ele>353.0</ele><time>2026-03-26T13:50:39.941Z</time></trkpt><trkpt lat="44.50425" lon="8.4926333"><ele>353.0</ele><time>2026-03-26T13:50:40.941Z</time></trkpt><trkpt lat="44.5041967" lon="8.4927983"><ele>353.0</ele><time>2026-03-26T13:50:41.941Z</time></trkpt><trkpt lat="44.5041683" lon="8.492945"><ele>353.0</ele><time>2026-03-26T13:50:42.941Z</time></trkpt><trkpt lat="44.504145" lon="8.493075"><ele>353.5</ele><time>2026-03-26T13:50:43.94Z</time></trkpt><trkpt lat="44.5041167" lon="8.4931983"><ele>354.0</ele><time>2026-03-26T13:50:44.941Z</time></trkpt><trkpt lat="44.5040883" lon="8.493305"><ele>354.5</ele><time>2026-03-26T13:50:45.941Z</time></trkpt><trkpt lat="44.5040733" lon="8.4934367"><ele>355.0</ele><time>2026-03-26T13:50:47.941Z</time></trkpt><trkpt lat="44.504075" lon="8.4935433"><ele>355.5</ele><time>2026-03-26T13:50:50.94Z</time></trkpt><trkpt lat="44.5040917" lon="8.4936433"><ele>356.0</ele><time>2026-03-26T13:50:53.94Z</time></trkpt><trkpt lat="44.5041033" lon="8.49377"><ele>357.5</ele><time>2026-03-26T13:50:55.94Z</time></trkpt><trkpt lat="44.5041167" lon="8.4938867"><ele>359.0</ele><time>2026-03-26T13:50:57.941Z</time></trkpt><trkpt lat="44.50414" lon="8.494045"><ele>360.5</ele><time>2026-03-26T13:50:59.94Z</time></trkpt><trkpt lat="44.50417" lon="8.49414"><ele>362.0</ele><time>2026-03-26T13:51:00.94Z</time></trkpt><trkpt lat="44.5041967" lon="8.494225"><ele>363.5</ele><time>2026-03-26T13:51:01.94Z</time></trkpt><trkpt lat="44.5042533" lon="8.4943133"><ele>365.0</ele><time>2026-03-26T13:51:03.94Z</time></trkpt><trkpt lat="44.5041867" lon="8.49438"><ele>365.0</ele><time>2026-03-26T13:51:07.94Z</time></trkpt><trkpt lat="44.504065" lon="8.4943567"><ele>365.0</ele><time>2026-03-26T13:51:09.94Z</time></trkpt><trkpt lat="44.503965" lon="8.494305"><ele>365.0</ele><time>2026-03-26T13:51:11.941Z</time></trkpt><trkpt lat="44.5039033" lon="8.4942367"><ele>365.0</ele><time>2026-03-26T13:51:13.94Z</time></trkpt><trkpt lat="44.5038233" lon="8.4941583"><ele>365.0</ele><time>2026-03-26T13:51:15.94Z</time></trkpt><trkpt lat="44.5037433" lon="8.4940683"><ele>365.6</ele><time>2026-03-26T13:51:17.941Z</time></trkpt><trkpt lat="44.5036833" lon="8.4939317"><ele>366.2</ele><time>2026-03-26T13:51:19.941Z</time></trkpt><trkpt lat="44.50365" lon="8.4937983"><ele>366.79999999999995</ele><time>2026-03-26T13:51:21.941Z</time></trkpt><trkpt lat="44.5036317" lon="8.4937"><ele>367.4</ele><time>2026-03-26T13:51:23.94Z</time></trkpt><trkpt lat="44.50357" lon="8.4935833"><ele>368.0</ele><time>2026-03-26T13:51:38.941Z</time></trkpt><trkpt lat="44.5034783" lon="8.49352"><ele>368.0</ele><time>2026-03-26T13:51:40.94Z</time></trkpt><trkpt lat="44.5034167" lon="8.493495"><ele>368.0</ele><time>2026-03-26T13:51:41.941Z</time></trkpt><trkpt lat="44.5033217" lon="8.49351"><ele>368.0</ele><time>2026-03-26T13:51:43.941Z</time></trkpt><trkpt lat="44.5033" lon="8.4936317"><ele>368.0</ele><time>2026-03-26T13:51:45.941Z</time></trkpt><trkpt lat="44.50333" lon="8.4937617"><ele>368.0</ele><time>2026-03-26T13:51:46.94Z</time></trkpt><trkpt lat="44.5033633" lon="8.4939183"><ele>369.79999999999995</ele><time>2026-03-26T13:51:47.941Z</time></trkpt><trkpt lat="44.5034033" lon="8.4940983"><ele>371.6</ele><time>2026-03-26T13:51:48.94Z</time></trkpt><trkpt lat="44.5034267" lon="8.4942767"><ele>373.4</ele><time>2026-03-26T13:51:49.941Z</time></trkpt><trkpt lat="44.5034533" lon="8.4944167"><ele>375.20000000000005</ele><time>2026-03-26T13:51:50.941Z</time></trkpt><trkpt lat="44.5034767" lon="8.494525"><ele>377.0</ele><time>2026-03-26T13:51:51.941Z</time></trkpt><trkpt lat="44.5035367" lon="8.494685"><ele>377.71428571428567</ele><time>2026-03-26T13:51:53.941Z</time></trkpt><trkpt lat="44.5035667" lon="8.4947733"><ele>378.42857142857144</ele><time>2026-03-26T13:51:54.94Z</time></trkpt><trkpt lat="44.5036033" lon="8.4948633"><ele>379.1428571428571</ele><time>2026-03-26T13:51:55.94Z</time></trkpt><trkpt lat="44.5036383" lon="8.4949833"><ele>379.85714285714283</ele><time>2026-03-26T13:51:57.941Z</time></trkpt><trkpt lat="44.5036333" lon="8.4950733"><ele>380.57142857142856</ele><time>2026-03-26T13:52:01.94Z</time></trkpt><trkpt lat="44.503585" lon="8.4951567"><ele>381.2857142857143</ele><time>2026-03-26T13:52:03.94Z</time></trkpt><trkpt lat="44.5035467" lon="8.4952317"><ele>382.0</ele><time>2026-03-26T13:52:04.941Z</time></trkpt><trkpt lat="44.5035067" lon="8.4953033"><ele>383.75</ele><time>2026-03-26T13:52:05.94Z</time></trkpt><trkpt lat="44.503455" lon="8.495455"><ele>385.5</ele><time>2026-03-26T13:52:07.94Z</time></trkpt><trkpt lat="44.5034383" lon="8.495625"><ele>387.25</ele><time>2026-03-26T13:52:09.94Z</time></trkpt><trkpt lat="44.5034733" lon="8.4957867"><ele>389.0</ele><time>2026-03-26T13:52:11.94Z</time></trkpt><trkpt lat="44.5035183" lon="8.49592"><ele>389.0</ele><time>2026-03-26T13:52:13.941Z</time></trkpt><trkpt lat="44.5035567" lon="8.4960617"><ele>389.0</ele><time>2026-03-26T13:52:15.941Z</time></trkpt><trkpt lat="44.5035917" lon="8.496195"><ele>389.0</ele><time>2026-03-26T13:52:17.94Z</time></trkpt><trkpt lat="44.503605" lon="8.4962817"><ele>389.0</ele><time>2026-03-26T13:52:18.941Z</time></trkpt><trkpt lat="44.50364" lon="8.4964433"><ele>389.0</ele><time>2026-03-26T13:52:20.94Z</time></trkpt><trkpt lat="44.503655" lon="8.4965333"><ele>391.2</ele><time>2026-03-26T13:52:21.941Z</time></trkpt><trkpt lat="44.50368" lon="8.496695"><ele>393.4</ele><time>2026-03-26T13:52:23.94Z</time></trkpt><trkpt lat="44.50369" lon="8.496855"><ele>395.6</ele><time>2026-03-26T13:52:25.941Z</time></trkpt><trkpt lat="44.5036367" lon="8.4969783"><ele>397.8</ele><time>2026-03-26T13:52:27.94Z</time></trkpt><trkpt lat="44.5035333" lon="8.4970383"><ele>400.0</ele><time>2026-03-26T13:52:29.941Z</time></trkpt><trkpt lat="44.5034333" lon="8.4970483"><ele>400.0</ele><time>2026-03-26T13:52:31.94Z</time></trkpt><trkpt lat="44.5033467" lon="8.4969833"><ele>400.0</ele><time>2026-03-26T13:52:33.941Z</time></trkpt><trkpt lat="44.503255" lon="8.4969083"><ele>400.0</ele><time>2026-03-26T13:52:35.94Z</time></trkpt><trkpt lat="44.5031567" lon="8.4968883"><ele>400.0</ele><time>2026-03-26T13:52:37.941Z</time></trkpt><trkpt lat="44.50304" lon="8.49689"><ele>400.0</ele><time>2026-03-26T13:52:39.941Z</time></trkpt><trkpt lat="44.50293" lon="8.496855"><ele>401.6</ele><time>2026-03-26T13:52:41.941Z</time></trkpt><trkpt lat="44.502845" lon="8.4967967"><ele>403.2</ele><time>2026-03-26T13:52:43.94Z</time></trkpt><trkpt lat="44.5027517" lon="8.4967483"><ele>404.79999999999995</ele><time>2026-03-26T13:52:45.941Z</time></trkpt><trkpt lat="44.5026533" lon="8.4967133"><ele>406.4</ele><time>2026-03-26T13:52:47.94Z</time></trkpt><trkpt lat="44.5025867" lon="8.4967367"><ele>408.0</ele><time>2026-03-26T13:52:49.94Z</time></trkpt><trkpt lat="44.50263" lon="8.4968467"><ele>408.0</ele><time>2026-03-26T13:52:51.94Z</time></trkpt><trkpt lat="44.502685" lon="8.496935"><ele>408.0</ele><time>2026-03-26T13:52:52.94Z</time></trkpt><trkpt lat="44.5027517" lon="8.4970383"><ele>408.0</ele><time>2026-03-26T13:52:53.94Z</time></trkpt><trkpt lat="44.5028083" lon="8.4971483"><ele>408.0</ele><time>2026-03-26T13:52:54.94Z</time></trkpt><trkpt lat="44.5028633" lon="8.4972767"><ele>408.0</ele><time>2026-03-26T13:52:55.94Z</time></trkpt><trkpt lat="44.5029033" lon="8.4974217"><ele>409.2</ele><time>2026-03-26T13:52:56.941Z</time></trkpt><trkpt lat="44.5029433" lon="8.497565"><ele>410.4</ele><time>2026-03-26T13:52:57.941Z</time></trkpt><trkpt lat="44.502965" lon="8.4976983"><ele>411.59999999999997</ele><time>2026-03-26T13:52:58.941Z</time></trkpt><trkpt lat="44.5029867" lon="8.4978133"><ele>412.79999999999995</ele><time>2026-03-26T13:52:59.941Z</time></trkpt><trkpt lat="44.503015" lon="8.497925"><ele>414.0</ele><time>2026-03-26T13:53:00.94Z</time></trkpt><trkpt lat="44.5030383" lon="8.4980467"><ele>416.6</ele><time>2026-03-26T13:53:01.941Z</time></trkpt><trkpt lat="44.50307" lon="8.4981883"><ele>419.2</ele><time>2026-03-26T13:53:02.94Z</time></trkpt><trkpt lat="44.50309" lon="8.498315"><ele>421.80000000000007</ele><time>2026-03-26T13:53:03.94Z</time></trkpt><trkpt lat="44.5030917" lon="8.4984417"><ele>424.40000000000003</ele><time>2026-03-26T13:53:04.941Z</time></trkpt><trkpt lat="44.503085" lon="8.4985683"><ele>427.0</ele><time>2026-03-26T13:53:05.941Z</time></trkpt><trkpt lat="44.50308" lon="8.4986833"><ele>427.8</ele><time>2026-03-26T13:53:06.94Z</time></trkpt><trkpt lat="44.5030683" lon="8.49878"><ele>428.6</ele><time>2026-03-26T13:53:07.94Z</time></trkpt><trkpt lat="44.5030767" lon="8.4988967"><ele>429.40000000000003</ele><time>2026-03-26T13:53:08.941Z</time></trkpt><trkpt lat="44.5030883" lon="8.4990617"><ele>430.20000000000005</ele><time>2026-03-26T13:53:09.94Z</time></trkpt><trkpt lat="44.5031117" lon="8.499205"><ele>431.0</ele><time>2026-03-26T13:53:10.94Z</time></trkpt><trkpt lat="44.503145" lon="8.4993267"><ele>431.0</ele><time>2026-03-26T13:53:11.94Z</time></trkpt><trkpt lat="44.503165" lon="8.4994517"><ele>431.0</ele><time>2026-03-26T13:53:12.941Z</time></trkpt><trkpt lat="44.5031817" lon="8.4995817"><ele>431.0</ele><time>2026-03-26T13:53:13.941Z</time></trkpt><trkpt lat="44.5032167" lon="8.4996983"><ele>431.0</ele><time>2026-03-26T13:53:14.941Z</time></trkpt><trkpt lat="44.5032683" lon="8.49981"><ele>431.0</ele><time>2026-03-26T13:53:15.941Z</time></trkpt><trkpt lat="44.5033217" lon="8.4999317"><ele>432.0</ele><time>2026-03-26T13:53:16.94Z</time></trkpt><trkpt lat="44.503375" lon="8.5000633"><ele>433.0</ele><time>2026-03-26T13:53:17.94Z</time></trkpt><trkpt lat="44.5034133" lon="8.5001917"><ele>434.0</ele><time>2026-03-26T13:53:18.941Z</time></trkpt><trkpt lat="44.5034383" lon="8.5003183"><ele>435.0</ele><time>2026-03-26T13:53:19.94Z</time></trkpt><trkpt lat="44.503475" lon="8.5004333"><ele>436.0</ele><time>2026-03-26T13:53:20.94Z</time></trkpt><trkpt lat="44.5035233" lon="8.5005517"><ele>438.00000000000006</ele><time>2026-03-26T13:53:21.94Z</time></trkpt><trkpt lat="44.5035767" lon="8.5006833"><ele>440.0</ele><time>2026-03-26T13:53:22.941Z</time></trkpt><trkpt lat="44.5036167" lon="8.5007967"><ele>442.0</ele><time>2026-03-26T13:53:23.94Z</time></trkpt><trkpt lat="44.5036217" lon="8.50092"><ele>444.0</ele><time>2026-03-26T13:53:24.94Z</time></trkpt><trkpt lat="44.5036317" lon="8.5010417"><ele>446.00000000000006</ele><time>2026-03-26T13:53:25.94Z</time></trkpt><trkpt lat="44.503635" lon="8.50113"><ele>448.0</ele><time>2026-03-26T13:53:26.94Z</time></trkpt><trkpt lat="44.503675" lon="8.5011983"><ele>448.0</ele><time>2026-03-26T13:53:28.94Z</time></trkpt><trkpt lat="44.503745" lon="8.5012333"><ele>447.99999999999994</ele><time>2026-03-26T13:53:30.94Z</time></trkpt><trkpt lat="44.5038417" lon="8.5013067"><ele>447.99999999999994</ele><time>2026-03-26T13:53:43.941Z</time></trkpt><trkpt lat="44.503925" lon="8.501435"><ele>448.0</ele><time>2026-03-26T13:53:45.941Z</time></trkpt><trkpt lat="44.5039767" lon="8.5015133"><ele>448.0</ele><time>2026-03-26T13:53:46.941Z</time></trkpt><trkpt lat="44.5040217" lon="8.5015867"><ele>448.0</ele><time>2026-03-26T13:53:47.941Z</time></trkpt><trkpt lat="44.50409" lon="8.5016867"><ele>447.99999999999994</ele><time>2026-03-26T13:53:49.94Z</time></trkpt><trkpt lat="44.5041517" lon="8.501775"><ele>447.99999999999994</ele><time>2026-03-26T13:53:51.94Z</time></trkpt><trkpt lat="44.50423" lon="8.5018817"><ele>448.0</ele><time>2026-03-26T13:53:53.941Z</time></trkpt><trkpt lat="44.5042983" lon="8.5019833"><ele>448.0</ele><time>2026-03-26T13:53:55.94Z</time></trkpt><trkpt lat="44.50434" lon="8.5020683"><ele>447.50000000000006</ele><time>2026-03-26T13:53:57.941Z</time></trkpt><trkpt lat="44.50438" lon="8.5021767"><ele>447.0</ele><time>2026-03-26T13:53:59.941Z</time></trkpt><trkpt lat="44.5044367" lon="8.5022433"><ele>446.5</ele><time>2026-03-26T13:54:01.94Z</time></trkpt><trkpt lat="44.504525" lon="8.5023283"><ele>446.0</ele><time>2026-03-26T13:54:03.94Z</time></trkpt><trkpt lat="44.5045883" lon="8.50237"><ele>445.50000000000006</ele><time>2026-03-26T13:54:05.941Z</time></trkpt><trkpt lat="44.5046633" lon="8.5023317"><ele>445.0</ele><time>2026-03-26T13:54:07.94Z</time></trkpt><trkpt lat="44.50476" lon="8.5022533"><ele>445.00000000000006</ele><time>2026-03-26T13:54:09.94Z</time></trkpt><trkpt lat="44.504845" lon="8.5021917"><ele>445.0</ele><time>2026-03-26T13:54:11.941Z</time></trkpt><trkpt lat="44.5048733" lon="8.5021117"><ele>445.0</ele><time>2026-03-26T13:54:13.94Z</time></trkpt><trkpt lat="44.50494" lon="8.5020867"><ele>445.0</ele><time>2026-03-26T13:54:16.94Z</time></trkpt><trkpt lat="44.5050267" lon="8.502105"><ele>445.00000000000006</ele><time>2026-03-26T13:54:18.94Z</time></trkpt><trkpt lat="44.505115" lon="8.5021217"><ele>445.0</ele><time>2026-03-26T13:54:20.94Z</time></trkpt><trkpt lat="44.5052067" lon="8.50214"><ele>445.00000000000006</ele><time>2026-03-26T13:54:22.94Z</time></trkpt><trkpt lat="44.5053433" lon="8.502165"><ele>445.0</ele><time>2026-03-26T13:54:24.941Z</time></trkpt><trkpt lat="44.5054383" lon="8.5021667"><ele>445.0</ele><time>2026-03-26T13:54:25.941Z</time></trkpt><trkpt lat="44.5055167" lon="8.5021733"><ele>445.0</ele><time>2026-03-26T13:54:26.94Z</time></trkpt><trkpt lat="44.5055883" lon="8.5021817"><ele>445.00000000000006</ele><time>2026-03-26T13:54:27.941Z</time></trkpt><trkpt lat="44.5056483" lon="8.5022117"><ele>445.0</ele><time>2026-03-26T13:54:28.941Z</time></trkpt><trkpt lat="44.5057117" lon="8.502245"><ele>444.14285714285717</ele><time>2026-03-26T13:54:29.94Z</time></trkpt><trkpt lat="44.5057767" lon="8.5022583"><ele>443.2857142857143</ele><time>2026-03-26T13:54:30.94Z</time></trkpt><trkpt lat="44.5058533" lon="8.5022367"><ele>442.42857142857144</ele><time>2026-03-26T13:54:31.94Z</time></trkpt><trkpt lat="44.5059283" lon="8.50221"><ele>441.57142857142856</ele><time>2026-03-26T13:54:32.94Z</time></trkpt><trkpt lat="44.506" lon="8.5021817"><ele>440.71428571428567</ele><time>2026-03-26T13:54:33.941Z</time></trkpt><trkpt lat="44.5060767" lon="8.50214"><ele>439.85714285714283</ele><time>2026-03-26T13:54:34.941Z</time></trkpt><trkpt lat="44.5061433" lon="8.5021067"><ele>439.0</ele><time>2026-03-26T13:54:35.941Z</time></trkpt><trkpt lat="44.5062067" lon="8.5020883"><ele>438.00000000000006</ele><time>2026-03-26T13:54:36.94Z</time></trkpt><trkpt lat="44.5063217" lon="8.50209"><ele>437.0</ele><time>2026-03-26T13:54:38.941Z</time></trkpt><trkpt lat="44.5063933" lon="8.5021033"><ele>436.0</ele><time>2026-03-26T13:54:39.941Z</time></trkpt><trkpt lat="44.5064683" lon="8.5021417"><ele>435.0</ele><time>2026-03-26T13:54:40.94Z</time></trkpt><trkpt lat="44.506535" lon="8.5021967"><ele>434.00000000000006</ele><time>2026-03-26T13:54:41.941Z</time></trkpt><trkpt lat="44.5065883" lon="8.5023233"><ele>433.0</ele><time>2026-03-26T13:54:43.94Z</time></trkpt><trkpt lat="44.5066" lon="8.5024683"><ele>432.99999999999994</ele><time>2026-03-26T13:54:45.94Z</time></trkpt><trkpt lat="44.506585" lon="8.5025667"><ele>433.0</ele><time>2026-03-26T13:54:46.941Z</time></trkpt><trkpt lat="44.506575" lon="8.5026667"><ele>433.0</ele><time>2026-03-26T13:54:47.941Z</time></trkpt><trkpt lat="44.5065667" lon="8.502765"><ele>433.0</ele><time>2026-03-26T13:54:48.941Z</time></trkpt><trkpt lat="44.5065533" lon="8.5028633"><ele>433.0</ele><time>2026-03-26T13:54:49.941Z</time></trkpt><trkpt lat="44.5065333" lon="8.5029483"><ele>432.99999999999994</ele><time>2026-03-26T13:54:50.941Z</time></trkpt><trkpt lat="44.5065083" lon="8.50306"><ele>433.0</ele><time>2026-03-26T13:54:52.941Z</time></trkpt><trkpt lat="44.5064983" lon="8.5031533"><ele>431.6666666666667</ele><time>2026-03-26T13:54:54.94Z</time></trkpt><trkpt lat="44.5065317" lon="8.5032467"><ele>430.33333333333337</ele><time>2026-03-26T13:54:56.94Z</time></trkpt><trkpt lat="44.5066" lon="8.5033283"><ele>429.0</ele><time>2026-03-26T13:54:58.941Z</time></trkpt><trkpt lat="44.506655" lon="8.5033767"><ele>427.66666666666663</ele><time>2026-03-26T13:55:00.941Z</time></trkpt><trkpt lat="44.5067017" lon="8.5034583"><ele>426.3333333333333</ele><time>2026-03-26T13:55:02.94Z</time></trkpt><trkpt lat="44.50671" lon="8.50358"><ele>425.0</ele><time>2026-03-26T13:55:04.941Z</time></trkpt><trkpt lat="44.5066717" lon="8.5037567"><ele>422.66666666666663</ele><time>2026-03-26T13:55:06.941Z</time></trkpt><trkpt lat="44.5066567" lon="8.5038633"><ele>420.3333333333333</ele><time>2026-03-26T13:55:07.94Z</time></trkpt><trkpt lat="44.506655" lon="8.5039817"><ele>418.0</ele><time>2026-03-26T13:55:08.941Z</time></trkpt><trkpt lat="44.5066517" lon="8.5041"><ele>415.66666666666663</ele><time>2026-03-26T13:55:09.94Z</time></trkpt><trkpt lat="44.50665" lon="8.5042117"><ele>413.3333333333333</ele><time>2026-03-26T13:55:10.94Z</time></trkpt><trkpt lat="44.506645" lon="8.5043467"><ele>411.0</ele><time>2026-03-26T13:55:12.941Z</time></trkpt><trkpt lat="44.50669" lon="8.5044583"><ele>411.0</ele><time>2026-03-26T13:55:15.941Z</time></trkpt><trkpt lat="44.5067417" lon="8.5045433"><ele>411.0</ele><time>2026-03-26T13:55:17.94Z</time></trkpt><trkpt lat="44.506785" lon="8.5046533"><ele>411.0</ele><time>2026-03-26T13:55:19.94Z</time></trkpt><trkpt lat="44.50683" lon="8.5047483"><ele>411.0</ele><time>2026-03-26T13:55:21.941Z</time></trkpt><trkpt lat="44.5069133" lon="8.50477"><ele>411.0</ele><time>2026-03-26T13:55:23.94Z</time></trkpt><trkpt lat="44.5070167" lon="8.5047683"><ele>411.0</ele><time>2026-03-26T13:55:25.94Z</time></trkpt><trkpt lat="44.5070967" lon="8.5047517"><ele>409.0</ele><time>2026-03-26T13:55:27.941Z</time></trkpt><trkpt lat="44.507205" lon="8.5047183"><ele>407.0</ele><time>2026-03-26T13:55:29.94Z</time></trkpt><trkpt lat="44.5073133" lon="8.5046917"><ele>405.0</ele><time>2026-03-26T13:55:31.941Z</time></trkpt><trkpt lat="44.5073783" lon="8.504685"><ele>403.0</ele><time>2026-03-26T13:55:33.941Z</time></trkpt><trkpt lat="44.507425" lon="8.5045933"><ele>401.0</ele><time>2026-03-26T13:55:39.94Z</time></trkpt><trkpt lat="44.5074567" lon="8.5045067"><ele>399.0</ele><time>2026-03-26T13:55:41.94Z</time></trkpt><trkpt lat="44.5075017" lon="8.5044117"><ele>398.2</ele><time>2026-03-26T13:55:44.941Z</time></trkpt><trkpt lat="44.507555" lon="8.5042867"><ele>397.4</ele><time>2026-03-26T13:55:59.941Z</time></trkpt><trkpt lat="44.5075933" lon="8.5042133"><ele>396.6</ele><time>2026-03-26T13:56:02.94Z</time></trkpt><trkpt lat="44.50768" lon="8.5041117"><ele>395.8</ele><time>2026-03-26T13:56:04.941Z</time></trkpt><trkpt lat="44.5077467" lon="8.5040683"><ele>395.0</ele><time>2026-03-26T13:56:05.941Z</time></trkpt><trkpt lat="44.5078367" lon="8.5039667"><ele>394.99999999999994</ele><time>2026-03-26T13:56:07.94Z</time></trkpt><trkpt lat="44.507885" lon="8.5038733"><ele>395.0</ele><time>2026-03-26T13:56:08.94Z</time></trkpt><trkpt lat="44.5079333" lon="8.5038033"><ele>395.0</ele><time>2026-03-26T13:56:09.94Z</time></trkpt><trkpt lat="44.5080067" lon="8.503675"><ele>395.0</ele><time>2026-03-26T13:56:11.941Z</time></trkpt><trkpt lat="44.50804" lon="8.5035567"><ele>394.99999999999994</ele><time>2026-03-26T13:56:13.94Z</time></trkpt><trkpt lat="44.5080617" lon="8.503455"><ele>395.0</ele><time>2026-03-26T13:56:15.94Z</time></trkpt><trkpt lat="44.5080733" lon="8.5033317"><ele>394.8</ele><time>2026-03-26T13:56:17.941Z</time></trkpt><trkpt lat="44.5080733" lon="8.5032067"><ele>394.6</ele><time>2026-03-26T13:56:19.941Z</time></trkpt><trkpt lat="44.508075" lon="8.5030833"><ele>394.4</ele><time>2026-03-26T13:56:22.94Z</time></trkpt><trkpt lat="44.50808" lon="8.50293"><ele>394.2</ele><time>2026-03-26T13:56:33.94Z</time></trkpt><trkpt lat="44.5081133" lon="8.5028317"><ele>394.0</ele><time>2026-03-26T13:56:38.94Z</time></trkpt><trkpt lat="44.5081417" lon="8.5027033"><ele>393.79999999999995</ele><time>2026-03-26T13:56:40.941Z</time></trkpt><trkpt lat="44.508145" lon="8.5025467"><ele>393.59999999999997</ele><time>2026-03-26T13:56:42.941Z</time></trkpt><trkpt lat="44.50816" lon="8.5023733"><ele>393.4</ele><time>2026-03-26T13:56:44.94Z</time></trkpt><trkpt lat="44.508175" lon="8.5022667"><ele>393.2</ele><time>2026-03-26T13:56:45.94Z</time></trkpt><trkpt lat="44.5081967" lon="8.5021667"><ele>393.0</ele><time>2026-03-26T13:56:46.94Z</time></trkpt><trkpt lat="44.50823" lon="8.5020767"><ele>392.59999999999997</ele><time>2026-03-26T13:56:47.94Z</time></trkpt><trkpt lat="44.5082683" lon="8.501915"><ele>392.2</ele><time>2026-03-26T13:56:49.941Z</time></trkpt><trkpt lat="44.5082767" lon="8.5017383"><ele>391.8</ele><time>2026-03-26T13:56:51.94Z</time></trkpt><trkpt lat="44.5082633" lon="8.50163"><ele>391.4</ele><time>2026-03-26T13:56:52.941Z</time></trkpt><trkpt lat="44.5082367" lon="8.50152"><ele>391.0</ele><time>2026-03-26T13:56:53.94Z</time></trkpt><trkpt lat="44.50822" lon="8.5014233"><ele>391.00000000000006</ele><time>2026-03-26T13:56:54.94Z</time></trkpt><trkpt lat="44.5082" lon="8.501335"><ele>391.0</ele><time>2026-03-26T13:56:55.941Z</time></trkpt><trkpt lat="44.5081783" lon="8.50116"><ele>391.0</ele><time>2026-03-26T13:56:57.94Z</time></trkpt><trkpt lat="44.508175" lon="8.5010667"><ele>391.0</ele><time>2026-03-26T13:56:58.941Z</time></trkpt><trkpt lat="44.5082" lon="8.5009033"><ele>391.00000000000006</ele><time>2026-03-26T13:57:00.94Z</time></trkpt><trkpt lat="44.5082317" lon="8.500825"><ele>391.0</ele><time>2026-03-26T13:57:01.941Z</time></trkpt><trkpt lat="44.5082833" lon="8.5006883"><ele>390.50000000000006</ele><time>2026-03-26T13:57:03.941Z</time></trkpt><trkpt lat="44.508345" lon="8.5006567"><ele>390.0</ele><time>2026-03-26T13:57:05.94Z</time></trkpt><trkpt lat="44.5084233" lon="8.5006417"><ele>389.5</ele><time>2026-03-26T13:57:07.94Z</time></trkpt><trkpt lat="44.5084933" lon="8.5005767"><ele>389.0</ele><time>2026-03-26T13:57:09.94Z</time></trkpt><trkpt lat="44.508555" lon="8.5004917"><ele>388.50000000000006</ele><time>2026-03-26T13:57:11.94Z</time></trkpt><trkpt lat="44.5086267" lon="8.5003817"><ele>388.0</ele><time>2026-03-26T13:57:13.941Z</time></trkpt><trkpt lat="44.5087" lon="8.5002483"><ele>390.0</ele><time>2026-03-26T13:57:15.941Z</time></trkpt><trkpt lat="44.5087517" lon="8.500195"><ele>392.0</ele><time>2026-03-26T13:57:16.94Z</time></trkpt><trkpt lat="44.508835" lon="8.5001267"><ele>394.0</ele><time>2026-03-26T13:57:18.941Z</time></trkpt><trkpt lat="44.5089167" lon="8.5000933"><ele>396.0</ele><time>2026-03-26T13:57:20.94Z</time></trkpt><trkpt lat="44.5089983" lon="8.5000017"><ele>398.0</ele><time>2026-03-26T13:57:22.94Z</time></trkpt><trkpt lat="44.509075" lon="8.49991"><ele>397.99999999999994</ele><time>2026-03-26T13:57:24.94Z</time></trkpt><trkpt lat="44.5092017" lon="8.49988"><ele>398.0</ele><time>2026-03-26T13:57:26.94Z</time></trkpt><trkpt lat="44.5092733" lon="8.49987"><ele>398.0</ele><time>2026-03-26T13:57:27.941Z</time></trkpt><trkpt lat="44.5093467" lon="8.4998283"><ele>398.0</ele><time>2026-03-26T13:57:28.941Z</time></trkpt><trkpt lat="44.509405" lon="8.4997633"><ele>397.99999999999994</ele><time>2026-03-26T13:57:29.94Z</time></trkpt><trkpt lat="44.5094483" lon="8.4996883"><ele>398.0</ele><time>2026-03-26T13:57:30.941Z</time></trkpt><trkpt lat="44.5095267" lon="8.49958"><ele>397.99999999999994</ele><time>2026-03-26T13:57:32.94Z</time></trkpt><trkpt lat="44.50958" lon="8.4995283"><ele>398.0</ele><time>2026-03-26T13:57:33.94Z</time></trkpt><trkpt lat="44.509665" lon="8.49942"><ele>398.0</ele><time>2026-03-26T13:57:35.941Z</time></trkpt><trkpt lat="44.5097233" lon="8.4992933"><ele>398.0</ele><time>2026-03-26T13:57:37.941Z</time></trkpt><trkpt lat="44.50977" lon="8.49922"><ele>397.99999999999994</ele><time>2026-03-26T13:57:39.94Z</time></trkpt><trkpt lat="44.5098367" lon="8.4992167"><ele>398.0</ele><time>2026-03-26T14:06:30.942Z</time></trkpt><trkpt lat="44.5099483" lon="8.4992417"><ele>397.99999999999994</ele><time>2026-03-26T14:06:32.941Z</time></trkpt><trkpt lat="44.5100333" lon="8.49928"><ele>398.0</ele><time>2026-03-26T14:06:34.942Z</time></trkpt><trkpt lat="44.51013" lon="8.4992767"><ele>398.0</ele><time>2026-03-26T14:06:36.941Z</time></trkpt><trkpt lat="44.51022" lon="8.4992933"><ele>398.0</ele><time>2026-03-26T14:06:38.942Z</time></trkpt><trkpt lat="44.5102933" lon="8.4993283"><ele>397.99999999999994</ele><time>2026-03-26T14:06:40.941Z</time></trkpt><trkpt lat="44.5103683" lon="8.49934"><ele>398.0</ele><time>2026-03-26T14:06:42.942Z</time></trkpt><trkpt lat="44.5104483" lon="8.4993233"><ele>398.16666666666663</ele><time>2026-03-26T14:06:44.942Z</time></trkpt><trkpt lat="44.5105267" lon="8.499305"><ele>398.3333333333333</ele><time>2026-03-26T14:06:46.941Z</time></trkpt><trkpt lat="44.5106" lon="8.499315"><ele>398.5</ele><time>2026-03-26T14:06:48.941Z</time></trkpt><trkpt lat="44.5106767" lon="8.4993617"><ele>398.66666666666663</ele><time>2026-03-26T14:06:50.941Z</time></trkpt><trkpt lat="44.51081" lon="8.4993817"><ele>398.8333333333333</ele><time>2026-03-26T14:06:52.942Z</time></trkpt><trkpt lat="44.5108833" lon="8.4993733"><ele>399.0</ele><time>2026-03-26T14:06:53.942Z</time></trkpt><trkpt lat="44.51099" lon="8.4993667"><ele>399.0</ele><time>2026-03-26T14:06:55.942Z</time></trkpt><trkpt lat="44.5110717" lon="8.499355"><ele>399.0</ele><time>2026-03-26T14:06:57.942Z</time></trkpt><trkpt lat="44.511165" lon="8.4993483"><ele>399.0</ele><time>2026-03-26T14:06:59.941Z</time></trkpt><trkpt lat="44.51125" lon="8.4993383"><ele>399.0</ele><time>2026-03-26T14:07:01.942Z</time></trkpt><trkpt lat="44.5113767" lon="8.49932"><ele>399.0</ele><time>2026-03-26T14:07:03.941Z</time></trkpt><trkpt lat="44.5114817" lon="8.4993633"><ele>401.0</ele><time>2026-03-26T14:07:05.941Z</time></trkpt><trkpt lat="44.5115817" lon="8.49944"><ele>403.0</ele><time>2026-03-26T14:07:07.941Z</time></trkpt><trkpt lat="44.5116817" lon="8.4994833"><ele>405.0</ele><time>2026-03-26T14:07:09.942Z</time></trkpt><trkpt lat="44.511745" lon="8.499485"><ele>407.0</ele><time>2026-03-26T14:07:10.941Z</time></trkpt><trkpt lat="44.5118133" lon="8.4994867"><ele>409.0</ele><time>2026-03-26T14:07:11.941Z</time></trkpt><trkpt lat="44.5119333" lon="8.4995083"><ele>409.00000000000006</ele><time>2026-03-26T14:07:13.941Z</time></trkpt><trkpt lat="44.5120133" lon="8.4995367"><ele>409.0</ele><time>2026-03-26T14:07:15.942Z</time></trkpt><trkpt lat="44.5120983" lon="8.4995683"><ele>409.0</ele><time>2026-03-26T14:07:17.942Z</time></trkpt><trkpt lat="44.5121483" lon="8.499645"><ele>409.0</ele><time>2026-03-26T14:07:19.941Z</time></trkpt><trkpt lat="44.5121783" lon="8.4997817"><ele>409.00000000000006</ele><time>2026-03-26T14:07:21.941Z</time></trkpt><trkpt lat="44.51216" lon="8.4998967"><ele>409.0</ele><time>2026-03-26T14:07:23.941Z</time></trkpt><trkpt lat="44.5120717" lon="8.50001"><ele>410.1666666666667</ele><time>2026-03-26T14:07:25.942Z</time></trkpt><trkpt lat="44.5120167" lon="8.5000683"><ele>411.33333333333337</ele><time>2026-03-26T14:07:26.942Z</time></trkpt><trkpt lat="44.5119533" lon="8.5001433"><ele>412.5</ele><time>2026-03-26T14:07:27.941Z</time></trkpt><trkpt lat="44.51189" lon="8.5002267"><ele>413.66666666666663</ele><time>2026-03-26T14:07:28.942Z</time></trkpt><trkpt lat="44.5118283" lon="8.5003167"><ele>414.8333333333333</ele><time>2026-03-26T14:07:29.941Z</time></trkpt><trkpt lat="44.511775" lon="8.5003883"><ele>416.0</ele><time>2026-03-26T14:07:30.942Z</time></trkpt><trkpt lat="44.5117283" lon="8.5004533"><ele>418.66666666666663</ele><time>2026-03-26T14:07:31.942Z</time></trkpt><trkpt lat="44.5116933" lon="8.500535"><ele>421.3333333333333</ele><time>2026-03-26T14:07:32.941Z</time></trkpt><trkpt lat="44.511655" lon="8.5006333"><ele>424.0</ele><time>2026-03-26T14:07:33.942Z</time></trkpt><trkpt lat="44.51162" lon="8.500735"><ele>426.66666666666663</ele><time>2026-03-26T14:07:34.941Z</time></trkpt><trkpt lat="44.5115817" lon="8.50083"><ele>429.3333333333333</ele><time>2026-03-26T14:07:35.942Z</time></trkpt><trkpt lat="44.5115367" lon="8.5009167"><ele>432.0</ele><time>2026-03-26T14:07:36.942Z</time></trkpt><trkpt lat="44.5114817" lon="8.50098"><ele>432.0</ele><time>2026-03-26T14:07:37.941Z</time></trkpt><trkpt lat="44.5114217" lon="8.50103"><ele>432.0</ele><time>2026-03-26T14:07:38.941Z</time></trkpt><trkpt lat="44.511365" lon="8.5010883"><ele>432.0</ele><time>2026-03-26T14:07:39.942Z</time></trkpt><trkpt lat="44.5113117" lon="8.50115"><ele>432.0</ele><time>2026-03-26T14:07:40.941Z</time></trkpt><trkpt lat="44.5112767" lon="8.5012267"><ele>432.0</ele><time>2026-03-26T14:07:41.941Z</time></trkpt><trkpt lat="44.5111867" lon="8.5013517"><ele>432.0</ele><time>2026-03-26T14:07:43.941Z</time></trkpt><trkpt lat="44.511085" lon="8.5014433"><ele>434.5</ele><time>2026-03-26T14:07:45.942Z</time></trkpt><trkpt lat="44.5110067" lon="8.5015233"><ele>437.0</ele><time>2026-03-26T14:07:47.941Z</time></trkpt><trkpt lat="44.5109417" lon="8.5016067"><ele>439.5</ele><time>2026-03-26T14:07:50.942Z</time></trkpt><trkpt lat="44.510885" lon="8.5017217"><ele>442.0</ele><time>2026-03-26T14:07:52.941Z</time></trkpt><trkpt lat="44.5108483" lon="8.5018217"><ele>444.5</ele><time>2026-03-26T14:07:54.941Z</time></trkpt><trkpt lat="44.5107983" lon="8.501905"><ele>447.0</ele><time>2026-03-26T14:07:56.941Z</time></trkpt><trkpt lat="44.5106917" lon="8.5020033"><ele>447.0</ele><time>2026-03-26T14:07:58.942Z</time></trkpt><trkpt lat="44.5106267" lon="8.50207"><ele>447.0</ele><time>2026-03-26T14:07:59.942Z</time></trkpt><trkpt lat="44.51056" lon="8.50214"><ele>447.0</ele><time>2026-03-26T14:08:00.942Z</time></trkpt><trkpt lat="44.5105067" lon="8.5022167"><ele>447.0</ele><time>2026-03-26T14:08:01.941Z</time></trkpt><trkpt lat="44.51046" lon="8.5022917"><ele>447.0</ele><time>2026-03-26T14:08:02.941Z</time></trkpt><trkpt lat="44.5104217" lon="8.5023733"><ele>447.0</ele><time>2026-03-26T14:08:03.941Z</time></trkpt><trkpt lat="44.510385" lon="8.5024567"><ele>445.1666666666667</ele><time>2026-03-26T14:08:04.942Z</time></trkpt><trkpt lat="44.5103467" lon="8.5025333"><ele>443.33333333333337</ele><time>2026-03-26T14:08:05.942Z</time></trkpt><trkpt lat="44.5103067" lon="8.5026017"><ele>441.5</ele><time>2026-03-26T14:08:06.941Z</time></trkpt><trkpt lat="44.5102033" lon="8.502715"><ele>439.6666666666667</ele><time>2026-03-26T14:08:08.942Z</time></trkpt><trkpt lat="44.5101433" lon="8.5027867"><ele>437.83333333333337</ele><time>2026-03-26T14:08:09.942Z</time></trkpt><trkpt lat="44.5100933" lon="8.5028467"><ele>436.0</ele><time>2026-03-26T14:08:10.941Z</time></trkpt><trkpt lat="44.5100467" lon="8.5029117"><ele>437.8</ele><time>2026-03-26T14:08:11.942Z</time></trkpt><trkpt lat="44.50998" lon="8.5030567"><ele>439.6</ele><time>2026-03-26T14:08:13.942Z</time></trkpt><trkpt lat="44.5099617" lon="8.503145"><ele>441.4</ele><time>2026-03-26T14:08:14.942Z</time></trkpt><trkpt lat="44.5099383" lon="8.5032917"><ele>443.2</ele><time>2026-03-26T14:08:16.942Z</time></trkpt><trkpt lat="44.509895" lon="8.50341"><ele>445.0</ele><time>2026-03-26T14:08:18.942Z</time></trkpt><trkpt lat="44.5098467" lon="8.50354"><ele>445.0</ele><time>2026-03-26T14:08:20.941Z</time></trkpt><trkpt lat="44.509825" lon="8.5036833"><ele>445.0</ele><time>2026-03-26T14:08:22.942Z</time></trkpt><trkpt lat="44.5098433" lon="8.5038133"><ele>445.0</ele><time>2026-03-26T14:08:24.941Z</time></trkpt><trkpt lat="44.509865" lon="8.5039567"><ele>445.0</ele><time>2026-03-26T14:08:26.942Z</time></trkpt><trkpt lat="44.5098717" lon="8.5041083"><ele>445.0</ele><time>2026-03-26T14:08:28.942Z</time></trkpt><trkpt lat="44.5098817" lon="8.5042783"><ele>446.4</ele><time>2026-03-26T14:08:30.942Z</time></trkpt><trkpt lat="44.5099" lon="8.5043717"><ele>447.8</ele><time>2026-03-26T14:08:31.942Z</time></trkpt><trkpt lat="44.5099467" lon="8.5045033"><ele>449.20000000000005</ele><time>2026-03-26T14:08:33.941Z</time></trkpt><trkpt lat="44.5099983" lon="8.504655"><ele>450.6</ele><time>2026-03-26T14:08:35.941Z</time></trkpt><trkpt lat="44.5100367" lon="8.50479"><ele>452.0</ele><time>2026-03-26T14:08:37.941Z</time></trkpt><trkpt lat="44.5100317" lon="8.5048917"><ele>453.16666666666663</ele><time>2026-03-26T14:08:39.942Z</time></trkpt><trkpt lat="44.5099483" lon="8.5049017"><ele>454.3333333333333</ele><time>2026-03-26T14:08:42.942Z</time></trkpt><trkpt lat="44.5098633" lon="8.5048267"><ele>455.5</ele><time>2026-03-26T14:08:44.942Z</time></trkpt><trkpt lat="44.50979" lon="8.5047633"><ele>456.66666666666663</ele><time>2026-03-26T14:08:46.941Z</time></trkpt><trkpt lat="44.5097083" lon="8.504735"><ele>457.8333333333333</ele><time>2026-03-26T14:08:48.942Z</time></trkpt><trkpt lat="44.509645" lon="8.5048133"><ele>459.0</ele><time>2026-03-26T14:08:52.941Z</time></trkpt><trkpt lat="44.5096383" lon="8.5049267"><ele>459.0</ele><time>2026-03-26T14:08:55.941Z</time></trkpt><trkpt lat="44.5096383" lon="8.5050817"><ele>459.0</ele><time>2026-03-26T14:08:57.941Z</time></trkpt><trkpt lat="44.5096433" lon="8.50517"><ele>459.0</ele><time>2026-03-26T14:08:58.941Z</time></trkpt><trkpt lat="44.50966" lon="8.505275"><ele>459.0</ele><time>2026-03-26T14:08:59.941Z</time></trkpt><trkpt lat="44.50968" lon="8.505375"><ele>459.0</ele><time>2026-03-26T14:09:00.941Z</time></trkpt><trkpt lat="44.509705" lon="8.505475"><ele>459.0</ele><time>2026-03-26T14:09:01.942Z</time></trkpt><trkpt lat="44.5097367" lon="8.5055617"><ele>460.6666666666667</ele><time>2026-03-26T14:09:02.942Z</time></trkpt><trkpt lat="44.50981" lon="8.5056883"><ele>462.33333333333337</ele><time>2026-03-26T14:09:04.942Z</time></trkpt><trkpt lat="44.5098083" lon="8.505815"><ele>464.0</ele><time>2026-03-26T14:09:07.941Z</time></trkpt><trkpt lat="44.5097917" lon="8.5059333"><ele>465.6666666666667</ele><time>2026-03-26T14:09:09.942Z</time></trkpt><trkpt lat="44.5097883" lon="8.506035"><ele>467.33333333333337</ele><time>2026-03-26T14:09:11.941Z</time></trkpt><trkpt lat="44.5098017" lon="8.5061433"><ele>469.0</ele><time>2026-03-26T14:09:13.941Z</time></trkpt><trkpt lat="44.50978" lon="8.50625"><ele>469.7142857142857</ele><time>2026-03-26T14:09:15.942Z</time></trkpt><trkpt lat="44.5097367" lon="8.50632"><ele>470.42857142857144</ele><time>2026-03-26T14:09:16.941Z</time></trkpt><trkpt lat="44.5096933" lon="8.506395"><ele>471.1428571428571</ele><time>2026-03-26T14:09:17.941Z</time></trkpt><trkpt lat="44.5096583" lon="8.5064733"><ele>471.85714285714283</ele><time>2026-03-26T14:09:18.941Z</time></trkpt><trkpt lat="44.5096283" lon="8.5065933"><ele>472.57142857142856</ele><time>2026-03-26T14:09:20.942Z</time></trkpt><trkpt lat="44.5096133" lon="8.5067017"><ele>473.2857142857142</ele><time>2026-03-26T14:09:22.942Z</time></trkpt><trkpt lat="44.509575" lon="8.506795"><ele>473.99999999999994</ele><time>2026-03-26T14:09:24.942Z</time></trkpt><trkpt lat="44.5095183" lon="8.506885"><ele>474.1428571428571</ele><time>2026-03-26T14:09:27.941Z</time></trkpt><trkpt lat="44.509515" lon="8.5069767"><ele>474.2857142857143</ele><time>2026-03-26T14:09:30.942Z</time></trkpt><trkpt lat="44.5095483" lon="8.5070717"><ele>474.42857142857144</ele><time>2026-03-26T14:09:33.941Z</time></trkpt><trkpt lat="44.50955" lon="8.50716"><ele>474.57142857142856</ele><time>2026-03-26T14:09:35.942Z</time></trkpt><trkpt lat="44.509555" lon="8.5072583"><ele>474.7142857142858</ele><time>2026-03-26T14:09:37.941Z</time></trkpt><trkpt lat="44.5095783" lon="8.5073783"><ele>474.8571428571429</ele><time>2026-03-26T14:09:39.942Z</time></trkpt><trkpt lat="44.509615" lon="8.5074783"><ele>475.0</ele><time>2026-03-26T14:09:41.942Z</time></trkpt><trkpt lat="44.509655" lon="8.507575"><ele>475.0</ele><time>2026-03-26T14:09:44.942Z</time></trkpt><trkpt lat="44.509745" lon="8.507745"><ele>475.0</ele><time>2026-03-26T14:09:53.942Z</time></trkpt><trkpt lat="44.50981" lon="8.50786"><ele>475.0</ele><time>2026-03-26T14:09:55.942Z</time></trkpt><trkpt lat="44.50984" lon="8.507995"><ele>475.0</ele><time>2026-03-26T14:09:57.942Z</time></trkpt><trkpt lat="44.5098333" lon="8.50814"><ele>474.0</ele><time>2026-03-26T14:09:59.941Z</time></trkpt><trkpt lat="44.5098067" lon="8.5082433"><ele>473.0</ele><time>2026-03-26T14:10:01.942Z</time></trkpt><trkpt lat="44.5098083" lon="8.508365"><ele>472.0</ele><time>2026-03-26T14:10:05.941Z</time></trkpt><trkpt lat="44.5098433" lon="8.5084667"><ele>471.0</ele><time>2026-03-26T14:10:14.942Z</time></trkpt><trkpt lat="44.509905" lon="8.5085783"><ele>470.0</ele><time>2026-03-26T14:10:16.942Z</time></trkpt><trkpt lat="44.5099767" lon="8.508695"><ele>466.2</ele><time>2026-03-26T14:10:18.941Z</time></trkpt><trkpt lat="44.51002" lon="8.5088367"><ele>462.4</ele><time>2026-03-26T14:10:20.942Z</time></trkpt><trkpt lat="44.5100533" lon="8.5089133"><ele>458.6</ele><time>2026-03-26T14:10:21.941Z</time></trkpt><trkpt lat="44.5100933" lon="8.5089933"><ele>454.8</ele><time>2026-03-26T14:10:22.941Z</time></trkpt><trkpt lat="44.5101533" lon="8.50912"><ele>451.0</ele><time>2026-03-26T14:10:24.942Z</time></trkpt><trkpt lat="44.5102267" lon="8.5092433"><ele>451.00000000000006</ele><time>2026-03-26T14:10:26.941Z</time></trkpt><trkpt lat="44.5102733" lon="8.5093067"><ele>451.0</ele><time>2026-03-26T14:10:27.941Z</time></trkpt><trkpt lat="44.5103467" lon="8.5094"><ele>451.0</ele><time>2026-03-26T14:10:29.942Z</time></trkpt><trkpt lat="44.510385" lon="8.5094983"><ele>451.0</ele><time>2026-03-26T14:10:31.941Z</time></trkpt><trkpt lat="44.5104317" lon="8.5095817"><ele>451.00000000000006</ele><time>2026-03-26T14:10:33.942Z</time></trkpt><trkpt lat="44.5104467" lon="8.5097183"><ele>451.0</ele><time>2026-03-26T14:10:36.941Z</time></trkpt><trkpt lat="44.5104167" lon="8.5098467"><ele>448.33333333333337</ele><time>2026-03-26T14:10:38.942Z</time></trkpt><trkpt lat="44.5103883" lon="8.5099283"><ele>445.6666666666667</ele><time>2026-03-26T14:10:39.941Z</time></trkpt><trkpt lat="44.51036" lon="8.5100083"><ele>443.0</ele><time>2026-03-26T14:10:40.941Z</time></trkpt><trkpt lat="44.51035" lon="8.5101317"><ele>440.33333333333337</ele><time>2026-03-26T14:10:42.941Z</time></trkpt><trkpt lat="44.5104" lon="8.5102217"><ele>437.6666666666667</ele><time>2026-03-26T14:10:44.942Z</time></trkpt><trkpt lat="44.5104683" lon="8.5102667"><ele>435.0</ele><time>2026-03-26T14:10:46.941Z</time></trkpt><trkpt lat="44.5105067" lon="8.5103617"><ele>442.4</ele><time>2026-03-26T14:10:49.941Z</time></trkpt><trkpt lat="44.5105183" lon="8.51045"><ele>449.8</ele><time>2026-03-26T14:10:51.941Z</time></trkpt><trkpt lat="44.5104983" lon="8.5105767"><ele>457.20000000000005</ele><time>2026-03-26T14:10:54.941Z</time></trkpt><trkpt lat="44.5104817" lon="8.510695"><ele>464.6</ele><time>2026-03-26T14:10:56.942Z</time></trkpt><trkpt lat="44.510525" lon="8.5108433"><ele>472.0</ele><time>2026-03-26T14:10:58.941Z</time></trkpt><trkpt lat="44.5105583" lon="8.5109683"><ele>472.00000000000006</ele><time>2026-03-26T14:11:00.941Z</time></trkpt><trkpt lat="44.5105233" lon="8.51107"><ele>472.0</ele><time>2026-03-26T14:11:02.941Z</time></trkpt><trkpt lat="44.5104533" lon="8.5111467"><ele>472.0</ele><time>2026-03-26T14:11:04.942Z</time></trkpt><trkpt lat="44.5104233" lon="8.5112483"><ele>472.0</ele><time>2026-03-26T14:11:06.941Z</time></trkpt><trkpt lat="44.5104" lon="8.51143"><ele>472.00000000000006</ele><time>2026-03-26T14:11:08.941Z</time></trkpt><trkpt lat="44.51038" lon="8.511515"><ele>472.0</ele><time>2026-03-26T14:11:09.942Z</time></trkpt><trkpt lat="44.5103383" lon="8.5116533"><ele>466.8</ele><time>2026-03-26T14:11:11.942Z</time></trkpt><trkpt lat="44.510325" lon="8.5118083"><ele>461.6</ele><time>2026-03-26T14:11:13.941Z</time></trkpt><trkpt lat="44.5103283" lon="8.511955"><ele>456.40000000000003</ele><time>2026-03-26T14:11:15.941Z</time></trkpt><trkpt lat="44.5103317" lon="8.5120983"><ele>451.20000000000005</ele><time>2026-03-26T14:11:17.942Z</time></trkpt><trkpt lat="44.510345" lon="8.512215"><ele>446.0</ele><time>2026-03-26T14:11:19.941Z</time></trkpt><trkpt lat="44.5103617" lon="8.5123033"><ele>445.99999999999994</ele><time>2026-03-26T14:11:22.942Z</time></trkpt><trkpt lat="44.5103583" lon="8.5124167"><ele>446.0</ele><time>2026-03-26T14:11:32.941Z</time></trkpt><trkpt lat="44.510325" lon="8.512495"><ele>446.0</ele><time>2026-03-26T14:11:35.942Z</time></trkpt><trkpt lat="44.5102767" lon="8.5125917"><ele>446.0</ele><time>2026-03-26T14:11:37.941Z</time></trkpt><trkpt lat="44.5102117" lon="8.512695"><ele>445.99999999999994</ele><time>2026-03-26T14:11:39.941Z</time></trkpt><trkpt lat="44.510125" lon="8.51277"><ele>446.0</ele><time>2026-03-26T14:11:41.941Z</time></trkpt><trkpt lat="44.5100733" lon="8.51283"><ele>446.66666666666663</ele><time>2026-03-26T14:11:43.941Z</time></trkpt><trkpt lat="44.5100467" lon="8.5129167"><ele>447.3333333333333</ele><time>2026-03-26T14:11:45.942Z</time></trkpt><trkpt lat="44.5100467" lon="8.5130233"><ele>448.0</ele><time>2026-03-26T14:11:47.941Z</time></trkpt><trkpt lat="44.5100867" lon="8.5131233"><ele>448.66666666666663</ele><time>2026-03-26T14:11:49.941Z</time></trkpt><trkpt lat="44.51014" lon="8.51319"><ele>449.3333333333333</ele><time>2026-03-26T14:11:51.941Z</time></trkpt><trkpt lat="44.5101767" lon="8.5132667"><ele>450.0</ele><time>2026-03-26T14:11:53.941Z</time></trkpt><trkpt lat="44.5101817" lon="8.5133917"><ele>450.0</ele><time>2026-03-26T14:11:55.942Z</time></trkpt><trkpt lat="44.5101883" lon="8.513545"><ele>450.0</ele><time>2026-03-26T14:11:57.942Z</time></trkpt><trkpt lat="44.5102017" lon="8.5136667"><ele>450.0</ele><time>2026-03-26T14:12:00.942Z</time></trkpt><trkpt lat="44.5101967" lon="8.5137717"><ele>450.0</ele><time>2026-03-26T14:12:04.941Z</time></trkpt><trkpt lat="44.5101917" lon="8.5138767"><ele>450.0</ele><time>2026-03-26T14:12:06.942Z</time></trkpt><trkpt lat="44.5101667" lon="8.513985"><ele>450.0</ele><time>2026-03-26T14:12:08.942Z</time></trkpt><trkpt lat="44.51013" lon="8.5140583"><ele>451.5</ele><time>2026-03-26T14:12:10.942Z</time></trkpt><trkpt lat="44.5100733" lon="8.5141883"><ele>453.0</ele><time>2026-03-26T14:12:12.942Z</time></trkpt><trkpt lat="44.5100467" lon="8.5143117"><ele>454.5</ele><time>2026-03-26T14:12:14.941Z</time></trkpt><trkpt lat="44.51006" lon="8.5144283"><ele>456.0</ele><time>2026-03-26T14:12:16.942Z</time></trkpt><trkpt lat="44.5100817" lon="8.514545"><ele>457.5</ele><time>2026-03-26T14:12:18.941Z</time></trkpt><trkpt lat="44.5100883" lon="8.51465"><ele>459.0</ele><time>2026-03-26T14:12:20.942Z</time></trkpt><trkpt lat="44.510085" lon="8.514755"><ele>459.7142857142857</ele><time>2026-03-26T14:12:23.941Z</time></trkpt><trkpt lat="44.5100917" lon="8.514875"><ele>460.42857142857144</ele><time>2026-03-26T14:12:25.942Z</time></trkpt><trkpt lat="44.510095" lon="8.51497"><ele>461.14285714285717</ele><time>2026-03-26T14:12:26.942Z</time></trkpt><trkpt lat="44.5101033" lon="8.5150683"><ele>461.8571428571429</ele><time>2026-03-26T14:12:27.941Z</time></trkpt><trkpt lat="44.510115" lon="8.5151767"><ele>462.57142857142856</ele><time>2026-03-26T14:12:28.941Z</time></trkpt><trkpt lat="44.510125" lon="8.5152817"><ele>463.28571428571433</ele><time>2026-03-26T14:12:29.942Z</time></trkpt><trkpt lat="44.5101267" lon="8.5153717"><ele>464.00000000000006</ele><time>2026-03-26T14:12:30.941Z</time></trkpt><trkpt lat="44.510105" lon="8.5155433"><ele>464.3333333333333</ele><time>2026-03-26T14:12:32.941Z</time></trkpt><trkpt lat="44.51008" lon="8.515625"><ele>464.66666666666663</ele><time>2026-03-26T14:12:33.942Z</time></trkpt><trkpt lat="44.51003" lon="8.5157383"><ele>465.0</ele><time>2026-03-26T14:12:35.942Z</time></trkpt><trkpt lat="44.509975" lon="8.51582"><ele>465.33333333333337</ele><time>2026-03-26T14:12:37.942Z</time></trkpt><trkpt lat="44.509925" lon="8.5159167"><ele>465.6666666666667</ele><time>2026-03-26T14:12:39.942Z</time></trkpt><trkpt lat="44.5098333" lon="8.5160267"><ele>466.0</ele><time>2026-03-26T14:12:41.942Z</time></trkpt><trkpt lat="44.50978" lon="8.516085"><ele>466.00000000000006</ele><time>2026-03-26T14:12:42.941Z</time></trkpt><trkpt lat="44.5097183" lon="8.5161467"><ele>466.0</ele><time>2026-03-26T14:12:43.941Z</time></trkpt><trkpt lat="44.50965" lon="8.5162133"><ele>466.0</ele><time>2026-03-26T14:12:44.941Z</time></trkpt><trkpt lat="44.5096" lon="8.5162783"><ele>466.0</ele><time>2026-03-26T14:12:45.942Z</time></trkpt><trkpt lat="44.5095533" lon="8.5163533"><ele>466.00000000000006</ele><time>2026-03-26T14:12:46.942Z</time></trkpt><trkpt lat="44.5095067" lon="8.5164433"><ele>466.0</ele><time>2026-03-26T14:12:47.941Z</time></trkpt><trkpt lat="44.5094617" lon="8.5165417"><ele>465.6666666666667</ele><time>2026-03-26T14:12:48.941Z</time></trkpt><trkpt lat="44.5094133" lon="8.51664"><ele>465.33333333333337</ele><time>2026-03-26T14:12:49.942Z</time></trkpt><trkpt lat="44.50938" lon="8.5167317"><ele>465.0</ele><time>2026-03-26T14:12:50.941Z</time></trkpt><trkpt lat="44.5093533" lon="8.51685"><ele>464.66666666666663</ele><time>2026-03-26T14:12:52.942Z</time></trkpt><trkpt lat="44.509305" lon="8.516935"><ele>464.3333333333333</ele><time>2026-03-26T14:12:55.941Z</time></trkpt><trkpt lat="44.5092617" lon="8.5170033"><ele>464.0</ele><time>2026-03-26T14:12:58.942Z</time></trkpt><trkpt lat="44.5092067" lon="8.5170467"><ele>463.99999999999994</ele><time>2026-03-26T14:13:03.941Z</time></trkpt><trkpt lat="44.5092133" lon="8.51695"><ele>464.0</ele><time>2026-03-26T14:13:55.942Z</time></trkpt><trkpt lat="44.5091633" lon="8.5168767"><ele>464.0</ele><time>2026-03-26T14:13:58.941Z</time></trkpt><trkpt lat="44.5091567" lon="8.5167317"><ele>464.0</ele><time>2026-03-26T14:17:38.942Z</time></trkpt><trkpt lat="44.5091683" lon="8.5166333"><ele>463.99999999999994</ele><time>2026-03-26T14:17:39.941Z</time></trkpt><trkpt lat="44.5091883" lon="8.5165"><ele>464.0</ele><time>2026-03-26T14:17:40.941Z</time></trkpt><trkpt lat="44.509205" lon="8.5163833"><ele>463.99999999999994</ele><time>2026-03-26T14:17:41.942Z</time></trkpt><trkpt lat="44.5092033" lon="8.51629"><ele>464.0</ele><time>2026-03-26T14:17:42.941Z</time></trkpt><trkpt lat="44.509185" lon="8.5161417"><ele>464.0</ele><time>2026-03-26T14:17:44.942Z</time></trkpt><trkpt lat="44.50918" lon="8.51605"><ele>464.0</ele><time>2026-03-26T14:17:45.942Z</time></trkpt><trkpt lat="44.5091567" lon="8.5159117"><ele>463.99999999999994</ele><time>2026-03-26T14:17:47.942Z</time></trkpt><trkpt lat="44.5091167" lon="8.5158433"><ele>464.0</ele><time>2026-03-26T14:17:49.943Z</time></trkpt><trkpt lat="44.5090883" lon="8.5157233"><ele>465.2</ele><time>2026-03-26T14:17:51.943Z</time></trkpt><trkpt lat="44.5091133" lon="8.51557"><ele>466.4</ele><time>2026-03-26T14:17:53.943Z</time></trkpt><trkpt lat="44.5091467" lon="8.5154917"><ele>467.6</ele><time>2026-03-26T14:17:54.943Z</time></trkpt><trkpt lat="44.5092133" lon="8.5153483"><ele>468.8</ele><time>2026-03-26T14:17:56.942Z</time></trkpt><trkpt lat="44.5092" lon="8.5151867"><ele>470.0</ele><time>2026-03-26T14:17:58.943Z</time></trkpt><trkpt lat="44.5091533" lon="8.5150767"><ele>471.4</ele><time>2026-03-26T14:18:00.942Z</time></trkpt><trkpt lat="44.509095" lon="8.5150333"><ele>472.8</ele><time>2026-03-26T14:18:03.942Z</time></trkpt><trkpt lat="44.50899" lon="8.5150283"><ele>474.20000000000005</ele><time>2026-03-26T14:18:06.942Z</time></trkpt><trkpt lat="44.5089283" lon="8.5150967"><ele>475.6</ele><time>2026-03-26T14:18:09.943Z</time></trkpt><trkpt lat="44.508875" lon="8.5152383"><ele>477.0</ele><time>2026-03-26T14:18:11.943Z</time></trkpt><trkpt lat="44.508775" lon="8.5153267"><ele>479.6666666666667</ele><time>2026-03-26T14:18:13.942Z</time></trkpt><trkpt lat="44.5086867" lon="8.5152883"><ele>482.33333333333337</ele><time>2026-03-26T14:18:15.942Z</time></trkpt><trkpt lat="44.5086317" lon="8.5151617"><ele>485.0</ele><time>2026-03-26T14:18:17.942Z</time></trkpt><trkpt lat="44.5086033" lon="8.5150767"><ele>487.6666666666667</ele><time>2026-03-26T14:18:18.943Z</time></trkpt><trkpt lat="44.50856" lon="8.5149917"><ele>490.33333333333337</ele><time>2026-03-26T14:18:19.943Z</time></trkpt><trkpt lat="44.508515" lon="8.514925"><ele>493.0</ele><time>2026-03-26T14:18:20.943Z</time></trkpt><trkpt lat="44.5084" lon="8.5148367"><ele>493.0</ele><time>2026-03-26T14:18:22.942Z</time></trkpt><trkpt lat="44.508335" lon="8.5148017"><ele>493.0</ele><time>2026-03-26T14:18:23.942Z</time></trkpt><trkpt lat="44.5082633" lon="8.5147683"><ele>493.0</ele><time>2026-03-26T14:18:24.942Z</time></trkpt><trkpt lat="44.50819" lon="8.5147367"><ele>493.0</ele><time>2026-03-26T14:18:25.943Z</time></trkpt><trkpt lat="44.5081233" lon="8.5147183"><ele>493.0</ele><time>2026-03-26T14:18:26.942Z</time></trkpt><trkpt lat="44.5080517" lon="8.51474"><ele>493.0</ele><time>2026-03-26T14:18:28.943Z</time></trkpt><trkpt lat="44.5080517" lon="8.5148367"><ele>493.0</ele><time>2026-03-26T14:18:33.943Z</time></trkpt><trkpt lat="44.5080383" lon="8.51502"><ele>493.0</ele><time>2026-03-26T14:18:35.943Z</time></trkpt><trkpt lat="44.508035" lon="8.51511"><ele>492.99999999999994</ele><time>2026-03-26T14:18:36.942Z</time></trkpt><trkpt lat="44.508" lon="8.5152267"><ele>492.99999999999994</ele><time>2026-03-26T14:18:38.943Z</time></trkpt><trkpt lat="44.507945" lon="8.5153283"><ele>493.0</ele><time>2026-03-26T14:18:40.943Z</time></trkpt><trkpt lat="44.5078533" lon="8.5154617"><ele>493.0</ele><time>2026-03-26T14:18:42.942Z</time></trkpt><trkpt lat="44.5077967" lon="8.5155533"><ele>494.83333333333337</ele><time>2026-03-26T14:18:43.943Z</time></trkpt><trkpt lat="44.507745" lon="8.5156467"><ele>496.6666666666667</ele><time>2026-03-26T14:18:44.942Z</time></trkpt><trkpt lat="44.5076867" lon="8.5157267"><ele>498.5</ele><time>2026-03-26T14:18:45.943Z</time></trkpt><trkpt lat="44.507635" lon="8.5157867"><ele>500.33333333333337</ele><time>2026-03-26T14:18:46.942Z</time></trkpt><trkpt lat="44.5075683" lon="8.5158383"><ele>502.1666666666667</ele><time>2026-03-26T14:18:47.943Z</time></trkpt><trkpt lat="44.507495" lon="8.5159"><ele>504.0</ele><time>2026-03-26T14:18:48.942Z</time></trkpt><trkpt lat="44.5074183" lon="8.516"><ele>504.0</ele><time>2026-03-26T14:18:49.943Z</time></trkpt><trkpt lat="44.5073317" lon="8.5161167"><ele>504.0</ele><time>2026-03-26T14:18:50.943Z</time></trkpt><trkpt lat="44.5072367" lon="8.516235"><ele>504.0</ele><time>2026-03-26T14:18:51.943Z</time></trkpt><trkpt lat="44.5071433" lon="8.51636"><ele>504.0</ele><time>2026-03-26T14:18:52.942Z</time></trkpt><trkpt lat="44.5070533" lon="8.5164667"><ele>505.4</ele><time>2026-03-26T14:18:53.943Z</time></trkpt><trkpt lat="44.5069783" lon="8.5165533"><ele>506.79999999999995</ele><time>2026-03-26T14:18:54.942Z</time></trkpt><trkpt lat="44.506915" lon="8.5166133"><ele>508.20000000000005</ele><time>2026-03-26T14:18:55.942Z</time></trkpt><trkpt lat="44.5068583" lon="8.5166667"><ele>509.6</ele><time>2026-03-26T14:18:56.943Z</time></trkpt><trkpt lat="44.5067567" lon="8.51677"><ele>511.0</ele><time>2026-03-26T14:18:58.942Z</time></trkpt><trkpt lat="44.5066867" lon="8.5168367"><ele>511.00000000000006</ele><time>2026-03-26T14:18:59.942Z</time></trkpt><trkpt lat="44.50662" lon="8.5168967"><ele>511.0</ele><time>2026-03-26T14:19:00.942Z</time></trkpt><trkpt lat="44.506565" lon="8.516965"><ele>511.0</ele><time>2026-03-26T14:19:01.943Z</time></trkpt><trkpt lat="44.50651" lon="8.5170667"><ele>511.0</ele><time>2026-03-26T14:19:02.943Z</time></trkpt><trkpt lat="44.5064583" lon="8.5171783"><ele>511.00000000000006</ele><time>2026-03-26T14:19:03.943Z</time></trkpt><trkpt lat="44.5064133" lon="8.5172883"><ele>511.0</ele><time>2026-03-26T14:19:04.943Z</time></trkpt><trkpt lat="44.5063833" lon="8.5173817"><ele>512.2</ele><time>2026-03-26T14:19:05.942Z</time></trkpt><trkpt lat="44.50638" lon="8.5175567"><ele>513.4000000000001</ele><time>2026-03-26T14:19:07.943Z</time></trkpt><trkpt lat="44.5064117" lon="8.5176683"><ele>514.6</ele><time>2026-03-26T14:19:08.943Z</time></trkpt><trkpt lat="44.50643" lon="8.5177967"><ele>515.8000000000001</ele><time>2026-03-26T14:19:09.942Z</time></trkpt><trkpt lat="44.506445" lon="8.5179217"><ele>517.0</ele><time>2026-03-26T14:19:10.943Z</time></trkpt><trkpt lat="44.506435" lon="8.5180417"><ele>517.4</ele><time>2026-03-26T14:19:11.942Z</time></trkpt><trkpt lat="44.5063983" lon="8.518135"><ele>517.8000000000001</ele><time>2026-03-26T14:19:12.942Z</time></trkpt><trkpt lat="44.5063017" lon="8.5181617"><ele>518.2</ele><time>2026-03-26T14:19:14.943Z</time></trkpt><trkpt lat="44.5062017" lon="8.51807"><ele>518.6</ele><time>2026-03-26T14:19:16.942Z</time></trkpt><trkpt lat="44.5060767" lon="8.518055"><ele>519.0</ele><time>2026-03-26T14:19:18.942Z</time></trkpt><trkpt lat="44.5059967" lon="8.5180783"><ele>522.2</ele><time>2026-03-26T14:19:19.943Z</time></trkpt><trkpt lat="44.5059" lon="8.5181317"><ele>525.4</ele><time>2026-03-26T14:19:20.943Z</time></trkpt><trkpt lat="44.505815" lon="8.5181667"><ele>528.6</ele><time>2026-03-26T14:19:21.943Z</time></trkpt><trkpt lat="44.5057433" lon="8.5181983"><ele>531.8</ele><time>2026-03-26T14:19:22.943Z</time></trkpt><trkpt lat="44.5056517" lon="8.5182367"><ele>535.0</ele><time>2026-03-26T14:19:23.942Z</time></trkpt><trkpt lat="44.50555" lon="8.5182833"><ele>535.0</ele><time>2026-03-26T14:19:24.943Z</time></trkpt><trkpt lat="44.50545" lon="8.5183483"><ele>535.0</ele><time>2026-03-26T14:19:25.943Z</time></trkpt><trkpt lat="44.50538" lon="8.5184283"><ele>535.0</ele><time>2026-03-26T14:19:26.943Z</time></trkpt><trkpt lat="44.5053183" lon="8.5185417"><ele>535.0</ele><time>2026-03-26T14:19:27.942Z</time></trkpt><trkpt lat="44.5052667" lon="8.5186617"><ele>535.0</ele><time>2026-03-26T14:19:28.942Z</time></trkpt><trkpt lat="44.5052133" lon="8.518785"><ele>534.3333333333334</ele><time>2026-03-26T14:19:29.942Z</time></trkpt><trkpt lat="44.5051683" lon="8.51889"><ele>533.6666666666667</ele><time>2026-03-26T14:19:30.942Z</time></trkpt><trkpt lat="44.50514" lon="8.5189867"><ele>533.0</ele><time>2026-03-26T14:19:31.942Z</time></trkpt><trkpt lat="44.505115" lon="8.5190817"><ele>532.3333333333334</ele><time>2026-03-26T14:19:33.943Z</time></trkpt><trkpt lat="44.5051117" lon="8.5191783"><ele>531.6666666666666</ele><time>2026-03-26T14:19:36.942Z</time></trkpt><trkpt lat="44.5050967" lon="8.5192817"><ele>531.0</ele><time>2026-03-26T14:19:38.943Z</time></trkpt><trkpt lat="44.50505" lon="8.519405"><ele>531.0</ele><time>2026-03-26T14:19:40.942Z</time></trkpt><trkpt lat="44.5050083" lon="8.5195133"><ele>531.0</ele><time>2026-03-26T14:19:42.942Z</time></trkpt><trkpt lat="44.50497" lon="8.51966"><ele>531.0</ele><time>2026-03-26T14:19:44.943Z</time></trkpt><trkpt lat="44.5049567" lon="8.5197667"><ele>531.0</ele><time>2026-03-26T14:19:45.943Z</time></trkpt><trkpt lat="44.504945" lon="8.51988"><ele>531.0</ele><time>2026-03-26T14:19:46.942Z</time></trkpt><trkpt lat="44.5049367" lon="8.5199967"><ele>531.0</ele><time>2026-03-26T14:19:47.942Z</time></trkpt><trkpt lat="44.50493" lon="8.520105"><ele>530.8333333333334</ele><time>2026-03-26T14:19:48.943Z</time></trkpt><trkpt lat="44.5049417" lon="8.5201983"><ele>530.6666666666666</ele><time>2026-03-26T14:19:49.942Z</time></trkpt><trkpt lat="44.50499" lon="8.520345"><ele>530.5</ele><time>2026-03-26T14:19:51.942Z</time></trkpt><trkpt lat="44.5049433" lon="8.5204367"><ele>530.3333333333333</ele><time>2026-03-26T14:19:53.942Z</time></trkpt><trkpt lat="44.5048717" lon="8.5204483"><ele>530.1666666666666</ele><time>2026-03-26T14:19:54.942Z</time></trkpt><trkpt lat="44.5047833" lon="8.52045"><ele>530.0</ele><time>2026-03-26T14:19:55.943Z</time></trkpt><trkpt lat="44.5046783" lon="8.52048"><ele>530.2</ele><time>2026-03-26T14:19:56.942Z</time></trkpt><trkpt lat="44.504575" lon="8.52052"><ele>530.4</ele><time>2026-03-26T14:19:57.942Z</time></trkpt><trkpt lat="44.5044817" lon="8.5205533"><ele>530.6</ele><time>2026-03-26T14:19:58.942Z</time></trkpt><trkpt lat="44.5043983" lon="8.5205717"><ele>530.8</ele><time>2026-03-26T14:19:59.943Z</time></trkpt><trkpt lat="44.5043083" lon="8.52059"><ele>531.0</ele><time>2026-03-26T14:20:00.942Z</time></trkpt><trkpt lat="44.5042267" lon="8.5206"><ele>531.0</ele><time>2026-03-26T14:20:01.942Z</time></trkpt><trkpt lat="44.5041383" lon="8.5206267"><ele>531.0</ele><time>2026-03-26T14:20:02.942Z</time></trkpt><trkpt lat="44.5040567" lon="8.5206367"><ele>531.0</ele><time>2026-03-26T14:20:03.942Z</time></trkpt><trkpt lat="44.5039617" lon="8.520665"><ele>531.0</ele><time>2026-03-26T14:20:04.942Z</time></trkpt><trkpt lat="44.5038583" lon="8.520685"><ele>531.0</ele><time>2026-03-26T14:20:05.942Z</time></trkpt><trkpt lat="44.5037567" lon="8.5206917"><ele>528.6</ele><time>2026-03-26T14:20:06.943Z</time></trkpt><trkpt lat="44.5036633" lon="8.520685"><ele>526.2</ele><time>2026-03-26T14:20:07.943Z</time></trkpt><trkpt lat="44.5035867" lon="8.52068"><ele>523.8</ele><time>2026-03-26T14:20:08.942Z</time></trkpt><trkpt lat="44.503475" lon="8.5207583"><ele>521.4</ele><time>2026-03-26T14:20:10.943Z</time></trkpt><trkpt lat="44.5034133" lon="8.5208767"><ele>519.0</ele><time>2026-03-26T14:20:11.942Z</time></trkpt><trkpt lat="44.5033483" lon="8.5210217"><ele>519.0</ele><time>2026-03-26T14:20:12.942Z</time></trkpt><trkpt lat="44.503275" lon="8.5211683"><ele>519.0</ele><time>2026-03-26T14:20:13.943Z</time></trkpt><trkpt lat="44.5032083" lon="8.5212917"><ele>519.0</ele><time>2026-03-26T14:20:14.943Z</time></trkpt><trkpt lat="44.5031433" lon="8.5213833"><ele>519.0</ele><time>2026-03-26T14:20:15.943Z</time></trkpt><trkpt lat="44.503065" lon="8.521425"><ele>519.0</ele><time>2026-03-26T14:20:16.942Z</time></trkpt><trkpt lat="44.5029667" lon="8.5214417"><ele>517.6666666666666</ele><time>2026-03-26T14:20:17.943Z</time></trkpt><trkpt lat="44.5028767" lon="8.52146"><ele>516.3333333333334</ele><time>2026-03-26T14:20:18.942Z</time></trkpt><trkpt lat="44.502795" lon="8.5214833"><ele>515.0</ele><time>2026-03-26T14:20:19.943Z</time></trkpt><trkpt lat="44.5027167" lon="8.5215167"><ele>513.6666666666667</ele><time>2026-03-26T14:20:20.942Z</time></trkpt><trkpt lat="44.5026433" lon="8.52156"><ele>512.3333333333334</ele><time>2026-03-26T14:20:21.942Z</time></trkpt><trkpt lat="44.502565" lon="8.5216317"><ele>511.0</ele><time>2026-03-26T14:20:22.942Z</time></trkpt><trkpt lat="44.502475" lon="8.5217233"><ele>511.0</ele><time>2026-03-26T14:20:23.943Z</time></trkpt><trkpt lat="44.5023983" lon="8.521815"><ele>511.0</ele><time>2026-03-26T14:20:24.942Z</time></trkpt><trkpt lat="44.5023183" lon="8.5219217"><ele>511.0</ele><time>2026-03-26T14:20:25.943Z</time></trkpt><trkpt lat="44.50226" lon="8.5220433"><ele>511.0</ele><time>2026-03-26T14:20:26.943Z</time></trkpt><trkpt lat="44.5022467" lon="8.52217"><ele>511.0</ele><time>2026-03-26T14:20:27.943Z</time></trkpt><trkpt lat="44.5022383" lon="8.5223017"><ele>511.33333333333337</ele><time>2026-03-26T14:20:28.942Z</time></trkpt><trkpt lat="44.5022417" lon="8.5224317"><ele>511.6666666666667</ele><time>2026-03-26T14:20:29.942Z</time></trkpt><trkpt lat="44.5022383" lon="8.52255"><ele>512.0</ele><time>2026-03-26T14:20:30.943Z</time></trkpt><trkpt lat="44.5022167" lon="8.5226417"><ele>512.3333333333334</ele><time>2026-03-26T14:20:31.942Z</time></trkpt><trkpt lat="44.5021467" lon="8.522695"><ele>512.6666666666666</ele><time>2026-03-26T14:20:32.942Z</time></trkpt><trkpt lat="44.5020583" lon="8.522735"><ele>513.0</ele><time>2026-03-26T14:20:33.943Z</time></trkpt><trkpt lat="44.5019433" lon="8.5227467"><ele>512.0</ele><time>2026-03-26T14:20:34.943Z</time></trkpt><trkpt lat="44.5018367" lon="8.5227367"><ele>511.0</ele><time>2026-03-26T14:20:35.943Z</time></trkpt><trkpt lat="44.5017317" lon="8.5226983"><ele>510.0</ele><time>2026-03-26T14:20:36.942Z</time></trkpt><trkpt lat="44.5016267" lon="8.522635"><ele>509.0</ele><time>2026-03-26T14:20:37.943Z</time></trkpt><trkpt lat="44.5015117" lon="8.5225717"><ele>509.0</ele><time>2026-03-26T14:20:38.942Z</time></trkpt><trkpt lat="44.501395" lon="8.52253"><ele>509.0</ele><time>2026-03-26T14:20:39.943Z</time></trkpt><trkpt lat="44.5012967" lon="8.522525"><ele>509.0</ele><time>2026-03-26T14:20:40.943Z</time></trkpt><trkpt lat="44.501195" lon="8.5225383"><ele>509.0</ele><time>2026-03-26T14:20:41.943Z</time></trkpt><trkpt lat="44.50109" lon="8.5225817"><ele>509.0</ele><time>2026-03-26T14:20:42.942Z</time></trkpt><trkpt lat="44.50097" lon="8.5226333"><ele>510.75</ele><time>2026-03-26T14:20:43.942Z</time></trkpt><trkpt lat="44.50084" lon="8.52267"><ele>512.5</ele><time>2026-03-26T14:20:44.942Z</time></trkpt><trkpt lat="44.5007167" lon="8.522695"><ele>514.25</ele><time>2026-03-26T14:20:45.942Z</time></trkpt><trkpt lat="44.500605" lon="8.5227183"><ele>516.0</ele><time>2026-03-26T14:20:46.943Z</time></trkpt><trkpt lat="44.5005017" lon="8.52275"><ele>516.1666666666666</ele><time>2026-03-26T14:20:47.942Z</time></trkpt><trkpt lat="44.5004117" lon="8.5227783"><ele>516.3333333333334</ele><time>2026-03-26T14:20:48.942Z</time></trkpt><trkpt lat="44.5003283" lon="8.5227783"><ele>516.5</ele><time>2026-03-26T14:20:49.943Z</time></trkpt><trkpt lat="44.5002417" lon="8.5227583"><ele>516.6666666666667</ele><time>2026-03-26T14:20:50.942Z</time></trkpt><trkpt lat="44.5001583" lon="8.5227283"><ele>516.8333333333334</ele><time>2026-03-26T14:20:51.943Z</time></trkpt><trkpt lat="44.5000867" lon="8.5226967"><ele>517.0</ele><time>2026-03-26T14:20:52.943Z</time></trkpt><trkpt lat="44.5000233" lon="8.5226483"><ele>517.0</ele><time>2026-03-26T14:20:53.943Z</time></trkpt><trkpt lat="44.4999567" lon="8.5225883"><ele>517.0</ele><time>2026-03-26T14:20:54.943Z</time></trkpt><trkpt lat="44.4998983" lon="8.522495"><ele>517.0</ele><time>2026-03-26T14:20:55.943Z</time></trkpt><trkpt lat="44.49985" lon="8.5224083"><ele>517.0</ele><time>2026-03-26T14:20:56.943Z</time></trkpt><trkpt lat="44.49979" lon="8.5223467"><ele>517.0</ele><time>2026-03-26T14:20:57.943Z</time></trkpt><trkpt lat="44.4997167" lon="8.522315"><ele>517.0</ele><time>2026-03-26T14:20:58.943Z</time></trkpt><trkpt lat="44.499635" lon="8.5223083"><ele>517.1666666666667</ele><time>2026-03-26T14:20:59.943Z</time></trkpt><trkpt lat="44.4995583" lon="8.5223033"><ele>517.3333333333334</ele><time>2026-03-26T14:21:00.942Z</time></trkpt><trkpt lat="44.4994817" lon="8.5222867"><ele>517.5</ele><time>2026-03-26T14:21:01.943Z</time></trkpt><trkpt lat="44.499405" lon="8.5222517"><ele>517.6666666666666</ele><time>2026-03-26T14:21:02.943Z</time></trkpt><trkpt lat="44.49934" lon="8.5221833"><ele>517.8333333333333</ele><time>2026-03-26T14:21:03.942Z</time></trkpt><trkpt lat="44.4992833" lon="8.522085"><ele>518.0</ele><time>2026-03-26T14:21:04.942Z</time></trkpt><trkpt lat="44.49923" lon="8.5219933"><ele>518.0</ele><time>2026-03-26T14:21:05.942Z</time></trkpt><trkpt lat="44.4991783" lon="8.52193"><ele>518.0</ele><time>2026-03-26T14:21:06.943Z</time></trkpt><trkpt lat="44.4991117" lon="8.5219033"><ele>518.0</ele><time>2026-03-26T14:21:07.942Z</time></trkpt><trkpt lat="44.4990333" lon="8.5219017"><ele>518.0</ele><time>2026-03-26T14:21:08.943Z</time></trkpt><trkpt lat="44.49894" lon="8.52193"><ele>518.0</ele><time>2026-03-26T14:21:09.942Z</time></trkpt><trkpt lat="44.4988133" lon="8.52204"><ele>515.5</ele><time>2026-03-26T14:21:10.943Z</time></trkpt><trkpt lat="44.4987" lon="8.5221533"><ele>513.0</ele><time>2026-03-26T14:21:11.943Z</time></trkpt><trkpt lat="44.4985983" lon="8.5222533"><ele>510.5</ele><time>2026-03-26T14:21:12.943Z</time></trkpt><trkpt lat="44.4985117" lon="8.52235"><ele>508.0</ele><time>2026-03-26T14:21:13.943Z</time></trkpt><trkpt lat="44.49844" lon="8.522425"><ele>508.0</ele><time>2026-03-26T14:21:14.943Z</time></trkpt><trkpt lat="44.49836" lon="8.5224933"><ele>507.99999999999994</ele><time>2026-03-26T14:21:15.943Z</time></trkpt><trkpt lat="44.4982767" lon="8.5225517"><ele>507.99999999999994</ele><time>2026-03-26T14:21:16.942Z</time></trkpt><trkpt lat="44.4981833" lon="8.5226"><ele>508.0</ele><time>2026-03-26T14:21:17.943Z</time></trkpt><trkpt lat="44.49811" lon="8.5226467"><ele>508.0</ele><time>2026-03-26T14:21:18.943Z</time></trkpt><trkpt lat="44.49804" lon="8.522715"><ele>508.0</ele><time>2026-03-26T14:21:19.942Z</time></trkpt><trkpt lat="44.4979733" lon="8.5227717"><ele>508.0</ele><time>2026-03-26T14:21:20.942Z</time></trkpt><trkpt lat="44.4979033" lon="8.5228167"><ele>508.0</ele><time>2026-03-26T14:21:21.942Z</time></trkpt><trkpt lat="44.497835" lon="8.522835"><ele>508.0</ele><time>2026-03-26T14:21:22.943Z</time></trkpt><trkpt lat="44.497765" lon="8.52282"><ele>508.0</ele><time>2026-03-26T14:21:23.943Z</time></trkpt><trkpt lat="44.497705" lon="8.5227767"><ele>508.0</ele><time>2026-03-26T14:21:24.943Z</time></trkpt><trkpt lat="44.4976617" lon="8.522695"><ele>508.0</ele><time>2026-03-26T14:21:25.942Z</time></trkpt><trkpt lat="44.49762" lon="8.522575"><ele>504.79999999999995</ele><time>2026-03-26T14:21:26.942Z</time></trkpt><trkpt lat="44.4975783" lon="8.5224367"><ele>501.59999999999997</ele><time>2026-03-26T14:21:27.942Z</time></trkpt><trkpt lat="44.497545" lon="8.522275"><ele>498.40000000000003</ele><time>2026-03-26T14:21:28.942Z</time></trkpt><trkpt lat="44.49752" lon="8.5221283"><ele>495.20000000000005</ele><time>2026-03-26T14:21:29.943Z</time></trkpt><trkpt lat="44.4975133" lon="8.5219883"><ele>492.0</ele><time>2026-03-26T14:21:30.942Z</time></trkpt><trkpt lat="44.4975167" lon="8.5218467"><ele>491.0</ele><time>2026-03-26T14:21:31.943Z</time></trkpt><trkpt lat="44.4975283" lon="8.5216983"><ele>490.0</ele><time>2026-03-26T14:21:32.943Z</time></trkpt><trkpt lat="44.4975483" lon="8.5215333"><ele>489.0</ele><time>2026-03-26T14:21:33.942Z</time></trkpt><trkpt lat="44.497575" lon="8.5213683"><ele>488.0</ele><time>2026-03-26T14:21:34.943Z</time></trkpt><trkpt lat="44.497605" lon="8.5212083"><ele>486.59999999999997</ele><time>2026-03-26T14:21:35.942Z</time></trkpt><trkpt lat="44.4976267" lon="8.5210533"><ele>485.19999999999993</ele><time>2026-03-26T14:21:36.942Z</time></trkpt><trkpt lat="44.4976167" lon="8.5209167"><ele>483.8</ele><time>2026-03-26T14:21:37.942Z</time></trkpt><trkpt lat="44.4976017" lon="8.5207817"><ele>482.4</ele><time>2026-03-26T14:21:38.942Z</time></trkpt><trkpt lat="44.4975483" lon="8.52064"><ele>481.0</ele><time>2026-03-26T14:21:39.943Z</time></trkpt><trkpt lat="44.4974667" lon="8.5205117"><ele>479.5</ele><time>2026-03-26T14:21:40.942Z</time></trkpt><trkpt lat="44.4973833" lon="8.5203833"><ele>478.0</ele><time>2026-03-26T14:21:41.943Z</time></trkpt><trkpt lat="44.497285" lon="8.5202533"><ele>476.5</ele><time>2026-03-26T14:21:42.942Z</time></trkpt><trkpt lat="44.497195" lon="8.5201283"><ele>475.0</ele><time>2026-03-26T14:21:43.943Z</time></trkpt><trkpt lat="44.49712" lon="8.5200333"><ele>470.6</ele><time>2026-03-26T14:21:44.942Z</time></trkpt><trkpt lat="44.49705" lon="8.519945"><ele>466.2</ele><time>2026-03-26T14:21:45.943Z</time></trkpt><trkpt lat="44.497005" lon="8.5198333"><ele>461.79999999999995</ele><time>2026-03-26T14:21:46.943Z</time></trkpt><trkpt lat="44.4969717" lon="8.5197"><ele>457.4</ele><time>2026-03-26T14:21:47.942Z</time></trkpt><trkpt lat="44.49693" lon="8.5195467"><ele>453.0</ele><time>2026-03-26T14:21:48.943Z</time></trkpt><trkpt lat="44.49688" lon="8.5193933"><ele>453.0</ele><time>2026-03-26T14:21:49.943Z</time></trkpt><trkpt lat="44.496815" lon="8.5192483"><ele>453.0</ele><time>2026-03-26T14:21:50.942Z</time></trkpt><trkpt lat="44.4967483" lon="8.5191217"><ele>453.0</ele><time>2026-03-26T14:21:51.943Z</time></trkpt><trkpt lat="44.49668" lon="8.519"><ele>453.0</ele><time>2026-03-26T14:21:52.942Z</time></trkpt><trkpt lat="44.4965983" lon="8.518905"><ele>453.0</ele><time>2026-03-26T14:21:53.943Z</time></trkpt><trkpt lat="44.4965117" lon="8.5188283"><ele>452.99999999999994</ele><time>2026-03-26T14:21:54.942Z</time></trkpt><trkpt lat="44.4964283" lon="8.5187517"><ele>452.99999999999994</ele><time>2026-03-26T14:21:55.942Z</time></trkpt><trkpt lat="44.4963517" lon="8.5186683"><ele>453.0</ele><time>2026-03-26T14:21:56.943Z</time></trkpt><trkpt lat="44.4962867" lon="8.5185817"><ele>453.0</ele><time>2026-03-26T14:21:57.942Z</time></trkpt><trkpt lat="44.49623" lon="8.518485"><ele>450.0</ele><time>2026-03-26T14:21:58.942Z</time></trkpt><trkpt lat="44.49617" lon="8.51838"><ele>446.99999999999994</ele><time>2026-03-26T14:21:59.943Z</time></trkpt><trkpt lat="44.4961083" lon="8.5182833"><ele>443.99999999999994</ele><time>2026-03-26T14:22:00.943Z</time></trkpt><trkpt lat="44.49604" lon="8.5181983"><ele>441.0</ele><time>2026-03-26T14:22:01.943Z</time></trkpt><trkpt lat="44.4959667" lon="8.518125"><ele>438.0</ele><time>2026-03-26T14:22:02.943Z</time></trkpt><trkpt lat="44.4958833" lon="8.5180667"><ele>438.0</ele><time>2026-03-26T14:22:03.943Z</time></trkpt><trkpt lat="44.4957967" lon="8.5180017"><ele>437.99999999999994</ele><time>2026-03-26T14:22:04.943Z</time></trkpt><trkpt lat="44.4957117" lon="8.5179433"><ele>437.99999999999994</ele><time>2026-03-26T14:22:05.942Z</time></trkpt><trkpt lat="44.4956467" lon="8.5178933"><ele>438.0</ele><time>2026-03-26T14:22:06.942Z</time></trkpt><trkpt lat="44.4955583" lon="8.517815"><ele>438.0</ele><time>2026-03-26T14:22:08.942Z</time></trkpt><trkpt lat="44.495475" lon="8.5177433"><ele>436.8333333333333</ele><time>2026-03-26T14:22:10.943Z</time></trkpt><trkpt lat="44.4953783" lon="8.51768"><ele>435.66666666666663</ele><time>2026-03-26T14:22:12.942Z</time></trkpt><trkpt lat="44.4952817" lon="8.5176033"><ele>434.5</ele><time>2026-03-26T14:22:14.942Z</time></trkpt><trkpt lat="44.4952217" lon="8.517555"><ele>433.3333333333333</ele><time>2026-03-26T14:22:15.943Z</time></trkpt><trkpt lat="44.49517" lon="8.517495"><ele>432.16666666666663</ele><time>2026-03-26T14:22:16.942Z</time></trkpt><trkpt lat="44.4951267" lon="8.517415"><ele>431.0</ele><time>2026-03-26T14:22:17.942Z</time></trkpt><trkpt lat="44.49509" lon="8.5173267"><ele>431.0</ele><time>2026-03-26T14:22:18.942Z</time></trkpt><trkpt lat="44.495045" lon="8.51724"><ele>431.0</ele><time>2026-03-26T14:22:19.943Z</time></trkpt><trkpt lat="44.494995" lon="8.5171517"><ele>431.0</ele><time>2026-03-26T14:22:20.943Z</time></trkpt><trkpt lat="44.49494" lon="8.5170483"><ele>431.0</ele><time>2026-03-26T14:22:21.942Z</time></trkpt><trkpt lat="44.4948767" lon="8.5169233"><ele>431.0</ele><time>2026-03-26T14:22:22.943Z</time></trkpt><trkpt lat="44.4948067" lon="8.51679"><ele>430.75</ele><time>2026-03-26T14:22:23.943Z</time></trkpt><trkpt lat="44.4947133" lon="8.5166617"><ele>430.5</ele><time>2026-03-26T14:22:24.943Z</time></trkpt><trkpt lat="44.4946283" lon="8.51652"><ele>430.25</ele><time>2026-03-26T14:22:25.943Z</time></trkpt><trkpt lat="44.4945317" lon="8.51636"><ele>430.0</ele><time>2026-03-26T14:22:26.942Z</time></trkpt><trkpt lat="44.4944333" lon="8.5161783"><ele>430.0</ele><time>2026-03-26T14:22:27.942Z</time></trkpt><trkpt lat="44.4943433" lon="8.5159933"><ele>430.0</ele><time>2026-03-26T14:22:28.942Z</time></trkpt><trkpt lat="44.49426" lon="8.5157933"><ele>430.0</ele><time>2026-03-26T14:22:29.943Z</time></trkpt><trkpt lat="44.4941933" lon="8.515605"><ele>430.0</ele><time>2026-03-26T14:22:30.942Z</time></trkpt><trkpt lat="44.4941283" lon="8.515445"><ele>430.0</ele><time>2026-03-26T14:22:31.942Z</time></trkpt><trkpt lat="44.494065" lon="8.5153067"><ele>430.0</ele><time>2026-03-26T14:22:32.943Z</time></trkpt><trkpt lat="44.493975" lon="8.5151983"><ele>430.0</ele><time>2026-03-26T14:22:33.942Z</time></trkpt><trkpt lat="44.4938733" lon="8.5151183"><ele>428.75</ele><time>2026-03-26T14:22:34.943Z</time></trkpt><trkpt lat="44.4937617" lon="8.5150583"><ele>427.5</ele><time>2026-03-26T14:22:35.942Z</time></trkpt><trkpt lat="44.4936383" lon="8.5150267"><ele>426.25</ele><time>2026-03-26T14:22:36.943Z</time></trkpt><trkpt lat="44.493515" lon="8.5150117"><ele>425.0</ele><time>2026-03-26T14:22:37.942Z</time></trkpt><trkpt lat="44.4933983" lon="8.51499"><ele>425.0</ele><time>2026-03-26T14:22:38.943Z</time></trkpt><trkpt lat="44.4932833" lon="8.5149617"><ele>425.0</ele><time>2026-03-26T14:22:39.943Z</time></trkpt><trkpt lat="44.4931783" lon="8.5149283"><ele>425.0</ele><time>2026-03-26T14:22:40.943Z</time></trkpt><trkpt lat="44.49308" lon="8.514885"><ele>425.0</ele><time>2026-03-26T14:22:41.942Z</time></trkpt><trkpt lat="44.4930033" lon="8.5148167"><ele>425.0</ele><time>2026-03-26T14:22:42.942Z</time></trkpt><trkpt lat="44.4929483" lon="8.51475"><ele>424.2</ele><time>2026-03-26T14:22:43.942Z</time></trkpt><trkpt lat="44.4929133" lon="8.514655"><ele>423.4</ele><time>2026-03-26T14:22:44.942Z</time></trkpt><trkpt lat="44.492885" lon="8.5145167"><ele>422.6</ele><time>2026-03-26T14:22:45.943Z</time></trkpt><trkpt lat="44.4928383" lon="8.5143567"><ele>421.8</ele><time>2026-03-26T14:22:46.943Z</time></trkpt><trkpt lat="44.4927933" lon="8.5141817"><ele>421.0</ele><time>2026-03-26T14:22:47.943Z</time></trkpt><trkpt lat="44.492755" lon="8.5139867"><ele>420.75</ele><time>2026-03-26T14:22:48.942Z</time></trkpt><trkpt lat="44.4927017" lon="8.5138"><ele>420.5</ele><time>2026-03-26T14:22:49.943Z</time></trkpt><trkpt lat="44.49264" lon="8.5136183"><ele>420.25</ele><time>2026-03-26T14:22:50.943Z</time></trkpt><trkpt lat="44.49258" lon="8.51344"><ele>420.0</ele><time>2026-03-26T14:22:51.942Z</time></trkpt><trkpt lat="44.49251" lon="8.5132717"><ele>420.0</ele><time>2026-03-26T14:22:52.942Z</time></trkpt><trkpt lat="44.4924267" lon="8.5130933"><ele>420.0</ele><time>2026-03-26T14:22:53.942Z</time></trkpt><trkpt lat="44.492335" lon="8.512915"><ele>420.0</ele><time>2026-03-26T14:22:54.943Z</time></trkpt><trkpt lat="44.4922483" lon="8.5127267"><ele>420.66666666666663</ele><time>2026-03-26T14:22:55.943Z</time></trkpt><trkpt lat="44.4921717" lon="8.5125433"><ele>421.3333333333333</ele><time>2026-03-26T14:22:56.943Z</time></trkpt><trkpt lat="44.4920917" lon="8.5123617"><ele>422.0</ele><time>2026-03-26T14:22:57.942Z</time></trkpt><trkpt lat="44.4919967" lon="8.5121967"><ele>420.0</ele><time>2026-03-26T14:22:58.942Z</time></trkpt><trkpt lat="44.4918867" lon="8.51204"><ele>418.0</ele><time>2026-03-26T14:22:59.943Z</time></trkpt><trkpt lat="44.4917767" lon="8.5118817"><ele>416.0</ele><time>2026-03-26T14:23:00.942Z</time></trkpt><trkpt lat="44.4916683" lon="8.5117167"><ele>416.0</ele><time>2026-03-26T14:23:01.943Z</time></trkpt><trkpt lat="44.49155" lon="8.5115467"><ele>416.0</ele><time>2026-03-26T14:23:02.943Z</time></trkpt><trkpt lat="44.49143" lon="8.511375"><ele>416.0</ele><time>2026-03-26T14:23:03.942Z</time></trkpt><trkpt lat="44.4913167" lon="8.5111833"><ele>415.3333333333333</ele><time>2026-03-26T14:23:04.943Z</time></trkpt><trkpt lat="44.4911867" lon="8.51099"><ele>414.66666666666663</ele><time>2026-03-26T14:23:05.943Z</time></trkpt><trkpt lat="44.4910583" lon="8.5108017"><ele>414.0</ele><time>2026-03-26T14:23:06.942Z</time></trkpt><trkpt lat="44.4909233" lon="8.5106283"><ele>414.0</ele><time>2026-03-26T14:23:07.943Z</time></trkpt><trkpt lat="44.4908017" lon="8.5104517"><ele>414.0</ele><time>2026-03-26T14:23:08.943Z</time></trkpt><trkpt lat="44.490675" lon="8.5102583"><ele>414.0</ele><time>2026-03-26T14:23:09.943Z</time></trkpt><trkpt lat="44.4905567" lon="8.51007"><ele>414.33333333333337</ele><time>2026-03-26T14:23:10.942Z</time></trkpt><trkpt lat="44.4904433" lon="8.5098883"><ele>414.6666666666667</ele><time>2026-03-26T14:23:11.943Z</time></trkpt><trkpt lat="44.4903367" lon="8.5097167"><ele>415.0</ele><time>2026-03-26T14:23:12.942Z</time></trkpt><trkpt lat="44.4902433" lon="8.5095367"><ele>413.0</ele><time>2026-03-26T14:23:13.942Z</time></trkpt><trkpt lat="44.49017" lon="8.5093483"><ele>411.0</ele><time>2026-03-26T14:23:14.942Z</time></trkpt><trkpt lat="44.490125" lon="8.5091367"><ele>409.0</ele><time>2026-03-26T14:23:15.943Z</time></trkpt><trkpt lat="44.490085" lon="8.5089267"><ele>408.6666666666667</ele><time>2026-03-26T14:23:16.942Z</time></trkpt><trkpt lat="44.4900383" lon="8.5087067"><ele>408.33333333333337</ele><time>2026-03-26T14:23:17.943Z</time></trkpt><trkpt lat="44.4899717" lon="8.5084933"><ele>408.0</ele><time>2026-03-26T14:23:18.942Z</time></trkpt><trkpt lat="44.48991" lon="8.5082717"><ele>408.0</ele><time>2026-03-26T14:23:19.942Z</time></trkpt><trkpt lat="44.4898317" lon="8.50806"><ele>408.0</ele><time>2026-03-26T14:23:20.942Z</time></trkpt><trkpt lat="44.4897417" lon="8.50785"><ele>408.0</ele><time>2026-03-26T14:23:21.942Z</time></trkpt><trkpt lat="44.4896533" lon="8.50764"><ele>405.0</ele><time>2026-03-26T14:23:22.943Z</time></trkpt><trkpt lat="44.48957" lon="8.5074217"><ele>402.0</ele><time>2026-03-26T14:23:23.942Z</time></trkpt><trkpt lat="44.4894833" lon="8.5072067"><ele>399.0</ele><time>2026-03-26T14:23:24.943Z</time></trkpt><trkpt lat="44.4893917" lon="8.5069867"><ele>398.66666666666663</ele><time>2026-03-26T14:23:25.942Z</time></trkpt><trkpt lat="44.489305" lon="8.5067717"><ele>398.3333333333333</ele><time>2026-03-26T14:23:26.942Z</time></trkpt><trkpt lat="44.4892217" lon="8.50657"><ele>398.0</ele><time>2026-03-26T14:23:27.943Z</time></trkpt><trkpt lat="44.489145" lon="8.506365"><ele>400.66666666666663</ele><time>2026-03-26T14:23:28.942Z</time></trkpt><trkpt lat="44.489065" lon="8.5061783"><ele>403.33333333333337</ele><time>2026-03-26T14:23:29.942Z</time></trkpt><trkpt lat="44.488975" lon="8.5060033"><ele>406.0</ele><time>2026-03-26T14:23:30.943Z</time></trkpt><trkpt lat="44.4888517" lon="8.5058533"><ele>402.33333333333337</ele><time>2026-03-26T14:23:31.942Z</time></trkpt><trkpt lat="44.4887067" lon="8.5057367"><ele>398.66666666666663</ele><time>2026-03-26T14:23:32.942Z</time></trkpt><trkpt lat="44.4885633" lon="8.5056267"><ele>395.0</ele><time>2026-03-26T14:23:33.942Z</time></trkpt><trkpt lat="44.4884233" lon="8.5055133"><ele>397.3333333333333</ele><time>2026-03-26T14:23:34.942Z</time></trkpt><trkpt lat="44.4882817" lon="8.5053883"><ele>399.66666666666663</ele><time>2026-03-26T14:23:35.943Z</time></trkpt><trkpt lat="44.4881383" lon="8.5052733"><ele>402.0</ele><time>2026-03-26T14:23:36.943Z</time></trkpt><trkpt lat="44.4879967" lon="8.5051467"><ele>399.0</ele><time>2026-03-26T14:23:37.943Z</time></trkpt><trkpt lat="44.4878633" lon="8.5050217"><ele>396.0</ele><time>2026-03-26T14:23:38.942Z</time></trkpt><trkpt lat="44.4877333" lon="8.5049033"><ele>393.0</ele><time>2026-03-26T14:23:39.942Z</time></trkpt><trkpt lat="44.4876083" lon="8.504805"><ele>393.0</ele><time>2026-03-26T14:23:40.943Z</time></trkpt><trkpt lat="44.4874833" lon="8.50472"><ele>393.0</ele><time>2026-03-26T14:23:41.943Z</time></trkpt><trkpt lat="44.4873483" lon="8.504675"><ele>393.0</ele><time>2026-03-26T14:23:42.942Z</time></trkpt><trkpt lat="44.4872133" lon="8.5046767"><ele>393.0</ele><time>2026-03-26T14:23:43.943Z</time></trkpt><trkpt lat="44.48709" lon="8.50471"><ele>392.25</ele><time>2026-03-26T14:23:44.942Z</time></trkpt><trkpt lat="44.4869817" lon="8.504785"><ele>391.5</ele><time>2026-03-26T14:23:45.943Z</time></trkpt><trkpt lat="44.4868983" lon="8.5049033"><ele>390.75</ele><time>2026-03-26T14:23:46.942Z</time></trkpt><trkpt lat="44.48682" lon="8.505015"><ele>390.0</ele><time>2026-03-26T14:23:47.943Z</time></trkpt><trkpt lat="44.4867433" lon="8.50512"><ele>390.0</ele><time>2026-03-26T14:23:48.942Z</time></trkpt><trkpt lat="44.4866567" lon="8.505185"><ele>390.0</ele><time>2026-03-26T14:23:49.942Z</time></trkpt><trkpt lat="44.486575" lon="8.5052067"><ele>390.0</ele><time>2026-03-26T14:23:50.943Z</time></trkpt><trkpt lat="44.48649" lon="8.50518"><ele>390.0</ele><time>2026-03-26T14:23:51.942Z</time></trkpt><trkpt lat="44.4864167" lon="8.5051317"><ele>390.0</ele><time>2026-03-26T14:23:52.943Z</time></trkpt><trkpt lat="44.4863583" lon="8.5050817"><ele>390.0</ele><time>2026-03-26T14:23:53.943Z</time></trkpt><trkpt lat="44.4862833" lon="8.505025"><ele>390.0</ele><time>2026-03-26T14:23:55.942Z</time></trkpt><trkpt lat="44.48628" lon="8.5051267"><ele>390.0</ele><time>2026-03-26T14:23:58.942Z</time></trkpt><trkpt lat="44.486335" lon="8.5052"><ele>390.0</ele><time>2026-03-26T14:23:59.942Z</time></trkpt><trkpt lat="44.4863933" lon="8.5052883"><ele>390.0</ele><time>2026-03-26T14:24:00.943Z</time></trkpt><trkpt lat="44.4864617" lon="8.5053567"><ele>390.0</ele><time>2026-03-26T14:24:01.943Z</time></trkpt><trkpt lat="44.4865383" lon="8.5053983"><ele>390.0</ele><time>2026-03-26T14:24:02.943Z</time></trkpt><trkpt lat="44.4866133" lon="8.50541"><ele>390.0</ele><time>2026-03-26T14:24:03.942Z</time></trkpt><trkpt lat="44.48668" lon="8.50541"><ele>390.0</ele><time>2026-03-26T14:24:04.942Z</time></trkpt><trkpt lat="44.4867483" lon="8.505395"><ele>390.0</ele><time>2026-03-26T14:24:06.942Z</time></trkpt><trkpt lat="44.4868383" lon="8.50536"><ele>390.0</ele><time>2026-03-26T14:24:10.942Z</time></trkpt><trkpt lat="44.48694" lon="8.5053117"><ele>390.0</ele><time>2026-03-26T14:24:12.943Z</time></trkpt><trkpt lat="44.4870133" lon="8.5052933"><ele>390.0</ele><time>2026-03-26T14:24:13.942Z</time></trkpt><trkpt lat="44.4871133" lon="8.5052883"><ele>390.6</ele><time>2026-03-26T14:24:14.942Z</time></trkpt><trkpt lat="44.4872283" lon="8.505315"><ele>391.2</ele><time>2026-03-26T14:24:15.942Z</time></trkpt><trkpt lat="44.48734" lon="8.50536"><ele>391.79999999999995</ele><time>2026-03-26T14:24:16.942Z</time></trkpt><trkpt lat="44.48745" lon="8.505415"><ele>392.4</ele><time>2026-03-26T14:24:17.943Z</time></trkpt><trkpt lat="44.4875383" lon="8.505475"><ele>393.0</ele><time>2026-03-26T14:24:18.942Z</time></trkpt><trkpt lat="44.487615" lon="8.5055483"><ele>393.4</ele><time>2026-03-26T14:24:19.942Z</time></trkpt><trkpt lat="44.48769" lon="8.505625"><ele>393.79999999999995</ele><time>2026-03-26T14:24:20.943Z</time></trkpt><trkpt lat="44.4877717" lon="8.5057117"><ele>394.2</ele><time>2026-03-26T14:24:21.943Z</time></trkpt><trkpt lat="44.4878617" lon="8.5057933"><ele>394.6</ele><time>2026-03-26T14:24:22.943Z</time></trkpt><trkpt lat="44.48796" lon="8.5058633"><ele>395.0</ele><time>2026-03-26T14:24:23.943Z</time></trkpt><trkpt lat="44.4880433" lon="8.5059333"><ele>395.0</ele><time>2026-03-26T14:24:24.942Z</time></trkpt><trkpt lat="44.4881217" lon="8.5060483"><ele>395.0</ele><time>2026-03-26T14:24:25.942Z</time></trkpt><trkpt lat="44.4881917" lon="8.5061633"><ele>395.0</ele><time>2026-03-26T14:24:26.943Z</time></trkpt><trkpt lat="44.4882533" lon="8.5062683"><ele>395.0</ele><time>2026-03-26T14:24:27.943Z</time></trkpt><trkpt lat="44.4883183" lon="8.50636"><ele>395.0</ele><time>2026-03-26T14:24:28.942Z</time></trkpt><trkpt lat="44.488385" lon="8.5064617"><ele>397.4</ele><time>2026-03-26T14:24:29.942Z</time></trkpt><trkpt lat="44.48844" lon="8.5065567"><ele>399.8</ele><time>2026-03-26T14:24:30.943Z</time></trkpt><trkpt lat="44.4884983" lon="8.5066633"><ele>402.20000000000005</ele><time>2026-03-26T14:24:31.942Z</time></trkpt><trkpt lat="44.4885517" lon="8.506775"><ele>404.6</ele><time>2026-03-26T14:24:32.942Z</time></trkpt><trkpt lat="44.4885983" lon="8.5068883"><ele>407.0</ele><time>2026-03-26T14:24:33.943Z</time></trkpt><trkpt lat="44.4886283" lon="8.5070383"><ele>405.66666666666663</ele><time>2026-03-26T14:24:34.942Z</time></trkpt><trkpt lat="44.48866" lon="8.5071767"><ele>404.3333333333333</ele><time>2026-03-26T14:24:35.942Z</time></trkpt><trkpt lat="44.4886883" lon="8.5072983"><ele>403.0</ele><time>2026-03-26T14:24:36.943Z</time></trkpt><trkpt lat="44.4887133" lon="8.5073983"><ele>401.66666666666663</ele><time>2026-03-26T14:24:37.943Z</time></trkpt><trkpt lat="44.488735" lon="8.5074883"><ele>400.3333333333333</ele><time>2026-03-26T14:24:38.943Z</time></trkpt><trkpt lat="44.4887733" lon="8.5075617"><ele>399.0</ele><time>2026-03-26T14:24:39.942Z</time></trkpt><trkpt lat="44.4887967" lon="8.5076567"><ele>402.3333333333333</ele><time>2026-03-26T14:24:41.942Z</time></trkpt><trkpt lat="44.4887483" lon="8.507715"><ele>405.66666666666663</ele><time>2026-03-26T14:24:43.943Z</time></trkpt><trkpt lat="44.488695" lon="8.5078167"><ele>409.0</ele><time>2026-03-26T14:24:45.943Z</time></trkpt><trkpt lat="44.488655" lon="8.50795"><ele>412.3333333333333</ele><time>2026-03-26T14:24:47.943Z</time></trkpt><trkpt lat="44.4886483" lon="8.50804"><ele>415.66666666666663</ele><time>2026-03-26T14:24:48.943Z</time></trkpt><trkpt lat="44.4886383" lon="8.5081317"><ele>419.0</ele><time>2026-03-26T14:24:49.942Z</time></trkpt><trkpt lat="44.488625" lon="8.5082217"><ele>420.79999999999995</ele><time>2026-03-26T14:24:50.943Z</time></trkpt><trkpt lat="44.4885667" lon="8.50837"><ele>422.59999999999997</ele><time>2026-03-26T14:24:52.942Z</time></trkpt><trkpt lat="44.4885083" lon="8.50845"><ele>424.4</ele><time>2026-03-26T14:24:54.942Z</time></trkpt><trkpt lat="44.4884633" lon="8.5085283"><ele>426.2</ele><time>2026-03-26T14:24:56.942Z</time></trkpt><trkpt lat="44.4883767" lon="8.5085867"><ele>428.0</ele><time>2026-03-26T14:24:59.943Z</time></trkpt><trkpt lat="44.488295" lon="8.508605"><ele>427.99999999999994</ele><time>2026-03-26T14:25:02.943Z</time></trkpt><trkpt lat="44.4882133" lon="8.50864"><ele>428.0</ele><time>2026-03-26T14:25:05.943Z</time></trkpt><trkpt lat="44.4881383" lon="8.5086867"><ele>428.0</ele><time>2026-03-26T14:25:07.943Z</time></trkpt><trkpt lat="44.4881717" lon="8.5087817"><ele>428.0</ele><time>2026-03-26T14:25:11.942Z</time></trkpt><trkpt lat="44.4881933" lon="8.5088833"><ele>427.99999999999994</ele><time>2026-03-26T14:25:14.942Z</time></trkpt><trkpt lat="44.48823" lon="8.509"><ele>428.0</ele><time>2026-03-26T14:25:17.942Z</time></trkpt><trkpt lat="44.4883167" lon="8.5091117"><ele>430.99999999999994</ele><time>2026-03-26T14:25:19.943Z</time></trkpt><trkpt lat="44.4883517" lon="8.50919"><ele>434.0</ele><time>2026-03-26T14:25:20.943Z</time></trkpt><trkpt lat="44.488385" lon="8.5093083"><ele>437.0</ele><time>2026-03-26T14:25:22.942Z</time></trkpt><trkpt lat="44.4883267" lon="8.5093583"><ele>440.0</ele><time>2026-03-26T14:25:24.943Z</time></trkpt><trkpt lat="44.4882683" lon="8.50945"><ele>442.99999999999994</ele><time>2026-03-26T14:25:26.943Z</time></trkpt><trkpt lat="44.4881833" lon="8.5095883"><ele>446.0</ele><time>2026-03-26T14:25:28.942Z</time></trkpt><trkpt lat="44.4881267" lon="8.5096683"><ele>448.4</ele><time>2026-03-26T14:25:29.942Z</time></trkpt><trkpt lat="44.4880583" lon="8.5097583"><ele>450.8</ele><time>2026-03-26T14:25:30.942Z</time></trkpt><trkpt lat="44.488005" lon="8.5098367"><ele>453.19999999999993</ele><time>2026-03-26T14:25:31.942Z</time></trkpt><trkpt lat="44.4879367" lon="8.5099833"><ele>455.59999999999997</ele><time>2026-03-26T14:25:33.942Z</time></trkpt><trkpt lat="44.4878633" lon="8.5100833"><ele>458.0</ele><time>2026-03-26T14:25:35.942Z</time></trkpt><trkpt lat="44.4877617" lon="8.51014"><ele>461.2</ele><time>2026-03-26T14:25:37.942Z</time></trkpt><trkpt lat="44.4876517" lon="8.5101867"><ele>464.4</ele><time>2026-03-26T14:25:39.942Z</time></trkpt><trkpt lat="44.4875983" lon="8.5102817"><ele>467.59999999999997</ele><time>2026-03-26T14:25:41.943Z</time></trkpt><trkpt lat="44.4875217" lon="8.510265"><ele>470.79999999999995</ele><time>2026-03-26T14:25:44.943Z</time></trkpt><trkpt lat="44.487425" lon="8.510165"><ele>474.0</ele><time>2026-03-26T14:25:46.943Z</time></trkpt><trkpt lat="44.4873017" lon="8.5100933"><ele>474.0</ele><time>2026-03-26T14:25:48.942Z</time></trkpt><trkpt lat="44.4872217" lon="8.51007"><ele>474.0</ele><time>2026-03-26T14:25:49.942Z</time></trkpt><trkpt lat="44.4871417" lon="8.5100517"><ele>474.0</ele><time>2026-03-26T14:25:50.942Z</time></trkpt><trkpt lat="44.4870483" lon="8.51006"><ele>474.0</ele><time>2026-03-26T14:25:51.942Z</time></trkpt><trkpt lat="44.486955" lon="8.510065"><ele>474.0</ele><time>2026-03-26T14:25:52.942Z</time></trkpt><trkpt lat="44.4868517" lon="8.5100517"><ele>475.79999999999995</ele><time>2026-03-26T14:25:53.943Z</time></trkpt><trkpt lat="44.4867433" lon="8.5100533"><ele>477.59999999999997</ele><time>2026-03-26T14:25:54.943Z</time></trkpt><trkpt lat="44.4866467" lon="8.5100433"><ele>479.4</ele><time>2026-03-26T14:25:55.942Z</time></trkpt><trkpt lat="44.48657" lon="8.5100283"><ele>481.2</ele><time>2026-03-26T14:25:56.942Z</time></trkpt><trkpt lat="44.4864633" lon="8.51001"><ele>483.0</ele><time>2026-03-26T14:25:58.943Z</time></trkpt><trkpt lat="44.4864033" lon="8.5099617"><ele>483.0</ele><time>2026-03-26T14:26:02.943Z</time></trkpt><trkpt lat="44.4863183" lon="8.5098817"><ele>482.99999999999994</ele><time>2026-03-26T14:26:05.942Z</time></trkpt><trkpt lat="44.4862667" lon="8.5098017"><ele>482.99999999999994</ele><time>2026-03-26T14:26:07.943Z</time></trkpt><trkpt lat="44.4862183" lon="8.5097217"><ele>483.0</ele><time>2026-03-26T14:26:10.943Z</time></trkpt><trkpt lat="44.4861417" lon="8.5096367"><ele>483.0</ele><time>2026-03-26T14:26:13.943Z</time></trkpt><trkpt lat="44.4860483" lon="8.5095217"><ele>482.59999999999997</ele><time>2026-03-26T14:26:15.943Z</time></trkpt><trkpt lat="44.4859867" lon="8.509455"><ele>482.19999999999993</ele><time>2026-03-26T14:26:16.943Z</time></trkpt><trkpt lat="44.48591" lon="8.5093817"><ele>481.8</ele><time>2026-03-26T14:26:17.943Z</time></trkpt><trkpt lat="44.4858033" lon="8.5093083"><ele>481.4</ele><time>2026-03-26T14:26:18.943Z</time></trkpt><trkpt lat="44.4856783" lon="8.509255"><ele>481.0</ele><time>2026-03-26T14:26:19.942Z</time></trkpt><trkpt lat="44.4855683" lon="8.50921"><ele>481.00000000000006</ele><time>2026-03-26T14:26:20.943Z</time></trkpt><trkpt lat="44.4854733" lon="8.5091917"><ele>481.0</ele><time>2026-03-26T14:26:21.942Z</time></trkpt><trkpt lat="44.4854033" lon="8.5092083"><ele>481.0</ele><time>2026-03-26T14:26:22.942Z</time></trkpt><trkpt lat="44.485335" lon="8.5092367"><ele>481.0</ele><time>2026-03-26T14:26:23.942Z</time></trkpt><trkpt lat="44.4852683" lon="8.509255"><ele>481.00000000000006</ele><time>2026-03-26T14:26:24.943Z</time></trkpt><trkpt lat="44.48519" lon="8.5092567"><ele>481.0</ele><time>2026-03-26T14:26:25.942Z</time></trkpt><trkpt lat="44.4851133" lon="8.5092517"><ele>480.83333333333337</ele><time>2026-03-26T14:26:26.942Z</time></trkpt><trkpt lat="44.4850033" lon="8.50925"><ele>480.6666666666667</ele><time>2026-03-26T14:26:28.943Z</time></trkpt><trkpt lat="44.4849433" lon="8.5092933"><ele>480.5</ele><time>2026-03-26T14:26:30.942Z</time></trkpt><trkpt lat="44.484905" lon="8.5093683"><ele>480.33333333333337</ele><time>2026-03-26T14:26:32.943Z</time></trkpt><trkpt lat="44.4848783" lon="8.509285"><ele>480.1666666666667</ele><time>2026-03-26T14:26:37.943Z</time></trkpt><trkpt lat="44.4848467" lon="8.5091467"><ele>480.0</ele><time>2026-03-26T14:26:39.942Z</time></trkpt><trkpt lat="44.484825" lon="8.5090517"><ele>480.0</ele><time>2026-03-26T14:26:40.943Z</time></trkpt><trkpt lat="44.4848033" lon="8.5089583"><ele>480.0</ele><time>2026-03-26T14:26:41.943Z</time></trkpt><trkpt lat="44.484765" lon="8.5088817"><ele>480.0</ele><time>2026-03-26T14:26:42.942Z</time></trkpt><trkpt lat="44.4847067" lon="8.508815"><ele>480.0</ele><time>2026-03-26T14:26:43.942Z</time></trkpt><trkpt lat="44.4846383" lon="8.508765"><ele>480.0</ele><time>2026-03-26T14:26:44.942Z</time></trkpt><trkpt lat="44.4845467" lon="8.50873"><ele>480.0</ele><time>2026-03-26T14:26:45.943Z</time></trkpt><trkpt lat="44.4844733" lon="8.508705"><ele>479.1666666666667</ele><time>2026-03-26T14:26:46.942Z</time></trkpt><trkpt lat="44.484405" lon="8.5087167"><ele>478.33333333333337</ele><time>2026-03-26T14:26:47.943Z</time></trkpt><trkpt lat="44.4843433" lon="8.5087583"><ele>477.5</ele><time>2026-03-26T14:26:48.943Z</time></trkpt><trkpt lat="44.4842733" lon="8.5088183"><ele>476.6666666666667</ele><time>2026-03-26T14:26:49.943Z</time></trkpt><trkpt lat="44.4841783" lon="8.50885"><ele>475.83333333333337</ele><time>2026-03-26T14:26:51.943Z</time></trkpt><trkpt lat="44.4841567" lon="8.5087117"><ele>475.0</ele><time>2026-03-26T14:26:54.942Z</time></trkpt><trkpt lat="44.4841617" lon="8.508595"><ele>475.00000000000006</ele><time>2026-03-26T14:26:55.942Z</time></trkpt><trkpt lat="44.4841517" lon="8.5084917"><ele>475.0</ele><time>2026-03-26T14:26:56.942Z</time></trkpt><trkpt lat="44.4841133" lon="8.508315"><ele>475.0</ele><time>2026-03-26T14:26:58.943Z</time></trkpt><trkpt lat="44.4840517" lon="8.508235"><ele>475.0</ele><time>2026-03-26T14:26:59.942Z</time></trkpt><trkpt lat="44.483985" lon="8.5081783"><ele>475.00000000000006</ele><time>2026-03-26T14:27:00.943Z</time></trkpt><trkpt lat="44.4839133" lon="8.5081267"><ele>475.0</ele><time>2026-03-26T14:27:02.942Z</time></trkpt><trkpt lat="44.4838217" lon="8.50813"><ele>475.1666666666667</ele><time>2026-03-26T14:27:06.943Z</time></trkpt><trkpt lat="44.4837583" lon="8.5081283"><ele>475.33333333333337</ele><time>2026-03-26T14:27:08.942Z</time></trkpt><trkpt lat="44.4836933" lon="8.5081317"><ele>475.5</ele><time>2026-03-26T14:27:10.942Z</time></trkpt><trkpt lat="44.4835833" lon="8.5081633"><ele>475.66666666666663</ele><time>2026-03-26T14:27:12.943Z</time></trkpt><trkpt lat="44.4835083" lon="8.5081317"><ele>475.8333333333333</ele><time>2026-03-26T14:27:14.943Z</time></trkpt><trkpt lat="44.4834783" lon="8.5079767"><ele>476.0</ele><time>2026-03-26T14:27:16.942Z</time></trkpt><trkpt lat="44.4834617" lon="8.50788"><ele>476.0</ele><time>2026-03-26T14:27:17.942Z</time></trkpt><trkpt lat="44.4834383" lon="8.507785"><ele>476.0</ele><time>2026-03-26T14:27:18.943Z</time></trkpt><trkpt lat="44.4833817" lon="8.5077283"><ele>476.0</ele><time>2026-03-26T14:27:20.943Z</time></trkpt><trkpt lat="44.4832617" lon="8.50772"><ele>476.0</ele><time>2026-03-26T14:27:22.942Z</time></trkpt><trkpt lat="44.4831333" lon="8.5077633"><ele>476.0</ele><time>2026-03-26T14:27:24.942Z</time></trkpt><trkpt lat="44.4830483" lon="8.507735"><ele>476.0</ele><time>2026-03-26T14:27:26.943Z</time></trkpt><trkpt lat="44.483035" lon="8.5075883"><ele>476.0</ele><time>2026-03-26T14:27:28.942Z</time></trkpt><trkpt lat="44.48301" lon="8.5074917"><ele>476.0</ele><time>2026-03-26T14:27:29.943Z</time></trkpt><trkpt lat="44.482985" lon="8.507385"><ele>476.0</ele><time>2026-03-26T14:27:30.943Z</time></trkpt><trkpt lat="44.482965" lon="8.507265"><ele>476.0</ele><time>2026-03-26T14:27:31.943Z</time></trkpt><trkpt lat="44.4829517" lon="8.5071133"><ele>473.4</ele><time>2026-03-26T14:27:32.942Z</time></trkpt><trkpt lat="44.482945" lon="8.5069517"><ele>470.8</ele><time>2026-03-26T14:27:33.943Z</time></trkpt><trkpt lat="44.482945" lon="8.5068033"><ele>468.19999999999993</ele><time>2026-03-26T14:27:34.942Z</time></trkpt><trkpt lat="44.482945" lon="8.50668"><ele>465.59999999999997</ele><time>2026-03-26T14:27:35.942Z</time></trkpt><trkpt lat="44.482945" lon="8.5065883"><ele>463.0</ele><time>2026-03-26T14:27:36.943Z</time></trkpt><trkpt lat="44.4829317" lon="8.5064417"><ele>462.79999999999995</ele><time>2026-03-26T14:27:38.943Z</time></trkpt><trkpt lat="44.4828917" lon="8.506345"><ele>462.59999999999997</ele><time>2026-03-26T14:27:40.942Z</time></trkpt><trkpt lat="44.482845" lon="8.5062333"><ele>462.40000000000003</ele><time>2026-03-26T14:27:42.943Z</time></trkpt><trkpt lat="44.48277" lon="8.50612"><ele>462.20000000000005</ele><time>2026-03-26T14:27:44.943Z</time></trkpt><trkpt lat="44.4826933" lon="8.5060183"><ele>462.0</ele><time>2026-03-26T14:27:46.943Z</time></trkpt><trkpt lat="44.4826367" lon="8.5059117"><ele>462.0</ele><time>2026-03-26T14:27:48.942Z</time></trkpt><trkpt lat="44.4825817" lon="8.505785"><ele>462.0</ele><time>2026-03-26T14:27:50.942Z</time></trkpt><trkpt lat="44.4825233" lon="8.5056417"><ele>462.0</ele><time>2026-03-26T14:27:52.942Z</time></trkpt><trkpt lat="44.4824967" lon="8.50556"><ele>462.0</ele><time>2026-03-26T14:27:53.943Z</time></trkpt><trkpt lat="44.48246" lon="8.505485"><ele>462.0</ele><time>2026-03-26T14:27:54.942Z</time></trkpt><trkpt lat="44.482415" lon="8.505415"><ele>462.0</ele><time>2026-03-26T14:27:55.942Z</time></trkpt><trkpt lat="44.4823667" lon="8.5053533"><ele>459.8333333333333</ele><time>2026-03-26T14:27:56.943Z</time></trkpt><trkpt lat="44.48227" lon="8.5052467"><ele>457.66666666666663</ele><time>2026-03-26T14:27:58.942Z</time></trkpt><trkpt lat="44.4822017" lon="8.505205"><ele>455.5</ele><time>2026-03-26T14:27:59.943Z</time></trkpt><trkpt lat="44.4821333" lon="8.50517"><ele>453.3333333333333</ele><time>2026-03-26T14:28:00.942Z</time></trkpt><trkpt lat="44.4820617" lon="8.5051317"><ele>451.16666666666663</ele><time>2026-03-26T14:28:01.942Z</time></trkpt><trkpt lat="44.482005" lon="8.5050783"><ele>449.0</ele><time>2026-03-26T14:28:02.943Z</time></trkpt><trkpt lat="44.4819483" lon="8.5050133"><ele>448.71428571428567</ele><time>2026-03-26T14:28:03.943Z</time></trkpt><trkpt lat="44.4819083" lon="8.5049283"><ele>448.4285714285714</ele><time>2026-03-26T14:28:04.943Z</time></trkpt><trkpt lat="44.4818683" lon="8.50485"><ele>448.1428571428571</ele><time>2026-03-26T14:28:05.942Z</time></trkpt><trkpt lat="44.48183" lon="8.5047683"><ele>447.85714285714283</ele><time>2026-03-26T14:28:06.943Z</time></trkpt><trkpt lat="44.48179" lon="8.5046883"><ele>447.57142857142856</ele><time>2026-03-26T14:28:07.942Z</time></trkpt><trkpt lat="44.481735" lon="8.5046167"><ele>447.2857142857142</ele><time>2026-03-26T14:28:08.943Z</time></trkpt><trkpt lat="44.4816667" lon="8.5045383"><ele>447.0</ele><time>2026-03-26T14:28:09.942Z</time></trkpt><trkpt lat="44.4815783" lon="8.5044867"><ele>447.20000000000005</ele><time>2026-03-26T14:28:10.942Z</time></trkpt><trkpt lat="44.4814883" lon="8.504435"><ele>447.40000000000003</ele><time>2026-03-26T14:28:11.943Z</time></trkpt><trkpt lat="44.4814033" lon="8.5043867"><ele>447.59999999999997</ele><time>2026-03-26T14:28:12.942Z</time></trkpt><trkpt lat="44.481315" lon="8.5043233"><ele>447.79999999999995</ele><time>2026-03-26T14:28:13.943Z</time></trkpt><trkpt lat="44.4812283" lon="8.5042417"><ele>448.0</ele><time>2026-03-26T14:28:14.942Z</time></trkpt><trkpt lat="44.4811583" lon="8.5041667"><ele>448.0</ele><time>2026-03-26T14:28:15.942Z</time></trkpt><trkpt lat="44.4811083" lon="8.5040583"><ele>447.99999999999994</ele><time>2026-03-26T14:28:16.942Z</time></trkpt><trkpt lat="44.4810717" lon="8.50393"><ele>447.99999999999994</ele><time>2026-03-26T14:28:17.943Z</time></trkpt><trkpt lat="44.4810517" lon="8.5037883"><ele>448.0</ele><time>2026-03-26T14:28:18.943Z</time></trkpt><trkpt lat="44.4810617" lon="8.5036483"><ele>448.0</ele><time>2026-03-26T14:28:19.943Z</time></trkpt><trkpt lat="44.4810733" lon="8.5035233"><ele>447.83333333333337</ele><time>2026-03-26T14:28:20.942Z</time></trkpt><trkpt lat="44.4810817" lon="8.50341"><ele>447.6666666666667</ele><time>2026-03-26T14:28:21.942Z</time></trkpt><trkpt lat="44.481065" lon="8.5033067"><ele>447.5</ele><time>2026-03-26T14:28:22.943Z</time></trkpt><trkpt lat="44.4810017" lon="8.503215"><ele>447.33333333333337</ele><time>2026-03-26T14:28:23.943Z</time></trkpt><trkpt lat="44.4809333" lon="8.5031167"><ele>447.1666666666667</ele><time>2026-03-26T14:28:24.942Z</time></trkpt><trkpt lat="44.48088" lon="8.503005"><ele>447.0</ele><time>2026-03-26T14:28:25.942Z</time></trkpt><trkpt lat="44.4808533" lon="8.5029"><ele>446.0</ele><time>2026-03-26T14:28:26.943Z</time></trkpt><trkpt lat="44.4808417" lon="8.5027933"><ele>445.0</ele><time>2026-03-26T14:28:27.943Z</time></trkpt><trkpt lat="44.4808467" lon="8.5026867"><ele>444.0</ele><time>2026-03-26T14:28:28.943Z</time></trkpt><trkpt lat="44.4808633" lon="8.5025833"><ele>443.0</ele><time>2026-03-26T14:28:29.942Z</time></trkpt><trkpt lat="44.4808883" lon="8.50248"><ele>442.0</ele><time>2026-03-26T14:28:30.943Z</time></trkpt><trkpt lat="44.480915" lon="8.5023817"><ele>441.0</ele><time>2026-03-26T14:28:31.942Z</time></trkpt><trkpt lat="44.48093" lon="8.5022817"><ele>441.0</ele><time>2026-03-26T14:28:32.942Z</time></trkpt><trkpt lat="44.4809383" lon="8.5021683"><ele>441.0</ele><time>2026-03-26T14:28:33.943Z</time></trkpt><trkpt lat="44.4809383" lon="8.5020583"><ele>441.0</ele><time>2026-03-26T14:28:34.942Z</time></trkpt><trkpt lat="44.4809283" lon="8.5019683"><ele>441.0</ele><time>2026-03-26T14:28:35.942Z</time></trkpt><trkpt lat="44.4809" lon="8.50181"><ele>441.0</ele><time>2026-03-26T14:28:37.943Z</time></trkpt><trkpt lat="44.4808867" lon="8.5016333"><ele>440.3333333333333</ele><time>2026-03-26T14:28:39.943Z</time></trkpt><trkpt lat="44.48089" lon="8.501535"><ele>439.66666666666663</ele><time>2026-03-26T14:28:40.943Z</time></trkpt><trkpt lat="44.4809083" lon="8.50144"><ele>439.0</ele><time>2026-03-26T14:28:41.942Z</time></trkpt><trkpt lat="44.4809617" lon="8.5012917"><ele>438.3333333333333</ele><time>2026-03-26T14:28:43.942Z</time></trkpt><trkpt lat="44.4810217" lon="8.50115"><ele>437.66666666666663</ele><time>2026-03-26T14:28:45.943Z</time></trkpt><trkpt lat="44.4810417" lon="8.50106"><ele>437.0</ele><time>2026-03-26T14:28:46.942Z</time></trkpt><trkpt lat="44.4810333" lon="8.5009633"><ele>436.66666666666663</ele><time>2026-03-26T14:28:47.942Z</time></trkpt><trkpt lat="44.4810133" lon="8.50087"><ele>436.3333333333333</ele><time>2026-03-26T14:28:48.942Z</time></trkpt><trkpt lat="44.48099" lon="8.50077"><ele>436.0</ele><time>2026-03-26T14:28:49.943Z</time></trkpt><trkpt lat="44.4809733" lon="8.50067"><ele>435.66666666666663</ele><time>2026-03-26T14:28:50.942Z</time></trkpt><trkpt lat="44.480965" lon="8.5005717"><ele>435.3333333333333</ele><time>2026-03-26T14:28:51.942Z</time></trkpt><trkpt lat="44.4809467" lon="8.5004117"><ele>435.0</ele><time>2026-03-26T14:28:53.942Z</time></trkpt><trkpt lat="44.4809383" lon="8.5002683"><ele>435.0</ele><time>2026-03-26T14:28:55.943Z</time></trkpt><trkpt lat="44.480925" lon="8.5001483"><ele>435.0</ele><time>2026-03-26T14:28:57.943Z</time></trkpt><trkpt lat="44.480835" lon="8.5002417"><ele>435.0</ele><time>2026-03-26T14:29:00.943Z</time></trkpt><trkpt lat="44.48078" lon="8.5003483"><ele>435.0</ele><time>2026-03-26T14:29:01.943Z</time></trkpt><trkpt lat="44.48071" lon="8.5004817"><ele>435.0</ele><time>2026-03-26T14:29:02.942Z</time></trkpt><trkpt lat="44.4806317" lon="8.5005967"><ele>435.0</ele><time>2026-03-26T14:29:03.942Z</time></trkpt><trkpt lat="44.48055" lon="8.5007067"><ele>435.0</ele><time>2026-03-26T14:29:04.943Z</time></trkpt><trkpt lat="44.4804467" lon="8.5008017"><ele>435.0</ele><time>2026-03-26T14:29:05.942Z</time></trkpt><trkpt lat="44.48035" lon="8.50088"><ele>435.0</ele><time>2026-03-26T14:29:06.943Z</time></trkpt><trkpt lat="44.480265" lon="8.5009317"><ele>435.0</ele><time>2026-03-26T14:29:07.942Z</time></trkpt><trkpt lat="44.480195" lon="8.50095"><ele>434.2</ele><time>2026-03-26T14:29:08.942Z</time></trkpt><trkpt lat="44.4801417" lon="8.500815"><ele>433.4</ele><time>2026-03-26T14:29:11.943Z</time></trkpt><trkpt lat="44.480115" lon="8.500725"><ele>432.6</ele><time>2026-03-26T14:29:12.942Z</time></trkpt><trkpt lat="44.4800833" lon="8.50062"><ele>431.8</ele><time>2026-03-26T14:29:13.942Z</time></trkpt><trkpt lat="44.4800433" lon="8.5004883"><ele>431.0</ele><time>2026-03-26T14:29:14.943Z</time></trkpt><trkpt lat="44.4799983" lon="8.50036"><ele>428.6</ele><time>2026-03-26T14:29:15.943Z</time></trkpt><trkpt lat="44.47994" lon="8.5002483"><ele>426.20000000000005</ele><time>2026-03-26T14:29:16.942Z</time></trkpt><trkpt lat="44.4798767" lon="8.5001517"><ele>423.79999999999995</ele><time>2026-03-26T14:29:17.942Z</time></trkpt><trkpt lat="44.4798067" lon="8.5000533"><ele>421.4</ele><time>2026-03-26T14:29:18.942Z</time></trkpt><trkpt lat="44.479715" lon="8.49998"><ele>419.0</ele><time>2026-03-26T14:29:19.943Z</time></trkpt><trkpt lat="44.4796233" lon="8.499915"><ele>416.0</ele><time>2026-03-26T14:29:20.942Z</time></trkpt><trkpt lat="44.47953" lon="8.4998433"><ele>413.0</ele><time>2026-03-26T14:29:21.942Z</time></trkpt><trkpt lat="44.4794267" lon="8.4997667"><ele>410.0</ele><time>2026-03-26T14:29:22.942Z</time></trkpt><trkpt lat="44.47933" lon="8.4996783"><ele>407.0</ele><time>2026-03-26T14:29:23.942Z</time></trkpt><trkpt lat="44.4792483" lon="8.4996033"><ele>404.0</ele><time>2026-03-26T14:29:24.942Z</time></trkpt><trkpt lat="44.4791567" lon="8.4995367"><ele>403.2</ele><time>2026-03-26T14:29:25.943Z</time></trkpt><trkpt lat="44.4790667" lon="8.4994867"><ele>402.4</ele><time>2026-03-26T14:29:26.943Z</time></trkpt><trkpt lat="44.4789733" lon="8.499455"><ele>401.6</ele><time>2026-03-26T14:29:27.942Z</time></trkpt><trkpt lat="44.4788967" lon="8.4994317"><ele>400.8</ele><time>2026-03-26T14:29:28.942Z</time></trkpt><trkpt lat="44.4788267" lon="8.49941"><ele>400.0</ele><time>2026-03-26T14:29:29.942Z</time></trkpt><trkpt lat="44.478715" lon="8.499355"><ele>398.2</ele><time>2026-03-26T14:29:31.943Z</time></trkpt><trkpt lat="44.4786417" lon="8.4993317"><ele>396.4</ele><time>2026-03-26T14:29:33.942Z</time></trkpt><trkpt lat="44.4785833" lon="8.4992867"><ele>394.6</ele><time>2026-03-26T14:29:35.942Z</time></trkpt><trkpt lat="44.4785883" lon="8.49918"><ele>392.8</ele><time>2026-03-26T14:29:37.943Z</time></trkpt><trkpt lat="44.47863" lon="8.4989883"><ele>391.0</ele><time>2026-03-26T14:29:39.943Z</time></trkpt><trkpt lat="44.4786417" lon="8.498855"><ele>390.20000000000005</ele><time>2026-03-26T14:29:40.942Z</time></trkpt><trkpt lat="44.4786667" lon="8.49873"><ele>389.40000000000003</ele><time>2026-03-26T14:29:41.942Z</time></trkpt><trkpt lat="44.4787" lon="8.4986"><ele>388.6</ele><time>2026-03-26T14:29:42.943Z</time></trkpt><trkpt lat="44.4787367" lon="8.4984733"><ele>387.8</ele><time>2026-03-26T14:29:43.944Z</time></trkpt><trkpt lat="44.478755" lon="8.4983583"><ele>387.0</ele><time>2026-03-26T14:29:44.943Z</time></trkpt><trkpt lat="44.4787767" lon="8.4982483"><ele>387.0</ele><time>2026-03-26T14:29:45.944Z</time></trkpt><trkpt lat="44.4788017" lon="8.4981483"><ele>387.0</ele><time>2026-03-26T14:29:46.944Z</time></trkpt><trkpt lat="44.4788433" lon="8.4980117"><ele>387.0</ele><time>2026-03-26T14:29:48.944Z</time></trkpt><trkpt lat="44.4787583" lon="8.4979983"><ele>387.0</ele><time>2026-03-26T14:29:51.944Z</time></trkpt><trkpt lat="44.47871" lon="8.4980633"><ele>387.0</ele><time>2026-03-26T14:29:52.944Z</time></trkpt><trkpt lat="44.47864" lon="8.498145"><ele>387.0</ele><time>2026-03-26T14:29:53.944Z</time></trkpt><trkpt lat="44.4785583" lon="8.49823"><ele>387.0</ele><time>2026-03-26T14:29:54.943Z</time></trkpt><trkpt lat="44.4784783" lon="8.4983233"><ele>387.0</ele><time>2026-03-26T14:29:55.943Z</time></trkpt><trkpt lat="44.4783983" lon="8.4984167"><ele>387.0</ele><time>2026-03-26T14:29:56.943Z</time></trkpt><trkpt lat="44.4783117" lon="8.498495"><ele>387.0</ele><time>2026-03-26T14:29:57.943Z</time></trkpt><trkpt lat="44.47823" lon="8.4985467"><ele>387.0</ele><time>2026-03-26T14:29:58.944Z</time></trkpt><trkpt lat="44.47815" lon="8.4985467"><ele>387.0</ele><time>2026-03-26T14:29:59.944Z</time></trkpt><trkpt lat="44.4780833" lon="8.4984983"><ele>387.0</ele><time>2026-03-26T14:30:00.943Z</time></trkpt><trkpt lat="44.4780317" lon="8.4984067"><ele>387.0</ele><time>2026-03-26T14:30:01.943Z</time></trkpt><trkpt lat="44.47799" lon="8.4982883"><ele>387.0</ele><time>2026-03-26T14:30:02.943Z</time></trkpt><trkpt lat="44.47796" lon="8.4981533"><ele>387.0</ele><time>2026-03-26T14:30:03.944Z</time></trkpt><trkpt lat="44.47794" lon="8.4980217"><ele>387.0</ele><time>2026-03-26T14:30:04.944Z</time></trkpt><trkpt lat="44.4779117" lon="8.4978883"><ele>387.3333333333333</ele><time>2026-03-26T14:30:05.943Z</time></trkpt><trkpt lat="44.4778817" lon="8.4977783"><ele>387.66666666666663</ele><time>2026-03-26T14:30:06.943Z</time></trkpt><trkpt lat="44.4778483" lon="8.4976917"><ele>388.0</ele><time>2026-03-26T14:30:07.943Z</time></trkpt><trkpt lat="44.4777667" lon="8.4975983"><ele>388.3333333333333</ele><time>2026-03-26T14:30:09.943Z</time></trkpt><trkpt lat="44.4776717" lon="8.4975667"><ele>388.66666666666663</ele><time>2026-03-26T14:30:11.944Z</time></trkpt><trkpt lat="44.47761" lon="8.4976383"><ele>389.0</ele><time>2026-03-26T14:30:13.944Z</time></trkpt><trkpt lat="44.477605" lon="8.4977317"><ele>389.0</ele><time>2026-03-26T14:30:14.943Z</time></trkpt><trkpt lat="44.477605" lon="8.49785"><ele>389.0</ele><time>2026-03-26T14:30:15.944Z</time></trkpt><trkpt lat="44.4776017" lon="8.4979817"><ele>389.0</ele><time>2026-03-26T14:30:16.944Z</time></trkpt><trkpt lat="44.47759" lon="8.49812"><ele>389.0</ele><time>2026-03-26T14:30:17.944Z</time></trkpt><trkpt lat="44.4775767" lon="8.498275"><ele>389.0</ele><time>2026-03-26T14:30:18.943Z</time></trkpt><trkpt lat="44.4775717" lon="8.49841"><ele>389.4</ele><time>2026-03-26T14:30:19.944Z</time></trkpt><trkpt lat="44.477575" lon="8.4985583"><ele>389.79999999999995</ele><time>2026-03-26T14:30:20.943Z</time></trkpt><trkpt lat="44.4775717" lon="8.4987083"><ele>390.20000000000005</ele><time>2026-03-26T14:30:21.944Z</time></trkpt><trkpt lat="44.477565" lon="8.49886"><ele>390.6</ele><time>2026-03-26T14:30:22.944Z</time></trkpt><trkpt lat="44.4775617" lon="8.499015"><ele>391.0</ele><time>2026-03-26T14:30:23.943Z</time></trkpt><trkpt lat="44.4775683" lon="8.49917"><ele>391.0</ele><time>2026-03-26T14:30:24.943Z</time></trkpt><trkpt lat="44.4775817" lon="8.499325"><ele>391.0</ele><time>2026-03-26T14:30:25.943Z</time></trkpt><trkpt lat="44.4775817" lon="8.499485"><ele>391.0</ele><time>2026-03-26T14:30:26.943Z</time></trkpt><trkpt lat="44.47759" lon="8.49965"><ele>391.0</ele><time>2026-03-26T14:30:27.944Z</time></trkpt><trkpt lat="44.4776017" lon="8.49983"><ele>392.5</ele><time>2026-03-26T14:30:28.944Z</time></trkpt><trkpt lat="44.4776133" lon="8.5000033"><ele>394.0</ele><time>2026-03-26T14:30:29.943Z</time></trkpt><trkpt lat="44.4776183" lon="8.5001817"><ele>395.5</ele><time>2026-03-26T14:30:30.943Z</time></trkpt><trkpt lat="44.477635" lon="8.5003633"><ele>397.0</ele><time>2026-03-26T14:30:31.944Z</time></trkpt><trkpt lat="44.4776667" lon="8.50054"><ele>400.25</ele><time>2026-03-26T14:30:32.943Z</time></trkpt><trkpt lat="44.4777167" lon="8.5007033"><ele>403.5</ele><time>2026-03-26T14:30:33.944Z</time></trkpt><trkpt lat="44.47773" lon="8.500865"><ele>406.75</ele><time>2026-03-26T14:30:34.944Z</time></trkpt><trkpt lat="44.4777433" lon="8.501035"><ele>410.0</ele><time>2026-03-26T14:30:35.944Z</time></trkpt><trkpt lat="44.4777567" lon="8.5012133"><ele>411.25</ele><time>2026-03-26T14:30:36.944Z</time></trkpt><trkpt lat="44.4777717" lon="8.5013917"><ele>412.5</ele><time>2026-03-26T14:30:37.944Z</time></trkpt><trkpt lat="44.4777817" lon="8.5015633"><ele>413.75</ele><time>2026-03-26T14:30:38.943Z</time></trkpt><trkpt lat="44.4778" lon="8.5017333"><ele>415.0</ele><time>2026-03-26T14:30:39.944Z</time></trkpt><trkpt lat="44.4778183" lon="8.50191"><ele>416.25</ele><time>2026-03-26T14:30:40.944Z</time></trkpt><trkpt lat="44.47783" lon="8.5020833"><ele>417.5</ele><time>2026-03-26T14:30:41.944Z</time></trkpt><trkpt lat="44.4778333" lon="8.502245"><ele>418.75</ele><time>2026-03-26T14:30:42.943Z</time></trkpt><trkpt lat="44.4778217" lon="8.5023983"><ele>420.0</ele><time>2026-03-26T14:30:43.943Z</time></trkpt><trkpt lat="44.4777933" lon="8.5025517"><ele>420.0</ele><time>2026-03-26T14:30:44.943Z</time></trkpt><trkpt lat="44.4777667" lon="8.5027017"><ele>420.0</ele><time>2026-03-26T14:30:45.944Z</time></trkpt><trkpt lat="44.4777483" lon="8.5028633"><ele>420.0</ele><time>2026-03-26T14:30:46.943Z</time></trkpt><trkpt lat="44.4777433" lon="8.5030433"><ele>420.0</ele><time>2026-03-26T14:30:47.943Z</time></trkpt><trkpt lat="44.4777383" lon="8.50321"><ele>419.25</ele><time>2026-03-26T14:30:48.943Z</time></trkpt><trkpt lat="44.4777333" lon="8.50337"><ele>418.5</ele><time>2026-03-26T14:30:49.943Z</time></trkpt><trkpt lat="44.4777317" lon="8.5035333"><ele>417.75</ele><time>2026-03-26T14:30:50.943Z</time></trkpt><trkpt lat="44.4777217" lon="8.503695"><ele>417.0</ele><time>2026-03-26T14:30:51.944Z</time></trkpt><trkpt lat="44.4777083" lon="8.5038567"><ele>417.0</ele><time>2026-03-26T14:30:52.943Z</time></trkpt><trkpt lat="44.4776767" lon="8.50401"><ele>417.0</ele><time>2026-03-26T14:30:53.944Z</time></trkpt><trkpt lat="44.4776483" lon="8.5041733"><ele>417.0</ele><time>2026-03-26T14:30:54.943Z</time></trkpt><trkpt lat="44.477615" lon="8.5043267"><ele>417.0</ele><time>2026-03-26T14:30:55.944Z</time></trkpt><trkpt lat="44.47759" lon="8.5044717"><ele>416.3333333333333</ele><time>2026-03-26T14:30:56.943Z</time></trkpt><trkpt lat="44.4775633" lon="8.50461"><ele>415.66666666666663</ele><time>2026-03-26T14:30:57.944Z</time></trkpt><trkpt lat="44.47754" lon="8.5047267"><ele>415.0</ele><time>2026-03-26T14:30:58.944Z</time></trkpt><trkpt lat="44.4775167" lon="8.50482"><ele>414.3333333333333</ele><time>2026-03-26T14:30:59.943Z</time></trkpt><trkpt lat="44.4774783" lon="8.5048933"><ele>413.66666666666663</ele><time>2026-03-26T14:31:00.943Z</time></trkpt><trkpt lat="44.4773617" lon="8.5049533"><ele>413.0</ele><time>2026-03-26T14:31:02.943Z</time></trkpt><trkpt lat="44.4772783" lon="8.5049517"><ele>413.0</ele><time>2026-03-26T14:31:03.943Z</time></trkpt><trkpt lat="44.4771833" lon="8.50495"><ele>413.0</ele><time>2026-03-26T14:31:04.943Z</time></trkpt><trkpt lat="44.4770883" lon="8.50496"><ele>413.0</ele><time>2026-03-26T14:31:05.943Z</time></trkpt><trkpt lat="44.4769867" lon="8.5049967"><ele>413.0</ele><time>2026-03-26T14:31:06.944Z</time></trkpt><trkpt lat="44.4769017" lon="8.5050617"><ele>413.0</ele><time>2026-03-26T14:31:07.943Z</time></trkpt><trkpt lat="44.47682" lon="8.5051717"><ele>416.25</ele><time>2026-03-26T14:31:08.943Z</time></trkpt><trkpt lat="44.47676" lon="8.50532"><ele>419.5</ele><time>2026-03-26T14:31:09.943Z</time></trkpt><trkpt lat="44.47673" lon="8.505485"><ele>422.75</ele><time>2026-03-26T14:31:10.944Z</time></trkpt><trkpt lat="44.4767183" lon="8.50567"><ele>426.0</ele><time>2026-03-26T14:31:11.943Z</time></trkpt><trkpt lat="44.4767183" lon="8.50586"><ele>426.0</ele><time>2026-03-26T14:31:12.944Z</time></trkpt><trkpt lat="44.4767183" lon="8.506045"><ele>426.0</ele><time>2026-03-26T14:31:13.943Z</time></trkpt><trkpt lat="44.47672" lon="8.5062083"><ele>426.0</ele><time>2026-03-26T14:31:14.943Z</time></trkpt><trkpt lat="44.4767" lon="8.5063467"><ele>426.0</ele><time>2026-03-26T14:31:15.943Z</time></trkpt><trkpt lat="44.476665" lon="8.5064783"><ele>426.0</ele><time>2026-03-26T14:31:16.944Z</time></trkpt><trkpt lat="44.4766217" lon="8.50659"><ele>426.0</ele><time>2026-03-26T14:31:17.944Z</time></trkpt><trkpt lat="44.4765683" lon="8.506685"><ele>426.0</ele><time>2026-03-26T14:31:18.944Z</time></trkpt><trkpt lat="44.4764733" lon="8.5067467"><ele>426.0</ele><time>2026-03-26T14:31:19.943Z</time></trkpt><trkpt lat="44.476375" lon="8.506805"><ele>426.0</ele><time>2026-03-26T14:31:20.943Z</time></trkpt><trkpt lat="44.4762833" lon="8.5068617"><ele>426.0</ele><time>2026-03-26T14:31:21.944Z</time></trkpt><trkpt lat="44.47618" lon="8.506915"><ele>428.25</ele><time>2026-03-26T14:31:22.943Z</time></trkpt><trkpt lat="44.4760317" lon="8.5069817"><ele>430.5</ele><time>2026-03-26T14:31:23.943Z</time></trkpt><trkpt lat="44.4759133" lon="8.5070533"><ele>432.75</ele><time>2026-03-26T14:31:24.943Z</time></trkpt><trkpt lat="44.4758083" lon="8.5071333"><ele>435.0</ele><time>2026-03-26T14:31:25.944Z</time></trkpt><trkpt lat="44.4757033" lon="8.507225"><ele>434.4</ele><time>2026-03-26T14:31:26.943Z</time></trkpt><trkpt lat="44.47559" lon="8.5073017"><ele>433.8</ele><time>2026-03-26T14:31:27.944Z</time></trkpt><trkpt lat="44.4754967" lon="8.50738"><ele>433.20000000000005</ele><time>2026-03-26T14:31:28.944Z</time></trkpt><trkpt lat="44.4754017" lon="8.507435"><ele>432.6</ele><time>2026-03-26T14:31:29.944Z</time></trkpt><trkpt lat="44.4753033" lon="8.5074767"><ele>432.0</ele><time>2026-03-26T14:31:30.944Z</time></trkpt><trkpt lat="44.4751967" lon="8.5074883"><ele>432.0</ele><time>2026-03-26T14:31:31.943Z</time></trkpt><trkpt lat="44.4750817" lon="8.5074933"><ele>432.0</ele><time>2026-03-26T14:31:32.944Z</time></trkpt><trkpt lat="44.474965" lon="8.5075133"><ele>432.0</ele><time>2026-03-26T14:31:33.943Z</time></trkpt><trkpt lat="44.4748483" lon="8.50752"><ele>432.0</ele><time>2026-03-26T14:31:34.943Z</time></trkpt><trkpt lat="44.474735" lon="8.5075383"><ele>432.0</ele><time>2026-03-26T14:31:35.944Z</time></trkpt><trkpt lat="44.47463" lon="8.5075717"><ele>432.00000000000006</ele><time>2026-03-26T14:31:36.944Z</time></trkpt><trkpt lat="44.47453" lon="8.5076217"><ele>432.00000000000006</ele><time>2026-03-26T14:31:37.943Z</time></trkpt><trkpt lat="44.474435" lon="8.507685"><ele>432.0</ele><time>2026-03-26T14:31:38.944Z</time></trkpt><trkpt lat="44.4743417" lon="8.50776"><ele>432.0</ele><time>2026-03-26T14:31:39.943Z</time></trkpt><trkpt lat="44.4742417" lon="8.5078383"><ele>433.5</ele><time>2026-03-26T14:31:40.943Z</time></trkpt><trkpt lat="44.4741417" lon="8.5079167"><ele>435.0</ele><time>2026-03-26T14:31:41.944Z</time></trkpt><trkpt lat="44.4740367" lon="8.507985"><ele>436.5</ele><time>2026-03-26T14:31:42.943Z</time></trkpt><trkpt lat="44.4739317" lon="8.5080467"><ele>438.0</ele><time>2026-03-26T14:31:43.943Z</time></trkpt><trkpt lat="44.473835" lon="8.5081183"><ele>437.0</ele><time>2026-03-26T14:31:44.944Z</time></trkpt><trkpt lat="44.4737433" lon="8.5081983"><ele>436.0</ele><time>2026-03-26T14:31:45.944Z</time></trkpt><trkpt lat="44.4736383" lon="8.5082833"><ele>435.0</ele><time>2026-03-26T14:31:46.944Z</time></trkpt><trkpt lat="44.4735383" lon="8.5083667"><ele>434.0</ele><time>2026-03-26T14:31:47.944Z</time></trkpt><trkpt lat="44.4734417" lon="8.50845"><ele>434.0</ele><time>2026-03-26T14:31:48.943Z</time></trkpt><trkpt lat="44.4733583" lon="8.5085367"><ele>434.0</ele><time>2026-03-26T14:31:49.944Z</time></trkpt><trkpt lat="44.4732883" lon="8.50865"><ele>434.0</ele><time>2026-03-26T14:31:50.943Z</time></trkpt><trkpt lat="44.4732133" lon="8.5087767"><ele>434.0</ele><time>2026-03-26T14:31:51.944Z</time></trkpt><trkpt lat="44.4731417" lon="8.50891"><ele>434.0</ele><time>2026-03-26T14:31:52.943Z</time></trkpt><trkpt lat="44.4730817" lon="8.509055"><ele>433.49999999999994</ele><time>2026-03-26T14:31:53.943Z</time></trkpt><trkpt lat="44.4730367" lon="8.5092"><ele>433.0</ele><time>2026-03-26T14:31:54.944Z</time></trkpt><trkpt lat="44.4730083" lon="8.50933"><ele>432.5</ele><time>2026-03-26T14:31:55.943Z</time></trkpt><trkpt lat="44.4729733" lon="8.5094517"><ele>432.0</ele><time>2026-03-26T14:31:56.943Z</time></trkpt><trkpt lat="44.47294" lon="8.509545"><ele>431.49999999999994</ele><time>2026-03-26T14:31:57.943Z</time></trkpt><trkpt lat="44.4728967" lon="8.50962"><ele>431.0</ele><time>2026-03-26T14:31:58.944Z</time></trkpt><trkpt lat="44.4728233" lon="8.509675"><ele>431.0</ele><time>2026-03-26T14:31:59.944Z</time></trkpt><trkpt lat="44.4727383" lon="8.5097333"><ele>431.0</ele><time>2026-03-26T14:32:00.943Z</time></trkpt><trkpt lat="44.4726517" lon="8.5098033"><ele>431.0</ele><time>2026-03-26T14:32:01.944Z</time></trkpt><trkpt lat="44.47255" lon="8.5099033"><ele>431.0</ele><time>2026-03-26T14:32:02.944Z</time></trkpt><trkpt lat="44.4724383" lon="8.51004"><ele>431.0</ele><time>2026-03-26T14:32:03.943Z</time></trkpt><trkpt lat="44.4723233" lon="8.5101867"><ele>431.0</ele><time>2026-03-26T14:32:04.944Z</time></trkpt><trkpt lat="44.4722183" lon="8.510325"><ele>431.0</ele><time>2026-03-26T14:32:05.943Z</time></trkpt><trkpt lat="44.4721267" lon="8.5104517"><ele>431.0</ele><time>2026-03-26T14:32:06.944Z</time></trkpt><trkpt lat="44.4720533" lon="8.5105683"><ele>431.8</ele><time>2026-03-26T14:32:07.943Z</time></trkpt><trkpt lat="44.471995" lon="8.51069"><ele>432.6</ele><time>2026-03-26T14:32:08.943Z</time></trkpt><trkpt lat="44.471965" lon="8.510825"><ele>433.4</ele><time>2026-03-26T14:32:09.944Z</time></trkpt><trkpt lat="44.4719633" lon="8.510975"><ele>434.2</ele><time>2026-03-26T14:32:10.943Z</time></trkpt><trkpt lat="44.4719733" lon="8.5111283"><ele>435.0</ele><time>2026-03-26T14:32:11.943Z</time></trkpt><trkpt lat="44.4719883" lon="8.5113117"><ele>435.0</ele><time>2026-03-26T14:32:12.943Z</time></trkpt><trkpt lat="44.4720017" lon="8.5114883"><ele>435.0</ele><time>2026-03-26T14:32:13.944Z</time></trkpt><trkpt lat="44.4720333" lon="8.5116317"><ele>435.0</ele><time>2026-03-26T14:32:14.943Z</time></trkpt><trkpt lat="44.4720333" lon="8.5117583"><ele>435.0</ele><time>2026-03-26T14:32:15.943Z</time></trkpt><trkpt lat="44.4720033" lon="8.511885"><ele>435.0</ele><time>2026-03-26T14:32:16.944Z</time></trkpt><trkpt lat="44.471965" lon="8.5119983"><ele>437.0</ele><time>2026-03-26T14:32:17.943Z</time></trkpt><trkpt lat="44.4719017" lon="8.5121117"><ele>439.0</ele><time>2026-03-26T14:32:18.943Z</time></trkpt><trkpt lat="44.471835" lon="8.5122317"><ele>441.0</ele><time>2026-03-26T14:32:19.944Z</time></trkpt><trkpt lat="44.4717683" lon="8.51234"><ele>443.0</ele><time>2026-03-26T14:32:20.944Z</time></trkpt><trkpt lat="44.4717117" lon="8.5124567"><ele>445.0</ele><time>2026-03-26T14:32:21.944Z</time></trkpt><trkpt lat="44.4716467" lon="8.5125717"><ele>445.0</ele><time>2026-03-26T14:32:22.943Z</time></trkpt><trkpt lat="44.4715833" lon="8.5126833"><ele>445.0</ele><time>2026-03-26T14:32:23.943Z</time></trkpt><trkpt lat="44.471515" lon="8.51281"><ele>445.0</ele><time>2026-03-26T14:32:24.943Z</time></trkpt><trkpt lat="44.4714383" lon="8.512915"><ele>445.0</ele><time>2026-03-26T14:32:25.943Z</time></trkpt><trkpt lat="44.4713583" lon="8.5130117"><ele>445.0</ele><time>2026-03-26T14:32:26.943Z</time></trkpt><trkpt lat="44.471285" lon="8.5130967"><ele>444.83333333333337</ele><time>2026-03-26T14:32:27.943Z</time></trkpt><trkpt lat="44.471205" lon="8.5131717"><ele>444.6666666666667</ele><time>2026-03-26T14:32:28.944Z</time></trkpt><trkpt lat="44.471135" lon="8.5132433"><ele>444.5</ele><time>2026-03-26T14:32:29.943Z</time></trkpt><trkpt lat="44.4710417" lon="8.5132967"><ele>444.33333333333337</ele><time>2026-03-26T14:32:30.944Z</time></trkpt><trkpt lat="44.4709667" lon="8.5133233"><ele>444.1666666666667</ele><time>2026-03-26T14:32:31.943Z</time></trkpt><trkpt lat="44.4709017" lon="8.51336"><ele>444.0</ele><time>2026-03-26T14:32:32.943Z</time></trkpt><trkpt lat="44.4708667" lon="8.5134967"><ele>444.0</ele><time>2026-03-26T14:32:34.943Z</time></trkpt><trkpt lat="44.4708933" lon="8.5136517"><ele>444.0</ele><time>2026-03-26T14:32:36.943Z</time></trkpt><trkpt lat="44.4708667" lon="8.513765"><ele>444.0</ele><time>2026-03-26T14:32:47.943Z</time></trkpt><trkpt lat="44.47078" lon="8.51379"><ele>444.0</ele><time>2026-03-26T14:32:50.943Z</time></trkpt><trkpt lat="44.4706833" lon="8.5137633"><ele>444.0</ele><time>2026-03-26T14:32:52.943Z</time></trkpt><trkpt lat="44.4705717" lon="8.5136467"><ele>444.0</ele><time>2026-03-26T14:32:54.944Z</time></trkpt><trkpt lat="44.470515" lon="8.5135583"><ele>444.0</ele><time>2026-03-26T14:32:55.943Z</time></trkpt><trkpt lat="44.4704667" lon="8.51346"><ele>444.0</ele><time>2026-03-26T14:32:56.944Z</time></trkpt><trkpt lat="44.4704167" lon="8.51337"><ele>444.0</ele><time>2026-03-26T14:32:57.943Z</time></trkpt><trkpt lat="44.47037" lon="8.5132967"><ele>444.0</ele><time>2026-03-26T14:32:58.943Z</time></trkpt><trkpt lat="44.4702683" lon="8.5132333"><ele>444.0</ele><time>2026-03-26T14:33:00.943Z</time></trkpt><trkpt lat="44.470145" lon="8.513235"><ele>444.8333333333333</ele><time>2026-03-26T14:33:02.943Z</time></trkpt><trkpt lat="44.4700317" lon="8.513175"><ele>445.66666666666663</ele><time>2026-03-26T14:33:04.943Z</time></trkpt><trkpt lat="44.4699867" lon="8.5131"><ele>446.5</ele><time>2026-03-26T14:33:05.944Z</time></trkpt><trkpt lat="44.4699433" lon="8.5130033"><ele>447.3333333333333</ele><time>2026-03-26T14:33:06.944Z</time></trkpt><trkpt lat="44.46989" lon="8.5129183"><ele>448.16666666666663</ele><time>2026-03-26T14:33:07.943Z</time></trkpt><trkpt lat="44.4698233" lon="8.5128533"><ele>449.0</ele><time>2026-03-26T14:33:08.944Z</time></trkpt><trkpt lat="44.4697467" lon="8.512805"><ele>449.0</ele><time>2026-03-26T14:33:09.943Z</time></trkpt><trkpt lat="44.4696667" lon="8.51278"><ele>449.0</ele><time>2026-03-26T14:33:10.944Z</time></trkpt><trkpt lat="44.46959" lon="8.512785"><ele>449.0</ele><time>2026-03-26T14:33:11.944Z</time></trkpt><trkpt lat="44.4695033" lon="8.5128467"><ele>449.0</ele><time>2026-03-26T14:33:12.944Z</time></trkpt><trkpt lat="44.4694017" lon="8.5129217"><ele>449.0</ele><time>2026-03-26T14:33:13.943Z</time></trkpt><trkpt lat="44.469325" lon="8.512995"><ele>453.6</ele><time>2026-03-26T14:33:14.943Z</time></trkpt><trkpt lat="44.4692567" lon="8.5130817"><ele>458.2</ele><time>2026-03-26T14:33:15.943Z</time></trkpt><trkpt lat="44.4691933" lon="8.5131633"><ele>462.80000000000007</ele><time>2026-03-26T14:33:16.944Z</time></trkpt><trkpt lat="44.469135" lon="8.5132683"><ele>467.40000000000003</ele><time>2026-03-26T14:33:17.943Z</time></trkpt><trkpt lat="44.4690783" lon="8.5134"><ele>472.0</ele><time>2026-03-26T14:33:18.943Z</time></trkpt><trkpt lat="44.4690283" lon="8.5135333"><ele>472.0</ele><time>2026-03-26T14:33:19.944Z</time></trkpt><trkpt lat="44.4689867" lon="8.5136933"><ele>472.00000000000006</ele><time>2026-03-26T14:33:20.943Z</time></trkpt><trkpt lat="44.4689517" lon="8.5138517"><ele>472.00000000000006</ele><time>2026-03-26T14:33:21.943Z</time></trkpt><trkpt lat="44.4689233" lon="8.5139933"><ele>472.0</ele><time>2026-03-26T14:33:22.944Z</time></trkpt><trkpt lat="44.4688967" lon="8.5141217"><ele>472.0</ele><time>2026-03-26T14:33:23.943Z</time></trkpt><trkpt lat="44.4688633" lon="8.5142267"><ele>475.33333333333337</ele><time>2026-03-26T14:33:24.944Z</time></trkpt><trkpt lat="44.46883" lon="8.514305"><ele>478.6666666666667</ele><time>2026-03-26T14:33:25.944Z</time></trkpt><trkpt lat="44.4687183" lon="8.5143767"><ele>482.0</ele><time>2026-03-26T14:33:27.943Z</time></trkpt><trkpt lat="44.468655" lon="8.51437"><ele>485.33333333333337</ele><time>2026-03-26T14:33:28.943Z</time></trkpt><trkpt lat="44.46859" lon="8.514345"><ele>488.6666666666667</ele><time>2026-03-26T14:33:29.943Z</time></trkpt><trkpt lat="44.4685283" lon="8.5143"><ele>492.0</ele><time>2026-03-26T14:33:30.943Z</time></trkpt><trkpt lat="44.4684417" lon="8.5142633"><ele>492.0</ele><time>2026-03-26T14:33:31.944Z</time></trkpt><trkpt lat="44.4683583" lon="8.5142517"><ele>492.0</ele><time>2026-03-26T14:33:32.944Z</time></trkpt><trkpt lat="44.4682767" lon="8.5142333"><ele>492.0</ele><time>2026-03-26T14:33:33.943Z</time></trkpt><trkpt lat="44.4682083" lon="8.5142033"><ele>492.0</ele><time>2026-03-26T14:33:34.943Z</time></trkpt><trkpt lat="44.4681333" lon="8.5141617"><ele>492.0</ele><time>2026-03-26T14:33:35.944Z</time></trkpt><trkpt lat="44.468025" lon="8.51411"><ele>492.0</ele><time>2026-03-26T14:33:37.944Z</time></trkpt><trkpt lat="44.46796" lon="8.51411"><ele>493.1666666666667</ele><time>2026-03-26T14:33:38.944Z</time></trkpt><trkpt lat="44.46789" lon="8.51412"><ele>494.33333333333337</ele><time>2026-03-26T14:33:39.943Z</time></trkpt><trkpt lat="44.4678117" lon="8.5141583"><ele>495.5</ele><time>2026-03-26T14:33:40.943Z</time></trkpt><trkpt lat="44.467735" lon="8.51422"><ele>496.6666666666667</ele><time>2026-03-26T14:33:41.943Z</time></trkpt><trkpt lat="44.467665" lon="8.51428"><ele>497.83333333333337</ele><time>2026-03-26T14:33:42.943Z</time></trkpt><trkpt lat="44.467605" lon="8.5143383"><ele>499.0</ele><time>2026-03-26T14:33:43.943Z</time></trkpt><trkpt lat="44.4675517" lon="8.5143917"><ele>499.0</ele><time>2026-03-26T14:33:44.944Z</time></trkpt><trkpt lat="44.4674617" lon="8.5144017"><ele>499.0</ele><time>2026-03-26T14:33:46.943Z</time></trkpt><trkpt lat="44.46739" lon="8.51431"><ele>499.0</ele><time>2026-03-26T14:33:48.944Z</time></trkpt><trkpt lat="44.4672583" lon="8.5142083"><ele>499.0</ele><time>2026-03-26T14:33:50.944Z</time></trkpt><trkpt lat="44.4671533" lon="8.5141533"><ele>501.2</ele><time>2026-03-26T14:33:51.944Z</time></trkpt><trkpt lat="44.4670467" lon="8.5141083"><ele>503.4</ele><time>2026-03-26T14:33:52.944Z</time></trkpt><trkpt lat="44.4669467" lon="8.5140633"><ele>505.6</ele><time>2026-03-26T14:33:53.944Z</time></trkpt><trkpt lat="44.4668533" lon="8.51402"><ele>507.8</ele><time>2026-03-26T14:33:54.943Z</time></trkpt><trkpt lat="44.4667483" lon="8.5139917"><ele>510.0</ele><time>2026-03-26T14:33:55.943Z</time></trkpt><trkpt lat="44.4666533" lon="8.5139533"><ele>510.0</ele><time>2026-03-26T14:33:56.943Z</time></trkpt><trkpt lat="44.4665733" lon="8.5139183"><ele>510.0</ele><time>2026-03-26T14:33:57.943Z</time></trkpt><trkpt lat="44.4664833" lon="8.5138917"><ele>510.0</ele><time>2026-03-26T14:33:58.944Z</time></trkpt><trkpt lat="44.466395" lon="8.5138883"><ele>510.0</ele><time>2026-03-26T14:33:59.944Z</time></trkpt><trkpt lat="44.4663217" lon="8.5138967"><ele>510.0</ele><time>2026-03-26T14:34:00.943Z</time></trkpt><trkpt lat="44.466245" lon="8.5139417"><ele>510.0</ele><time>2026-03-26T14:34:01.943Z</time></trkpt><trkpt lat="44.46616" lon="8.5140117"><ele>509.8</ele><time>2026-03-26T14:34:02.944Z</time></trkpt><trkpt lat="44.4660917" lon="8.5140933"><ele>509.6</ele><time>2026-03-26T14:34:03.943Z</time></trkpt><trkpt lat="44.46602" lon="8.5141817"><ele>509.4</ele><time>2026-03-26T14:34:04.944Z</time></trkpt><trkpt lat="44.4659517" lon="8.5142533"><ele>509.2</ele><time>2026-03-26T14:34:05.944Z</time></trkpt><trkpt lat="44.4658683" lon="8.5143"><ele>509.0</ele><time>2026-03-26T14:34:06.944Z</time></trkpt><trkpt lat="44.4657733" lon="8.51434"><ele>508.99999999999994</ele><time>2026-03-26T14:34:07.944Z</time></trkpt><trkpt lat="44.4657133" lon="8.5143767"><ele>509.0</ele><time>2026-03-26T14:34:08.944Z</time></trkpt><trkpt lat="44.465655" lon="8.5144383"><ele>509.0</ele><time>2026-03-26T14:34:09.943Z</time></trkpt><trkpt lat="44.4656017" lon="8.5144933"><ele>509.0</ele><time>2026-03-26T14:34:10.943Z</time></trkpt><trkpt lat="44.4655433" lon="8.5145367"><ele>508.99999999999994</ele><time>2026-03-26T14:34:11.943Z</time></trkpt><trkpt lat="44.4654817" lon="8.51456"><ele>509.0</ele><time>2026-03-26T14:34:12.943Z</time></trkpt><trkpt lat="44.46535" lon="8.5145983"><ele>513.0</ele><time>2026-03-26T14:34:14.943Z</time></trkpt><trkpt lat="44.4652783" lon="8.514615"><ele>517.0</ele><time>2026-03-26T14:34:15.944Z</time></trkpt><trkpt lat="44.4652" lon="8.514645"><ele>521.0</ele><time>2026-03-26T14:34:16.943Z</time></trkpt><trkpt lat="44.4651433" lon="8.5146883"><ele>525.0</ele><time>2026-03-26T14:34:17.943Z</time></trkpt><trkpt lat="44.4650883" lon="8.5147433"><ele>529.0</ele><time>2026-03-26T14:34:18.943Z</time></trkpt><trkpt lat="44.465035" lon="8.5147967"><ele>533.0</ele><time>2026-03-26T14:34:19.944Z</time></trkpt><trkpt lat="44.4649333" lon="8.5149217"><ele>533.0</ele><time>2026-03-26T14:34:21.944Z</time></trkpt><trkpt lat="44.4648867" lon="8.5149917"><ele>533.0</ele><time>2026-03-26T14:34:22.944Z</time></trkpt><trkpt lat="44.4648383" lon="8.5150717"><ele>533.0</ele><time>2026-03-26T14:34:23.943Z</time></trkpt><trkpt lat="44.46479" lon="8.51515"><ele>533.0</ele><time>2026-03-26T14:34:24.943Z</time></trkpt><trkpt lat="44.4647483" lon="8.51522"><ele>533.0</ele><time>2026-03-26T14:34:25.944Z</time></trkpt><trkpt lat="44.4646917" lon="8.5152683"><ele>533.0</ele><time>2026-03-26T14:34:26.943Z</time></trkpt><trkpt lat="44.46457" lon="8.5153133"><ele>533.3333333333333</ele><time>2026-03-26T14:34:28.943Z</time></trkpt><trkpt lat="44.464505" lon="8.5153233"><ele>533.6666666666666</ele><time>2026-03-26T14:34:29.943Z</time></trkpt><trkpt lat="44.4644317" lon="8.51534"><ele>534.0</ele><time>2026-03-26T14:34:30.944Z</time></trkpt><trkpt lat="44.4643517" lon="8.5153683"><ele>534.3333333333334</ele><time>2026-03-26T14:34:31.944Z</time></trkpt><trkpt lat="44.46427" lon="8.51541"><ele>534.6666666666667</ele><time>2026-03-26T14:34:32.943Z</time></trkpt><trkpt lat="44.464185" lon="8.5154667"><ele>535.0</ele><time>2026-03-26T14:34:33.943Z</time></trkpt><trkpt lat="44.4641033" lon="8.515535"><ele>541.2</ele><time>2026-03-26T14:34:34.944Z</time></trkpt><trkpt lat="44.4640367" lon="8.5156017"><ele>547.4</ele><time>2026-03-26T14:34:35.943Z</time></trkpt><trkpt lat="44.46398" lon="8.5156533"><ele>553.6</ele><time>2026-03-26T14:34:36.943Z</time></trkpt><trkpt lat="44.463885" lon="8.5157"><ele>559.8</ele><time>2026-03-26T14:34:38.943Z</time></trkpt><trkpt lat="44.4637833" lon="8.5156717"><ele>566.0</ele><time>2026-03-26T14:34:40.943Z</time></trkpt><trkpt lat="44.46368" lon="8.5156467"><ele>566.0</ele><time>2026-03-26T14:34:42.944Z</time></trkpt><trkpt lat="44.463585" lon="8.5156483"><ele>566.0</ele><time>2026-03-26T14:34:44.943Z</time></trkpt><trkpt lat="44.4634717" lon="8.5156483"><ele>566.0</ele><time>2026-03-26T14:34:46.943Z</time></trkpt><trkpt lat="44.4634033" lon="8.5156417"><ele>566.0</ele><time>2026-03-26T14:34:47.943Z</time></trkpt><trkpt lat="44.4633383" lon="8.51565"><ele>566.0</ele><time>2026-03-26T14:34:48.943Z</time></trkpt><trkpt lat="44.4632383" lon="8.5156883"><ele>566.0</ele><time>2026-03-26T14:34:50.944Z</time></trkpt><trkpt lat="44.4631683" lon="8.5157917"><ele>566.0</ele><time>2026-03-26T14:34:52.943Z</time></trkpt><trkpt lat="44.46313" lon="8.51593"><ele>566.0</ele><time>2026-03-26T14:34:54.943Z</time></trkpt><trkpt lat="44.4631533" lon="8.51609"><ele>566.0</ele><time>2026-03-26T14:34:56.944Z</time></trkpt><trkpt lat="44.4631717" lon="8.5161817"><ele>566.0</ele><time>2026-03-26T14:34:57.944Z</time></trkpt><trkpt lat="44.4631817" lon="8.51627"><ele>566.0</ele><time>2026-03-26T14:34:58.943Z</time></trkpt><trkpt lat="44.4631867" lon="8.5164533"><ele>569.1666666666666</ele><time>2026-03-26T14:35:00.943Z</time></trkpt><trkpt lat="44.46319" lon="8.516545"><ele>572.3333333333333</ele><time>2026-03-26T14:35:01.944Z</time></trkpt><trkpt lat="44.4632" lon="8.516725"><ele>575.5</ele><time>2026-03-26T14:35:03.943Z</time></trkpt><trkpt lat="44.463215" lon="8.5168333"><ele>578.6666666666666</ele><time>2026-03-26T14:35:04.943Z</time></trkpt><trkpt lat="44.463235" lon="8.51694"><ele>581.8333333333334</ele><time>2026-03-26T14:35:05.944Z</time></trkpt><trkpt lat="44.4632617" lon="8.5170683"><ele>585.0</ele><time>2026-03-26T14:35:06.944Z</time></trkpt><trkpt lat="44.463295" lon="8.5171917"><ele>586.7142857142858</ele><time>2026-03-26T14:35:07.943Z</time></trkpt><trkpt lat="44.46331" lon="8.5172967"><ele>588.4285714285714</ele><time>2026-03-26T14:35:08.943Z</time></trkpt><trkpt lat="44.46331" lon="8.5173917"><ele>590.1428571428571</ele><time>2026-03-26T14:35:09.944Z</time></trkpt><trkpt lat="44.463275" lon="8.5174717"><ele>591.8571428571429</ele><time>2026-03-26T14:35:10.943Z</time></trkpt><trkpt lat="44.463225" lon="8.5175417"><ele>593.5714285714286</ele><time>2026-03-26T14:35:11.943Z</time></trkpt><trkpt lat="44.4631667" lon="8.5176067"><ele>595.2857142857143</ele><time>2026-03-26T14:35:12.944Z</time></trkpt><trkpt lat="44.46311" lon="8.5176683"><ele>597.0</ele><time>2026-03-26T14:35:13.944Z</time></trkpt><trkpt lat="44.4630667" lon="8.5178133"><ele>597.0</ele><time>2026-03-26T14:35:15.943Z</time></trkpt><trkpt lat="44.4630217" lon="8.517925"><ele>597.0</ele><time>2026-03-26T14:35:17.943Z</time></trkpt><trkpt lat="44.4629517" lon="8.517885"><ele>597.0</ele><time>2026-03-26T14:35:22.944Z</time></trkpt><trkpt lat="44.4628983" lon="8.5179967"><ele>597.0</ele><time>2026-03-26T14:35:25.944Z</time></trkpt><trkpt lat="44.4628367" lon="8.5181183"><ele>597.0</ele><time>2026-03-26T14:35:27.943Z</time></trkpt><trkpt lat="44.462705" lon="8.5181633"><ele>597.3333333333334</ele><time>2026-03-26T14:35:39.943Z</time></trkpt><trkpt lat="44.4626317" lon="8.5180817"><ele>597.6666666666666</ele><time>2026-03-26T14:35:41.943Z</time></trkpt><trkpt lat="44.4625833" lon="8.5179883"><ele>598.0</ele><time>2026-03-26T14:35:42.944Z</time></trkpt><trkpt lat="44.4625467" lon="8.51789"><ele>598.3333333333333</ele><time>2026-03-26T14:35:43.944Z</time></trkpt><trkpt lat="44.4625017" lon="8.5178083"><ele>598.6666666666666</ele><time>2026-03-26T14:35:44.943Z</time></trkpt><trkpt lat="44.46246" lon="8.5176783"><ele>599.0</ele><time>2026-03-26T14:35:46.944Z</time></trkpt><trkpt lat="44.4624483" lon="8.517545"><ele>599.0</ele><time>2026-03-26T14:35:48.944Z</time></trkpt><trkpt lat="44.4624317" lon="8.5173833"><ele>599.0</ele><time>2026-03-26T14:35:50.944Z</time></trkpt><trkpt lat="44.4624083" lon="8.5172617"><ele>599.0</ele><time>2026-03-26T14:35:52.943Z</time></trkpt><trkpt lat="44.4623533" lon="8.5171667"><ele>599.0</ele><time>2026-03-26T14:35:54.943Z</time></trkpt><trkpt lat="44.4622533" lon="8.5170917"><ele>599.0</ele><time>2026-03-26T14:35:56.944Z</time></trkpt><trkpt lat="44.462135" lon="8.5170733"><ele>602.8333333333333</ele><time>2026-03-26T14:35:58.944Z</time></trkpt><trkpt lat="44.462065" lon="8.5170683"><ele>606.6666666666666</ele><time>2026-03-26T14:35:59.944Z</time></trkpt><trkpt lat="44.4619833" lon="8.5170583"><ele>610.5</ele><time>2026-03-26T14:36:00.944Z</time></trkpt><trkpt lat="44.4619017" lon="8.5170533"><ele>614.3333333333334</ele><time>2026-03-26T14:36:01.943Z</time></trkpt><trkpt lat="44.4618367" lon="8.51702"><ele>618.1666666666667</ele><time>2026-03-26T14:36:02.944Z</time></trkpt><trkpt lat="44.4617283" lon="8.5169333"><ele>622.0</ele><time>2026-03-26T14:36:04.943Z</time></trkpt><trkpt lat="44.4616383" lon="8.5168117"><ele>622.0</ele><time>2026-03-26T14:36:06.944Z</time></trkpt><trkpt lat="44.4615467" lon="8.5167833"><ele>622.0</ele><time>2026-03-26T14:36:08.944Z</time></trkpt><trkpt lat="44.4614767" lon="8.5168117"><ele>622.0</ele><time>2026-03-26T14:36:10.944Z</time></trkpt><trkpt lat="44.4613917" lon="8.516845"><ele>622.0</ele><time>2026-03-26T14:36:12.944Z</time></trkpt><trkpt lat="44.4612633" lon="8.51694"><ele>622.0</ele><time>2026-03-26T14:36:14.944Z</time></trkpt><trkpt lat="44.4611933" lon="8.51701"><ele>626.8333333333334</ele><time>2026-03-26T14:36:15.943Z</time></trkpt><trkpt lat="44.4611283" lon="8.5170833"><ele>631.6666666666667</ele><time>2026-03-26T14:36:16.943Z</time></trkpt><trkpt lat="44.4610583" lon="8.5171617"><ele>636.5</ele><time>2026-03-26T14:36:17.943Z</time></trkpt><trkpt lat="44.4609733" lon="8.517225"><ele>641.3333333333334</ele><time>2026-03-26T14:36:18.943Z</time></trkpt><trkpt lat="44.460895" lon="8.5172783"><ele>646.1666666666666</ele><time>2026-03-26T14:36:19.943Z</time></trkpt><trkpt lat="44.4608133" lon="8.5173083"><ele>651.0</ele><time>2026-03-26T14:36:20.943Z</time></trkpt><trkpt lat="44.46074" lon="8.51732"><ele>651.0</ele><time>2026-03-26T14:36:21.943Z</time></trkpt><trkpt lat="44.460615" lon="8.5172933"><ele>651.0</ele><time>2026-03-26T14:36:23.944Z</time></trkpt><trkpt lat="44.46055" lon="8.51726"><ele>651.0</ele><time>2026-03-26T14:36:24.944Z</time></trkpt><trkpt lat="44.4604817" lon="8.5172217"><ele>651.0</ele><time>2026-03-26T14:36:25.943Z</time></trkpt><trkpt lat="44.46041" lon="8.5172033"><ele>651.0</ele><time>2026-03-26T14:36:26.943Z</time></trkpt><trkpt lat="44.4603117" lon="8.5172167"><ele>651.0</ele><time>2026-03-26T14:36:28.943Z</time></trkpt><trkpt lat="44.460275" lon="8.5173233"><ele>655.5999999999999</ele><time>2026-03-26T14:36:31.943Z</time></trkpt><trkpt lat="44.4602783" lon="8.51745"><ele>660.2</ele><time>2026-03-26T14:36:33.943Z</time></trkpt><trkpt lat="44.4602917" lon="8.5176233"><ele>664.8</ele><time>2026-03-26T14:36:35.944Z</time></trkpt><trkpt lat="44.4603167" lon="8.5177167"><ele>669.4000000000001</ele><time>2026-03-26T14:36:36.944Z</time></trkpt><trkpt lat="44.4603683" lon="8.5178117"><ele>674.0</ele><time>2026-03-26T14:36:37.943Z</time></trkpt><trkpt lat="44.4604167" lon="8.5179017"><ele>675.6666666666666</ele><time>2026-03-26T14:36:38.944Z</time></trkpt><trkpt lat="44.4604633" lon="8.5179717"><ele>677.3333333333333</ele><time>2026-03-26T14:36:40.943Z</time></trkpt><trkpt lat="44.4603683" lon="8.5179917"><ele>679.0</ele><time>2026-03-26T14:36:42.943Z</time></trkpt><trkpt lat="44.4602983" lon="8.5179983"><ele>680.6666666666666</ele><time>2026-03-26T14:36:43.943Z</time></trkpt><trkpt lat="44.4602317" lon="8.5180033"><ele>682.3333333333334</ele><time>2026-03-26T14:36:44.943Z</time></trkpt><trkpt lat="44.4601633" lon="8.51799"><ele>684.0</ele><time>2026-03-26T14:36:45.943Z</time></trkpt><trkpt lat="44.4600683" lon="8.5179567"><ele>684.0</ele><time>2026-03-26T14:36:47.944Z</time></trkpt><trkpt lat="44.46" lon="8.5179517"><ele>684.0</ele><time>2026-03-26T14:36:49.943Z</time></trkpt><trkpt lat="44.4599317" lon="8.5179533"><ele>684.0</ele><time>2026-03-26T14:36:51.943Z</time></trkpt><trkpt lat="44.4598633" lon="8.5179083"><ele>684.0</ele><time>2026-03-26T14:36:53.943Z</time></trkpt><trkpt lat="44.4597833" lon="8.51782"><ele>684.0</ele><time>2026-03-26T14:36:55.944Z</time></trkpt><trkpt lat="44.4596917" lon="8.517765"><ele>684.0</ele><time>2026-03-26T14:36:57.943Z</time></trkpt><trkpt lat="44.4595667" lon="8.5177667"><ele>685.0</ele><time>2026-03-26T14:36:59.944Z</time></trkpt><trkpt lat="44.45949" lon="8.5177883"><ele>686.0</ele><time>2026-03-26T14:37:00.944Z</time></trkpt><trkpt lat="44.4594133" lon="8.5178233"><ele>687.0</ele><time>2026-03-26T14:37:01.943Z</time></trkpt><trkpt lat="44.4593483" lon="8.5178617"><ele>688.0</ele><time>2026-03-26T14:37:02.944Z</time></trkpt><trkpt lat="44.4592883" lon="8.5178917"><ele>689.0</ele><time>2026-03-26T14:37:03.943Z</time></trkpt><trkpt lat="44.4592" lon="8.5178633"><ele>690.0</ele><time>2026-03-26T14:37:05.944Z</time></trkpt><trkpt lat="44.4591333" lon="8.5177917"><ele>690.0</ele><time>2026-03-26T14:37:07.943Z</time></trkpt><trkpt lat="44.4590483" lon="8.5177133"><ele>690.0</ele><time>2026-03-26T14:37:09.944Z</time></trkpt><trkpt lat="44.4589883" lon="8.517675"><ele>690.0</ele><time>2026-03-26T14:37:10.944Z</time></trkpt><trkpt lat="44.4589167" lon="8.5176433"><ele>690.0</ele><time>2026-03-26T14:37:11.944Z</time></trkpt><trkpt lat="44.4587917" lon="8.51759"><ele>690.0</ele><time>2026-03-26T14:37:13.944Z</time></trkpt><trkpt lat="44.458725" lon="8.5175417"><ele>690.0</ele><time>2026-03-26T14:37:14.943Z</time></trkpt><trkpt lat="44.458665" lon="8.5174917"><ele>693.0</ele><time>2026-03-26T14:37:15.944Z</time></trkpt><trkpt lat="44.4586133" lon="8.517425"><ele>696.0</ele><time>2026-03-26T14:37:16.943Z</time></trkpt><trkpt lat="44.458565" lon="8.51736"><ele>699.0</ele><time>2026-03-26T14:37:17.944Z</time></trkpt><trkpt lat="44.458515" lon="8.5172967"><ele>702.0</ele><time>2026-03-26T14:37:18.943Z</time></trkpt><trkpt lat="44.45841" lon="8.5172083"><ele>705.0</ele><time>2026-03-26T14:37:20.944Z</time></trkpt><trkpt lat="44.458345" lon="8.5171933"><ele>708.0</ele><time>2026-03-26T14:37:21.944Z</time></trkpt><trkpt lat="44.4582333" lon="8.5171683"><ele>708.0</ele><time>2026-03-26T14:37:23.944Z</time></trkpt><trkpt lat="44.4581917" lon="8.5170567"><ele>708.0</ele><time>2026-03-26T14:37:25.944Z</time></trkpt><trkpt lat="44.45822" lon="8.516945"><ele>708.0</ele><time>2026-03-26T14:37:26.943Z</time></trkpt><trkpt lat="44.4582417" lon="8.516815"><ele>708.0</ele><time>2026-03-26T14:37:27.943Z</time></trkpt><trkpt lat="44.4582767" lon="8.5166833"><ele>708.0</ele><time>2026-03-26T14:37:28.943Z</time></trkpt><trkpt lat="44.4583167" lon="8.5165633"><ele>708.0</ele><time>2026-03-26T14:37:29.944Z</time></trkpt><trkpt lat="44.4583333" lon="8.516475"><ele>708.0</ele><time>2026-03-26T14:37:30.944Z</time></trkpt><trkpt lat="44.4583233" lon="8.5163767"><ele>708.0</ele><time>2026-03-26T14:37:33.943Z</time></trkpt><trkpt lat="44.4582633" lon="8.51645"><ele>708.0</ele><time>2026-03-26T14:37:35.944Z</time></trkpt><trkpt lat="44.4582133" lon="8.516505"><ele>708.0</ele><time>2026-03-26T14:37:36.943Z</time></trkpt><trkpt lat="44.4581367" lon="8.5165717"><ele>708.0</ele><time>2026-03-26T14:37:37.943Z</time></trkpt><trkpt lat="44.4580617" lon="8.5166517"><ele>708.0</ele><time>2026-03-26T14:37:38.944Z</time></trkpt><trkpt lat="44.45799" lon="8.5167483"><ele>708.0</ele><time>2026-03-26T14:37:39.943Z</time></trkpt><trkpt lat="44.4579133" lon="8.516855"><ele>708.0</ele><time>2026-03-26T14:37:40.944Z</time></trkpt><trkpt lat="44.4578517" lon="8.51696"><ele>708.0</ele><time>2026-03-26T14:37:41.943Z</time></trkpt><trkpt lat="44.457805" lon="8.51704"><ele>708.0</ele><time>2026-03-26T14:37:42.944Z</time></trkpt><trkpt lat="44.457755" lon="8.5171233"><ele>711.8333333333334</ele><time>2026-03-26T14:37:44.943Z</time></trkpt><trkpt lat="44.4577617" lon="8.517235"><ele>715.6666666666666</ele><time>2026-03-26T14:38:07.943Z</time></trkpt><trkpt lat="44.4577617" lon="8.5173233"><ele>719.5</ele><time>2026-03-26T14:38:08.944Z</time></trkpt><trkpt lat="44.4577633" lon="8.5174367"><ele>723.3333333333333</ele><time>2026-03-26T14:38:09.943Z</time></trkpt><trkpt lat="44.4577617" lon="8.5175433"><ele>727.1666666666666</ele><time>2026-03-26T14:38:10.943Z</time></trkpt><trkpt lat="44.4577417" lon="8.5176633"><ele>731.0</ele><time>2026-03-26T14:38:11.943Z</time></trkpt><trkpt lat="44.4577133" lon="8.5177717"><ele>731.0</ele><time>2026-03-26T14:38:12.944Z</time></trkpt><trkpt lat="44.4576733" lon="8.517865"><ele>731.0</ele><time>2026-03-26T14:38:13.943Z</time></trkpt><trkpt lat="44.457635" lon="8.5179533"><ele>731.0</ele><time>2026-03-26T14:38:14.943Z</time></trkpt><trkpt lat="44.4576017" lon="8.51804"><ele>731.0</ele><time>2026-03-26T14:38:15.943Z</time></trkpt><trkpt lat="44.4575883" lon="8.5181433"><ele>731.0</ele><time>2026-03-26T14:38:16.944Z</time></trkpt><trkpt lat="44.4575933" lon="8.5182483"><ele>731.0</ele><time>2026-03-26T14:38:17.944Z</time></trkpt><trkpt lat="44.4575917" lon="8.51836"><ele>733.1666666666666</ele><time>2026-03-26T14:38:18.944Z</time></trkpt><trkpt lat="44.4575933" lon="8.5184667"><ele>735.3333333333333</ele><time>2026-03-26T14:38:19.944Z</time></trkpt><trkpt lat="44.457605" lon="8.5185717"><ele>737.5</ele><time>2026-03-26T14:38:20.943Z</time></trkpt><trkpt lat="44.4576083" lon="8.5186833"><ele>739.6666666666666</ele><time>2026-03-26T14:38:21.943Z</time></trkpt><trkpt lat="44.4575967" lon="8.5188467"><ele>741.8333333333334</ele><time>2026-03-26T14:38:23.944Z</time></trkpt><trkpt lat="44.4575717" lon="8.51895"><ele>744.0</ele><time>2026-03-26T14:38:24.944Z</time></trkpt><trkpt lat="44.4575317" lon="8.519075"><ele>745.3333333333334</ele><time>2026-03-26T14:38:25.944Z</time></trkpt><trkpt lat="44.457485" lon="8.51919"><ele>746.6666666666666</ele><time>2026-03-26T14:38:26.944Z</time></trkpt><trkpt lat="44.457435" lon="8.5192667"><ele>748.0</ele><time>2026-03-26T14:38:27.944Z</time></trkpt><trkpt lat="44.4573733" lon="8.5192417"><ele>749.3333333333333</ele><time>2026-03-26T14:38:30.943Z</time></trkpt><trkpt lat="44.4573017" lon="8.5191317"><ele>750.6666666666666</ele><time>2026-03-26T14:38:32.943Z</time></trkpt><trkpt lat="44.45726" lon="8.5190517"><ele>752.0</ele><time>2026-03-26T14:38:33.944Z</time></trkpt><trkpt lat="44.4571567" lon="8.5189567"><ele>752.6666666666666</ele><time>2026-03-26T14:38:35.944Z</time></trkpt><trkpt lat="44.45709" lon="8.5189333"><ele>753.3333333333333</ele><time>2026-03-26T14:38:36.943Z</time></trkpt><trkpt lat="44.456985" lon="8.5188617"><ele>754.0</ele><time>2026-03-26T14:38:38.943Z</time></trkpt><trkpt lat="44.4569317" lon="8.518795"><ele>754.6666666666666</ele><time>2026-03-26T14:38:39.943Z</time></trkpt><trkpt lat="44.4568917" lon="8.5187267"><ele>755.3333333333334</ele><time>2026-03-26T14:38:40.943Z</time></trkpt><trkpt lat="44.4568167" lon="8.5186617"><ele>756.0</ele><time>2026-03-26T14:38:42.944Z</time></trkpt><trkpt lat="44.45676" lon="8.5187033"><ele>756.0</ele><time>2026-03-26T14:38:44.943Z</time></trkpt><trkpt lat="44.4566867" lon="8.5187267"><ele>756.0</ele><time>2026-03-26T14:38:46.943Z</time></trkpt><trkpt lat="44.4566017" lon="8.5186733"><ele>756.0</ele><time>2026-03-26T14:38:48.943Z</time></trkpt><trkpt lat="44.4565267" lon="8.5186117"><ele>756.0</ele><time>2026-03-26T14:38:50.943Z</time></trkpt><trkpt lat="44.456465" lon="8.5185617"><ele>756.0</ele><time>2026-03-26T14:38:51.943Z</time></trkpt><trkpt lat="44.456355" lon="8.5185383"><ele>756.0</ele><time>2026-03-26T14:38:53.943Z</time></trkpt><trkpt lat="44.45629" lon="8.5185433"><ele>758.5999999999999</ele><time>2026-03-26T14:38:54.943Z</time></trkpt><trkpt lat="44.4561717" lon="8.51855"><ele>761.2</ele><time>2026-03-26T14:38:56.944Z</time></trkpt><trkpt lat="44.4561067" lon="8.5185467"><ele>763.8</ele><time>2026-03-26T14:38:57.943Z</time></trkpt><trkpt lat="44.4560433" lon="8.518545"><ele>766.4000000000001</ele><time>2026-03-26T14:38:58.944Z</time></trkpt><trkpt lat="44.4559617" lon="8.5185183"><ele>769.0</ele><time>2026-03-26T14:39:00.944Z</time></trkpt><trkpt lat="44.455805" lon="8.5185"><ele>769.0</ele><time>2026-03-26T14:39:19.944Z</time></trkpt><trkpt lat="44.4556733" lon="8.5184783"><ele>769.0</ele><time>2026-03-26T14:39:37.944Z</time></trkpt><trkpt lat="44.4555683" lon="8.5184933"><ele>769.0</ele><time>2026-03-26T14:40:24.944Z</time></trkpt><trkpt lat="44.4554717" lon="8.5185083"><ele>769.0</ele><time>2026-03-26T14:40:29.945Z</time></trkpt><trkpt lat="44.45539" lon="8.5184967"><ele>769.0</ele><time>2026-03-26T14:40:31.944Z</time></trkpt><trkpt lat="44.4553233" lon="8.5185117"><ele>770.8000000000001</ele><time>2026-03-26T14:40:33.944Z</time></trkpt><trkpt lat="44.45525" lon="8.5185183"><ele>772.6</ele><time>2026-03-26T14:40:35.945Z</time></trkpt><trkpt lat="44.4551783" lon="8.51853"><ele>774.4</ele><time>2026-03-26T14:40:37.944Z</time></trkpt><trkpt lat="44.4550883" lon="8.5185417"><ele>776.2</ele><time>2026-03-26T14:40:40.944Z</time></trkpt><trkpt lat="44.45501" lon="8.5185533"><ele>778.0</ele><time>2026-03-26T14:40:44.944Z</time></trkpt><trkpt lat="44.4547983" lon="8.518535"><ele>777.9999999999999</ele><time>2026-03-26T14:41:08.945Z</time></trkpt><trkpt lat="44.454735" lon="8.518515"><ele>778.0</ele><time>2026-03-26T14:41:09.945Z</time></trkpt><trkpt lat="44.4546117" lon="8.5184783"><ele>778.0</ele><time>2026-03-26T14:41:11.944Z</time></trkpt><trkpt lat="44.4545483" lon="8.5184483"><ele>778.0</ele><time>2026-03-26T14:41:12.945Z</time></trkpt><trkpt lat="44.4544833" lon="8.5184267"><ele>777.9999999999999</ele><time>2026-03-26T14:41:13.945Z</time></trkpt><trkpt lat="44.4543817" lon="8.5184083"><ele>778.0</ele><time>2026-03-26T14:41:15.945Z</time></trkpt><trkpt lat="44.454295" lon="8.5184"><ele>779.4999999999999</ele><time>2026-03-26T14:41:18.944Z</time></trkpt><trkpt lat="44.4542217" lon="8.5184167"><ele>781.0</ele><time>2026-03-26T14:41:26.945Z</time></trkpt><trkpt lat="44.4541367" lon="8.518365"><ele>782.5</ele><time>2026-03-26T14:41:31.944Z</time></trkpt><trkpt lat="44.4540433" lon="8.5183383"><ele>784.0</ele><time>2026-03-26T14:41:33.944Z</time></trkpt><trkpt lat="44.45393" lon="8.5183317"><ele>785.4999999999999</ele><time>2026-03-26T14:41:35.944Z</time></trkpt><trkpt lat="44.4538667" lon="8.5183367"><ele>787.0</ele><time>2026-03-26T14:41:36.945Z</time></trkpt><trkpt lat="44.4537717" lon="8.5183467"><ele>788.2</ele><time>2026-03-26T14:41:38.945Z</time></trkpt><trkpt lat="44.4537017" lon="8.5183483"><ele>789.4000000000001</ele><time>2026-03-26T14:41:40.945Z</time></trkpt><trkpt lat="44.45362" lon="8.518345"><ele>790.5999999999999</ele><time>2026-03-26T14:41:56.944Z</time></trkpt><trkpt lat="44.4534817" lon="8.518285"><ele>791.8</ele><time>2026-03-26T14:42:38.945Z</time></trkpt><trkpt lat="44.453375" lon="8.5182817"><ele>793.0</ele><time>2026-03-26T14:42:41.945Z</time></trkpt><trkpt lat="44.4532667" lon="8.5182733"><ele>792.9999999999999</ele><time>2026-03-26T14:42:43.945Z</time></trkpt><trkpt lat="44.4531467" lon="8.518245"><ele>793.0</ele><time>2026-03-26T14:42:45.944Z</time></trkpt><trkpt lat="44.4530367" lon="8.5182733"><ele>793.0</ele><time>2026-03-26T14:42:47.944Z</time></trkpt><trkpt lat="44.4529733" lon="8.5182917"><ele>793.0</ele><time>2026-03-26T14:42:48.945Z</time></trkpt><trkpt lat="44.4529033" lon="8.5183083"><ele>792.9999999999999</ele><time>2026-03-26T14:42:49.944Z</time></trkpt><trkpt lat="44.452825" lon="8.5183183"><ele>793.0</ele><time>2026-03-26T14:42:50.944Z</time></trkpt><trkpt lat="44.4527617" lon="8.51832"><ele>794.0</ele><time>2026-03-26T14:42:51.944Z</time></trkpt><trkpt lat="44.4526533" lon="8.5183217"><ele>795.0</ele><time>2026-03-26T14:42:53.945Z</time></trkpt><trkpt lat="44.452545" lon="8.5183333"><ele>796.0</ele><time>2026-03-26T14:42:55.945Z</time></trkpt><trkpt lat="44.4524617" lon="8.5183867"><ele>797.0</ele><time>2026-03-26T14:42:57.944Z</time></trkpt><trkpt lat="44.452395" lon="8.5184183"><ele>798.0</ele><time>2026-03-26T14:42:59.944Z</time></trkpt><trkpt lat="44.4523283" lon="8.518455"><ele>798.0</ele><time>2026-03-26T14:43:03.944Z</time></trkpt><trkpt lat="44.4522583" lon="8.5184667"><ele>798.0</ele><time>2026-03-26T14:43:05.945Z</time></trkpt><trkpt lat="44.452185" lon="8.5184467"><ele>798.0</ele><time>2026-03-26T14:43:07.944Z</time></trkpt><trkpt lat="44.4521117" lon="8.5184217"><ele>798.0</ele><time>2026-03-26T14:43:10.944Z</time></trkpt><trkpt lat="44.4520233" lon="8.5183917"><ele>798.0</ele><time>2026-03-26T14:43:13.944Z</time></trkpt><trkpt lat="44.4519517" lon="8.5183383"><ele>798.0</ele><time>2026-03-26T14:43:15.945Z</time></trkpt><trkpt lat="44.4518633" lon="8.518305"><ele>799.4285714285714</ele><time>2026-03-26T14:43:19.944Z</time></trkpt><trkpt lat="44.4517967" lon="8.518285"><ele>800.8571428571429</ele><time>2026-03-26T14:43:21.945Z</time></trkpt><trkpt lat="44.4517333" lon="8.51827"><ele>802.2857142857142</ele><time>2026-03-26T14:43:23.944Z</time></trkpt><trkpt lat="44.4516667" lon="8.518265"><ele>803.7142857142858</ele><time>2026-03-26T14:43:25.944Z</time></trkpt><trkpt lat="44.451585" lon="8.5182567"><ele>805.1428571428571</ele><time>2026-03-26T14:43:28.945Z</time></trkpt><trkpt lat="44.4515267" lon="8.5182033"><ele>806.5714285714286</ele><time>2026-03-26T14:43:31.944Z</time></trkpt><trkpt lat="44.4514717" lon="8.5180933"><ele>808.0</ele><time>2026-03-26T14:43:33.944Z</time></trkpt><trkpt lat="44.4514117" lon="8.5180217"><ele>808.0</ele><time>2026-03-26T14:43:35.944Z</time></trkpt><trkpt lat="44.4513467" lon="8.5179733"><ele>808.0</ele><time>2026-03-26T14:43:37.944Z</time></trkpt><trkpt lat="44.4512883" lon="8.517915"><ele>808.0</ele><time>2026-03-26T14:43:39.945Z</time></trkpt><trkpt lat="44.4512333" lon="8.5178083"><ele>808.0</ele><time>2026-03-26T14:43:41.944Z</time></trkpt><trkpt lat="44.451165" lon="8.5176867"><ele>808.0</ele><time>2026-03-26T14:43:43.944Z</time></trkpt><trkpt lat="44.4510833" lon="8.5176033"><ele>809.2</ele><time>2026-03-26T14:43:45.945Z</time></trkpt><trkpt lat="44.450975" lon="8.5175767"><ele>810.4</ele><time>2026-03-26T14:43:47.945Z</time></trkpt><trkpt lat="44.45088" lon="8.51752"><ele>811.6</ele><time>2026-03-26T14:43:49.944Z</time></trkpt><trkpt lat="44.45082" lon="8.5174533"><ele>812.8000000000001</ele><time>2026-03-26T14:43:52.944Z</time></trkpt><trkpt lat="44.4506967" lon="8.51742"><ele>814.0</ele><time>2026-03-26T14:43:58.944Z</time></trkpt><trkpt lat="44.45063" lon="8.5174017"><ele>814.0</ele><time>2026-03-26T14:44:00.945Z</time></trkpt><trkpt lat="44.4505317" lon="8.5174733"><ele>814.0</ele><time>2026-03-26T14:44:03.944Z</time></trkpt><trkpt lat="44.4504283" lon="8.5175433"><ele>814.0</ele><time>2026-03-26T14:44:05.944Z</time></trkpt><trkpt lat="44.450325" lon="8.517545"><ele>814.0</ele><time>2026-03-26T14:44:07.944Z</time></trkpt><trkpt lat="44.450205" lon="8.5175067"><ele>816.8333333333333</ele><time>2026-03-26T14:44:09.944Z</time></trkpt><trkpt lat="44.4501333" lon="8.5174683"><ele>819.6666666666666</ele><time>2026-03-26T14:44:10.945Z</time></trkpt><trkpt lat="44.4500667" lon="8.5174183"><ele>822.5</ele><time>2026-03-26T14:44:11.944Z</time></trkpt><trkpt lat="44.4499917" lon="8.51736"><ele>825.3333333333333</ele><time>2026-03-26T14:44:12.945Z</time></trkpt><trkpt lat="44.449905" lon="8.5173067"><ele>828.1666666666666</ele><time>2026-03-26T14:44:13.944Z</time></trkpt><trkpt lat="44.4498433" lon="8.5172617"><ele>831.0</ele><time>2026-03-26T14:44:14.945Z</time></trkpt><trkpt lat="44.44974" lon="8.5172167"><ele>831.0</ele><time>2026-03-26T14:44:16.945Z</time></trkpt><trkpt lat="44.4496567" lon="8.51723"><ele>831.0</ele><time>2026-03-26T14:44:18.945Z</time></trkpt><trkpt lat="44.449555" lon="8.5172433"><ele>831.0</ele><time>2026-03-26T14:44:20.944Z</time></trkpt><trkpt lat="44.44945" lon="8.5173667"><ele>831.0</ele><time>2026-03-26T14:44:22.944Z</time></trkpt><trkpt lat="44.4493967" lon="8.5174483"><ele>831.0</ele><time>2026-03-26T14:44:23.945Z</time></trkpt><trkpt lat="44.4493567" lon="8.5175167"><ele>831.5</ele><time>2026-03-26T14:44:24.944Z</time></trkpt><trkpt lat="44.44931" lon="8.5175867"><ele>832.0</ele><time>2026-03-26T14:44:26.945Z</time></trkpt><trkpt lat="44.4492517" lon="8.5176533"><ele>832.5</ele><time>2026-03-26T14:44:29.944Z</time></trkpt><trkpt lat="44.449175" lon="8.5177567"><ele>833.0</ele><time>2026-03-26T14:44:31.945Z</time></trkpt><trkpt lat="44.4491083" lon="8.51782"><ele>833.5</ele><time>2026-03-26T14:44:32.945Z</time></trkpt><trkpt lat="44.4490383" lon="8.5178767"><ele>834.0</ele><time>2026-03-26T14:44:33.944Z</time></trkpt><trkpt lat="44.4489367" lon="8.5179317"><ele>833.4000000000001</ele><time>2026-03-26T14:44:34.945Z</time></trkpt><trkpt lat="44.4488433" lon="8.5179767"><ele>832.8</ele><time>2026-03-26T14:44:35.945Z</time></trkpt><trkpt lat="44.44876" lon="8.5180133"><ele>832.2</ele><time>2026-03-26T14:44:36.944Z</time></trkpt><trkpt lat="44.4486767" lon="8.5180483"><ele>831.5999999999999</ele><time>2026-03-26T14:44:37.945Z</time></trkpt><trkpt lat="44.4485933" lon="8.5180817"><ele>831.0</ele><time>2026-03-26T14:44:38.944Z</time></trkpt><trkpt lat="44.4485017" lon="8.5181167"><ele>831.0</ele><time>2026-03-26T14:44:39.944Z</time></trkpt><trkpt lat="44.4484117" lon="8.518155"><ele>831.0</ele><time>2026-03-26T14:44:40.944Z</time></trkpt><trkpt lat="44.4483183" lon="8.5181917"><ele>831.0</ele><time>2026-03-26T14:44:41.945Z</time></trkpt><trkpt lat="44.448225" lon="8.51822"><ele>831.0</ele><time>2026-03-26T14:44:42.945Z</time></trkpt><trkpt lat="44.4481267" lon="8.5182467"><ele>831.0</ele><time>2026-03-26T14:44:43.945Z</time></trkpt><trkpt lat="44.4480367" lon="8.518275"><ele>831.0</ele><time>2026-03-26T14:44:44.945Z</time></trkpt><trkpt lat="44.4479617" lon="8.51832"><ele>831.0</ele><time>2026-03-26T14:44:45.945Z</time></trkpt><trkpt lat="44.4478967" lon="8.5183717"><ele>831.0</ele><time>2026-03-26T14:44:46.945Z</time></trkpt><trkpt lat="44.4478367" lon="8.5184583"><ele>831.0</ele><time>2026-03-26T14:44:47.945Z</time></trkpt><trkpt lat="44.447795" lon="8.518595"><ele>831.0</ele><time>2026-03-26T14:44:48.945Z</time></trkpt><trkpt lat="44.44776" lon="8.5187517"><ele>828.6666666666666</ele><time>2026-03-26T14:44:49.945Z</time></trkpt><trkpt lat="44.4477433" lon="8.5188683"><ele>826.3333333333333</ele><time>2026-03-26T14:44:50.945Z</time></trkpt><trkpt lat="44.44775" lon="8.518965"><ele>824.0</ele><time>2026-03-26T14:44:52.945Z</time></trkpt><trkpt lat="44.44774" lon="8.5190617"><ele>821.6666666666666</ele><time>2026-03-26T14:44:57.945Z</time></trkpt><trkpt lat="44.447715" lon="8.51917"><ele>819.3333333333333</ele><time>2026-03-26T14:45:01.945Z</time></trkpt><trkpt lat="44.4476533" lon="8.519345"><ele>817.0</ele><time>2026-03-26T14:45:03.945Z</time></trkpt><trkpt lat="44.44763" lon="8.5194867"><ele>819.0</ele><time>2026-03-26T14:45:04.945Z</time></trkpt><trkpt lat="44.4476183" lon="8.5196583"><ele>821.0</ele><time>2026-03-26T14:45:05.944Z</time></trkpt><trkpt lat="44.4476033" lon="8.5198283"><ele>823.0</ele><time>2026-03-26T14:45:06.945Z</time></trkpt><trkpt lat="44.4475767" lon="8.5199767"><ele>825.0</ele><time>2026-03-26T14:45:07.944Z</time></trkpt><trkpt lat="44.447535" lon="8.5201133"><ele>825.0</ele><time>2026-03-26T14:45:08.944Z</time></trkpt><trkpt lat="44.4475133" lon="8.52023"><ele>825.0</ele><time>2026-03-26T14:45:09.945Z</time></trkpt><trkpt lat="44.4474883" lon="8.520365"><ele>825.0</ele><time>2026-03-26T14:45:10.944Z</time></trkpt><trkpt lat="44.4474783" lon="8.5204983"><ele>825.0</ele><time>2026-03-26T14:45:11.944Z</time></trkpt><trkpt lat="44.4474767" lon="8.520615"><ele>825.0</ele><time>2026-03-26T14:45:12.945Z</time></trkpt><trkpt lat="44.447485" lon="8.5207333"><ele>826.4285714285714</ele><time>2026-03-26T14:45:13.945Z</time></trkpt><trkpt lat="44.447475" lon="8.520825"><ele>827.8571428571429</ele><time>2026-03-26T14:45:14.944Z</time></trkpt><trkpt lat="44.44745" lon="8.5209117"><ele>829.2857142857143</ele><time>2026-03-26T14:45:15.944Z</time></trkpt><trkpt lat="44.4474167" lon="8.5209917"><ele>830.7142857142858</ele><time>2026-03-26T14:45:16.945Z</time></trkpt><trkpt lat="44.44738" lon="8.5210717"><ele>832.1428571428571</ele><time>2026-03-26T14:45:17.944Z</time></trkpt><trkpt lat="44.4473333" lon="8.5211533"><ele>833.5714285714287</ele><time>2026-03-26T14:45:18.944Z</time></trkpt><trkpt lat="44.4472683" lon="8.521245"><ele>835.0</ele><time>2026-03-26T14:45:19.945Z</time></trkpt><trkpt lat="44.447205" lon="8.521355"><ele>833.2</ele><time>2026-03-26T14:45:20.944Z</time></trkpt><trkpt lat="44.4471483" lon="8.5214833"><ele>831.4</ele><time>2026-03-26T14:45:21.944Z</time></trkpt><trkpt lat="44.447105" lon="8.5216067"><ele>829.5999999999999</ele><time>2026-03-26T14:45:22.945Z</time></trkpt><trkpt lat="44.4470617" lon="8.5217367"><ele>827.8</ele><time>2026-03-26T14:45:23.944Z</time></trkpt><trkpt lat="44.4470267" lon="8.5218433"><ele>826.0</ele><time>2026-03-26T14:45:24.945Z</time></trkpt><trkpt lat="44.4469783" lon="8.521915"><ele>826.0</ele><time>2026-03-26T14:45:25.944Z</time></trkpt><trkpt lat="44.4469033" lon="8.52198"><ele>826.0</ele><time>2026-03-26T14:45:26.944Z</time></trkpt><trkpt lat="44.446825" lon="8.522025"><ele>826.0</ele><time>2026-03-26T14:45:27.944Z</time></trkpt><trkpt lat="44.4467783" lon="8.5220883"><ele>826.0</ele><time>2026-03-26T14:45:28.944Z</time></trkpt><trkpt lat="44.4467383" lon="8.5221617"><ele>826.0</ele><time>2026-03-26T14:45:29.945Z</time></trkpt><trkpt lat="44.446715" lon="8.5222467"><ele>826.0</ele><time>2026-03-26T14:45:30.945Z</time></trkpt><trkpt lat="44.44669" lon="8.522335"><ele>826.0</ele><time>2026-03-26T14:45:31.945Z</time></trkpt><trkpt lat="44.446665" lon="8.5224317"><ele>827.8</ele><time>2026-03-26T14:45:32.945Z</time></trkpt><trkpt lat="44.446655" lon="8.5225283"><ele>829.5999999999999</ele><time>2026-03-26T14:45:33.944Z</time></trkpt><trkpt lat="44.4466717" lon="8.522695"><ele>831.4</ele><time>2026-03-26T14:45:35.945Z</time></trkpt><trkpt lat="44.44663" lon="8.52284"><ele>833.2</ele><time>2026-03-26T14:45:37.944Z</time></trkpt><trkpt lat="44.4465817" lon="8.52302"><ele>835.0</ele><time>2026-03-26T14:45:39.944Z</time></trkpt><trkpt lat="44.4465633" lon="8.52314"><ele>836.8333333333333</ele><time>2026-03-26T14:45:40.945Z</time></trkpt><trkpt lat="44.4465517" lon="8.52327"><ele>838.6666666666666</ele><time>2026-03-26T14:45:41.945Z</time></trkpt><trkpt lat="44.4465467" lon="8.5233917"><ele>840.5</ele><time>2026-03-26T14:45:42.944Z</time></trkpt><trkpt lat="44.4465467" lon="8.5235"><ele>842.3333333333333</ele><time>2026-03-26T14:45:43.944Z</time></trkpt><trkpt lat="44.4465483" lon="8.5236"><ele>844.1666666666666</ele><time>2026-03-26T14:45:44.944Z</time></trkpt><trkpt lat="44.446535" lon="8.5237017"><ele>846.0</ele><time>2026-03-26T14:45:45.945Z</time></trkpt><trkpt lat="44.4465333" lon="8.5237917"><ele>847.4</ele><time>2026-03-26T14:45:46.945Z</time></trkpt><trkpt lat="44.4465317" lon="8.5238833"><ele>848.8</ele><time>2026-03-26T14:45:47.944Z</time></trkpt><trkpt lat="44.4464983" lon="8.5240183"><ele>850.1999999999999</ele><time>2026-03-26T14:45:49.944Z</time></trkpt><trkpt lat="44.4464083" lon="8.5241467"><ele>851.5999999999999</ele><time>2026-03-26T14:45:51.944Z</time></trkpt><trkpt lat="44.4463417" lon="8.52422"><ele>853.0</ele><time>2026-03-26T14:45:52.944Z</time></trkpt><trkpt lat="44.446265" lon="8.5243"><ele>854.3333333333333</ele><time>2026-03-26T14:45:53.944Z</time></trkpt><trkpt lat="44.44622" lon="8.52437"><ele>855.6666666666666</ele><time>2026-03-26T14:45:54.945Z</time></trkpt><trkpt lat="44.4461933" lon="8.5244767"><ele>857.0</ele><time>2026-03-26T14:45:56.944Z</time></trkpt><trkpt lat="44.4461867" lon="8.524585"><ele>858.3333333333333</ele><time>2026-03-26T14:45:58.945Z</time></trkpt><trkpt lat="44.4462117" lon="8.5247017"><ele>859.6666666666666</ele><time>2026-03-26T14:46:01.945Z</time></trkpt><trkpt lat="44.4462167" lon="8.5247933"><ele>861.0</ele><time>2026-03-26T14:46:03.944Z</time></trkpt><trkpt lat="44.446205" lon="8.5249333"><ele>861.0</ele><time>2026-03-26T14:46:05.944Z</time></trkpt><trkpt lat="44.4461983" lon="8.5250217"><ele>860.9999999999999</ele><time>2026-03-26T14:46:06.944Z</time></trkpt><trkpt lat="44.44619" lon="8.5251117"><ele>860.9999999999999</ele><time>2026-03-26T14:46:07.945Z</time></trkpt><trkpt lat="44.4461817" lon="8.5252667"><ele>861.0</ele><time>2026-03-26T14:46:09.945Z</time></trkpt><trkpt lat="44.4461933" lon="8.5254283"><ele>861.0</ele><time>2026-03-26T14:46:11.944Z</time></trkpt><trkpt lat="44.4461883" lon="8.52557"><ele>861.0</ele><time>2026-03-26T14:46:13.945Z</time></trkpt><trkpt lat="44.4461283" lon="8.5256917"><ele>861.0</ele><time>2026-03-26T14:46:15.944Z</time></trkpt><trkpt lat="44.4460883" lon="8.52576"><ele>861.0</ele><time>2026-03-26T14:46:16.945Z</time></trkpt><trkpt lat="44.4460283" lon="8.5258333"><ele>861.0</ele><time>2026-03-26T14:46:17.945Z</time></trkpt><trkpt lat="44.44597" lon="8.5258917"><ele>861.0</ele><time>2026-03-26T14:46:18.945Z</time></trkpt><trkpt lat="44.44591" lon="8.5259233"><ele>861.0</ele><time>2026-03-26T14:46:20.945Z</time></trkpt><trkpt lat="44.44598" lon="8.5258317"><ele>861.0</ele><time>2026-03-26T14:46:24.944Z</time></trkpt><trkpt lat="44.4460267" lon="8.5257117"><ele>860.9999999999999</ele><time>2026-03-26T14:46:26.945Z</time></trkpt><trkpt lat="44.4459917" lon="8.5255533"><ele>860.9999999999999</ele><time>2026-03-26T14:46:28.944Z</time></trkpt><trkpt lat="44.4459567" lon="8.5254417"><ele>861.0</ele><time>2026-03-26T14:46:29.944Z</time></trkpt><trkpt lat="44.4459183" lon="8.525325"><ele>861.0</ele><time>2026-03-26T14:46:30.944Z</time></trkpt><trkpt lat="44.4458833" lon="8.5252233"><ele>861.0</ele><time>2026-03-26T14:46:31.945Z</time></trkpt><trkpt lat="44.4458533" lon="8.52514"><ele>860.9999999999999</ele><time>2026-03-26T14:46:32.944Z</time></trkpt><trkpt lat="44.44578" lon="8.5250217"><ele>860.9999999999999</ele><time>2026-03-26T14:46:34.944Z</time></trkpt><trkpt lat="44.4456983" lon="8.5249367"><ele>861.0</ele><time>2026-03-26T14:46:36.944Z</time></trkpt><trkpt lat="44.4456067" lon="8.524825"><ele>861.0</ele><time>2026-03-26T14:46:38.945Z</time></trkpt><trkpt lat="44.4455617" lon="8.5247567"><ele>861.0</ele><time>2026-03-26T14:46:39.944Z</time></trkpt><trkpt lat="44.4455233" lon="8.5246633"><ele>861.0</ele><time>2026-03-26T14:46:40.945Z</time></trkpt><trkpt lat="44.44549" lon="8.52456"><ele>861.0</ele><time>2026-03-26T14:46:41.945Z</time></trkpt><trkpt lat="44.4454583" lon="8.5244767"><ele>861.0</ele><time>2026-03-26T14:46:42.945Z</time></trkpt><trkpt lat="44.4454167" lon="8.5243917"><ele>861.0</ele><time>2026-03-26T14:46:43.944Z</time></trkpt><trkpt lat="44.4453633" lon="8.524245"><ele>861.0</ele><time>2026-03-26T14:46:45.944Z</time></trkpt><trkpt lat="44.4453583" lon="8.52415"><ele>863.8333333333334</ele><time>2026-03-26T14:46:46.944Z</time></trkpt><trkpt lat="44.445375" lon="8.524035"><ele>866.6666666666667</ele><time>2026-03-26T14:46:47.945Z</time></trkpt><trkpt lat="44.445385" lon="8.52392"><ele>869.5</ele><time>2026-03-26T14:46:48.944Z</time></trkpt><trkpt lat="44.4453983" lon="8.5238117"><ele>872.3333333333334</ele><time>2026-03-26T14:46:49.945Z</time></trkpt><trkpt lat="44.4454" lon="8.52366"><ele>875.1666666666667</ele><time>2026-03-26T14:46:51.944Z</time></trkpt><trkpt lat="44.445335" lon="8.523685"><ele>878.0</ele><time>2026-03-26T14:46:54.945Z</time></trkpt><trkpt lat="44.445255" lon="8.5238783"><ele>881.0</ele><time>2026-03-26T14:46:56.945Z</time></trkpt><trkpt lat="44.4452033" lon="8.5240433"><ele>884.0</ele><time>2026-03-26T14:46:57.945Z</time></trkpt><trkpt lat="44.44513" lon="8.524215"><ele>887.0</ele><time>2026-03-26T14:46:58.945Z</time></trkpt><trkpt lat="44.4450517" lon="8.5243717"><ele>890.0</ele><time>2026-03-26T14:46:59.944Z</time></trkpt><trkpt lat="44.44497" lon="8.524515"><ele>891.6</ele><time>2026-03-26T14:47:00.944Z</time></trkpt><trkpt lat="44.4449183" lon="8.5246383"><ele>893.2</ele><time>2026-03-26T14:47:01.945Z</time></trkpt><trkpt lat="44.44487" lon="8.5247583"><ele>894.8</ele><time>2026-03-26T14:47:02.944Z</time></trkpt><trkpt lat="44.444815" lon="8.5248933"><ele>896.4</ele><time>2026-03-26T14:47:03.945Z</time></trkpt><trkpt lat="44.4447617" lon="8.5250317"><ele>898.0</ele><time>2026-03-26T14:47:04.944Z</time></trkpt><trkpt lat="44.4447067" lon="8.525165"><ele>898.0</ele><time>2026-03-26T14:47:05.945Z</time></trkpt><trkpt lat="44.4446633" lon="8.5252983"><ele>898.0</ele><time>2026-03-26T14:47:06.944Z</time></trkpt><trkpt lat="44.4446133" lon="8.52542"><ele>898.0</ele><time>2026-03-26T14:47:07.944Z</time></trkpt><trkpt lat="44.4445633" lon="8.525515"><ele>898.0</ele><time>2026-03-26T14:47:08.944Z</time></trkpt><trkpt lat="44.444515" lon="8.5255783"><ele>898.0</ele><time>2026-03-26T14:47:09.944Z</time></trkpt><trkpt lat="44.4443833" lon="8.5255733"><ele>900.9999999999999</ele><time>2026-03-26T14:47:11.944Z</time></trkpt><trkpt lat="44.44431" lon="8.5255483"><ele>904.0</ele><time>2026-03-26T14:47:12.944Z</time></trkpt><trkpt lat="44.4442417" lon="8.525555"><ele>907.0</ele><time>2026-03-26T14:47:13.945Z</time></trkpt><trkpt lat="44.444175" lon="8.5255767"><ele>910.0</ele><time>2026-03-26T14:47:14.944Z</time></trkpt><trkpt lat="44.4440517" lon="8.5255917"><ele>912.9999999999999</ele><time>2026-03-26T14:47:16.944Z</time></trkpt><trkpt lat="44.4439817" lon="8.52559"><ele>916.0</ele><time>2026-03-26T14:47:17.945Z</time></trkpt><trkpt lat="44.44391" lon="8.5255883"><ele>915.9999999999999</ele><time>2026-03-26T14:47:19.945Z</time></trkpt><trkpt lat="44.443835" lon="8.5255967"><ele>916.0</ele><time>2026-03-26T14:48:48.945Z</time></trkpt><trkpt lat="44.4437633" lon="8.5256033"><ele>916.0</ele><time>2026-03-26T14:48:50.946Z</time></trkpt><trkpt lat="44.4436733" lon="8.5255883"><ele>916.0</ele><time>2026-03-26T14:48:52.945Z</time></trkpt><trkpt lat="44.44359" lon="8.5255967"><ele>915.9999999999999</ele><time>2026-03-26T14:48:54.946Z</time></trkpt><trkpt lat="44.4434933" lon="8.525655"><ele>916.0</ele><time>2026-03-26T14:48:56.946Z</time></trkpt><trkpt lat="44.443395" lon="8.5257217"><ele>914.6666666666666</ele><time>2026-03-26T14:48:58.946Z</time></trkpt><trkpt lat="44.4433167" lon="8.525785"><ele>913.3333333333333</ele><time>2026-03-26T14:49:00.946Z</time></trkpt><trkpt lat="44.44326" lon="8.5258467"><ele>912.0</ele><time>2026-03-26T14:49:03.946Z</time></trkpt><trkpt lat="44.443155" lon="8.5259217"><ele>910.6666666666667</ele><time>2026-03-26T14:52:10.945Z</time></trkpt><trkpt lat="44.4430917" lon="8.5259833"><ele>909.3333333333334</ele><time>2026-03-26T14:52:16.945Z</time></trkpt><trkpt lat="44.443035" lon="8.5260717"><ele>908.0</ele><time>2026-03-26T14:52:39.946Z</time></trkpt><trkpt lat="44.4429617" lon="8.5261383"><ele>907.8</ele><time>2026-03-26T14:52:42.945Z</time></trkpt><trkpt lat="44.4429067" lon="8.5262117"><ele>907.5999999999999</ele><time>2026-03-26T14:52:45.946Z</time></trkpt><trkpt lat="44.44282" lon="8.5262917"><ele>907.4000000000001</ele><time>2026-03-26T14:52:48.945Z</time></trkpt><trkpt lat="44.4427217" lon="8.5263833"><ele>907.2</ele><time>2026-03-26T14:52:50.946Z</time></trkpt><trkpt lat="44.44264" lon="8.5265267"><ele>907.0</ele><time>2026-03-26T14:52:52.945Z</time></trkpt><trkpt lat="44.442595" lon="8.5266033"><ele>908.8</ele><time>2026-03-26T14:52:53.945Z</time></trkpt><trkpt lat="44.442545" lon="8.52667"><ele>910.6</ele><time>2026-03-26T14:52:54.945Z</time></trkpt><trkpt lat="44.4424933" lon="8.52673"><ele>912.3999999999999</ele><time>2026-03-26T14:52:55.946Z</time></trkpt><trkpt lat="44.4424033" lon="8.5268267"><ele>914.1999999999999</ele><time>2026-03-26T14:52:57.945Z</time></trkpt><trkpt lat="44.4423117" lon="8.5269133"><ele>916.0</ele><time>2026-03-26T14:52:59.946Z</time></trkpt><trkpt lat="44.4422217" lon="8.5269617"><ele>915.9999999999999</ele><time>2026-03-26T14:53:01.945Z</time></trkpt><trkpt lat="44.4421467" lon="8.527"><ele>916.0</ele><time>2026-03-26T14:53:03.946Z</time></trkpt><trkpt lat="44.44209" lon="8.5270783"><ele>916.0</ele><time>2026-03-26T14:53:26.945Z</time></trkpt><trkpt lat="44.44202" lon="8.5270933"><ele>916.0</ele><time>2026-03-26T14:53:44.945Z</time></trkpt><trkpt lat="44.4419467" lon="8.5271217"><ele>915.9999999999999</ele><time>2026-03-26T14:53:46.945Z</time></trkpt><trkpt lat="44.4418567" lon="8.527185"><ele>916.0</ele><time>2026-03-26T14:53:48.946Z</time></trkpt><trkpt lat="44.4418" lon="8.5272283"><ele>920.5999999999999</ele><time>2026-03-26T14:53:49.946Z</time></trkpt><trkpt lat="44.4416983" lon="8.5273367"><ele>925.1999999999999</ele><time>2026-03-26T14:53:51.946Z</time></trkpt><trkpt lat="44.4416417" lon="8.52746"><ele>929.8000000000001</ele><time>2026-03-26T14:53:53.945Z</time></trkpt><trkpt lat="44.4415833" lon="8.5275267"><ele>934.4000000000001</ele><time>2026-03-26T14:53:56.945Z</time></trkpt><trkpt lat="44.4415183" lon="8.52762"><ele>939.0</ele><time>2026-03-26T14:53:59.946Z</time></trkpt><trkpt lat="44.44146" lon="8.5277233"><ele>939.0</ele><time>2026-03-26T14:54:01.946Z</time></trkpt><trkpt lat="44.4414217" lon="8.5278533"><ele>939.0</ele><time>2026-03-26T14:54:03.945Z</time></trkpt><trkpt lat="44.44139" lon="8.5279367"><ele>939.0</ele><time>2026-03-26T14:54:04.946Z</time></trkpt><trkpt lat="44.441375" lon="8.5280283"><ele>939.0</ele><time>2026-03-26T14:54:05.946Z</time></trkpt><trkpt lat="44.4413683" lon="8.528125"><ele>939.0</ele><time>2026-03-26T14:54:06.945Z</time></trkpt><trkpt lat="44.4413467" lon="8.528215"><ele>939.0</ele><time>2026-03-26T14:54:07.946Z</time></trkpt><trkpt lat="44.4413133" lon="8.5283033"><ele>939.0</ele><time>2026-03-26T14:54:08.945Z</time></trkpt><trkpt lat="44.4412817" lon="8.5283933"><ele>945.2</ele><time>2026-03-26T14:54:09.946Z</time></trkpt><trkpt lat="44.44124" lon="8.5284867"><ele>951.4000000000001</ele><time>2026-03-26T14:54:10.946Z</time></trkpt><trkpt lat="44.4412" lon="8.5285667"><ele>957.6</ele><time>2026-03-26T14:54:11.946Z</time></trkpt><trkpt lat="44.4411367" lon="8.5287083"><ele>963.8</ele><time>2026-03-26T14:54:13.946Z</time></trkpt><trkpt lat="44.441095" lon="8.5287817"><ele>970.0</ele><time>2026-03-26T14:54:15.946Z</time></trkpt><trkpt lat="44.4409967" lon="8.5289433"><ele>970.0</ele><time>2026-03-26T14:54:49.946Z</time></trkpt><trkpt lat="44.44096" lon="8.5290183"><ele>970.0</ele><time>2026-03-26T14:54:52.946Z</time></trkpt><trkpt lat="44.4408933" lon="8.5291867"><ele>970.0</ele><time>2026-03-26T14:55:24.946Z</time></trkpt><trkpt lat="44.4408783" lon="8.52931"><ele>970.0</ele><time>2026-03-26T14:55:26.946Z</time></trkpt><trkpt lat="44.4408133" lon="8.5293967"><ele>970.0</ele><time>2026-03-26T14:55:29.946Z</time></trkpt><trkpt lat="44.4407133" lon="8.5294"><ele>970.0</ele><time>2026-03-26T14:55:32.945Z</time></trkpt><trkpt lat="44.4406283" lon="8.5294183"><ele>970.0</ele><time>2026-03-26T14:55:34.946Z</time></trkpt><trkpt lat="44.4405383" lon="8.52946"><ele>970.0</ele><time>2026-03-26T14:55:36.945Z</time></trkpt><trkpt lat="44.440485" lon="8.5295333"><ele>970.0</ele><time>2026-03-26T14:55:38.946Z</time></trkpt><trkpt lat="44.4403933" lon="8.5295917"><ele>970.0</ele><time>2026-03-26T14:55:40.945Z</time></trkpt><trkpt lat="44.4403067" lon="8.5296417"><ele>974.2</ele><time>2026-03-26T14:55:42.945Z</time></trkpt><trkpt lat="44.4402017" lon="8.5297"><ele>978.4</ele><time>2026-03-26T14:55:44.945Z</time></trkpt><trkpt lat="44.4400983" lon="8.5297417"><ele>982.5999999999999</ele><time>2026-03-26T14:55:46.946Z</time></trkpt><trkpt lat="44.4400167" lon="8.5297867"><ele>986.8</ele><time>2026-03-26T14:55:48.946Z</time></trkpt><trkpt lat="44.43993" lon="8.52985"><ele>991.0</ele><time>2026-03-26T14:55:50.945Z</time></trkpt><trkpt lat="44.43985" lon="8.52986"><ele>990.9999999999999</ele><time>2026-03-26T14:55:52.945Z</time></trkpt><trkpt lat="44.43975" lon="8.5298583"><ele>991.0</ele><time>2026-03-26T14:55:54.946Z</time></trkpt><trkpt lat="44.43963" lon="8.52986"><ele>991.0</ele><time>2026-03-26T14:55:56.945Z</time></trkpt><trkpt lat="44.4395667" lon="8.5298583"><ele>991.0</ele><time>2026-03-26T14:55:57.945Z</time></trkpt><trkpt lat="44.4394933" lon="8.529865"><ele>990.9999999999999</ele><time>2026-03-26T14:55:58.946Z</time></trkpt><trkpt lat="44.4394233" lon="8.5298733"><ele>991.0</ele><time>2026-03-26T14:55:59.945Z</time></trkpt><trkpt lat="44.4393217" lon="8.52986"><ele>992.6666666666666</ele><time>2026-03-26T14:56:01.946Z</time></trkpt><trkpt lat="44.4392433" lon="8.5298333"><ele>994.3333333333333</ele><time>2026-03-26T14:56:03.945Z</time></trkpt><trkpt lat="44.4392167" lon="8.529745"><ele>996.0</ele><time>2026-03-26T14:56:06.945Z</time></trkpt><trkpt lat="44.439235" lon="8.5296417"><ele>997.6666666666667</ele><time>2026-03-26T14:56:08.946Z</time></trkpt><trkpt lat="44.4392733" lon="8.5295367"><ele>999.3333333333334</ele><time>2026-03-26T14:56:10.945Z</time></trkpt><trkpt lat="44.4393167" lon="8.5294"><ele>1001.0</ele><time>2026-03-26T14:56:12.945Z</time></trkpt><trkpt lat="44.4393483" lon="8.5292533"><ele>1001.0000000000001</ele><time>2026-03-26T14:56:14.946Z</time></trkpt><trkpt lat="44.4393683" lon="8.5291683"><ele>1001.0</ele><time>2026-03-26T14:56:15.945Z</time></trkpt><trkpt lat="44.43941" lon="8.5290117"><ele>1001.0</ele><time>2026-03-26T14:56:17.945Z</time></trkpt><trkpt lat="44.43944" lon="8.5289167"><ele>1001.0</ele><time>2026-03-26T14:56:18.945Z</time></trkpt><trkpt lat="44.439485" lon="8.5287967"><ele>1001.0000000000001</ele><time>2026-03-26T14:56:20.946Z</time></trkpt><trkpt lat="44.439505" lon="8.5286833"><ele>1001.0</ele><time>2026-03-26T14:56:22.945Z</time></trkpt><trkpt lat="44.4395267" lon="8.528595"><ele>1001.0000000000001</ele><time>2026-03-26T14:56:24.946Z</time></trkpt><trkpt lat="44.4395517" lon="8.52849"><ele>1001.0</ele><time>2026-03-26T14:56:26.946Z</time></trkpt><trkpt lat="44.4395833" lon="8.528365"><ele>1001.0</ele><time>2026-03-26T14:56:28.945Z</time></trkpt><trkpt lat="44.4396317" lon="8.5282383"><ele>1001.0</ele><time>2026-03-26T14:56:30.945Z</time></trkpt><trkpt lat="44.4396633" lon="8.528155"><ele>1001.0000000000001</ele><time>2026-03-26T14:56:31.945Z</time></trkpt><trkpt lat="44.4397083" lon="8.5280367"><ele>1001.0</ele><time>2026-03-26T14:56:33.946Z</time></trkpt><trkpt lat="44.4397433" lon="8.5278917"><ele>1001.0</ele><time>2026-03-26T14:56:35.946Z</time></trkpt><trkpt lat="44.4397717" lon="8.5276933"><ele>1000.9999999999999</ele><time>2026-03-26T14:56:37.946Z</time></trkpt><trkpt lat="44.4397833" lon="8.5275667"><ele>1000.9999999999999</ele><time>2026-03-26T14:56:38.947Z</time></trkpt><trkpt lat="44.4397967" lon="8.52743"><ele>1001.0</ele><time>2026-03-26T14:56:39.946Z</time></trkpt><trkpt lat="44.4398133" lon="8.527295"><ele>1001.0</ele><time>2026-03-26T14:56:40.946Z</time></trkpt><trkpt lat="44.43983" lon="8.5271683"><ele>1001.0</ele><time>2026-03-26T14:56:41.946Z</time></trkpt><trkpt lat="44.43985" lon="8.5270517"><ele>1000.9999999999999</ele><time>2026-03-26T14:56:42.946Z</time></trkpt><trkpt lat="44.4398667" lon="8.5269183"><ele>1000.9999999999999</ele><time>2026-03-26T14:56:43.947Z</time></trkpt><trkpt lat="44.4398567" lon="8.5267517"><ele>1001.0</ele><time>2026-03-26T14:56:44.947Z</time></trkpt><trkpt lat="44.4398717" lon="8.5266217"><ele>1001.0</ele><time>2026-03-26T14:56:45.947Z</time></trkpt><trkpt lat="44.439865" lon="8.526485"><ele>1001.0000000000001</ele><time>2026-03-26T14:56:46.946Z</time></trkpt><trkpt lat="44.4398583" lon="8.5263567"><ele>1001.0</ele><time>2026-03-26T14:56:47.946Z</time></trkpt><trkpt lat="44.4398517" lon="8.5262017"><ele>1001.0</ele><time>2026-03-26T14:56:48.946Z</time></trkpt><trkpt lat="44.439835" lon="8.526065"><ele>1001.0</ele><time>2026-03-26T14:56:49.946Z</time></trkpt><trkpt lat="44.4398217" lon="8.5259617"><ele>1001.0000000000001</ele><time>2026-03-26T14:56:50.946Z</time></trkpt><trkpt lat="44.43981" lon="8.5258683"><ele>1001.0</ele><time>2026-03-26T14:56:51.947Z</time></trkpt><trkpt lat="44.4397933" lon="8.525755"><ele>1000.3333333333334</ele><time>2026-03-26T14:56:53.946Z</time></trkpt><trkpt lat="44.43978" lon="8.5256517"><ele>999.6666666666667</ele><time>2026-03-26T14:56:55.947Z</time></trkpt><trkpt lat="44.43978" lon="8.52555"><ele>999.0</ele><time>2026-03-26T14:56:57.947Z</time></trkpt><trkpt lat="44.43979" lon="8.525415"><ele>998.3333333333333</ele><time>2026-03-26T14:56:59.946Z</time></trkpt><trkpt lat="44.4398133" lon="8.5252917"><ele>997.6666666666666</ele><time>2026-03-26T14:57:01.946Z</time></trkpt><trkpt lat="44.4398183" lon="8.5251717"><ele>997.0</ele><time>2026-03-26T14:57:03.947Z</time></trkpt><trkpt lat="44.4398317" lon="8.5250283"><ele>995.7142857142856</ele><time>2026-03-26T14:57:05.946Z</time></trkpt><trkpt lat="44.4398417" lon="8.52494"><ele>994.4285714285713</ele><time>2026-03-26T14:57:06.946Z</time></trkpt><trkpt lat="44.439845" lon="8.52484"><ele>993.1428571428571</ele><time>2026-03-26T14:57:07.947Z</time></trkpt><trkpt lat="44.439835" lon="8.5247467"><ele>991.8571428571428</ele><time>2026-03-26T14:57:08.946Z</time></trkpt><trkpt lat="44.43982" lon="8.5246583"><ele>990.5714285714284</ele><time>2026-03-26T14:57:10.946Z</time></trkpt><trkpt lat="44.4398167" lon="8.5245617"><ele>989.2857142857143</ele><time>2026-03-26T14:57:12.946Z</time></trkpt><trkpt lat="44.4397817" lon="8.52443"><ele>988.0</ele><time>2026-03-26T14:57:15.946Z</time></trkpt><trkpt lat="44.43974" lon="8.5243133"><ele>986.8</ele><time>2026-03-26T14:57:17.947Z</time></trkpt><trkpt lat="44.439705" lon="8.524195"><ele>985.5999999999999</ele><time>2026-03-26T14:57:19.946Z</time></trkpt><trkpt lat="44.4396683" lon="8.5240567"><ele>984.4000000000001</ele><time>2026-03-26T14:57:21.947Z</time></trkpt><trkpt lat="44.4396167" lon="8.5238983"><ele>983.2</ele><time>2026-03-26T14:57:23.946Z</time></trkpt><trkpt lat="44.43959" lon="8.5238067"><ele>982.0</ele><time>2026-03-26T14:57:24.947Z</time></trkpt><trkpt lat="44.439565" lon="8.5237167"><ele>978.9999999999999</ele><time>2026-03-26T14:57:25.946Z</time></trkpt><trkpt lat="44.4395417" lon="8.5236317"><ele>976.0</ele><time>2026-03-26T14:57:26.947Z</time></trkpt><trkpt lat="44.4395117" lon="8.5235483"><ele>973.0</ele><time>2026-03-26T14:57:27.947Z</time></trkpt><trkpt lat="44.4394867" lon="8.523455"><ele>970.0</ele><time>2026-03-26T14:57:28.946Z</time></trkpt><trkpt lat="44.4394583" lon="8.5233483"><ele>966.9999999999999</ele><time>2026-03-26T14:57:29.946Z</time></trkpt><trkpt lat="44.4394317" lon="8.5232367"><ele>964.0</ele><time>2026-03-26T14:57:30.946Z</time></trkpt><trkpt lat="44.4393983" lon="8.5231233"><ele>963.9999999999999</ele><time>2026-03-26T14:57:31.946Z</time></trkpt><trkpt lat="44.43936" lon="8.523015"><ele>964.0</ele><time>2026-03-26T14:57:32.946Z</time></trkpt><trkpt lat="44.43932" lon="8.5229083"><ele>964.0</ele><time>2026-03-26T14:57:33.946Z</time></trkpt><trkpt lat="44.4392833" lon="8.5228133"><ele>964.0</ele><time>2026-03-26T14:57:34.946Z</time></trkpt><trkpt lat="44.43925" lon="8.522715"><ele>963.9999999999999</ele><time>2026-03-26T14:57:35.947Z</time></trkpt><trkpt lat="44.43921" lon="8.5225967"><ele>964.0</ele><time>2026-03-26T14:57:36.947Z</time></trkpt><trkpt lat="44.4391867" lon="8.522465"><ele>964.4999999999999</ele><time>2026-03-26T14:57:37.946Z</time></trkpt><trkpt lat="44.4391633" lon="8.522335"><ele>965.0</ele><time>2026-03-26T14:57:38.947Z</time></trkpt><trkpt lat="44.4391483" lon="8.5222233"><ele>965.5</ele><time>2026-03-26T14:57:39.947Z</time></trkpt><trkpt lat="44.439135" lon="8.5221133"><ele>966.0</ele><time>2026-03-26T14:57:40.947Z</time></trkpt><trkpt lat="44.43911" lon="8.522015"><ele>966.4999999999999</ele><time>2026-03-26T14:57:41.946Z</time></trkpt><trkpt lat="44.4391033" lon="8.521855"><ele>967.0</ele><time>2026-03-26T14:57:43.947Z</time></trkpt><trkpt lat="44.4391033" lon="8.52176"><ele>965.9999999999999</ele><time>2026-03-26T14:57:45.947Z</time></trkpt><trkpt lat="44.4390767" lon="8.5216517"><ele>965.0</ele><time>2026-03-26T14:57:48.946Z</time></trkpt><trkpt lat="44.4390483" lon="8.5215217"><ele>964.0</ele><time>2026-03-26T14:57:51.947Z</time></trkpt><trkpt lat="44.43902" lon="8.5214083"><ele>963.0</ele><time>2026-03-26T14:57:53.947Z</time></trkpt><trkpt lat="44.439005" lon="8.521305"><ele>961.9999999999999</ele><time>2026-03-26T14:57:55.946Z</time></trkpt><trkpt lat="44.439" lon="8.5212067"><ele>961.0</ele><time>2026-03-26T14:57:57.947Z</time></trkpt><trkpt lat="44.4389933" lon="8.5211133"><ele>958.4999999999999</ele><time>2026-03-26T14:57:59.946Z</time></trkpt><trkpt lat="44.4389733" lon="8.5210233"><ele>956.0</ele><time>2026-03-26T14:58:01.946Z</time></trkpt><trkpt lat="44.438955" lon="8.5209033"><ele>953.5</ele><time>2026-03-26T14:58:03.947Z</time></trkpt><trkpt lat="44.4389433" lon="8.5208017"><ele>951.0</ele><time>2026-03-26T14:58:05.946Z</time></trkpt><trkpt lat="44.4389267" lon="8.520685"><ele>948.4999999999999</ele><time>2026-03-26T14:58:08.946Z</time></trkpt><trkpt lat="44.438885" lon="8.5205267"><ele>946.0</ele><time>2026-03-26T14:58:13.946Z</time></trkpt><trkpt lat="44.4388617" lon="8.5204083"><ele>942.8333333333333</ele><time>2026-03-26T14:58:15.946Z</time></trkpt><trkpt lat="44.4388433" lon="8.5202717"><ele>939.6666666666666</ele><time>2026-03-26T14:58:17.946Z</time></trkpt><trkpt lat="44.4388183" lon="8.5201633"><ele>936.5</ele><time>2026-03-26T14:58:19.946Z</time></trkpt><trkpt lat="44.438805" lon="8.5200483"><ele>933.3333333333333</ele><time>2026-03-26T14:58:21.946Z</time></trkpt><trkpt lat="44.43879" lon="8.5199567"><ele>930.1666666666666</ele><time>2026-03-26T14:58:23.946Z</time></trkpt><trkpt lat="44.438785" lon="8.519835"><ele>927.0</ele><time>2026-03-26T14:58:25.946Z</time></trkpt><trkpt lat="44.4387783" lon="8.5197217"><ele>922.9999999999999</ele><time>2026-03-26T14:58:27.946Z</time></trkpt><trkpt lat="44.43876" lon="8.5196167"><ele>919.0</ele><time>2026-03-26T14:58:29.946Z</time></trkpt><trkpt lat="44.438745" lon="8.5195067"><ele>914.9999999999999</ele><time>2026-03-26T14:58:31.946Z</time></trkpt><trkpt lat="44.438715" lon="8.519405"><ele>910.9999999999999</ele><time>2026-03-26T14:58:33.946Z</time></trkpt><trkpt lat="44.4386983" lon="8.5193067"><ele>907.0</ele><time>2026-03-26T14:58:35.947Z</time></trkpt><trkpt lat="44.4386933" lon="8.5192133"><ele>902.9999999999999</ele><time>2026-03-26T14:58:37.947Z</time></trkpt><trkpt lat="44.4387017" lon="8.519115"><ele>898.9999999999999</ele><time>2026-03-26T14:58:39.947Z</time></trkpt><trkpt lat="44.4387217" lon="8.5190283"><ele>899.0000000000001</ele><time>2026-03-26T14:58:41.946Z</time></trkpt><trkpt lat="44.4387683" lon="8.5189433"><ele>899.0</ele><time>2026-03-26T14:58:43.946Z</time></trkpt><trkpt lat="44.4388433" lon="8.5188383"><ele>899.0</ele><time>2026-03-26T14:58:45.946Z</time></trkpt><trkpt lat="44.4389017" lon="8.518735"><ele>899.0</ele><time>2026-03-26T14:58:47.946Z</time></trkpt><trkpt lat="44.43891" lon="8.51863"><ele>899.0000000000001</ele><time>2026-03-26T14:58:49.946Z</time></trkpt><trkpt lat="44.438915" lon="8.51853"><ele>899.0</ele><time>2026-03-26T14:58:52.947Z</time></trkpt><trkpt lat="44.4388617" lon="8.518395"><ele>894.8000000000001</ele><time>2026-03-26T14:59:05.947Z</time></trkpt><trkpt lat="44.4387567" lon="8.5182733"><ele>890.6000000000001</ele><time>2026-03-26T14:59:12.946Z</time></trkpt><trkpt lat="44.4387033" lon="8.5181733"><ele>886.4</ele><time>2026-03-26T14:59:14.947Z</time></trkpt><trkpt lat="44.4386683" lon="8.51808"><ele>882.2</ele><time>2026-03-26T14:59:16.947Z</time></trkpt><trkpt lat="44.4386633" lon="8.5179917"><ele>878.0</ele><time>2026-03-26T14:59:18.947Z</time></trkpt><trkpt lat="44.4386983" lon="8.5178717"><ele>875.8333333333334</ele><time>2026-03-26T14:59:21.946Z</time></trkpt><trkpt lat="44.4387083" lon="8.51776"><ele>873.6666666666667</ele><time>2026-03-26T14:59:23.946Z</time></trkpt><trkpt lat="44.4387217" lon="8.517605"><ele>871.5</ele><time>2026-03-26T14:59:25.946Z</time></trkpt><trkpt lat="44.4387617" lon="8.5174483"><ele>869.3333333333333</ele><time>2026-03-26T14:59:27.947Z</time></trkpt><trkpt lat="44.438795" lon="8.5173583"><ele>867.1666666666666</ele><time>2026-03-26T14:59:28.947Z</time></trkpt><trkpt lat="44.43883" lon="8.5172817"><ele>865.0</ele><time>2026-03-26T14:59:29.947Z</time></trkpt><trkpt lat="44.4388917" lon="8.51714"><ele>869.3333333333333</ele><time>2026-03-26T14:59:31.947Z</time></trkpt><trkpt lat="44.4389467" lon="8.517015"><ele>873.6666666666666</ele><time>2026-03-26T14:59:33.947Z</time></trkpt><trkpt lat="44.4389767" lon="8.5169183"><ele>878.0</ele><time>2026-03-26T14:59:35.947Z</time></trkpt><trkpt lat="44.4390283" lon="8.516815"><ele>882.3333333333333</ele><time>2026-03-26T14:59:37.947Z</time></trkpt><trkpt lat="44.4390517" lon="8.5167233"><ele>886.6666666666666</ele><time>2026-03-26T14:59:39.946Z</time></trkpt><trkpt lat="44.439035" lon="8.5165983"><ele>891.0</ele><time>2026-03-26T14:59:41.946Z</time></trkpt><trkpt lat="44.43899" lon="8.516415"><ele>891.0</ele><time>2026-03-26T14:59:43.947Z</time></trkpt><trkpt lat="44.4389733" lon="8.5163117"><ele>891.0</ele><time>2026-03-26T14:59:44.947Z</time></trkpt><trkpt lat="44.4389733" lon="8.5162083"><ele>891.0</ele><time>2026-03-26T14:59:45.947Z</time></trkpt><trkpt lat="44.43899" lon="8.5160933"><ele>891.0</ele><time>2026-03-26T14:59:46.947Z</time></trkpt><trkpt lat="44.439005" lon="8.5159717"><ele>891.0</ele><time>2026-03-26T14:59:47.946Z</time></trkpt><trkpt lat="44.4390083" lon="8.5158617"><ele>891.0</ele><time>2026-03-26T14:59:48.947Z</time></trkpt><trkpt lat="44.4389867" lon="8.5157633"><ele>891.8</ele><time>2026-03-26T14:59:49.946Z</time></trkpt><trkpt lat="44.4389567" lon="8.515675"><ele>892.5999999999999</ele><time>2026-03-26T14:59:50.946Z</time></trkpt><trkpt lat="44.4388833" lon="8.5155133"><ele>893.4</ele><time>2026-03-26T14:59:52.946Z</time></trkpt><trkpt lat="44.43886" lon="8.515425"><ele>894.2</ele><time>2026-03-26T14:59:53.946Z</time></trkpt><trkpt lat="44.43884" lon="8.515265"><ele>895.0</ele><time>2026-03-26T14:59:55.947Z</time></trkpt><trkpt lat="44.4388417" lon="8.5150733"><ele>894.9999999999999</ele><time>2026-03-26T14:59:57.947Z</time></trkpt><trkpt lat="44.4388533" lon="8.51498"><ele>895.0</ele><time>2026-03-26T14:59:58.946Z</time></trkpt><trkpt lat="44.4388617" lon="8.51488"><ele>895.0</ele><time>2026-03-26T14:59:59.947Z</time></trkpt><trkpt lat="44.438855" lon="8.5147883"><ele>895.0</ele><time>2026-03-26T15:00:00.946Z</time></trkpt><trkpt lat="44.4388083" lon="8.5146517"><ele>894.9999999999999</ele><time>2026-03-26T15:00:02.947Z</time></trkpt><trkpt lat="44.438725" lon="8.5145167"><ele>895.0</ele><time>2026-03-26T15:00:04.946Z</time></trkpt><trkpt lat="44.4386817" lon="8.514445"><ele>889.0</ele><time>2026-03-26T15:00:05.946Z</time></trkpt><trkpt lat="44.4386117" lon="8.5143483"><ele>883.0</ele><time>2026-03-26T15:00:06.946Z</time></trkpt><trkpt lat="44.4385367" lon="8.51424"><ele>877.0</ele><time>2026-03-26T15:00:07.946Z</time></trkpt><trkpt lat="44.4384633" lon="8.5141317"><ele>871.0</ele><time>2026-03-26T15:00:08.946Z</time></trkpt><trkpt lat="44.4384083" lon="8.5140383"><ele>865.0</ele><time>2026-03-26T15:00:09.947Z</time></trkpt><trkpt lat="44.4383567" lon="8.513945"><ele>864.9999999999999</ele><time>2026-03-26T15:00:10.946Z</time></trkpt><trkpt lat="44.438315" lon="8.513845"><ele>865.0</ele><time>2026-03-26T15:00:11.947Z</time></trkpt><trkpt lat="44.43828" lon="8.51374"><ele>865.0</ele><time>2026-03-26T15:00:12.947Z</time></trkpt><trkpt lat="44.43826" lon="8.513645"><ele>865.0</ele><time>2026-03-26T15:00:13.946Z</time></trkpt><trkpt lat="44.438255" lon="8.5135317"><ele>864.9999999999999</ele><time>2026-03-26T15:00:14.946Z</time></trkpt><trkpt lat="44.43826" lon="8.51341"><ele>865.0</ele><time>2026-03-26T15:00:15.947Z</time></trkpt><trkpt lat="44.4382667" lon="8.5132733"><ele>866.4</ele><time>2026-03-26T15:00:16.946Z</time></trkpt><trkpt lat="44.4382633" lon="8.51313"><ele>867.8</ele><time>2026-03-26T15:00:17.947Z</time></trkpt><trkpt lat="44.4382567" lon="8.5129867"><ele>869.2</ele><time>2026-03-26T15:00:18.947Z</time></trkpt><trkpt lat="44.438245" lon="8.512855"><ele>870.6</ele><time>2026-03-26T15:00:19.947Z</time></trkpt><trkpt lat="44.438235" lon="8.5127233"><ele>872.0</ele><time>2026-03-26T15:00:20.947Z</time></trkpt><trkpt lat="44.4382283" lon="8.5126017"><ele>872.0</ele><time>2026-03-26T15:00:21.946Z</time></trkpt><trkpt lat="44.4382217" lon="8.5124667"><ele>872.0</ele><time>2026-03-26T15:00:22.946Z</time></trkpt><trkpt lat="44.4382133" lon="8.5123417"><ele>872.0</ele><time>2026-03-26T15:00:23.947Z</time></trkpt><trkpt lat="44.4382283" lon="8.5122333"><ele>872.0</ele><time>2026-03-26T15:00:24.947Z</time></trkpt><trkpt lat="44.4382533" lon="8.5121"><ele>872.0</ele><time>2026-03-26T15:00:25.947Z</time></trkpt><trkpt lat="44.4382617" lon="8.51198"><ele>869.8</ele><time>2026-03-26T15:00:26.947Z</time></trkpt><trkpt lat="44.43829" lon="8.5118683"><ele>867.6</ele><time>2026-03-26T15:00:27.946Z</time></trkpt><trkpt lat="44.438325" lon="8.5117417"><ele>865.3999999999999</ele><time>2026-03-26T15:00:28.946Z</time></trkpt><trkpt lat="44.4383633" lon="8.5116133"><ele>863.1999999999999</ele><time>2026-03-26T15:00:29.947Z</time></trkpt><trkpt lat="44.4383933" lon="8.5114933"><ele>861.0</ele><time>2026-03-26T15:00:30.946Z</time></trkpt><trkpt lat="44.4384033" lon="8.511385"><ele>861.0</ele><time>2026-03-26T15:00:31.946Z</time></trkpt><trkpt lat="44.4384083" lon="8.5112817"><ele>861.0</ele><time>2026-03-26T15:00:32.947Z</time></trkpt><trkpt lat="44.4384083" lon="8.5111817"><ele>861.0</ele><time>2026-03-26T15:00:33.946Z</time></trkpt><trkpt lat="44.438385" lon="8.5110883"><ele>861.0</ele><time>2026-03-26T15:00:34.947Z</time></trkpt><trkpt lat="44.43834" lon="8.5109867"><ele>861.0</ele><time>2026-03-26T15:00:35.947Z</time></trkpt><trkpt lat="44.4382983" lon="8.51089"><ele>861.0</ele><time>2026-03-26T15:00:36.947Z</time></trkpt><trkpt lat="44.4382567" lon="8.5107983"><ele>861.1999999999999</ele><time>2026-03-26T15:00:37.946Z</time></trkpt><trkpt lat="44.4381933" lon="8.5106583"><ele>861.3999999999999</ele><time>2026-03-26T15:00:39.947Z</time></trkpt><trkpt lat="44.4381267" lon="8.51052"><ele>861.6</ele><time>2026-03-26T15:00:41.947Z</time></trkpt><trkpt lat="44.438085" lon="8.5104467"><ele>861.8</ele><time>2026-03-26T15:00:42.946Z</time></trkpt><trkpt lat="44.4380183" lon="8.5103733"><ele>862.0</ele><time>2026-03-26T15:00:43.947Z</time></trkpt><trkpt lat="44.4379383" lon="8.5103033"><ele>859.0</ele><time>2026-03-26T15:00:44.947Z</time></trkpt><trkpt lat="44.4378567" lon="8.51022"><ele>856.0</ele><time>2026-03-26T15:00:45.946Z</time></trkpt><trkpt lat="44.4377717" lon="8.5101467"><ele>853.0</ele><time>2026-03-26T15:00:46.946Z</time></trkpt><trkpt lat="44.4376783" lon="8.510045"><ele>850.0</ele><time>2026-03-26T15:00:47.947Z</time></trkpt><trkpt lat="44.437615" lon="8.5099683"><ele>847.0</ele><time>2026-03-26T15:00:48.947Z</time></trkpt><trkpt lat="44.43757" lon="8.5098767"><ele>847.0</ele><time>2026-03-26T15:00:49.947Z</time></trkpt><trkpt lat="44.437535" lon="8.5097783"><ele>847.0</ele><time>2026-03-26T15:00:50.946Z</time></trkpt><trkpt lat="44.4375117" lon="8.509655"><ele>847.0</ele><time>2026-03-26T15:00:51.946Z</time></trkpt><trkpt lat="44.437505" lon="8.509515"><ele>847.0</ele><time>2026-03-26T15:00:52.947Z</time></trkpt><trkpt lat="44.4375167" lon="8.509365"><ele>847.0</ele><time>2026-03-26T15:00:53.947Z</time></trkpt><trkpt lat="44.43754" lon="8.5092583"><ele>847.4999999999999</ele><time>2026-03-26T15:00:54.946Z</time></trkpt><trkpt lat="44.4375817" lon="8.5091467"><ele>848.0</ele><time>2026-03-26T15:00:55.946Z</time></trkpt><trkpt lat="44.4376083" lon="8.5090533"><ele>848.5</ele><time>2026-03-26T15:00:56.946Z</time></trkpt><trkpt lat="44.4376417" lon="8.5089717"><ele>849.0</ele><time>2026-03-26T15:00:57.946Z</time></trkpt><trkpt lat="44.4376667" lon="8.508795"><ele>849.4999999999999</ele><time>2026-03-26T15:00:59.946Z</time></trkpt><trkpt lat="44.4376733" lon="8.5086933"><ele>850.0</ele><time>2026-03-26T15:01:00.947Z</time></trkpt><trkpt lat="44.4376617" lon="8.508585"><ele>849.9999999999999</ele><time>2026-03-26T15:01:01.946Z</time></trkpt><trkpt lat="44.4376483" lon="8.5084767"><ele>850.0</ele><time>2026-03-26T15:01:02.947Z</time></trkpt><trkpt lat="44.43766" lon="8.5083633"><ele>850.0</ele><time>2026-03-26T15:01:03.946Z</time></trkpt><trkpt lat="44.4376783" lon="8.5082617"><ele>850.0</ele><time>2026-03-26T15:01:04.946Z</time></trkpt><trkpt lat="44.4377" lon="8.5081183"><ele>849.9999999999999</ele><time>2026-03-26T15:01:06.946Z</time></trkpt><trkpt lat="44.4377167" lon="8.5079883"><ele>850.0</ele><time>2026-03-26T15:01:08.947Z</time></trkpt><trkpt lat="44.4377483" lon="8.5078367"><ele>848.1666666666666</ele><time>2026-03-26T15:01:10.947Z</time></trkpt><trkpt lat="44.437775" lon="8.507695"><ele>846.3333333333333</ele><time>2026-03-26T15:01:12.947Z</time></trkpt><trkpt lat="44.4377683" lon="8.5075567"><ele>844.5</ele><time>2026-03-26T15:01:14.947Z</time></trkpt><trkpt lat="44.43777" lon="8.5074267"><ele>842.6666666666667</ele><time>2026-03-26T15:01:16.947Z</time></trkpt><trkpt lat="44.4377883" lon="8.5073283"><ele>840.8333333333334</ele><time>2026-03-26T15:01:17.946Z</time></trkpt><trkpt lat="44.4378033" lon="8.5072183"><ele>839.0</ele><time>2026-03-26T15:01:18.946Z</time></trkpt><trkpt lat="44.4378267" lon="8.5071083"><ele>836.8333333333334</ele><time>2026-03-26T15:01:19.947Z</time></trkpt><trkpt lat="44.4378383" lon="8.5070183"><ele>834.6666666666667</ele><time>2026-03-26T15:01:20.947Z</time></trkpt><trkpt lat="44.4378733" lon="8.5069017"><ele>832.5</ele><time>2026-03-26T15:01:21.946Z</time></trkpt><trkpt lat="44.437895" lon="8.50679"><ele>830.3333333333333</ele><time>2026-03-26T15:01:22.946Z</time></trkpt><trkpt lat="44.4379267" lon="8.5066617"><ele>828.1666666666666</ele><time>2026-03-26T15:01:23.947Z</time></trkpt><trkpt lat="44.4379633" lon="8.506555"><ele>826.0</ele><time>2026-03-26T15:01:24.947Z</time></trkpt><trkpt lat="44.4379983" lon="8.50646"><ele>825.9999999999999</ele><time>2026-03-26T15:01:25.947Z</time></trkpt><trkpt lat="44.438025" lon="8.5063517"><ele>826.0</ele><time>2026-03-26T15:01:26.946Z</time></trkpt><trkpt lat="44.4380483" lon="8.5062667"><ele>826.0</ele><time>2026-03-26T15:01:27.946Z</time></trkpt><trkpt lat="44.43806" lon="8.5061683"><ele>826.0</ele><time>2026-03-26T15:01:28.946Z</time></trkpt><trkpt lat="44.43806" lon="8.506005"><ele>825.9999999999999</ele><time>2026-03-26T15:01:30.946Z</time></trkpt><trkpt lat="44.4380483" lon="8.50591"><ele>826.0</ele><time>2026-03-26T15:01:31.947Z</time></trkpt><trkpt lat="44.43804" lon="8.505755"><ele>823.3333333333333</ele><time>2026-03-26T15:01:33.947Z</time></trkpt><trkpt lat="44.4380483" lon="8.5056383"><ele>820.6666666666666</ele><time>2026-03-26T15:01:35.946Z</time></trkpt><trkpt lat="44.4380517" lon="8.5055383"><ele>818.0</ele><time>2026-03-26T15:01:37.946Z</time></trkpt><trkpt lat="44.438065" lon="8.50545"><ele>815.3333333333333</ele><time>2026-03-26T15:01:39.946Z</time></trkpt><trkpt lat="44.43811" lon="8.50536"><ele>812.6666666666666</ele><time>2026-03-26T15:01:41.947Z</time></trkpt><trkpt lat="44.4381583" lon="8.5052233"><ele>810.0</ele><time>2026-03-26T15:01:43.947Z</time></trkpt><trkpt lat="44.438175" lon="8.5051267"><ele>808.0</ele><time>2026-03-26T15:01:44.947Z</time></trkpt><trkpt lat="44.4381967" lon="8.50504"><ele>806.0</ele><time>2026-03-26T15:01:45.947Z</time></trkpt><trkpt lat="44.4382283" lon="8.50492"><ele>804.0</ele><time>2026-03-26T15:01:47.947Z</time></trkpt><trkpt lat="44.4382783" lon="8.504825"><ele>802.0</ele><time>2026-03-26T15:01:49.946Z</time></trkpt><trkpt lat="44.4383133" lon="8.50473"><ele>800.0</ele><time>2026-03-26T15:01:51.946Z</time></trkpt><trkpt lat="44.4383517" lon="8.504635"><ele>798.0</ele><time>2026-03-26T15:01:53.946Z</time></trkpt><trkpt lat="44.4384133" lon="8.5044917"><ele>794.5999999999999</ele><time>2026-03-26T15:01:55.947Z</time></trkpt><trkpt lat="44.4384583" lon="8.5043967"><ele>791.1999999999999</ele><time>2026-03-26T15:01:56.947Z</time></trkpt><trkpt lat="44.4385167" lon="8.5042567"><ele>787.8</ele><time>2026-03-26T15:01:58.947Z</time></trkpt><trkpt lat="44.4385583" lon="8.504095"><ele>784.4</ele><time>2026-03-26T15:02:00.947Z</time></trkpt><trkpt lat="44.43857" lon="8.504005"><ele>781.0</ele><time>2026-03-26T15:02:01.946Z</time></trkpt><trkpt lat="44.4385917" lon="8.5039183"><ele>780.9999999999999</ele><time>2026-03-26T15:02:02.947Z</time></trkpt><trkpt lat="44.4386367" lon="8.5037967"><ele>781.0</ele><time>2026-03-26T15:02:03.947Z</time></trkpt><trkpt lat="44.4386733" lon="8.503675"><ele>781.0</ele><time>2026-03-26T15:02:04.947Z</time></trkpt><trkpt lat="44.4387117" lon="8.50356"><ele>781.0</ele><time>2026-03-26T15:02:05.946Z</time></trkpt><trkpt lat="44.438745" lon="8.5034417"><ele>780.9999999999999</ele><time>2026-03-26T15:02:06.946Z</time></trkpt><trkpt lat="44.4387733" lon="8.5033467"><ele>781.0</ele><time>2026-03-26T15:02:07.946Z</time></trkpt><trkpt lat="44.4388" lon="8.5032617"><ele>779.4285714285714</ele><time>2026-03-26T15:02:08.947Z</time></trkpt><trkpt lat="44.4388183" lon="8.5031767"><ele>777.8571428571429</ele><time>2026-03-26T15:02:09.946Z</time></trkpt><trkpt lat="44.4388283" lon="8.5030833"><ele>776.2857142857142</ele><time>2026-03-26T15:02:10.947Z</time></trkpt><trkpt lat="44.4388367" lon="8.5029883"><ele>774.7142857142858</ele><time>2026-03-26T15:02:11.946Z</time></trkpt><trkpt lat="44.43885" lon="8.5028967"><ele>773.1428571428571</ele><time>2026-03-26T15:02:12.946Z</time></trkpt><trkpt lat="44.4388467" lon="8.502795"><ele>771.5714285714286</ele><time>2026-03-26T15:02:13.946Z</time></trkpt><trkpt lat="44.43882" lon="8.5026817"><ele>770.0</ele><time>2026-03-26T15:02:14.947Z</time></trkpt><trkpt lat="44.4388067" lon="8.5025733"><ele>769.8333333333334</ele><time>2026-03-26T15:02:15.946Z</time></trkpt><trkpt lat="44.4387817" lon="8.5024783"><ele>769.6666666666667</ele><time>2026-03-26T15:02:16.946Z</time></trkpt><trkpt lat="44.4387417" lon="8.502405"><ele>769.5</ele><time>2026-03-26T15:02:17.946Z</time></trkpt><trkpt lat="44.43869" lon="8.5023033"><ele>769.3333333333333</ele><time>2026-03-26T15:02:18.946Z</time></trkpt><trkpt lat="44.43866" lon="8.5022017"><ele>769.1666666666666</ele><time>2026-03-26T15:02:19.947Z</time></trkpt><trkpt lat="44.43863" lon="8.5021"><ele>769.0</ele><time>2026-03-26T15:02:20.946Z</time></trkpt><trkpt lat="44.43861" lon="8.5019733"><ele>769.6666666666666</ele><time>2026-03-26T15:02:21.947Z</time></trkpt><trkpt lat="44.43858" lon="8.5018467"><ele>770.3333333333333</ele><time>2026-03-26T15:02:22.946Z</time></trkpt><trkpt lat="44.4385483" lon="8.5017367"><ele>771.0</ele><time>2026-03-26T15:02:23.946Z</time></trkpt><trkpt lat="44.4385233" lon="8.5016283"><ele>771.6666666666667</ele><time>2026-03-26T15:02:24.946Z</time></trkpt><trkpt lat="44.4385067" lon="8.50152"><ele>772.3333333333334</ele><time>2026-03-26T15:02:25.947Z</time></trkpt><trkpt lat="44.438485" lon="8.501415"><ele>773.0</ele><time>2026-03-26T15:02:26.946Z</time></trkpt><trkpt lat="44.438465" lon="8.5013183"><ele>772.8333333333334</ele><time>2026-03-26T15:02:27.947Z</time></trkpt><trkpt lat="44.4384333" lon="8.5012283"><ele>772.6666666666667</ele><time>2026-03-26T15:02:28.946Z</time></trkpt><trkpt lat="44.43846" lon="8.5010767"><ele>772.5</ele><time>2026-03-26T15:02:30.946Z</time></trkpt><trkpt lat="44.4384667" lon="8.50098"><ele>772.3333333333333</ele><time>2026-03-26T15:02:31.947Z</time></trkpt><trkpt lat="44.438485" lon="8.500855"><ele>772.1666666666666</ele><time>2026-03-26T15:02:32.946Z</time></trkpt><trkpt lat="44.4385067" lon="8.5007383"><ele>772.0</ele><time>2026-03-26T15:02:33.947Z</time></trkpt><trkpt lat="44.438525" lon="8.5006183"><ele>772.0</ele><time>2026-03-26T15:02:34.946Z</time></trkpt><trkpt lat="44.4385467" lon="8.50051"><ele>772.0</ele><time>2026-03-26T15:02:35.947Z</time></trkpt><trkpt lat="44.4385883" lon="8.5004"><ele>772.0</ele><time>2026-03-26T15:02:36.947Z</time></trkpt><trkpt lat="44.4386033" lon="8.500305"><ele>772.0</ele><time>2026-03-26T15:02:37.947Z</time></trkpt><trkpt lat="44.4385567" lon="8.50014"><ele>772.0</ele><time>2026-03-26T15:02:39.947Z</time></trkpt><trkpt lat="44.43852" lon="8.5000217"><ele>771.1666666666666</ele><time>2026-03-26T15:02:40.946Z</time></trkpt><trkpt lat="44.438495" lon="8.4999233"><ele>770.3333333333333</ele><time>2026-03-26T15:02:41.946Z</time></trkpt><trkpt lat="44.438455" lon="8.4998217"><ele>769.5</ele><time>2026-03-26T15:02:42.946Z</time></trkpt><trkpt lat="44.438415" lon="8.49973"><ele>768.6666666666666</ele><time>2026-03-26T15:02:43.947Z</time></trkpt><trkpt lat="44.43836" lon="8.4996467"><ele>767.8333333333333</ele><time>2026-03-26T15:02:44.946Z</time></trkpt><trkpt lat="44.4382717" lon="8.499635"><ele>767.0</ele><time>2026-03-26T15:02:46.947Z</time></trkpt><trkpt lat="44.4381833" lon="8.4996267"><ele>767.0</ele><time>2026-03-26T15:02:48.947Z</time></trkpt><trkpt lat="44.4380967" lon="8.4996183"><ele>767.0</ele><time>2026-03-26T15:02:50.946Z</time></trkpt><trkpt lat="44.4380333" lon="8.4996117"><ele>767.0</ele><time>2026-03-26T15:02:51.947Z</time></trkpt><trkpt lat="44.4379533" lon="8.49959"><ele>767.0</ele><time>2026-03-26T15:02:52.946Z</time></trkpt><trkpt lat="44.4378883" lon="8.4995833"><ele>767.0</ele><time>2026-03-26T15:02:53.946Z</time></trkpt><trkpt lat="44.4378133" lon="8.499555"><ele>767.0</ele><time>2026-03-26T15:02:54.946Z</time></trkpt><trkpt lat="44.4377367" lon="8.4995133"><ele>765.2</ele><time>2026-03-26T15:02:55.947Z</time></trkpt><trkpt lat="44.4376633" lon="8.49946"><ele>763.4000000000001</ele><time>2026-03-26T15:02:56.947Z</time></trkpt><trkpt lat="44.4375567" lon="8.4993833"><ele>761.5999999999999</ele><time>2026-03-26T15:02:57.946Z</time></trkpt><trkpt lat="44.437485" lon="8.499295"><ele>759.8</ele><time>2026-03-26T15:02:58.947Z</time></trkpt><trkpt lat="44.4374383" lon="8.4992067"><ele>758.0</ele><time>2026-03-26T15:02:59.947Z</time></trkpt><trkpt lat="44.4373833" lon="8.4990933"><ele>758.0</ele><time>2026-03-26T15:03:01.947Z</time></trkpt><trkpt lat="44.43731" lon="8.4989783"><ele>758.0</ele><time>2026-03-26T15:03:03.947Z</time></trkpt><trkpt lat="44.4372567" lon="8.4988567"><ele>758.0</ele><time>2026-03-26T15:03:05.946Z</time></trkpt><trkpt lat="44.43719" lon="8.4987317"><ele>758.0</ele><time>2026-03-26T15:03:10.946Z</time></trkpt><trkpt lat="44.4370917" lon="8.49871"><ele>758.0</ele><time>2026-03-26T15:03:12.946Z</time></trkpt><trkpt lat="44.4369817" lon="8.4987483"><ele>755.5</ele><time>2026-03-26T15:03:14.946Z</time></trkpt><trkpt lat="44.43692" lon="8.498845"><ele>753.0</ele><time>2026-03-26T15:03:15.946Z</time></trkpt><trkpt lat="44.436865" lon="8.4989333"><ele>750.5</ele><time>2026-03-26T15:03:16.946Z</time></trkpt><trkpt lat="44.436815" lon="8.4990133"><ele>748.0</ele><time>2026-03-26T15:03:17.946Z</time></trkpt><trkpt lat="44.4367617" lon="8.499065"><ele>745.5</ele><time>2026-03-26T15:03:18.947Z</time></trkpt><trkpt lat="44.43665" lon="8.4991333"><ele>743.0</ele><time>2026-03-26T15:03:20.947Z</time></trkpt><trkpt lat="44.4365417" lon="8.4991817"><ele>743.0</ele><time>2026-03-26T15:03:22.946Z</time></trkpt><trkpt lat="44.436475" lon="8.499185"><ele>743.0</ele><time>2026-03-26T15:03:24.946Z</time></trkpt><trkpt lat="44.4363833" lon="8.4991683"><ele>743.0</ele><time>2026-03-26T15:03:27.946Z</time></trkpt><trkpt lat="44.4363017" lon="8.499175"><ele>743.0</ele><time>2026-03-26T15:03:30.947Z</time></trkpt><trkpt lat="44.4362117" lon="8.4991833"><ele>743.0</ele><time>2026-03-26T15:03:34.946Z</time></trkpt><trkpt lat="44.4361433" lon="8.4991717"><ele>743.0</ele><time>2026-03-26T15:03:37.947Z</time></trkpt><trkpt lat="44.4360733" lon="8.4990833"><ele>739.8333333333333</ele><time>2026-03-26T15:03:40.947Z</time></trkpt><trkpt lat="44.4360267" lon="8.4989933"><ele>736.6666666666666</ele><time>2026-03-26T15:03:42.946Z</time></trkpt><trkpt lat="44.4359717" lon="8.4988917"><ele>733.5</ele><time>2026-03-26T15:03:44.947Z</time></trkpt><trkpt lat="44.4359083" lon="8.4988017"><ele>730.3333333333334</ele><time>2026-03-26T15:03:46.947Z</time></trkpt><trkpt lat="44.4358433" lon="8.498705"><ele>727.1666666666667</ele><time>2026-03-26T15:03:48.946Z</time></trkpt><trkpt lat="44.435805" lon="8.4986333"><ele>724.0</ele><time>2026-03-26T15:03:49.946Z</time></trkpt><trkpt lat="44.435765" lon="8.4985583"><ele>724.0</ele><time>2026-03-26T15:03:50.946Z</time></trkpt><trkpt lat="44.4357167" lon="8.498495"><ele>724.0</ele><time>2026-03-26T15:03:51.946Z</time></trkpt><trkpt lat="44.4356083" lon="8.4984067"><ele>724.0</ele><time>2026-03-26T15:03:53.946Z</time></trkpt><trkpt lat="44.4355383" lon="8.4983683"><ele>724.0</ele><time>2026-03-26T15:03:54.946Z</time></trkpt><trkpt lat="44.4354717" lon="8.4983417"><ele>724.0</ele><time>2026-03-26T15:03:55.947Z</time></trkpt><trkpt lat="44.4354017" lon="8.4983133"><ele>724.0</ele><time>2026-03-26T15:03:56.946Z</time></trkpt><trkpt lat="44.4353383" lon="8.4982883"><ele>721.6666666666667</ele><time>2026-03-26T15:03:57.947Z</time></trkpt><trkpt lat="44.4352733" lon="8.4982567"><ele>719.3333333333334</ele><time>2026-03-26T15:03:58.946Z</time></trkpt><trkpt lat="44.4352117" lon="8.4982217"><ele>717.0</ele><time>2026-03-26T15:03:59.946Z</time></trkpt><trkpt lat="44.435155" lon="8.498175"><ele>714.6666666666666</ele><time>2026-03-26T15:04:00.947Z</time></trkpt><trkpt lat="44.4350783" lon="8.49805"><ele>712.3333333333333</ele><time>2026-03-26T15:04:02.946Z</time></trkpt><trkpt lat="44.43504" lon="8.4979133"><ele>710.0</ele><time>2026-03-26T15:04:04.947Z</time></trkpt><trkpt lat="44.43499" lon="8.49774"><ele>710.0</ele><time>2026-03-26T15:04:06.946Z</time></trkpt><trkpt lat="44.4349283" lon="8.4976267"><ele>710.0</ele><time>2026-03-26T15:04:07.946Z</time></trkpt><trkpt lat="44.4348633" lon="8.4975267"><ele>710.0</ele><time>2026-03-26T15:04:08.946Z</time></trkpt><trkpt lat="44.4347933" lon="8.4974417"><ele>710.0</ele><time>2026-03-26T15:04:09.946Z</time></trkpt><trkpt lat="44.4347167" lon="8.49738"><ele>710.0</ele><time>2026-03-26T15:04:10.946Z</time></trkpt><trkpt lat="44.4346317" lon="8.49734"><ele>703.6666666666666</ele><time>2026-03-26T15:04:11.947Z</time></trkpt><trkpt lat="44.434545" lon="8.4973217"><ele>697.3333333333333</ele><time>2026-03-26T15:04:12.947Z</time></trkpt><trkpt lat="44.4344583" lon="8.4973033"><ele>691.0</ele><time>2026-03-26T15:04:13.946Z</time></trkpt><trkpt lat="44.4343767" lon="8.4972767"><ele>684.6666666666666</ele><time>2026-03-26T15:04:14.946Z</time></trkpt><trkpt lat="44.4343117" lon="8.4972283"><ele>678.3333333333334</ele><time>2026-03-26T15:04:15.946Z</time></trkpt><trkpt lat="44.43425" lon="8.4971667"><ele>672.0</ele><time>2026-03-26T15:04:16.946Z</time></trkpt><trkpt lat="44.4342117" lon="8.4970967"><ele>673.0</ele><time>2026-03-26T15:04:17.947Z</time></trkpt><trkpt lat="44.4342083" lon="8.4969517"><ele>674.0</ele><time>2026-03-26T15:04:19.947Z</time></trkpt><trkpt lat="44.4343067" lon="8.496805"><ele>675.0</ele><time>2026-03-26T15:04:21.946Z</time></trkpt><trkpt lat="44.43437" lon="8.4967367"><ele>676.0</ele><time>2026-03-26T15:04:22.946Z</time></trkpt><trkpt lat="44.434415" lon="8.4966683"><ele>677.0</ele><time>2026-03-26T15:04:23.946Z</time></trkpt><trkpt lat="44.4344833" lon="8.4965633"><ele>677.0</ele><time>2026-03-26T15:04:25.947Z</time></trkpt><trkpt lat="44.434535" lon="8.4965033"><ele>677.0</ele><time>2026-03-26T15:04:27.946Z</time></trkpt><trkpt lat="44.434455" lon="8.4965633"><ele>677.0</ele><time>2026-03-26T15:04:30.946Z</time></trkpt><trkpt lat="44.4343733" lon="8.496625"><ele>677.0</ele><time>2026-03-26T15:04:31.946Z</time></trkpt><trkpt lat="44.43429" lon="8.4966917"><ele>677.0</ele><time>2026-03-26T15:04:32.947Z</time></trkpt><trkpt lat="44.4342167" lon="8.4967483"><ele>677.0</ele><time>2026-03-26T15:04:33.947Z</time></trkpt><trkpt lat="44.4341583" lon="8.4968067"><ele>677.0</ele><time>2026-03-26T15:04:34.946Z</time></trkpt><trkpt lat="44.4340883" lon="8.4969383"><ele>677.0</ele><time>2026-03-26T15:04:36.946Z</time></trkpt><trkpt lat="44.4340517" lon="8.4970317"><ele>677.0</ele><time>2026-03-26T15:04:37.946Z</time></trkpt><trkpt lat="44.43405" lon="8.4972067"><ele>677.0</ele><time>2026-03-26T15:04:39.947Z</time></trkpt><trkpt lat="44.4340733" lon="8.4972933"><ele>677.0</ele><time>2026-03-26T15:04:40.946Z</time></trkpt><trkpt lat="44.4341117" lon="8.4973783"><ele>676.1666666666666</ele><time>2026-03-26T15:04:41.947Z</time></trkpt><trkpt lat="44.4341633" lon="8.49744"><ele>675.3333333333333</ele><time>2026-03-26T15:04:42.947Z</time></trkpt><trkpt lat="44.434225" lon="8.4974667"><ele>674.5</ele><time>2026-03-26T15:04:43.946Z</time></trkpt><trkpt lat="44.4342817" lon="8.4975117"><ele>673.6666666666666</ele><time>2026-03-26T15:04:44.946Z</time></trkpt><trkpt lat="44.4343633" lon="8.49758"><ele>672.8333333333334</ele><time>2026-03-26T15:04:45.946Z</time></trkpt><trkpt lat="44.4344367" lon="8.4976667"><ele>672.0</ele><time>2026-03-26T15:04:46.946Z</time></trkpt><trkpt lat="44.434485" lon="8.49775"><ele>672.0</ele><time>2026-03-26T15:04:47.947Z</time></trkpt><trkpt lat="44.4345283" lon="8.49785"><ele>672.0</ele><time>2026-03-26T15:04:48.947Z</time></trkpt><trkpt lat="44.4345567" lon="8.4979483"><ele>672.0</ele><time>2026-03-26T15:04:49.946Z</time></trkpt><trkpt lat="44.43454" lon="8.4980583"><ele>672.0</ele><time>2026-03-26T15:04:50.947Z</time></trkpt><trkpt lat="44.434555" lon="8.49815"><ele>672.0</ele><time>2026-03-26T15:04:51.947Z</time></trkpt><trkpt lat="44.4345333" lon="8.4982833"><ele>672.0</ele><time>2026-03-26T15:04:53.946Z</time></trkpt><trkpt lat="44.434475" lon="8.4984367"><ele>668.6</ele><time>2026-03-26T15:04:55.946Z</time></trkpt><trkpt lat="44.4344333" lon="8.4986083"><ele>665.2</ele><time>2026-03-26T15:04:57.947Z</time></trkpt><trkpt lat="44.4344017" lon="8.4986983"><ele>661.8</ele><time>2026-03-26T15:04:58.947Z</time></trkpt><trkpt lat="44.4343833" lon="8.4988167"><ele>658.4</ele><time>2026-03-26T15:04:59.947Z</time></trkpt><trkpt lat="44.43436" lon="8.49895"><ele>655.0</ele><time>2026-03-26T15:05:00.946Z</time></trkpt><trkpt lat="44.43435" lon="8.4991117"><ele>654.6</ele><time>2026-03-26T15:05:01.947Z</time></trkpt><trkpt lat="44.43434" lon="8.4992767"><ele>654.2</ele><time>2026-03-26T15:05:02.947Z</time></trkpt><trkpt lat="44.4343183" lon="8.4994317"><ele>653.8</ele><time>2026-03-26T15:05:03.947Z</time></trkpt><trkpt lat="44.4342833" lon="8.4995767"><ele>653.4</ele><time>2026-03-26T15:05:04.946Z</time></trkpt><trkpt lat="44.4342383" lon="8.499695"><ele>653.0</ele><time>2026-03-26T15:05:05.946Z</time></trkpt><trkpt lat="44.4342" lon="8.4998083"><ele>653.0</ele><time>2026-03-26T15:05:06.946Z</time></trkpt><trkpt lat="44.43417" lon="8.499925"><ele>653.0</ele><time>2026-03-26T15:05:07.946Z</time></trkpt><trkpt lat="44.4341417" lon="8.50005"><ele>653.0</ele><time>2026-03-26T15:05:08.946Z</time></trkpt><trkpt lat="44.4341267" lon="8.5001817"><ele>653.0</ele><time>2026-03-26T15:05:09.946Z</time></trkpt><trkpt lat="44.4341267" lon="8.5003167"><ele>653.0</ele><time>2026-03-26T15:05:10.946Z</time></trkpt><trkpt lat="44.434135" lon="8.500455"><ele>652.8</ele><time>2026-03-26T15:05:11.946Z</time></trkpt><trkpt lat="44.4341367" lon="8.5006017"><ele>652.5999999999999</ele><time>2026-03-26T15:05:12.947Z</time></trkpt><trkpt lat="44.4341433" lon="8.5007533"><ele>652.4000000000001</ele><time>2026-03-26T15:05:13.946Z</time></trkpt><trkpt lat="44.4341483" lon="8.500905"><ele>652.2</ele><time>2026-03-26T15:05:14.946Z</time></trkpt><trkpt lat="44.4341517" lon="8.501055"><ele>652.0</ele><time>2026-03-26T15:05:15.946Z</time></trkpt><trkpt lat="44.4341533" lon="8.501195"><ele>652.5</ele><time>2026-03-26T15:05:16.946Z</time></trkpt><trkpt lat="44.4341617" lon="8.5013083"><ele>653.0</ele><time>2026-03-26T15:05:17.947Z</time></trkpt><trkpt lat="44.4341533" lon="8.5014067"><ele>653.5</ele><time>2026-03-26T15:05:18.947Z</time></trkpt><trkpt lat="44.43412" lon="8.5015517"><ele>654.0</ele><time>2026-03-26T15:05:20.947Z</time></trkpt><trkpt lat="44.4340767" lon="8.5016433"><ele>654.5</ele><time>2026-03-26T15:05:22.948Z</time></trkpt><trkpt lat="44.4340167" lon="8.501755"><ele>655.0</ele><time>2026-03-26T15:05:24.947Z</time></trkpt><trkpt lat="44.433925" lon="8.5018433"><ele>655.0</ele><time>2026-03-26T15:05:26.947Z</time></trkpt><trkpt lat="44.4338367" lon="8.5019283"><ele>655.0</ele><time>2026-03-26T15:05:28.948Z</time></trkpt><trkpt lat="44.43375" lon="8.5019917"><ele>655.0</ele><time>2026-03-26T15:05:30.948Z</time></trkpt><trkpt lat="44.4336867" lon="8.5020017"><ele>655.0</ele><time>2026-03-26T15:05:32.947Z</time></trkpt><trkpt lat="44.4336133" lon="8.5019567"><ele>655.0</ele><time>2026-03-26T15:05:35.947Z</time></trkpt><trkpt lat="44.433515" lon="8.501975"><ele>655.0</ele><time>2026-03-26T15:05:38.947Z</time></trkpt><trkpt lat="44.4334367" lon="8.501965"><ele>655.6666666666667</ele><time>2026-03-26T15:05:40.948Z</time></trkpt><trkpt lat="44.4333883" lon="8.501875"><ele>656.3333333333334</ele><time>2026-03-26T15:05:42.947Z</time></trkpt><trkpt lat="44.4333633" lon="8.5017617"><ele>657.0</ele><time>2026-03-26T15:05:44.947Z</time></trkpt><trkpt lat="44.4333783" lon="8.50165"><ele>657.6666666666666</ele><time>2026-03-26T15:05:46.948Z</time></trkpt><trkpt lat="44.4333567" lon="8.50155"><ele>658.3333333333333</ele><time>2026-03-26T15:05:48.947Z</time></trkpt><trkpt lat="44.4332817" lon="8.5014183"><ele>659.0</ele><time>2026-03-26T15:05:50.948Z</time></trkpt><trkpt lat="44.4332133" lon="8.501345"><ele>659.0</ele><time>2026-03-26T15:05:51.947Z</time></trkpt><trkpt lat="44.4331433" lon="8.501265"><ele>659.0</ele><time>2026-03-26T15:05:52.948Z</time></trkpt><trkpt lat="44.43307" lon="8.5011667"><ele>659.0</ele><time>2026-03-26T15:05:53.947Z</time></trkpt><trkpt lat="44.433" lon="8.5010767"><ele>659.0</ele><time>2026-03-26T15:05:54.947Z</time></trkpt><trkpt lat="44.43294" lon="8.5009817"><ele>659.0</ele><time>2026-03-26T15:05:55.947Z</time></trkpt><trkpt lat="44.43289" lon="8.500915"><ele>659.0</ele><time>2026-03-26T15:05:56.948Z</time></trkpt><trkpt lat="44.432815" lon="8.5008567"><ele>658.8333333333333</ele><time>2026-03-26T15:05:58.947Z</time></trkpt><trkpt lat="44.4327317" lon="8.5009183"><ele>658.6666666666666</ele><time>2026-03-26T15:06:01.948Z</time></trkpt><trkpt lat="44.4327033" lon="8.5010067"><ele>658.5</ele><time>2026-03-26T15:06:03.948Z</time></trkpt><trkpt lat="44.43268" lon="8.5011583"><ele>658.3333333333334</ele><time>2026-03-26T15:06:05.947Z</time></trkpt><trkpt lat="44.4326517" lon="8.501245"><ele>658.1666666666667</ele><time>2026-03-26T15:06:06.947Z</time></trkpt><trkpt lat="44.43262" lon="8.50136"><ele>658.0</ele><time>2026-03-26T15:06:07.947Z</time></trkpt><trkpt lat="44.432585" lon="8.5014867"><ele>659.6666666666667</ele><time>2026-03-26T15:06:08.948Z</time></trkpt><trkpt lat="44.4325433" lon="8.5015883"><ele>661.3333333333334</ele><time>2026-03-26T15:06:09.947Z</time></trkpt><trkpt lat="44.432495" lon="8.501685"><ele>663.0</ele><time>2026-03-26T15:06:10.948Z</time></trkpt><trkpt lat="44.4324533" lon="8.501765"><ele>664.6666666666666</ele><time>2026-03-26T15:06:11.948Z</time></trkpt><trkpt lat="44.4323783" lon="8.5018433"><ele>666.3333333333333</ele><time>2026-03-26T15:06:13.948Z</time></trkpt><trkpt lat="44.4323783" lon="8.50195"><ele>668.0</ele><time>2026-03-26T15:06:18.947Z</time></trkpt><trkpt lat="44.4323233" lon="8.5020367"><ele>668.0</ele><time>2026-03-26T15:06:22.948Z</time></trkpt><trkpt lat="44.4322517" lon="8.5020667"><ele>668.0</ele><time>2026-03-26T15:06:24.947Z</time></trkpt><trkpt lat="44.43218" lon="8.5021733"><ele>668.0</ele><time>2026-03-26T15:06:26.947Z</time></trkpt><trkpt lat="44.4321467" lon="8.5022517"><ele>668.0</ele><time>2026-03-26T15:06:27.947Z</time></trkpt><trkpt lat="44.43212" lon="8.5023467"><ele>668.0</ele><time>2026-03-26T15:06:28.948Z</time></trkpt><trkpt lat="44.432095" lon="8.50244"><ele>668.0</ele><time>2026-03-26T15:06:29.947Z</time></trkpt><trkpt lat="44.432065" lon="8.50254"><ele>672.6666666666666</ele><time>2026-03-26T15:06:30.947Z</time></trkpt><trkpt lat="44.432045" lon="8.502635"><ele>677.3333333333333</ele><time>2026-03-26T15:06:31.947Z</time></trkpt><trkpt lat="44.43203" lon="8.502725"><ele>682.0</ele><time>2026-03-26T15:06:32.947Z</time></trkpt><trkpt lat="44.432015" lon="8.5028633"><ele>686.6666666666666</ele><time>2026-03-26T15:06:34.948Z</time></trkpt><trkpt lat="44.4320217" lon="8.5029767"><ele>691.3333333333334</ele><time>2026-03-26T15:06:37.948Z</time></trkpt><trkpt lat="44.43197" lon="8.5030567"><ele>696.0</ele><time>2026-03-26T15:06:41.947Z</time></trkpt><trkpt lat="44.4319417" lon="8.5031567"><ele>697.8</ele><time>2026-03-26T15:06:43.947Z</time></trkpt><trkpt lat="44.4318867" lon="8.503285"><ele>699.5999999999999</ele><time>2026-03-26T15:06:45.947Z</time></trkpt><trkpt lat="44.4318" lon="8.50336"><ele>701.4</ele><time>2026-03-26T15:06:47.947Z</time></trkpt><trkpt lat="44.43174" lon="8.5033217"><ele>703.2</ele><time>2026-03-26T15:06:49.947Z</time></trkpt><trkpt lat="44.4316733" lon="8.503195"><ele>705.0</ele><time>2026-03-26T15:06:51.947Z</time></trkpt><trkpt lat="44.4316333" lon="8.5031233"><ele>705.0</ele><time>2026-03-26T15:06:52.947Z</time></trkpt><trkpt lat="44.4315883" lon="8.5030583"><ele>705.0</ele><time>2026-03-26T15:06:53.948Z</time></trkpt><trkpt lat="44.4315183" lon="8.5029317"><ele>705.0</ele><time>2026-03-26T15:06:55.947Z</time></trkpt><trkpt lat="44.431475" lon="8.5027867"><ele>705.0</ele><time>2026-03-26T15:06:57.947Z</time></trkpt><trkpt lat="44.4314583" lon="8.5026383"><ele>705.0</ele><time>2026-03-26T15:06:59.947Z</time></trkpt><trkpt lat="44.4314917" lon="8.502505"><ele>703.2</ele><time>2026-03-26T15:07:02.948Z</time></trkpt><trkpt lat="44.4315067" lon="8.5024033"><ele>701.4</ele><time>2026-03-26T15:07:04.948Z</time></trkpt><trkpt lat="44.4314733" lon="8.5022267"><ele>699.5999999999999</ele><time>2026-03-26T15:07:06.948Z</time></trkpt><trkpt lat="44.4314333" lon="8.5021083"><ele>697.8</ele><time>2026-03-26T15:07:07.948Z</time></trkpt><trkpt lat="44.4314067" lon="8.5020017"><ele>696.0</ele><time>2026-03-26T15:07:08.947Z</time></trkpt><trkpt lat="44.4313817" lon="8.5018967"><ele>696.3333333333334</ele><time>2026-03-26T15:07:09.947Z</time></trkpt><trkpt lat="44.431365" lon="8.5017867"><ele>696.6666666666666</ele><time>2026-03-26T15:07:10.948Z</time></trkpt><trkpt lat="44.4313283" lon="8.5017"><ele>697.0</ele><time>2026-03-26T15:07:11.948Z</time></trkpt><trkpt lat="44.4312733" lon="8.50163"><ele>697.3333333333333</ele><time>2026-03-26T15:07:12.948Z</time></trkpt><trkpt lat="44.431185" lon="8.5015933"><ele>697.6666666666666</ele><time>2026-03-26T15:07:13.947Z</time></trkpt><trkpt lat="44.43109" lon="8.5015783"><ele>698.0</ele><time>2026-03-26T15:07:14.948Z</time></trkpt><trkpt lat="44.4309867" lon="8.5016"><ele>698.0</ele><time>2026-03-26T15:07:15.947Z</time></trkpt><trkpt lat="44.4308933" lon="8.5016417"><ele>698.0</ele><time>2026-03-26T15:07:16.948Z</time></trkpt><trkpt lat="44.4308233" lon="8.5016783"><ele>698.0</ele><time>2026-03-26T15:07:17.947Z</time></trkpt><trkpt lat="44.4307667" lon="8.50172"><ele>698.0</ele><time>2026-03-26T15:07:18.947Z</time></trkpt><trkpt lat="44.4307017" lon="8.5017567"><ele>698.0</ele><time>2026-03-26T15:07:19.947Z</time></trkpt><trkpt lat="44.43063" lon="8.5017983"><ele>698.0</ele><time>2026-03-26T15:07:20.948Z</time></trkpt><trkpt lat="44.4305567" lon="8.50183"><ele>698.0</ele><time>2026-03-26T15:07:21.947Z</time></trkpt><trkpt lat="44.4304817" lon="8.5018333"><ele>698.0</ele><time>2026-03-26T15:07:22.947Z</time></trkpt><trkpt lat="44.430415" lon="8.5018317"><ele>698.0</ele><time>2026-03-26T15:07:23.948Z</time></trkpt><trkpt lat="44.4303317" lon="8.50184"><ele>698.0</ele><time>2026-03-26T15:07:25.948Z</time></trkpt><trkpt lat="44.4302317" lon="8.5018033"><ele>698.0</ele><time>2026-03-26T15:07:28.947Z</time></trkpt><trkpt lat="44.4301583" lon="8.5017417"><ele>698.0</ele><time>2026-03-26T15:07:30.947Z</time></trkpt><trkpt lat="44.43007" lon="8.50164"><ele>698.0</ele><time>2026-03-26T15:07:32.947Z</time></trkpt><trkpt lat="44.42998" lon="8.50156"><ele>698.0</ele><time>2026-03-26T15:07:34.948Z</time></trkpt><trkpt lat="44.4299067" lon="8.5015033"><ele>698.0</ele><time>2026-03-26T15:07:36.947Z</time></trkpt><trkpt lat="44.4298233" lon="8.501465"><ele>698.0</ele><time>2026-03-26T15:07:38.947Z</time></trkpt><trkpt lat="44.4297383" lon="8.5014267"><ele>698.0</ele><time>2026-03-26T15:07:40.948Z</time></trkpt><trkpt lat="44.4296667" lon="8.5013867"><ele>698.0</ele><time>2026-03-26T15:07:42.947Z</time></trkpt><trkpt lat="44.42958" lon="8.5013667"><ele>699.5999999999999</ele><time>2026-03-26T15:07:44.947Z</time></trkpt><trkpt lat="44.4295033" lon="8.5013167"><ele>701.1999999999999</ele><time>2026-03-26T15:07:46.947Z</time></trkpt><trkpt lat="44.429395" lon="8.5012533"><ele>702.8</ele><time>2026-03-26T15:07:48.947Z</time></trkpt><trkpt lat="44.429295" lon="8.5012517"><ele>704.4</ele><time>2026-03-26T15:07:50.947Z</time></trkpt><trkpt lat="44.4291817" lon="8.501275"><ele>706.0</ele><time>2026-03-26T15:07:52.948Z</time></trkpt><trkpt lat="44.4290583" lon="8.501315"><ele>706.0</ele><time>2026-03-26T15:07:54.947Z</time></trkpt><trkpt lat="44.4289983" lon="8.5013433"><ele>706.0</ele><time>2026-03-26T15:07:55.947Z</time></trkpt><trkpt lat="44.428925" lon="8.5013783"><ele>706.0</ele><time>2026-03-26T15:07:56.947Z</time></trkpt><trkpt lat="44.42885" lon="8.5014167"><ele>706.0</ele><time>2026-03-26T15:07:57.948Z</time></trkpt><trkpt lat="44.42877" lon="8.5014633"><ele>706.0</ele><time>2026-03-26T15:07:58.947Z</time></trkpt><trkpt lat="44.4286733" lon="8.5015083"><ele>706.0</ele><time>2026-03-26T15:07:59.947Z</time></trkpt><trkpt lat="44.428605" lon="8.5015417"><ele>707.4</ele><time>2026-03-26T15:08:00.947Z</time></trkpt><trkpt lat="44.4285433" lon="8.5015817"><ele>708.8</ele><time>2026-03-26T15:08:01.948Z</time></trkpt><trkpt lat="44.4284383" lon="8.5016917"><ele>710.1999999999999</ele><time>2026-03-26T15:08:03.947Z</time></trkpt><trkpt lat="44.4283733" lon="8.5018"><ele>711.5999999999999</ele><time>2026-03-26T15:08:05.947Z</time></trkpt><trkpt lat="44.4282917" lon="8.5018933"><ele>713.0</ele><time>2026-03-26T15:08:07.947Z</time></trkpt><trkpt lat="44.428215" lon="8.5020017"><ele>713.0</ele><time>2026-03-26T15:08:09.947Z</time></trkpt><trkpt lat="44.4281667" lon="8.5020683"><ele>713.0</ele><time>2026-03-26T15:08:10.948Z</time></trkpt><trkpt lat="44.4281183" lon="8.502145"><ele>713.0</ele><time>2026-03-26T15:08:11.948Z</time></trkpt><trkpt lat="44.428065" lon="8.5022283"><ele>713.0</ele><time>2026-03-26T15:08:12.948Z</time></trkpt><trkpt lat="44.428015" lon="8.50229"><ele>713.0</ele><time>2026-03-26T15:08:13.947Z</time></trkpt><trkpt lat="44.42794" lon="8.50239"><ele>713.0</ele><time>2026-03-26T15:08:15.947Z</time></trkpt><trkpt lat="44.42784" lon="8.50245"><ele>714.5</ele><time>2026-03-26T15:08:17.947Z</time></trkpt><trkpt lat="44.4277817" lon="8.5024933"><ele>716.0</ele><time>2026-03-26T15:08:19.948Z</time></trkpt><trkpt lat="44.4277233" lon="8.50257"><ele>717.5</ele><time>2026-03-26T15:08:22.947Z</time></trkpt><trkpt lat="44.4276383" lon="8.5025733"><ele>719.0</ele><time>2026-03-26T15:08:25.948Z</time></trkpt><trkpt lat="44.427565" lon="8.502565"><ele>720.5</ele><time>2026-03-26T15:08:27.947Z</time></trkpt><trkpt lat="44.427475" lon="8.50254"><ele>722.0</ele><time>2026-03-26T15:08:29.947Z</time></trkpt><trkpt lat="44.427395" lon="8.5025083"><ele>722.0</ele><time>2026-03-26T15:08:31.947Z</time></trkpt><trkpt lat="44.4273317" lon="8.502485"><ele>722.0</ele><time>2026-03-26T15:08:33.948Z</time></trkpt><trkpt lat="44.427255" lon="8.50249"><ele>722.0</ele><time>2026-03-26T15:08:35.947Z</time></trkpt><trkpt lat="44.4271533" lon="8.5025217"><ele>722.0</ele><time>2026-03-26T15:08:37.947Z</time></trkpt><trkpt lat="44.4270883" lon="8.50255"><ele>722.0</ele><time>2026-03-26T15:08:38.947Z</time></trkpt><trkpt lat="44.4270083" lon="8.5025867"><ele>722.0</ele><time>2026-03-26T15:08:39.948Z</time></trkpt><trkpt lat="44.426925" lon="8.50261"><ele>722.6666666666666</ele><time>2026-03-26T15:08:40.948Z</time></trkpt><trkpt lat="44.4268333" lon="8.5026"><ele>723.3333333333333</ele><time>2026-03-26T15:08:41.947Z</time></trkpt><trkpt lat="44.426745" lon="8.50257"><ele>724.0</ele><time>2026-03-26T15:08:42.948Z</time></trkpt><trkpt lat="44.4266717" lon="8.50253"><ele>724.6666666666666</ele><time>2026-03-26T15:08:43.948Z</time></trkpt><trkpt lat="44.4265883" lon="8.5025"><ele>725.3333333333334</ele><time>2026-03-26T15:08:44.947Z</time></trkpt><trkpt lat="44.4265083" lon="8.502475"><ele>726.0</ele><time>2026-03-26T15:08:45.947Z</time></trkpt><trkpt lat="44.4264333" lon="8.502445"><ele>726.0</ele><time>2026-03-26T15:08:46.948Z</time></trkpt><trkpt lat="44.4263567" lon="8.502435"><ele>726.0</ele><time>2026-03-26T15:08:47.947Z</time></trkpt><trkpt lat="44.4262867" lon="8.5024533"><ele>726.0</ele><time>2026-03-26T15:08:48.948Z</time></trkpt><trkpt lat="44.426225" lon="8.50251"><ele>726.0</ele><time>2026-03-26T15:08:49.948Z</time></trkpt><trkpt lat="44.4261783" lon="8.5025933"><ele>726.0</ele><time>2026-03-26T15:08:50.947Z</time></trkpt><trkpt lat="44.4261367" lon="8.5027083"><ele>726.0</ele><time>2026-03-26T15:08:51.948Z</time></trkpt><trkpt lat="44.42609" lon="8.5028333"><ele>728.25</ele><time>2026-03-26T15:08:52.947Z</time></trkpt><trkpt lat="44.426065" lon="8.5029817"><ele>730.5</ele><time>2026-03-26T15:08:53.947Z</time></trkpt><trkpt lat="44.4260483" lon="8.503125"><ele>732.75</ele><time>2026-03-26T15:08:54.947Z</time></trkpt><trkpt lat="44.4260117" lon="8.5032783"><ele>735.0</ele><time>2026-03-26T15:08:55.947Z</time></trkpt><trkpt lat="44.42598" lon="8.50345"><ele>735.0</ele><time>2026-03-26T15:08:56.947Z</time></trkpt><trkpt lat="44.42596" lon="8.503585"><ele>735.0</ele><time>2026-03-26T15:08:57.947Z</time></trkpt><trkpt lat="44.4259333" lon="8.50372"><ele>735.0</ele><time>2026-03-26T15:08:58.947Z</time></trkpt><trkpt lat="44.4259" lon="8.50384"><ele>735.0</ele><time>2026-03-26T15:08:59.948Z</time></trkpt><trkpt lat="44.4258567" lon="8.5039483"><ele>735.0</ele><time>2026-03-26T15:09:00.947Z</time></trkpt><trkpt lat="44.4258167" lon="8.5040533"><ele>735.3333333333334</ele><time>2026-03-26T15:09:01.948Z</time></trkpt><trkpt lat="44.42577" lon="8.5041483"><ele>735.6666666666666</ele><time>2026-03-26T15:09:02.948Z</time></trkpt><trkpt lat="44.4257133" lon="8.5042467"><ele>736.0</ele><time>2026-03-26T15:09:03.947Z</time></trkpt><trkpt lat="44.4256567" lon="8.5043367"><ele>736.3333333333333</ele><time>2026-03-26T15:09:04.947Z</time></trkpt><trkpt lat="44.42561" lon="8.5044433"><ele>736.6666666666666</ele><time>2026-03-26T15:09:05.948Z</time></trkpt><trkpt lat="44.42556" lon="8.5045533"><ele>737.0</ele><time>2026-03-26T15:09:06.948Z</time></trkpt><trkpt lat="44.4255" lon="8.5046617"><ele>739.0</ele><time>2026-03-26T15:09:07.947Z</time></trkpt><trkpt lat="44.4254283" lon="8.5047833"><ele>741.0</ele><time>2026-03-26T15:09:08.948Z</time></trkpt><trkpt lat="44.4253567" lon="8.50493"><ele>743.0</ele><time>2026-03-26T15:09:09.947Z</time></trkpt><trkpt lat="44.4253033" lon="8.5050667"><ele>745.0</ele><time>2026-03-26T15:09:10.947Z</time></trkpt><trkpt lat="44.42527" lon="8.5052167"><ele>745.0</ele><time>2026-03-26T15:09:11.947Z</time></trkpt><trkpt lat="44.4252517" lon="8.505355"><ele>745.0</ele><time>2026-03-26T15:09:12.947Z</time></trkpt><trkpt lat="44.42524" lon="8.5054783"><ele>745.0</ele><time>2026-03-26T15:09:13.947Z</time></trkpt><trkpt lat="44.4252467" lon="8.505575"><ele>745.0</ele><time>2026-03-26T15:09:14.947Z</time></trkpt><trkpt lat="44.425225" lon="8.505725"><ele>745.0</ele><time>2026-03-26T15:09:16.948Z</time></trkpt><trkpt lat="44.425135" lon="8.5058067"><ele>745.1428571428571</ele><time>2026-03-26T15:09:18.948Z</time></trkpt><trkpt lat="44.4250733" lon="8.5058567"><ele>745.2857142857142</ele><time>2026-03-26T15:09:19.948Z</time></trkpt><trkpt lat="44.42502" lon="8.5059167"><ele>745.4285714285714</ele><time>2026-03-26T15:09:20.948Z</time></trkpt><trkpt lat="44.4249817" lon="8.5059867"><ele>745.5714285714286</ele><time>2026-03-26T15:09:21.948Z</time></trkpt><trkpt lat="44.424985" lon="8.506085"><ele>745.7142857142858</ele><time>2026-03-26T15:09:22.947Z</time></trkpt><trkpt lat="44.424985" lon="8.506195"><ele>745.8571428571429</ele><time>2026-03-26T15:09:23.947Z</time></trkpt><trkpt lat="44.4249767" lon="8.5063117"><ele>746.0</ele><time>2026-03-26T15:09:24.947Z</time></trkpt><trkpt lat="44.42495" lon="8.506435"><ele>746.8333333333333</ele><time>2026-03-26T15:09:25.947Z</time></trkpt><trkpt lat="44.4249283" lon="8.506565"><ele>747.6666666666666</ele><time>2026-03-26T15:09:26.948Z</time></trkpt><trkpt lat="44.4249167" lon="8.50669"><ele>748.5</ele><time>2026-03-26T15:09:27.948Z</time></trkpt><trkpt lat="44.4249" lon="8.5067917"><ele>749.3333333333334</ele><time>2026-03-26T15:09:28.948Z</time></trkpt><trkpt lat="44.4248867" lon="8.5069083"><ele>750.1666666666667</ele><time>2026-03-26T15:09:29.948Z</time></trkpt><trkpt lat="44.424865" lon="8.5070417"><ele>751.0</ele><time>2026-03-26T15:09:30.948Z</time></trkpt><trkpt lat="44.4248433" lon="8.5071733"><ele>752.0</ele><time>2026-03-26T15:09:31.948Z</time></trkpt><trkpt lat="44.42482" lon="8.5072817"><ele>753.0</ele><time>2026-03-26T15:09:32.948Z</time></trkpt><trkpt lat="44.4247683" lon="8.50738"><ele>754.0</ele><time>2026-03-26T15:09:33.947Z</time></trkpt><trkpt lat="44.4247117" lon="8.50749"><ele>755.0</ele><time>2026-03-26T15:09:34.948Z</time></trkpt><trkpt lat="44.4246667" lon="8.5076233"><ele>756.0</ele><time>2026-03-26T15:09:35.947Z</time></trkpt><trkpt lat="44.424635" lon="8.5077583"><ele>752.6666666666666</ele><time>2026-03-26T15:09:36.948Z</time></trkpt><trkpt lat="44.4246117" lon="8.50789"><ele>749.3333333333334</ele><time>2026-03-26T15:09:37.947Z</time></trkpt><trkpt lat="44.424605" lon="8.5080367"><ele>746.0</ele><time>2026-03-26T15:09:38.947Z</time></trkpt><trkpt lat="44.42459" lon="8.5081583"><ele>742.6666666666667</ele><time>2026-03-26T15:09:39.947Z</time></trkpt><trkpt lat="44.4245633" lon="8.508265"><ele>739.3333333333334</ele><time>2026-03-26T15:09:40.948Z</time></trkpt><trkpt lat="44.4245367" lon="8.5083683"><ele>736.0</ele><time>2026-03-26T15:09:41.947Z</time></trkpt><trkpt lat="44.4245117" lon="8.5084533"><ele>736.0</ele><time>2026-03-26T15:09:42.947Z</time></trkpt><trkpt lat="44.4244783" lon="8.5086267"><ele>736.0</ele><time>2026-03-26T15:09:44.948Z</time></trkpt><trkpt lat="44.424465" lon="8.5087317"><ele>736.0</ele><time>2026-03-26T15:09:45.948Z</time></trkpt><trkpt lat="44.42444" lon="8.508825"><ele>736.0</ele><time>2026-03-26T15:09:46.947Z</time></trkpt><trkpt lat="44.42441" lon="8.508905"><ele>736.0</ele><time>2026-03-26T15:09:47.947Z</time></trkpt><trkpt lat="44.424345" lon="8.50904"><ele>738.8333333333334</ele><time>2026-03-26T15:09:49.947Z</time></trkpt><trkpt lat="44.4243067" lon="8.5091167"><ele>741.6666666666667</ele><time>2026-03-26T15:09:50.948Z</time></trkpt><trkpt lat="44.424255" lon="8.509185"><ele>744.5</ele><time>2026-03-26T15:09:51.947Z</time></trkpt><trkpt lat="44.4241767" lon="8.5092533"><ele>747.3333333333334</ele><time>2026-03-26T15:09:52.947Z</time></trkpt><trkpt lat="44.4240883" lon="8.5093233"><ele>750.1666666666666</ele><time>2026-03-26T15:09:53.947Z</time></trkpt><trkpt lat="44.4239983" lon="8.5093783"><ele>753.0</ele><time>2026-03-26T15:09:54.947Z</time></trkpt><trkpt lat="44.4239217" lon="8.5094433"><ele>753.0</ele><time>2026-03-26T15:09:55.948Z</time></trkpt><trkpt lat="44.4238483" lon="8.5095183"><ele>753.0</ele><time>2026-03-26T15:09:56.948Z</time></trkpt><trkpt lat="44.4237633" lon="8.5095967"><ele>753.0</ele><time>2026-03-26T15:09:57.947Z</time></trkpt><trkpt lat="44.4236983" lon="8.50966"><ele>753.0</ele><time>2026-03-26T15:09:58.947Z</time></trkpt><trkpt lat="44.4236333" lon="8.5097367"><ele>753.0</ele><time>2026-03-26T15:09:59.948Z</time></trkpt><trkpt lat="44.4235983" lon="8.50982"><ele>753.0</ele><time>2026-03-26T15:10:00.947Z</time></trkpt><trkpt lat="44.4235467" lon="8.5099583"><ele>752.8</ele><time>2026-03-26T15:10:02.947Z</time></trkpt><trkpt lat="44.4235833" lon="8.5101167"><ele>752.5999999999999</ele><time>2026-03-26T15:10:04.948Z</time></trkpt><trkpt lat="44.4236383" lon="8.5102067"><ele>752.4000000000001</ele><time>2026-03-26T15:10:05.948Z</time></trkpt><trkpt lat="44.4236833" lon="8.5103083"><ele>752.2</ele><time>2026-03-26T15:10:06.947Z</time></trkpt><trkpt lat="44.4237167" lon="8.51041"><ele>752.0</ele><time>2026-03-26T15:10:07.948Z</time></trkpt><trkpt lat="44.4237233" lon="8.510525"><ele>752.0</ele><time>2026-03-26T15:10:08.948Z</time></trkpt><trkpt lat="44.4237" lon="8.5106417"><ele>752.0</ele><time>2026-03-26T15:10:09.947Z</time></trkpt><trkpt lat="44.4236633" lon="8.5107483"><ele>752.0</ele><time>2026-03-26T15:10:10.947Z</time></trkpt><trkpt lat="44.4236217" lon="8.51088"><ele>752.0</ele><time>2026-03-26T15:10:11.947Z</time></trkpt><trkpt lat="44.423575" lon="8.51101"><ele>752.0</ele><time>2026-03-26T15:10:12.948Z</time></trkpt><trkpt lat="44.4235367" lon="8.5111333"><ele>753.5</ele><time>2026-03-26T15:10:13.948Z</time></trkpt><trkpt lat="44.4235" lon="8.5112567"><ele>755.0</ele><time>2026-03-26T15:10:14.947Z</time></trkpt><trkpt lat="44.4234667" lon="8.5113533"><ele>756.5</ele><time>2026-03-26T15:10:15.948Z</time></trkpt><trkpt lat="44.4234217" lon="8.51143"><ele>758.0</ele><time>2026-03-26T15:10:16.947Z</time></trkpt><trkpt lat="44.42337" lon="8.5114917"><ele>759.5</ele><time>2026-03-26T15:10:17.947Z</time></trkpt><trkpt lat="44.4233" lon="8.5115317"><ele>761.0</ele><time>2026-03-26T15:10:18.948Z</time></trkpt><trkpt lat="44.42324" lon="8.5115867"><ele>761.0</ele><time>2026-03-26T15:10:19.948Z</time></trkpt><trkpt lat="44.4231883" lon="8.5116633"><ele>761.0</ele><time>2026-03-26T15:10:20.947Z</time></trkpt><trkpt lat="44.4231417" lon="8.51175"><ele>761.0</ele><time>2026-03-26T15:10:21.948Z</time></trkpt><trkpt lat="44.4230983" lon="8.51183"><ele>761.0</ele><time>2026-03-26T15:10:22.948Z</time></trkpt><trkpt lat="44.4230317" lon="8.5118617"><ele>761.0</ele><time>2026-03-26T15:10:23.948Z</time></trkpt><trkpt lat="44.42296" lon="8.5118767"><ele>761.0</ele><time>2026-03-26T15:10:24.948Z</time></trkpt><trkpt lat="44.42287" lon="8.5118583"><ele>759.1999999999999</ele><time>2026-03-26T15:10:25.947Z</time></trkpt><trkpt lat="44.42279" lon="8.511785"><ele>757.4</ele><time>2026-03-26T15:10:26.947Z</time></trkpt><trkpt lat="44.42272" lon="8.5116867"><ele>755.6</ele><time>2026-03-26T15:10:27.947Z</time></trkpt><trkpt lat="44.42265" lon="8.5115933"><ele>753.8</ele><time>2026-03-26T15:10:28.948Z</time></trkpt><trkpt lat="44.4226" lon="8.5115367"><ele>752.0</ele><time>2026-03-26T15:10:29.947Z</time></trkpt><trkpt lat="44.4224767" lon="8.5114367"><ele>752.0</ele><time>2026-03-26T15:10:31.947Z</time></trkpt><trkpt lat="44.4223933" lon="8.5114033"><ele>752.0</ele><time>2026-03-26T15:10:32.947Z</time></trkpt><trkpt lat="44.422315" lon="8.5113933"><ele>752.0</ele><time>2026-03-26T15:10:33.947Z</time></trkpt><trkpt lat="44.4222383" lon="8.511405"><ele>752.0</ele><time>2026-03-26T15:10:34.947Z</time></trkpt><trkpt lat="44.422165" lon="8.5114467"><ele>752.0</ele><time>2026-03-26T15:10:35.948Z</time></trkpt><trkpt lat="44.422105" lon="8.51151"><ele>752.0</ele><time>2026-03-26T15:10:36.947Z</time></trkpt><trkpt lat="44.4220433" lon="8.5115417"><ele>751.0</ele><time>2026-03-26T15:10:37.948Z</time></trkpt><trkpt lat="44.4219783" lon="8.511555"><ele>750.0</ele><time>2026-03-26T15:10:38.948Z</time></trkpt><trkpt lat="44.42191" lon="8.5115683"><ele>749.0</ele><time>2026-03-26T15:10:39.947Z</time></trkpt><trkpt lat="44.4218467" lon="8.5116067"><ele>748.0</ele><time>2026-03-26T15:10:40.948Z</time></trkpt><trkpt lat="44.4217717" lon="8.51167"><ele>747.0</ele><time>2026-03-26T15:10:41.947Z</time></trkpt><trkpt lat="44.4216883" lon="8.5117317"><ele>746.0</ele><time>2026-03-26T15:10:42.948Z</time></trkpt><trkpt lat="44.4216083" lon="8.51177"><ele>746.0</ele><time>2026-03-26T15:10:43.947Z</time></trkpt><trkpt lat="44.421515" lon="8.5117467"><ele>746.0</ele><time>2026-03-26T15:10:44.947Z</time></trkpt><trkpt lat="44.4214167" lon="8.5117167"><ele>746.0</ele><time>2026-03-26T15:10:45.948Z</time></trkpt><trkpt lat="44.4213283" lon="8.5116967"><ele>746.0</ele><time>2026-03-26T15:10:46.947Z</time></trkpt><trkpt lat="44.4212467" lon="8.511675"><ele>746.0</ele><time>2026-03-26T15:10:47.947Z</time></trkpt><trkpt lat="44.421165" lon="8.51164"><ele>743.5999999999999</ele><time>2026-03-26T15:10:48.948Z</time></trkpt><trkpt lat="44.4210817" lon="8.5115933"><ele>741.2</ele><time>2026-03-26T15:10:49.947Z</time></trkpt><trkpt lat="44.4209983" lon="8.511545"><ele>738.8</ele><time>2026-03-26T15:10:50.948Z</time></trkpt><trkpt lat="44.4209083" lon="8.5114917"><ele>736.4000000000001</ele><time>2026-03-26T15:10:51.947Z</time></trkpt><trkpt lat="44.42082" lon="8.5114467"><ele>734.0</ele><time>2026-03-26T15:10:52.947Z</time></trkpt><trkpt lat="44.4207367" lon="8.511395"><ele>734.0</ele><time>2026-03-26T15:10:53.948Z</time></trkpt><trkpt lat="44.4206583" lon="8.5113367"><ele>734.0</ele><time>2026-03-26T15:10:54.948Z</time></trkpt><trkpt lat="44.4205967" lon="8.5112467"><ele>734.0</ele><time>2026-03-26T15:10:55.948Z</time></trkpt><trkpt lat="44.4205433" lon="8.5111533"><ele>734.0</ele><time>2026-03-26T15:10:56.947Z</time></trkpt><trkpt lat="44.4204917" lon="8.5110467"><ele>734.0</ele><time>2026-03-26T15:10:57.948Z</time></trkpt><trkpt lat="44.4204317" lon="8.5109333"><ele>734.75</ele><time>2026-03-26T15:10:58.948Z</time></trkpt><trkpt lat="44.4203683" lon="8.5108"><ele>735.5</ele><time>2026-03-26T15:10:59.948Z</time></trkpt><trkpt lat="44.420295" lon="8.51066"><ele>736.25</ele><time>2026-03-26T15:11:00.947Z</time></trkpt><trkpt lat="44.420225" lon="8.5105217"><ele>737.0</ele><time>2026-03-26T15:11:01.947Z</time></trkpt><trkpt lat="44.4201617" lon="8.5103933"><ele>737.0</ele><time>2026-03-26T15:11:02.948Z</time></trkpt><trkpt lat="44.4201067" lon="8.5102467"><ele>737.0</ele><time>2026-03-26T15:11:03.947Z</time></trkpt><trkpt lat="44.4200383" lon="8.510115"><ele>737.0</ele><time>2026-03-26T15:11:04.948Z</time></trkpt><trkpt lat="44.419965" lon="8.51001"><ele>737.0</ele><time>2026-03-26T15:11:05.948Z</time></trkpt><trkpt lat="44.4199" lon="8.50991"><ele>737.0</ele><time>2026-03-26T15:11:06.947Z</time></trkpt><trkpt lat="44.4198283" lon="8.5098367"><ele>737.0</ele><time>2026-03-26T15:11:07.947Z</time></trkpt><trkpt lat="44.4197533" lon="8.5097667"><ele>737.0</ele><time>2026-03-26T15:11:08.948Z</time></trkpt><trkpt lat="44.4196867" lon="8.5097117"><ele>737.0</ele><time>2026-03-26T15:11:09.948Z</time></trkpt><trkpt lat="44.41963" lon="8.50966"><ele>737.0</ele><time>2026-03-26T15:11:10.948Z</time></trkpt><trkpt lat="44.4195767" lon="8.5095933"><ele>737.0</ele><time>2026-03-26T15:11:11.948Z</time></trkpt><trkpt lat="44.4195667" lon="8.50946"><ele>737.0</ele><time>2026-03-26T15:11:12.948Z</time></trkpt><trkpt lat="44.4195433" lon="8.5093133"><ele>736.0</ele><time>2026-03-26T15:11:13.947Z</time></trkpt><trkpt lat="44.4195133" lon="8.5091583"><ele>735.0</ele><time>2026-03-26T15:11:14.947Z</time></trkpt><trkpt lat="44.4194883" lon="8.5090217"><ele>734.0</ele><time>2026-03-26T15:11:15.947Z</time></trkpt><trkpt lat="44.4194467" lon="8.5088917"><ele>733.0</ele><time>2026-03-26T15:11:16.947Z</time></trkpt><trkpt lat="44.4194017" lon="8.5087683"><ele>732.0</ele><time>2026-03-26T15:11:17.947Z</time></trkpt><trkpt lat="44.4193483" lon="8.508655"><ele>732.0</ele><time>2026-03-26T15:11:18.947Z</time></trkpt><trkpt lat="44.4192833" lon="8.508565"><ele>732.0</ele><time>2026-03-26T15:11:19.948Z</time></trkpt><trkpt lat="44.4192117" lon="8.5084883"><ele>732.0</ele><time>2026-03-26T15:11:20.948Z</time></trkpt><trkpt lat="44.4191283" lon="8.5084083"><ele>732.0</ele><time>2026-03-26T15:11:21.947Z</time></trkpt><trkpt lat="44.4190483" lon="8.5083267"><ele>732.0</ele><time>2026-03-26T15:11:22.947Z</time></trkpt><trkpt lat="44.418975" lon="8.5082433"><ele>732.0</ele><time>2026-03-26T15:11:23.948Z</time></trkpt><trkpt lat="44.418905" lon="8.508155"><ele>732.0</ele><time>2026-03-26T15:11:24.947Z</time></trkpt><trkpt lat="44.4188433" lon="8.5080467"><ele>732.0</ele><time>2026-03-26T15:11:25.948Z</time></trkpt><trkpt lat="44.4188033" lon="8.5079367"><ele>732.0</ele><time>2026-03-26T15:11:26.948Z</time></trkpt><trkpt lat="44.4187767" lon="8.5078167"><ele>732.0</ele><time>2026-03-26T15:11:27.947Z</time></trkpt><trkpt lat="44.4187533" lon="8.5076783"><ele>732.8</ele><time>2026-03-26T15:11:28.948Z</time></trkpt><trkpt lat="44.4187283" lon="8.5075467"><ele>733.6</ele><time>2026-03-26T15:11:29.948Z</time></trkpt><trkpt lat="44.41867" lon="8.5074383"><ele>734.4</ele><time>2026-03-26T15:11:30.948Z</time></trkpt><trkpt lat="44.4186117" lon="8.5073317"><ele>735.1999999999999</ele><time>2026-03-26T15:11:31.947Z</time></trkpt><trkpt lat="44.4185417" lon="8.5072383"><ele>736.0</ele><time>2026-03-26T15:11:32.948Z</time></trkpt><trkpt lat="44.41845" lon="8.5071583"><ele>736.0</ele><time>2026-03-26T15:11:33.947Z</time></trkpt><trkpt lat="44.4183533" lon="8.5070917"><ele>736.0</ele><time>2026-03-26T15:11:34.947Z</time></trkpt><trkpt lat="44.418245" lon="8.5070367"><ele>736.0</ele><time>2026-03-26T15:11:35.948Z</time></trkpt><trkpt lat="44.41815" lon="8.5070017"><ele>736.0</ele><time>2026-03-26T15:11:36.948Z</time></trkpt><trkpt lat="44.4180567" lon="8.5069733"><ele>736.0</ele><time>2026-03-26T15:11:37.947Z</time></trkpt><trkpt lat="44.417975" lon="8.5069667"><ele>736.0</ele><time>2026-03-26T15:11:38.947Z</time></trkpt><trkpt lat="44.41789" lon="8.5069767"><ele>736.0</ele><time>2026-03-26T15:11:39.948Z</time></trkpt><trkpt lat="44.4178" lon="8.50699"><ele>736.0</ele><time>2026-03-26T15:11:40.947Z</time></trkpt><trkpt lat="44.4177067" lon="8.507015"><ele>736.0</ele><time>2026-03-26T15:11:41.947Z</time></trkpt><trkpt lat="44.4176117" lon="8.5070483"><ele>736.0</ele><time>2026-03-26T15:11:42.948Z</time></trkpt><trkpt lat="44.417525" lon="8.50709"><ele>736.0</ele><time>2026-03-26T15:11:43.948Z</time></trkpt><trkpt lat="44.417455" lon="8.5071183"><ele>736.0</ele><time>2026-03-26T15:11:44.948Z</time></trkpt><trkpt lat="44.41738" lon="8.507135"><ele>736.0</ele><time>2026-03-26T15:11:45.948Z</time></trkpt><trkpt lat="44.4173067" lon="8.5071683"><ele>736.0</ele><time>2026-03-26T15:11:46.947Z</time></trkpt><trkpt lat="44.41723" lon="8.5072067"><ele>736.0</ele><time>2026-03-26T15:11:47.947Z</time></trkpt><trkpt lat="44.4171483" lon="8.5072483"><ele>736.0</ele><time>2026-03-26T15:11:48.948Z</time></trkpt><trkpt lat="44.4170683" lon="8.5072817"><ele>734.8</ele><time>2026-03-26T15:11:49.948Z</time></trkpt><trkpt lat="44.4169867" lon="8.5072817"><ele>733.5999999999999</ele><time>2026-03-26T15:11:50.947Z</time></trkpt><trkpt lat="44.416895" lon="8.50725"><ele>732.4</ele><time>2026-03-26T15:11:51.947Z</time></trkpt><trkpt lat="44.4168" lon="8.50721"><ele>731.2</ele><time>2026-03-26T15:11:52.947Z</time></trkpt><trkpt lat="44.4166967" lon="8.5071683"><ele>730.0</ele><time>2026-03-26T15:11:53.948Z</time></trkpt><trkpt lat="44.4165883" lon="8.5071267"><ele>730.0</ele><time>2026-03-26T15:11:54.947Z</time></trkpt><trkpt lat="44.41649" lon="8.5070783"><ele>730.0</ele><time>2026-03-26T15:11:55.948Z</time></trkpt><trkpt lat="44.416405" lon="8.50703"><ele>730.0</ele><time>2026-03-26T15:11:56.948Z</time></trkpt><trkpt lat="44.4163117" lon="8.506985"><ele>730.0</ele><time>2026-03-26T15:11:57.947Z</time></trkpt><trkpt lat="44.4162283" lon="8.5069283"><ele>730.0</ele><time>2026-03-26T15:11:58.947Z</time></trkpt><trkpt lat="44.4161433" lon="8.5068767"><ele>728.0</ele><time>2026-03-26T15:11:59.948Z</time></trkpt><trkpt lat="44.41605" lon="8.50681"><ele>726.0</ele><time>2026-03-26T15:12:00.947Z</time></trkpt><trkpt lat="44.4159633" lon="8.5067483"><ele>724.0</ele><time>2026-03-26T15:12:01.947Z</time></trkpt><trkpt lat="44.4158817" lon="8.5066683"><ele>722.0</ele><time>2026-03-26T15:12:02.947Z</time></trkpt><trkpt lat="44.4158067" lon="8.50659"><ele>720.0</ele><time>2026-03-26T15:12:03.948Z</time></trkpt><trkpt lat="44.415725" lon="8.5065267"><ele>720.0</ele><time>2026-03-26T15:12:04.948Z</time></trkpt><trkpt lat="44.4156433" lon="8.5064617"><ele>720.0</ele><time>2026-03-26T15:12:05.947Z</time></trkpt><trkpt lat="44.415565" lon="8.50639"><ele>720.0</ele><time>2026-03-26T15:12:06.948Z</time></trkpt><trkpt lat="44.4155" lon="8.50631"><ele>720.0</ele><time>2026-03-26T15:12:07.947Z</time></trkpt><trkpt lat="44.41544" lon="8.506225"><ele>720.0</ele><time>2026-03-26T15:12:08.947Z</time></trkpt><trkpt lat="44.4154" lon="8.5061367"><ele>720.0</ele><time>2026-03-26T15:12:09.947Z</time></trkpt><trkpt lat="44.4153667" lon="8.5060583"><ele>719.6</ele><time>2026-03-26T15:12:10.948Z</time></trkpt><trkpt lat="44.41529" lon="8.5059583"><ele>719.2</ele><time>2026-03-26T15:12:12.948Z</time></trkpt><trkpt lat="44.4151717" lon="8.5059167"><ele>718.8</ele><time>2026-03-26T15:12:14.948Z</time></trkpt><trkpt lat="44.4150733" lon="8.505895"><ele>718.4</ele><time>2026-03-26T15:12:16.947Z</time></trkpt><trkpt lat="44.414985" lon="8.5057967"><ele>718.0</ele><time>2026-03-26T15:12:18.948Z</time></trkpt><trkpt lat="44.4149067" lon="8.5056867"><ele>718.0</ele><time>2026-03-26T15:12:20.947Z</time></trkpt><trkpt lat="44.4148033" lon="8.5055933"><ele>718.0</ele><time>2026-03-26T15:12:22.948Z</time></trkpt><trkpt lat="44.414755" lon="8.505535"><ele>718.0</ele><time>2026-03-26T15:12:23.947Z</time></trkpt><trkpt lat="44.4147033" lon="8.50548"><ele>718.0</ele><time>2026-03-26T15:12:24.948Z</time></trkpt><trkpt lat="44.41459" lon="8.5053933"><ele>718.0</ele><time>2026-03-26T15:12:26.948Z</time></trkpt><trkpt lat="44.41453" lon="8.5053533"><ele>718.0</ele><time>2026-03-26T15:12:27.948Z</time></trkpt><trkpt lat="44.4144617" lon="8.5053133"><ele>718.3333333333334</ele><time>2026-03-26T15:12:28.948Z</time></trkpt><trkpt lat="44.4143983" lon="8.50528"><ele>718.6666666666667</ele><time>2026-03-26T15:12:29.947Z</time></trkpt><trkpt lat="44.414335" lon="8.5052367"><ele>719.0</ele><time>2026-03-26T15:12:30.948Z</time></trkpt><trkpt lat="44.414265" lon="8.505185"><ele>719.3333333333334</ele><time>2026-03-26T15:12:31.947Z</time></trkpt><trkpt lat="44.4141883" lon="8.505135"><ele>719.6666666666666</ele><time>2026-03-26T15:12:32.947Z</time></trkpt><trkpt lat="44.4141167" lon="8.5050917"><ele>720.0</ele><time>2026-03-26T15:12:33.947Z</time></trkpt><trkpt lat="44.414045" lon="8.5050467"><ele>720.0</ele><time>2026-03-26T15:12:34.947Z</time></trkpt><trkpt lat="44.41399" lon="8.505"><ele>720.0</ele><time>2026-03-26T15:12:35.947Z</time></trkpt><trkpt lat="44.4139317" lon="8.504955"><ele>720.0</ele><time>2026-03-26T15:12:36.948Z</time></trkpt><trkpt lat="44.4138583" lon="8.5049183"><ele>720.0</ele><time>2026-03-26T15:12:37.947Z</time></trkpt><trkpt lat="44.4137783" lon="8.5048817"><ele>720.0</ele><time>2026-03-26T15:12:38.947Z</time></trkpt><trkpt lat="44.4137033" lon="8.5048483"><ele>720.0</ele><time>2026-03-26T15:12:39.947Z</time></trkpt><trkpt lat="44.413595" lon="8.5047867"><ele>718.8333333333334</ele><time>2026-03-26T15:12:41.947Z</time></trkpt><trkpt lat="44.413485" lon="8.5047333"><ele>717.6666666666666</ele><time>2026-03-26T15:12:43.947Z</time></trkpt><trkpt lat="44.4134017" lon="8.5046883"><ele>716.5</ele><time>2026-03-26T15:12:45.948Z</time></trkpt><trkpt lat="44.4133283" lon="8.5046467"><ele>715.3333333333333</ele><time>2026-03-26T15:12:48.948Z</time></trkpt><trkpt lat="44.413265" lon="8.5046233"><ele>714.1666666666666</ele><time>2026-03-26T15:12:53.948Z</time></trkpt><trkpt lat="44.4131917" lon="8.5046133"><ele>713.0</ele><time>2026-03-26T15:12:56.948Z</time></trkpt><trkpt lat="44.4131167" lon="8.5045733"><ele>713.0</ele><time>2026-03-26T15:12:59.948Z</time></trkpt><trkpt lat="44.4130133" lon="8.5045783"><ele>713.0</ele><time>2026-03-26T15:13:02.948Z</time></trkpt><trkpt lat="44.4129283" lon="8.5045633"><ele>713.0</ele><time>2026-03-26T15:13:04.948Z</time></trkpt><trkpt lat="44.4127983" lon="8.5045483"><ele>713.0</ele><time>2026-03-26T15:13:06.948Z</time></trkpt><trkpt lat="44.4127283" lon="8.504515"><ele>713.0</ele><time>2026-03-26T15:13:07.948Z</time></trkpt><trkpt lat="44.412665" lon="8.504485"><ele>711.5</ele><time>2026-03-26T15:13:08.948Z</time></trkpt><trkpt lat="44.4126017" lon="8.50446"><ele>710.0</ele><time>2026-03-26T15:13:09.947Z</time></trkpt><trkpt lat="44.4125067" lon="8.50445"><ele>708.5</ele><time>2026-03-26T15:13:11.947Z</time></trkpt><trkpt lat="44.4124083" lon="8.50444"><ele>707.0</ele><time>2026-03-26T15:13:13.948Z</time></trkpt><trkpt lat="44.4123217" lon="8.5044383"><ele>705.5</ele><time>2026-03-26T15:13:15.948Z</time></trkpt><trkpt lat="44.4122267" lon="8.5044267"><ele>704.0</ele><time>2026-03-26T15:13:17.948Z</time></trkpt><trkpt lat="44.4121483" lon="8.5043917"><ele>702.1666666666666</ele><time>2026-03-26T15:13:19.947Z</time></trkpt><trkpt lat="44.4120717" lon="8.5043633"><ele>700.3333333333333</ele><time>2026-03-26T15:13:21.947Z</time></trkpt><trkpt lat="44.411995" lon="8.504355"><ele>698.5</ele><time>2026-03-26T15:13:23.948Z</time></trkpt><trkpt lat="44.4119283" lon="8.5043267"><ele>696.6666666666666</ele><time>2026-03-26T15:13:25.948Z</time></trkpt><trkpt lat="44.4118333" lon="8.5042683"><ele>694.8333333333334</ele><time>2026-03-26T15:13:28.948Z</time></trkpt><trkpt lat="44.4117367" lon="8.50423"><ele>693.0</ele><time>2026-03-26T15:13:30.948Z</time></trkpt><trkpt lat="44.4116467" lon="8.5041917"><ele>693.0</ele><time>2026-03-26T15:13:32.947Z</time></trkpt><trkpt lat="44.4115633" lon="8.5041467"><ele>693.0</ele><time>2026-03-26T15:13:34.947Z</time></trkpt><trkpt lat="44.41148" lon="8.50408"><ele>693.0</ele><time>2026-03-26T15:13:36.948Z</time></trkpt><trkpt lat="44.4113817" lon="8.5039967"><ele>693.0</ele><time>2026-03-26T15:13:38.948Z</time></trkpt><trkpt lat="44.4113183" lon="8.5039667"><ele>693.0</ele><time>2026-03-26T15:13:39.948Z</time></trkpt><trkpt lat="44.4112267" lon="8.5039267"><ele>690.0</ele><time>2026-03-26T15:13:41.947Z</time></trkpt><trkpt lat="44.4111517" lon="8.5039217"><ele>687.0</ele><time>2026-03-26T15:13:43.948Z</time></trkpt><trkpt lat="44.4110817" lon="8.503905"><ele>684.0</ele><time>2026-03-26T15:13:45.947Z</time></trkpt><trkpt lat="44.4110067" lon="8.5039"><ele>681.0</ele><time>2026-03-26T15:13:47.948Z</time></trkpt><trkpt lat="44.4109267" lon="8.5039067"><ele>678.0</ele><time>2026-03-26T15:13:49.947Z</time></trkpt><trkpt lat="44.4108333" lon="8.503885"><ele>675.0</ele><time>2026-03-26T15:13:51.948Z</time></trkpt><trkpt lat="44.4107433" lon="8.5038717"><ele>675.0</ele><time>2026-03-26T15:13:53.948Z</time></trkpt><trkpt lat="44.4106517" lon="8.5038583"><ele>675.0</ele><time>2026-03-26T15:13:55.947Z</time></trkpt><trkpt lat="44.410565" lon="8.5038467"><ele>675.0</ele><time>2026-03-26T15:13:57.947Z</time></trkpt><trkpt lat="44.4104867" lon="8.5038267"><ele>675.0</ele><time>2026-03-26T15:13:59.948Z</time></trkpt><trkpt lat="44.4103933" lon="8.503785"><ele>675.0</ele><time>2026-03-26T15:14:01.947Z</time></trkpt><trkpt lat="44.4103067" lon="8.5037333"><ele>671.5</ele><time>2026-03-26T15:14:03.947Z</time></trkpt><trkpt lat="44.4102533" lon="8.5036683"><ele>668.0</ele><time>2026-03-26T15:14:05.947Z</time></trkpt><trkpt lat="44.4101833" lon="8.5036233"><ele>664.5</ele><time>2026-03-26T15:14:07.948Z</time></trkpt><trkpt lat="44.410085" lon="8.5035767"><ele>661.0</ele><time>2026-03-26T15:14:09.948Z</time></trkpt><trkpt lat="44.4100017" lon="8.5035567"><ele>657.5</ele><time>2026-03-26T15:14:11.947Z</time></trkpt><trkpt lat="44.4099283" lon="8.5035483"><ele>654.0</ele><time>2026-03-26T15:14:13.948Z</time></trkpt><trkpt lat="44.40986" lon="8.5035467"><ele>654.0</ele><time>2026-03-26T15:14:15.948Z</time></trkpt><trkpt lat="44.4097933" lon="8.5035183"><ele>654.0</ele><time>2026-03-26T15:14:17.947Z</time></trkpt><trkpt lat="44.4097167" lon="8.5034983"><ele>654.0</ele><time>2026-03-26T15:14:19.948Z</time></trkpt><trkpt lat="44.4096267" lon="8.5034433"><ele>654.0</ele><time>2026-03-26T15:14:21.947Z</time></trkpt><trkpt lat="44.4095317" lon="8.503405"><ele>654.0</ele><time>2026-03-26T15:14:23.947Z</time></trkpt><trkpt lat="44.4094367" lon="8.503395"><ele>654.0</ele><time>2026-03-26T15:14:26.947Z</time></trkpt><trkpt lat="44.40937" lon="8.5033917"><ele>650.8333333333334</ele><time>2026-03-26T15:14:28.947Z</time></trkpt><trkpt lat="44.4092883" lon="8.50339"><ele>647.6666666666666</ele><time>2026-03-26T15:14:30.947Z</time></trkpt><trkpt lat="44.40919" lon="8.5034"><ele>644.5</ele><time>2026-03-26T15:14:32.947Z</time></trkpt><trkpt lat="44.4091083" lon="8.5034183"><ele>641.3333333333333</ele><time>2026-03-26T15:14:34.947Z</time></trkpt><trkpt lat="44.4090267" lon="8.5034367"><ele>638.1666666666666</ele><time>2026-03-26T15:14:37.947Z</time></trkpt><trkpt lat="44.4089617" lon="8.503465"><ele>635.0</ele><time>2026-03-26T15:14:39.948Z</time></trkpt><trkpt lat="44.40887" lon="8.503485"><ele>632.2</ele><time>2026-03-26T15:14:41.947Z</time></trkpt><trkpt lat="44.4087367" lon="8.5034983"><ele>629.4</ele><time>2026-03-26T15:14:43.948Z</time></trkpt><trkpt lat="44.408655" lon="8.5034783"><ele>626.6</ele><time>2026-03-26T15:14:44.948Z</time></trkpt><trkpt lat="44.408555" lon="8.50345"><ele>623.8</ele><time>2026-03-26T15:14:45.948Z</time></trkpt><trkpt lat="44.4084383" lon="8.50344"><ele>621.0</ele><time>2026-03-26T15:14:46.948Z</time></trkpt><trkpt lat="44.4082983" lon="8.5034417"><ele>621.0</ele><time>2026-03-26T15:14:47.947Z</time></trkpt><trkpt lat="44.4081517" lon="8.5034417"><ele>621.0</ele><time>2026-03-26T15:14:48.948Z</time></trkpt><trkpt lat="44.408015" lon="8.503435"><ele>621.0</ele><time>2026-03-26T15:14:49.947Z</time></trkpt><trkpt lat="44.4078817" lon="8.5034317"><ele>621.0</ele><time>2026-03-26T15:14:50.948Z</time></trkpt><trkpt lat="44.40775" lon="8.503425"><ele>620.5</ele><time>2026-03-26T15:14:51.948Z</time></trkpt><trkpt lat="44.407635" lon="8.5034117"><ele>620.0</ele><time>2026-03-26T15:14:52.947Z</time></trkpt><trkpt lat="44.4075117" lon="8.5033833"><ele>619.5</ele><time>2026-03-26T15:14:53.948Z</time></trkpt><trkpt lat="44.40741" lon="8.5033233"><ele>619.0</ele><time>2026-03-26T15:14:54.948Z</time></trkpt><trkpt lat="44.4073233" lon="8.50322"><ele>619.0</ele><time>2026-03-26T15:14:55.947Z</time></trkpt><trkpt lat="44.4072433" lon="8.5030967"><ele>619.0</ele><time>2026-03-26T15:14:56.947Z</time></trkpt><trkpt lat="44.407185" lon="8.5029583"><ele>619.0</ele><time>2026-03-26T15:14:57.947Z</time></trkpt><trkpt lat="44.4071217" lon="8.5028283"><ele>619.0</ele><time>2026-03-26T15:14:58.947Z</time></trkpt><trkpt lat="44.40705" lon="8.50272"><ele>617.4</ele><time>2026-03-26T15:14:59.948Z</time></trkpt><trkpt lat="44.4069667" lon="8.50265"><ele>615.8</ele><time>2026-03-26T15:15:00.947Z</time></trkpt><trkpt lat="44.4068667" lon="8.5026"><ele>614.2</ele><time>2026-03-26T15:15:01.947Z</time></trkpt><trkpt lat="44.4067533" lon="8.5025667"><ele>612.6</ele><time>2026-03-26T15:15:02.947Z</time></trkpt><trkpt lat="44.4066333" lon="8.502545"><ele>611.0</ele><time>2026-03-26T15:15:03.947Z</time></trkpt><trkpt lat="44.40654" lon="8.5025167"><ele>611.0</ele><time>2026-03-26T15:15:04.947Z</time></trkpt><trkpt lat="44.4064517" lon="8.5024717"><ele>611.0</ele><time>2026-03-26T15:15:05.947Z</time></trkpt><trkpt lat="44.40637" lon="8.5024317"><ele>611.0</ele><time>2026-03-26T15:15:06.948Z</time></trkpt><trkpt lat="44.4062833" lon="8.5024083"><ele>611.0</ele><time>2026-03-26T15:15:07.947Z</time></trkpt><trkpt lat="44.406215" lon="8.5024067"><ele>611.0</ele><time>2026-03-26T15:15:08.948Z</time></trkpt><trkpt lat="44.4061383" lon="8.502415"><ele>611.0</ele><time>2026-03-26T15:15:09.948Z</time></trkpt><trkpt lat="44.40606" lon="8.50243"><ele>609.2</ele><time>2026-03-26T15:15:10.947Z</time></trkpt><trkpt lat="44.4059833" lon="8.5024433"><ele>607.4000000000001</ele><time>2026-03-26T15:15:11.948Z</time></trkpt><trkpt lat="44.405895" lon="8.5024583"><ele>605.6</ele><time>2026-03-26T15:15:12.947Z</time></trkpt><trkpt lat="44.4058067" lon="8.5024683"><ele>603.8000000000001</ele><time>2026-03-26T15:15:13.947Z</time></trkpt><trkpt lat="44.4057067" lon="8.5025017"><ele>602.0</ele><time>2026-03-26T15:15:14.948Z</time></trkpt><trkpt lat="44.40561" lon="8.5025333"><ele>602.0</ele><time>2026-03-26T15:15:15.947Z</time></trkpt><trkpt lat="44.4055217" lon="8.5025583"><ele>602.0</ele><time>2026-03-26T15:15:16.947Z</time></trkpt><trkpt lat="44.4054433" lon="8.5026"><ele>602.0</ele><time>2026-03-26T15:15:17.947Z</time></trkpt><trkpt lat="44.4053567" lon="8.5026333"><ele>602.0</ele><time>2026-03-26T15:15:18.947Z</time></trkpt><trkpt lat="44.4052617" lon="8.502655"><ele>602.0</ele><time>2026-03-26T15:15:19.948Z</time></trkpt><trkpt lat="44.4051667" lon="8.5026783"><ele>600.3333333333333</ele><time>2026-03-26T15:15:20.948Z</time></trkpt><trkpt lat="44.40507" lon="8.5027017"><ele>598.6666666666666</ele><time>2026-03-26T15:15:21.947Z</time></trkpt><trkpt lat="44.4049817" lon="8.5026967"><ele>597.0</ele><time>2026-03-26T15:15:22.947Z</time></trkpt><trkpt lat="44.4048933" lon="8.502685"><ele>595.3333333333334</ele><time>2026-03-26T15:15:23.948Z</time></trkpt><trkpt lat="44.404825" lon="8.5026217"><ele>593.6666666666667</ele><time>2026-03-26T15:15:24.947Z</time></trkpt><trkpt lat="44.4047533" lon="8.50255"><ele>592.0</ele><time>2026-03-26T15:15:25.948Z</time></trkpt><trkpt lat="44.4046817" lon="8.5024717"><ele>589.0</ele><time>2026-03-26T15:15:26.948Z</time></trkpt><trkpt lat="44.404595" lon="8.5024017"><ele>586.0</ele><time>2026-03-26T15:15:27.948Z</time></trkpt><trkpt lat="44.404495" lon="8.5023317"><ele>583.0</ele><time>2026-03-26T15:15:28.948Z</time></trkpt><trkpt lat="44.4043883" lon="8.50228"><ele>580.0</ele><time>2026-03-26T15:15:29.948Z</time></trkpt><trkpt lat="44.40431" lon="8.5022333"><ele>577.0</ele><time>2026-03-26T15:15:30.948Z</time></trkpt><trkpt lat="44.4042267" lon="8.5021967"><ele>577.0</ele><time>2026-03-26T15:15:31.948Z</time></trkpt><trkpt lat="44.4041483" lon="8.5021667"><ele>577.0</ele><time>2026-03-26T15:15:32.947Z</time></trkpt><trkpt lat="44.4040733" lon="8.502145"><ele>577.0</ele><time>2026-03-26T15:15:33.947Z</time></trkpt><trkpt lat="44.403995" lon="8.5021317"><ele>577.0</ele><time>2026-03-26T15:15:34.948Z</time></trkpt><trkpt lat="44.4039233" lon="8.5021067"><ele>577.0</ele><time>2026-03-26T15:15:35.947Z</time></trkpt><trkpt lat="44.40384" lon="8.50208"><ele>577.0</ele><time>2026-03-26T15:15:36.947Z</time></trkpt><trkpt lat="44.4037633" lon="8.5020683"><ele>576.4</ele><time>2026-03-26T15:15:37.948Z</time></trkpt><trkpt lat="44.40367" lon="8.5020683"><ele>575.8000000000001</ele><time>2026-03-26T15:15:38.948Z</time></trkpt><trkpt lat="44.40358" lon="8.5020817"><ele>575.2</ele><time>2026-03-26T15:15:39.949Z</time></trkpt><trkpt lat="44.4034917" lon="8.50209"><ele>574.6</ele><time>2026-03-26T15:15:40.948Z</time></trkpt><trkpt lat="44.4034017" lon="8.50209"><ele>574.0</ele><time>2026-03-26T15:15:41.949Z</time></trkpt><trkpt lat="44.4033033" lon="8.5020933"><ele>574.0</ele><time>2026-03-26T15:15:42.948Z</time></trkpt><trkpt lat="44.4032017" lon="8.502095"><ele>574.0</ele><time>2026-03-26T15:15:43.948Z</time></trkpt><trkpt lat="44.4031083" lon="8.5021033"><ele>574.0</ele><time>2026-03-26T15:15:44.949Z</time></trkpt><trkpt lat="44.4030167" lon="8.5021017"><ele>574.0</ele><time>2026-03-26T15:15:45.949Z</time></trkpt><trkpt lat="44.402945" lon="8.5020817"><ele>574.0</ele><time>2026-03-26T15:15:46.949Z</time></trkpt><trkpt lat="44.4028633" lon="8.5020583"><ele>574.0</ele><time>2026-03-26T15:15:47.948Z</time></trkpt><trkpt lat="44.40279" lon="8.5020383"><ele>571.6</ele><time>2026-03-26T15:15:48.948Z</time></trkpt><trkpt lat="44.40269" lon="8.50205"><ele>569.2</ele><time>2026-03-26T15:15:50.949Z</time></trkpt><trkpt lat="44.4025883" lon="8.50211"><ele>566.8000000000001</ele><time>2026-03-26T15:15:57.948Z</time></trkpt><trkpt lat="44.4025033" lon="8.5021983"><ele>564.4</ele><time>2026-03-26T15:15:58.948Z</time></trkpt><trkpt lat="44.4024267" lon="8.50229"><ele>562.0</ele><time>2026-03-26T15:15:59.948Z</time></trkpt><trkpt lat="44.402355" lon="8.502385"><ele>562.0</ele><time>2026-03-26T15:16:00.949Z</time></trkpt><trkpt lat="44.4022717" lon="8.50249"><ele>562.0</ele><time>2026-03-26T15:16:01.948Z</time></trkpt><trkpt lat="44.4021967" lon="8.502605"><ele>562.0</ele><time>2026-03-26T15:16:02.949Z</time></trkpt><trkpt lat="44.4021233" lon="8.50273"><ele>562.0</ele><time>2026-03-26T15:16:03.949Z</time></trkpt><trkpt lat="44.4020483" lon="8.5028533"><ele>559.2</ele><time>2026-03-26T15:16:04.949Z</time></trkpt><trkpt lat="44.401985" lon="8.5029933"><ele>556.4000000000001</ele><time>2026-03-26T15:16:05.949Z</time></trkpt><trkpt lat="44.4019183" lon="8.5031233"><ele>553.5999999999999</ele><time>2026-03-26T15:16:06.948Z</time></trkpt><trkpt lat="44.4018633" lon="8.5032383"><ele>550.8</ele><time>2026-03-26T15:16:07.949Z</time></trkpt><trkpt lat="44.401805" lon="8.5033417"><ele>548.0</ele><time>2026-03-26T15:16:08.949Z</time></trkpt><trkpt lat="44.4017383" lon="8.50343"><ele>548.0</ele><time>2026-03-26T15:16:09.948Z</time></trkpt><trkpt lat="44.4016733" lon="8.5035217"><ele>548.0</ele><time>2026-03-26T15:16:10.949Z</time></trkpt><trkpt lat="44.4016033" lon="8.5036217"><ele>548.0</ele><time>2026-03-26T15:16:11.949Z</time></trkpt><trkpt lat="44.4015333" lon="8.5037267"><ele>548.0</ele><time>2026-03-26T15:16:12.948Z</time></trkpt><trkpt lat="44.4014667" lon="8.5038183"><ele>548.0</ele><time>2026-03-26T15:16:13.948Z</time></trkpt><trkpt lat="44.401405" lon="8.5038933"><ele>544.8</ele><time>2026-03-26T15:16:14.948Z</time></trkpt><trkpt lat="44.4013283" lon="8.5039767"><ele>541.5999999999999</ele><time>2026-03-26T15:16:15.948Z</time></trkpt><trkpt lat="44.4012333" lon="8.5040433"><ele>538.4000000000001</ele><time>2026-03-26T15:16:16.948Z</time></trkpt><trkpt lat="44.4011467" lon="8.5040983"><ele>535.2</ele><time>2026-03-26T15:16:17.949Z</time></trkpt><trkpt lat="44.4010633" lon="8.5041517"><ele>532.0</ele><time>2026-03-26T15:16:18.949Z</time></trkpt><trkpt lat="44.400985" lon="8.504215"><ele>532.0</ele><time>2026-03-26T15:16:19.948Z</time></trkpt><trkpt lat="44.4009233" lon="8.5042967"><ele>532.0</ele><time>2026-03-26T15:16:20.948Z</time></trkpt><trkpt lat="44.40087" lon="8.5044067"><ele>532.0</ele><time>2026-03-26T15:16:21.948Z</time></trkpt><trkpt lat="44.400815" lon="8.5045433"><ele>532.0</ele><time>2026-03-26T15:16:22.948Z</time></trkpt><trkpt lat="44.4007667" lon="8.5046933"><ele>532.0</ele><time>2026-03-26T15:16:23.949Z</time></trkpt><trkpt lat="44.40071" lon="8.5048467"><ele>532.0</ele><time>2026-03-26T15:16:24.948Z</time></trkpt><trkpt lat="44.4006567" lon="8.504995"><ele>532.0</ele><time>2026-03-26T15:16:25.949Z</time></trkpt><trkpt lat="44.4005933" lon="8.5051067"><ele>532.0</ele><time>2026-03-26T15:16:26.949Z</time></trkpt><trkpt lat="44.4005283" lon="8.5051983"><ele>532.0</ele><time>2026-03-26T15:16:27.949Z</time></trkpt><trkpt lat="44.4004467" lon="8.5052733"><ele>532.0</ele><time>2026-03-26T15:16:28.949Z</time></trkpt><trkpt lat="44.4003717" lon="8.50533"><ele>528.1666666666667</ele><time>2026-03-26T15:16:29.948Z</time></trkpt><trkpt lat="44.4003067" lon="8.5054"><ele>524.3333333333334</ele><time>2026-03-26T15:16:30.949Z</time></trkpt><trkpt lat="44.4002483" lon="8.5054917"><ele>520.5</ele><time>2026-03-26T15:16:31.948Z</time></trkpt><trkpt lat="44.400215" lon="8.505575"><ele>516.6666666666666</ele><time>2026-03-26T15:16:32.949Z</time></trkpt><trkpt lat="44.4001983" lon="8.5056817"><ele>512.8333333333333</ele><time>2026-03-26T15:16:33.948Z</time></trkpt><trkpt lat="44.4002033" lon="8.5057783"><ele>509.0</ele><time>2026-03-26T15:16:34.949Z</time></trkpt><trkpt lat="44.400245" lon="8.5058683"><ele>508.99999999999994</ele><time>2026-03-26T15:16:35.948Z</time></trkpt><trkpt lat="44.400295" lon="8.50597"><ele>509.0</ele><time>2026-03-26T15:16:36.949Z</time></trkpt><trkpt lat="44.40035" lon="8.5060533"><ele>509.0</ele><time>2026-03-26T15:16:37.949Z</time></trkpt><trkpt lat="44.4004067" lon="8.50615"><ele>509.0</ele><time>2026-03-26T15:16:38.948Z</time></trkpt><trkpt lat="44.40046" lon="8.5062383"><ele>508.99999999999994</ele><time>2026-03-26T15:16:39.949Z</time></trkpt><trkpt lat="44.40052" lon="8.5063483"><ele>509.0</ele><time>2026-03-26T15:16:40.948Z</time></trkpt><trkpt lat="44.4005717" lon="8.5064733"><ele>508.79999999999995</ele><time>2026-03-26T15:16:41.949Z</time></trkpt><trkpt lat="44.400605" lon="8.5066033"><ele>508.59999999999997</ele><time>2026-03-26T15:16:42.949Z</time></trkpt><trkpt lat="44.4006183" lon="8.506745"><ele>508.4</ele><time>2026-03-26T15:16:43.948Z</time></trkpt><trkpt lat="44.400605" lon="8.5068967"><ele>508.2</ele><time>2026-03-26T15:16:44.949Z</time></trkpt><trkpt lat="44.400625" lon="8.5070283"><ele>508.0</ele><time>2026-03-26T15:16:45.948Z</time></trkpt><trkpt lat="44.40065" lon="8.507175"><ele>508.0</ele><time>2026-03-26T15:16:46.948Z</time></trkpt><trkpt lat="44.400685" lon="8.5073217"><ele>507.99999999999994</ele><time>2026-03-26T15:16:47.948Z</time></trkpt><trkpt lat="44.400705" lon="8.507475"><ele>507.99999999999994</ele><time>2026-03-26T15:16:48.949Z</time></trkpt><trkpt lat="44.4007117" lon="8.5076233"><ele>508.0</ele><time>2026-03-26T15:16:49.949Z</time></trkpt><trkpt lat="44.4007117" lon="8.5077733"><ele>508.0</ele><time>2026-03-26T15:16:50.949Z</time></trkpt><trkpt lat="44.4006967" lon="8.5079167"><ele>506.79999999999995</ele><time>2026-03-26T15:16:51.949Z</time></trkpt><trkpt lat="44.4006733" lon="8.50808"><ele>505.59999999999997</ele><time>2026-03-26T15:16:52.948Z</time></trkpt><trkpt lat="44.4006417" lon="8.5082333"><ele>504.40000000000003</ele><time>2026-03-26T15:16:53.949Z</time></trkpt><trkpt lat="44.40062" lon="8.50838"><ele>503.20000000000005</ele><time>2026-03-26T15:16:54.948Z</time></trkpt><trkpt lat="44.400595" lon="8.50852"><ele>502.0</ele><time>2026-03-26T15:16:55.948Z</time></trkpt><trkpt lat="44.4005767" lon="8.508635"><ele>500.6</ele><time>2026-03-26T15:16:56.949Z</time></trkpt><trkpt lat="44.4005717" lon="8.5087517"><ele>499.20000000000005</ele><time>2026-03-26T15:16:57.948Z</time></trkpt><trkpt lat="44.4005533" lon="8.50887"><ele>497.8</ele><time>2026-03-26T15:16:58.949Z</time></trkpt><trkpt lat="44.4005117" lon="8.5090533"><ele>496.4</ele><time>2026-03-26T15:17:00.949Z</time></trkpt><trkpt lat="44.400475" lon="8.5091417"><ele>495.0</ele><time>2026-03-26T15:17:01.949Z</time></trkpt><trkpt lat="44.4004217" lon="8.50922"><ele>497.0</ele><time>2026-03-26T15:17:02.949Z</time></trkpt><trkpt lat="44.4003367" lon="8.5092717"><ele>499.0</ele><time>2026-03-26T15:17:03.948Z</time></trkpt><trkpt lat="44.4002433" lon="8.5093283"><ele>501.0</ele><time>2026-03-26T15:17:04.948Z</time></trkpt><trkpt lat="44.400135" lon="8.50939"><ele>503.0</ele><time>2026-03-26T15:17:05.948Z</time></trkpt><trkpt lat="44.40003" lon="8.5094717"><ele>505.0</ele><time>2026-03-26T15:17:06.949Z</time></trkpt><trkpt lat="44.3999333" lon="8.5095867"><ele>505.0</ele><time>2026-03-26T15:17:07.949Z</time></trkpt><trkpt lat="44.399855" lon="8.5097133"><ele>505.0</ele><time>2026-03-26T15:17:08.948Z</time></trkpt><trkpt lat="44.399785" lon="8.509845"><ele>505.0</ele><time>2026-03-26T15:17:09.949Z</time></trkpt><trkpt lat="44.399715" lon="8.5099533"><ele>505.0</ele><time>2026-03-26T15:17:10.948Z</time></trkpt><trkpt lat="44.3996467" lon="8.5100383"><ele>505.0</ele><time>2026-03-26T15:17:11.948Z</time></trkpt><trkpt lat="44.39959" lon="8.5101133"><ele>502.33333333333337</ele><time>2026-03-26T15:17:12.949Z</time></trkpt><trkpt lat="44.3995367" lon="8.5101967"><ele>499.6666666666667</ele><time>2026-03-26T15:17:13.949Z</time></trkpt><trkpt lat="44.3995" lon="8.5102717"><ele>497.0</ele><time>2026-03-26T15:17:14.949Z</time></trkpt><trkpt lat="44.399475" lon="8.5103683"><ele>494.33333333333337</ele><time>2026-03-26T15:17:15.949Z</time></trkpt><trkpt lat="44.3994517" lon="8.51048"><ele>491.6666666666667</ele><time>2026-03-26T15:17:16.948Z</time></trkpt><trkpt lat="44.3994267" lon="8.5105983"><ele>489.0</ele><time>2026-03-26T15:17:17.949Z</time></trkpt><trkpt lat="44.3993983" lon="8.5107083"><ele>489.0</ele><time>2026-03-26T15:17:18.948Z</time></trkpt><trkpt lat="44.3993783" lon="8.5108167"><ele>489.0</ele><time>2026-03-26T15:17:19.948Z</time></trkpt><trkpt lat="44.3993633" lon="8.510925"><ele>489.0</ele><time>2026-03-26T15:17:20.949Z</time></trkpt><trkpt lat="44.3993633" lon="8.5110333"><ele>489.0</ele><time>2026-03-26T15:17:21.949Z</time></trkpt><trkpt lat="44.39939" lon="8.5111417"><ele>489.0</ele><time>2026-03-26T15:17:22.948Z</time></trkpt><trkpt lat="44.3994017" lon="8.5112517"><ele>489.0</ele><time>2026-03-26T15:17:23.949Z</time></trkpt><trkpt lat="44.3994033" lon="8.5113683"><ele>489.5</ele><time>2026-03-26T15:17:24.948Z</time></trkpt><trkpt lat="44.39939" lon="8.5114817"><ele>490.0</ele><time>2026-03-26T15:17:25.948Z</time></trkpt><trkpt lat="44.3993483" lon="8.511585"><ele>490.5</ele><time>2026-03-26T15:17:26.949Z</time></trkpt><trkpt lat="44.39928" lon="8.511675"><ele>491.0</ele><time>2026-03-26T15:17:27.949Z</time></trkpt><trkpt lat="44.399195" lon="8.5117467"><ele>491.5</ele><time>2026-03-26T15:17:28.948Z</time></trkpt><trkpt lat="44.39913" lon="8.51183"><ele>492.0</ele><time>2026-03-26T15:17:29.949Z</time></trkpt><trkpt lat="44.3990783" lon="8.51191"><ele>492.0</ele><time>2026-03-26T15:17:30.948Z</time></trkpt><trkpt lat="44.3990517" lon="8.512"><ele>492.0</ele><time>2026-03-26T15:17:31.948Z</time></trkpt><trkpt lat="44.3990483" lon="8.5120967"><ele>492.0</ele><time>2026-03-26T15:17:32.948Z</time></trkpt><trkpt lat="44.39905" lon="8.512205"><ele>492.0</ele><time>2026-03-26T15:17:33.949Z</time></trkpt><trkpt lat="44.39907" lon="8.512315"><ele>492.0</ele><time>2026-03-26T15:17:34.948Z</time></trkpt><trkpt lat="44.3990833" lon="8.51243"><ele>492.0</ele><time>2026-03-26T15:17:35.948Z</time></trkpt><trkpt lat="44.39909" lon="8.5125367"><ele>492.0</ele><time>2026-03-26T15:17:36.949Z</time></trkpt><trkpt lat="44.39907" lon="8.5126483"><ele>492.0</ele><time>2026-03-26T15:17:37.948Z</time></trkpt><trkpt lat="44.39905" lon="8.5127467"><ele>492.0</ele><time>2026-03-26T15:17:38.948Z</time></trkpt><trkpt lat="44.39903" lon="8.51284"><ele>492.0</ele><time>2026-03-26T15:17:39.948Z</time></trkpt><trkpt lat="44.399035" lon="8.512945"><ele>492.0</ele><time>2026-03-26T15:17:40.949Z</time></trkpt><trkpt lat="44.3990533" lon="8.51306"><ele>492.0</ele><time>2026-03-26T15:17:41.948Z</time></trkpt><trkpt lat="44.3990767" lon="8.5131933"><ele>491.8</ele><time>2026-03-26T15:17:42.948Z</time></trkpt><trkpt lat="44.399075" lon="8.5133283"><ele>491.6</ele><time>2026-03-26T15:17:43.948Z</time></trkpt><trkpt lat="44.3990517" lon="8.5134667"><ele>491.40000000000003</ele><time>2026-03-26T15:17:44.948Z</time></trkpt><trkpt lat="44.3990183" lon="8.51361"><ele>491.20000000000005</ele><time>2026-03-26T15:17:45.949Z</time></trkpt><trkpt lat="44.3989833" lon="8.5137567"><ele>491.0</ele><time>2026-03-26T15:17:46.948Z</time></trkpt><trkpt lat="44.3989433" lon="8.5139"><ele>491.0</ele><time>2026-03-26T15:17:47.949Z</time></trkpt><trkpt lat="44.3989033" lon="8.5140383"><ele>491.0</ele><time>2026-03-26T15:17:48.949Z</time></trkpt><trkpt lat="44.39886" lon="8.5141617"><ele>491.0</ele><time>2026-03-26T15:17:49.948Z</time></trkpt><trkpt lat="44.398795" lon="8.5142633"><ele>491.0</ele><time>2026-03-26T15:17:50.948Z</time></trkpt><trkpt lat="44.3987133" lon="8.51436"><ele>491.0</ele><time>2026-03-26T15:17:51.948Z</time></trkpt><trkpt lat="44.3986133" lon="8.5144517"><ele>489.20000000000005</ele><time>2026-03-26T15:17:52.948Z</time></trkpt><trkpt lat="44.3985117" lon="8.51453"><ele>487.40000000000003</ele><time>2026-03-26T15:17:53.948Z</time></trkpt><trkpt lat="44.3984083" lon="8.5145933"><ele>485.6</ele><time>2026-03-26T15:17:54.949Z</time></trkpt><trkpt lat="44.3983033" lon="8.5146383"><ele>483.8</ele><time>2026-03-26T15:17:55.949Z</time></trkpt><trkpt lat="44.3982017" lon="8.5146817"><ele>482.0</ele><time>2026-03-26T15:17:56.949Z</time></trkpt><trkpt lat="44.3980983" lon="8.5147083"><ele>478.6</ele><time>2026-03-26T15:17:57.949Z</time></trkpt><trkpt lat="44.3979983" lon="8.5147367"><ele>475.20000000000005</ele><time>2026-03-26T15:17:58.948Z</time></trkpt><trkpt lat="44.397915" lon="8.514765"><ele>471.8</ele><time>2026-03-26T15:17:59.948Z</time></trkpt><trkpt lat="44.39783" lon="8.514805"><ele>468.4</ele><time>2026-03-26T15:18:00.948Z</time></trkpt><trkpt lat="44.3977483" lon="8.5148517"><ele>465.0</ele><time>2026-03-26T15:18:01.949Z</time></trkpt><trkpt lat="44.39767" lon="8.5149083"><ele>465.0</ele><time>2026-03-26T15:18:02.949Z</time></trkpt><trkpt lat="44.3975883" lon="8.5149733"><ele>465.0</ele><time>2026-03-26T15:18:03.949Z</time></trkpt><trkpt lat="44.3975117" lon="8.5150467"><ele>465.0</ele><time>2026-03-26T15:18:04.949Z</time></trkpt><trkpt lat="44.397425" lon="8.51513"><ele>465.0</ele><time>2026-03-26T15:18:05.948Z</time></trkpt><trkpt lat="44.3973433" lon="8.51519"><ele>465.0</ele><time>2026-03-26T15:18:06.949Z</time></trkpt><trkpt lat="44.3972583" lon="8.5152383"><ele>465.0</ele><time>2026-03-26T15:18:07.949Z</time></trkpt><trkpt lat="44.397175" lon="8.5152817"><ele>465.0</ele><time>2026-03-26T15:18:08.949Z</time></trkpt><trkpt lat="44.3970917" lon="8.5153383"><ele>465.0</ele><time>2026-03-26T15:18:09.949Z</time></trkpt><trkpt lat="44.3970083" lon="8.5154033"><ele>465.0</ele><time>2026-03-26T15:18:10.948Z</time></trkpt><trkpt lat="44.39692" lon="8.5154617"><ele>465.0</ele><time>2026-03-26T15:18:11.949Z</time></trkpt><trkpt lat="44.39683" lon="8.5155067"><ele>462.4</ele><time>2026-03-26T15:18:12.948Z</time></trkpt><trkpt lat="44.3967383" lon="8.515535"><ele>459.8</ele><time>2026-03-26T15:18:13.948Z</time></trkpt><trkpt lat="44.3966483" lon="8.515535"><ele>457.20000000000005</ele><time>2026-03-26T15:18:14.948Z</time></trkpt><trkpt lat="44.3965533" lon="8.5155083"><ele>454.6</ele><time>2026-03-26T15:18:15.949Z</time></trkpt><trkpt lat="44.3964367" lon="8.515445"><ele>452.0</ele><time>2026-03-26T15:18:16.949Z</time></trkpt><trkpt lat="44.3963083" lon="8.5153567"><ele>449.0</ele><time>2026-03-26T15:18:17.949Z</time></trkpt><trkpt lat="44.3961883" lon="8.5152667"><ele>446.0</ele><time>2026-03-26T15:18:18.948Z</time></trkpt><trkpt lat="44.3960767" lon="8.51519"><ele>443.0</ele><time>2026-03-26T15:18:19.949Z</time></trkpt><trkpt lat="44.395985" lon="8.51512"><ele>440.0</ele><time>2026-03-26T15:18:20.949Z</time></trkpt><trkpt lat="44.3958817" lon="8.515055"><ele>440.0</ele><time>2026-03-26T15:18:21.948Z</time></trkpt><trkpt lat="44.3957733" lon="8.5150017"><ele>440.0</ele><time>2026-03-26T15:18:22.949Z</time></trkpt><trkpt lat="44.39567" lon="8.5149667"><ele>440.0</ele><time>2026-03-26T15:18:23.948Z</time></trkpt><trkpt lat="44.3955817" lon="8.5149383"><ele>440.0</ele><time>2026-03-26T15:18:24.948Z</time></trkpt><trkpt lat="44.395505" lon="8.5149117"><ele>440.0</ele><time>2026-03-26T15:18:25.948Z</time></trkpt><trkpt lat="44.39542" lon="8.514885"><ele>438.4</ele><time>2026-03-26T15:18:26.949Z</time></trkpt><trkpt lat="44.3953367" lon="8.51486"><ele>436.8</ele><time>2026-03-26T15:18:27.948Z</time></trkpt><trkpt lat="44.3952533" lon="8.5148233"><ele>435.20000000000005</ele><time>2026-03-26T15:18:28.949Z</time></trkpt><trkpt lat="44.3951717" lon="8.514775"><ele>433.6</ele><time>2026-03-26T15:18:29.948Z</time></trkpt><trkpt lat="44.39508" lon="8.51473"><ele>432.0</ele><time>2026-03-26T15:18:30.948Z</time></trkpt><trkpt lat="44.3949783" lon="8.514695"><ele>432.0</ele><time>2026-03-26T15:18:31.948Z</time></trkpt><trkpt lat="44.39488" lon="8.5146417"><ele>432.00000000000006</ele><time>2026-03-26T15:18:32.948Z</time></trkpt><trkpt lat="44.394775" lon="8.5145767"><ele>432.00000000000006</ele><time>2026-03-26T15:18:33.948Z</time></trkpt><trkpt lat="44.39468" lon="8.5144983"><ele>432.0</ele><time>2026-03-26T15:18:34.949Z</time></trkpt><trkpt lat="44.3945867" lon="8.5143983"><ele>432.0</ele><time>2026-03-26T15:18:35.949Z</time></trkpt><trkpt lat="44.3944983" lon="8.5142933"><ele>428.5</ele><time>2026-03-26T15:18:36.949Z</time></trkpt><trkpt lat="44.394405" lon="8.51419"><ele>425.0</ele><time>2026-03-26T15:18:37.949Z</time></trkpt><trkpt lat="44.3943083" lon="8.51409"><ele>421.5</ele><time>2026-03-26T15:18:38.948Z</time></trkpt><trkpt lat="44.3942133" lon="8.5139983"><ele>418.0</ele><time>2026-03-26T15:18:39.948Z</time></trkpt><trkpt lat="44.394125" lon="8.5139067"><ele>418.0</ele><time>2026-03-26T15:18:40.948Z</time></trkpt><trkpt lat="44.3940433" lon="8.51381"><ele>418.0</ele><time>2026-03-26T15:18:41.949Z</time></trkpt><trkpt lat="44.3939417" lon="8.5137267"><ele>418.0</ele><time>2026-03-26T15:18:42.949Z</time></trkpt><trkpt lat="44.3938517" lon="8.5136483"><ele>418.0</ele><time>2026-03-26T15:18:43.948Z</time></trkpt><trkpt lat="44.3937633" lon="8.5135733"><ele>418.0</ele><time>2026-03-26T15:18:44.949Z</time></trkpt><trkpt lat="44.3936783" lon="8.5135017"><ele>415.1666666666667</ele><time>2026-03-26T15:18:45.948Z</time></trkpt><trkpt lat="44.3935967" lon="8.513425"><ele>412.33333333333337</ele><time>2026-03-26T15:18:46.948Z</time></trkpt><trkpt lat="44.39352" lon="8.5133683"><ele>409.5</ele><time>2026-03-26T15:18:47.948Z</time></trkpt><trkpt lat="44.39344" lon="8.513345"><ele>406.66666666666663</ele><time>2026-03-26T15:18:48.949Z</time></trkpt><trkpt lat="44.3933617" lon="8.5133633"><ele>403.8333333333333</ele><time>2026-03-26T15:18:49.949Z</time></trkpt><trkpt lat="44.393285" lon="8.5134017"><ele>401.0</ele><time>2026-03-26T15:18:50.949Z</time></trkpt><trkpt lat="44.3932217" lon="8.513405"><ele>401.0</ele><time>2026-03-26T15:18:51.949Z</time></trkpt><trkpt lat="44.3932333" lon="8.5132783"><ele>401.0</ele><time>2026-03-26T15:18:53.949Z</time></trkpt><trkpt lat="44.3932817" lon="8.5132217"><ele>401.0</ele><time>2026-03-26T15:18:54.949Z</time></trkpt><trkpt lat="44.3933867" lon="8.5131883"><ele>401.0</ele><time>2026-03-26T15:18:55.948Z</time></trkpt><trkpt lat="44.3934933" lon="8.5131533"><ele>401.0</ele><time>2026-03-26T15:18:56.949Z</time></trkpt><trkpt lat="44.393605" lon="8.51313"><ele>401.0</ele><time>2026-03-26T15:18:57.948Z</time></trkpt><trkpt lat="44.3937067" lon="8.5131267"><ele>401.0</ele><time>2026-03-26T15:18:58.949Z</time></trkpt><trkpt lat="44.3938017" lon="8.5131417"><ele>401.0</ele><time>2026-03-26T15:18:59.948Z</time></trkpt><trkpt lat="44.3939" lon="8.513155"><ele>401.0</ele><time>2026-03-26T15:19:00.948Z</time></trkpt><trkpt lat="44.394" lon="8.5131567"><ele>401.0</ele><time>2026-03-26T15:19:01.948Z</time></trkpt><trkpt lat="44.3941033" lon="8.513135"><ele>400.8</ele><time>2026-03-26T15:19:02.948Z</time></trkpt><trkpt lat="44.39421" lon="8.51309"><ele>400.6</ele><time>2026-03-26T15:19:03.948Z</time></trkpt><trkpt lat="44.3943067" lon="8.5130517"><ele>400.4</ele><time>2026-03-26T15:19:04.948Z</time></trkpt><trkpt lat="44.3944133" lon="8.5130283"><ele>400.2</ele><time>2026-03-26T15:19:05.949Z</time></trkpt><trkpt lat="44.3945283" lon="8.513035"><ele>400.0</ele><time>2026-03-26T15:19:06.948Z</time></trkpt><trkpt lat="44.3946283" lon="8.5130517"><ele>398.2</ele><time>2026-03-26T15:19:07.949Z</time></trkpt><trkpt lat="44.3947183" lon="8.5130983"><ele>396.4</ele><time>2026-03-26T15:19:08.948Z</time></trkpt><trkpt lat="44.3948067" lon="8.5131783"><ele>394.6</ele><time>2026-03-26T15:19:09.948Z</time></trkpt><trkpt lat="44.39489" lon="8.5132733"><ele>392.8</ele><time>2026-03-26T15:19:10.949Z</time></trkpt><trkpt lat="44.394965" lon="8.513355"><ele>391.0</ele><time>2026-03-26T15:19:11.948Z</time></trkpt><trkpt lat="44.3950217" lon="8.513405"><ele>391.00000000000006</ele><time>2026-03-26T15:19:12.949Z</time></trkpt><trkpt lat="44.3951117" lon="8.513415"><ele>391.0</ele><time>2026-03-26T15:19:14.949Z</time></trkpt><trkpt lat="44.3951433" lon="8.5132883"><ele>391.0</ele><time>2026-03-26T15:19:16.948Z</time></trkpt><trkpt lat="44.39513" lon="8.5131617"><ele>391.0</ele><time>2026-03-26T15:19:17.948Z</time></trkpt><trkpt lat="44.39511" lon="8.51304"><ele>391.00000000000006</ele><time>2026-03-26T15:19:18.948Z</time></trkpt><trkpt lat="44.39509" lon="8.5129333"><ele>391.0</ele><time>2026-03-26T15:19:19.949Z</time></trkpt><trkpt lat="44.395015" lon="8.5128867"><ele>388.00000000000006</ele><time>2026-03-26T15:19:20.949Z</time></trkpt><trkpt lat="44.394945" lon="8.51286"><ele>385.0</ele><time>2026-03-26T15:19:21.948Z</time></trkpt><trkpt lat="44.394875" lon="8.5128183"><ele>382.0</ele><time>2026-03-26T15:19:22.948Z</time></trkpt><trkpt lat="44.3947967" lon="8.512775"><ele>379.0</ele><time>2026-03-26T15:19:23.949Z</time></trkpt><trkpt lat="44.3947083" lon="8.5127067"><ele>376.0</ele><time>2026-03-26T15:19:24.949Z</time></trkpt><trkpt lat="44.39463" lon="8.5126183"><ele>373.0</ele><time>2026-03-26T15:19:25.948Z</time></trkpt><trkpt lat="44.394565" lon="8.5125217"><ele>372.79999999999995</ele><time>2026-03-26T15:19:26.949Z</time></trkpt><trkpt lat="44.3944833" lon="8.51243"><ele>372.6</ele><time>2026-03-26T15:19:27.949Z</time></trkpt><trkpt lat="44.3944017" lon="8.5123567"><ele>372.4</ele><time>2026-03-26T15:19:28.948Z</time></trkpt><trkpt lat="44.3943083" lon="8.5123133"><ele>372.20000000000005</ele><time>2026-03-26T15:19:29.948Z</time></trkpt><trkpt lat="44.3941933" lon="8.5122767"><ele>372.0</ele><time>2026-03-26T15:19:30.948Z</time></trkpt><trkpt lat="44.3940883" lon="8.5122533"><ele>372.0</ele><time>2026-03-26T15:19:31.948Z</time></trkpt><trkpt lat="44.3940017" lon="8.5122117"><ele>372.0</ele><time>2026-03-26T15:19:32.949Z</time></trkpt><trkpt lat="44.3939117" lon="8.5121467"><ele>372.0</ele><time>2026-03-26T15:19:33.948Z</time></trkpt><trkpt lat="44.3938283" lon="8.5120533"><ele>372.0</ele><time>2026-03-26T15:19:34.949Z</time></trkpt><trkpt lat="44.39373" lon="8.5119433"><ele>372.0</ele><time>2026-03-26T15:19:35.949Z</time></trkpt><trkpt lat="44.393635" lon="8.5118417"><ele>368.20000000000005</ele><time>2026-03-26T15:19:36.948Z</time></trkpt><trkpt lat="44.393545" lon="8.511765"><ele>364.4</ele><time>2026-03-26T15:19:37.948Z</time></trkpt><trkpt lat="44.3934483" lon="8.5116717"><ele>360.6</ele><time>2026-03-26T15:19:38.948Z</time></trkpt><trkpt lat="44.3933567" lon="8.5115933"><ele>356.79999999999995</ele><time>2026-03-26T15:19:39.948Z</time></trkpt><trkpt lat="44.3932733" lon="8.5115367"><ele>353.0</ele><time>2026-03-26T15:19:40.949Z</time></trkpt><trkpt lat="44.3931917" lon="8.5114883"><ele>353.0</ele><time>2026-03-26T15:19:41.949Z</time></trkpt><trkpt lat="44.3930983" lon="8.51144"><ele>353.0</ele><time>2026-03-26T15:19:42.949Z</time></trkpt><trkpt lat="44.3930033" lon="8.5113933"><ele>353.0</ele><time>2026-03-26T15:19:43.949Z</time></trkpt><trkpt lat="44.3929083" lon="8.5113617"><ele>353.0</ele><time>2026-03-26T15:19:44.948Z</time></trkpt><trkpt lat="44.39282" lon="8.5113733"><ele>353.0</ele><time>2026-03-26T15:19:45.948Z</time></trkpt><trkpt lat="44.3927433" lon="8.5113817"><ele>352.83333333333337</ele><time>2026-03-26T15:19:46.949Z</time></trkpt><trkpt lat="44.3926633" lon="8.5113633"><ele>352.6666666666667</ele><time>2026-03-26T15:19:47.949Z</time></trkpt><trkpt lat="44.39261" lon="8.5112867"><ele>352.5</ele><time>2026-03-26T15:19:50.948Z</time></trkpt><trkpt lat="44.3926883" lon="8.5112117"><ele>352.3333333333333</ele><time>2026-03-26T15:19:52.949Z</time></trkpt><trkpt lat="44.39277" lon="8.5112"><ele>352.16666666666663</ele><time>2026-03-26T15:19:53.949Z</time></trkpt><trkpt lat="44.3928717" lon="8.511195"><ele>352.0</ele><time>2026-03-26T15:19:54.948Z</time></trkpt><trkpt lat="44.3929617" lon="8.511195"><ele>352.16666666666663</ele><time>2026-03-26T15:19:55.949Z</time></trkpt><trkpt lat="44.3930483" lon="8.5112083"><ele>352.3333333333333</ele><time>2026-03-26T15:19:56.949Z</time></trkpt><trkpt lat="44.3931317" lon="8.5112317"><ele>352.5</ele><time>2026-03-26T15:19:57.949Z</time></trkpt><trkpt lat="44.3932167" lon="8.5112467"><ele>352.6666666666667</ele><time>2026-03-26T15:19:58.949Z</time></trkpt><trkpt lat="44.3933033" lon="8.51125"><ele>352.83333333333337</ele><time>2026-03-26T15:19:59.949Z</time></trkpt><trkpt lat="44.3934" lon="8.5112217"><ele>353.0</ele><time>2026-03-26T15:20:00.948Z</time></trkpt><trkpt lat="44.3934767" lon="8.511195"><ele>350.4285714285714</ele><time>2026-03-26T15:20:01.949Z</time></trkpt><trkpt lat="44.3935417" lon="8.511165"><ele>347.8571428571429</ele><time>2026-03-26T15:20:02.948Z</time></trkpt><trkpt lat="44.39361" lon="8.5111367"><ele>345.2857142857143</ele><time>2026-03-26T15:20:03.949Z</time></trkpt><trkpt lat="44.3936817" lon="8.51111"><ele>342.71428571428567</ele><time>2026-03-26T15:20:04.948Z</time></trkpt><trkpt lat="44.3937483" lon="8.5110717"><ele>340.1428571428571</ele><time>2026-03-26T15:20:05.949Z</time></trkpt><trkpt lat="44.39381" lon="8.5110317"><ele>337.57142857142856</ele><time>2026-03-26T15:20:06.949Z</time></trkpt><trkpt lat="44.3938717" lon="8.510945"><ele>335.0</ele><time>2026-03-26T15:20:08.948Z</time></trkpt><trkpt lat="44.393845" lon="8.5108533"><ele>333.8</ele><time>2026-03-26T15:20:11.948Z</time></trkpt><trkpt lat="44.3937167" lon="8.510825"><ele>332.6</ele><time>2026-03-26T15:20:14.949Z</time></trkpt><trkpt lat="44.393625" lon="8.5108617"><ele>331.4</ele><time>2026-03-26T15:20:15.948Z</time></trkpt><trkpt lat="44.39353" lon="8.510895"><ele>330.2</ele><time>2026-03-26T15:20:16.948Z</time></trkpt><trkpt lat="44.3934333" lon="8.5109183"><ele>329.0</ele><time>2026-03-26T15:20:17.949Z</time></trkpt><trkpt lat="44.3933333" lon="8.5109433"><ele>329.0</ele><time>2026-03-26T15:20:18.949Z</time></trkpt><trkpt lat="44.3932317" lon="8.510935"><ele>329.0</ele><time>2026-03-26T15:20:19.949Z</time></trkpt><trkpt lat="44.39314" lon="8.5108867"><ele>329.0</ele><time>2026-03-26T15:20:20.948Z</time></trkpt><trkpt lat="44.3930733" lon="8.5107883"><ele>329.0</ele><time>2026-03-26T15:20:21.949Z</time></trkpt><trkpt lat="44.39301" lon="8.5107017"><ele>329.0</ele><time>2026-03-26T15:20:22.948Z</time></trkpt><trkpt lat="44.3929367" lon="8.5106333"><ele>329.0</ele><time>2026-03-26T15:20:23.949Z</time></trkpt><trkpt lat="44.39286" lon="8.5105833"><ele>329.0</ele><time>2026-03-26T15:20:24.948Z</time></trkpt><trkpt lat="44.3927733" lon="8.5105483"><ele>329.0</ele><time>2026-03-26T15:20:25.948Z</time></trkpt><trkpt lat="44.3926833" lon="8.5105317"><ele>329.0</ele><time>2026-03-26T15:20:26.948Z</time></trkpt><trkpt lat="44.3925817" lon="8.51053"><ele>329.0</ele><time>2026-03-26T15:20:27.949Z</time></trkpt><trkpt lat="44.3924633" lon="8.5105233"><ele>329.0</ele><time>2026-03-26T15:20:28.949Z</time></trkpt><trkpt lat="44.3923333" lon="8.510535"><ele>329.0</ele><time>2026-03-26T15:20:29.948Z</time></trkpt><trkpt lat="44.3922217" lon="8.5105217"><ele>329.0</ele><time>2026-03-26T15:20:30.948Z</time></trkpt><trkpt lat="44.3921133" lon="8.5105067"><ele>329.0</ele><time>2026-03-26T15:20:31.949Z</time></trkpt><trkpt lat="44.3920017" lon="8.51049"><ele>326.59999999999997</ele><time>2026-03-26T15:20:32.949Z</time></trkpt><trkpt lat="44.3919133" lon="8.510485"><ele>324.2</ele><time>2026-03-26T15:20:33.949Z</time></trkpt><trkpt lat="44.3918217" lon="8.5105133"><ele>321.79999999999995</ele><time>2026-03-26T15:20:34.948Z</time></trkpt><trkpt lat="44.3917633" lon="8.5106167"><ele>319.4</ele><time>2026-03-26T15:20:35.948Z</time></trkpt><trkpt lat="44.3917133" lon="8.5107683"><ele>317.0</ele><time>2026-03-26T15:20:36.948Z</time></trkpt><trkpt lat="44.3916967" lon="8.5109367"><ele>317.0</ele><time>2026-03-26T15:20:37.949Z</time></trkpt><trkpt lat="44.3917" lon="8.511125"><ele>317.0</ele><time>2026-03-26T15:20:38.949Z</time></trkpt><trkpt lat="44.3916983" lon="8.5112983"><ele>317.0</ele><time>2026-03-26T15:20:39.948Z</time></trkpt><trkpt lat="44.391675" lon="8.5114733"><ele>317.0</ele><time>2026-03-26T15:20:40.948Z</time></trkpt><trkpt lat="44.391625" lon="8.5116283"><ele>319.0</ele><time>2026-03-26T15:20:41.948Z</time></trkpt><trkpt lat="44.3915517" lon="8.5117733"><ele>321.0</ele><time>2026-03-26T15:20:42.948Z</time></trkpt><trkpt lat="44.3914883" lon="8.511895"><ele>323.0</ele><time>2026-03-26T15:20:43.949Z</time></trkpt><trkpt lat="44.391425" lon="8.5120267"><ele>325.0</ele><time>2026-03-26T15:20:44.948Z</time></trkpt><trkpt lat="44.39138" lon="8.512145"><ele>327.0</ele><time>2026-03-26T15:20:45.948Z</time></trkpt><trkpt lat="44.3913267" lon="8.5122867"><ele>320.75</ele><time>2026-03-26T15:20:46.948Z</time></trkpt><trkpt lat="44.3913083" lon="8.51245"><ele>314.5</ele><time>2026-03-26T15:20:47.948Z</time></trkpt><trkpt lat="44.3912867" lon="8.5126133"><ele>308.25</ele><time>2026-03-26T15:20:48.948Z</time></trkpt><trkpt lat="44.3912467" lon="8.5127583"><ele>302.0</ele><time>2026-03-26T15:20:49.949Z</time></trkpt><trkpt lat="44.3911717" lon="8.512865"><ele>304.75</ele><time>2026-03-26T15:20:50.948Z</time></trkpt><trkpt lat="44.3910917" lon="8.5129683"><ele>307.5</ele><time>2026-03-26T15:20:51.948Z</time></trkpt><trkpt lat="44.3909967" lon="8.5130883"><ele>310.25</ele><time>2026-03-26T15:20:52.949Z</time></trkpt><trkpt lat="44.3909133" lon="8.5132217"><ele>313.0</ele><time>2026-03-26T15:20:53.948Z</time></trkpt><trkpt lat="44.390825" lon="8.5133683"><ele>313.0</ele><time>2026-03-26T15:20:54.948Z</time></trkpt><trkpt lat="44.3907617" lon="8.5135283"><ele>313.0</ele><time>2026-03-26T15:20:55.949Z</time></trkpt><trkpt lat="44.3907067" lon="8.5137183"><ele>313.0</ele><time>2026-03-26T15:20:56.949Z</time></trkpt><trkpt lat="44.3906583" lon="8.5138967"><ele>313.0</ele><time>2026-03-26T15:20:57.949Z</time></trkpt><trkpt lat="44.3906583" lon="8.5140683"><ele>314.0</ele><time>2026-03-26T15:20:58.949Z</time></trkpt><trkpt lat="44.3906617" lon="8.5142167"><ele>315.0</ele><time>2026-03-26T15:20:59.949Z</time></trkpt><trkpt lat="44.39068" lon="8.5143617"><ele>316.0</ele><time>2026-03-26T15:21:00.948Z</time></trkpt><trkpt lat="44.390715" lon="8.514475"><ele>317.0</ele><time>2026-03-26T15:21:01.949Z</time></trkpt><trkpt lat="44.39075" lon="8.5145717"><ele>318.0</ele><time>2026-03-26T15:21:02.948Z</time></trkpt><trkpt lat="44.3907783" lon="8.5146617"><ele>319.0</ele><time>2026-03-26T15:21:03.948Z</time></trkpt><trkpt lat="44.390795" lon="8.5147517"><ele>319.2</ele><time>2026-03-26T15:21:04.949Z</time></trkpt><trkpt lat="44.3907783" lon="8.5149467"><ele>319.4</ele><time>2026-03-26T15:21:06.949Z</time></trkpt><trkpt lat="44.3907633" lon="8.515075"><ele>319.6</ele><time>2026-03-26T15:21:07.948Z</time></trkpt><trkpt lat="44.3907433" lon="8.5151933"><ele>319.8</ele><time>2026-03-26T15:21:08.948Z</time></trkpt><trkpt lat="44.3907" lon="8.515275"><ele>320.0</ele><time>2026-03-26T15:21:09.948Z</time></trkpt><trkpt lat="44.390645" lon="8.515335"><ele>320.0</ele><time>2026-03-26T15:21:10.948Z</time></trkpt><trkpt lat="44.3905183" lon="8.515405"><ele>320.0</ele><time>2026-03-26T15:21:12.948Z</time></trkpt><trkpt lat="44.390445" lon="8.5154667"><ele>320.0</ele><time>2026-03-26T15:21:13.948Z</time></trkpt><trkpt lat="44.390365" lon="8.5155217"><ele>320.0</ele><time>2026-03-26T15:21:14.949Z</time></trkpt><trkpt lat="44.3902867" lon="8.5155667"><ele>320.0</ele><time>2026-03-26T15:21:15.948Z</time></trkpt><trkpt lat="44.390205" lon="8.5156167"><ele>320.0</ele><time>2026-03-26T15:21:16.949Z</time></trkpt><trkpt lat="44.3901117" lon="8.51568"><ele>320.0</ele><time>2026-03-26T15:21:17.948Z</time></trkpt><trkpt lat="44.39002" lon="8.515745"><ele>320.0</ele><time>2026-03-26T15:21:18.949Z</time></trkpt><trkpt lat="44.3899133" lon="8.5158033"><ele>320.0</ele><time>2026-03-26T15:21:19.949Z</time></trkpt><trkpt lat="44.3898017" lon="8.5158417"><ele>320.0</ele><time>2026-03-26T15:21:20.949Z</time></trkpt><trkpt lat="44.3896917" lon="8.5158417"><ele>320.83333333333337</ele><time>2026-03-26T15:21:21.948Z</time></trkpt><trkpt lat="44.3895783" lon="8.515815"><ele>321.6666666666667</ele><time>2026-03-26T15:21:22.948Z</time></trkpt><trkpt lat="44.3894883" lon="8.5157817"><ele>322.5</ele><time>2026-03-26T15:21:23.948Z</time></trkpt><trkpt lat="44.389405" lon="8.5157717"><ele>323.3333333333333</ele><time>2026-03-26T15:21:24.948Z</time></trkpt><trkpt lat="44.3893317" lon="8.5157567"><ele>324.16666666666663</ele><time>2026-03-26T15:21:25.948Z</time></trkpt><trkpt lat="44.3892567" lon="8.5157733"><ele>325.0</ele><time>2026-03-26T15:21:26.948Z</time></trkpt><trkpt lat="44.38917" lon="8.515765"><ele>325.0</ele><time>2026-03-26T15:21:27.949Z</time></trkpt><trkpt lat="44.3890933" lon="8.5157833"><ele>325.0</ele><time>2026-03-26T15:21:28.949Z</time></trkpt><trkpt lat="44.3890067" lon="8.5157817"><ele>325.0</ele><time>2026-03-26T15:21:29.948Z</time></trkpt><trkpt lat="44.3889367" lon="8.5157783"><ele>325.0</ele><time>2026-03-26T15:21:30.949Z</time></trkpt><trkpt lat="44.3888467" lon="8.51583"><ele>325.0</ele><time>2026-03-26T15:21:32.948Z</time></trkpt><trkpt lat="44.3888183" lon="8.5159283"><ele>325.0</ele><time>2026-03-26T15:21:34.948Z</time></trkpt><trkpt lat="44.3889183" lon="8.5159867"><ele>325.0</ele><time>2026-03-26T15:21:36.949Z</time></trkpt><trkpt lat="44.3889933" lon="8.515995"><ele>325.0</ele><time>2026-03-26T15:21:37.949Z</time></trkpt><trkpt lat="44.389085" lon="8.5159917"><ele>325.0</ele><time>2026-03-26T15:21:38.948Z</time></trkpt><trkpt lat="44.389215" lon="8.5159967"><ele>325.0</ele><time>2026-03-26T15:21:39.948Z</time></trkpt><trkpt lat="44.389335" lon="8.5160117"><ele>325.0</ele><time>2026-03-26T15:21:40.948Z</time></trkpt><trkpt lat="44.389435" lon="8.51602"><ele>325.0</ele><time>2026-03-26T15:21:41.948Z</time></trkpt><trkpt lat="44.3895267" lon="8.5160317"><ele>325.0</ele><time>2026-03-26T15:21:42.949Z</time></trkpt><trkpt lat="44.3896233" lon="8.5160567"><ele>325.0</ele><time>2026-03-26T15:21:43.948Z</time></trkpt><trkpt lat="44.3897133" lon="8.5160833"><ele>325.0</ele><time>2026-03-26T15:21:44.948Z</time></trkpt><trkpt lat="44.38979" lon="8.5161183"><ele>325.0</ele><time>2026-03-26T15:21:45.949Z</time></trkpt><trkpt lat="44.3898533" lon="8.5161533"><ele>325.0</ele><time>2026-03-26T15:21:46.948Z</time></trkpt><trkpt lat="44.3899333" lon="8.5161917"><ele>320.5</ele><time>2026-03-26T15:21:48.949Z</time></trkpt><trkpt lat="44.389895" lon="8.5162633"><ele>316.0</ele><time>2026-03-26T15:21:57.949Z</time></trkpt><trkpt lat="44.389815" lon="8.5162917"><ele>311.5</ele><time>2026-03-26T15:22:01.948Z</time></trkpt><trkpt lat="44.3897183" lon="8.516355"><ele>307.0</ele><time>2026-03-26T15:22:03.948Z</time></trkpt><trkpt lat="44.389655" lon="8.51643"><ele>302.5</ele><time>2026-03-26T15:22:04.948Z</time></trkpt><trkpt lat="44.3895767" lon="8.5164917"><ele>298.0</ele><time>2026-03-26T15:22:05.948Z</time></trkpt><trkpt lat="44.3895017" lon="8.51655"><ele>298.0</ele><time>2026-03-26T15:22:06.948Z</time></trkpt><trkpt lat="44.389435" lon="8.516605"><ele>298.0</ele><time>2026-03-26T15:22:07.948Z</time></trkpt><trkpt lat="44.3893767" lon="8.5166417"><ele>298.0</ele><time>2026-03-26T15:22:08.948Z</time></trkpt><trkpt lat="44.3893283" lon="8.5167"><ele>298.0</ele><time>2026-03-26T15:22:09.949Z</time></trkpt><trkpt lat="44.38927" lon="8.5167567"><ele>298.0</ele><time>2026-03-26T15:22:10.949Z</time></trkpt><trkpt lat="44.3892167" lon="8.5168167"><ele>298.0</ele><time>2026-03-26T15:22:11.949Z</time></trkpt><trkpt lat="44.3891383" lon="8.516885"><ele>298.0</ele><time>2026-03-26T15:22:13.948Z</time></trkpt><trkpt lat="44.3890517" lon="8.51692"><ele>298.0</ele><time>2026-03-26T15:22:15.949Z</time></trkpt><trkpt lat="44.3889467" lon="8.5169933"><ele>298.0</ele><time>2026-03-26T15:22:17.948Z</time></trkpt><trkpt lat="44.3888633" lon="8.5170833"><ele>298.0</ele><time>2026-03-26T15:22:19.948Z</time></trkpt><trkpt lat="44.3888217" lon="8.51717"><ele>298.0</ele><time>2026-03-26T15:22:21.948Z</time></trkpt><trkpt lat="44.3888333" lon="8.5172683"><ele>298.0</ele><time>2026-03-26T15:22:23.949Z</time></trkpt><trkpt lat="44.3888767" lon="8.517375"><ele>297.2</ele><time>2026-03-26T15:22:25.948Z</time></trkpt><trkpt lat="44.3888717" lon="8.5175117"><ele>296.4</ele><time>2026-03-26T15:22:27.949Z</time></trkpt><trkpt lat="44.3888" lon="8.5176483"><ele>295.59999999999997</ele><time>2026-03-26T15:22:29.949Z</time></trkpt><trkpt lat="44.3887567" lon="8.5177683"><ele>294.8</ele><time>2026-03-26T15:22:31.949Z</time></trkpt><trkpt lat="44.3887467" lon="8.5179033"><ele>294.0</ele><time>2026-03-26T15:22:33.948Z</time></trkpt><trkpt lat="44.3887083" lon="8.5180317"><ele>290.2</ele><time>2026-03-26T15:22:35.948Z</time></trkpt><trkpt lat="44.3886533" lon="8.5181283"><ele>286.4</ele><time>2026-03-26T15:22:37.948Z</time></trkpt><trkpt lat="44.3886317" lon="8.5182217"><ele>282.6</ele><time>2026-03-26T15:22:39.949Z</time></trkpt><trkpt lat="44.3886133" lon="8.51837"><ele>278.8</ele><time>2026-03-26T15:22:41.948Z</time></trkpt><trkpt lat="44.3886133" lon="8.51853"><ele>275.0</ele><time>2026-03-26T15:22:42.948Z</time></trkpt><trkpt lat="44.388625" lon="8.5186933"><ele>271.2</ele><time>2026-03-26T15:22:43.949Z</time></trkpt><trkpt lat="44.3886417" lon="8.51885"><ele>267.4</ele><time>2026-03-26T15:22:44.949Z</time></trkpt><trkpt lat="44.38866" lon="8.518975"><ele>263.6</ele><time>2026-03-26T15:22:45.948Z</time></trkpt><trkpt lat="44.3886867" lon="8.519095"><ele>259.8</ele><time>2026-03-26T15:22:46.948Z</time></trkpt><trkpt lat="44.3887367" lon="8.5192167"><ele>256.0</ele><time>2026-03-26T15:22:47.949Z</time></trkpt><trkpt lat="44.3887833" lon="8.51933"><ele>255.99999999999997</ele><time>2026-03-26T15:22:48.949Z</time></trkpt><trkpt lat="44.388815" lon="8.5194333"><ele>256.0</ele><time>2026-03-26T15:22:49.948Z</time></trkpt><trkpt lat="44.3888483" lon="8.519545"><ele>256.0</ele><time>2026-03-26T15:22:50.949Z</time></trkpt><trkpt lat="44.3888583" lon="8.5196667"><ele>256.0</ele><time>2026-03-26T15:22:51.949Z</time></trkpt><trkpt lat="44.38887" lon="8.5197967"><ele>255.99999999999997</ele><time>2026-03-26T15:22:52.948Z</time></trkpt><trkpt lat="44.388865" lon="8.51991"><ele>256.0</ele><time>2026-03-26T15:22:53.948Z</time></trkpt><trkpt lat="44.3888333" lon="8.52001"><ele>254.0</ele><time>2026-03-26T15:22:54.949Z</time></trkpt><trkpt lat="44.3887833" lon="8.520085"><ele>252.00000000000003</ele><time>2026-03-26T15:22:55.948Z</time></trkpt><trkpt lat="44.388705" lon="8.5201433"><ele>250.00000000000003</ele><time>2026-03-26T15:22:56.948Z</time></trkpt><trkpt lat="44.38861" lon="8.5201033"><ele>248.0</ele><time>2026-03-26T15:22:57.949Z</time></trkpt><trkpt lat="44.3885233" lon="8.5200567"><ele>246.0</ele><time>2026-03-26T15:22:58.948Z</time></trkpt><trkpt lat="44.3884183" lon="8.5200133"><ele>246.0</ele><time>2026-03-26T15:22:59.948Z</time></trkpt><trkpt lat="44.3882917" lon="8.519965"><ele>246.0</ele><time>2026-03-26T15:23:00.948Z</time></trkpt><trkpt lat="44.388155" lon="8.5199117"><ele>246.0</ele><time>2026-03-26T15:23:01.948Z</time></trkpt><trkpt lat="44.388005" lon="8.51989"><ele>246.0</ele><time>2026-03-26T15:23:02.948Z</time></trkpt><trkpt lat="44.3878667" lon="8.5198633"><ele>246.25</ele><time>2026-03-26T15:23:03.948Z</time></trkpt><trkpt lat="44.3877167" lon="8.5198833"><ele>246.5</ele><time>2026-03-26T15:23:04.948Z</time></trkpt><trkpt lat="44.3875767" lon="8.5199133"><ele>246.75</ele><time>2026-03-26T15:23:05.948Z</time></trkpt><trkpt lat="44.3874717" lon="8.51994"><ele>247.0</ele><time>2026-03-26T15:23:06.949Z</time></trkpt><trkpt lat="44.3873883" lon="8.519955"><ele>246.99999999999997</ele><time>2026-03-26T15:23:07.948Z</time></trkpt><trkpt lat="44.3873" lon="8.5199483"><ele>247.0</ele><time>2026-03-26T15:23:08.949Z</time></trkpt><trkpt lat="44.3872067" lon="8.5199283"><ele>247.0</ele><time>2026-03-26T15:23:09.948Z</time></trkpt><trkpt lat="44.3871067" lon="8.5199283"><ele>247.0</ele><time>2026-03-26T15:23:10.949Z</time></trkpt><trkpt lat="44.3870217" lon="8.5199467"><ele>246.99999999999997</ele><time>2026-03-26T15:23:11.948Z</time></trkpt><trkpt lat="44.386945" lon="8.5199817"><ele>247.0</ele><time>2026-03-26T15:23:12.949Z</time></trkpt><trkpt lat="44.3868767" lon="8.5200083"><ele>246.66666666666666</ele><time>2026-03-26T15:23:13.948Z</time></trkpt><trkpt lat="44.3867983" lon="8.5200283"><ele>246.33333333333331</ele><time>2026-03-26T15:23:14.949Z</time></trkpt><trkpt lat="44.38673" lon="8.52006"><ele>246.0</ele><time>2026-03-26T15:23:15.949Z</time></trkpt><trkpt lat="44.3866717" lon="8.5201217"><ele>245.66666666666669</ele><time>2026-03-26T15:23:16.949Z</time></trkpt><trkpt lat="44.3866267" lon="8.520205"><ele>245.33333333333334</ele><time>2026-03-26T15:23:17.949Z</time></trkpt><trkpt lat="44.386585" lon="8.5202833"><ele>245.0</ele><time>2026-03-26T15:23:18.949Z</time></trkpt><trkpt lat="44.3864783" lon="8.520355"><ele>245.00000000000003</ele><time>2026-03-26T15:23:20.948Z</time></trkpt><trkpt lat="44.3863967" lon="8.5203467"><ele>245.0</ele><time>2026-03-26T15:23:21.949Z</time></trkpt><trkpt lat="44.3863133" lon="8.5203367"><ele>245.0</ele><time>2026-03-26T15:23:22.948Z</time></trkpt><trkpt lat="44.3862367" lon="8.5203383"><ele>245.0</ele><time>2026-03-26T15:23:23.948Z</time></trkpt><trkpt lat="44.3861717" lon="8.5203517"><ele>245.00000000000003</ele><time>2026-03-26T15:23:24.948Z</time></trkpt><trkpt lat="44.3861233" lon="8.52041"><ele>245.0</ele><time>2026-03-26T15:23:25.949Z</time></trkpt><trkpt lat="44.3861" lon="8.5205367"><ele>245.66666666666669</ele><time>2026-03-26T15:23:27.949Z</time></trkpt><trkpt lat="44.38614" lon="8.5207017"><ele>246.33333333333334</ele><time>2026-03-26T15:23:29.948Z</time></trkpt><trkpt lat="44.3861833" lon="8.5207833"><ele>247.0</ele><time>2026-03-26T15:23:30.949Z</time></trkpt><trkpt lat="44.3862183" lon="8.520875"><ele>247.66666666666669</ele><time>2026-03-26T15:23:31.948Z</time></trkpt><trkpt lat="44.386235" lon="8.5209717"><ele>248.33333333333334</ele><time>2026-03-26T15:23:32.949Z</time></trkpt><trkpt lat="44.3862667" lon="8.52107"><ele>249.0</ele><time>2026-03-26T15:23:33.949Z</time></trkpt><trkpt lat="44.3862933" lon="8.521155"><ele>247.83333333333334</ele><time>2026-03-26T15:23:34.949Z</time></trkpt><trkpt lat="44.3863183" lon="8.5212367"><ele>246.66666666666669</ele><time>2026-03-26T15:23:35.949Z</time></trkpt><trkpt lat="44.386345" lon="8.5213767"><ele>245.5</ele><time>2026-03-26T15:23:37.948Z</time></trkpt><trkpt lat="44.3863917" lon="8.5215317"><ele>244.33333333333334</ele><time>2026-03-26T15:23:39.949Z</time></trkpt><trkpt lat="44.3864317" lon="8.521605"><ele>243.16666666666669</ele><time>2026-03-26T15:23:40.949Z</time></trkpt><trkpt lat="44.38648" lon="8.52168"><ele>242.0</ele><time>2026-03-26T15:23:41.948Z</time></trkpt><trkpt lat="44.3865317" lon="8.5217483"><ele>239.83333333333334</ele><time>2026-03-26T15:23:42.948Z</time></trkpt><trkpt lat="44.3865833" lon="8.5218233"><ele>237.66666666666669</ele><time>2026-03-26T15:23:43.949Z</time></trkpt><trkpt lat="44.386625" lon="8.521915"><ele>235.5</ele><time>2026-03-26T15:23:44.948Z</time></trkpt><trkpt lat="44.38666" lon="8.521995"><ele>233.33333333333331</ele><time>2026-03-26T15:23:45.948Z</time></trkpt><trkpt lat="44.3866767" lon="8.5221383"><ele>231.16666666666666</ele><time>2026-03-26T15:23:47.948Z</time></trkpt><trkpt lat="44.38663" lon="8.5222583"><ele>229.0</ele><time>2026-03-26T15:23:49.949Z</time></trkpt><trkpt lat="44.3865717" lon="8.522295"><ele>228.99999999999997</ele><time>2026-03-26T15:23:50.949Z</time></trkpt><trkpt lat="44.3865017" lon="8.5223367"><ele>229.0</ele><time>2026-03-26T15:23:51.949Z</time></trkpt><trkpt lat="44.3864267" lon="8.5224"><ele>229.0</ele><time>2026-03-26T15:23:52.949Z</time></trkpt><trkpt lat="44.3863733" lon="8.5224683"><ele>229.0</ele><time>2026-03-26T15:23:53.948Z</time></trkpt><trkpt lat="44.3863283" lon="8.522565"><ele>228.99999999999997</ele><time>2026-03-26T15:23:54.948Z</time></trkpt><trkpt lat="44.3862833" lon="8.5226683"><ele>229.0</ele><time>2026-03-26T15:23:55.948Z</time></trkpt><trkpt lat="44.3862217" lon="8.522755"><ele>229.0</ele><time>2026-03-26T15:23:56.948Z</time></trkpt><trkpt lat="44.3861667" lon="8.5228533"><ele>228.99999999999997</ele><time>2026-03-26T15:23:57.949Z</time></trkpt><trkpt lat="44.3860983" lon="8.522945"><ele>228.99999999999997</ele><time>2026-03-26T15:23:58.949Z</time></trkpt><trkpt lat="44.3860367" lon="8.5230383"><ele>229.0</ele><time>2026-03-26T15:23:59.948Z</time></trkpt><trkpt lat="44.3859833" lon="8.5231133"><ele>229.0</ele><time>2026-03-26T15:24:00.949Z</time></trkpt><trkpt lat="44.3858533" lon="8.52313"><ele>227.83333333333331</ele><time>2026-03-26T15:24:02.948Z</time></trkpt><trkpt lat="44.3857733" lon="8.5230883"><ele>226.66666666666666</ele><time>2026-03-26T15:24:03.949Z</time></trkpt><trkpt lat="44.3856967" lon="8.5230167"><ele>225.5</ele><time>2026-03-26T15:24:04.948Z</time></trkpt><trkpt lat="44.3856217" lon="8.522945"><ele>224.33333333333331</ele><time>2026-03-26T15:24:05.948Z</time></trkpt><trkpt lat="44.385555" lon="8.522905"><ele>223.16666666666666</ele><time>2026-03-26T15:24:06.948Z</time></trkpt><trkpt lat="44.3854883" lon="8.5229017"><ele>222.0</ele><time>2026-03-26T15:24:07.948Z</time></trkpt><trkpt lat="44.3854017" lon="8.5229283"><ele>222.0</ele><time>2026-03-26T15:24:08.949Z</time></trkpt><trkpt lat="44.3852967" lon="8.5229517"><ele>222.0</ele><time>2026-03-26T15:24:09.948Z</time></trkpt><trkpt lat="44.3851733" lon="8.5229683"><ele>222.0</ele><time>2026-03-26T15:24:10.949Z</time></trkpt><trkpt lat="44.3850517" lon="8.5229733"><ele>222.0</ele><time>2026-03-26T15:24:11.949Z</time></trkpt><trkpt lat="44.3849633" lon="8.5230133"><ele>222.0</ele><time>2026-03-26T15:24:12.949Z</time></trkpt><trkpt lat="44.38488" lon="8.523035"><ele>222.0</ele><time>2026-03-26T15:24:13.949Z</time></trkpt><trkpt lat="44.3848033" lon="8.5230167"><ele>222.0</ele><time>2026-03-26T15:24:14.949Z</time></trkpt><trkpt lat="44.3847167" lon="8.5229783"><ele>222.0</ele><time>2026-03-26T15:24:15.948Z</time></trkpt><trkpt lat="44.384645" lon="8.5229533"><ele>222.0</ele><time>2026-03-26T15:24:16.948Z</time></trkpt><trkpt lat="44.3845767" lon="8.5229533"><ele>222.0</ele><time>2026-03-26T15:24:17.948Z</time></trkpt><trkpt lat="44.3845083" lon="8.5229717"><ele>222.0</ele><time>2026-03-26T15:24:18.948Z</time></trkpt><trkpt lat="44.3844417" lon="8.5229917"><ele>222.0</ele><time>2026-03-26T15:24:19.948Z</time></trkpt><trkpt lat="44.3843117" lon="8.5230067"><ele>224.0</ele><time>2026-03-26T15:24:21.949Z</time></trkpt><trkpt lat="44.3842417" lon="8.5230283"><ele>226.0</ele><time>2026-03-26T15:24:22.948Z</time></trkpt><trkpt lat="44.3841483" lon="8.5230717"><ele>228.0</ele><time>2026-03-26T15:24:24.948Z</time></trkpt><trkpt lat="44.3841233" lon="8.5232017"><ele>230.0</ele><time>2026-03-26T15:24:26.949Z</time></trkpt><trkpt lat="44.3841667" lon="8.5233333"><ele>232.0</ele><time>2026-03-26T15:24:28.949Z</time></trkpt><trkpt lat="44.3842217" lon="8.5234017"><ele>234.0</ele><time>2026-03-26T15:24:29.948Z</time></trkpt><trkpt lat="44.3842767" lon="8.5234667"><ele>234.0</ele><time>2026-03-26T15:24:30.949Z</time></trkpt><trkpt lat="44.384305" lon="8.5235917"><ele>233.99999999999997</ele><time>2026-03-26T15:24:32.949Z</time></trkpt><trkpt lat="44.3842667" lon="8.52371"><ele>233.99999999999997</ele><time>2026-03-26T15:24:34.948Z</time></trkpt><trkpt lat="44.3841967" lon="8.5238217"><ele>234.0</ele><time>2026-03-26T15:24:36.948Z</time></trkpt><trkpt lat="44.3840983" lon="8.5238717"><ele>234.0</ele><time>2026-03-26T15:24:38.948Z</time></trkpt><trkpt lat="44.3840167" lon="8.523935"><ele>234.39999999999998</ele><time>2026-03-26T15:24:40.949Z</time></trkpt><trkpt lat="44.3839017" lon="8.5240283"><ele>234.79999999999998</ele><time>2026-03-26T15:24:42.949Z</time></trkpt><trkpt lat="44.3838383" lon="8.5240933"><ele>235.20000000000002</ele><time>2026-03-26T15:24:43.949Z</time></trkpt><trkpt lat="44.383755" lon="8.5241733"><ele>235.60000000000002</ele><time>2026-03-26T15:24:44.949Z</time></trkpt><trkpt lat="44.3836833" lon="8.5242467"><ele>236.0</ele><time>2026-03-26T15:24:45.949Z</time></trkpt><trkpt lat="44.3836233" lon="8.5243033"><ele>238.83333333333334</ele><time>2026-03-26T15:24:46.948Z</time></trkpt><trkpt lat="44.3835617" lon="8.52436"><ele>241.66666666666669</ele><time>2026-03-26T15:24:47.948Z</time></trkpt><trkpt lat="44.3834583" lon="8.524415"><ele>244.5</ele><time>2026-03-26T15:24:49.948Z</time></trkpt><trkpt lat="44.3833583" lon="8.5244417"><ele>247.33333333333331</ele><time>2026-03-26T15:24:51.948Z</time></trkpt><trkpt lat="44.3832917" lon="8.5244467"><ele>250.16666666666666</ele><time>2026-03-26T15:24:52.948Z</time></trkpt><trkpt lat="44.383225" lon="8.5244533"><ele>253.0</ele><time>2026-03-26T15:24:53.948Z</time></trkpt><trkpt lat="44.3831333" lon="8.5243933"><ele>252.99999999999997</ele><time>2026-03-26T15:24:55.948Z</time></trkpt><trkpt lat="44.3831217" lon="8.5243"><ele>253.0</ele><time>2026-03-26T15:24:57.949Z</time></trkpt><trkpt lat="44.383035" lon="8.52423"><ele>253.0</ele><time>2026-03-26T15:25:00.949Z</time></trkpt><trkpt lat="44.3829533" lon="8.5242217"><ele>253.0</ele><time>2026-03-26T15:25:01.949Z</time></trkpt><trkpt lat="44.3828683" lon="8.5241983"><ele>252.99999999999997</ele><time>2026-03-26T15:25:02.948Z</time></trkpt><trkpt lat="44.3827967" lon="8.5241817"><ele>253.0</ele><time>2026-03-26T15:25:03.948Z</time></trkpt><trkpt lat="44.382725" lon="8.52416"><ele>254.33333333333331</ele><time>2026-03-26T15:25:04.948Z</time></trkpt><trkpt lat="44.3826567" lon="8.524155"><ele>255.66666666666666</ele><time>2026-03-26T15:25:05.948Z</time></trkpt><trkpt lat="44.3825867" lon="8.52415"><ele>257.0</ele><time>2026-03-26T15:25:06.949Z</time></trkpt><trkpt lat="44.3825167" lon="8.5241567"><ele>258.3333333333333</ele><time>2026-03-26T15:25:07.948Z</time></trkpt><trkpt lat="44.3824383" lon="8.524175"><ele>259.6666666666667</ele><time>2026-03-26T15:25:09.948Z</time></trkpt><trkpt lat="44.3824033" lon="8.5242933"><ele>261.0</ele><time>2026-03-26T15:25:12.948Z</time></trkpt><trkpt lat="44.3823367" lon="8.5244217"><ele>261.0</ele><time>2026-03-26T15:25:14.948Z</time></trkpt><trkpt lat="44.38228" lon="8.5244683"><ele>261.0</ele><time>2026-03-26T15:25:15.949Z</time></trkpt><trkpt lat="44.3822217" lon="8.5245133"><ele>261.0</ele><time>2026-03-26T15:25:16.948Z</time></trkpt><trkpt lat="44.3821617" lon="8.52456"><ele>261.0</ele><time>2026-03-26T15:25:17.948Z</time></trkpt><trkpt lat="44.3821083" lon="8.5246183"><ele>261.0</ele><time>2026-03-26T15:25:18.948Z</time></trkpt><trkpt lat="44.38203" lon="8.52469"><ele>261.0</ele><time>2026-03-26T15:25:20.948Z</time></trkpt><trkpt lat="44.3819567" lon="8.5247583"><ele>264.8571428571429</ele><time>2026-03-26T15:25:22.949Z</time></trkpt><trkpt lat="44.3819083" lon="8.5248383"><ele>268.7142857142857</ele><time>2026-03-26T15:25:24.948Z</time></trkpt><trkpt lat="44.3818583" lon="8.524915"><ele>272.57142857142856</ele><time>2026-03-26T15:25:26.949Z</time></trkpt><trkpt lat="44.381845" lon="8.5250317"><ele>276.42857142857144</ele><time>2026-03-26T15:25:29.948Z</time></trkpt><trkpt lat="44.3817683" lon="8.525005"><ele>280.2857142857143</ele><time>2026-03-26T15:25:45.948Z</time></trkpt><trkpt lat="44.38171" lon="8.5249633"><ele>284.14285714285717</ele><time>2026-03-26T15:25:47.949Z</time></trkpt><trkpt lat="44.3816467" lon="8.52497"><ele>288.0</ele><time>2026-03-26T15:25:49.948Z</time></trkpt><trkpt lat="44.3815783" lon="8.5250017"><ele>288.0</ele><time>2026-03-26T15:25:51.948Z</time></trkpt><trkpt lat="44.3815267" lon="8.5250583"><ele>288.0</ele><time>2026-03-26T15:25:53.948Z</time></trkpt><trkpt lat="44.381455" lon="8.5251133"><ele>288.0</ele><time>2026-03-26T15:25:55.948Z</time></trkpt><trkpt lat="44.3813917" lon="8.525125"><ele>288.0</ele><time>2026-03-26T15:25:57.949Z</time></trkpt><trkpt lat="44.3813083" lon="8.5251"><ele>288.0</ele><time>2026-03-26T15:25:59.948Z</time></trkpt><trkpt lat="44.38124" lon="8.5250267"><ele>288.0</ele><time>2026-03-26T15:26:01.948Z</time></trkpt><trkpt lat="44.381165" lon="8.5249083"><ele>294.4</ele><time>2026-03-26T15:26:03.949Z</time></trkpt><trkpt lat="44.3810683" lon="8.5248683"><ele>300.8</ele><time>2026-03-26T15:26:05.948Z</time></trkpt><trkpt lat="44.3809633" lon="8.5247433"><ele>307.2</ele><time>2026-03-26T15:26:18.948Z</time></trkpt><trkpt lat="44.3809633" lon="8.5246383"><ele>313.6</ele><time>2026-03-26T15:26:22.948Z</time></trkpt><trkpt lat="44.3809617" lon="8.5245433"><ele>320.0</ele><time>2026-03-26T15:26:25.948Z</time></trkpt><trkpt lat="44.38091" lon="8.524435"><ele>320.0</ele><time>2026-03-26T15:26:28.948Z</time></trkpt><trkpt lat="44.3808583" lon="8.5243667"><ele>320.0</ele><time>2026-03-26T15:26:31.949Z</time></trkpt><trkpt lat="44.3807917" lon="8.5244133"><ele>320.0</ele><time>2026-03-26T15:26:34.949Z</time></trkpt><trkpt lat="44.3807267" lon="8.52447"><ele>320.0</ele><time>2026-03-26T15:26:39.949Z</time></trkpt><trkpt lat="44.3806517" lon="8.5244483"><ele>320.0</ele><time>2026-03-26T15:26:42.948Z</time></trkpt><trkpt lat="44.3805733" lon="8.5244483"><ele>320.0</ele><time>2026-03-26T15:26:45.949Z</time></trkpt><trkpt lat="44.3805067" lon="8.5244583"><ele>320.0</ele><time>2026-03-26T15:26:47.949Z</time></trkpt><trkpt lat="44.38043" lon="8.5244283"><ele>323.4</ele><time>2026-03-26T15:26:49.948Z</time></trkpt><trkpt lat="44.3803383" lon="8.52438"><ele>326.8</ele><time>2026-03-26T15:26:51.948Z</time></trkpt><trkpt lat="44.3802417" lon="8.5243333"><ele>330.20000000000005</ele><time>2026-03-26T15:26:53.948Z</time></trkpt><trkpt lat="44.3801583" lon="8.5242883"><ele>333.6</ele><time>2026-03-26T15:26:55.948Z</time></trkpt><trkpt lat="44.3800533" lon="8.5242467"><ele>337.0</ele><time>2026-03-26T15:26:57.948Z</time></trkpt><trkpt lat="44.379985" lon="8.5242383"><ele>337.0</ele><time>2026-03-26T15:26:58.948Z</time></trkpt><trkpt lat="44.3799133" lon="8.524235"><ele>337.0</ele><time>2026-03-26T15:26:59.948Z</time></trkpt><trkpt lat="44.379835" lon="8.5242417"><ele>337.0</ele><time>2026-03-26T15:27:00.948Z</time></trkpt><trkpt lat="44.379755" lon="8.5242567"><ele>337.0</ele><time>2026-03-26T15:27:01.949Z</time></trkpt><trkpt lat="44.3796717" lon="8.5242833"><ele>337.0</ele><time>2026-03-26T15:27:02.949Z</time></trkpt><trkpt lat="44.3795883" lon="8.5242883"><ele>337.0</ele><time>2026-03-26T15:27:03.948Z</time></trkpt><trkpt lat="44.37951" lon="8.5242917"><ele>340.0</ele><time>2026-03-26T15:27:04.949Z</time></trkpt><trkpt lat="44.3794467" lon="8.5243017"><ele>343.0</ele><time>2026-03-26T15:27:06.949Z</time></trkpt><trkpt lat="44.379345" lon="8.5242817"><ele>346.0</ele><time>2026-03-26T15:27:09.949Z</time></trkpt><trkpt lat="44.3792433" lon="8.5242133"><ele>349.0</ele><time>2026-03-26T15:27:11.948Z</time></trkpt><trkpt lat="44.3791783" lon="8.52419"><ele>352.0</ele><time>2026-03-26T15:27:12.948Z</time></trkpt><trkpt lat="44.37909" lon="8.52417"><ele>355.0</ele><time>2026-03-26T15:27:14.948Z</time></trkpt><trkpt lat="44.3789633" lon="8.5241683"><ele>355.0</ele><time>2026-03-26T15:27:16.949Z</time></trkpt><trkpt lat="44.37889" lon="8.52418"><ele>355.0</ele><time>2026-03-26T15:27:17.948Z</time></trkpt><trkpt lat="44.3787633" lon="8.5242067"><ele>355.0</ele><time>2026-03-26T15:27:19.948Z</time></trkpt><trkpt lat="44.3786867" lon="8.5242167"><ele>355.0</ele><time>2026-03-26T15:27:20.948Z</time></trkpt><trkpt lat="44.3786033" lon="8.5242017"><ele>355.0</ele><time>2026-03-26T15:27:21.948Z</time></trkpt><trkpt lat="44.3785317" lon="8.5241783"><ele>355.0</ele><time>2026-03-26T15:27:22.948Z</time></trkpt><trkpt lat="44.3784667" lon="8.524155"><ele>355.6</ele><time>2026-03-26T15:27:23.949Z</time></trkpt><trkpt lat="44.3783667" lon="8.5241867"><ele>356.2</ele><time>2026-03-26T15:27:25.948Z</time></trkpt><trkpt lat="44.3783" lon="8.524305"><ele>356.79999999999995</ele><time>2026-03-26T15:27:27.948Z</time></trkpt><trkpt lat="44.3782017" lon="8.5244017"><ele>357.4</ele><time>2026-03-26T15:27:29.948Z</time></trkpt><trkpt lat="44.3781133" lon="8.5245133"><ele>358.0</ele><time>2026-03-26T15:27:31.949Z</time></trkpt><trkpt lat="44.37807" lon="8.52461"><ele>358.0</ele><time>2026-03-26T15:27:32.948Z</time></trkpt><trkpt lat="44.378035" lon="8.5247117"><ele>358.0</ele><time>2026-03-26T15:27:33.948Z</time></trkpt><trkpt lat="44.3779967" lon="8.5248217"><ele>358.0</ele><time>2026-03-26T15:27:34.949Z</time></trkpt><trkpt lat="44.3779367" lon="8.5249817"><ele>358.0</ele><time>2026-03-26T15:27:36.948Z</time></trkpt><trkpt lat="44.3778817" lon="8.52505"><ele>358.0</ele><time>2026-03-26T15:27:37.948Z</time></trkpt><trkpt lat="44.3777883" lon="8.5251383"><ele>362.2</ele><time>2026-03-26T15:27:39.948Z</time></trkpt><trkpt lat="44.3777317" lon="8.5252433"><ele>366.4</ele><time>2026-03-26T15:27:41.949Z</time></trkpt><trkpt lat="44.3777183" lon="8.52542"><ele>370.59999999999997</ele><time>2026-03-26T15:27:43.948Z</time></trkpt><trkpt lat="44.3777033" lon="8.5255183"><ele>374.79999999999995</ele><time>2026-03-26T15:27:44.949Z</time></trkpt><trkpt lat="44.3776817" lon="8.5256133"><ele>379.0</ele><time>2026-03-26T15:27:45.949Z</time></trkpt><trkpt lat="44.3776467" lon="8.5257367"><ele>379.00000000000006</ele><time>2026-03-26T15:27:47.949Z</time></trkpt><trkpt lat="44.3776017" lon="8.52582"><ele>379.0</ele><time>2026-03-26T15:27:49.949Z</time></trkpt><trkpt lat="44.377605" lon="8.525925"><ele>379.0</ele><time>2026-03-26T15:28:06.949Z</time></trkpt><trkpt lat="44.3776867" lon="8.5259883"><ele>379.0</ele><time>2026-03-26T15:28:08.949Z</time></trkpt><trkpt lat="44.37775" lon="8.526035"><ele>379.0</ele><time>2026-03-26T15:28:09.948Z</time></trkpt><trkpt lat="44.3778117" lon="8.5260767"><ele>379.00000000000006</ele><time>2026-03-26T15:28:10.948Z</time></trkpt><trkpt lat="44.3778667" lon="8.5261283"><ele>379.0</ele><time>2026-03-26T15:28:11.948Z</time></trkpt><trkpt lat="44.3779233" lon="8.5261867"><ele>378.16666666666663</ele><time>2026-03-26T15:28:12.948Z</time></trkpt><trkpt lat="44.37797" lon="8.5262483"><ele>377.3333333333333</ele><time>2026-03-26T15:28:13.948Z</time></trkpt><trkpt lat="44.378015" lon="8.52631"><ele>376.5</ele><time>2026-03-26T15:28:14.949Z</time></trkpt><trkpt lat="44.3780733" lon="8.5263833"><ele>375.6666666666667</ele><time>2026-03-26T15:28:15.948Z</time></trkpt><trkpt lat="44.3781333" lon="8.5264567"><ele>374.83333333333337</ele><time>2026-03-26T15:28:16.949Z</time></trkpt><trkpt lat="44.3782" lon="8.5265"><ele>374.0</ele><time>2026-03-26T15:28:17.948Z</time></trkpt><trkpt lat="44.378305" lon="8.5265633"><ele>374.0</ele><time>2026-03-26T15:28:19.948Z</time></trkpt><trkpt lat="44.3783717" lon="8.5266583"><ele>374.0</ele><time>2026-03-26T15:28:21.949Z</time></trkpt><trkpt lat="44.3784083" lon="8.5267783"><ele>374.0</ele><time>2026-03-26T15:28:23.948Z</time></trkpt><trkpt lat="44.3783967" lon="8.5269317"><ele>374.0</ele><time>2026-03-26T15:28:25.948Z</time></trkpt><trkpt lat="44.3784233" lon="8.5270117"><ele>374.0</ele><time>2026-03-26T15:28:26.948Z</time></trkpt><trkpt lat="44.3784933" lon="8.5271517"><ele>378.0</ele><time>2026-03-26T15:28:28.949Z</time></trkpt><trkpt lat="44.37855" lon="8.5272133"><ele>382.0</ele><time>2026-03-26T15:28:29.948Z</time></trkpt><trkpt lat="44.378615" lon="8.52732"><ele>386.0</ele><time>2026-03-26T15:28:31.949Z</time></trkpt><trkpt lat="44.37871" lon="8.527415"><ele>390.0</ele><time>2026-03-26T15:28:33.949Z</time></trkpt><trkpt lat="44.3787717" lon="8.5274917"><ele>394.0</ele><time>2026-03-26T15:28:35.948Z</time></trkpt><trkpt lat="44.3788117" lon="8.527615"><ele>394.00000000000006</ele><time>2026-03-26T15:28:37.948Z</time></trkpt><trkpt lat="44.3788417" lon="8.52771"><ele>394.0</ele><time>2026-03-26T15:28:39.949Z</time></trkpt><trkpt lat="44.378895" lon="8.5277867"><ele>394.0</ele><time>2026-03-26T15:28:41.949Z</time></trkpt><trkpt lat="44.3789583" lon="8.5278433"><ele>394.0</ele><time>2026-03-26T15:28:43.95Z</time></trkpt><trkpt lat="44.3790383" lon="8.527895"><ele>394.00000000000006</ele><time>2026-03-26T15:28:45.95Z</time></trkpt><trkpt lat="44.379115" lon="8.5279767"><ele>394.0</ele><time>2026-03-26T15:28:47.95Z</time></trkpt><trkpt lat="44.3791933" lon="8.52811"><ele>390.1666666666667</ele><time>2026-03-26T15:28:49.95Z</time></trkpt><trkpt lat="44.3792333" lon="8.5281883"><ele>386.33333333333337</ele><time>2026-03-26T15:28:50.949Z</time></trkpt><trkpt lat="44.3793017" lon="8.5283017"><ele>382.5</ele><time>2026-03-26T15:28:52.949Z</time></trkpt><trkpt lat="44.37933" lon="8.5283917"><ele>378.6666666666667</ele><time>2026-03-26T15:28:54.949Z</time></trkpt><trkpt lat="44.37931" lon="8.5285117"><ele>374.83333333333337</ele><time>2026-03-26T15:28:57.95Z</time></trkpt><trkpt lat="44.37935" lon="8.5286133"><ele>371.0</ele><time>2026-03-26T15:29:00.95Z</time></trkpt><trkpt lat="44.3794117" lon="8.5286583"><ele>375.4</ele><time>2026-03-26T15:29:02.949Z</time></trkpt><trkpt lat="44.3794983" lon="8.5287483"><ele>379.8</ele><time>2026-03-26T15:29:04.949Z</time></trkpt><trkpt lat="44.379585" lon="8.528855"><ele>384.2</ele><time>2026-03-26T15:29:06.95Z</time></trkpt><trkpt lat="44.3796667" lon="8.5289617"><ele>388.59999999999997</ele><time>2026-03-26T15:29:08.95Z</time></trkpt><trkpt lat="44.3797333" lon="8.529005"><ele>393.0</ele><time>2026-03-26T15:29:09.95Z</time></trkpt><trkpt lat="44.379795" lon="8.5290383"><ele>387.5</ele><time>2026-03-26T15:29:10.95Z</time></trkpt><trkpt lat="44.379905" lon="8.5291233"><ele>382.0</ele><time>2026-03-26T15:29:12.95Z</time></trkpt><trkpt lat="44.3799467" lon="8.5291967"><ele>376.5</ele><time>2026-03-26T15:29:13.95Z</time></trkpt><trkpt lat="44.3799733" lon="8.5293567"><ele>371.0</ele><time>2026-03-26T15:29:15.95Z</time></trkpt><trkpt lat="44.3799717" lon="8.52945"><ele>365.5</ele><time>2026-03-26T15:29:16.95Z</time></trkpt><trkpt lat="44.3799783" lon="8.5295483"><ele>360.0</ele><time>2026-03-26T15:29:17.949Z</time></trkpt><trkpt lat="44.3799417" lon="8.529705"><ele>360.0</ele><time>2026-03-26T15:29:19.949Z</time></trkpt><trkpt lat="44.3798783" lon="8.5298033"><ele>360.0</ele><time>2026-03-26T15:29:21.949Z</time></trkpt><trkpt lat="44.379795" lon="8.5298867"><ele>360.0</ele><time>2026-03-26T15:29:23.949Z</time></trkpt><trkpt lat="44.3797083" lon="8.5299167"><ele>360.0</ele><time>2026-03-26T15:29:25.95Z</time></trkpt><trkpt lat="44.379635" lon="8.5300283"><ele>360.0</ele><time>2026-03-26T15:29:27.95Z</time></trkpt><trkpt lat="44.37962" lon="8.5302067"><ele>367.4</ele><time>2026-03-26T15:29:29.949Z</time></trkpt><trkpt lat="44.379615" lon="8.5303467"><ele>374.8</ele><time>2026-03-26T15:29:30.95Z</time></trkpt><trkpt lat="44.379625" lon="8.5304917"><ele>382.20000000000005</ele><time>2026-03-26T15:29:31.95Z</time></trkpt><trkpt lat="44.37962" lon="8.5306333"><ele>389.6</ele><time>2026-03-26T15:29:32.949Z</time></trkpt><trkpt lat="44.3795933" lon="8.5307367"><ele>397.0</ele><time>2026-03-26T15:29:33.949Z</time></trkpt><trkpt lat="44.3795517" lon="8.53084"><ele>397.0</ele><time>2026-03-26T15:29:34.95Z</time></trkpt><trkpt lat="44.37951" lon="8.5309633"><ele>397.0</ele><time>2026-03-26T15:29:35.95Z</time></trkpt><trkpt lat="44.3794767" lon="8.531095"><ele>397.0</ele><time>2026-03-26T15:29:36.95Z</time></trkpt><trkpt lat="44.3794433" lon="8.5312133"><ele>397.0</ele><time>2026-03-26T15:29:37.949Z</time></trkpt><trkpt lat="44.3794133" lon="8.5313317"><ele>397.0</ele><time>2026-03-26T15:29:38.949Z</time></trkpt><trkpt lat="44.379385" lon="8.5314317"><ele>395.0</ele><time>2026-03-26T15:29:39.949Z</time></trkpt><trkpt lat="44.379365" lon="8.5315967"><ele>393.0</ele><time>2026-03-26T15:29:41.95Z</time></trkpt><trkpt lat="44.3793567" lon="8.5316933"><ele>391.0</ele><time>2026-03-26T15:29:42.949Z</time></trkpt><trkpt lat="44.3793533" lon="8.53184"><ele>389.0</ele><time>2026-03-26T15:29:44.949Z</time></trkpt><trkpt lat="44.3792633" lon="8.5319667"><ele>387.0</ele><time>2026-03-26T15:29:46.949Z</time></trkpt><trkpt lat="44.379185" lon="8.5320167"><ele>387.5</ele><time>2026-03-26T15:29:47.949Z</time></trkpt><trkpt lat="44.3791067" lon="8.5320633"><ele>388.0</ele><time>2026-03-26T15:29:48.949Z</time></trkpt><trkpt lat="44.3790417" lon="8.532125"><ele>388.5</ele><time>2026-03-26T15:29:49.95Z</time></trkpt><trkpt lat="44.3789783" lon="8.5322083"><ele>389.0</ele><time>2026-03-26T15:29:50.95Z</time></trkpt><trkpt lat="44.3789167" lon="8.5322683"><ele>389.5</ele><time>2026-03-26T15:29:51.95Z</time></trkpt><trkpt lat="44.3788567" lon="8.5323033"><ele>390.0</ele><time>2026-03-26T15:29:52.949Z</time></trkpt><trkpt lat="44.3787933" lon="8.53232"><ele>390.0</ele><time>2026-03-26T15:29:53.949Z</time></trkpt><trkpt lat="44.378725" lon="8.532315"><ele>390.0</ele><time>2026-03-26T15:29:54.95Z</time></trkpt><trkpt lat="44.3786483" lon="8.5322917"><ele>390.0</ele><time>2026-03-26T15:29:55.95Z</time></trkpt><trkpt lat="44.378575" lon="8.53229"><ele>390.0</ele><time>2026-03-26T15:29:56.949Z</time></trkpt><trkpt lat="44.3784767" lon="8.5323433"><ele>390.0</ele><time>2026-03-26T15:29:58.95Z</time></trkpt><trkpt lat="44.378425" lon="8.5324767"><ele>390.0</ele><time>2026-03-26T15:30:00.949Z</time></trkpt><trkpt lat="44.37838" lon="8.5325683"><ele>390.0</ele><time>2026-03-26T15:30:01.95Z</time></trkpt><trkpt lat="44.3783117" lon="8.53267"><ele>390.0</ele><time>2026-03-26T15:30:02.95Z</time></trkpt><trkpt lat="44.3782267" lon="8.5327733"><ele>390.0</ele><time>2026-03-26T15:30:03.949Z</time></trkpt><trkpt lat="44.378165" lon="8.5328467"><ele>390.0</ele><time>2026-03-26T15:30:04.949Z</time></trkpt><trkpt lat="44.3781017" lon="8.5328967"><ele>390.0</ele><time>2026-03-26T15:30:05.949Z</time></trkpt><trkpt lat="44.3780333" lon="8.53293"><ele>390.0</ele><time>2026-03-26T15:30:06.95Z</time></trkpt><trkpt lat="44.37796" lon="8.5329483"><ele>387.8</ele><time>2026-03-26T15:30:07.949Z</time></trkpt><trkpt lat="44.3778733" lon="8.53295"><ele>385.6</ele><time>2026-03-26T15:30:08.949Z</time></trkpt><trkpt lat="44.37778" lon="8.5329167"><ele>383.4</ele><time>2026-03-26T15:30:09.95Z</time></trkpt><trkpt lat="44.3776933" lon="8.5328783"><ele>381.2</ele><time>2026-03-26T15:30:10.949Z</time></trkpt><trkpt lat="44.3776033" lon="8.532855"><ele>379.0</ele><time>2026-03-26T15:30:11.949Z</time></trkpt><trkpt lat="44.3775133" lon="8.53284"><ele>379.0</ele><time>2026-03-26T15:30:12.95Z</time></trkpt><trkpt lat="44.37742" lon="8.532835"><ele>379.0</ele><time>2026-03-26T15:30:13.949Z</time></trkpt><trkpt lat="44.3773367" lon="8.5329"><ele>379.0</ele><time>2026-03-26T15:30:14.95Z</time></trkpt><trkpt lat="44.377255" lon="8.5329383"><ele>379.0</ele><time>2026-03-26T15:30:15.95Z</time></trkpt><trkpt lat="44.3771667" lon="8.53296"><ele>379.0</ele><time>2026-03-26T15:30:16.95Z</time></trkpt><trkpt lat="44.3770567" lon="8.5329633"><ele>379.4</ele><time>2026-03-26T15:30:17.949Z</time></trkpt><trkpt lat="44.37694" lon="8.5329667"><ele>379.79999999999995</ele><time>2026-03-26T15:30:18.949Z</time></trkpt><trkpt lat="44.37683" lon="8.532955"><ele>380.20000000000005</ele><time>2026-03-26T15:30:19.949Z</time></trkpt><trkpt lat="44.3767233" lon="8.532915"><ele>380.6</ele><time>2026-03-26T15:30:20.95Z</time></trkpt><trkpt lat="44.376625" lon="8.5328567"><ele>381.0</ele><time>2026-03-26T15:30:21.949Z</time></trkpt><trkpt lat="44.3765217" lon="8.5327983"><ele>384.8</ele><time>2026-03-26T15:30:22.949Z</time></trkpt><trkpt lat="44.3764233" lon="8.5327483"><ele>388.6</ele><time>2026-03-26T15:30:23.95Z</time></trkpt><trkpt lat="44.3763283" lon="8.532695"><ele>392.4</ele><time>2026-03-26T15:30:24.95Z</time></trkpt><trkpt lat="44.3762367" lon="8.53263"><ele>396.2</ele><time>2026-03-26T15:30:25.949Z</time></trkpt><trkpt lat="44.3761483" lon="8.5325633"><ele>400.0</ele><time>2026-03-26T15:30:26.949Z</time></trkpt><trkpt lat="44.3760533" lon="8.53251"><ele>400.0</ele><time>2026-03-26T15:30:27.95Z</time></trkpt><trkpt lat="44.3759517" lon="8.5324783"><ele>400.0</ele><time>2026-03-26T15:30:28.949Z</time></trkpt><trkpt lat="44.3758517" lon="8.5324533"><ele>400.0</ele><time>2026-03-26T15:30:29.95Z</time></trkpt><trkpt lat="44.3757667" lon="8.5324467"><ele>400.0</ele><time>2026-03-26T15:30:30.949Z</time></trkpt><trkpt lat="44.375695" lon="8.5324517"><ele>400.0</ele><time>2026-03-26T15:30:31.95Z</time></trkpt><trkpt lat="44.37561" lon="8.5324867"><ele>400.00000000000006</ele><time>2026-03-26T15:30:33.95Z</time></trkpt><trkpt lat="44.375545" lon="8.5324417"><ele>400.0</ele><time>2026-03-26T15:30:35.95Z</time></trkpt><trkpt lat="44.3755033" lon="8.5323533"><ele>400.0</ele><time>2026-03-26T15:30:38.95Z</time></trkpt><trkpt lat="44.375415" lon="8.53229"><ele>400.0</ele><time>2026-03-26T15:31:19.95Z</time></trkpt><trkpt lat="44.3752883" lon="8.5322833"><ele>400.00000000000006</ele><time>2026-03-26T15:31:21.95Z</time></trkpt><trkpt lat="44.375215" lon="8.5323"><ele>400.0</ele><time>2026-03-26T15:31:22.949Z</time></trkpt><trkpt lat="44.3751467" lon="8.5323333"><ele>399.4</ele><time>2026-03-26T15:31:23.95Z</time></trkpt><trkpt lat="44.3750683" lon="8.5323867"><ele>398.8</ele><time>2026-03-26T15:31:24.949Z</time></trkpt><trkpt lat="44.374985" lon="8.5324517"><ele>398.20000000000005</ele><time>2026-03-26T15:31:25.949Z</time></trkpt><trkpt lat="44.3749" lon="8.5325167"><ele>397.6</ele><time>2026-03-26T15:31:26.95Z</time></trkpt><trkpt lat="44.3748167" lon="8.5325883"><ele>397.0</ele><time>2026-03-26T15:31:27.95Z</time></trkpt><trkpt lat="44.3747317" lon="8.53263"><ele>394.83333333333337</ele><time>2026-03-26T15:31:28.949Z</time></trkpt><trkpt lat="44.37463" lon="8.532665"><ele>392.6666666666667</ele><time>2026-03-26T15:31:29.95Z</time></trkpt><trkpt lat="44.374535" lon="8.5326817"><ele>390.5</ele><time>2026-03-26T15:31:30.95Z</time></trkpt><trkpt lat="44.37445" lon="8.5327033"><ele>388.33333333333337</ele><time>2026-03-26T15:31:31.95Z</time></trkpt><trkpt lat="44.3743767" lon="8.5327383"><ele>386.1666666666667</ele><time>2026-03-26T15:31:32.949Z</time></trkpt><trkpt lat="44.3743133" lon="8.5327767"><ele>384.0</ele><time>2026-03-26T15:31:33.949Z</time></trkpt><trkpt lat="44.3742383" lon="8.5328217"><ele>384.0</ele><time>2026-03-26T15:31:34.95Z</time></trkpt><trkpt lat="44.37418" lon="8.5328833"><ele>384.0</ele><time>2026-03-26T15:31:35.949Z</time></trkpt><trkpt lat="44.3741" lon="8.5329817"><ele>384.0</ele><time>2026-03-26T15:31:37.949Z</time></trkpt><trkpt lat="44.3740383" lon="8.5330667"><ele>384.0</ele><time>2026-03-26T15:31:40.95Z</time></trkpt><trkpt lat="44.3739617" lon="8.5331383"><ele>384.0</ele><time>2026-03-26T15:31:43.95Z</time></trkpt><trkpt lat="44.3739" lon="8.53319"><ele>384.0</ele><time>2026-03-26T15:31:45.949Z</time></trkpt><trkpt lat="44.3738233" lon="8.5332333"><ele>383.6</ele><time>2026-03-26T15:31:48.949Z</time></trkpt><trkpt lat="44.37375" lon="8.5332533"><ele>383.2</ele><time>2026-03-26T15:31:51.95Z</time></trkpt><trkpt lat="44.373645" lon="8.5332683"><ele>382.8</ele><time>2026-03-26T15:31:53.949Z</time></trkpt><trkpt lat="44.3735683" lon="8.5333217"><ele>382.40000000000003</ele><time>2026-03-26T15:31:55.949Z</time></trkpt><trkpt lat="44.3735317" lon="8.5334017"><ele>382.0</ele><time>2026-03-26T15:31:57.949Z</time></trkpt><trkpt lat="44.3734767" lon="8.5336433"><ele>382.40000000000003</ele><time>2026-03-26T15:33:34.95Z</time></trkpt><trkpt lat="44.3734633" lon="8.5337633"><ele>382.8</ele><time>2026-03-26T15:33:36.95Z</time></trkpt><trkpt lat="44.37344" lon="8.5339083"><ele>383.2</ele><time>2026-03-26T15:33:38.949Z</time></trkpt><trkpt lat="44.3734217" lon="8.53407"><ele>383.6</ele><time>2026-03-26T15:33:40.949Z</time></trkpt><trkpt lat="44.3734483" lon="8.5342217"><ele>384.0</ele><time>2026-03-26T15:33:42.949Z</time></trkpt><trkpt lat="44.3734967" lon="8.53437"><ele>384.0</ele><time>2026-03-26T15:33:44.95Z</time></trkpt><trkpt lat="44.37351" lon="8.534515"><ele>384.0</ele><time>2026-03-26T15:33:46.95Z</time></trkpt><trkpt lat="44.37346" lon="8.534665"><ele>384.0</ele><time>2026-03-26T15:33:48.949Z</time></trkpt><trkpt lat="44.373425" lon="8.5347383"><ele>384.0</ele><time>2026-03-26T15:33:49.95Z</time></trkpt><trkpt lat="44.3733933" lon="8.534815"><ele>384.0</ele><time>2026-03-26T15:33:50.949Z</time></trkpt><trkpt lat="44.3733633" lon="8.5349517"><ele>383.1666666666667</ele><time>2026-03-26T15:33:52.949Z</time></trkpt><trkpt lat="44.3734083" lon="8.53508"><ele>382.3333333333333</ele><time>2026-03-26T15:33:54.949Z</time></trkpt><trkpt lat="44.37351" lon="8.535185"><ele>381.5</ele><time>2026-03-26T15:33:56.95Z</time></trkpt><trkpt lat="44.3735717" lon="8.5352317"><ele>380.66666666666663</ele><time>2026-03-26T15:33:57.95Z</time></trkpt><trkpt lat="44.3736283" lon="8.535275"><ele>379.8333333333333</ele><time>2026-03-26T15:33:58.95Z</time></trkpt><trkpt lat="44.3736733" lon="8.5353417"><ele>379.0</ele><time>2026-03-26T15:33:59.949Z</time></trkpt><trkpt lat="44.3737183" lon="8.5354133"><ele>378.0</ele><time>2026-03-26T15:34:00.95Z</time></trkpt><trkpt lat="44.3737533" lon="8.5355017"><ele>377.0</ele><time>2026-03-26T15:34:01.95Z</time></trkpt><trkpt lat="44.3737733" lon="8.5355933"><ele>376.0</ele><time>2026-03-26T15:34:02.95Z</time></trkpt><trkpt lat="44.37379" lon="8.5357517"><ele>375.0</ele><time>2026-03-26T15:34:04.95Z</time></trkpt><trkpt lat="44.3737783" lon="8.5358533"><ele>374.0</ele><time>2026-03-26T15:34:06.949Z</time></trkpt><trkpt lat="44.3738233" lon="8.535975"><ele>373.0</ele><time>2026-03-26T15:34:09.949Z</time></trkpt><trkpt lat="44.3738817" lon="8.5360683"><ele>379.2</ele><time>2026-03-26T15:34:11.95Z</time></trkpt><trkpt lat="44.3739233" lon="8.5361783"><ele>385.4</ele><time>2026-03-26T15:34:13.95Z</time></trkpt><trkpt lat="44.373925" lon="8.5363367"><ele>391.59999999999997</ele><time>2026-03-26T15:34:15.949Z</time></trkpt><trkpt lat="44.3739217" lon="8.53645"><ele>397.79999999999995</ele><time>2026-03-26T15:34:16.949Z</time></trkpt><trkpt lat="44.3739033" lon="8.536585"><ele>404.0</ele><time>2026-03-26T15:34:17.95Z</time></trkpt><trkpt lat="44.3738767" lon="8.5367117"><ele>401.99999999999994</ele><time>2026-03-26T15:34:18.949Z</time></trkpt><trkpt lat="44.3738533" lon="8.536835"><ele>400.0</ele><time>2026-03-26T15:34:19.949Z</time></trkpt><trkpt lat="44.373825" lon="8.5369467"><ele>398.0</ele><time>2026-03-26T15:34:20.95Z</time></trkpt><trkpt lat="44.3737933" lon="8.537055"><ele>396.0</ele><time>2026-03-26T15:34:21.95Z</time></trkpt><trkpt lat="44.37377" lon="8.5371533"><ele>393.99999999999994</ele><time>2026-03-26T15:34:22.949Z</time></trkpt><trkpt lat="44.3737667" lon="8.5373017"><ele>392.0</ele><time>2026-03-26T15:34:24.95Z</time></trkpt><trkpt lat="44.3737767" lon="8.537405"><ele>391.99999999999994</ele><time>2026-03-26T15:34:26.95Z</time></trkpt><trkpt lat="44.3738483" lon="8.537465"><ele>392.0</ele><time>2026-03-26T15:34:33.949Z</time></trkpt><trkpt lat="44.3739217" lon="8.53751"><ele>392.0</ele><time>2026-03-26T15:40:28.95Z</time></trkpt><trkpt lat="44.3739983" lon="8.5374467"><ele>392.0</ele><time>2026-03-26T15:40:30.95Z</time></trkpt><trkpt lat="44.3740667" lon="8.53737"><ele>391.99999999999994</ele><time>2026-03-26T15:40:32.95Z</time></trkpt><trkpt lat="44.373995" lon="8.5374167"><ele>392.0</ele><time>2026-03-26T15:40:55.95Z</time></trkpt><trkpt lat="44.3739333" lon="8.5374733"><ele>393.99999999999994</ele><time>2026-03-26T15:40:57.95Z</time></trkpt><trkpt lat="44.3738717" lon="8.5374917"><ele>396.0</ele><time>2026-03-26T15:41:14.95Z</time></trkpt><trkpt lat="44.3738567" lon="8.5373683"><ele>398.0</ele><time>2026-03-26T15:41:20.949Z</time></trkpt><trkpt lat="44.3738667" lon="8.5372767"><ele>400.0</ele><time>2026-03-26T15:41:22.95Z</time></trkpt><trkpt lat="44.3739083" lon="8.5371733"><ele>401.99999999999994</ele><time>2026-03-26T15:41:24.949Z</time></trkpt><trkpt lat="44.3739533" lon="8.537055"><ele>404.0</ele><time>2026-03-26T15:41:26.949Z</time></trkpt><trkpt lat="44.3739833" lon="8.5369017"><ele>404.0</ele><time>2026-03-26T15:41:28.95Z</time></trkpt><trkpt lat="44.3739983" lon="8.536815"><ele>404.0</ele><time>2026-03-26T15:41:29.95Z</time></trkpt><trkpt lat="44.374015" lon="8.5367067"><ele>404.0</ele><time>2026-03-26T15:41:30.95Z</time></trkpt><trkpt lat="44.37403" lon="8.536615"><ele>404.0</ele><time>2026-03-26T15:41:31.949Z</time></trkpt><trkpt lat="44.3740433" lon="8.536515"><ele>404.0</ele><time>2026-03-26T15:41:32.949Z</time></trkpt><trkpt lat="44.3740483" lon="8.536425"><ele>404.0</ele><time>2026-03-26T15:41:33.95Z</time></trkpt><trkpt lat="44.374" lon="8.5363317"><ele>404.0</ele><time>2026-03-26T15:41:35.95Z</time></trkpt><trkpt lat="44.3739317" lon="8.536255"><ele>405.16666666666663</ele><time>2026-03-26T15:41:37.949Z</time></trkpt><trkpt lat="44.373875" lon="8.5361683"><ele>406.3333333333333</ele><time>2026-03-26T15:41:39.95Z</time></trkpt><trkpt lat="44.3738683" lon="8.5360333"><ele>407.5</ele><time>2026-03-26T15:41:42.949Z</time></trkpt><trkpt lat="44.3738833" lon="8.5359083"><ele>408.66666666666663</ele><time>2026-03-26T15:41:44.95Z</time></trkpt><trkpt lat="44.3738617" lon="8.5358"><ele>409.8333333333333</ele><time>2026-03-26T15:41:46.951Z</time></trkpt><trkpt lat="44.3737983" lon="8.5357067"><ele>411.0</ele><time>2026-03-26T15:41:48.951Z</time></trkpt><trkpt lat="44.3736933" lon="8.5356167"><ele>405.6666666666667</ele><time>2026-03-26T15:41:50.95Z</time></trkpt><trkpt lat="44.37362" lon="8.535555"><ele>400.3333333333333</ele><time>2026-03-26T15:41:51.95Z</time></trkpt><trkpt lat="44.373555" lon="8.5354817"><ele>395.0</ele><time>2026-03-26T15:41:52.95Z</time></trkpt><trkpt lat="44.3735133" lon="8.5353883"><ele>389.66666666666663</ele><time>2026-03-26T15:41:53.951Z</time></trkpt><trkpt lat="44.3734883" lon="8.5352967"><ele>384.3333333333333</ele><time>2026-03-26T15:41:54.95Z</time></trkpt><trkpt lat="44.373485" lon="8.535205"><ele>379.0</ele><time>2026-03-26T15:41:55.95Z</time></trkpt><trkpt lat="44.373495" lon="8.5351117"><ele>379.0</ele><time>2026-03-26T15:41:56.951Z</time></trkpt><trkpt lat="44.3735217" lon="8.53502"><ele>379.0</ele><time>2026-03-26T15:41:57.951Z</time></trkpt><trkpt lat="44.3735483" lon="8.534935"><ele>379.0</ele><time>2026-03-26T15:41:58.951Z</time></trkpt><trkpt lat="44.3735783" lon="8.534775"><ele>379.0</ele><time>2026-03-26T15:42:00.95Z</time></trkpt><trkpt lat="44.3736" lon="8.53461"><ele>379.0</ele><time>2026-03-26T15:42:02.95Z</time></trkpt><trkpt lat="44.3735933" lon="8.5345167"><ele>379.0</ele><time>2026-03-26T15:42:03.951Z</time></trkpt><trkpt lat="44.37358" lon="8.5344183"><ele>380.0</ele><time>2026-03-26T15:42:04.951Z</time></trkpt><trkpt lat="44.3735733" lon="8.5342667"><ele>381.0</ele><time>2026-03-26T15:42:06.951Z</time></trkpt><trkpt lat="44.37358" lon="8.5340983"><ele>382.0</ele><time>2026-03-26T15:42:08.95Z</time></trkpt><trkpt lat="44.373575" lon="8.5339433"><ele>383.0</ele><time>2026-03-26T15:42:10.951Z</time></trkpt><trkpt lat="44.3735" lon="8.5338583"><ele>384.0</ele><time>2026-03-26T15:42:13.95Z</time></trkpt><trkpt lat="44.3733883" lon="8.53381"><ele>384.0</ele><time>2026-03-26T15:42:15.95Z</time></trkpt><trkpt lat="44.3732833" lon="8.5337667"><ele>384.0</ele><time>2026-03-26T15:42:17.95Z</time></trkpt><trkpt lat="44.3732067" lon="8.5337683"><ele>384.0</ele><time>2026-03-26T15:42:19.95Z</time></trkpt><trkpt lat="44.373105" lon="8.5337967"><ele>384.0</ele><time>2026-03-26T15:42:21.951Z</time></trkpt><trkpt lat="44.373005" lon="8.5338633"><ele>384.0</ele><time>2026-03-26T15:42:23.95Z</time></trkpt><trkpt lat="44.37289" lon="8.5338883"><ele>380.5</ele><time>2026-03-26T15:42:25.951Z</time></trkpt><trkpt lat="44.3727767" lon="8.53386"><ele>377.0</ele><time>2026-03-26T15:42:27.951Z</time></trkpt><trkpt lat="44.3727017" lon="8.5338583"><ele>373.5</ele><time>2026-03-26T15:42:28.951Z</time></trkpt><trkpt lat="44.372615" lon="8.5338683"><ele>370.0</ele><time>2026-03-26T15:42:29.95Z</time></trkpt><trkpt lat="44.3725367" lon="8.5338917"><ele>366.5</ele><time>2026-03-26T15:42:30.95Z</time></trkpt><trkpt lat="44.3724583" lon="8.5339267"><ele>363.0</ele><time>2026-03-26T15:42:31.951Z</time></trkpt><trkpt lat="44.3723917" lon="8.5339567"><ele>363.0</ele><time>2026-03-26T15:42:32.95Z</time></trkpt><trkpt lat="44.372275" lon="8.5340117"><ele>363.0</ele><time>2026-03-26T15:42:34.951Z</time></trkpt><trkpt lat="44.3721583" lon="8.5340533"><ele>363.0</ele><time>2026-03-26T15:42:36.951Z</time></trkpt><trkpt lat="44.372095" lon="8.5340583"><ele>363.0</ele><time>2026-03-26T15:42:37.951Z</time></trkpt><trkpt lat="44.3719833" lon="8.5340583"><ele>363.0</ele><time>2026-03-26T15:42:39.951Z</time></trkpt><trkpt lat="44.3718883" lon="8.5339783"><ele>362.5</ele><time>2026-03-26T15:42:41.951Z</time></trkpt><trkpt lat="44.3718333" lon="8.5338933"><ele>362.0</ele><time>2026-03-26T15:42:42.95Z</time></trkpt><trkpt lat="44.3717767" lon="8.5338133"><ele>361.5</ele><time>2026-03-26T15:42:43.951Z</time></trkpt><trkpt lat="44.37172" lon="8.5337367"><ele>361.0</ele><time>2026-03-26T15:42:44.951Z</time></trkpt><trkpt lat="44.3716583" lon="8.53369"><ele>360.5</ele><time>2026-03-26T15:42:45.951Z</time></trkpt><trkpt lat="44.371595" lon="8.5336467"><ele>360.0</ele><time>2026-03-26T15:42:46.95Z</time></trkpt><trkpt lat="44.371515" lon="8.533595"><ele>360.0</ele><time>2026-03-26T15:42:47.95Z</time></trkpt><trkpt lat="44.3714367" lon="8.533535"><ele>360.0</ele><time>2026-03-26T15:42:48.95Z</time></trkpt><trkpt lat="44.3713533" lon="8.5334683"><ele>360.0</ele><time>2026-03-26T15:42:49.951Z</time></trkpt><trkpt lat="44.3712817" lon="8.533415"><ele>360.0</ele><time>2026-03-26T15:42:50.951Z</time></trkpt><trkpt lat="44.3712317" lon="8.5333583"><ele>360.0</ele><time>2026-03-26T15:42:51.95Z</time></trkpt><trkpt lat="44.37117" lon="8.5332333"><ele>360.0</ele><time>2026-03-26T15:42:53.95Z</time></trkpt><trkpt lat="44.3711783" lon="8.5331017"><ele>358.1666666666667</ele><time>2026-03-26T15:42:55.951Z</time></trkpt><trkpt lat="44.3712183" lon="8.53298"><ele>356.3333333333333</ele><time>2026-03-26T15:42:57.951Z</time></trkpt><trkpt lat="44.3712683" lon="8.5328933"><ele>354.5</ele><time>2026-03-26T15:42:59.95Z</time></trkpt><trkpt lat="44.3712967" lon="8.532805"><ele>352.66666666666663</ele><time>2026-03-26T15:43:01.95Z</time></trkpt><trkpt lat="44.3713167" lon="8.532695"><ele>350.8333333333333</ele><time>2026-03-26T15:43:03.95Z</time></trkpt><trkpt lat="44.3713467" lon="8.5325783"><ele>349.0</ele><time>2026-03-26T15:43:05.95Z</time></trkpt><trkpt lat="44.3713667" lon="8.5324717"><ele>349.0</ele><time>2026-03-26T15:43:07.95Z</time></trkpt><trkpt lat="44.3714217" lon="8.5323733"><ele>349.0</ele><time>2026-03-26T15:43:10.95Z</time></trkpt><trkpt lat="44.3715033" lon="8.532275"><ele>349.0</ele><time>2026-03-26T15:43:12.951Z</time></trkpt><trkpt lat="44.3715817" lon="8.5321217"><ele>349.0</ele><time>2026-03-26T15:43:14.951Z</time></trkpt><trkpt lat="44.3716133" lon="8.5320283"><ele>349.0</ele><time>2026-03-26T15:43:15.95Z</time></trkpt><trkpt lat="44.37164" lon="8.5319417"><ele>345.2</ele><time>2026-03-26T15:43:16.951Z</time></trkpt><trkpt lat="44.37165" lon="8.5318233"><ele>341.4</ele><time>2026-03-26T15:43:18.951Z</time></trkpt><trkpt lat="44.3716267" lon="8.5317383"><ele>337.6</ele><time>2026-03-26T15:43:20.951Z</time></trkpt><trkpt lat="44.3715433" lon="8.531655"><ele>333.8</ele><time>2026-03-26T15:43:23.95Z</time></trkpt><trkpt lat="44.3714317" lon="8.5315867"><ele>330.0</ele><time>2026-03-26T15:43:25.951Z</time></trkpt><trkpt lat="44.3713417" lon="8.5314767"><ele>327.3333333333333</ele><time>2026-03-26T15:43:27.95Z</time></trkpt><trkpt lat="44.37126" lon="8.5313883"><ele>324.6666666666667</ele><time>2026-03-26T15:43:29.951Z</time></trkpt><trkpt lat="44.3712033" lon="8.531345"><ele>322.0</ele><time>2026-03-26T15:43:30.951Z</time></trkpt><trkpt lat="44.37114" lon="8.5312967"><ele>319.33333333333337</ele><time>2026-03-26T15:43:31.951Z</time></trkpt><trkpt lat="44.3710833" lon="8.531245"><ele>316.6666666666667</ele><time>2026-03-26T15:43:32.95Z</time></trkpt><trkpt lat="44.371035" lon="8.53118"><ele>314.0</ele><time>2026-03-26T15:43:33.951Z</time></trkpt><trkpt lat="44.3710017" lon="8.53107"><ele>312.5</ele><time>2026-03-26T15:43:35.951Z</time></trkpt><trkpt lat="44.3710367" lon="8.5309917"><ele>311.0</ele><time>2026-03-26T15:43:37.951Z</time></trkpt><trkpt lat="44.3709133" lon="8.5309683"><ele>309.5</ele><time>2026-03-26T15:43:42.951Z</time></trkpt><trkpt lat="44.3708317" lon="8.53097"><ele>308.0</ele><time>2026-03-26T15:43:43.95Z</time></trkpt><trkpt lat="44.3707467" lon="8.5309967"><ele>306.5</ele><time>2026-03-26T15:43:44.951Z</time></trkpt><trkpt lat="44.3706667" lon="8.5310267"><ele>305.0</ele><time>2026-03-26T15:43:45.95Z</time></trkpt><trkpt lat="44.3705933" lon="8.531055"><ele>305.0</ele><time>2026-03-26T15:43:46.95Z</time></trkpt><trkpt lat="44.370535" lon="8.531095"><ele>305.0</ele><time>2026-03-26T15:43:47.95Z</time></trkpt><trkpt lat="44.3704533" lon="8.5311733"><ele>305.0</ele><time>2026-03-26T15:43:49.95Z</time></trkpt><trkpt lat="44.3704133" lon="8.531265"><ele>305.0</ele><time>2026-03-26T15:43:51.95Z</time></trkpt><trkpt lat="44.3703717" lon="8.5313567"><ele>305.0</ele><time>2026-03-26T15:43:53.951Z</time></trkpt><trkpt lat="44.370355" lon="8.5314567"><ele>305.0</ele><time>2026-03-26T15:43:55.95Z</time></trkpt><trkpt lat="44.3703317" lon="8.5315767"><ele>304.1666666666667</ele><time>2026-03-26T15:43:57.95Z</time></trkpt><trkpt lat="44.3703233" lon="8.5316917"><ele>303.33333333333337</ele><time>2026-03-26T15:43:59.951Z</time></trkpt><trkpt lat="44.370295" lon="8.5318233"><ele>302.5</ele><time>2026-03-26T15:44:01.951Z</time></trkpt><trkpt lat="44.37027" lon="8.5319433"><ele>301.6666666666667</ele><time>2026-03-26T15:44:03.951Z</time></trkpt><trkpt lat="44.3702333" lon="8.5320617"><ele>300.8333333333333</ele><time>2026-03-26T15:44:05.951Z</time></trkpt><trkpt lat="44.3701833" lon="8.5321583"><ele>300.0</ele><time>2026-03-26T15:44:07.951Z</time></trkpt><trkpt lat="44.3701333" lon="8.5323"><ele>298.5</ele><time>2026-03-26T15:44:09.951Z</time></trkpt><trkpt lat="44.370105" lon="8.5324033"><ele>297.0</ele><time>2026-03-26T15:44:10.951Z</time></trkpt><trkpt lat="44.3700733" lon="8.5325167"><ele>295.5</ele><time>2026-03-26T15:44:11.95Z</time></trkpt><trkpt lat="44.3700383" lon="8.53263"><ele>294.0</ele><time>2026-03-26T15:44:12.95Z</time></trkpt><trkpt lat="44.3700133" lon="8.5327533"><ele>292.5</ele><time>2026-03-26T15:44:13.951Z</time></trkpt><trkpt lat="44.3699933" lon="8.53288"><ele>291.0</ele><time>2026-03-26T15:44:14.951Z</time></trkpt><trkpt lat="44.3699867" lon="8.533005"><ele>290.1666666666667</ele><time>2026-03-26T15:44:15.951Z</time></trkpt><trkpt lat="44.3699817" lon="8.53312"><ele>289.3333333333333</ele><time>2026-03-26T15:44:16.95Z</time></trkpt><trkpt lat="44.3699783" lon="8.5332217"><ele>288.5</ele><time>2026-03-26T15:44:17.951Z</time></trkpt><trkpt lat="44.36997" lon="8.5333983"><ele>287.66666666666663</ele><time>2026-03-26T15:44:19.951Z</time></trkpt><trkpt lat="44.3699783" lon="8.533495"><ele>286.8333333333333</ele><time>2026-03-26T15:44:20.951Z</time></trkpt><trkpt lat="44.36999" lon="8.5335967"><ele>286.0</ele><time>2026-03-26T15:44:21.95Z</time></trkpt><trkpt lat="44.36999" lon="8.5336883"><ele>284.66666666666663</ele><time>2026-03-26T15:44:22.951Z</time></trkpt><trkpt lat="44.36999" lon="8.5338"><ele>283.3333333333333</ele><time>2026-03-26T15:44:24.951Z</time></trkpt><trkpt lat="44.3699783" lon="8.5339367"><ele>282.0</ele><time>2026-03-26T15:44:26.95Z</time></trkpt><trkpt lat="44.3699433" lon="8.5340867"><ele>280.6666666666667</ele><time>2026-03-26T15:44:28.951Z</time></trkpt><trkpt lat="44.3699167" lon="8.5341817"><ele>279.33333333333337</ele><time>2026-03-26T15:44:29.951Z</time></trkpt><trkpt lat="44.3698917" lon="8.5342683"><ele>278.0</ele><time>2026-03-26T15:44:30.95Z</time></trkpt><trkpt lat="44.3698667" lon="8.5343817"><ele>278.0</ele><time>2026-03-26T15:44:32.95Z</time></trkpt><trkpt lat="44.36987" lon="8.5345467"><ele>278.0</ele><time>2026-03-26T15:44:34.95Z</time></trkpt><trkpt lat="44.3698967" lon="8.5346783"><ele>278.0</ele><time>2026-03-26T15:44:35.95Z</time></trkpt><trkpt lat="44.3699067" lon="8.534775"><ele>278.0</ele><time>2026-03-26T15:44:36.951Z</time></trkpt><trkpt lat="44.369835" lon="8.534905"><ele>278.0</ele><time>2026-03-26T15:44:38.95Z</time></trkpt><trkpt lat="44.3696667" lon="8.5349017"><ele>274.8</ele><time>2026-03-26T15:44:40.951Z</time></trkpt><trkpt lat="44.3695567" lon="8.5348967"><ele>271.6</ele><time>2026-03-26T15:44:41.95Z</time></trkpt><trkpt lat="44.3694567" lon="8.5349083"><ele>268.4</ele><time>2026-03-26T15:44:42.95Z</time></trkpt><trkpt lat="44.36937" lon="8.5349383"><ele>265.2</ele><time>2026-03-26T15:44:43.95Z</time></trkpt><trkpt lat="44.3692833" lon="8.5349867"><ele>262.0</ele><time>2026-03-26T15:44:44.95Z</time></trkpt><trkpt lat="44.3691933" lon="8.5350683"><ele>262.0</ele><time>2026-03-26T15:44:45.951Z</time></trkpt><trkpt lat="44.3690933" lon="8.5351567"><ele>262.0</ele><time>2026-03-26T15:44:46.951Z</time></trkpt><trkpt lat="44.3689967" lon="8.53524"><ele>262.0</ele><time>2026-03-26T15:44:47.95Z</time></trkpt><trkpt lat="44.368875" lon="8.5353083"><ele>262.0</ele><time>2026-03-26T15:44:48.951Z</time></trkpt><trkpt lat="44.3687467" lon="8.53536"><ele>263.2</ele><time>2026-03-26T15:44:49.95Z</time></trkpt><trkpt lat="44.368635" lon="8.5353967"><ele>264.4</ele><time>2026-03-26T15:44:50.95Z</time></trkpt><trkpt lat="44.3685317" lon="8.5354367"><ele>265.6</ele><time>2026-03-26T15:44:51.95Z</time></trkpt><trkpt lat="44.3684333" lon="8.5354683"><ele>266.8</ele><time>2026-03-26T15:44:52.95Z</time></trkpt><trkpt lat="44.3683367" lon="8.5355"><ele>268.0</ele><time>2026-03-26T15:44:53.951Z</time></trkpt><trkpt lat="44.3682517" lon="8.5355333"><ele>268.0</ele><time>2026-03-26T15:44:54.95Z</time></trkpt><trkpt lat="44.36817" lon="8.5355483"><ele>268.0</ele><time>2026-03-26T15:44:55.95Z</time></trkpt><trkpt lat="44.368095" lon="8.5355733"><ele>268.0</ele><time>2026-03-26T15:44:56.95Z</time></trkpt><trkpt lat="44.3680067" lon="8.5356067"><ele>268.0</ele><time>2026-03-26T15:44:57.951Z</time></trkpt><trkpt lat="44.36791" lon="8.5356633"><ele>268.0</ele><time>2026-03-26T15:44:58.951Z</time></trkpt><trkpt lat="44.3678133" lon="8.535725"><ele>266.4</ele><time>2026-03-26T15:44:59.95Z</time></trkpt><trkpt lat="44.367725" lon="8.5357917"><ele>264.8</ele><time>2026-03-26T15:45:00.951Z</time></trkpt><trkpt lat="44.367635" lon="8.5358683"><ele>263.2</ele><time>2026-03-26T15:45:01.95Z</time></trkpt><trkpt lat="44.3675567" lon="8.5359333"><ele>261.6</ele><time>2026-03-26T15:45:02.95Z</time></trkpt><trkpt lat="44.3674833" lon="8.5359917"><ele>260.0</ele><time>2026-03-26T15:45:03.951Z</time></trkpt><trkpt lat="44.367415" lon="8.5360733"><ele>260.0</ele><time>2026-03-26T15:45:04.951Z</time></trkpt><trkpt lat="44.3673467" lon="8.5361633"><ele>260.0</ele><time>2026-03-26T15:45:05.951Z</time></trkpt><trkpt lat="44.3672767" lon="8.5362617"><ele>260.0</ele><time>2026-03-26T15:45:06.951Z</time></trkpt><trkpt lat="44.3671967" lon="8.53636"><ele>260.0</ele><time>2026-03-26T15:45:07.951Z</time></trkpt><trkpt lat="44.367115" lon="8.536455"><ele>260.0</ele><time>2026-03-26T15:45:08.951Z</time></trkpt><trkpt lat="44.3670367" lon="8.5365467"><ele>258.6</ele><time>2026-03-26T15:45:09.95Z</time></trkpt><trkpt lat="44.3669567" lon="8.53661"><ele>257.2</ele><time>2026-03-26T15:45:10.95Z</time></trkpt><trkpt lat="44.3668717" lon="8.5366733"><ele>255.8</ele><time>2026-03-26T15:45:11.95Z</time></trkpt><trkpt lat="44.366795" lon="8.5367417"><ele>254.4</ele><time>2026-03-26T15:45:12.95Z</time></trkpt><trkpt lat="44.3667133" lon="8.5368067"><ele>253.0</ele><time>2026-03-26T15:45:13.951Z</time></trkpt><trkpt lat="44.3666333" lon="8.5368483"><ele>253.0</ele><time>2026-03-26T15:45:14.95Z</time></trkpt><trkpt lat="44.3665467" lon="8.536865"><ele>253.0</ele><time>2026-03-26T15:45:15.95Z</time></trkpt><trkpt lat="44.3664467" lon="8.536875"><ele>253.0</ele><time>2026-03-26T15:45:16.951Z</time></trkpt><trkpt lat="44.366345" lon="8.536875"><ele>253.0</ele><time>2026-03-26T15:45:17.95Z</time></trkpt><trkpt lat="44.36624" lon="8.53685"><ele>253.0</ele><time>2026-03-26T15:45:18.951Z</time></trkpt><trkpt lat="44.3661083" lon="8.5368317"><ele>251.5</ele><time>2026-03-26T15:45:19.951Z</time></trkpt><trkpt lat="44.365975" lon="8.5368133"><ele>250.0</ele><time>2026-03-26T15:45:20.95Z</time></trkpt><trkpt lat="44.3658417" lon="8.5367967"><ele>248.5</ele><time>2026-03-26T15:45:21.951Z</time></trkpt><trkpt lat="44.3657283" lon="8.536775"><ele>247.0</ele><time>2026-03-26T15:45:22.951Z</time></trkpt><trkpt lat="44.3656217" lon="8.5367433"><ele>247.0</ele><time>2026-03-26T15:45:23.951Z</time></trkpt><trkpt lat="44.3655333" lon="8.5367033"><ele>247.0</ele><time>2026-03-26T15:45:24.951Z</time></trkpt><trkpt lat="44.3654517" lon="8.5366417"><ele>247.0</ele><time>2026-03-26T15:45:25.95Z</time></trkpt><trkpt lat="44.3653783" lon="8.536555"><ele>247.0</ele><time>2026-03-26T15:45:26.95Z</time></trkpt><trkpt lat="44.365315" lon="8.5364633"><ele>247.0</ele><time>2026-03-26T15:45:27.95Z</time></trkpt><trkpt lat="44.365245" lon="8.5363833"><ele>245.39999999999998</ele><time>2026-03-26T15:45:28.951Z</time></trkpt><trkpt lat="44.3651717" lon="8.5363267"><ele>243.79999999999998</ele><time>2026-03-26T15:45:29.951Z</time></trkpt><trkpt lat="44.365085" lon="8.5362967"><ele>242.2</ele><time>2026-03-26T15:45:30.951Z</time></trkpt><trkpt lat="44.3649767" lon="8.5362933"><ele>240.6</ele><time>2026-03-26T15:45:31.951Z</time></trkpt><trkpt lat="44.3648617" lon="8.5363267"><ele>239.0</ele><time>2026-03-26T15:45:32.95Z</time></trkpt><trkpt lat="44.36474" lon="8.5363683"><ele>238.25</ele><time>2026-03-26T15:45:33.95Z</time></trkpt><trkpt lat="44.3646083" lon="8.5364117"><ele>237.5</ele><time>2026-03-26T15:45:34.951Z</time></trkpt><trkpt lat="44.3644867" lon="8.5364383"><ele>236.75</ele><time>2026-03-26T15:45:35.951Z</time></trkpt><trkpt lat="44.3643633" lon="8.536445"><ele>236.0</ele><time>2026-03-26T15:45:36.95Z</time></trkpt><trkpt lat="44.36425" lon="8.5364417"><ele>236.0</ele><time>2026-03-26T15:45:37.951Z</time></trkpt><trkpt lat="44.3641333" lon="8.5364183"><ele>236.00000000000003</ele><time>2026-03-26T15:45:38.951Z</time></trkpt><trkpt lat="44.3640417" lon="8.536385"><ele>236.00000000000003</ele><time>2026-03-26T15:45:39.951Z</time></trkpt><trkpt lat="44.3639417" lon="8.5363317"><ele>236.0</ele><time>2026-03-26T15:45:40.95Z</time></trkpt><trkpt lat="44.3638583" lon="8.5362833"><ele>236.0</ele><time>2026-03-26T15:45:41.951Z</time></trkpt><trkpt lat="44.3637883" lon="8.5362567"><ele>235.16666666666669</ele><time>2026-03-26T15:45:42.951Z</time></trkpt><trkpt lat="44.3636767" lon="8.5362117"><ele>234.33333333333334</ele><time>2026-03-26T15:45:44.951Z</time></trkpt><trkpt lat="44.3636167" lon="8.536185"><ele>233.5</ele><time>2026-03-26T15:45:45.95Z</time></trkpt><trkpt lat="44.3634967" lon="8.5361683"><ele>232.66666666666669</ele><time>2026-03-26T15:45:47.951Z</time></trkpt><trkpt lat="44.3634283" lon="8.536185"><ele>231.83333333333334</ele><time>2026-03-26T15:45:48.95Z</time></trkpt><trkpt lat="44.3633567" lon="8.536205"><ele>231.0</ele><time>2026-03-26T15:45:49.951Z</time></trkpt><trkpt lat="44.363275" lon="8.53623"><ele>230.16666666666666</ele><time>2026-03-26T15:45:50.95Z</time></trkpt><trkpt lat="44.363195" lon="8.5362467"><ele>229.33333333333331</ele><time>2026-03-26T15:45:51.95Z</time></trkpt><trkpt lat="44.3631183" lon="8.536245"><ele>228.5</ele><time>2026-03-26T15:45:52.951Z</time></trkpt><trkpt lat="44.3630533" lon="8.5362283"><ele>227.66666666666666</ele><time>2026-03-26T15:45:53.95Z</time></trkpt><trkpt lat="44.3629517" lon="8.5361367"><ele>226.83333333333331</ele><time>2026-03-26T15:45:55.951Z</time></trkpt><trkpt lat="44.36288" lon="8.536095"><ele>226.0</ele><time>2026-03-26T15:45:56.951Z</time></trkpt><trkpt lat="44.3628033" lon="8.5360433"><ele>225.99999999999997</ele><time>2026-03-26T15:45:57.95Z</time></trkpt><trkpt lat="44.3627167" lon="8.5360083"><ele>226.0</ele><time>2026-03-26T15:45:58.95Z</time></trkpt><trkpt lat="44.3626367" lon="8.5360067"><ele>226.0</ele><time>2026-03-26T15:45:59.951Z</time></trkpt><trkpt lat="44.3625583" lon="8.536015"><ele>226.0</ele><time>2026-03-26T15:46:00.951Z</time></trkpt><trkpt lat="44.3624783" lon="8.5360317"><ele>225.99999999999997</ele><time>2026-03-26T15:46:01.951Z</time></trkpt><trkpt lat="44.362385" lon="8.536065"><ele>226.0</ele><time>2026-03-26T15:46:02.95Z</time></trkpt><trkpt lat="44.36229" lon="8.5361083"><ele>227.0</ele><time>2026-03-26T15:46:03.951Z</time></trkpt><trkpt lat="44.362195" lon="8.5361533"><ele>228.00000000000003</ele><time>2026-03-26T15:46:04.951Z</time></trkpt><trkpt lat="44.3620867" lon="8.5362"><ele>229.00000000000003</ele><time>2026-03-26T15:46:05.951Z</time></trkpt><trkpt lat="44.361985" lon="8.5362467"><ele>230.0</ele><time>2026-03-26T15:46:06.951Z</time></trkpt><trkpt lat="44.3618933" lon="8.53628"><ele>231.0</ele><time>2026-03-26T15:46:07.95Z</time></trkpt><trkpt lat="44.3618117" lon="8.536325"><ele>231.0</ele><time>2026-03-26T15:46:08.95Z</time></trkpt><trkpt lat="44.3617367" lon="8.53637"><ele>231.00000000000003</ele><time>2026-03-26T15:46:09.951Z</time></trkpt><trkpt lat="44.361655" lon="8.5364133"><ele>231.00000000000003</ele><time>2026-03-26T15:46:10.95Z</time></trkpt><trkpt lat="44.3615683" lon="8.5364633"><ele>231.0</ele><time>2026-03-26T15:46:11.95Z</time></trkpt><trkpt lat="44.36148" lon="8.5365233"><ele>231.0</ele><time>2026-03-26T15:46:12.951Z</time></trkpt><trkpt lat="44.361385" lon="8.536565"><ele>229.4</ele><time>2026-03-26T15:46:13.951Z</time></trkpt><trkpt lat="44.3612883" lon="8.5366133"><ele>227.8</ele><time>2026-03-26T15:46:14.951Z</time></trkpt><trkpt lat="44.36119" lon="8.536665"><ele>226.20000000000002</ele><time>2026-03-26T15:46:15.95Z</time></trkpt><trkpt lat="44.3610933" lon="8.53673"><ele>224.60000000000002</ele><time>2026-03-26T15:46:16.951Z</time></trkpt><trkpt lat="44.3610067" lon="8.5367683"><ele>223.0</ele><time>2026-03-26T15:46:17.951Z</time></trkpt><trkpt lat="44.3609267" lon="8.5367933"><ele>222.99999999999997</ele><time>2026-03-26T15:46:18.951Z</time></trkpt><trkpt lat="44.3608383" lon="8.5367967"><ele>223.0</ele><time>2026-03-26T15:46:19.95Z</time></trkpt><trkpt lat="44.3607533" lon="8.5367917"><ele>223.0</ele><time>2026-03-26T15:46:20.95Z</time></trkpt><trkpt lat="44.36067" lon="8.536775"><ele>223.0</ele><time>2026-03-26T15:46:21.95Z</time></trkpt><trkpt lat="44.3605933" lon="8.536745"><ele>222.99999999999997</ele><time>2026-03-26T15:46:22.951Z</time></trkpt><trkpt lat="44.3605067" lon="8.5367217"><ele>223.0</ele><time>2026-03-26T15:46:23.951Z</time></trkpt><trkpt lat="44.3604017" lon="8.53669"><ele>221.99999999999997</ele><time>2026-03-26T15:46:24.951Z</time></trkpt><trkpt lat="44.3602967" lon="8.5366617"><ele>221.0</ele><time>2026-03-26T15:46:25.95Z</time></trkpt><trkpt lat="44.3602067" lon="8.5366467"><ele>220.0</ele><time>2026-03-26T15:46:26.951Z</time></trkpt><trkpt lat="44.360135" lon="8.536645"><ele>219.0</ele><time>2026-03-26T15:46:27.95Z</time></trkpt><trkpt lat="44.360055" lon="8.53663"><ele>217.99999999999997</ele><time>2026-03-26T15:46:29.951Z</time></trkpt><trkpt lat="44.36" lon="8.5365283"><ele>217.0</ele><time>2026-03-26T15:46:31.95Z</time></trkpt><trkpt lat="44.3599533" lon="8.53643"><ele>217.0</ele><time>2026-03-26T15:46:32.951Z</time></trkpt><trkpt lat="44.3599" lon="8.5363233"><ele>217.0</ele><time>2026-03-26T15:46:33.951Z</time></trkpt><trkpt lat="44.3598483" lon="8.5362167"><ele>217.0</ele><time>2026-03-26T15:46:34.951Z</time></trkpt><trkpt lat="44.3597983" lon="8.5361017"><ele>217.0</ele><time>2026-03-26T15:46:35.951Z</time></trkpt><trkpt lat="44.359755" lon="8.5359867"><ele>217.0</ele><time>2026-03-26T15:46:36.951Z</time></trkpt><trkpt lat="44.3597033" lon="8.5358717"><ele>211.2</ele><time>2026-03-26T15:46:37.951Z</time></trkpt><trkpt lat="44.3596617" lon="8.535755"><ele>205.39999999999998</ele><time>2026-03-26T15:46:38.95Z</time></trkpt><trkpt lat="44.3596067" lon="8.53566"><ele>199.60000000000002</ele><time>2026-03-26T15:46:39.951Z</time></trkpt><trkpt lat="44.35954" lon="8.535575"><ele>193.8</ele><time>2026-03-26T15:46:40.95Z</time></trkpt><trkpt lat="44.3594583" lon="8.5354867"><ele>188.0</ele><time>2026-03-26T15:46:41.95Z</time></trkpt><trkpt lat="44.359385" lon="8.5353883"><ele>187.60000000000002</ele><time>2026-03-26T15:46:42.951Z</time></trkpt><trkpt lat="44.359305" lon="8.5353"><ele>187.20000000000002</ele><time>2026-03-26T15:46:43.951Z</time></trkpt><trkpt lat="44.3592183" lon="8.535215"><ele>186.8</ele><time>2026-03-26T15:46:44.95Z</time></trkpt><trkpt lat="44.35913" lon="8.5351383"><ele>186.4</ele><time>2026-03-26T15:46:45.951Z</time></trkpt><trkpt lat="44.3590333" lon="8.5350633"><ele>186.0</ele><time>2026-03-26T15:46:46.951Z</time></trkpt><trkpt lat="44.3589533" lon="8.534995"><ele>186.0</ele><time>2026-03-26T15:46:47.95Z</time></trkpt><trkpt lat="44.358895" lon="8.5349417"><ele>186.0</ele><time>2026-03-26T15:46:48.951Z</time></trkpt><trkpt lat="44.3587983" lon="8.5349217"><ele>186.0</ele><time>2026-03-26T15:46:50.95Z</time></trkpt><trkpt lat="44.35874" lon="8.53496"><ele>186.0</ele><time>2026-03-26T15:46:51.95Z</time></trkpt><trkpt lat="44.3586733" lon="8.5350117"><ele>186.0</ele><time>2026-03-26T15:46:52.951Z</time></trkpt><trkpt lat="44.3586" lon="8.5350633"><ele>186.0</ele><time>2026-03-26T15:46:53.951Z</time></trkpt><trkpt lat="44.358525" lon="8.5350883"><ele>184.8</ele><time>2026-03-26T15:46:54.95Z</time></trkpt><trkpt lat="44.3584417" lon="8.5351033"><ele>183.60000000000002</ele><time>2026-03-26T15:46:55.951Z</time></trkpt><trkpt lat="44.3583583" lon="8.5351067"><ele>182.4</ele><time>2026-03-26T15:46:56.95Z</time></trkpt><trkpt lat="44.3582667" lon="8.5350933"><ele>181.2</ele><time>2026-03-26T15:46:57.95Z</time></trkpt><trkpt lat="44.3581733" lon="8.5350667"><ele>180.0</ele><time>2026-03-26T15:46:58.95Z</time></trkpt><trkpt lat="44.35807" lon="8.5350417"><ele>177.8</ele><time>2026-03-26T15:46:59.95Z</time></trkpt><trkpt lat="44.3579667" lon="8.5350067"><ele>175.6</ele><time>2026-03-26T15:47:00.95Z</time></trkpt><trkpt lat="44.357885" lon="8.5349717"><ele>173.39999999999998</ele><time>2026-03-26T15:47:01.951Z</time></trkpt><trkpt lat="44.3578133" lon="8.5349317"><ele>171.2</ele><time>2026-03-26T15:47:02.951Z</time></trkpt><trkpt lat="44.357735" lon="8.534875"><ele>169.0</ele><time>2026-03-26T15:47:03.95Z</time></trkpt><trkpt lat="44.35765" lon="8.5348083"><ele>169.0</ele><time>2026-03-26T15:47:04.95Z</time></trkpt><trkpt lat="44.3575583" lon="8.53475"><ele>169.0</ele><time>2026-03-26T15:47:05.95Z</time></trkpt><trkpt lat="44.3574633" lon="8.53469"><ele>169.0</ele><time>2026-03-26T15:47:06.951Z</time></trkpt><trkpt lat="44.35738" lon="8.5346367"><ele>169.0</ele><time>2026-03-26T15:47:07.951Z</time></trkpt><trkpt lat="44.3572983" lon="8.5345867"><ele>169.0</ele><time>2026-03-26T15:47:08.951Z</time></trkpt><trkpt lat="44.3572333" lon="8.53455"><ele>165.0</ele><time>2026-03-26T15:47:09.951Z</time></trkpt><trkpt lat="44.357175" lon="8.5345"><ele>161.0</ele><time>2026-03-26T15:47:10.95Z</time></trkpt><trkpt lat="44.3570983" lon="8.5343833"><ele>157.0</ele><time>2026-03-26T15:47:12.951Z</time></trkpt><trkpt lat="44.3570183" lon="8.5342817"><ele>153.0</ele><time>2026-03-26T15:47:14.95Z</time></trkpt><trkpt lat="44.3569267" lon="8.5342217"><ele>149.0</ele><time>2026-03-26T15:47:16.95Z</time></trkpt><trkpt lat="44.356835" lon="8.5341883"><ele>149.0</ele><time>2026-03-26T15:47:18.951Z</time></trkpt><trkpt lat="44.3567517" lon="8.5341783"><ele>149.0</ele><time>2026-03-26T15:47:20.951Z</time></trkpt><trkpt lat="44.3566267" lon="8.53419"><ele>149.0</ele><time>2026-03-26T15:47:22.951Z</time></trkpt><trkpt lat="44.3565633" lon="8.534195"><ele>149.0</ele><time>2026-03-26T15:47:23.951Z</time></trkpt><trkpt lat="44.35645" lon="8.5341667"><ele>149.0</ele><time>2026-03-26T15:47:25.95Z</time></trkpt><trkpt lat="44.3563533" lon="8.53413"><ele>142.4</ele><time>2026-03-26T15:47:27.95Z</time></trkpt><trkpt lat="44.3562583" lon="8.5340883"><ele>135.8</ele><time>2026-03-26T15:47:29.951Z</time></trkpt><trkpt lat="44.356175" lon="8.53409"><ele>129.2</ele><time>2026-03-26T15:47:31.95Z</time></trkpt><trkpt lat="44.356115" lon="8.5341833"><ele>122.6</ele><time>2026-03-26T15:47:33.951Z</time></trkpt><trkpt lat="44.3561083" lon="8.53436"><ele>116.0</ele><time>2026-03-26T15:47:35.951Z</time></trkpt><trkpt lat="44.3561267" lon="8.5344483"><ele>116.0</ele><time>2026-03-26T15:47:36.951Z</time></trkpt><trkpt lat="44.3561433" lon="8.5345367"><ele>116.0</ele><time>2026-03-26T15:47:37.951Z</time></trkpt><trkpt lat="44.3561767" lon="8.5347083"><ele>116.0</ele><time>2026-03-26T15:47:39.951Z</time></trkpt><trkpt lat="44.3561783" lon="8.5348617"><ele>116.0</ele><time>2026-03-26T15:47:41.95Z</time></trkpt><trkpt lat="44.35615" lon="8.5349733"><ele>116.0</ele><time>2026-03-26T15:47:43.95Z</time></trkpt><trkpt lat="44.3560917" lon="8.5350567"><ele>115.83333333333333</ele><time>2026-03-26T15:47:45.95Z</time></trkpt><trkpt lat="44.3560233" lon="8.5350833"><ele>115.66666666666666</ele><time>2026-03-26T15:47:47.951Z</time></trkpt><trkpt lat="44.3559633" lon="8.5349917"><ele>115.5</ele><time>2026-03-26T15:47:50.951Z</time></trkpt><trkpt lat="44.3559567" lon="8.5348533"><ele>115.33333333333334</ele><time>2026-03-26T15:47:52.951Z</time></trkpt><trkpt lat="44.35594" lon="8.5347467"><ele>115.16666666666667</ele><time>2026-03-26T15:47:54.95Z</time></trkpt><trkpt lat="44.3558867" lon="8.5348567"><ele>115.0</ele><time>2026-03-26T15:47:58.951Z</time></trkpt><trkpt lat="44.355855" lon="8.53495"><ele>114.99999999999999</ele><time>2026-03-26T15:48:00.95Z</time></trkpt><trkpt lat="44.3557917" lon="8.5349283"><ele>115.0</ele><time>2026-03-26T15:48:03.95Z</time></trkpt><trkpt lat="44.355745" lon="8.5348183"><ele>114.99999999999999</ele><time>2026-03-26T15:48:05.951Z</time></trkpt><trkpt lat="44.355695" lon="8.5349067"><ele>114.99999999999999</ele><time>2026-03-26T15:48:09.95Z</time></trkpt><trkpt lat="44.3557017" lon="8.535005"><ele>115.0</ele><time>2026-03-26T15:48:10.951Z</time></trkpt><trkpt lat="44.3557117" lon="8.5350933"><ele>114.99999999999999</ele><time>2026-03-26T15:48:11.951Z</time></trkpt><trkpt lat="44.3557283" lon="8.535185"><ele>114.99999999999999</ele><time>2026-03-26T15:48:12.95Z</time></trkpt><trkpt lat="44.3557617" lon="8.53534"><ele>113.6</ele><time>2026-03-26T15:48:14.95Z</time></trkpt><trkpt lat="44.355815" lon="8.5354967"><ele>112.2</ele><time>2026-03-26T15:48:16.951Z</time></trkpt><trkpt lat="44.3558317" lon="8.53565"><ele>110.80000000000001</ele><time>2026-03-26T15:48:18.95Z</time></trkpt><trkpt lat="44.3558183" lon="8.5357583"><ele>109.4</ele><time>2026-03-26T15:48:21.95Z</time></trkpt><trkpt lat="44.355745" lon="8.5356517"><ele>108.0</ele><time>2026-03-26T15:48:25.95Z</time></trkpt><trkpt lat="44.3556467" lon="8.5355417"><ele>108.0</ele><time>2026-03-26T15:48:27.95Z</time></trkpt><trkpt lat="44.3555533" lon="8.5355383"><ele>108.00000000000001</ele><time>2026-03-26T15:48:29.95Z</time></trkpt><trkpt lat="44.3555483" lon="8.5356333"><ele>108.00000000000001</ele><time>2026-03-26T15:48:31.951Z</time></trkpt><trkpt lat="44.3556" lon="8.5358117"><ele>108.0</ele><time>2026-03-26T15:48:33.951Z</time></trkpt><trkpt lat="44.355625" lon="8.5359417"><ele>108.0</ele><time>2026-03-26T15:48:34.95Z</time></trkpt><trkpt lat="44.3556433" lon="8.5360617"><ele>108.0</ele><time>2026-03-26T15:48:35.951Z</time></trkpt><trkpt lat="44.3556433" lon="8.53616"><ele>108.0</ele><time>2026-03-26T15:48:36.95Z</time></trkpt><trkpt lat="44.3556183" lon="8.536285"><ele>108.0</ele><time>2026-03-26T15:48:38.951Z</time></trkpt><trkpt lat="44.3555183" lon="8.5362983"><ele>108.0</ele><time>2026-03-26T15:48:40.951Z</time></trkpt><trkpt lat="44.3554567" lon="8.536265"><ele>108.0</ele><time>2026-03-26T15:48:41.95Z</time></trkpt><trkpt lat="44.355375" lon="8.5362217"><ele>108.0</ele><time>2026-03-26T15:48:42.95Z</time></trkpt><trkpt lat="44.3552817" lon="8.5361833"><ele>106.16666666666667</ele><time>2026-03-26T15:48:43.951Z</time></trkpt><trkpt lat="44.355195" lon="8.536165"><ele>104.33333333333334</ele><time>2026-03-26T15:48:44.95Z</time></trkpt><trkpt lat="44.3551083" lon="8.5361617"><ele>102.5</ele><time>2026-03-26T15:48:45.951Z</time></trkpt><trkpt lat="44.3550233" lon="8.5361733"><ele>100.66666666666667</ele><time>2026-03-26T15:48:46.951Z</time></trkpt><trkpt lat="44.354935" lon="8.5361817"><ele>98.83333333333334</ele><time>2026-03-26T15:48:47.95Z</time></trkpt><trkpt lat="44.35485" lon="8.5362033"><ele>97.0</ele><time>2026-03-26T15:48:48.951Z</time></trkpt><trkpt lat="44.354765" lon="8.5362217"><ele>94.50000000000001</ele><time>2026-03-26T15:48:49.951Z</time></trkpt><trkpt lat="44.3546833" lon="8.536225"><ele>92.0</ele><time>2026-03-26T15:48:50.95Z</time></trkpt><trkpt lat="44.35459" lon="8.536235"><ele>89.5</ele><time>2026-03-26T15:48:51.951Z</time></trkpt><trkpt lat="44.354505" lon="8.5362317"><ele>87.0</ele><time>2026-03-26T15:48:52.95Z</time></trkpt><trkpt lat="44.354425" lon="8.5362367"><ele>84.5</ele><time>2026-03-26T15:48:53.951Z</time></trkpt><trkpt lat="44.3543467" lon="8.5362317"><ele>82.0</ele><time>2026-03-26T15:48:54.95Z</time></trkpt><trkpt lat="44.3542833" lon="8.5362117"><ele>78.0</ele><time>2026-03-26T15:48:55.951Z</time></trkpt><trkpt lat="44.3542" lon="8.5360967"><ele>74.0</ele><time>2026-03-26T15:48:57.95Z</time></trkpt><trkpt lat="44.3541683" lon="8.5360117"><ele>70.0</ele><time>2026-03-26T15:48:58.95Z</time></trkpt><trkpt lat="44.3541533" lon="8.5359183"><ele>66.0</ele><time>2026-03-26T15:48:59.95Z</time></trkpt><trkpt lat="44.3541083" lon="8.5357717"><ele>62.0</ele><time>2026-03-26T15:49:01.95Z</time></trkpt><trkpt lat="44.3540533" lon="8.5356767"><ele>62.0</ele><time>2026-03-26T15:49:03.95Z</time></trkpt><trkpt lat="44.353995" lon="8.5356383"><ele>62.0</ele><time>2026-03-26T15:49:06.95Z</time></trkpt></trkseg></trk></gpx>